<?xml version="1.0" encoding="UTF-8" standalone="no" ?>
<gpx xmlns="http://www.topografix.com/GPX/1/1" xmlns:xsi="http://www.w3.org/2001/XMLSchema-instance" xsi:schemaLocation="http://www.topografix.com/GPX/1/1 http://www.topografix.com/GPX/1/1/gpx.xsd" version="1.1" creator="VisuGPX - https://www.visugpx.com">
  <metadata>
    <name>2018-08-08 Bike ride-Georges de Reneins O v47k</name>
    <desc><![CDATA[2018-08-08 Bike ride-Georges de Reneins O v47k]]></desc>
  </metadata>
  <wpt lat="45.92439" lon="4.73707">
    <ele>174</ele>
    <name><![CDATA[2018-08-08 10:06 (Start)]]></name>
  </wpt>
  <wpt lat="45.92457" lon="4.73707">
    <ele>174</ele>
    <name><![CDATA[2018-08-08 10:06 (End)]]></name>
  </wpt>
  <trk>
    <name><![CDATA[2018-08-08 10:06]]></name>
    <trkseg>
      <trkpt lat="45.92439" lon="4.73707">
        <ele>174</ele>
        <time>2018-08-08T08:06:22.867Z</time>
      </trkpt>
      <trkpt lat="45.92439" lon="4.73707">
        <ele>174</ele>
        <time>2018-08-08T08:06:26Z</time>
      </trkpt>
      <trkpt lat="45.92439" lon="4.73706">
        <ele>174</ele>
        <time>2018-08-08T08:06:27Z</time>
      </trkpt>
      <trkpt lat="45.9244" lon="4.73703">
        <ele>174</ele>
        <time>2018-08-08T08:06:29.477Z</time>
      </trkpt>
      <trkpt lat="45.9244" lon="4.73703">
        <ele>174</ele>
        <time>2018-08-08T08:06:30Z</time>
      </trkpt>
      <trkpt lat="45.92442" lon="4.73699">
        <ele>174</ele>
        <time>2018-08-08T08:06:37Z</time>
      </trkpt>
      <trkpt lat="45.92442" lon="4.73698">
        <ele>174</ele>
        <time>2018-08-08T08:06:38Z</time>
      </trkpt>
      <trkpt lat="45.92443" lon="4.73698">
        <ele>174</ele>
        <time>2018-08-08T08:06:41Z</time>
      </trkpt>
      <trkpt lat="45.92444" lon="4.73698">
        <ele>174</ele>
        <time>2018-08-08T08:06:42Z</time>
      </trkpt>
      <trkpt lat="45.92452" lon="4.73696">
        <ele>174</ele>
        <time>2018-08-08T08:07:08Z</time>
      </trkpt>
      <trkpt lat="45.92453" lon="4.73694">
        <ele>174</ele>
        <time>2018-08-08T08:07:09Z</time>
      </trkpt>
      <trkpt lat="45.92456" lon="4.73684">
        <ele>174</ele>
        <time>2018-08-08T08:07:13Z</time>
      </trkpt>
      <trkpt lat="45.92456" lon="4.7368">
        <ele>174</ele>
        <time>2018-08-08T08:07:14Z</time>
      </trkpt>
      <trkpt lat="45.92457" lon="4.73668">
        <ele>174</ele>
        <time>2018-08-08T08:07:17Z</time>
      </trkpt>
      <trkpt lat="45.92458" lon="4.73665">
        <ele>174</ele>
        <time>2018-08-08T08:07:18Z</time>
      </trkpt>
      <trkpt lat="45.9246" lon="4.73653">
        <ele>174</ele>
        <time>2018-08-08T08:07:21Z</time>
      </trkpt>
      <trkpt lat="45.9246" lon="4.73649">
        <ele>174</ele>
        <time>2018-08-08T08:07:22Z</time>
      </trkpt>
      <trkpt lat="45.92461" lon="4.73644">
        <ele>174</ele>
        <time>2018-08-08T08:07:23Z</time>
      </trkpt>
      <trkpt lat="45.92462" lon="4.73631">
        <ele>174</ele>
        <time>2018-08-08T08:07:24Z</time>
      </trkpt>
      <trkpt lat="45.92465" lon="4.7362">
        <ele>174</ele>
        <time>2018-08-08T08:07:26Z</time>
      </trkpt>
      <trkpt lat="45.92465" lon="4.73613">
        <ele>174</ele>
        <time>2018-08-08T08:07:27Z</time>
      </trkpt>
      <trkpt lat="45.92461" lon="4.73605">
        <ele>174</ele>
        <time>2018-08-08T08:07:28Z</time>
      </trkpt>
      <trkpt lat="45.92461" lon="4.73599">
        <ele>174</ele>
        <time>2018-08-08T08:07:29Z</time>
      </trkpt>
      <trkpt lat="45.9246" lon="4.73591">
        <ele>174</ele>
        <time>2018-08-08T08:07:30Z</time>
      </trkpt>
      <trkpt lat="45.9246" lon="4.73584">
        <ele>174</ele>
        <time>2018-08-08T08:07:31Z</time>
      </trkpt>
      <trkpt lat="45.92454" lon="4.73574">
        <ele>174</ele>
        <time>2018-08-08T08:07:34Z</time>
      </trkpt>
      <trkpt lat="45.92453" lon="4.73571">
        <ele>174</ele>
        <time>2018-08-08T08:07:35Z</time>
      </trkpt>
      <trkpt lat="45.92452" lon="4.73563">
        <ele>174</ele>
        <time>2018-08-08T08:07:36Z</time>
      </trkpt>
      <trkpt lat="45.92452" lon="4.73558">
        <ele>174</ele>
        <time>2018-08-08T08:07:37Z</time>
      </trkpt>
      <trkpt lat="45.92451" lon="4.73549">
        <ele>174</ele>
        <time>2018-08-08T08:07:40Z</time>
      </trkpt>
      <trkpt lat="45.92453" lon="4.73537">
        <ele>173</ele>
        <time>2018-08-08T08:07:41Z</time>
      </trkpt>
      <trkpt lat="45.92453" lon="4.73528">
        <ele>173</ele>
        <time>2018-08-08T08:07:44.378Z</time>
      </trkpt>
      <trkpt lat="45.92453" lon="4.73519">
        <ele>173</ele>
        <time>2018-08-08T08:07:45Z</time>
      </trkpt>
      <trkpt lat="45.92455" lon="4.73507">
        <ele>173</ele>
        <time>2018-08-08T08:07:47Z</time>
      </trkpt>
      <trkpt lat="45.92455" lon="4.73502">
        <ele>173</ele>
        <time>2018-08-08T08:07:48Z</time>
      </trkpt>
      <trkpt lat="45.92456" lon="4.73496">
        <ele>173</ele>
        <time>2018-08-08T08:07:49Z</time>
      </trkpt>
      <trkpt lat="45.92456" lon="4.73488">
        <ele>173</ele>
        <time>2018-08-08T08:07:50Z</time>
      </trkpt>
      <trkpt lat="45.92455" lon="4.7348">
        <ele>173</ele>
        <time>2018-08-08T08:07:51Z</time>
      </trkpt>
      <trkpt lat="45.92454" lon="4.73473">
        <ele>173</ele>
        <time>2018-08-08T08:07:52Z</time>
      </trkpt>
      <trkpt lat="45.92454" lon="4.73465">
        <ele>173</ele>
        <time>2018-08-08T08:07:53Z</time>
      </trkpt>
      <trkpt lat="45.92454" lon="4.73459">
        <ele>173</ele>
        <time>2018-08-08T08:07:54Z</time>
      </trkpt>
      <trkpt lat="45.92454" lon="4.73452">
        <ele>173</ele>
        <time>2018-08-08T08:07:55Z</time>
      </trkpt>
      <trkpt lat="45.92454" lon="4.73445">
        <ele>173</ele>
        <time>2018-08-08T08:07:56Z</time>
      </trkpt>
      <trkpt lat="45.92455" lon="4.73433">
        <ele>173</ele>
        <time>2018-08-08T08:07:58Z</time>
      </trkpt>
      <trkpt lat="45.92452" lon="4.73427">
        <ele>173</ele>
        <time>2018-08-08T08:07:59Z</time>
      </trkpt>
      <trkpt lat="45.92447" lon="4.73419">
        <ele>173</ele>
        <time>2018-08-08T08:08:01Z</time>
      </trkpt>
      <trkpt lat="45.92442" lon="4.73416">
        <ele>172</ele>
        <time>2018-08-08T08:08:02Z</time>
      </trkpt>
      <trkpt lat="45.92436" lon="4.73411">
        <ele>172</ele>
        <time>2018-08-08T08:08:04Z</time>
      </trkpt>
      <trkpt lat="45.92432" lon="4.73408">
        <ele>172</ele>
        <time>2018-08-08T08:08:05Z</time>
      </trkpt>
      <trkpt lat="45.92426" lon="4.734">
        <ele>172</ele>
        <time>2018-08-08T08:08:07Z</time>
      </trkpt>
      <trkpt lat="45.92422" lon="4.73395">
        <ele>172</ele>
        <time>2018-08-08T08:08:08Z</time>
      </trkpt>
      <trkpt lat="45.92421" lon="4.7339">
        <ele>172</ele>
        <time>2018-08-08T08:08:09Z</time>
      </trkpt>
      <trkpt lat="45.92417" lon="4.73382">
        <ele>172</ele>
        <time>2018-08-08T08:08:10Z</time>
      </trkpt>
      <trkpt lat="45.92416" lon="4.73375">
        <ele>171</ele>
        <time>2018-08-08T08:08:11Z</time>
      </trkpt>
      <trkpt lat="45.92417" lon="4.73367">
        <ele>172</ele>
        <time>2018-08-08T08:08:12Z</time>
      </trkpt>
      <trkpt lat="45.92416" lon="4.73359">
        <ele>171</ele>
        <time>2018-08-08T08:08:13Z</time>
      </trkpt>
      <trkpt lat="45.92414" lon="4.73352">
        <ele>171</ele>
        <time>2018-08-08T08:08:14Z</time>
      </trkpt>
      <trkpt lat="45.92413" lon="4.73345">
        <ele>171</ele>
        <time>2018-08-08T08:08:15Z</time>
      </trkpt>
      <trkpt lat="45.92412" lon="4.73337">
        <ele>171</ele>
        <time>2018-08-08T08:08:16Z</time>
      </trkpt>
      <trkpt lat="45.92411" lon="4.7333">
        <ele>171</ele>
        <time>2018-08-08T08:08:17Z</time>
      </trkpt>
      <trkpt lat="45.92411" lon="4.73323">
        <ele>171</ele>
        <time>2018-08-08T08:08:18Z</time>
      </trkpt>
      <trkpt lat="45.92411" lon="4.73315">
        <ele>171</ele>
        <time>2018-08-08T08:08:19Z</time>
      </trkpt>
      <trkpt lat="45.9241" lon="4.73308">
        <ele>171</ele>
        <time>2018-08-08T08:08:20Z</time>
      </trkpt>
      <trkpt lat="45.92409" lon="4.733">
        <ele>171</ele>
        <time>2018-08-08T08:08:21Z</time>
      </trkpt>
      <trkpt lat="45.92407" lon="4.73294">
        <ele>171</ele>
        <time>2018-08-08T08:08:22Z</time>
      </trkpt>
      <trkpt lat="45.92406" lon="4.73287">
        <ele>171</ele>
        <time>2018-08-08T08:08:23Z</time>
      </trkpt>
      <trkpt lat="45.92406" lon="4.73281">
        <ele>171</ele>
        <time>2018-08-08T08:08:24Z</time>
      </trkpt>
      <trkpt lat="45.92407" lon="4.73274">
        <ele>171</ele>
        <time>2018-08-08T08:08:25Z</time>
      </trkpt>
      <trkpt lat="45.92407" lon="4.73266">
        <ele>171</ele>
        <time>2018-08-08T08:08:26Z</time>
      </trkpt>
      <trkpt lat="45.92404" lon="4.73259">
        <ele>171</ele>
        <time>2018-08-08T08:08:27Z</time>
      </trkpt>
      <trkpt lat="45.92404" lon="4.73253">
        <ele>171</ele>
        <time>2018-08-08T08:08:28Z</time>
      </trkpt>
      <trkpt lat="45.92403" lon="4.73246">
        <ele>171</ele>
        <time>2018-08-08T08:08:29Z</time>
      </trkpt>
      <trkpt lat="45.92403" lon="4.73238">
        <ele>171</ele>
        <time>2018-08-08T08:08:30Z</time>
      </trkpt>
      <trkpt lat="45.92403" lon="4.73231">
        <ele>171</ele>
        <time>2018-08-08T08:08:31Z</time>
      </trkpt>
      <trkpt lat="45.92403" lon="4.73223">
        <ele>171</ele>
        <time>2018-08-08T08:08:32Z</time>
      </trkpt>
      <trkpt lat="45.92402" lon="4.73216">
        <ele>171</ele>
        <time>2018-08-08T08:08:33Z</time>
      </trkpt>
      <trkpt lat="45.92401" lon="4.73207">
        <ele>171</ele>
        <time>2018-08-08T08:08:34Z</time>
      </trkpt>
      <trkpt lat="45.92401" lon="4.732">
        <ele>171</ele>
        <time>2018-08-08T08:08:35Z</time>
      </trkpt>
      <trkpt lat="45.92401" lon="4.73192">
        <ele>171</ele>
        <time>2018-08-08T08:08:36Z</time>
      </trkpt>
      <trkpt lat="45.92402" lon="4.73184">
        <ele>171</ele>
        <time>2018-08-08T08:08:37Z</time>
      </trkpt>
      <trkpt lat="45.92401" lon="4.73176">
        <ele>171</ele>
        <time>2018-08-08T08:08:38Z</time>
      </trkpt>
      <trkpt lat="45.92401" lon="4.73168">
        <ele>171</ele>
        <time>2018-08-08T08:08:39Z</time>
      </trkpt>
      <trkpt lat="45.92402" lon="4.7316">
        <ele>171</ele>
        <time>2018-08-08T08:08:40Z</time>
      </trkpt>
      <trkpt lat="45.92401" lon="4.73153">
        <ele>171</ele>
        <time>2018-08-08T08:08:41Z</time>
      </trkpt>
      <trkpt lat="45.92399" lon="4.73146">
        <ele>171</ele>
        <time>2018-08-08T08:08:42Z</time>
      </trkpt>
      <trkpt lat="45.92399" lon="4.73139">
        <ele>171</ele>
        <time>2018-08-08T08:08:43Z</time>
      </trkpt>
      <trkpt lat="45.924" lon="4.73133">
        <ele>171</ele>
        <time>2018-08-08T08:08:44Z</time>
      </trkpt>
      <trkpt lat="45.92401" lon="4.73126">
        <ele>171</ele>
        <time>2018-08-08T08:08:45Z</time>
      </trkpt>
      <trkpt lat="45.92403" lon="4.7312">
        <ele>171</ele>
        <time>2018-08-08T08:08:46Z</time>
      </trkpt>
      <trkpt lat="45.92409" lon="4.73111">
        <ele>171</ele>
        <time>2018-08-08T08:08:48Z</time>
      </trkpt>
      <trkpt lat="45.92413" lon="4.73107">
        <ele>171</ele>
        <time>2018-08-08T08:08:49Z</time>
      </trkpt>
      <trkpt lat="45.92417" lon="4.73105">
        <ele>171</ele>
        <time>2018-08-08T08:08:50Z</time>
      </trkpt>
      <trkpt lat="45.92422" lon="4.73102">
        <ele>171</ele>
        <time>2018-08-08T08:08:51Z</time>
      </trkpt>
      <trkpt lat="45.92427" lon="4.73099">
        <ele>171</ele>
        <time>2018-08-08T08:08:52Z</time>
      </trkpt>
      <trkpt lat="45.92432" lon="4.73095">
        <ele>171</ele>
        <time>2018-08-08T08:08:53Z</time>
      </trkpt>
      <trkpt lat="45.92436" lon="4.7309">
        <ele>171</ele>
        <time>2018-08-08T08:08:54Z</time>
      </trkpt>
      <trkpt lat="45.9244" lon="4.73085">
        <ele>171</ele>
        <time>2018-08-08T08:08:55Z</time>
      </trkpt>
      <trkpt lat="45.92444" lon="4.73082">
        <ele>170</ele>
        <time>2018-08-08T08:08:56Z</time>
      </trkpt>
      <trkpt lat="45.9245" lon="4.73077">
        <ele>170</ele>
        <time>2018-08-08T08:08:57Z</time>
      </trkpt>
      <trkpt lat="45.92455" lon="4.73073">
        <ele>170</ele>
        <time>2018-08-08T08:08:58Z</time>
      </trkpt>
      <trkpt lat="45.92459" lon="4.73066">
        <ele>170</ele>
        <time>2018-08-08T08:08:59Z</time>
      </trkpt>
      <trkpt lat="45.92465" lon="4.73062">
        <ele>170</ele>
        <time>2018-08-08T08:09:00Z</time>
      </trkpt>
      <trkpt lat="45.92469" lon="4.73056">
        <ele>170</ele>
        <time>2018-08-08T08:09:01Z</time>
      </trkpt>
      <trkpt lat="45.92474" lon="4.73051">
        <ele>170</ele>
        <time>2018-08-08T08:09:02Z</time>
      </trkpt>
      <trkpt lat="45.92479" lon="4.73047">
        <ele>170</ele>
        <time>2018-08-08T08:09:03Z</time>
      </trkpt>
      <trkpt lat="45.92483" lon="4.73042">
        <ele>170</ele>
        <time>2018-08-08T08:09:04Z</time>
      </trkpt>
      <trkpt lat="45.92487" lon="4.73039">
        <ele>170</ele>
        <time>2018-08-08T08:09:05Z</time>
      </trkpt>
      <trkpt lat="45.92492" lon="4.73034">
        <ele>170</ele>
        <time>2018-08-08T08:09:06Z</time>
      </trkpt>
      <trkpt lat="45.92495" lon="4.73029">
        <ele>170</ele>
        <time>2018-08-08T08:09:07Z</time>
      </trkpt>
      <trkpt lat="45.92499" lon="4.73025">
        <ele>170</ele>
        <time>2018-08-08T08:09:08Z</time>
      </trkpt>
      <trkpt lat="45.92505" lon="4.73022">
        <ele>169</ele>
        <time>2018-08-08T08:09:09Z</time>
      </trkpt>
      <trkpt lat="45.9251" lon="4.73019">
        <ele>169</ele>
        <time>2018-08-08T08:09:10Z</time>
      </trkpt>
      <trkpt lat="45.92514" lon="4.73014">
        <ele>169</ele>
        <time>2018-08-08T08:09:11Z</time>
      </trkpt>
      <trkpt lat="45.92519" lon="4.73006">
        <ele>169</ele>
        <time>2018-08-08T08:09:12Z</time>
      </trkpt>
      <trkpt lat="45.92525" lon="4.73002">
        <ele>169</ele>
        <time>2018-08-08T08:09:13Z</time>
      </trkpt>
      <trkpt lat="45.9253" lon="4.72998">
        <ele>169</ele>
        <time>2018-08-08T08:09:14Z</time>
      </trkpt>
      <trkpt lat="45.92535" lon="4.72995">
        <ele>169</ele>
        <time>2018-08-08T08:09:15Z</time>
      </trkpt>
      <trkpt lat="45.92541" lon="4.72989">
        <ele>169</ele>
        <time>2018-08-08T08:09:16Z</time>
      </trkpt>
      <trkpt lat="45.92545" lon="4.72985">
        <ele>169</ele>
        <time>2018-08-08T08:09:17Z</time>
      </trkpt>
      <trkpt lat="45.9255" lon="4.72981">
        <ele>169</ele>
        <time>2018-08-08T08:09:18Z</time>
      </trkpt>
      <trkpt lat="45.92554" lon="4.72973">
        <ele>169</ele>
        <time>2018-08-08T08:09:19Z</time>
      </trkpt>
      <trkpt lat="45.92556" lon="4.72965">
        <ele>169</ele>
        <time>2018-08-08T08:09:20Z</time>
      </trkpt>
      <trkpt lat="45.9256" lon="4.7296">
        <ele>169</ele>
        <time>2018-08-08T08:09:21Z</time>
      </trkpt>
      <trkpt lat="45.92564" lon="4.72951">
        <ele>169</ele>
        <time>2018-08-08T08:09:22Z</time>
      </trkpt>
      <trkpt lat="45.92567" lon="4.7295">
        <ele>169</ele>
        <time>2018-08-08T08:09:23Z</time>
      </trkpt>
      <trkpt lat="45.92574" lon="4.72943">
        <ele>169</ele>
        <time>2018-08-08T08:09:27Z</time>
      </trkpt>
      <trkpt lat="45.92575" lon="4.72942">
        <ele>169</ele>
        <time>2018-08-08T08:09:28Z</time>
      </trkpt>
      <trkpt lat="45.92575" lon="4.72955">
        <ele>169</ele>
        <time>2018-08-08T08:09:37Z</time>
      </trkpt>
      <trkpt lat="45.92575" lon="4.72955">
        <ele>169</ele>
        <time>2018-08-08T08:09:38Z</time>
      </trkpt>
      <trkpt lat="45.92575" lon="4.72957">
        <ele>169</ele>
        <time>2018-08-08T08:09:46Z</time>
      </trkpt>
      <trkpt lat="45.92575" lon="4.72957">
        <ele>169</ele>
        <time>2018-08-08T08:09:47Z</time>
      </trkpt>
      <trkpt lat="45.92575" lon="4.72957">
        <ele>169</ele>
        <time>2018-08-08T08:09:48Z</time>
      </trkpt>
      <trkpt lat="45.92582" lon="4.72953">
        <ele>169</ele>
        <time>2018-08-08T08:09:58Z</time>
      </trkpt>
      <trkpt lat="45.92584" lon="4.72951">
        <ele>169</ele>
        <time>2018-08-08T08:09:59Z</time>
      </trkpt>
      <trkpt lat="45.9259" lon="4.72944">
        <ele>169</ele>
        <time>2018-08-08T08:10:03Z</time>
      </trkpt>
      <trkpt lat="45.92592" lon="4.72942">
        <ele>169</ele>
        <time>2018-08-08T08:10:04Z</time>
      </trkpt>
      <trkpt lat="45.92597" lon="4.72937">
        <ele>169</ele>
        <time>2018-08-08T08:10:06Z</time>
      </trkpt>
      <trkpt lat="45.926" lon="4.72934">
        <ele>169</ele>
        <time>2018-08-08T08:10:07Z</time>
      </trkpt>
      <trkpt lat="45.92607" lon="4.72925">
        <ele>169</ele>
        <time>2018-08-08T08:10:08Z</time>
      </trkpt>
      <trkpt lat="45.92613" lon="4.72918">
        <ele>169</ele>
        <time>2018-08-08T08:10:10Z</time>
      </trkpt>
      <trkpt lat="45.92616" lon="4.72914">
        <ele>169</ele>
        <time>2018-08-08T08:10:11Z</time>
      </trkpt>
      <trkpt lat="45.92624" lon="4.72909">
        <ele>169</ele>
        <time>2018-08-08T08:10:13Z</time>
      </trkpt>
      <trkpt lat="45.92628" lon="4.72907">
        <ele>169</ele>
        <time>2018-08-08T08:10:14Z</time>
      </trkpt>
      <trkpt lat="45.92632" lon="4.72904">
        <ele>169</ele>
        <time>2018-08-08T08:10:15Z</time>
      </trkpt>
      <trkpt lat="45.92637" lon="4.72902">
        <ele>169</ele>
        <time>2018-08-08T08:10:16Z</time>
      </trkpt>
      <trkpt lat="45.92641" lon="4.72897">
        <ele>169</ele>
        <time>2018-08-08T08:10:17Z</time>
      </trkpt>
      <trkpt lat="45.92645" lon="4.72893">
        <ele>169</ele>
        <time>2018-08-08T08:10:18Z</time>
      </trkpt>
      <trkpt lat="45.9265" lon="4.72891">
        <ele>169</ele>
        <time>2018-08-08T08:10:19Z</time>
      </trkpt>
      <trkpt lat="45.92654" lon="4.72886">
        <ele>169</ele>
        <time>2018-08-08T08:10:20Z</time>
      </trkpt>
      <trkpt lat="45.92658" lon="4.72882">
        <ele>169</ele>
        <time>2018-08-08T08:10:21Z</time>
      </trkpt>
      <trkpt lat="45.92663" lon="4.72879">
        <ele>169</ele>
        <time>2018-08-08T08:10:22Z</time>
      </trkpt>
      <trkpt lat="45.92669" lon="4.72877">
        <ele>170</ele>
        <time>2018-08-08T08:10:23Z</time>
      </trkpt>
      <trkpt lat="45.92673" lon="4.72874">
        <ele>169</ele>
        <time>2018-08-08T08:10:24Z</time>
      </trkpt>
      <trkpt lat="45.92678" lon="4.72869">
        <ele>169</ele>
        <time>2018-08-08T08:10:25Z</time>
      </trkpt>
      <trkpt lat="45.92682" lon="4.72864">
        <ele>169</ele>
        <time>2018-08-08T08:10:26Z</time>
      </trkpt>
      <trkpt lat="45.92687" lon="4.7286">
        <ele>169</ele>
        <time>2018-08-08T08:10:27Z</time>
      </trkpt>
      <trkpt lat="45.92691" lon="4.72857">
        <ele>169</ele>
        <time>2018-08-08T08:10:28Z</time>
      </trkpt>
      <trkpt lat="45.92696" lon="4.72853">
        <ele>169</ele>
        <time>2018-08-08T08:10:29Z</time>
      </trkpt>
      <trkpt lat="45.927" lon="4.72852">
        <ele>169</ele>
        <time>2018-08-08T08:10:30Z</time>
      </trkpt>
      <trkpt lat="45.92704" lon="4.72848">
        <ele>169</ele>
        <time>2018-08-08T08:10:31Z</time>
      </trkpt>
      <trkpt lat="45.92709" lon="4.72845">
        <ele>169</ele>
        <time>2018-08-08T08:10:32Z</time>
      </trkpt>
      <trkpt lat="45.92713" lon="4.72841">
        <ele>169</ele>
        <time>2018-08-08T08:10:33Z</time>
      </trkpt>
      <trkpt lat="45.92718" lon="4.72837">
        <ele>169</ele>
        <time>2018-08-08T08:10:34Z</time>
      </trkpt>
      <trkpt lat="45.92722" lon="4.72832">
        <ele>170</ele>
        <time>2018-08-08T08:10:35Z</time>
      </trkpt>
      <trkpt lat="45.92727" lon="4.72829">
        <ele>170</ele>
        <time>2018-08-08T08:10:36Z</time>
      </trkpt>
      <trkpt lat="45.92733" lon="4.72828">
        <ele>169</ele>
        <time>2018-08-08T08:10:37Z</time>
      </trkpt>
      <trkpt lat="45.92738" lon="4.72823">
        <ele>169</ele>
        <time>2018-08-08T08:10:38Z</time>
      </trkpt>
      <trkpt lat="45.92744" lon="4.72819">
        <ele>169</ele>
        <time>2018-08-08T08:10:39Z</time>
      </trkpt>
      <trkpt lat="45.92746" lon="4.72811">
        <ele>170</ele>
        <time>2018-08-08T08:10:40Z</time>
      </trkpt>
      <trkpt lat="45.92752" lon="4.72809">
        <ele>170</ele>
        <time>2018-08-08T08:10:41Z</time>
      </trkpt>
      <trkpt lat="45.92754" lon="4.72798">
        <ele>170</ele>
        <time>2018-08-08T08:10:42Z</time>
      </trkpt>
      <trkpt lat="45.92759" lon="4.72793">
        <ele>170</ele>
        <time>2018-08-08T08:10:43Z</time>
      </trkpt>
      <trkpt lat="45.92764" lon="4.7279">
        <ele>170</ele>
        <time>2018-08-08T08:10:44Z</time>
      </trkpt>
      <trkpt lat="45.9277" lon="4.72789">
        <ele>170</ele>
        <time>2018-08-08T08:10:45Z</time>
      </trkpt>
      <trkpt lat="45.92775" lon="4.72786">
        <ele>170</ele>
        <time>2018-08-08T08:10:46Z</time>
      </trkpt>
      <trkpt lat="45.9278" lon="4.72784">
        <ele>170</ele>
        <time>2018-08-08T08:10:47Z</time>
      </trkpt>
      <trkpt lat="45.92784" lon="4.72784">
        <ele>171</ele>
        <time>2018-08-08T08:10:48Z</time>
      </trkpt>
      <trkpt lat="45.92793" lon="4.72783">
        <ele>171</ele>
        <time>2018-08-08T08:10:50Z</time>
      </trkpt>
      <trkpt lat="45.92798" lon="4.72786">
        <ele>171</ele>
        <time>2018-08-08T08:10:51Z</time>
      </trkpt>
      <trkpt lat="45.92802" lon="4.72795">
        <ele>171</ele>
        <time>2018-08-08T08:10:54Z</time>
      </trkpt>
      <trkpt lat="45.92803" lon="4.72806">
        <ele>171</ele>
        <time>2018-08-08T08:10:55Z</time>
      </trkpt>
      <trkpt lat="45.92804" lon="4.72813">
        <ele>171</ele>
        <time>2018-08-08T08:10:56Z</time>
      </trkpt>
      <trkpt lat="45.92805" lon="4.72819">
        <ele>171</ele>
        <time>2018-08-08T08:10:57Z</time>
      </trkpt>
      <trkpt lat="45.92808" lon="4.72831">
        <ele>171</ele>
        <time>2018-08-08T08:10:59Z</time>
      </trkpt>
      <trkpt lat="45.92809" lon="4.72839">
        <ele>170</ele>
        <time>2018-08-08T08:11:00Z</time>
      </trkpt>
      <trkpt lat="45.9281" lon="4.72846">
        <ele>170</ele>
        <time>2018-08-08T08:11:01Z</time>
      </trkpt>
      <trkpt lat="45.92811" lon="4.72853">
        <ele>170</ele>
        <time>2018-08-08T08:11:02Z</time>
      </trkpt>
      <trkpt lat="45.92813" lon="4.72861">
        <ele>170</ele>
        <time>2018-08-08T08:11:03Z</time>
      </trkpt>
      <trkpt lat="45.92814" lon="4.72868">
        <ele>170</ele>
        <time>2018-08-08T08:11:04Z</time>
      </trkpt>
      <trkpt lat="45.92817" lon="4.72874">
        <ele>170</ele>
        <time>2018-08-08T08:11:05Z</time>
      </trkpt>
      <trkpt lat="45.92818" lon="4.72882">
        <ele>170</ele>
        <time>2018-08-08T08:11:06Z</time>
      </trkpt>
      <trkpt lat="45.9282" lon="4.72889">
        <ele>170</ele>
        <time>2018-08-08T08:11:07Z</time>
      </trkpt>
      <trkpt lat="45.92821" lon="4.72897">
        <ele>170</ele>
        <time>2018-08-08T08:11:08Z</time>
      </trkpt>
      <trkpt lat="45.92822" lon="4.72904">
        <ele>170</ele>
        <time>2018-08-08T08:11:09Z</time>
      </trkpt>
      <trkpt lat="45.92823" lon="4.72913">
        <ele>170</ele>
        <time>2018-08-08T08:11:10Z</time>
      </trkpt>
      <trkpt lat="45.92825" lon="4.7292">
        <ele>170</ele>
        <time>2018-08-08T08:11:11Z</time>
      </trkpt>
      <trkpt lat="45.92826" lon="4.72927">
        <ele>170</ele>
        <time>2018-08-08T08:11:12Z</time>
      </trkpt>
      <trkpt lat="45.92827" lon="4.72935">
        <ele>170</ele>
        <time>2018-08-08T08:11:13Z</time>
      </trkpt>
      <trkpt lat="45.92828" lon="4.72943">
        <ele>170</ele>
        <time>2018-08-08T08:11:14Z</time>
      </trkpt>
      <trkpt lat="45.92828" lon="4.72951">
        <ele>170</ele>
        <time>2018-08-08T08:11:15Z</time>
      </trkpt>
      <trkpt lat="45.92829" lon="4.72959">
        <ele>170</ele>
        <time>2018-08-08T08:11:16Z</time>
      </trkpt>
      <trkpt lat="45.9283" lon="4.72967">
        <ele>170</ele>
        <time>2018-08-08T08:11:17Z</time>
      </trkpt>
      <trkpt lat="45.92831" lon="4.72974">
        <ele>170</ele>
        <time>2018-08-08T08:11:18Z</time>
      </trkpt>
      <trkpt lat="45.92831" lon="4.72982">
        <ele>170</ele>
        <time>2018-08-08T08:11:19Z</time>
      </trkpt>
      <trkpt lat="45.92831" lon="4.7299">
        <ele>170</ele>
        <time>2018-08-08T08:11:20Z</time>
      </trkpt>
      <trkpt lat="45.92832" lon="4.73002">
        <ele>170</ele>
        <time>2018-08-08T08:11:22Z</time>
      </trkpt>
      <trkpt lat="45.92833" lon="4.73008">
        <ele>170</ele>
        <time>2018-08-08T08:11:23Z</time>
      </trkpt>
      <trkpt lat="45.92835" lon="4.7302">
        <ele>171</ele>
        <time>2018-08-08T08:11:25Z</time>
      </trkpt>
      <trkpt lat="45.92837" lon="4.73027">
        <ele>171</ele>
        <time>2018-08-08T08:11:26Z</time>
      </trkpt>
      <trkpt lat="45.92839" lon="4.73038">
        <ele>171</ele>
        <time>2018-08-08T08:11:28Z</time>
      </trkpt>
      <trkpt lat="45.9284" lon="4.73044">
        <ele>171</ele>
        <time>2018-08-08T08:11:29Z</time>
      </trkpt>
      <trkpt lat="45.92842" lon="4.73055">
        <ele>171</ele>
        <time>2018-08-08T08:11:31Z</time>
      </trkpt>
      <trkpt lat="45.92844" lon="4.73061">
        <ele>171</ele>
        <time>2018-08-08T08:11:32Z</time>
      </trkpt>
      <trkpt lat="45.92844" lon="4.73068">
        <ele>171</ele>
        <time>2018-08-08T08:11:33Z</time>
      </trkpt>
      <trkpt lat="45.92845" lon="4.73074">
        <ele>171</ele>
        <time>2018-08-08T08:11:34Z</time>
      </trkpt>
      <trkpt lat="45.92846" lon="4.73087">
        <ele>171</ele>
        <time>2018-08-08T08:11:36Z</time>
      </trkpt>
      <trkpt lat="45.92848" lon="4.73093">
        <ele>171</ele>
        <time>2018-08-08T08:11:37Z</time>
      </trkpt>
      <trkpt lat="45.92854" lon="4.731">
        <ele>171</ele>
        <time>2018-08-08T08:11:39Z</time>
      </trkpt>
      <trkpt lat="45.92858" lon="4.731">
        <ele>171</ele>
        <time>2018-08-08T08:11:40Z</time>
      </trkpt>
      <trkpt lat="45.92863" lon="4.73092">
        <ele>171</ele>
        <time>2018-08-08T08:11:42Z</time>
      </trkpt>
      <trkpt lat="45.92867" lon="4.73086">
        <ele>172</ele>
        <time>2018-08-08T08:11:43Z</time>
      </trkpt>
      <trkpt lat="45.92872" lon="4.7308">
        <ele>172</ele>
        <time>2018-08-08T08:11:45Z</time>
      </trkpt>
      <trkpt lat="45.92876" lon="4.73078">
        <ele>172</ele>
        <time>2018-08-08T08:11:46Z</time>
      </trkpt>
      <trkpt lat="45.92884" lon="4.73072">
        <ele>172</ele>
        <time>2018-08-08T08:11:48Z</time>
      </trkpt>
      <trkpt lat="45.92888" lon="4.73069">
        <ele>172</ele>
        <time>2018-08-08T08:11:49Z</time>
      </trkpt>
      <trkpt lat="45.92893" lon="4.73068">
        <ele>172</ele>
        <time>2018-08-08T08:11:50Z</time>
      </trkpt>
      <trkpt lat="45.92896" lon="4.73059">
        <ele>172</ele>
        <time>2018-08-08T08:11:51Z</time>
      </trkpt>
      <trkpt lat="45.92898" lon="4.73054">
        <ele>172</ele>
        <time>2018-08-08T08:11:52Z</time>
      </trkpt>
      <trkpt lat="45.92902" lon="4.73049">
        <ele>172</ele>
        <time>2018-08-08T08:11:53Z</time>
      </trkpt>
      <trkpt lat="45.92905" lon="4.73045">
        <ele>172</ele>
        <time>2018-08-08T08:11:54Z</time>
      </trkpt>
      <trkpt lat="45.92909" lon="4.73039">
        <ele>172</ele>
        <time>2018-08-08T08:11:55Z</time>
      </trkpt>
      <trkpt lat="45.92912" lon="4.73033">
        <ele>172</ele>
        <time>2018-08-08T08:11:56Z</time>
      </trkpt>
      <trkpt lat="45.92917" lon="4.73027">
        <ele>172</ele>
        <time>2018-08-08T08:11:57Z</time>
      </trkpt>
      <trkpt lat="45.92922" lon="4.73022">
        <ele>172</ele>
        <time>2018-08-08T08:11:58Z</time>
      </trkpt>
      <trkpt lat="45.92927" lon="4.73019">
        <ele>171</ele>
        <time>2018-08-08T08:11:59Z</time>
      </trkpt>
      <trkpt lat="45.9293" lon="4.73011">
        <ele>171</ele>
        <time>2018-08-08T08:12:00Z</time>
      </trkpt>
      <trkpt lat="45.92935" lon="4.73009">
        <ele>171</ele>
        <time>2018-08-08T08:12:01Z</time>
      </trkpt>
      <trkpt lat="45.92939" lon="4.73005">
        <ele>171</ele>
        <time>2018-08-08T08:12:02Z</time>
      </trkpt>
      <trkpt lat="45.92942" lon="4.72997">
        <ele>171</ele>
        <time>2018-08-08T08:12:03Z</time>
      </trkpt>
      <trkpt lat="45.92947" lon="4.72987">
        <ele>171</ele>
        <time>2018-08-08T08:12:05Z</time>
      </trkpt>
      <trkpt lat="45.92952" lon="4.72982">
        <ele>171</ele>
        <time>2018-08-08T08:12:06Z</time>
      </trkpt>
      <trkpt lat="45.92956" lon="4.72978">
        <ele>171</ele>
        <time>2018-08-08T08:12:07Z</time>
      </trkpt>
      <trkpt lat="45.9296" lon="4.72974">
        <ele>171</ele>
        <time>2018-08-08T08:12:08Z</time>
      </trkpt>
      <trkpt lat="45.92964" lon="4.7297">
        <ele>171</ele>
        <time>2018-08-08T08:12:09Z</time>
      </trkpt>
      <trkpt lat="45.92969" lon="4.72964">
        <ele>171</ele>
        <time>2018-08-08T08:12:10Z</time>
      </trkpt>
      <trkpt lat="45.92972" lon="4.72958">
        <ele>171</ele>
        <time>2018-08-08T08:12:11Z</time>
      </trkpt>
      <trkpt lat="45.92976" lon="4.72953">
        <ele>171</ele>
        <time>2018-08-08T08:12:12Z</time>
      </trkpt>
      <trkpt lat="45.92979" lon="4.72946">
        <ele>171</ele>
        <time>2018-08-08T08:12:13Z</time>
      </trkpt>
      <trkpt lat="45.92983" lon="4.7294">
        <ele>171</ele>
        <time>2018-08-08T08:12:14Z</time>
      </trkpt>
      <trkpt lat="45.92989" lon="4.72937">
        <ele>171</ele>
        <time>2018-08-08T08:12:15Z</time>
      </trkpt>
      <trkpt lat="45.92992" lon="4.72931">
        <ele>171</ele>
        <time>2018-08-08T08:12:16Z</time>
      </trkpt>
      <trkpt lat="45.92997" lon="4.72924">
        <ele>171</ele>
        <time>2018-08-08T08:12:17Z</time>
      </trkpt>
      <trkpt lat="45.93002" lon="4.72917">
        <ele>171</ele>
        <time>2018-08-08T08:12:18Z</time>
      </trkpt>
      <trkpt lat="45.93006" lon="4.72912">
        <ele>171</ele>
        <time>2018-08-08T08:12:19Z</time>
      </trkpt>
      <trkpt lat="45.9301" lon="4.72907">
        <ele>171</ele>
        <time>2018-08-08T08:12:20Z</time>
      </trkpt>
      <trkpt lat="45.93014" lon="4.72903">
        <ele>172</ele>
        <time>2018-08-08T08:12:21Z</time>
      </trkpt>
      <trkpt lat="45.93018" lon="4.72897">
        <ele>172</ele>
        <time>2018-08-08T08:12:22Z</time>
      </trkpt>
      <trkpt lat="45.93023" lon="4.72891">
        <ele>172</ele>
        <time>2018-08-08T08:12:23Z</time>
      </trkpt>
      <trkpt lat="45.93027" lon="4.72886">
        <ele>172</ele>
        <time>2018-08-08T08:12:24Z</time>
      </trkpt>
      <trkpt lat="45.9303" lon="4.72883">
        <ele>172</ele>
        <time>2018-08-08T08:12:25Z</time>
      </trkpt>
      <trkpt lat="45.93034" lon="4.72877">
        <ele>172</ele>
        <time>2018-08-08T08:12:26Z</time>
      </trkpt>
      <trkpt lat="45.93038" lon="4.7287">
        <ele>172</ele>
        <time>2018-08-08T08:12:27Z</time>
      </trkpt>
      <trkpt lat="45.93043" lon="4.72864">
        <ele>172</ele>
        <time>2018-08-08T08:12:28Z</time>
      </trkpt>
      <trkpt lat="45.93048" lon="4.72859">
        <ele>172</ele>
        <time>2018-08-08T08:12:29Z</time>
      </trkpt>
      <trkpt lat="45.93054" lon="4.72854">
        <ele>172</ele>
        <time>2018-08-08T08:12:30Z</time>
      </trkpt>
      <trkpt lat="45.93058" lon="4.7285">
        <ele>172</ele>
        <time>2018-08-08T08:12:31Z</time>
      </trkpt>
      <trkpt lat="45.93063" lon="4.72845">
        <ele>172</ele>
        <time>2018-08-08T08:12:32Z</time>
      </trkpt>
      <trkpt lat="45.93067" lon="4.72839">
        <ele>173</ele>
        <time>2018-08-08T08:12:33Z</time>
      </trkpt>
      <trkpt lat="45.93072" lon="4.72834">
        <ele>173</ele>
        <time>2018-08-08T08:12:34Z</time>
      </trkpt>
      <trkpt lat="45.93108" lon="4.72798">
        <ele>171</ele>
        <time>2018-08-08T08:12:41Z</time>
      </trkpt>
      <trkpt lat="45.93108" lon="4.72788">
        <ele>171</ele>
        <time>2018-08-08T08:12:42Z</time>
      </trkpt>
      <trkpt lat="45.93115" lon="4.72781">
        <ele>171</ele>
        <time>2018-08-08T08:12:43Z</time>
      </trkpt>
      <trkpt lat="45.93121" lon="4.72774">
        <ele>171</ele>
        <time>2018-08-08T08:12:44Z</time>
      </trkpt>
      <trkpt lat="45.93127" lon="4.72769">
        <ele>171</ele>
        <time>2018-08-08T08:12:45Z</time>
      </trkpt>
      <trkpt lat="45.93134" lon="4.72761">
        <ele>171</ele>
        <time>2018-08-08T08:12:47Z</time>
      </trkpt>
      <trkpt lat="45.93139" lon="4.72755">
        <ele>171</ele>
        <time>2018-08-08T08:12:48Z</time>
      </trkpt>
      <trkpt lat="45.93145" lon="4.72752">
        <ele>170</ele>
        <time>2018-08-08T08:12:49Z</time>
      </trkpt>
      <trkpt lat="45.9315" lon="4.72745">
        <ele>170</ele>
        <time>2018-08-08T08:12:50Z</time>
      </trkpt>
      <trkpt lat="45.93155" lon="4.72741">
        <ele>170</ele>
        <time>2018-08-08T08:12:51Z</time>
      </trkpt>
      <trkpt lat="45.93159" lon="4.72736">
        <ele>170</ele>
        <time>2018-08-08T08:12:52Z</time>
      </trkpt>
      <trkpt lat="45.93163" lon="4.72732">
        <ele>170</ele>
        <time>2018-08-08T08:12:53Z</time>
      </trkpt>
      <trkpt lat="45.93169" lon="4.72727">
        <ele>170</ele>
        <time>2018-08-08T08:12:54Z</time>
      </trkpt>
      <trkpt lat="45.93172" lon="4.72722">
        <ele>170</ele>
        <time>2018-08-08T08:12:55Z</time>
      </trkpt>
      <trkpt lat="45.93177" lon="4.72717">
        <ele>169</ele>
        <time>2018-08-08T08:12:56Z</time>
      </trkpt>
      <trkpt lat="45.93181" lon="4.7271">
        <ele>169</ele>
        <time>2018-08-08T08:12:57Z</time>
      </trkpt>
      <trkpt lat="45.93184" lon="4.72704">
        <ele>169</ele>
        <time>2018-08-08T08:12:58Z</time>
      </trkpt>
      <trkpt lat="45.93189" lon="4.72701">
        <ele>169</ele>
        <time>2018-08-08T08:12:59Z</time>
      </trkpt>
      <trkpt lat="45.93193" lon="4.72697">
        <ele>169</ele>
        <time>2018-08-08T08:13:00Z</time>
      </trkpt>
      <trkpt lat="45.93197" lon="4.72693">
        <ele>169</ele>
        <time>2018-08-08T08:13:01Z</time>
      </trkpt>
      <trkpt lat="45.932" lon="4.72688">
        <ele>169</ele>
        <time>2018-08-08T08:13:02Z</time>
      </trkpt>
      <trkpt lat="45.93204" lon="4.72682">
        <ele>169</ele>
        <time>2018-08-08T08:13:03Z</time>
      </trkpt>
      <trkpt lat="45.93209" lon="4.72676">
        <ele>169</ele>
        <time>2018-08-08T08:13:04Z</time>
      </trkpt>
      <trkpt lat="45.93215" lon="4.72673">
        <ele>169</ele>
        <time>2018-08-08T08:13:05Z</time>
      </trkpt>
      <trkpt lat="45.93219" lon="4.72667">
        <ele>169</ele>
        <time>2018-08-08T08:13:06Z</time>
      </trkpt>
      <trkpt lat="45.93224" lon="4.72663">
        <ele>170</ele>
        <time>2018-08-08T08:13:07Z</time>
      </trkpt>
      <trkpt lat="45.93229" lon="4.72657">
        <ele>170</ele>
        <time>2018-08-08T08:13:08Z</time>
      </trkpt>
      <trkpt lat="45.93233" lon="4.72653">
        <ele>170</ele>
        <time>2018-08-08T08:13:09Z</time>
      </trkpt>
      <trkpt lat="45.93238" lon="4.72648">
        <ele>170</ele>
        <time>2018-08-08T08:13:10Z</time>
      </trkpt>
      <trkpt lat="45.93242" lon="4.72642">
        <ele>170</ele>
        <time>2018-08-08T08:13:11Z</time>
      </trkpt>
      <trkpt lat="45.93247" lon="4.72635">
        <ele>170</ele>
        <time>2018-08-08T08:13:12Z</time>
      </trkpt>
      <trkpt lat="45.93252" lon="4.72629">
        <ele>170</ele>
        <time>2018-08-08T08:13:13Z</time>
      </trkpt>
      <trkpt lat="45.93257" lon="4.72622">
        <ele>170</ele>
        <time>2018-08-08T08:13:14Z</time>
      </trkpt>
      <trkpt lat="45.93259" lon="4.72612">
        <ele>170</ele>
        <time>2018-08-08T08:13:15Z</time>
      </trkpt>
      <trkpt lat="45.93261" lon="4.72602">
        <ele>170</ele>
        <time>2018-08-08T08:13:16Z</time>
      </trkpt>
      <trkpt lat="45.93266" lon="4.72599">
        <ele>170</ele>
        <time>2018-08-08T08:13:17Z</time>
      </trkpt>
      <trkpt lat="45.9327" lon="4.72594">
        <ele>170</ele>
        <time>2018-08-08T08:13:18Z</time>
      </trkpt>
      <trkpt lat="45.93276" lon="4.72592">
        <ele>170</ele>
        <time>2018-08-08T08:13:19Z</time>
      </trkpt>
      <trkpt lat="45.93278" lon="4.72584">
        <ele>170</ele>
        <time>2018-08-08T08:13:20Z</time>
      </trkpt>
      <trkpt lat="45.93282" lon="4.72579">
        <ele>172</ele>
        <time>2018-08-08T08:13:21Z</time>
      </trkpt>
      <trkpt lat="45.93287" lon="4.72574">
        <ele>172</ele>
        <time>2018-08-08T08:13:22Z</time>
      </trkpt>
      <trkpt lat="45.93291" lon="4.7257">
        <ele>172</ele>
        <time>2018-08-08T08:13:23Z</time>
      </trkpt>
      <trkpt lat="45.93295" lon="4.72564">
        <ele>172</ele>
        <time>2018-08-08T08:13:24Z</time>
      </trkpt>
      <trkpt lat="45.93301" lon="4.72563">
        <ele>172</ele>
        <time>2018-08-08T08:13:25Z</time>
      </trkpt>
      <trkpt lat="45.93306" lon="4.72559">
        <ele>172</ele>
        <time>2018-08-08T08:13:26Z</time>
      </trkpt>
      <trkpt lat="45.9331" lon="4.72554">
        <ele>172</ele>
        <time>2018-08-08T08:13:27Z</time>
      </trkpt>
      <trkpt lat="45.93316" lon="4.72549">
        <ele>172</ele>
        <time>2018-08-08T08:13:28Z</time>
      </trkpt>
      <trkpt lat="45.93319" lon="4.72543">
        <ele>172</ele>
        <time>2018-08-08T08:13:29Z</time>
      </trkpt>
      <trkpt lat="45.93323" lon="4.72539">
        <ele>172</ele>
        <time>2018-08-08T08:13:30Z</time>
      </trkpt>
      <trkpt lat="45.93327" lon="4.72535">
        <ele>172</ele>
        <time>2018-08-08T08:13:31Z</time>
      </trkpt>
      <trkpt lat="45.93333" lon="4.72531">
        <ele>172</ele>
        <time>2018-08-08T08:13:32Z</time>
      </trkpt>
      <trkpt lat="45.93339" lon="4.72528">
        <ele>172</ele>
        <time>2018-08-08T08:13:33Z</time>
      </trkpt>
      <trkpt lat="45.93344" lon="4.72524">
        <ele>172</ele>
        <time>2018-08-08T08:13:34Z</time>
      </trkpt>
      <trkpt lat="45.93349" lon="4.72517">
        <ele>172</ele>
        <time>2018-08-08T08:13:35Z</time>
      </trkpt>
      <trkpt lat="45.93355" lon="4.72511">
        <ele>172</ele>
        <time>2018-08-08T08:13:36Z</time>
      </trkpt>
      <trkpt lat="45.9336" lon="4.72506">
        <ele>172</ele>
        <time>2018-08-08T08:13:37Z</time>
      </trkpt>
      <trkpt lat="45.93365" lon="4.725">
        <ele>173</ele>
        <time>2018-08-08T08:13:38Z</time>
      </trkpt>
      <trkpt lat="45.9337" lon="4.72495">
        <ele>173</ele>
        <time>2018-08-08T08:13:39Z</time>
      </trkpt>
      <trkpt lat="45.93373" lon="4.72491">
        <ele>173</ele>
        <time>2018-08-08T08:13:40Z</time>
      </trkpt>
      <trkpt lat="45.93378" lon="4.72486">
        <ele>173</ele>
        <time>2018-08-08T08:13:41Z</time>
      </trkpt>
      <trkpt lat="45.93382" lon="4.7248">
        <ele>173</ele>
        <time>2018-08-08T08:13:42Z</time>
      </trkpt>
      <trkpt lat="45.93386" lon="4.72476">
        <ele>173</ele>
        <time>2018-08-08T08:13:43Z</time>
      </trkpt>
      <trkpt lat="45.93391" lon="4.72472">
        <ele>173</ele>
        <time>2018-08-08T08:13:44Z</time>
      </trkpt>
      <trkpt lat="45.93394" lon="4.72465">
        <ele>173</ele>
        <time>2018-08-08T08:13:45Z</time>
      </trkpt>
      <trkpt lat="45.93396" lon="4.72457">
        <ele>173</ele>
        <time>2018-08-08T08:13:46Z</time>
      </trkpt>
      <trkpt lat="45.93398" lon="4.72449">
        <ele>173</ele>
        <time>2018-08-08T08:13:47Z</time>
      </trkpt>
      <trkpt lat="45.934" lon="4.72441">
        <ele>173</ele>
        <time>2018-08-08T08:13:48Z</time>
      </trkpt>
      <trkpt lat="45.93403" lon="4.72435">
        <ele>173</ele>
        <time>2018-08-08T08:13:49Z</time>
      </trkpt>
      <trkpt lat="45.93404" lon="4.72427">
        <ele>173</ele>
        <time>2018-08-08T08:13:50Z</time>
      </trkpt>
      <trkpt lat="45.93407" lon="4.72422">
        <ele>174</ele>
        <time>2018-08-08T08:13:51Z</time>
      </trkpt>
      <trkpt lat="45.93413" lon="4.72418">
        <ele>174</ele>
        <time>2018-08-08T08:13:52Z</time>
      </trkpt>
      <trkpt lat="45.93418" lon="4.72414">
        <ele>174</ele>
        <time>2018-08-08T08:13:53Z</time>
      </trkpt>
      <trkpt lat="45.93423" lon="4.72412">
        <ele>174</ele>
        <time>2018-08-08T08:13:54Z</time>
      </trkpt>
      <trkpt lat="45.93428" lon="4.72409">
        <ele>174</ele>
        <time>2018-08-08T08:13:55Z</time>
      </trkpt>
      <trkpt lat="45.93433" lon="4.72406">
        <ele>174</ele>
        <time>2018-08-08T08:13:56Z</time>
      </trkpt>
      <trkpt lat="45.93438" lon="4.72403">
        <ele>174</ele>
        <time>2018-08-08T08:13:57Z</time>
      </trkpt>
      <trkpt lat="45.93441" lon="4.72399">
        <ele>173</ele>
        <time>2018-08-08T08:13:58Z</time>
      </trkpt>
      <trkpt lat="45.93448" lon="4.72398">
        <ele>173</ele>
        <time>2018-08-08T08:13:59Z</time>
      </trkpt>
      <trkpt lat="45.93454" lon="4.72395">
        <ele>173</ele>
        <time>2018-08-08T08:14:00Z</time>
      </trkpt>
      <trkpt lat="45.93457" lon="4.72388">
        <ele>173</ele>
        <time>2018-08-08T08:14:01Z</time>
      </trkpt>
      <trkpt lat="45.93463" lon="4.72382">
        <ele>173</ele>
        <time>2018-08-08T08:14:02Z</time>
      </trkpt>
      <trkpt lat="45.93466" lon="4.72375">
        <ele>173</ele>
        <time>2018-08-08T08:14:03Z</time>
      </trkpt>
      <trkpt lat="45.93469" lon="4.7237">
        <ele>173</ele>
        <time>2018-08-08T08:14:04Z</time>
      </trkpt>
      <trkpt lat="45.93474" lon="4.72364">
        <ele>173</ele>
        <time>2018-08-08T08:14:05Z</time>
      </trkpt>
      <trkpt lat="45.93477" lon="4.72359">
        <ele>173</ele>
        <time>2018-08-08T08:14:06Z</time>
      </trkpt>
      <trkpt lat="45.9348" lon="4.72353">
        <ele>173</ele>
        <time>2018-08-08T08:14:07Z</time>
      </trkpt>
      <trkpt lat="45.93484" lon="4.72347">
        <ele>173</ele>
        <time>2018-08-08T08:14:08Z</time>
      </trkpt>
      <trkpt lat="45.93489" lon="4.72342">
        <ele>173</ele>
        <time>2018-08-08T08:14:09Z</time>
      </trkpt>
      <trkpt lat="45.93494" lon="4.72338">
        <ele>173</ele>
        <time>2018-08-08T08:14:10Z</time>
      </trkpt>
      <trkpt lat="45.93499" lon="4.72333">
        <ele>173</ele>
        <time>2018-08-08T08:14:11Z</time>
      </trkpt>
      <trkpt lat="45.93504" lon="4.72328">
        <ele>173</ele>
        <time>2018-08-08T08:14:12Z</time>
      </trkpt>
      <trkpt lat="45.93508" lon="4.72322">
        <ele>173</ele>
        <time>2018-08-08T08:14:13Z</time>
      </trkpt>
      <trkpt lat="45.9351" lon="4.72318">
        <ele>173</ele>
        <time>2018-08-08T08:14:14Z</time>
      </trkpt>
      <trkpt lat="45.93514" lon="4.72314">
        <ele>173</ele>
        <time>2018-08-08T08:14:15Z</time>
      </trkpt>
      <trkpt lat="45.93517" lon="4.72308">
        <ele>173</ele>
        <time>2018-08-08T08:14:16Z</time>
      </trkpt>
      <trkpt lat="45.9352" lon="4.72302">
        <ele>172</ele>
        <time>2018-08-08T08:14:17Z</time>
      </trkpt>
      <trkpt lat="45.93521" lon="4.72295">
        <ele>172</ele>
        <time>2018-08-08T08:14:18Z</time>
      </trkpt>
      <trkpt lat="45.93526" lon="4.72289">
        <ele>172</ele>
        <time>2018-08-08T08:14:19Z</time>
      </trkpt>
      <trkpt lat="45.93528" lon="4.72282">
        <ele>172</ele>
        <time>2018-08-08T08:14:20Z</time>
      </trkpt>
      <trkpt lat="45.93531" lon="4.72276">
        <ele>172</ele>
        <time>2018-08-08T08:14:21Z</time>
      </trkpt>
      <trkpt lat="45.93533" lon="4.7227">
        <ele>172</ele>
        <time>2018-08-08T08:14:22Z</time>
      </trkpt>
      <trkpt lat="45.93537" lon="4.72259">
        <ele>172</ele>
        <time>2018-08-08T08:14:24Z</time>
      </trkpt>
      <trkpt lat="45.93539" lon="4.72254">
        <ele>172</ele>
        <time>2018-08-08T08:14:25Z</time>
      </trkpt>
      <trkpt lat="45.93543" lon="4.72249">
        <ele>172</ele>
        <time>2018-08-08T08:14:26Z</time>
      </trkpt>
      <trkpt lat="45.93545" lon="4.72242">
        <ele>172</ele>
        <time>2018-08-08T08:14:27Z</time>
      </trkpt>
      <trkpt lat="45.93548" lon="4.72236">
        <ele>172</ele>
        <time>2018-08-08T08:14:28Z</time>
      </trkpt>
      <trkpt lat="45.93551" lon="4.7223">
        <ele>172</ele>
        <time>2018-08-08T08:14:29Z</time>
      </trkpt>
      <trkpt lat="45.93557" lon="4.72225">
        <ele>173</ele>
        <time>2018-08-08T08:14:30Z</time>
      </trkpt>
      <trkpt lat="45.93559" lon="4.72218">
        <ele>173</ele>
        <time>2018-08-08T08:14:31Z</time>
      </trkpt>
      <trkpt lat="45.93567" lon="4.72223">
        <ele>173</ele>
        <time>2018-08-08T08:14:33Z</time>
      </trkpt>
      <trkpt lat="45.93572" lon="4.72226">
        <ele>173</ele>
        <time>2018-08-08T08:14:34Z</time>
      </trkpt>
      <trkpt lat="45.93575" lon="4.7223">
        <ele>173</ele>
        <time>2018-08-08T08:14:35Z</time>
      </trkpt>
      <trkpt lat="45.93579" lon="4.72235">
        <ele>173</ele>
        <time>2018-08-08T08:14:36Z</time>
      </trkpt>
      <trkpt lat="45.93586" lon="4.72243">
        <ele>173</ele>
        <time>2018-08-08T08:14:39Z</time>
      </trkpt>
      <trkpt lat="45.93591" lon="4.72249">
        <ele>173</ele>
        <time>2018-08-08T08:14:40Z</time>
      </trkpt>
      <trkpt lat="45.93596" lon="4.72254">
        <ele>173</ele>
        <time>2018-08-08T08:14:41Z</time>
      </trkpt>
      <trkpt lat="45.936" lon="4.72259">
        <ele>173</ele>
        <time>2018-08-08T08:14:42Z</time>
      </trkpt>
      <trkpt lat="45.93604" lon="4.72266">
        <ele>173</ele>
        <time>2018-08-08T08:14:43Z</time>
      </trkpt>
      <trkpt lat="45.93608" lon="4.72271">
        <ele>172</ele>
        <time>2018-08-08T08:14:44Z</time>
      </trkpt>
      <trkpt lat="45.93614" lon="4.72274">
        <ele>172</ele>
        <time>2018-08-08T08:14:45Z</time>
      </trkpt>
      <trkpt lat="45.9362" lon="4.7228">
        <ele>172</ele>
        <time>2018-08-08T08:14:46Z</time>
      </trkpt>
      <trkpt lat="45.93624" lon="4.72284">
        <ele>172</ele>
        <time>2018-08-08T08:14:47Z</time>
      </trkpt>
      <trkpt lat="45.93629" lon="4.72291">
        <ele>172</ele>
        <time>2018-08-08T08:14:48Z</time>
      </trkpt>
      <trkpt lat="45.93634" lon="4.72295">
        <ele>172</ele>
        <time>2018-08-08T08:14:49Z</time>
      </trkpt>
      <trkpt lat="45.93638" lon="4.72298">
        <ele>172</ele>
        <time>2018-08-08T08:14:50Z</time>
      </trkpt>
      <trkpt lat="45.93642" lon="4.72302">
        <ele>172</ele>
        <time>2018-08-08T08:14:51Z</time>
      </trkpt>
      <trkpt lat="45.93647" lon="4.72306">
        <ele>172</ele>
        <time>2018-08-08T08:14:52Z</time>
      </trkpt>
      <trkpt lat="45.93651" lon="4.72309">
        <ele>172</ele>
        <time>2018-08-08T08:14:53Z</time>
      </trkpt>
      <trkpt lat="45.93657" lon="4.72315">
        <ele>172</ele>
        <time>2018-08-08T08:14:54Z</time>
      </trkpt>
      <trkpt lat="45.93662" lon="4.7232">
        <ele>172</ele>
        <time>2018-08-08T08:14:55Z</time>
      </trkpt>
      <trkpt lat="45.93665" lon="4.72323">
        <ele>171</ele>
        <time>2018-08-08T08:14:56Z</time>
      </trkpt>
      <trkpt lat="45.9367" lon="4.72327">
        <ele>171</ele>
        <time>2018-08-08T08:14:57Z</time>
      </trkpt>
      <trkpt lat="45.93675" lon="4.72333">
        <ele>171</ele>
        <time>2018-08-08T08:14:58Z</time>
      </trkpt>
      <trkpt lat="45.9368" lon="4.72338">
        <ele>171</ele>
        <time>2018-08-08T08:14:59Z</time>
      </trkpt>
      <trkpt lat="45.93686" lon="4.72342">
        <ele>171</ele>
        <time>2018-08-08T08:15:00Z</time>
      </trkpt>
      <trkpt lat="45.9369" lon="4.72344">
        <ele>171</ele>
        <time>2018-08-08T08:15:01Z</time>
      </trkpt>
      <trkpt lat="45.93695" lon="4.72348">
        <ele>171</ele>
        <time>2018-08-08T08:15:02Z</time>
      </trkpt>
      <trkpt lat="45.93699" lon="4.72353">
        <ele>171</ele>
        <time>2018-08-08T08:15:03Z</time>
      </trkpt>
      <trkpt lat="45.93704" lon="4.72359">
        <ele>171</ele>
        <time>2018-08-08T08:15:04Z</time>
      </trkpt>
      <trkpt lat="45.93709" lon="4.72366">
        <ele>172</ele>
        <time>2018-08-08T08:15:05Z</time>
      </trkpt>
      <trkpt lat="45.93714" lon="4.72371">
        <ele>172</ele>
        <time>2018-08-08T08:15:06Z</time>
      </trkpt>
      <trkpt lat="45.93719" lon="4.72377">
        <ele>171</ele>
        <time>2018-08-08T08:15:07Z</time>
      </trkpt>
      <trkpt lat="45.93724" lon="4.72381">
        <ele>171</ele>
        <time>2018-08-08T08:15:08Z</time>
      </trkpt>
      <trkpt lat="45.93729" lon="4.72385">
        <ele>171</ele>
        <time>2018-08-08T08:15:09Z</time>
      </trkpt>
      <trkpt lat="45.93734" lon="4.72392">
        <ele>171</ele>
        <time>2018-08-08T08:15:10Z</time>
      </trkpt>
      <trkpt lat="45.93739" lon="4.72396">
        <ele>171</ele>
        <time>2018-08-08T08:15:11Z</time>
      </trkpt>
      <trkpt lat="45.93743" lon="4.72401">
        <ele>171</ele>
        <time>2018-08-08T08:15:12Z</time>
      </trkpt>
      <trkpt lat="45.93748" lon="4.72405">
        <ele>171</ele>
        <time>2018-08-08T08:15:13Z</time>
      </trkpt>
      <trkpt lat="45.93752" lon="4.7241">
        <ele>171</ele>
        <time>2018-08-08T08:15:14Z</time>
      </trkpt>
      <trkpt lat="45.93757" lon="4.72415">
        <ele>171</ele>
        <time>2018-08-08T08:15:15Z</time>
      </trkpt>
      <trkpt lat="45.93761" lon="4.72419">
        <ele>171</ele>
        <time>2018-08-08T08:15:16Z</time>
      </trkpt>
      <trkpt lat="45.93766" lon="4.72422">
        <ele>171</ele>
        <time>2018-08-08T08:15:17Z</time>
      </trkpt>
      <trkpt lat="45.9377" lon="4.72427">
        <ele>171</ele>
        <time>2018-08-08T08:15:18Z</time>
      </trkpt>
      <trkpt lat="45.93773" lon="4.72433">
        <ele>171</ele>
        <time>2018-08-08T08:15:19Z</time>
      </trkpt>
      <trkpt lat="45.93777" lon="4.72436">
        <ele>172</ele>
        <time>2018-08-08T08:15:20Z</time>
      </trkpt>
      <trkpt lat="45.93782" lon="4.72441">
        <ele>172</ele>
        <time>2018-08-08T08:15:21Z</time>
      </trkpt>
      <trkpt lat="45.93785" lon="4.72444">
        <ele>172</ele>
        <time>2018-08-08T08:15:22Z</time>
      </trkpt>
      <trkpt lat="45.93791" lon="4.72451">
        <ele>172</ele>
        <time>2018-08-08T08:15:23Z</time>
      </trkpt>
      <trkpt lat="45.93793" lon="4.72452">
        <ele>172</ele>
        <time>2018-08-08T08:15:24Z</time>
      </trkpt>
      <trkpt lat="45.938" lon="4.72455">
        <ele>172</ele>
        <time>2018-08-08T08:15:25Z</time>
      </trkpt>
      <trkpt lat="45.93803" lon="4.7246">
        <ele>172</ele>
        <time>2018-08-08T08:15:26Z</time>
      </trkpt>
      <trkpt lat="45.93809" lon="4.72469">
        <ele>172</ele>
        <time>2018-08-08T08:15:28Z</time>
      </trkpt>
      <trkpt lat="45.93815" lon="4.72472">
        <ele>172</ele>
        <time>2018-08-08T08:15:29Z</time>
      </trkpt>
      <trkpt lat="45.9382" lon="4.72474">
        <ele>172</ele>
        <time>2018-08-08T08:15:30Z</time>
      </trkpt>
      <trkpt lat="45.93824" lon="4.72478">
        <ele>173</ele>
        <time>2018-08-08T08:15:31Z</time>
      </trkpt>
      <trkpt lat="45.93831" lon="4.72484">
        <ele>173</ele>
        <time>2018-08-08T08:15:33Z</time>
      </trkpt>
      <trkpt lat="45.93834" lon="4.72487">
        <ele>173</ele>
        <time>2018-08-08T08:15:34Z</time>
      </trkpt>
      <trkpt lat="45.93837" lon="4.7249">
        <ele>173</ele>
        <time>2018-08-08T08:15:35Z</time>
      </trkpt>
      <trkpt lat="45.93842" lon="4.72497">
        <ele>173</ele>
        <time>2018-08-08T08:15:36Z</time>
      </trkpt>
      <trkpt lat="45.93848" lon="4.72502">
        <ele>174</ele>
        <time>2018-08-08T08:15:37Z</time>
      </trkpt>
      <trkpt lat="45.93853" lon="4.72508">
        <ele>173</ele>
        <time>2018-08-08T08:15:38Z</time>
      </trkpt>
      <trkpt lat="45.93858" lon="4.7251">
        <ele>173</ele>
        <time>2018-08-08T08:15:39Z</time>
      </trkpt>
      <trkpt lat="45.93865" lon="4.72514">
        <ele>173</ele>
        <time>2018-08-08T08:15:40Z</time>
      </trkpt>
      <trkpt lat="45.9387" lon="4.72517">
        <ele>173</ele>
        <time>2018-08-08T08:15:41Z</time>
      </trkpt>
      <trkpt lat="45.93875" lon="4.72514">
        <ele>173</ele>
        <time>2018-08-08T08:15:42Z</time>
      </trkpt>
      <trkpt lat="45.9388" lon="4.72511">
        <ele>173</ele>
        <time>2018-08-08T08:15:43Z</time>
      </trkpt>
      <trkpt lat="45.93885" lon="4.72509">
        <ele>173</ele>
        <time>2018-08-08T08:15:44Z</time>
      </trkpt>
      <trkpt lat="45.9389" lon="4.72503">
        <ele>173</ele>
        <time>2018-08-08T08:15:45Z</time>
      </trkpt>
      <trkpt lat="45.93893" lon="4.72499">
        <ele>172</ele>
        <time>2018-08-08T08:15:46Z</time>
      </trkpt>
      <trkpt lat="45.93897" lon="4.72491">
        <ele>172</ele>
        <time>2018-08-08T08:15:47Z</time>
      </trkpt>
      <trkpt lat="45.93902" lon="4.72486">
        <ele>172</ele>
        <time>2018-08-08T08:15:48Z</time>
      </trkpt>
      <trkpt lat="45.93907" lon="4.72479">
        <ele>172</ele>
        <time>2018-08-08T08:15:49Z</time>
      </trkpt>
      <trkpt lat="45.93912" lon="4.72474">
        <ele>172</ele>
        <time>2018-08-08T08:15:50Z</time>
      </trkpt>
      <trkpt lat="45.93917" lon="4.72468">
        <ele>171</ele>
        <time>2018-08-08T08:15:51Z</time>
      </trkpt>
      <trkpt lat="45.93921" lon="4.72462">
        <ele>171</ele>
        <time>2018-08-08T08:15:52Z</time>
      </trkpt>
      <trkpt lat="45.93926" lon="4.72452">
        <ele>171</ele>
        <time>2018-08-08T08:15:53Z</time>
      </trkpt>
      <trkpt lat="45.9393" lon="4.72447">
        <ele>171</ele>
        <time>2018-08-08T08:15:54Z</time>
      </trkpt>
      <trkpt lat="45.93936" lon="4.7244">
        <ele>171</ele>
        <time>2018-08-08T08:15:55Z</time>
      </trkpt>
      <trkpt lat="45.93938" lon="4.72434">
        <ele>171</ele>
        <time>2018-08-08T08:15:56Z</time>
      </trkpt>
      <trkpt lat="45.93943" lon="4.72426">
        <ele>171</ele>
        <time>2018-08-08T08:15:57Z</time>
      </trkpt>
      <trkpt lat="45.93948" lon="4.72419">
        <ele>171</ele>
        <time>2018-08-08T08:15:58Z</time>
      </trkpt>
      <trkpt lat="45.93953" lon="4.72417">
        <ele>171</ele>
        <time>2018-08-08T08:15:59Z</time>
      </trkpt>
      <trkpt lat="45.93959" lon="4.72416">
        <ele>171</ele>
        <time>2018-08-08T08:16:00Z</time>
      </trkpt>
      <trkpt lat="45.9396" lon="4.72413">
        <ele>171</ele>
        <time>2018-08-08T08:16:01Z</time>
      </trkpt>
      <trkpt lat="45.93969" lon="4.72411">
        <ele>171</ele>
        <time>2018-08-08T08:16:02Z</time>
      </trkpt>
      <trkpt lat="45.93974" lon="4.72409">
        <ele>171</ele>
        <time>2018-08-08T08:16:03Z</time>
      </trkpt>
      <trkpt lat="45.93973" lon="4.72399">
        <ele>171</ele>
        <time>2018-08-08T08:16:04Z</time>
      </trkpt>
      <trkpt lat="45.93976" lon="4.7239">
        <ele>171</ele>
        <time>2018-08-08T08:16:05Z</time>
      </trkpt>
      <trkpt lat="45.93976" lon="4.72386">
        <ele>171</ele>
        <time>2018-08-08T08:16:06Z</time>
      </trkpt>
      <trkpt lat="45.93981" lon="4.72378">
        <ele>171</ele>
        <time>2018-08-08T08:16:07Z</time>
      </trkpt>
      <trkpt lat="45.93986" lon="4.72373">
        <ele>171</ele>
        <time>2018-08-08T08:16:08Z</time>
      </trkpt>
      <trkpt lat="45.93992" lon="4.72371">
        <ele>171</ele>
        <time>2018-08-08T08:16:09Z</time>
      </trkpt>
      <trkpt lat="45.93995" lon="4.72364">
        <ele>171</ele>
        <time>2018-08-08T08:16:10Z</time>
      </trkpt>
      <trkpt lat="45.94002" lon="4.72358">
        <ele>171</ele>
        <time>2018-08-08T08:16:11Z</time>
      </trkpt>
      <trkpt lat="45.94006" lon="4.72355">
        <ele>171</ele>
        <time>2018-08-08T08:16:12Z</time>
      </trkpt>
      <trkpt lat="45.94011" lon="4.72347">
        <ele>171</ele>
        <time>2018-08-08T08:16:13Z</time>
      </trkpt>
      <trkpt lat="45.94016" lon="4.72343">
        <ele>171</ele>
        <time>2018-08-08T08:16:14Z</time>
      </trkpt>
      <trkpt lat="45.94021" lon="4.72337">
        <ele>171</ele>
        <time>2018-08-08T08:16:15Z</time>
      </trkpt>
      <trkpt lat="45.94025" lon="4.72333">
        <ele>171</ele>
        <time>2018-08-08T08:16:16Z</time>
      </trkpt>
      <trkpt lat="45.9403" lon="4.72328">
        <ele>171</ele>
        <time>2018-08-08T08:16:17Z</time>
      </trkpt>
      <trkpt lat="45.94033" lon="4.72324">
        <ele>171</ele>
        <time>2018-08-08T08:16:18Z</time>
      </trkpt>
      <trkpt lat="45.94036" lon="4.7232">
        <ele>171</ele>
        <time>2018-08-08T08:16:19Z</time>
      </trkpt>
      <trkpt lat="45.9404" lon="4.72313">
        <ele>171</ele>
        <time>2018-08-08T08:16:20Z</time>
      </trkpt>
      <trkpt lat="45.94043" lon="4.72308">
        <ele>171</ele>
        <time>2018-08-08T08:16:21Z</time>
      </trkpt>
      <trkpt lat="45.94047" lon="4.72303">
        <ele>171</ele>
        <time>2018-08-08T08:16:22Z</time>
      </trkpt>
      <trkpt lat="45.94051" lon="4.72296">
        <ele>171</ele>
        <time>2018-08-08T08:16:23Z</time>
      </trkpt>
      <trkpt lat="45.94054" lon="4.72293">
        <ele>171</ele>
        <time>2018-08-08T08:16:24Z</time>
      </trkpt>
      <trkpt lat="45.94058" lon="4.72289">
        <ele>171</ele>
        <time>2018-08-08T08:16:25Z</time>
      </trkpt>
      <trkpt lat="45.94062" lon="4.72285">
        <ele>171</ele>
        <time>2018-08-08T08:16:26Z</time>
      </trkpt>
      <trkpt lat="45.94066" lon="4.7228">
        <ele>171</ele>
        <time>2018-08-08T08:16:27Z</time>
      </trkpt>
      <trkpt lat="45.9407" lon="4.72275">
        <ele>171</ele>
        <time>2018-08-08T08:16:28Z</time>
      </trkpt>
      <trkpt lat="45.94075" lon="4.72271">
        <ele>171</ele>
        <time>2018-08-08T08:16:29Z</time>
      </trkpt>
      <trkpt lat="45.9408" lon="4.72266">
        <ele>171</ele>
        <time>2018-08-08T08:16:30Z</time>
      </trkpt>
      <trkpt lat="45.94084" lon="4.72266">
        <ele>171</ele>
        <time>2018-08-08T08:16:31Z</time>
      </trkpt>
      <trkpt lat="45.94089" lon="4.72265">
        <ele>171</ele>
        <time>2018-08-08T08:16:32Z</time>
      </trkpt>
      <trkpt lat="45.94095" lon="4.72263">
        <ele>171</ele>
        <time>2018-08-08T08:16:33Z</time>
      </trkpt>
      <trkpt lat="45.94101" lon="4.72264">
        <ele>171</ele>
        <time>2018-08-08T08:16:34Z</time>
      </trkpt>
      <trkpt lat="45.94106" lon="4.72265">
        <ele>171</ele>
        <time>2018-08-08T08:16:35Z</time>
      </trkpt>
      <trkpt lat="45.94111" lon="4.72266">
        <ele>171</ele>
        <time>2018-08-08T08:16:36Z</time>
      </trkpt>
      <trkpt lat="45.94115" lon="4.72268">
        <ele>171</ele>
        <time>2018-08-08T08:16:37Z</time>
      </trkpt>
      <trkpt lat="45.94122" lon="4.7227">
        <ele>171</ele>
        <time>2018-08-08T08:16:38Z</time>
      </trkpt>
      <trkpt lat="45.94127" lon="4.72273">
        <ele>171</ele>
        <time>2018-08-08T08:16:39Z</time>
      </trkpt>
      <trkpt lat="45.94132" lon="4.72276">
        <ele>171</ele>
        <time>2018-08-08T08:16:40Z</time>
      </trkpt>
      <trkpt lat="45.94136" lon="4.72279">
        <ele>171</ele>
        <time>2018-08-08T08:16:41Z</time>
      </trkpt>
      <trkpt lat="45.94141" lon="4.72281">
        <ele>171</ele>
        <time>2018-08-08T08:16:42Z</time>
      </trkpt>
      <trkpt lat="45.94145" lon="4.72284">
        <ele>171</ele>
        <time>2018-08-08T08:16:43Z</time>
      </trkpt>
      <trkpt lat="45.94151" lon="4.72287">
        <ele>171</ele>
        <time>2018-08-08T08:16:44Z</time>
      </trkpt>
      <trkpt lat="45.94155" lon="4.72289">
        <ele>171</ele>
        <time>2018-08-08T08:16:45Z</time>
      </trkpt>
      <trkpt lat="45.9416" lon="4.7229">
        <ele>171</ele>
        <time>2018-08-08T08:16:46Z</time>
      </trkpt>
      <trkpt lat="45.94166" lon="4.72292">
        <ele>171</ele>
        <time>2018-08-08T08:16:47Z</time>
      </trkpt>
      <trkpt lat="45.94172" lon="4.72292">
        <ele>171</ele>
        <time>2018-08-08T08:16:48Z</time>
      </trkpt>
      <trkpt lat="45.94177" lon="4.72293">
        <ele>171</ele>
        <time>2018-08-08T08:16:49Z</time>
      </trkpt>
      <trkpt lat="45.94183" lon="4.72294">
        <ele>171</ele>
        <time>2018-08-08T08:16:50Z</time>
      </trkpt>
      <trkpt lat="45.94187" lon="4.72292">
        <ele>171</ele>
        <time>2018-08-08T08:16:51Z</time>
      </trkpt>
      <trkpt lat="45.94193" lon="4.72293">
        <ele>171</ele>
        <time>2018-08-08T08:16:52Z</time>
      </trkpt>
      <trkpt lat="45.94198" lon="4.72292">
        <ele>171</ele>
        <time>2018-08-08T08:16:53Z</time>
      </trkpt>
      <trkpt lat="45.94204" lon="4.72293">
        <ele>171</ele>
        <time>2018-08-08T08:16:54Z</time>
      </trkpt>
      <trkpt lat="45.94209" lon="4.72292">
        <ele>171</ele>
        <time>2018-08-08T08:16:55Z</time>
      </trkpt>
      <trkpt lat="45.94215" lon="4.7229">
        <ele>171</ele>
        <time>2018-08-08T08:16:56Z</time>
      </trkpt>
      <trkpt lat="45.9422" lon="4.72289">
        <ele>171</ele>
        <time>2018-08-08T08:16:57Z</time>
      </trkpt>
      <trkpt lat="45.94225" lon="4.72288">
        <ele>171</ele>
        <time>2018-08-08T08:16:58Z</time>
      </trkpt>
      <trkpt lat="45.94228" lon="4.72284">
        <ele>171</ele>
        <time>2018-08-08T08:16:59Z</time>
      </trkpt>
      <trkpt lat="45.94235" lon="4.72284">
        <ele>171</ele>
        <time>2018-08-08T08:17:00Z</time>
      </trkpt>
      <trkpt lat="45.94239" lon="4.72282">
        <ele>171</ele>
        <time>2018-08-08T08:17:01Z</time>
      </trkpt>
      <trkpt lat="45.94245" lon="4.72281">
        <ele>171</ele>
        <time>2018-08-08T08:17:02Z</time>
      </trkpt>
      <trkpt lat="45.94253" lon="4.7228">
        <ele>171</ele>
        <time>2018-08-08T08:17:04Z</time>
      </trkpt>
      <trkpt lat="45.94257" lon="4.7228">
        <ele>171</ele>
        <time>2018-08-08T08:17:05Z</time>
      </trkpt>
      <trkpt lat="45.94264" lon="4.72275">
        <ele>171</ele>
        <time>2018-08-08T08:17:08Z</time>
      </trkpt>
      <trkpt lat="45.94266" lon="4.72275">
        <ele>171</ele>
        <time>2018-08-08T08:17:09Z</time>
      </trkpt>
      <trkpt lat="45.94269" lon="4.72276">
        <ele>171</ele>
        <time>2018-08-08T08:17:10Z</time>
      </trkpt>
      <trkpt lat="45.94276" lon="4.72281">
        <ele>171</ele>
        <time>2018-08-08T08:17:11Z</time>
      </trkpt>
      <trkpt lat="45.94282" lon="4.7229">
        <ele>171</ele>
        <time>2018-08-08T08:17:13Z</time>
      </trkpt>
      <trkpt lat="45.94284" lon="4.72297">
        <ele>171</ele>
        <time>2018-08-08T08:17:14Z</time>
      </trkpt>
      <trkpt lat="45.94287" lon="4.72303">
        <ele>171</ele>
        <time>2018-08-08T08:17:15Z</time>
      </trkpt>
      <trkpt lat="45.9429" lon="4.72309">
        <ele>171</ele>
        <time>2018-08-08T08:17:16Z</time>
      </trkpt>
      <trkpt lat="45.94293" lon="4.72316">
        <ele>171</ele>
        <time>2018-08-08T08:17:17Z</time>
      </trkpt>
      <trkpt lat="45.94295" lon="4.72321">
        <ele>171</ele>
        <time>2018-08-08T08:17:18Z</time>
      </trkpt>
      <trkpt lat="45.94298" lon="4.72328">
        <ele>171</ele>
        <time>2018-08-08T08:17:19Z</time>
      </trkpt>
      <trkpt lat="45.94301" lon="4.72334">
        <ele>172</ele>
        <time>2018-08-08T08:17:20Z</time>
      </trkpt>
      <trkpt lat="45.94304" lon="4.7234">
        <ele>172</ele>
        <time>2018-08-08T08:17:21Z</time>
      </trkpt>
      <trkpt lat="45.94308" lon="4.72346">
        <ele>172</ele>
        <time>2018-08-08T08:17:22Z</time>
      </trkpt>
      <trkpt lat="45.94312" lon="4.72358">
        <ele>172</ele>
        <time>2018-08-08T08:17:24Z</time>
      </trkpt>
      <trkpt lat="45.94314" lon="4.72364">
        <ele>172</ele>
        <time>2018-08-08T08:17:25Z</time>
      </trkpt>
      <trkpt lat="45.94317" lon="4.7237">
        <ele>172</ele>
        <time>2018-08-08T08:17:26Z</time>
      </trkpt>
      <trkpt lat="45.94319" lon="4.72378">
        <ele>172</ele>
        <time>2018-08-08T08:17:27Z</time>
      </trkpt>
      <trkpt lat="45.94322" lon="4.72384">
        <ele>172</ele>
        <time>2018-08-08T08:17:28Z</time>
      </trkpt>
      <trkpt lat="45.94326" lon="4.7239">
        <ele>172</ele>
        <time>2018-08-08T08:17:29Z</time>
      </trkpt>
      <trkpt lat="45.94328" lon="4.72397">
        <ele>172</ele>
        <time>2018-08-08T08:17:30Z</time>
      </trkpt>
      <trkpt lat="45.94331" lon="4.72403">
        <ele>173</ele>
        <time>2018-08-08T08:17:31Z</time>
      </trkpt>
      <trkpt lat="45.94335" lon="4.72409">
        <ele>173</ele>
        <time>2018-08-08T08:17:32Z</time>
      </trkpt>
      <trkpt lat="45.94337" lon="4.72415">
        <ele>173</ele>
        <time>2018-08-08T08:17:33Z</time>
      </trkpt>
      <trkpt lat="45.9434" lon="4.72421">
        <ele>173</ele>
        <time>2018-08-08T08:17:34Z</time>
      </trkpt>
      <trkpt lat="45.94343" lon="4.72428">
        <ele>173</ele>
        <time>2018-08-08T08:17:35Z</time>
      </trkpt>
      <trkpt lat="45.94347" lon="4.72434">
        <ele>173</ele>
        <time>2018-08-08T08:17:36Z</time>
      </trkpt>
      <trkpt lat="45.94349" lon="4.7244">
        <ele>173</ele>
        <time>2018-08-08T08:17:37Z</time>
      </trkpt>
      <trkpt lat="45.94352" lon="4.72448">
        <ele>173</ele>
        <time>2018-08-08T08:17:38Z</time>
      </trkpt>
      <trkpt lat="45.94355" lon="4.72455">
        <ele>173</ele>
        <time>2018-08-08T08:17:39Z</time>
      </trkpt>
      <trkpt lat="45.94359" lon="4.72462">
        <ele>173</ele>
        <time>2018-08-08T08:17:40Z</time>
      </trkpt>
      <trkpt lat="45.94361" lon="4.72469">
        <ele>173</ele>
        <time>2018-08-08T08:17:41Z</time>
      </trkpt>
      <trkpt lat="45.94364" lon="4.72476">
        <ele>173</ele>
        <time>2018-08-08T08:17:42Z</time>
      </trkpt>
      <trkpt lat="45.94366" lon="4.72484">
        <ele>173</ele>
        <time>2018-08-08T08:17:43Z</time>
      </trkpt>
      <trkpt lat="45.94369" lon="4.72491">
        <ele>173</ele>
        <time>2018-08-08T08:17:44Z</time>
      </trkpt>
      <trkpt lat="45.94372" lon="4.72498">
        <ele>173</ele>
        <time>2018-08-08T08:17:45Z</time>
      </trkpt>
      <trkpt lat="45.94377" lon="4.72503">
        <ele>174</ele>
        <time>2018-08-08T08:17:46Z</time>
      </trkpt>
      <trkpt lat="45.94378" lon="4.7251">
        <ele>174</ele>
        <time>2018-08-08T08:17:47Z</time>
      </trkpt>
      <trkpt lat="45.94379" lon="4.72516">
        <ele>174</ele>
        <time>2018-08-08T08:17:48Z</time>
      </trkpt>
      <trkpt lat="45.9438" lon="4.72522">
        <ele>174</ele>
        <time>2018-08-08T08:17:49Z</time>
      </trkpt>
      <trkpt lat="45.94381" lon="4.7253">
        <ele>174</ele>
        <time>2018-08-08T08:17:50Z</time>
      </trkpt>
      <trkpt lat="45.94382" lon="4.72538">
        <ele>174</ele>
        <time>2018-08-08T08:17:51Z</time>
      </trkpt>
      <trkpt lat="45.94384" lon="4.72544">
        <ele>173</ele>
        <time>2018-08-08T08:17:52Z</time>
      </trkpt>
      <trkpt lat="45.94385" lon="4.72552">
        <ele>173</ele>
        <time>2018-08-08T08:17:53Z</time>
      </trkpt>
      <trkpt lat="45.94386" lon="4.7256">
        <ele>173</ele>
        <time>2018-08-08T08:17:54Z</time>
      </trkpt>
      <trkpt lat="45.94387" lon="4.72566">
        <ele>173</ele>
        <time>2018-08-08T08:17:55Z</time>
      </trkpt>
      <trkpt lat="45.94388" lon="4.72574">
        <ele>173</ele>
        <time>2018-08-08T08:17:56Z</time>
      </trkpt>
      <trkpt lat="45.9439" lon="4.72582">
        <ele>173</ele>
        <time>2018-08-08T08:17:57Z</time>
      </trkpt>
      <trkpt lat="45.94391" lon="4.72589">
        <ele>173</ele>
        <time>2018-08-08T08:17:58Z</time>
      </trkpt>
      <trkpt lat="45.94392" lon="4.72596">
        <ele>173</ele>
        <time>2018-08-08T08:17:59Z</time>
      </trkpt>
      <trkpt lat="45.94394" lon="4.72603">
        <ele>173</ele>
        <time>2018-08-08T08:18:00Z</time>
      </trkpt>
      <trkpt lat="45.94395" lon="4.7261">
        <ele>173</ele>
        <time>2018-08-08T08:18:01Z</time>
      </trkpt>
      <trkpt lat="45.94396" lon="4.72617">
        <ele>173</ele>
        <time>2018-08-08T08:18:02Z</time>
      </trkpt>
      <trkpt lat="45.94397" lon="4.72625">
        <ele>173</ele>
        <time>2018-08-08T08:18:03Z</time>
      </trkpt>
      <trkpt lat="45.94397" lon="4.72632">
        <ele>174</ele>
        <time>2018-08-08T08:18:04Z</time>
      </trkpt>
      <trkpt lat="45.94399" lon="4.72639">
        <ele>174</ele>
        <time>2018-08-08T08:18:05Z</time>
      </trkpt>
      <trkpt lat="45.944" lon="4.72647">
        <ele>174</ele>
        <time>2018-08-08T08:18:06Z</time>
      </trkpt>
      <trkpt lat="45.94402" lon="4.72655">
        <ele>174</ele>
        <time>2018-08-08T08:18:07Z</time>
      </trkpt>
      <trkpt lat="45.94403" lon="4.72663">
        <ele>174</ele>
        <time>2018-08-08T08:18:08Z</time>
      </trkpt>
      <trkpt lat="45.94404" lon="4.7267">
        <ele>173</ele>
        <time>2018-08-08T08:18:09Z</time>
      </trkpt>
      <trkpt lat="45.94405" lon="4.72679">
        <ele>173</ele>
        <time>2018-08-08T08:18:10Z</time>
      </trkpt>
      <trkpt lat="45.94406" lon="4.72687">
        <ele>173</ele>
        <time>2018-08-08T08:18:11Z</time>
      </trkpt>
      <trkpt lat="45.94407" lon="4.72696">
        <ele>173</ele>
        <time>2018-08-08T08:18:12Z</time>
      </trkpt>
      <trkpt lat="45.94408" lon="4.72704">
        <ele>172</ele>
        <time>2018-08-08T08:18:13Z</time>
      </trkpt>
      <trkpt lat="45.94409" lon="4.72711">
        <ele>172</ele>
        <time>2018-08-08T08:18:14Z</time>
      </trkpt>
      <trkpt lat="45.94411" lon="4.72719">
        <ele>172</ele>
        <time>2018-08-08T08:18:15Z</time>
      </trkpt>
      <trkpt lat="45.94411" lon="4.72727">
        <ele>172</ele>
        <time>2018-08-08T08:18:16Z</time>
      </trkpt>
      <trkpt lat="45.94412" lon="4.72736">
        <ele>171</ele>
        <time>2018-08-08T08:18:17Z</time>
      </trkpt>
      <trkpt lat="45.94413" lon="4.72743">
        <ele>171</ele>
        <time>2018-08-08T08:18:18Z</time>
      </trkpt>
      <trkpt lat="45.94415" lon="4.72751">
        <ele>171</ele>
        <time>2018-08-08T08:18:19Z</time>
      </trkpt>
      <trkpt lat="45.94416" lon="4.72759">
        <ele>170</ele>
        <time>2018-08-08T08:18:20Z</time>
      </trkpt>
      <trkpt lat="45.94417" lon="4.72766">
        <ele>169</ele>
        <time>2018-08-08T08:18:21Z</time>
      </trkpt>
      <trkpt lat="45.94418" lon="4.72773">
        <ele>169</ele>
        <time>2018-08-08T08:18:22Z</time>
      </trkpt>
      <trkpt lat="45.94419" lon="4.72781">
        <ele>168</ele>
        <time>2018-08-08T08:18:23Z</time>
      </trkpt>
      <trkpt lat="45.9442" lon="4.72788">
        <ele>168</ele>
        <time>2018-08-08T08:18:24Z</time>
      </trkpt>
      <trkpt lat="45.94422" lon="4.72796">
        <ele>168</ele>
        <time>2018-08-08T08:18:25Z</time>
      </trkpt>
      <trkpt lat="45.94423" lon="4.72802">
        <ele>167</ele>
        <time>2018-08-08T08:18:26Z</time>
      </trkpt>
      <trkpt lat="45.94424" lon="4.7281">
        <ele>167</ele>
        <time>2018-08-08T08:18:27Z</time>
      </trkpt>
      <trkpt lat="45.94424" lon="4.72816">
        <ele>167</ele>
        <time>2018-08-08T08:18:28Z</time>
      </trkpt>
      <trkpt lat="45.94425" lon="4.72823">
        <ele>167</ele>
        <time>2018-08-08T08:18:29Z</time>
      </trkpt>
      <trkpt lat="45.94426" lon="4.7283">
        <ele>166</ele>
        <time>2018-08-08T08:18:30Z</time>
      </trkpt>
      <trkpt lat="45.94428" lon="4.72837">
        <ele>166</ele>
        <time>2018-08-08T08:18:31Z</time>
      </trkpt>
      <trkpt lat="45.94428" lon="4.72844">
        <ele>166</ele>
        <time>2018-08-08T08:18:32Z</time>
      </trkpt>
      <trkpt lat="45.94429" lon="4.7285">
        <ele>166</ele>
        <time>2018-08-08T08:18:33Z</time>
      </trkpt>
      <trkpt lat="45.9443" lon="4.72857">
        <ele>166</ele>
        <time>2018-08-08T08:18:34Z</time>
      </trkpt>
      <trkpt lat="45.94431" lon="4.72863">
        <ele>166</ele>
        <time>2018-08-08T08:18:35Z</time>
      </trkpt>
      <trkpt lat="45.94432" lon="4.7287">
        <ele>166</ele>
        <time>2018-08-08T08:18:36Z</time>
      </trkpt>
      <trkpt lat="45.94433" lon="4.72877">
        <ele>166</ele>
        <time>2018-08-08T08:18:37Z</time>
      </trkpt>
      <trkpt lat="45.94435" lon="4.72889">
        <ele>166</ele>
        <time>2018-08-08T08:18:39Z</time>
      </trkpt>
      <trkpt lat="45.94436" lon="4.72895">
        <ele>166</ele>
        <time>2018-08-08T08:18:40Z</time>
      </trkpt>
      <trkpt lat="45.94437" lon="4.72901">
        <ele>166</ele>
        <time>2018-08-08T08:18:41Z</time>
      </trkpt>
      <trkpt lat="45.94438" lon="4.72908">
        <ele>166</ele>
        <time>2018-08-08T08:18:42Z</time>
      </trkpt>
      <trkpt lat="45.94439" lon="4.72914">
        <ele>166</ele>
        <time>2018-08-08T08:18:43Z</time>
      </trkpt>
      <trkpt lat="45.9444" lon="4.72922">
        <ele>167</ele>
        <time>2018-08-08T08:18:44Z</time>
      </trkpt>
      <trkpt lat="45.9444" lon="4.72929">
        <ele>167</ele>
        <time>2018-08-08T08:18:45Z</time>
      </trkpt>
      <trkpt lat="45.94441" lon="4.72937">
        <ele>167</ele>
        <time>2018-08-08T08:18:46Z</time>
      </trkpt>
      <trkpt lat="45.94442" lon="4.72945">
        <ele>167</ele>
        <time>2018-08-08T08:18:47Z</time>
      </trkpt>
      <trkpt lat="45.94443" lon="4.72952">
        <ele>167</ele>
        <time>2018-08-08T08:18:48Z</time>
      </trkpt>
      <trkpt lat="45.94445" lon="4.7296">
        <ele>167</ele>
        <time>2018-08-08T08:18:49Z</time>
      </trkpt>
      <trkpt lat="45.94446" lon="4.72969">
        <ele>167</ele>
        <time>2018-08-08T08:18:50Z</time>
      </trkpt>
      <trkpt lat="45.94447" lon="4.72978">
        <ele>167</ele>
        <time>2018-08-08T08:18:51Z</time>
      </trkpt>
      <trkpt lat="45.94449" lon="4.72988">
        <ele>167</ele>
        <time>2018-08-08T08:18:52Z</time>
      </trkpt>
      <trkpt lat="45.9445" lon="4.72996">
        <ele>167</ele>
        <time>2018-08-08T08:18:53Z</time>
      </trkpt>
      <trkpt lat="45.94451" lon="4.73007">
        <ele>169</ele>
        <time>2018-08-08T08:18:54Z</time>
      </trkpt>
      <trkpt lat="45.94453" lon="4.73018">
        <ele>169</ele>
        <time>2018-08-08T08:18:55Z</time>
      </trkpt>
      <trkpt lat="45.94455" lon="4.73029">
        <ele>169</ele>
        <time>2018-08-08T08:18:56Z</time>
      </trkpt>
      <trkpt lat="45.94456" lon="4.7304">
        <ele>169</ele>
        <time>2018-08-08T08:18:57Z</time>
      </trkpt>
      <trkpt lat="45.94458" lon="4.73051">
        <ele>170</ele>
        <time>2018-08-08T08:18:58Z</time>
      </trkpt>
      <trkpt lat="45.9446" lon="4.73062">
        <ele>170</ele>
        <time>2018-08-08T08:18:59Z</time>
      </trkpt>
      <trkpt lat="45.94461" lon="4.73074">
        <ele>170</ele>
        <time>2018-08-08T08:19:00Z</time>
      </trkpt>
      <trkpt lat="45.94462" lon="4.73085">
        <ele>171</ele>
        <time>2018-08-08T08:19:01Z</time>
      </trkpt>
      <trkpt lat="45.94462" lon="4.73095">
        <ele>171</ele>
        <time>2018-08-08T08:19:02Z</time>
      </trkpt>
      <trkpt lat="45.94463" lon="4.73106">
        <ele>172</ele>
        <time>2018-08-08T08:19:03Z</time>
      </trkpt>
      <trkpt lat="45.94464" lon="4.73116">
        <ele>172</ele>
        <time>2018-08-08T08:19:04Z</time>
      </trkpt>
      <trkpt lat="45.94465" lon="4.73126">
        <ele>172</ele>
        <time>2018-08-08T08:19:05Z</time>
      </trkpt>
      <trkpt lat="45.94466" lon="4.73135">
        <ele>172</ele>
        <time>2018-08-08T08:19:06Z</time>
      </trkpt>
      <trkpt lat="45.94467" lon="4.73143">
        <ele>172</ele>
        <time>2018-08-08T08:19:07Z</time>
      </trkpt>
      <trkpt lat="45.94468" lon="4.73153">
        <ele>172</ele>
        <time>2018-08-08T08:19:08Z</time>
      </trkpt>
      <trkpt lat="45.9447" lon="4.73162">
        <ele>172</ele>
        <time>2018-08-08T08:19:09Z</time>
      </trkpt>
      <trkpt lat="45.9447" lon="4.7317">
        <ele>174</ele>
        <time>2018-08-08T08:19:10Z</time>
      </trkpt>
      <trkpt lat="45.94471" lon="4.73179">
        <ele>174</ele>
        <time>2018-08-08T08:19:11Z</time>
      </trkpt>
      <trkpt lat="45.94473" lon="4.73187">
        <ele>174</ele>
        <time>2018-08-08T08:19:12Z</time>
      </trkpt>
      <trkpt lat="45.94474" lon="4.73195">
        <ele>174</ele>
        <time>2018-08-08T08:19:13Z</time>
      </trkpt>
      <trkpt lat="45.94474" lon="4.73204">
        <ele>175</ele>
        <time>2018-08-08T08:19:14Z</time>
      </trkpt>
      <trkpt lat="45.94475" lon="4.73212">
        <ele>175</ele>
        <time>2018-08-08T08:19:15Z</time>
      </trkpt>
      <trkpt lat="45.94476" lon="4.73219">
        <ele>175</ele>
        <time>2018-08-08T08:19:16Z</time>
      </trkpt>
      <trkpt lat="45.94477" lon="4.73226">
        <ele>175</ele>
        <time>2018-08-08T08:19:17Z</time>
      </trkpt>
      <trkpt lat="45.94479" lon="4.73232">
        <ele>175</ele>
        <time>2018-08-08T08:19:18Z</time>
      </trkpt>
      <trkpt lat="45.94478" lon="4.73238">
        <ele>175</ele>
        <time>2018-08-08T08:19:19Z</time>
      </trkpt>
      <trkpt lat="45.94479" lon="4.73246">
        <ele>175</ele>
        <time>2018-08-08T08:19:20Z</time>
      </trkpt>
      <trkpt lat="45.94478" lon="4.73253">
        <ele>177</ele>
        <time>2018-08-08T08:19:21Z</time>
      </trkpt>
      <trkpt lat="45.9448" lon="4.7326">
        <ele>177</ele>
        <time>2018-08-08T08:19:22Z</time>
      </trkpt>
      <trkpt lat="45.94482" lon="4.73267">
        <ele>177</ele>
        <time>2018-08-08T08:19:23Z</time>
      </trkpt>
      <trkpt lat="45.94482" lon="4.73275">
        <ele>177</ele>
        <time>2018-08-08T08:19:24Z</time>
      </trkpt>
      <trkpt lat="45.94482" lon="4.73281">
        <ele>177</ele>
        <time>2018-08-08T08:19:25Z</time>
      </trkpt>
      <trkpt lat="45.94483" lon="4.73288">
        <ele>177</ele>
        <time>2018-08-08T08:19:26Z</time>
      </trkpt>
      <trkpt lat="45.94485" lon="4.73301">
        <ele>177</ele>
        <time>2018-08-08T08:19:28Z</time>
      </trkpt>
      <trkpt lat="45.94487" lon="4.73307">
        <ele>177</ele>
        <time>2018-08-08T08:19:29Z</time>
      </trkpt>
      <trkpt lat="45.94488" lon="4.73318">
        <ele>177</ele>
        <time>2018-08-08T08:19:31Z</time>
      </trkpt>
      <trkpt lat="45.94489" lon="4.73325">
        <ele>177</ele>
        <time>2018-08-08T08:19:32Z</time>
      </trkpt>
      <trkpt lat="45.94491" lon="4.73336">
        <ele>178</ele>
        <time>2018-08-08T08:19:34Z</time>
      </trkpt>
      <trkpt lat="45.94491" lon="4.73343">
        <ele>178</ele>
        <time>2018-08-08T08:19:35Z</time>
      </trkpt>
      <trkpt lat="45.94492" lon="4.73354">
        <ele>178</ele>
        <time>2018-08-08T08:19:37Z</time>
      </trkpt>
      <trkpt lat="45.94493" lon="4.7336">
        <ele>179</ele>
        <time>2018-08-08T08:19:38Z</time>
      </trkpt>
      <trkpt lat="45.94494" lon="4.73372">
        <ele>179</ele>
        <time>2018-08-08T08:19:40Z</time>
      </trkpt>
      <trkpt lat="45.94495" lon="4.73378">
        <ele>179</ele>
        <time>2018-08-08T08:19:41Z</time>
      </trkpt>
      <trkpt lat="45.94496" lon="4.73389">
        <ele>179</ele>
        <time>2018-08-08T08:19:43Z</time>
      </trkpt>
      <trkpt lat="45.94497" lon="4.73395">
        <ele>179</ele>
        <time>2018-08-08T08:19:44Z</time>
      </trkpt>
      <trkpt lat="45.94498" lon="4.73407">
        <ele>180</ele>
        <time>2018-08-08T08:19:46Z</time>
      </trkpt>
      <trkpt lat="45.94498" lon="4.73412">
        <ele>180</ele>
        <time>2018-08-08T08:19:47Z</time>
      </trkpt>
      <trkpt lat="45.94498" lon="4.7342">
        <ele>180</ele>
        <time>2018-08-08T08:19:49Z</time>
      </trkpt>
      <trkpt lat="45.94498" lon="4.73428">
        <ele>181</ele>
        <time>2018-08-08T08:19:50Z</time>
      </trkpt>
      <trkpt lat="45.94498" lon="4.7344">
        <ele>181</ele>
        <time>2018-08-08T08:19:53Z</time>
      </trkpt>
      <trkpt lat="45.94498" lon="4.73443">
        <ele>181</ele>
        <time>2018-08-08T08:19:54Z</time>
      </trkpt>
      <trkpt lat="45.945" lon="4.73451">
        <ele>182</ele>
        <time>2018-08-08T08:19:56Z</time>
      </trkpt>
      <trkpt lat="45.94502" lon="4.73463">
        <ele>181</ele>
        <time>2018-08-08T08:19:57Z</time>
      </trkpt>
      <trkpt lat="45.94503" lon="4.73474">
        <ele>182</ele>
        <time>2018-08-08T08:19:59Z</time>
      </trkpt>
      <trkpt lat="45.94503" lon="4.73477">
        <ele>182</ele>
        <time>2018-08-08T08:20:00Z</time>
      </trkpt>
      <trkpt lat="45.94503" lon="4.73485">
        <ele>182</ele>
        <time>2018-08-08T08:20:01Z</time>
      </trkpt>
      <trkpt lat="45.94503" lon="4.73491">
        <ele>182</ele>
        <time>2018-08-08T08:20:02Z</time>
      </trkpt>
      <trkpt lat="45.94501" lon="4.73502">
        <ele>183</ele>
        <time>2018-08-08T08:20:04Z</time>
      </trkpt>
      <trkpt lat="45.94501" lon="4.73508">
        <ele>183</ele>
        <time>2018-08-08T08:20:05Z</time>
      </trkpt>
      <trkpt lat="45.945" lon="4.73516">
        <ele>184</ele>
        <time>2018-08-08T08:20:07Z</time>
      </trkpt>
      <trkpt lat="45.94498" lon="4.73523">
        <ele>184</ele>
        <time>2018-08-08T08:20:08Z</time>
      </trkpt>
      <trkpt lat="45.94496" lon="4.73533">
        <ele>184</ele>
        <time>2018-08-08T08:20:10Z</time>
      </trkpt>
      <trkpt lat="45.94495" lon="4.73541">
        <ele>184</ele>
        <time>2018-08-08T08:20:11Z</time>
      </trkpt>
      <trkpt lat="45.94496" lon="4.73548">
        <ele>185</ele>
        <time>2018-08-08T08:20:12Z</time>
      </trkpt>
      <trkpt lat="45.94495" lon="4.73554">
        <ele>185</ele>
        <time>2018-08-08T08:20:13Z</time>
      </trkpt>
      <trkpt lat="45.94495" lon="4.73567">
        <ele>185</ele>
        <time>2018-08-08T08:20:15Z</time>
      </trkpt>
      <trkpt lat="45.94495" lon="4.73574">
        <ele>185</ele>
        <time>2018-08-08T08:20:16Z</time>
      </trkpt>
      <trkpt lat="45.94495" lon="4.73581">
        <ele>185</ele>
        <time>2018-08-08T08:20:17Z</time>
      </trkpt>
      <trkpt lat="45.94495" lon="4.73588">
        <ele>185</ele>
        <time>2018-08-08T08:20:18Z</time>
      </trkpt>
      <trkpt lat="45.94495" lon="4.73594">
        <ele>185</ele>
        <time>2018-08-08T08:20:19Z</time>
      </trkpt>
      <trkpt lat="45.94494" lon="4.73602">
        <ele>185</ele>
        <time>2018-08-08T08:20:20Z</time>
      </trkpt>
      <trkpt lat="45.94495" lon="4.73609">
        <ele>186</ele>
        <time>2018-08-08T08:20:21Z</time>
      </trkpt>
      <trkpt lat="45.94495" lon="4.73617">
        <ele>186</ele>
        <time>2018-08-08T08:20:22Z</time>
      </trkpt>
      <trkpt lat="45.94494" lon="4.73623">
        <ele>186</ele>
        <time>2018-08-08T08:20:23Z</time>
      </trkpt>
      <trkpt lat="45.94493" lon="4.73629">
        <ele>186</ele>
        <time>2018-08-08T08:20:24Z</time>
      </trkpt>
      <trkpt lat="45.94492" lon="4.73636">
        <ele>186</ele>
        <time>2018-08-08T08:20:25Z</time>
      </trkpt>
      <trkpt lat="45.94491" lon="4.73643">
        <ele>186</ele>
        <time>2018-08-08T08:20:26Z</time>
      </trkpt>
      <trkpt lat="45.9449" lon="4.7365">
        <ele>186</ele>
        <time>2018-08-08T08:20:27Z</time>
      </trkpt>
      <trkpt lat="45.94489" lon="4.73657">
        <ele>185</ele>
        <time>2018-08-08T08:20:28Z</time>
      </trkpt>
      <trkpt lat="45.94488" lon="4.73664">
        <ele>185</ele>
        <time>2018-08-08T08:20:29Z</time>
      </trkpt>
      <trkpt lat="45.94488" lon="4.73671">
        <ele>185</ele>
        <time>2018-08-08T08:20:30Z</time>
      </trkpt>
      <trkpt lat="45.94486" lon="4.73677">
        <ele>186</ele>
        <time>2018-08-08T08:20:31Z</time>
      </trkpt>
      <trkpt lat="45.94486" lon="4.73684">
        <ele>186</ele>
        <time>2018-08-08T08:20:32Z</time>
      </trkpt>
      <trkpt lat="45.94486" lon="4.7369">
        <ele>186</ele>
        <time>2018-08-08T08:20:33Z</time>
      </trkpt>
      <trkpt lat="45.94486" lon="4.73697">
        <ele>186</ele>
        <time>2018-08-08T08:20:34Z</time>
      </trkpt>
      <trkpt lat="45.94485" lon="4.73705">
        <ele>186</ele>
        <time>2018-08-08T08:20:35Z</time>
      </trkpt>
      <trkpt lat="45.94484" lon="4.73711">
        <ele>186</ele>
        <time>2018-08-08T08:20:36Z</time>
      </trkpt>
      <trkpt lat="45.94484" lon="4.73718">
        <ele>186</ele>
        <time>2018-08-08T08:20:37Z</time>
      </trkpt>
      <trkpt lat="45.94483" lon="4.73725">
        <ele>186</ele>
        <time>2018-08-08T08:20:38Z</time>
      </trkpt>
      <trkpt lat="45.94482" lon="4.73731">
        <ele>186</ele>
        <time>2018-08-08T08:20:39Z</time>
      </trkpt>
      <trkpt lat="45.94481" lon="4.73738">
        <ele>186</ele>
        <time>2018-08-08T08:20:40Z</time>
      </trkpt>
      <trkpt lat="45.94479" lon="4.73751">
        <ele>186</ele>
        <time>2018-08-08T08:20:42Z</time>
      </trkpt>
      <trkpt lat="45.94478" lon="4.73756">
        <ele>186</ele>
        <time>2018-08-08T08:20:43Z</time>
      </trkpt>
      <trkpt lat="45.94478" lon="4.73767">
        <ele>186</ele>
        <time>2018-08-08T08:20:46Z</time>
      </trkpt>
      <trkpt lat="45.94481" lon="4.73775">
        <ele>186</ele>
        <time>2018-08-08T08:20:47Z</time>
      </trkpt>
      <trkpt lat="45.94488" lon="4.73778">
        <ele>186</ele>
        <time>2018-08-08T08:20:49Z</time>
      </trkpt>
      <trkpt lat="45.94492" lon="4.73781">
        <ele>186</ele>
        <time>2018-08-08T08:20:50Z</time>
      </trkpt>
      <trkpt lat="45.94499" lon="4.73788">
        <ele>186</ele>
        <time>2018-08-08T08:20:52Z</time>
      </trkpt>
      <trkpt lat="45.94502" lon="4.7379">
        <ele>186</ele>
        <time>2018-08-08T08:20:53Z</time>
      </trkpt>
      <trkpt lat="45.94505" lon="4.73795">
        <ele>186</ele>
        <time>2018-08-08T08:20:54Z</time>
      </trkpt>
      <trkpt lat="45.94509" lon="4.73799">
        <ele>186</ele>
        <time>2018-08-08T08:20:55Z</time>
      </trkpt>
      <trkpt lat="45.94513" lon="4.73802">
        <ele>186</ele>
        <time>2018-08-08T08:20:56Z</time>
      </trkpt>
      <trkpt lat="45.94517" lon="4.73807">
        <ele>186</ele>
        <time>2018-08-08T08:20:57Z</time>
      </trkpt>
      <trkpt lat="45.9452" lon="4.73812">
        <ele>186</ele>
        <time>2018-08-08T08:20:58Z</time>
      </trkpt>
      <trkpt lat="45.94524" lon="4.73816">
        <ele>186</ele>
        <time>2018-08-08T08:20:59Z</time>
      </trkpt>
      <trkpt lat="45.94532" lon="4.73822">
        <ele>186</ele>
        <time>2018-08-08T08:21:01Z</time>
      </trkpt>
      <trkpt lat="45.94535" lon="4.73825">
        <ele>186</ele>
        <time>2018-08-08T08:21:02Z</time>
      </trkpt>
      <trkpt lat="45.94539" lon="4.73829">
        <ele>186</ele>
        <time>2018-08-08T08:21:03Z</time>
      </trkpt>
      <trkpt lat="45.94543" lon="4.73832">
        <ele>186</ele>
        <time>2018-08-08T08:21:04Z</time>
      </trkpt>
      <trkpt lat="45.94547" lon="4.73837">
        <ele>186</ele>
        <time>2018-08-08T08:21:05Z</time>
      </trkpt>
      <trkpt lat="45.94551" lon="4.73841">
        <ele>186</ele>
        <time>2018-08-08T08:21:06Z</time>
      </trkpt>
      <trkpt lat="45.94558" lon="4.73847">
        <ele>186</ele>
        <time>2018-08-08T08:21:08Z</time>
      </trkpt>
      <trkpt lat="45.94562" lon="4.73852">
        <ele>186</ele>
        <time>2018-08-08T08:21:09Z</time>
      </trkpt>
      <trkpt lat="45.94566" lon="4.73856">
        <ele>186</ele>
        <time>2018-08-08T08:21:10Z</time>
      </trkpt>
      <trkpt lat="45.9457" lon="4.73859">
        <ele>186</ele>
        <time>2018-08-08T08:21:11Z</time>
      </trkpt>
      <trkpt lat="45.94573" lon="4.73864">
        <ele>186</ele>
        <time>2018-08-08T08:21:12Z</time>
      </trkpt>
      <trkpt lat="45.94577" lon="4.73868">
        <ele>186</ele>
        <time>2018-08-08T08:21:13Z</time>
      </trkpt>
      <trkpt lat="45.94581" lon="4.73873">
        <ele>186</ele>
        <time>2018-08-08T08:21:14Z</time>
      </trkpt>
      <trkpt lat="45.94584" lon="4.73878">
        <ele>187</ele>
        <time>2018-08-08T08:21:15Z</time>
      </trkpt>
      <trkpt lat="45.94588" lon="4.73882">
        <ele>187</ele>
        <time>2018-08-08T08:21:16Z</time>
      </trkpt>
      <trkpt lat="45.94592" lon="4.73886">
        <ele>187</ele>
        <time>2018-08-08T08:21:17Z</time>
      </trkpt>
      <trkpt lat="45.94597" lon="4.73891">
        <ele>187</ele>
        <time>2018-08-08T08:21:18Z</time>
      </trkpt>
      <trkpt lat="45.946" lon="4.73896">
        <ele>187</ele>
        <time>2018-08-08T08:21:19Z</time>
      </trkpt>
      <trkpt lat="45.94603" lon="4.739">
        <ele>187</ele>
        <time>2018-08-08T08:21:20Z</time>
      </trkpt>
      <trkpt lat="45.94607" lon="4.73905">
        <ele>187</ele>
        <time>2018-08-08T08:21:21Z</time>
      </trkpt>
      <trkpt lat="45.9461" lon="4.73909">
        <ele>187</ele>
        <time>2018-08-08T08:21:22Z</time>
      </trkpt>
      <trkpt lat="45.94614" lon="4.73913">
        <ele>187</ele>
        <time>2018-08-08T08:21:23Z</time>
      </trkpt>
      <trkpt lat="45.94617" lon="4.73917">
        <ele>187</ele>
        <time>2018-08-08T08:21:24Z</time>
      </trkpt>
      <trkpt lat="45.94621" lon="4.73922">
        <ele>187</ele>
        <time>2018-08-08T08:21:25Z</time>
      </trkpt>
      <trkpt lat="45.94624" lon="4.73926">
        <ele>187</ele>
        <time>2018-08-08T08:21:26Z</time>
      </trkpt>
      <trkpt lat="45.94627" lon="4.73931">
        <ele>187</ele>
        <time>2018-08-08T08:21:27Z</time>
      </trkpt>
      <trkpt lat="45.94631" lon="4.73934">
        <ele>187</ele>
        <time>2018-08-08T08:21:28Z</time>
      </trkpt>
      <trkpt lat="45.94634" lon="4.73939">
        <ele>187</ele>
        <time>2018-08-08T08:21:29Z</time>
      </trkpt>
      <trkpt lat="45.94638" lon="4.73944">
        <ele>187</ele>
        <time>2018-08-08T08:21:30Z</time>
      </trkpt>
      <trkpt lat="45.94642" lon="4.73947">
        <ele>187</ele>
        <time>2018-08-08T08:21:31Z</time>
      </trkpt>
      <trkpt lat="45.94648" lon="4.73955">
        <ele>187</ele>
        <time>2018-08-08T08:21:33Z</time>
      </trkpt>
      <trkpt lat="45.94652" lon="4.73959">
        <ele>187</ele>
        <time>2018-08-08T08:21:34Z</time>
      </trkpt>
      <trkpt lat="45.94655" lon="4.73964">
        <ele>187</ele>
        <time>2018-08-08T08:21:35Z</time>
      </trkpt>
      <trkpt lat="45.94659" lon="4.73969">
        <ele>187</ele>
        <time>2018-08-08T08:21:36Z</time>
      </trkpt>
      <trkpt lat="45.94663" lon="4.73972">
        <ele>187</ele>
        <time>2018-08-08T08:21:37Z</time>
      </trkpt>
      <trkpt lat="45.94667" lon="4.73977">
        <ele>187</ele>
        <time>2018-08-08T08:21:38Z</time>
      </trkpt>
      <trkpt lat="45.9467" lon="4.73983">
        <ele>187</ele>
        <time>2018-08-08T08:21:39Z</time>
      </trkpt>
      <trkpt lat="45.94674" lon="4.73988">
        <ele>187</ele>
        <time>2018-08-08T08:21:40Z</time>
      </trkpt>
      <trkpt lat="45.94678" lon="4.73994">
        <ele>187</ele>
        <time>2018-08-08T08:21:41Z</time>
      </trkpt>
      <trkpt lat="45.94681" lon="4.73999">
        <ele>187</ele>
        <time>2018-08-08T08:21:42Z</time>
      </trkpt>
      <trkpt lat="45.94685" lon="4.74004">
        <ele>187</ele>
        <time>2018-08-08T08:21:43Z</time>
      </trkpt>
      <trkpt lat="45.94688" lon="4.74009">
        <ele>187</ele>
        <time>2018-08-08T08:21:44Z</time>
      </trkpt>
      <trkpt lat="45.94694" lon="4.74015">
        <ele>187</ele>
        <time>2018-08-08T08:21:46Z</time>
      </trkpt>
      <trkpt lat="45.94697" lon="4.7402">
        <ele>187</ele>
        <time>2018-08-08T08:21:47Z</time>
      </trkpt>
      <trkpt lat="45.94701" lon="4.74025">
        <ele>187</ele>
        <time>2018-08-08T08:21:48Z</time>
      </trkpt>
      <trkpt lat="45.94704" lon="4.7403">
        <ele>187</ele>
        <time>2018-08-08T08:21:49Z</time>
      </trkpt>
      <trkpt lat="45.94707" lon="4.74034">
        <ele>187</ele>
        <time>2018-08-08T08:21:50Z</time>
      </trkpt>
      <trkpt lat="45.94711" lon="4.74037">
        <ele>187</ele>
        <time>2018-08-08T08:21:51Z</time>
      </trkpt>
      <trkpt lat="45.94715" lon="4.74041">
        <ele>187</ele>
        <time>2018-08-08T08:21:52Z</time>
      </trkpt>
      <trkpt lat="45.94718" lon="4.74049">
        <ele>187</ele>
        <time>2018-08-08T08:21:53Z</time>
      </trkpt>
      <trkpt lat="45.94722" lon="4.74054">
        <ele>187</ele>
        <time>2018-08-08T08:21:54Z</time>
      </trkpt>
      <trkpt lat="45.94725" lon="4.74059">
        <ele>188</ele>
        <time>2018-08-08T08:21:55Z</time>
      </trkpt>
      <trkpt lat="45.94729" lon="4.74064">
        <ele>188</ele>
        <time>2018-08-08T08:21:56Z</time>
      </trkpt>
      <trkpt lat="45.94733" lon="4.74068">
        <ele>188</ele>
        <time>2018-08-08T08:21:57Z</time>
      </trkpt>
      <trkpt lat="45.94737" lon="4.74073">
        <ele>188</ele>
        <time>2018-08-08T08:21:58Z</time>
      </trkpt>
      <trkpt lat="45.9474" lon="4.74078">
        <ele>188</ele>
        <time>2018-08-08T08:21:59Z</time>
      </trkpt>
      <trkpt lat="45.94744" lon="4.74083">
        <ele>189</ele>
        <time>2018-08-08T08:22:00Z</time>
      </trkpt>
      <trkpt lat="45.94748" lon="4.74089">
        <ele>188</ele>
        <time>2018-08-08T08:22:01Z</time>
      </trkpt>
      <trkpt lat="45.94752" lon="4.74093">
        <ele>189</ele>
        <time>2018-08-08T08:22:02Z</time>
      </trkpt>
      <trkpt lat="45.94756" lon="4.74099">
        <ele>189</ele>
        <time>2018-08-08T08:22:03Z</time>
      </trkpt>
      <trkpt lat="45.9476" lon="4.74104">
        <ele>189</ele>
        <time>2018-08-08T08:22:04Z</time>
      </trkpt>
      <trkpt lat="45.94763" lon="4.7411">
        <ele>189</ele>
        <time>2018-08-08T08:22:05Z</time>
      </trkpt>
      <trkpt lat="45.94767" lon="4.74116">
        <ele>189</ele>
        <time>2018-08-08T08:22:06Z</time>
      </trkpt>
      <trkpt lat="45.94771" lon="4.7412">
        <ele>189</ele>
        <time>2018-08-08T08:22:07Z</time>
      </trkpt>
      <trkpt lat="45.94775" lon="4.74127">
        <ele>189</ele>
        <time>2018-08-08T08:22:08Z</time>
      </trkpt>
      <trkpt lat="45.94777" lon="4.74131">
        <ele>189</ele>
        <time>2018-08-08T08:22:09Z</time>
      </trkpt>
      <trkpt lat="45.94783" lon="4.7414">
        <ele>189</ele>
        <time>2018-08-08T08:22:11Z</time>
      </trkpt>
      <trkpt lat="45.94786" lon="4.74144">
        <ele>189</ele>
        <time>2018-08-08T08:22:12Z</time>
      </trkpt>
      <trkpt lat="45.94792" lon="4.74153">
        <ele>189</ele>
        <time>2018-08-08T08:22:14Z</time>
      </trkpt>
      <trkpt lat="45.94797" lon="4.74158">
        <ele>189</ele>
        <time>2018-08-08T08:22:15Z</time>
      </trkpt>
      <trkpt lat="45.948" lon="4.74165">
        <ele>189</ele>
        <time>2018-08-08T08:22:16Z</time>
      </trkpt>
      <trkpt lat="45.94803" lon="4.74172">
        <ele>189</ele>
        <time>2018-08-08T08:22:17Z</time>
      </trkpt>
      <trkpt lat="45.94807" lon="4.74177">
        <ele>189</ele>
        <time>2018-08-08T08:22:18Z</time>
      </trkpt>
      <trkpt lat="45.94811" lon="4.74183">
        <ele>189</ele>
        <time>2018-08-08T08:22:19Z</time>
      </trkpt>
      <trkpt lat="45.94815" lon="4.74188">
        <ele>189</ele>
        <time>2018-08-08T08:22:20Z</time>
      </trkpt>
      <trkpt lat="45.94819" lon="4.74195">
        <ele>189</ele>
        <time>2018-08-08T08:22:21Z</time>
      </trkpt>
      <trkpt lat="45.94822" lon="4.742">
        <ele>189</ele>
        <time>2018-08-08T08:22:22Z</time>
      </trkpt>
      <trkpt lat="45.94826" lon="4.74207">
        <ele>189</ele>
        <time>2018-08-08T08:22:23Z</time>
      </trkpt>
      <trkpt lat="45.94829" lon="4.74213">
        <ele>188</ele>
        <time>2018-08-08T08:22:24Z</time>
      </trkpt>
      <trkpt lat="45.94832" lon="4.74219">
        <ele>188</ele>
        <time>2018-08-08T08:22:25Z</time>
      </trkpt>
      <trkpt lat="45.94836" lon="4.74227">
        <ele>190</ele>
        <time>2018-08-08T08:22:26Z</time>
      </trkpt>
      <trkpt lat="45.94837" lon="4.74233">
        <ele>190</ele>
        <time>2018-08-08T08:22:27Z</time>
      </trkpt>
      <trkpt lat="45.9484" lon="4.74239">
        <ele>190</ele>
        <time>2018-08-08T08:22:28Z</time>
      </trkpt>
      <trkpt lat="45.94844" lon="4.74245">
        <ele>190</ele>
        <time>2018-08-08T08:22:29Z</time>
      </trkpt>
      <trkpt lat="45.94847" lon="4.7425">
        <ele>190</ele>
        <time>2018-08-08T08:22:30Z</time>
      </trkpt>
      <trkpt lat="45.94851" lon="4.74257">
        <ele>190</ele>
        <time>2018-08-08T08:22:31Z</time>
      </trkpt>
      <trkpt lat="45.94854" lon="4.74263">
        <ele>190</ele>
        <time>2018-08-08T08:22:32Z</time>
      </trkpt>
      <trkpt lat="45.94857" lon="4.74269">
        <ele>190</ele>
        <time>2018-08-08T08:22:33Z</time>
      </trkpt>
      <trkpt lat="45.9486" lon="4.74275">
        <ele>190</ele>
        <time>2018-08-08T08:22:34Z</time>
      </trkpt>
      <trkpt lat="45.94863" lon="4.7428">
        <ele>191</ele>
        <time>2018-08-08T08:22:35Z</time>
      </trkpt>
      <trkpt lat="45.94868" lon="4.74291">
        <ele>191</ele>
        <time>2018-08-08T08:22:37Z</time>
      </trkpt>
      <trkpt lat="45.9487" lon="4.74296">
        <ele>191</ele>
        <time>2018-08-08T08:22:38Z</time>
      </trkpt>
      <trkpt lat="45.94876" lon="4.74305">
        <ele>191</ele>
        <time>2018-08-08T08:22:40Z</time>
      </trkpt>
      <trkpt lat="45.94878" lon="4.74311">
        <ele>191</ele>
        <time>2018-08-08T08:22:41Z</time>
      </trkpt>
      <trkpt lat="45.94881" lon="4.74316">
        <ele>191</ele>
        <time>2018-08-08T08:22:42Z</time>
      </trkpt>
      <trkpt lat="45.94883" lon="4.74322">
        <ele>191</ele>
        <time>2018-08-08T08:22:43Z</time>
      </trkpt>
      <trkpt lat="45.94885" lon="4.74327">
        <ele>191</ele>
        <time>2018-08-08T08:22:44Z</time>
      </trkpt>
      <trkpt lat="45.94888" lon="4.74333">
        <ele>191</ele>
        <time>2018-08-08T08:22:45Z</time>
      </trkpt>
      <trkpt lat="45.94891" lon="4.74339">
        <ele>191</ele>
        <time>2018-08-08T08:22:46Z</time>
      </trkpt>
      <trkpt lat="45.94893" lon="4.74344">
        <ele>191</ele>
        <time>2018-08-08T08:22:47Z</time>
      </trkpt>
      <trkpt lat="45.94896" lon="4.74349">
        <ele>191</ele>
        <time>2018-08-08T08:22:48Z</time>
      </trkpt>
      <trkpt lat="45.94899" lon="4.74354">
        <ele>191</ele>
        <time>2018-08-08T08:22:49Z</time>
      </trkpt>
      <trkpt lat="45.94903" lon="4.74359">
        <ele>191</ele>
        <time>2018-08-08T08:22:50Z</time>
      </trkpt>
      <trkpt lat="45.94906" lon="4.74364">
        <ele>191</ele>
        <time>2018-08-08T08:22:51Z</time>
      </trkpt>
      <trkpt lat="45.94909" lon="4.74369">
        <ele>191</ele>
        <time>2018-08-08T08:22:52Z</time>
      </trkpt>
      <trkpt lat="45.94913" lon="4.74374">
        <ele>191</ele>
        <time>2018-08-08T08:22:53Z</time>
      </trkpt>
      <trkpt lat="45.94916" lon="4.74379">
        <ele>191</ele>
        <time>2018-08-08T08:22:54Z</time>
      </trkpt>
      <trkpt lat="45.94918" lon="4.74385">
        <ele>192</ele>
        <time>2018-08-08T08:22:55Z</time>
      </trkpt>
      <trkpt lat="45.94921" lon="4.7439">
        <ele>192</ele>
        <time>2018-08-08T08:22:56Z</time>
      </trkpt>
      <trkpt lat="45.94924" lon="4.74395">
        <ele>192</ele>
        <time>2018-08-08T08:22:57Z</time>
      </trkpt>
      <trkpt lat="45.94927" lon="4.744">
        <ele>192</ele>
        <time>2018-08-08T08:22:58Z</time>
      </trkpt>
      <trkpt lat="45.9493" lon="4.74405">
        <ele>192</ele>
        <time>2018-08-08T08:22:59Z</time>
      </trkpt>
      <trkpt lat="45.94933" lon="4.74411">
        <ele>192</ele>
        <time>2018-08-08T08:23:00Z</time>
      </trkpt>
      <trkpt lat="45.94936" lon="4.74417">
        <ele>192</ele>
        <time>2018-08-08T08:23:01Z</time>
      </trkpt>
      <trkpt lat="45.94939" lon="4.74421">
        <ele>192</ele>
        <time>2018-08-08T08:23:02Z</time>
      </trkpt>
      <trkpt lat="45.94942" lon="4.74426">
        <ele>192</ele>
        <time>2018-08-08T08:23:03Z</time>
      </trkpt>
      <trkpt lat="45.94947" lon="4.74437">
        <ele>192</ele>
        <time>2018-08-08T08:23:05Z</time>
      </trkpt>
      <trkpt lat="45.94949" lon="4.74442">
        <ele>192</ele>
        <time>2018-08-08T08:23:06Z</time>
      </trkpt>
      <trkpt lat="45.94954" lon="4.74452">
        <ele>192</ele>
        <time>2018-08-08T08:23:08Z</time>
      </trkpt>
      <trkpt lat="45.94957" lon="4.74458">
        <ele>192</ele>
        <time>2018-08-08T08:23:09Z</time>
      </trkpt>
      <trkpt lat="45.9496" lon="4.74463">
        <ele>193</ele>
        <time>2018-08-08T08:23:10Z</time>
      </trkpt>
      <trkpt lat="45.94962" lon="4.74469">
        <ele>193</ele>
        <time>2018-08-08T08:23:11Z</time>
      </trkpt>
      <trkpt lat="45.94964" lon="4.74475">
        <ele>193</ele>
        <time>2018-08-08T08:23:12Z</time>
      </trkpt>
      <trkpt lat="45.94967" lon="4.7448">
        <ele>193</ele>
        <time>2018-08-08T08:23:13Z</time>
      </trkpt>
      <trkpt lat="45.94969" lon="4.74486">
        <ele>193</ele>
        <time>2018-08-08T08:23:14Z</time>
      </trkpt>
      <trkpt lat="45.94972" lon="4.74491">
        <ele>193</ele>
        <time>2018-08-08T08:23:15Z</time>
      </trkpt>
      <trkpt lat="45.94977" lon="4.745">
        <ele>193</ele>
        <time>2018-08-08T08:23:17Z</time>
      </trkpt>
      <trkpt lat="45.9498" lon="4.74505">
        <ele>193</ele>
        <time>2018-08-08T08:23:18Z</time>
      </trkpt>
      <trkpt lat="45.94985" lon="4.74514">
        <ele>193</ele>
        <time>2018-08-08T08:23:20Z</time>
      </trkpt>
      <trkpt lat="45.94987" lon="4.74518">
        <ele>193</ele>
        <time>2018-08-08T08:23:21Z</time>
      </trkpt>
      <trkpt lat="45.94992" lon="4.74528">
        <ele>193</ele>
        <time>2018-08-08T08:23:23Z</time>
      </trkpt>
      <trkpt lat="45.94994" lon="4.74533">
        <ele>193</ele>
        <time>2018-08-08T08:23:24Z</time>
      </trkpt>
      <trkpt lat="45.94997" lon="4.74538">
        <ele>193</ele>
        <time>2018-08-08T08:23:25Z</time>
      </trkpt>
      <trkpt lat="45.95" lon="4.74543">
        <ele>194</ele>
        <time>2018-08-08T08:23:26Z</time>
      </trkpt>
      <trkpt lat="45.95005" lon="4.74553">
        <ele>194</ele>
        <time>2018-08-08T08:23:28Z</time>
      </trkpt>
      <trkpt lat="45.95008" lon="4.74558">
        <ele>194</ele>
        <time>2018-08-08T08:23:29Z</time>
      </trkpt>
      <trkpt lat="45.95013" lon="4.74568">
        <ele>194</ele>
        <time>2018-08-08T08:23:31Z</time>
      </trkpt>
      <trkpt lat="45.95015" lon="4.74573">
        <ele>194</ele>
        <time>2018-08-08T08:23:32Z</time>
      </trkpt>
      <trkpt lat="45.95019" lon="4.74583">
        <ele>194</ele>
        <time>2018-08-08T08:23:34Z</time>
      </trkpt>
      <trkpt lat="45.95022" lon="4.74588">
        <ele>194</ele>
        <time>2018-08-08T08:23:35Z</time>
      </trkpt>
      <trkpt lat="45.95026" lon="4.74598">
        <ele>194</ele>
        <time>2018-08-08T08:23:37Z</time>
      </trkpt>
      <trkpt lat="45.95028" lon="4.74604">
        <ele>194</ele>
        <time>2018-08-08T08:23:38Z</time>
      </trkpt>
      <trkpt lat="45.95033" lon="4.7461">
        <ele>194</ele>
        <time>2018-08-08T08:23:39Z</time>
      </trkpt>
      <trkpt lat="45.95036" lon="4.74616">
        <ele>194</ele>
        <time>2018-08-08T08:23:40Z</time>
      </trkpt>
      <trkpt lat="45.95039" lon="4.74621">
        <ele>194</ele>
        <time>2018-08-08T08:23:41Z</time>
      </trkpt>
      <trkpt lat="45.95042" lon="4.74627">
        <ele>194</ele>
        <time>2018-08-08T08:23:42Z</time>
      </trkpt>
      <trkpt lat="45.95046" lon="4.74632">
        <ele>194</ele>
        <time>2018-08-08T08:23:43Z</time>
      </trkpt>
      <trkpt lat="45.95049" lon="4.74639">
        <ele>194</ele>
        <time>2018-08-08T08:23:44Z</time>
      </trkpt>
      <trkpt lat="45.95053" lon="4.74645">
        <ele>194</ele>
        <time>2018-08-08T08:23:45Z</time>
      </trkpt>
      <trkpt lat="45.95057" lon="4.74651">
        <ele>194</ele>
        <time>2018-08-08T08:23:46Z</time>
      </trkpt>
      <trkpt lat="45.9506" lon="4.74658">
        <ele>194</ele>
        <time>2018-08-08T08:23:47Z</time>
      </trkpt>
      <trkpt lat="45.95063" lon="4.74664">
        <ele>195</ele>
        <time>2018-08-08T08:23:48Z</time>
      </trkpt>
      <trkpt lat="45.95067" lon="4.7467">
        <ele>194</ele>
        <time>2018-08-08T08:23:49Z</time>
      </trkpt>
      <trkpt lat="45.9507" lon="4.74676">
        <ele>194</ele>
        <time>2018-08-08T08:23:50Z</time>
      </trkpt>
      <trkpt lat="45.95073" lon="4.74682">
        <ele>194</ele>
        <time>2018-08-08T08:23:51Z</time>
      </trkpt>
      <trkpt lat="45.95076" lon="4.74688">
        <ele>194</ele>
        <time>2018-08-08T08:23:52Z</time>
      </trkpt>
      <trkpt lat="45.95081" lon="4.74697">
        <ele>194</ele>
        <time>2018-08-08T08:23:54Z</time>
      </trkpt>
      <trkpt lat="45.95084" lon="4.74704">
        <ele>194</ele>
        <time>2018-08-08T08:23:55Z</time>
      </trkpt>
      <trkpt lat="45.95087" lon="4.7471">
        <ele>194</ele>
        <time>2018-08-08T08:23:56Z</time>
      </trkpt>
      <trkpt lat="45.95091" lon="4.74716">
        <ele>194</ele>
        <time>2018-08-08T08:23:57Z</time>
      </trkpt>
      <trkpt lat="45.95094" lon="4.74721">
        <ele>194</ele>
        <time>2018-08-08T08:23:58Z</time>
      </trkpt>
      <trkpt lat="45.95097" lon="4.74728">
        <ele>194</ele>
        <time>2018-08-08T08:23:59Z</time>
      </trkpt>
      <trkpt lat="45.951" lon="4.74734">
        <ele>194</ele>
        <time>2018-08-08T08:24:00Z</time>
      </trkpt>
      <trkpt lat="45.95103" lon="4.7474">
        <ele>194</ele>
        <time>2018-08-08T08:24:01Z</time>
      </trkpt>
      <trkpt lat="45.95106" lon="4.74744">
        <ele>194</ele>
        <time>2018-08-08T08:24:02Z</time>
      </trkpt>
      <trkpt lat="45.95109" lon="4.7475">
        <ele>194</ele>
        <time>2018-08-08T08:24:03Z</time>
      </trkpt>
      <trkpt lat="45.95112" lon="4.74755">
        <ele>194</ele>
        <time>2018-08-08T08:24:04Z</time>
      </trkpt>
      <trkpt lat="45.95116" lon="4.7476">
        <ele>194</ele>
        <time>2018-08-08T08:24:05Z</time>
      </trkpt>
      <trkpt lat="45.95119" lon="4.74764">
        <ele>194</ele>
        <time>2018-08-08T08:24:06Z</time>
      </trkpt>
      <trkpt lat="45.95122" lon="4.7477">
        <ele>194</ele>
        <time>2018-08-08T08:24:07Z</time>
      </trkpt>
      <trkpt lat="45.95126" lon="4.74775">
        <ele>194</ele>
        <time>2018-08-08T08:24:08Z</time>
      </trkpt>
      <trkpt lat="45.9513" lon="4.74781">
        <ele>194</ele>
        <time>2018-08-08T08:24:09Z</time>
      </trkpt>
      <trkpt lat="45.95134" lon="4.74787">
        <ele>194</ele>
        <time>2018-08-08T08:24:10Z</time>
      </trkpt>
      <trkpt lat="45.95138" lon="4.74794">
        <ele>194</ele>
        <time>2018-08-08T08:24:11Z</time>
      </trkpt>
      <trkpt lat="45.95142" lon="4.748">
        <ele>194</ele>
        <time>2018-08-08T08:24:12Z</time>
      </trkpt>
      <trkpt lat="45.95146" lon="4.74806">
        <ele>194</ele>
        <time>2018-08-08T08:24:13Z</time>
      </trkpt>
      <trkpt lat="45.9515" lon="4.74812">
        <ele>194</ele>
        <time>2018-08-08T08:24:14Z</time>
      </trkpt>
      <trkpt lat="45.95154" lon="4.74817">
        <ele>194</ele>
        <time>2018-08-08T08:24:15Z</time>
      </trkpt>
      <trkpt lat="45.95158" lon="4.74823">
        <ele>194</ele>
        <time>2018-08-08T08:24:16Z</time>
      </trkpt>
      <trkpt lat="45.95161" lon="4.7483">
        <ele>194</ele>
        <time>2018-08-08T08:24:17Z</time>
      </trkpt>
      <trkpt lat="45.95167" lon="4.74839">
        <ele>194</ele>
        <time>2018-08-08T08:24:19Z</time>
      </trkpt>
      <trkpt lat="45.95171" lon="4.74843">
        <ele>194</ele>
        <time>2018-08-08T08:24:20Z</time>
      </trkpt>
      <trkpt lat="45.95174" lon="4.74849">
        <ele>194</ele>
        <time>2018-08-08T08:24:21Z</time>
      </trkpt>
      <trkpt lat="45.95178" lon="4.74854">
        <ele>194</ele>
        <time>2018-08-08T08:24:22Z</time>
      </trkpt>
      <trkpt lat="45.95181" lon="4.7486">
        <ele>194</ele>
        <time>2018-08-08T08:24:23Z</time>
      </trkpt>
      <trkpt lat="45.95185" lon="4.74866">
        <ele>194</ele>
        <time>2018-08-08T08:24:24Z</time>
      </trkpt>
      <trkpt lat="45.95188" lon="4.74872">
        <ele>194</ele>
        <time>2018-08-08T08:24:25Z</time>
      </trkpt>
      <trkpt lat="45.95192" lon="4.74878">
        <ele>194</ele>
        <time>2018-08-08T08:24:26Z</time>
      </trkpt>
      <trkpt lat="45.95195" lon="4.74883">
        <ele>194</ele>
        <time>2018-08-08T08:24:27Z</time>
      </trkpt>
      <trkpt lat="45.95198" lon="4.74889">
        <ele>194</ele>
        <time>2018-08-08T08:24:28Z</time>
      </trkpt>
      <trkpt lat="45.95202" lon="4.74894">
        <ele>194</ele>
        <time>2018-08-08T08:24:29Z</time>
      </trkpt>
      <trkpt lat="45.95205" lon="4.74898">
        <ele>194</ele>
        <time>2018-08-08T08:24:30Z</time>
      </trkpt>
      <trkpt lat="45.95209" lon="4.74904">
        <ele>193</ele>
        <time>2018-08-08T08:24:31Z</time>
      </trkpt>
      <trkpt lat="45.95213" lon="4.74909">
        <ele>193</ele>
        <time>2018-08-08T08:24:32Z</time>
      </trkpt>
      <trkpt lat="45.95216" lon="4.74915">
        <ele>193</ele>
        <time>2018-08-08T08:24:33Z</time>
      </trkpt>
      <trkpt lat="45.95219" lon="4.74921">
        <ele>192</ele>
        <time>2018-08-08T08:24:34Z</time>
      </trkpt>
      <trkpt lat="45.95222" lon="4.74927">
        <ele>192</ele>
        <time>2018-08-08T08:24:35Z</time>
      </trkpt>
      <trkpt lat="45.95226" lon="4.74934">
        <ele>192</ele>
        <time>2018-08-08T08:24:36Z</time>
      </trkpt>
      <trkpt lat="45.9523" lon="4.7494">
        <ele>192</ele>
        <time>2018-08-08T08:24:37Z</time>
      </trkpt>
      <trkpt lat="45.95233" lon="4.74945">
        <ele>192</ele>
        <time>2018-08-08T08:24:38Z</time>
      </trkpt>
      <trkpt lat="45.95236" lon="4.74951">
        <ele>192</ele>
        <time>2018-08-08T08:24:39Z</time>
      </trkpt>
      <trkpt lat="45.9524" lon="4.74955">
        <ele>192</ele>
        <time>2018-08-08T08:24:40Z</time>
      </trkpt>
      <trkpt lat="45.95244" lon="4.7496">
        <ele>191</ele>
        <time>2018-08-08T08:24:41Z</time>
      </trkpt>
      <trkpt lat="45.95248" lon="4.74966">
        <ele>191</ele>
        <time>2018-08-08T08:24:42Z</time>
      </trkpt>
      <trkpt lat="45.95253" lon="4.74971">
        <ele>192</ele>
        <time>2018-08-08T08:24:43Z</time>
      </trkpt>
      <trkpt lat="45.95257" lon="4.74977">
        <ele>192</ele>
        <time>2018-08-08T08:24:44Z</time>
      </trkpt>
      <trkpt lat="45.9526" lon="4.74983">
        <ele>192</ele>
        <time>2018-08-08T08:24:45Z</time>
      </trkpt>
      <trkpt lat="45.95264" lon="4.74988">
        <ele>192</ele>
        <time>2018-08-08T08:24:46Z</time>
      </trkpt>
      <trkpt lat="45.95268" lon="4.74993">
        <ele>192</ele>
        <time>2018-08-08T08:24:47Z</time>
      </trkpt>
      <trkpt lat="45.95271" lon="4.74998">
        <ele>192</ele>
        <time>2018-08-08T08:24:48Z</time>
      </trkpt>
      <trkpt lat="45.95274" lon="4.75004">
        <ele>191</ele>
        <time>2018-08-08T08:24:49Z</time>
      </trkpt>
      <trkpt lat="45.95279" lon="4.75009">
        <ele>191</ele>
        <time>2018-08-08T08:24:50Z</time>
      </trkpt>
      <trkpt lat="45.95282" lon="4.75015">
        <ele>191</ele>
        <time>2018-08-08T08:24:51Z</time>
      </trkpt>
      <trkpt lat="45.95286" lon="4.75022">
        <ele>191</ele>
        <time>2018-08-08T08:24:52Z</time>
      </trkpt>
      <trkpt lat="45.9529" lon="4.75028">
        <ele>191</ele>
        <time>2018-08-08T08:24:53Z</time>
      </trkpt>
      <trkpt lat="45.95294" lon="4.75033">
        <ele>191</ele>
        <time>2018-08-08T08:24:54Z</time>
      </trkpt>
      <trkpt lat="45.95298" lon="4.75038">
        <ele>191</ele>
        <time>2018-08-08T08:24:55Z</time>
      </trkpt>
      <trkpt lat="45.95301" lon="4.75044">
        <ele>191</ele>
        <time>2018-08-08T08:24:56Z</time>
      </trkpt>
      <trkpt lat="45.95305" lon="4.75049">
        <ele>191</ele>
        <time>2018-08-08T08:24:57Z</time>
      </trkpt>
      <trkpt lat="45.95308" lon="4.75055">
        <ele>192</ele>
        <time>2018-08-08T08:24:58Z</time>
      </trkpt>
      <trkpt lat="45.95311" lon="4.7506">
        <ele>192</ele>
        <time>2018-08-08T08:24:59Z</time>
      </trkpt>
      <trkpt lat="45.95314" lon="4.75066">
        <ele>192</ele>
        <time>2018-08-08T08:25:00Z</time>
      </trkpt>
      <trkpt lat="45.95318" lon="4.75072">
        <ele>192</ele>
        <time>2018-08-08T08:25:01Z</time>
      </trkpt>
      <trkpt lat="45.95321" lon="4.75077">
        <ele>192</ele>
        <time>2018-08-08T08:25:02Z</time>
      </trkpt>
      <trkpt lat="45.95323" lon="4.75083">
        <ele>192</ele>
        <time>2018-08-08T08:25:03Z</time>
      </trkpt>
      <trkpt lat="45.95326" lon="4.7509">
        <ele>191</ele>
        <time>2018-08-08T08:25:04Z</time>
      </trkpt>
      <trkpt lat="45.95329" lon="4.75095">
        <ele>191</ele>
        <time>2018-08-08T08:25:05Z</time>
      </trkpt>
      <trkpt lat="45.95334" lon="4.75102">
        <ele>192</ele>
        <time>2018-08-08T08:25:06Z</time>
      </trkpt>
      <trkpt lat="45.95337" lon="4.75106">
        <ele>192</ele>
        <time>2018-08-08T08:25:07Z</time>
      </trkpt>
      <trkpt lat="45.95341" lon="4.75112">
        <ele>192</ele>
        <time>2018-08-08T08:25:08Z</time>
      </trkpt>
      <trkpt lat="45.95344" lon="4.75117">
        <ele>191</ele>
        <time>2018-08-08T08:25:09Z</time>
      </trkpt>
      <trkpt lat="45.95349" lon="4.75123">
        <ele>191</ele>
        <time>2018-08-08T08:25:10Z</time>
      </trkpt>
      <trkpt lat="45.95351" lon="4.75128">
        <ele>191</ele>
        <time>2018-08-08T08:25:11Z</time>
      </trkpt>
      <trkpt lat="45.95355" lon="4.75133">
        <ele>191</ele>
        <time>2018-08-08T08:25:12Z</time>
      </trkpt>
      <trkpt lat="45.95358" lon="4.75139">
        <ele>191</ele>
        <time>2018-08-08T08:25:13Z</time>
      </trkpt>
      <trkpt lat="45.95361" lon="4.75144">
        <ele>191</ele>
        <time>2018-08-08T08:25:14Z</time>
      </trkpt>
      <trkpt lat="45.95364" lon="4.7515">
        <ele>191</ele>
        <time>2018-08-08T08:25:15Z</time>
      </trkpt>
      <trkpt lat="45.95368" lon="4.75155">
        <ele>191</ele>
        <time>2018-08-08T08:25:16Z</time>
      </trkpt>
      <trkpt lat="45.95371" lon="4.75161">
        <ele>191</ele>
        <time>2018-08-08T08:25:17Z</time>
      </trkpt>
      <trkpt lat="45.95375" lon="4.75167">
        <ele>189</ele>
        <time>2018-08-08T08:25:18Z</time>
      </trkpt>
      <trkpt lat="45.95379" lon="4.75172">
        <ele>189</ele>
        <time>2018-08-08T08:25:19Z</time>
      </trkpt>
      <trkpt lat="45.95383" lon="4.75178">
        <ele>189</ele>
        <time>2018-08-08T08:25:20Z</time>
      </trkpt>
      <trkpt lat="45.95386" lon="4.75184">
        <ele>189</ele>
        <time>2018-08-08T08:25:21Z</time>
      </trkpt>
      <trkpt lat="45.9539" lon="4.75191">
        <ele>189</ele>
        <time>2018-08-08T08:25:22Z</time>
      </trkpt>
      <trkpt lat="45.95393" lon="4.75197">
        <ele>189</ele>
        <time>2018-08-08T08:25:23Z</time>
      </trkpt>
      <trkpt lat="45.95398" lon="4.75201">
        <ele>189</ele>
        <time>2018-08-08T08:25:24Z</time>
      </trkpt>
      <trkpt lat="45.95401" lon="4.75208">
        <ele>189</ele>
        <time>2018-08-08T08:25:25Z</time>
      </trkpt>
      <trkpt lat="45.95404" lon="4.75213">
        <ele>189</ele>
        <time>2018-08-08T08:25:26Z</time>
      </trkpt>
      <trkpt lat="45.95407" lon="4.7522">
        <ele>189</ele>
        <time>2018-08-08T08:25:27Z</time>
      </trkpt>
      <trkpt lat="45.95409" lon="4.75227">
        <ele>188</ele>
        <time>2018-08-08T08:25:28Z</time>
      </trkpt>
      <trkpt lat="45.95414" lon="4.75232">
        <ele>189</ele>
        <time>2018-08-08T08:25:29Z</time>
      </trkpt>
      <trkpt lat="45.95419" lon="4.75237">
        <ele>190</ele>
        <time>2018-08-08T08:25:30Z</time>
      </trkpt>
      <trkpt lat="45.95423" lon="4.75244">
        <ele>190</ele>
        <time>2018-08-08T08:25:31Z</time>
      </trkpt>
      <trkpt lat="45.95424" lon="4.75252">
        <ele>189</ele>
        <time>2018-08-08T08:25:32Z</time>
      </trkpt>
      <trkpt lat="45.95428" lon="4.75258">
        <ele>189</ele>
        <time>2018-08-08T08:25:33Z</time>
      </trkpt>
      <trkpt lat="45.95431" lon="4.75265">
        <ele>189</ele>
        <time>2018-08-08T08:25:34Z</time>
      </trkpt>
      <trkpt lat="45.95434" lon="4.75272">
        <ele>189</ele>
        <time>2018-08-08T08:25:35Z</time>
      </trkpt>
      <trkpt lat="45.95437" lon="4.75281">
        <ele>188</ele>
        <time>2018-08-08T08:25:36Z</time>
      </trkpt>
      <trkpt lat="45.95441" lon="4.75287">
        <ele>188</ele>
        <time>2018-08-08T08:25:37Z</time>
      </trkpt>
      <trkpt lat="45.95445" lon="4.75292">
        <ele>188</ele>
        <time>2018-08-08T08:25:38Z</time>
      </trkpt>
      <trkpt lat="45.95449" lon="4.75298">
        <ele>188</ele>
        <time>2018-08-08T08:25:39Z</time>
      </trkpt>
      <trkpt lat="45.95454" lon="4.75304">
        <ele>188</ele>
        <time>2018-08-08T08:25:40Z</time>
      </trkpt>
      <trkpt lat="45.95457" lon="4.75312">
        <ele>188</ele>
        <time>2018-08-08T08:25:41Z</time>
      </trkpt>
      <trkpt lat="45.95462" lon="4.7532">
        <ele>188</ele>
        <time>2018-08-08T08:25:42Z</time>
      </trkpt>
      <trkpt lat="45.95467" lon="4.75326">
        <ele>188</ele>
        <time>2018-08-08T08:25:43Z</time>
      </trkpt>
      <trkpt lat="45.95471" lon="4.75334">
        <ele>186</ele>
        <time>2018-08-08T08:25:44Z</time>
      </trkpt>
      <trkpt lat="45.95474" lon="4.7534">
        <ele>186</ele>
        <time>2018-08-08T08:25:45Z</time>
      </trkpt>
      <trkpt lat="45.95478" lon="4.75346">
        <ele>186</ele>
        <time>2018-08-08T08:25:46Z</time>
      </trkpt>
      <trkpt lat="45.95482" lon="4.75354">
        <ele>186</ele>
        <time>2018-08-08T08:25:47Z</time>
      </trkpt>
      <trkpt lat="45.95487" lon="4.75362">
        <ele>186</ele>
        <time>2018-08-08T08:25:48Z</time>
      </trkpt>
      <trkpt lat="45.95491" lon="4.75369">
        <ele>186</ele>
        <time>2018-08-08T08:25:49Z</time>
      </trkpt>
      <trkpt lat="45.95495" lon="4.75376">
        <ele>185</ele>
        <time>2018-08-08T08:25:50Z</time>
      </trkpt>
      <trkpt lat="45.95498" lon="4.75385">
        <ele>185</ele>
        <time>2018-08-08T08:25:51Z</time>
      </trkpt>
      <trkpt lat="45.95501" lon="4.75393">
        <ele>188</ele>
        <time>2018-08-08T08:25:52Z</time>
      </trkpt>
      <trkpt lat="45.95503" lon="4.75403">
        <ele>187</ele>
        <time>2018-08-08T08:25:53Z</time>
      </trkpt>
      <trkpt lat="45.95505" lon="4.75412">
        <ele>186</ele>
        <time>2018-08-08T08:25:54Z</time>
      </trkpt>
      <trkpt lat="45.95507" lon="4.7542">
        <ele>186</ele>
        <time>2018-08-08T08:25:55Z</time>
      </trkpt>
      <trkpt lat="45.95509" lon="4.75428">
        <ele>186</ele>
        <time>2018-08-08T08:25:56Z</time>
      </trkpt>
      <trkpt lat="45.9551" lon="4.75437">
        <ele>186</ele>
        <time>2018-08-08T08:25:57Z</time>
      </trkpt>
      <trkpt lat="45.9551" lon="4.75446">
        <ele>187</ele>
        <time>2018-08-08T08:25:58Z</time>
      </trkpt>
      <trkpt lat="45.95511" lon="4.75453">
        <ele>187</ele>
        <time>2018-08-08T08:25:59Z</time>
      </trkpt>
      <trkpt lat="45.9551" lon="4.75463">
        <ele>186</ele>
        <time>2018-08-08T08:26:00Z</time>
      </trkpt>
      <trkpt lat="45.95509" lon="4.75472">
        <ele>186</ele>
        <time>2018-08-08T08:26:01Z</time>
      </trkpt>
      <trkpt lat="45.9551" lon="4.7548">
        <ele>186</ele>
        <time>2018-08-08T08:26:02Z</time>
      </trkpt>
      <trkpt lat="45.95513" lon="4.75486">
        <ele>186</ele>
        <time>2018-08-08T08:26:03Z</time>
      </trkpt>
      <trkpt lat="45.95516" lon="4.7549">
        <ele>186</ele>
        <time>2018-08-08T08:26:04Z</time>
      </trkpt>
      <trkpt lat="45.95521" lon="4.75493">
        <ele>186</ele>
        <time>2018-08-08T08:26:05Z</time>
      </trkpt>
      <trkpt lat="45.95525" lon="4.75494">
        <ele>186</ele>
        <time>2018-08-08T08:26:06Z</time>
      </trkpt>
      <trkpt lat="45.9553" lon="4.75493">
        <ele>187</ele>
        <time>2018-08-08T08:26:07Z</time>
      </trkpt>
      <trkpt lat="45.95534" lon="4.75491">
        <ele>187</ele>
        <time>2018-08-08T08:26:08Z</time>
      </trkpt>
      <trkpt lat="45.95538" lon="4.75487">
        <ele>187</ele>
        <time>2018-08-08T08:26:09Z</time>
      </trkpt>
      <trkpt lat="45.95542" lon="4.75481">
        <ele>187</ele>
        <time>2018-08-08T08:26:10Z</time>
      </trkpt>
      <trkpt lat="45.95544" lon="4.75471">
        <ele>187</ele>
        <time>2018-08-08T08:26:11Z</time>
      </trkpt>
      <trkpt lat="45.95548" lon="4.75466">
        <ele>188</ele>
        <time>2018-08-08T08:26:12Z</time>
      </trkpt>
      <trkpt lat="45.95552" lon="4.75458">
        <ele>188</ele>
        <time>2018-08-08T08:26:13Z</time>
      </trkpt>
      <trkpt lat="45.95557" lon="4.75456">
        <ele>188</ele>
        <time>2018-08-08T08:26:14Z</time>
      </trkpt>
      <trkpt lat="45.95562" lon="4.75454">
        <ele>188</ele>
        <time>2018-08-08T08:26:15Z</time>
      </trkpt>
      <trkpt lat="45.95566" lon="4.75452">
        <ele>188</ele>
        <time>2018-08-08T08:26:16Z</time>
      </trkpt>
      <trkpt lat="45.95571" lon="4.7545">
        <ele>189</ele>
        <time>2018-08-08T08:26:17Z</time>
      </trkpt>
      <trkpt lat="45.95575" lon="4.75447">
        <ele>189</ele>
        <time>2018-08-08T08:26:18Z</time>
      </trkpt>
      <trkpt lat="45.95579" lon="4.75443">
        <ele>189</ele>
        <time>2018-08-08T08:26:19Z</time>
      </trkpt>
      <trkpt lat="45.95583" lon="4.75438">
        <ele>190</ele>
        <time>2018-08-08T08:26:20Z</time>
      </trkpt>
      <trkpt lat="45.9559" lon="4.75433">
        <ele>192</ele>
        <time>2018-08-08T08:26:22Z</time>
      </trkpt>
      <trkpt lat="45.95594" lon="4.7543">
        <ele>192</ele>
        <time>2018-08-08T08:26:23Z</time>
      </trkpt>
      <trkpt lat="45.95601" lon="4.75425">
        <ele>192</ele>
        <time>2018-08-08T08:26:25Z</time>
      </trkpt>
      <trkpt lat="45.95605" lon="4.75421">
        <ele>192</ele>
        <time>2018-08-08T08:26:26Z</time>
      </trkpt>
      <trkpt lat="45.95611" lon="4.75416">
        <ele>193</ele>
        <time>2018-08-08T08:26:28Z</time>
      </trkpt>
      <trkpt lat="45.95614" lon="4.75407">
        <ele>193</ele>
        <time>2018-08-08T08:26:29Z</time>
      </trkpt>
      <trkpt lat="45.95622" lon="4.75402">
        <ele>193</ele>
        <time>2018-08-08T08:26:31Z</time>
      </trkpt>
      <trkpt lat="45.95625" lon="4.75401">
        <ele>193</ele>
        <time>2018-08-08T08:26:32Z</time>
      </trkpt>
      <trkpt lat="45.95631" lon="4.75396">
        <ele>193</ele>
        <time>2018-08-08T08:26:34Z</time>
      </trkpt>
      <trkpt lat="45.95634" lon="4.75392">
        <ele>193</ele>
        <time>2018-08-08T08:26:35Z</time>
      </trkpt>
      <trkpt lat="45.9564" lon="4.75387">
        <ele>193</ele>
        <time>2018-08-08T08:26:37Z</time>
      </trkpt>
      <trkpt lat="45.95642" lon="4.75386">
        <ele>193</ele>
        <time>2018-08-08T08:26:38Z</time>
      </trkpt>
      <trkpt lat="45.95648" lon="4.75382">
        <ele>193</ele>
        <time>2018-08-08T08:26:39Z</time>
      </trkpt>
      <trkpt lat="45.95651" lon="4.75379">
        <ele>193</ele>
        <time>2018-08-08T08:26:40Z</time>
      </trkpt>
      <trkpt lat="45.95657" lon="4.75373">
        <ele>193</ele>
        <time>2018-08-08T08:26:42Z</time>
      </trkpt>
      <trkpt lat="45.9566" lon="4.75369">
        <ele>193</ele>
        <time>2018-08-08T08:26:43Z</time>
      </trkpt>
      <trkpt lat="45.95666" lon="4.75364">
        <ele>193</ele>
        <time>2018-08-08T08:26:46Z</time>
      </trkpt>
      <trkpt lat="45.95671" lon="4.75358">
        <ele>193</ele>
        <time>2018-08-08T08:26:47Z</time>
      </trkpt>
      <trkpt lat="45.95674" lon="4.75355">
        <ele>193</ele>
        <time>2018-08-08T08:26:49Z</time>
      </trkpt>
      <trkpt lat="45.95679" lon="4.7535">
        <ele>193</ele>
        <time>2018-08-08T08:26:50Z</time>
      </trkpt>
      <trkpt lat="45.95686" lon="4.75346">
        <ele>193</ele>
        <time>2018-08-08T08:26:53Z</time>
      </trkpt>
      <trkpt lat="45.95692" lon="4.75341">
        <ele>193</ele>
        <time>2018-08-08T08:26:54Z</time>
      </trkpt>
      <trkpt lat="45.95699" lon="4.75335">
        <ele>193</ele>
        <time>2018-08-08T08:26:56Z</time>
      </trkpt>
      <trkpt lat="45.95702" lon="4.75332">
        <ele>193</ele>
        <time>2018-08-08T08:26:57Z</time>
      </trkpt>
      <trkpt lat="45.95709" lon="4.75327">
        <ele>193</ele>
        <time>2018-08-08T08:26:59Z</time>
      </trkpt>
      <trkpt lat="45.95713" lon="4.75324">
        <ele>193</ele>
        <time>2018-08-08T08:27:00Z</time>
      </trkpt>
      <trkpt lat="45.95719" lon="4.75319">
        <ele>193</ele>
        <time>2018-08-08T08:27:02Z</time>
      </trkpt>
      <trkpt lat="45.95723" lon="4.75315">
        <ele>193</ele>
        <time>2018-08-08T08:27:03Z</time>
      </trkpt>
      <trkpt lat="45.95725" lon="4.75313">
        <ele>193</ele>
        <time>2018-08-08T08:27:04Z</time>
      </trkpt>
      <trkpt lat="45.95729" lon="4.75304">
        <ele>193</ele>
        <time>2018-08-08T08:27:05Z</time>
      </trkpt>
      <trkpt lat="45.95733" lon="4.75301">
        <ele>193</ele>
        <time>2018-08-08T08:27:06Z</time>
      </trkpt>
      <trkpt lat="45.95737" lon="4.75297">
        <ele>193</ele>
        <time>2018-08-08T08:27:07Z</time>
      </trkpt>
      <trkpt lat="45.95742" lon="4.75289">
        <ele>193</ele>
        <time>2018-08-08T08:27:09Z</time>
      </trkpt>
      <trkpt lat="45.95745" lon="4.75288">
        <ele>193</ele>
        <time>2018-08-08T08:27:10Z</time>
      </trkpt>
      <trkpt lat="45.95752" lon="4.75285">
        <ele>193</ele>
        <time>2018-08-08T08:27:12Z</time>
      </trkpt>
      <trkpt lat="45.95756" lon="4.75278">
        <ele>193</ele>
        <time>2018-08-08T08:27:13Z</time>
      </trkpt>
      <trkpt lat="45.95759" lon="4.75273">
        <ele>193</ele>
        <time>2018-08-08T08:27:14Z</time>
      </trkpt>
      <trkpt lat="45.95764" lon="4.75269">
        <ele>193</ele>
        <time>2018-08-08T08:27:15Z</time>
      </trkpt>
      <trkpt lat="45.95769" lon="4.75263">
        <ele>193</ele>
        <time>2018-08-08T08:27:16Z</time>
      </trkpt>
      <trkpt lat="45.95772" lon="4.75257">
        <ele>193</ele>
        <time>2018-08-08T08:27:17Z</time>
      </trkpt>
      <trkpt lat="45.95777" lon="4.75254">
        <ele>193</ele>
        <time>2018-08-08T08:27:18Z</time>
      </trkpt>
      <trkpt lat="45.9578" lon="4.75252">
        <ele>193</ele>
        <time>2018-08-08T08:27:19Z</time>
      </trkpt>
      <trkpt lat="45.95785" lon="4.75242">
        <ele>193</ele>
        <time>2018-08-08T08:27:21Z</time>
      </trkpt>
      <trkpt lat="45.95791" lon="4.75239">
        <ele>193</ele>
        <time>2018-08-08T08:27:22Z</time>
      </trkpt>
      <trkpt lat="45.95795" lon="4.75235">
        <ele>193</ele>
        <time>2018-08-08T08:27:23Z</time>
      </trkpt>
      <trkpt lat="45.95799" lon="4.75231">
        <ele>193</ele>
        <time>2018-08-08T08:27:24Z</time>
      </trkpt>
      <trkpt lat="45.95803" lon="4.75223">
        <ele>193</ele>
        <time>2018-08-08T08:27:26Z</time>
      </trkpt>
      <trkpt lat="45.95804" lon="4.7522">
        <ele>193</ele>
        <time>2018-08-08T08:27:27Z</time>
      </trkpt>
      <trkpt lat="45.95807" lon="4.75215">
        <ele>193</ele>
        <time>2018-08-08T08:27:28Z</time>
      </trkpt>
      <trkpt lat="45.95813" lon="4.75207">
        <ele>193</ele>
        <time>2018-08-08T08:27:29Z</time>
      </trkpt>
      <trkpt lat="45.95819" lon="4.752">
        <ele>193</ele>
        <time>2018-08-08T08:27:30Z</time>
      </trkpt>
      <trkpt lat="45.95823" lon="4.75195">
        <ele>193</ele>
        <time>2018-08-08T08:27:31Z</time>
      </trkpt>
      <trkpt lat="45.95828" lon="4.75191">
        <ele>192</ele>
        <time>2018-08-08T08:27:32Z</time>
      </trkpt>
      <trkpt lat="45.95833" lon="4.75185">
        <ele>192</ele>
        <time>2018-08-08T08:27:33Z</time>
      </trkpt>
      <trkpt lat="45.95837" lon="4.75176">
        <ele>192</ele>
        <time>2018-08-08T08:27:35Z</time>
      </trkpt>
      <trkpt lat="45.95843" lon="4.75169">
        <ele>192</ele>
        <time>2018-08-08T08:27:36Z</time>
      </trkpt>
      <trkpt lat="45.95847" lon="4.75163">
        <ele>192</ele>
        <time>2018-08-08T08:27:37Z</time>
      </trkpt>
      <trkpt lat="45.95853" lon="4.75157">
        <ele>191</ele>
        <time>2018-08-08T08:27:38Z</time>
      </trkpt>
      <trkpt lat="45.95857" lon="4.75151">
        <ele>191</ele>
        <time>2018-08-08T08:27:39Z</time>
      </trkpt>
      <trkpt lat="45.95863" lon="4.75145">
        <ele>191</ele>
        <time>2018-08-08T08:27:40Z</time>
      </trkpt>
      <trkpt lat="45.9587" lon="4.75137">
        <ele>191</ele>
        <time>2018-08-08T08:27:41Z</time>
      </trkpt>
      <trkpt lat="45.95875" lon="4.75132">
        <ele>191</ele>
        <time>2018-08-08T08:27:42Z</time>
      </trkpt>
      <trkpt lat="45.95881" lon="4.75127">
        <ele>191</ele>
        <time>2018-08-08T08:27:43Z</time>
      </trkpt>
      <trkpt lat="45.95885" lon="4.75118">
        <ele>191</ele>
        <time>2018-08-08T08:27:44Z</time>
      </trkpt>
      <trkpt lat="45.95892" lon="4.75114">
        <ele>191</ele>
        <time>2018-08-08T08:27:45Z</time>
      </trkpt>
      <trkpt lat="45.95897" lon="4.75108">
        <ele>191</ele>
        <time>2018-08-08T08:27:46Z</time>
      </trkpt>
      <trkpt lat="45.95902" lon="4.75105">
        <ele>191</ele>
        <time>2018-08-08T08:27:47Z</time>
      </trkpt>
      <trkpt lat="45.95907" lon="4.75102">
        <ele>190</ele>
        <time>2018-08-08T08:27:48Z</time>
      </trkpt>
      <trkpt lat="45.95914" lon="4.75098">
        <ele>190</ele>
        <time>2018-08-08T08:27:49Z</time>
      </trkpt>
      <trkpt lat="45.95919" lon="4.75096">
        <ele>191</ele>
        <time>2018-08-08T08:27:50Z</time>
      </trkpt>
      <trkpt lat="45.95926" lon="4.75096">
        <ele>192</ele>
        <time>2018-08-08T08:27:51Z</time>
      </trkpt>
      <trkpt lat="45.95933" lon="4.75091">
        <ele>192</ele>
        <time>2018-08-08T08:27:52Z</time>
      </trkpt>
      <trkpt lat="45.9594" lon="4.7509">
        <ele>192</ele>
        <time>2018-08-08T08:27:53Z</time>
      </trkpt>
      <trkpt lat="45.95946" lon="4.75086">
        <ele>193</ele>
        <time>2018-08-08T08:27:54Z</time>
      </trkpt>
      <trkpt lat="45.95953" lon="4.75084">
        <ele>193</ele>
        <time>2018-08-08T08:27:55Z</time>
      </trkpt>
      <trkpt lat="45.95961" lon="4.75081">
        <ele>191</ele>
        <time>2018-08-08T08:27:56Z</time>
      </trkpt>
      <trkpt lat="45.95967" lon="4.75079">
        <ele>191</ele>
        <time>2018-08-08T08:27:57Z</time>
      </trkpt>
      <trkpt lat="45.95973" lon="4.75075">
        <ele>191</ele>
        <time>2018-08-08T08:27:58Z</time>
      </trkpt>
      <trkpt lat="45.95981" lon="4.75073">
        <ele>192</ele>
        <time>2018-08-08T08:27:59Z</time>
      </trkpt>
      <trkpt lat="45.95988" lon="4.75068">
        <ele>192</ele>
        <time>2018-08-08T08:28:00Z</time>
      </trkpt>
      <trkpt lat="45.95994" lon="4.75065">
        <ele>192</ele>
        <time>2018-08-08T08:28:01Z</time>
      </trkpt>
      <trkpt lat="45.96002" lon="4.75065">
        <ele>192</ele>
        <time>2018-08-08T08:28:02Z</time>
      </trkpt>
      <trkpt lat="45.96006" lon="4.75059">
        <ele>191</ele>
        <time>2018-08-08T08:28:03Z</time>
      </trkpt>
      <trkpt lat="45.96015" lon="4.75058">
        <ele>190</ele>
        <time>2018-08-08T08:28:04Z</time>
      </trkpt>
      <trkpt lat="45.96021" lon="4.75057">
        <ele>190</ele>
        <time>2018-08-08T08:28:05Z</time>
      </trkpt>
      <trkpt lat="45.96026" lon="4.75057">
        <ele>190</ele>
        <time>2018-08-08T08:28:06Z</time>
      </trkpt>
      <trkpt lat="45.96037" lon="4.75059">
        <ele>190</ele>
        <time>2018-08-08T08:28:07Z</time>
      </trkpt>
      <trkpt lat="45.96044" lon="4.75059">
        <ele>189</ele>
        <time>2018-08-08T08:28:08Z</time>
      </trkpt>
      <trkpt lat="45.96049" lon="4.7506">
        <ele>189</ele>
        <time>2018-08-08T08:28:09Z</time>
      </trkpt>
      <trkpt lat="45.96055" lon="4.75059">
        <ele>189</ele>
        <time>2018-08-08T08:28:10Z</time>
      </trkpt>
      <trkpt lat="45.96061" lon="4.75062">
        <ele>189</ele>
        <time>2018-08-08T08:28:11Z</time>
      </trkpt>
      <trkpt lat="45.96068" lon="4.75062">
        <ele>189</ele>
        <time>2018-08-08T08:28:12Z</time>
      </trkpt>
      <trkpt lat="45.96075" lon="4.75063">
        <ele>189</ele>
        <time>2018-08-08T08:28:13Z</time>
      </trkpt>
      <trkpt lat="45.96082" lon="4.75063">
        <ele>189</ele>
        <time>2018-08-08T08:28:14Z</time>
      </trkpt>
      <trkpt lat="45.96086" lon="4.75072">
        <ele>187</ele>
        <time>2018-08-08T08:28:15Z</time>
      </trkpt>
      <trkpt lat="45.96092" lon="4.75079">
        <ele>188</ele>
        <time>2018-08-08T08:28:16Z</time>
      </trkpt>
      <trkpt lat="45.96098" lon="4.75082">
        <ele>186</ele>
        <time>2018-08-08T08:28:17Z</time>
      </trkpt>
      <trkpt lat="45.961" lon="4.7509">
        <ele>190</ele>
        <time>2018-08-08T08:28:18Z</time>
      </trkpt>
      <trkpt lat="45.96106" lon="4.75094">
        <ele>190</ele>
        <time>2018-08-08T08:28:19Z</time>
      </trkpt>
      <trkpt lat="45.96111" lon="4.75099">
        <ele>190</ele>
        <time>2018-08-08T08:28:20Z</time>
      </trkpt>
      <trkpt lat="45.96117" lon="4.75107">
        <ele>190</ele>
        <time>2018-08-08T08:28:21Z</time>
      </trkpt>
      <trkpt lat="45.96121" lon="4.75113">
        <ele>190</ele>
        <time>2018-08-08T08:28:22Z</time>
      </trkpt>
      <trkpt lat="45.96127" lon="4.75119">
        <ele>190</ele>
        <time>2018-08-08T08:28:23Z</time>
      </trkpt>
      <trkpt lat="45.96134" lon="4.75121">
        <ele>190</ele>
        <time>2018-08-08T08:28:24Z</time>
      </trkpt>
      <trkpt lat="45.96141" lon="4.75124">
        <ele>190</ele>
        <time>2018-08-08T08:28:25Z</time>
      </trkpt>
      <trkpt lat="45.96149" lon="4.75132">
        <ele>191</ele>
        <time>2018-08-08T08:28:26Z</time>
      </trkpt>
      <trkpt lat="45.96155" lon="4.75136">
        <ele>191</ele>
        <time>2018-08-08T08:28:27Z</time>
      </trkpt>
      <trkpt lat="45.9616" lon="4.75144">
        <ele>192</ele>
        <time>2018-08-08T08:28:28Z</time>
      </trkpt>
      <trkpt lat="45.96165" lon="4.75151">
        <ele>193</ele>
        <time>2018-08-08T08:28:29Z</time>
      </trkpt>
      <trkpt lat="45.96172" lon="4.75158">
        <ele>191</ele>
        <time>2018-08-08T08:28:30Z</time>
      </trkpt>
      <trkpt lat="45.96178" lon="4.75165">
        <ele>191</ele>
        <time>2018-08-08T08:28:31Z</time>
      </trkpt>
      <trkpt lat="45.96184" lon="4.7517">
        <ele>195</ele>
        <time>2018-08-08T08:28:32Z</time>
      </trkpt>
      <trkpt lat="45.96195" lon="4.75171">
        <ele>195</ele>
        <time>2018-08-08T08:28:33Z</time>
      </trkpt>
      <trkpt lat="45.96197" lon="4.75179">
        <ele>195</ele>
        <time>2018-08-08T08:28:34Z</time>
      </trkpt>
      <trkpt lat="45.96201" lon="4.75183">
        <ele>195</ele>
        <time>2018-08-08T08:28:35Z</time>
      </trkpt>
      <trkpt lat="45.96207" lon="4.75186">
        <ele>194</ele>
        <time>2018-08-08T08:28:36Z</time>
      </trkpt>
      <trkpt lat="45.96217" lon="4.75185">
        <ele>193</ele>
        <time>2018-08-08T08:28:37Z</time>
      </trkpt>
      <trkpt lat="45.96225" lon="4.75188">
        <ele>192</ele>
        <time>2018-08-08T08:28:38Z</time>
      </trkpt>
      <trkpt lat="45.9623" lon="4.75194">
        <ele>192</ele>
        <time>2018-08-08T08:28:39Z</time>
      </trkpt>
      <trkpt lat="45.96234" lon="4.75196">
        <ele>192</ele>
        <time>2018-08-08T08:28:40Z</time>
      </trkpt>
      <trkpt lat="45.96238" lon="4.75205">
        <ele>193</ele>
        <time>2018-08-08T08:28:41Z</time>
      </trkpt>
      <trkpt lat="45.96244" lon="4.75206">
        <ele>193</ele>
        <time>2018-08-08T08:28:42Z</time>
      </trkpt>
      <trkpt lat="45.96253" lon="4.7521">
        <ele>187</ele>
        <time>2018-08-08T08:28:43Z</time>
      </trkpt>
      <trkpt lat="45.96263" lon="4.75216">
        <ele>187</ele>
        <time>2018-08-08T08:28:44Z</time>
      </trkpt>
      <trkpt lat="45.9627" lon="4.75212">
        <ele>186</ele>
        <time>2018-08-08T08:28:45Z</time>
      </trkpt>
      <trkpt lat="45.96276" lon="4.75214">
        <ele>186</ele>
        <time>2018-08-08T08:28:46Z</time>
      </trkpt>
      <trkpt lat="45.9628" lon="4.75218">
        <ele>186</ele>
        <time>2018-08-08T08:28:47Z</time>
      </trkpt>
      <trkpt lat="45.96288" lon="4.75221">
        <ele>186</ele>
        <time>2018-08-08T08:28:48Z</time>
      </trkpt>
      <trkpt lat="45.96296" lon="4.75224">
        <ele>186</ele>
        <time>2018-08-08T08:28:49Z</time>
      </trkpt>
      <trkpt lat="45.96301" lon="4.75226">
        <ele>186</ele>
        <time>2018-08-08T08:28:50Z</time>
      </trkpt>
      <trkpt lat="45.96308" lon="4.75227">
        <ele>186</ele>
        <time>2018-08-08T08:28:51Z</time>
      </trkpt>
      <trkpt lat="45.96314" lon="4.7523">
        <ele>186</ele>
        <time>2018-08-08T08:28:52Z</time>
      </trkpt>
      <trkpt lat="45.96321" lon="4.75235">
        <ele>187</ele>
        <time>2018-08-08T08:28:53Z</time>
      </trkpt>
      <trkpt lat="45.96329" lon="4.75238">
        <ele>187</ele>
        <time>2018-08-08T08:28:54Z</time>
      </trkpt>
      <trkpt lat="45.96334" lon="4.75241">
        <ele>185</ele>
        <time>2018-08-08T08:28:55Z</time>
      </trkpt>
      <trkpt lat="45.96341" lon="4.75243">
        <ele>185</ele>
        <time>2018-08-08T08:28:56Z</time>
      </trkpt>
      <trkpt lat="45.96346" lon="4.75247">
        <ele>184</ele>
        <time>2018-08-08T08:28:57Z</time>
      </trkpt>
      <trkpt lat="45.96353" lon="4.7525">
        <ele>192</ele>
        <time>2018-08-08T08:28:58Z</time>
      </trkpt>
      <trkpt lat="45.9636" lon="4.75251">
        <ele>193</ele>
        <time>2018-08-08T08:28:59Z</time>
      </trkpt>
      <trkpt lat="45.96374" lon="4.75249">
        <ele>180</ele>
        <time>2018-08-08T08:29:00Z</time>
      </trkpt>
      <trkpt lat="45.96374" lon="4.75255">
        <ele>193</ele>
        <time>2018-08-08T08:29:01Z</time>
      </trkpt>
      <trkpt lat="45.96381" lon="4.75261">
        <ele>193</ele>
        <time>2018-08-08T08:29:02Z</time>
      </trkpt>
      <trkpt lat="45.96386" lon="4.75262">
        <ele>192</ele>
        <time>2018-08-08T08:29:03Z</time>
      </trkpt>
      <trkpt lat="45.9639" lon="4.75269">
        <ele>193</ele>
        <time>2018-08-08T08:29:04Z</time>
      </trkpt>
      <trkpt lat="45.96399" lon="4.75272">
        <ele>192</ele>
        <time>2018-08-08T08:29:05Z</time>
      </trkpt>
      <trkpt lat="45.96407" lon="4.75278">
        <ele>193</ele>
        <time>2018-08-08T08:29:06Z</time>
      </trkpt>
      <trkpt lat="45.96412" lon="4.75281">
        <ele>193</ele>
        <time>2018-08-08T08:29:07Z</time>
      </trkpt>
      <trkpt lat="45.96418" lon="4.75287">
        <ele>188</ele>
        <time>2018-08-08T08:29:08Z</time>
      </trkpt>
      <trkpt lat="45.96426" lon="4.75289">
        <ele>188</ele>
        <time>2018-08-08T08:29:09Z</time>
      </trkpt>
      <trkpt lat="45.96433" lon="4.75293">
        <ele>188</ele>
        <time>2018-08-08T08:29:10Z</time>
      </trkpt>
      <trkpt lat="45.9644" lon="4.75298">
        <ele>189</ele>
        <time>2018-08-08T08:29:11Z</time>
      </trkpt>
      <trkpt lat="45.96448" lon="4.75302">
        <ele>189</ele>
        <time>2018-08-08T08:29:12Z</time>
      </trkpt>
      <trkpt lat="45.96452" lon="4.75305">
        <ele>188</ele>
        <time>2018-08-08T08:29:13Z</time>
      </trkpt>
      <trkpt lat="45.96458" lon="4.75311">
        <ele>188</ele>
        <time>2018-08-08T08:29:14Z</time>
      </trkpt>
      <trkpt lat="45.96465" lon="4.75315">
        <ele>188</ele>
        <time>2018-08-08T08:29:15Z</time>
      </trkpt>
      <trkpt lat="45.96474" lon="4.75316">
        <ele>187</ele>
        <time>2018-08-08T08:29:16Z</time>
      </trkpt>
      <trkpt lat="45.96483" lon="4.75318">
        <ele>187</ele>
        <time>2018-08-08T08:29:17Z</time>
      </trkpt>
      <trkpt lat="45.96487" lon="4.75321">
        <ele>187</ele>
        <time>2018-08-08T08:29:18Z</time>
      </trkpt>
      <trkpt lat="45.96494" lon="4.75325">
        <ele>187</ele>
        <time>2018-08-08T08:29:19Z</time>
      </trkpt>
      <trkpt lat="45.96502" lon="4.75329">
        <ele>185</ele>
        <time>2018-08-08T08:29:20Z</time>
      </trkpt>
      <trkpt lat="45.96507" lon="4.75333">
        <ele>185</ele>
        <time>2018-08-08T08:29:21Z</time>
      </trkpt>
      <trkpt lat="45.96513" lon="4.75338">
        <ele>190</ele>
        <time>2018-08-08T08:29:22Z</time>
      </trkpt>
      <trkpt lat="45.9652" lon="4.75344">
        <ele>191</ele>
        <time>2018-08-08T08:29:23Z</time>
      </trkpt>
      <trkpt lat="45.96527" lon="4.75344">
        <ele>191</ele>
        <time>2018-08-08T08:29:24Z</time>
      </trkpt>
      <trkpt lat="45.96534" lon="4.75347">
        <ele>191</ele>
        <time>2018-08-08T08:29:25Z</time>
      </trkpt>
      <trkpt lat="45.96538" lon="4.75349">
        <ele>191</ele>
        <time>2018-08-08T08:29:26Z</time>
      </trkpt>
      <trkpt lat="45.96539" lon="4.75352">
        <ele>191</ele>
        <time>2018-08-08T08:29:27Z</time>
      </trkpt>
      <trkpt lat="45.96548" lon="4.75355">
        <ele>191</ele>
        <time>2018-08-08T08:29:28Z</time>
      </trkpt>
      <trkpt lat="45.96553" lon="4.75353">
        <ele>190</ele>
        <time>2018-08-08T08:29:29Z</time>
      </trkpt>
      <trkpt lat="45.96563" lon="4.75355">
        <ele>189</ele>
        <time>2018-08-08T08:29:30Z</time>
      </trkpt>
      <trkpt lat="45.9657" lon="4.75361">
        <ele>189</ele>
        <time>2018-08-08T08:29:31Z</time>
      </trkpt>
      <trkpt lat="45.96575" lon="4.75365">
        <ele>189</ele>
        <time>2018-08-08T08:29:32Z</time>
      </trkpt>
      <trkpt lat="45.9658" lon="4.75369">
        <ele>190</ele>
        <time>2018-08-08T08:29:33Z</time>
      </trkpt>
      <trkpt lat="45.96586" lon="4.75368">
        <ele>181</ele>
        <time>2018-08-08T08:29:34Z</time>
      </trkpt>
      <trkpt lat="45.96593" lon="4.75369">
        <ele>181</ele>
        <time>2018-08-08T08:29:35Z</time>
      </trkpt>
      <trkpt lat="45.966" lon="4.75377">
        <ele>182</ele>
        <time>2018-08-08T08:29:36Z</time>
      </trkpt>
      <trkpt lat="45.96604" lon="4.75374">
        <ele>181</ele>
        <time>2018-08-08T08:29:37Z</time>
      </trkpt>
      <trkpt lat="45.96613" lon="4.75381">
        <ele>181</ele>
        <time>2018-08-08T08:29:38Z</time>
      </trkpt>
      <trkpt lat="45.96622" lon="4.75382">
        <ele>180</ele>
        <time>2018-08-08T08:29:39Z</time>
      </trkpt>
      <trkpt lat="45.96628" lon="4.75388">
        <ele>180</ele>
        <time>2018-08-08T08:29:40Z</time>
      </trkpt>
      <trkpt lat="45.96633" lon="4.75393">
        <ele>180</ele>
        <time>2018-08-08T08:29:41Z</time>
      </trkpt>
      <trkpt lat="45.96639" lon="4.75398">
        <ele>180</ele>
        <time>2018-08-08T08:29:42Z</time>
      </trkpt>
      <trkpt lat="45.96645" lon="4.75399">
        <ele>179</ele>
        <time>2018-08-08T08:29:43Z</time>
      </trkpt>
      <trkpt lat="45.96651" lon="4.754">
        <ele>178</ele>
        <time>2018-08-08T08:29:44Z</time>
      </trkpt>
      <trkpt lat="45.96655" lon="4.75404">
        <ele>178</ele>
        <time>2018-08-08T08:29:45Z</time>
      </trkpt>
      <trkpt lat="45.9666" lon="4.7541">
        <ele>177</ele>
        <time>2018-08-08T08:29:46Z</time>
      </trkpt>
      <trkpt lat="45.96666" lon="4.7541">
        <ele>177</ele>
        <time>2018-08-08T08:29:47Z</time>
      </trkpt>
      <trkpt lat="45.96671" lon="4.75413">
        <ele>174</ele>
        <time>2018-08-08T08:29:48Z</time>
      </trkpt>
      <trkpt lat="45.9667" lon="4.75424">
        <ele>178</ele>
        <time>2018-08-08T08:29:49Z</time>
      </trkpt>
      <trkpt lat="45.96677" lon="4.75434">
        <ele>180</ele>
        <time>2018-08-08T08:29:50Z</time>
      </trkpt>
      <trkpt lat="45.96686" lon="4.75431">
        <ele>180</ele>
        <time>2018-08-08T08:29:51Z</time>
      </trkpt>
      <trkpt lat="45.96697" lon="4.75423">
        <ele>179</ele>
        <time>2018-08-08T08:29:52Z</time>
      </trkpt>
      <trkpt lat="45.96701" lon="4.75426">
        <ele>179</ele>
        <time>2018-08-08T08:29:53Z</time>
      </trkpt>
      <trkpt lat="45.96708" lon="4.75432">
        <ele>179</ele>
        <time>2018-08-08T08:29:54Z</time>
      </trkpt>
      <trkpt lat="45.96708" lon="4.75446">
        <ele>181</ele>
        <time>2018-08-08T08:29:55Z</time>
      </trkpt>
      <trkpt lat="45.96715" lon="4.75447">
        <ele>180</ele>
        <time>2018-08-08T08:29:56Z</time>
      </trkpt>
      <trkpt lat="45.96722" lon="4.75447">
        <ele>180</ele>
        <time>2018-08-08T08:29:57Z</time>
      </trkpt>
      <trkpt lat="45.96729" lon="4.75449">
        <ele>179</ele>
        <time>2018-08-08T08:29:58Z</time>
      </trkpt>
      <trkpt lat="45.96737" lon="4.75452">
        <ele>179</ele>
        <time>2018-08-08T08:29:59Z</time>
      </trkpt>
      <trkpt lat="45.96742" lon="4.75461">
        <ele>181</ele>
        <time>2018-08-08T08:30:01Z</time>
      </trkpt>
      <trkpt lat="45.96749" lon="4.75461">
        <ele>180</ele>
        <time>2018-08-08T08:30:02Z</time>
      </trkpt>
      <trkpt lat="45.96756" lon="4.75461">
        <ele>174</ele>
        <time>2018-08-08T08:30:03Z</time>
      </trkpt>
      <trkpt lat="45.96759" lon="4.75466">
        <ele>175</ele>
        <time>2018-08-08T08:30:04Z</time>
      </trkpt>
      <trkpt lat="45.96765" lon="4.75469">
        <ele>175</ele>
        <time>2018-08-08T08:30:05Z</time>
      </trkpt>
      <trkpt lat="45.96772" lon="4.7547">
        <ele>175</ele>
        <time>2018-08-08T08:30:06Z</time>
      </trkpt>
      <trkpt lat="45.96777" lon="4.75474">
        <ele>175</ele>
        <time>2018-08-08T08:30:07Z</time>
      </trkpt>
      <trkpt lat="45.96786" lon="4.75474">
        <ele>175</ele>
        <time>2018-08-08T08:30:08Z</time>
      </trkpt>
      <trkpt lat="45.96792" lon="4.75479">
        <ele>175</ele>
        <time>2018-08-08T08:30:09Z</time>
      </trkpt>
      <trkpt lat="45.96797" lon="4.75483">
        <ele>174</ele>
        <time>2018-08-08T08:30:10Z</time>
      </trkpt>
      <trkpt lat="45.96802" lon="4.75487">
        <ele>174</ele>
        <time>2018-08-08T08:30:11Z</time>
      </trkpt>
      <trkpt lat="45.96808" lon="4.75489">
        <ele>174</ele>
        <time>2018-08-08T08:30:12Z</time>
      </trkpt>
      <trkpt lat="45.96813" lon="4.75493">
        <ele>174</ele>
        <time>2018-08-08T08:30:13Z</time>
      </trkpt>
      <trkpt lat="45.96817" lon="4.75494">
        <ele>174</ele>
        <time>2018-08-08T08:30:14Z</time>
      </trkpt>
      <trkpt lat="45.96824" lon="4.75495">
        <ele>174</ele>
        <time>2018-08-08T08:30:15Z</time>
      </trkpt>
      <trkpt lat="45.96829" lon="4.75497">
        <ele>174</ele>
        <time>2018-08-08T08:30:16Z</time>
      </trkpt>
      <trkpt lat="45.96834" lon="4.75499">
        <ele>174</ele>
        <time>2018-08-08T08:30:17Z</time>
      </trkpt>
      <trkpt lat="45.9684" lon="4.75503">
        <ele>176</ele>
        <time>2018-08-08T08:30:18Z</time>
      </trkpt>
      <trkpt lat="45.96846" lon="4.75507">
        <ele>177</ele>
        <time>2018-08-08T08:30:19Z</time>
      </trkpt>
      <trkpt lat="45.96852" lon="4.75508">
        <ele>178</ele>
        <time>2018-08-08T08:30:20Z</time>
      </trkpt>
      <trkpt lat="45.96857" lon="4.75511">
        <ele>179</ele>
        <time>2018-08-08T08:30:21Z</time>
      </trkpt>
      <trkpt lat="45.96863" lon="4.75514">
        <ele>179</ele>
        <time>2018-08-08T08:30:22Z</time>
      </trkpt>
      <trkpt lat="45.96868" lon="4.75516">
        <ele>179</ele>
        <time>2018-08-08T08:30:23Z</time>
      </trkpt>
      <trkpt lat="45.96874" lon="4.75517">
        <ele>179</ele>
        <time>2018-08-08T08:30:24Z</time>
      </trkpt>
      <trkpt lat="45.96879" lon="4.75519">
        <ele>179</ele>
        <time>2018-08-08T08:30:25Z</time>
      </trkpt>
      <trkpt lat="45.96883" lon="4.75521">
        <ele>179</ele>
        <time>2018-08-08T08:30:26Z</time>
      </trkpt>
      <trkpt lat="45.96888" lon="4.75523">
        <ele>179</ele>
        <time>2018-08-08T08:30:27Z</time>
      </trkpt>
      <trkpt lat="45.96893" lon="4.75523">
        <ele>179</ele>
        <time>2018-08-08T08:30:28Z</time>
      </trkpt>
      <trkpt lat="45.96897" lon="4.75528">
        <ele>179</ele>
        <time>2018-08-08T08:30:29Z</time>
      </trkpt>
      <trkpt lat="45.96903" lon="4.75528">
        <ele>179</ele>
        <time>2018-08-08T08:30:30Z</time>
      </trkpt>
      <trkpt lat="45.96908" lon="4.75529">
        <ele>179</ele>
        <time>2018-08-08T08:30:31Z</time>
      </trkpt>
      <trkpt lat="45.96913" lon="4.75532">
        <ele>179</ele>
        <time>2018-08-08T08:30:32Z</time>
      </trkpt>
      <trkpt lat="45.96918" lon="4.75534">
        <ele>175</ele>
        <time>2018-08-08T08:30:33Z</time>
      </trkpt>
      <trkpt lat="45.96924" lon="4.75536">
        <ele>175</ele>
        <time>2018-08-08T08:30:34Z</time>
      </trkpt>
      <trkpt lat="45.96931" lon="4.75537">
        <ele>175</ele>
        <time>2018-08-08T08:30:35Z</time>
      </trkpt>
      <trkpt lat="45.96937" lon="4.7554">
        <ele>175</ele>
        <time>2018-08-08T08:30:36Z</time>
      </trkpt>
      <trkpt lat="45.96943" lon="4.75541">
        <ele>175</ele>
        <time>2018-08-08T08:30:37Z</time>
      </trkpt>
      <trkpt lat="45.96948" lon="4.75544">
        <ele>175</ele>
        <time>2018-08-08T08:30:38Z</time>
      </trkpt>
      <trkpt lat="45.96953" lon="4.75544">
        <ele>175</ele>
        <time>2018-08-08T08:30:39Z</time>
      </trkpt>
      <trkpt lat="45.9696" lon="4.75547">
        <ele>175</ele>
        <time>2018-08-08T08:30:40Z</time>
      </trkpt>
      <trkpt lat="45.96966" lon="4.75549">
        <ele>175</ele>
        <time>2018-08-08T08:30:41Z</time>
      </trkpt>
      <trkpt lat="45.96971" lon="4.7555">
        <ele>175</ele>
        <time>2018-08-08T08:30:42Z</time>
      </trkpt>
      <trkpt lat="45.96977" lon="4.75554">
        <ele>176</ele>
        <time>2018-08-08T08:30:43Z</time>
      </trkpt>
      <trkpt lat="45.96982" lon="4.75556">
        <ele>176</ele>
        <time>2018-08-08T08:30:44Z</time>
      </trkpt>
      <trkpt lat="45.96987" lon="4.75559">
        <ele>176</ele>
        <time>2018-08-08T08:30:45Z</time>
      </trkpt>
      <trkpt lat="45.96992" lon="4.75561">
        <ele>176</ele>
        <time>2018-08-08T08:30:46Z</time>
      </trkpt>
      <trkpt lat="45.96997" lon="4.75563">
        <ele>177</ele>
        <time>2018-08-08T08:30:47Z</time>
      </trkpt>
      <trkpt lat="45.97002" lon="4.75566">
        <ele>176</ele>
        <time>2018-08-08T08:30:48Z</time>
      </trkpt>
      <trkpt lat="45.97006" lon="4.75567">
        <ele>176</ele>
        <time>2018-08-08T08:30:49Z</time>
      </trkpt>
      <trkpt lat="45.97013" lon="4.75568">
        <ele>175</ele>
        <time>2018-08-08T08:30:50Z</time>
      </trkpt>
      <trkpt lat="45.97017" lon="4.7557">
        <ele>175</ele>
        <time>2018-08-08T08:30:51Z</time>
      </trkpt>
      <trkpt lat="45.97023" lon="4.75573">
        <ele>175</ele>
        <time>2018-08-08T08:30:52Z</time>
      </trkpt>
      <trkpt lat="45.97029" lon="4.75576">
        <ele>174</ele>
        <time>2018-08-08T08:30:53Z</time>
      </trkpt>
      <trkpt lat="45.97034" lon="4.75578">
        <ele>174</ele>
        <time>2018-08-08T08:30:54Z</time>
      </trkpt>
      <trkpt lat="45.97038" lon="4.75582">
        <ele>174</ele>
        <time>2018-08-08T08:30:55Z</time>
      </trkpt>
      <trkpt lat="45.97044" lon="4.75583">
        <ele>174</ele>
        <time>2018-08-08T08:30:56Z</time>
      </trkpt>
      <trkpt lat="45.9705" lon="4.75586">
        <ele>181</ele>
        <time>2018-08-08T08:30:57Z</time>
      </trkpt>
      <trkpt lat="45.97054" lon="4.75588">
        <ele>180</ele>
        <time>2018-08-08T08:30:58Z</time>
      </trkpt>
      <trkpt lat="45.97059" lon="4.75593">
        <ele>180</ele>
        <time>2018-08-08T08:30:59Z</time>
      </trkpt>
      <trkpt lat="45.97066" lon="4.75597">
        <ele>180</ele>
        <time>2018-08-08T08:31:00Z</time>
      </trkpt>
      <trkpt lat="45.97073" lon="4.75599">
        <ele>179</ele>
        <time>2018-08-08T08:31:01Z</time>
      </trkpt>
      <trkpt lat="45.97079" lon="4.756">
        <ele>179</ele>
        <time>2018-08-08T08:31:02Z</time>
      </trkpt>
      <trkpt lat="45.97086" lon="4.75602">
        <ele>176</ele>
        <time>2018-08-08T08:31:03Z</time>
      </trkpt>
      <trkpt lat="45.97092" lon="4.75605">
        <ele>176</ele>
        <time>2018-08-08T08:31:04Z</time>
      </trkpt>
      <trkpt lat="45.97098" lon="4.75608">
        <ele>176</ele>
        <time>2018-08-08T08:31:05Z</time>
      </trkpt>
      <trkpt lat="45.97105" lon="4.7561">
        <ele>177</ele>
        <time>2018-08-08T08:31:06Z</time>
      </trkpt>
      <trkpt lat="45.97109" lon="4.75615">
        <ele>177</ele>
        <time>2018-08-08T08:31:07Z</time>
      </trkpt>
      <trkpt lat="45.97114" lon="4.75618">
        <ele>177</ele>
        <time>2018-08-08T08:31:08Z</time>
      </trkpt>
      <trkpt lat="45.97122" lon="4.75619">
        <ele>177</ele>
        <time>2018-08-08T08:31:09Z</time>
      </trkpt>
      <trkpt lat="45.97127" lon="4.75622">
        <ele>177</ele>
        <time>2018-08-08T08:31:10Z</time>
      </trkpt>
      <trkpt lat="45.97133" lon="4.75626">
        <ele>177</ele>
        <time>2018-08-08T08:31:11Z</time>
      </trkpt>
      <trkpt lat="45.9714" lon="4.75629">
        <ele>177</ele>
        <time>2018-08-08T08:31:12Z</time>
      </trkpt>
      <trkpt lat="45.97145" lon="4.75632">
        <ele>177</ele>
        <time>2018-08-08T08:31:13Z</time>
      </trkpt>
      <trkpt lat="45.97151" lon="4.75635">
        <ele>177</ele>
        <time>2018-08-08T08:31:14Z</time>
      </trkpt>
      <trkpt lat="45.97153" lon="4.75635">
        <ele>177</ele>
        <time>2018-08-08T08:31:15Z</time>
      </trkpt>
      <trkpt lat="45.97162" lon="4.75639">
        <ele>177</ele>
        <time>2018-08-08T08:31:16Z</time>
      </trkpt>
      <trkpt lat="45.97169" lon="4.75639">
        <ele>174</ele>
        <time>2018-08-08T08:31:17Z</time>
      </trkpt>
      <trkpt lat="45.97175" lon="4.75641">
        <ele>174</ele>
        <time>2018-08-08T08:31:18Z</time>
      </trkpt>
      <trkpt lat="45.97181" lon="4.75642">
        <ele>174</ele>
        <time>2018-08-08T08:31:19Z</time>
      </trkpt>
      <trkpt lat="45.97187" lon="4.75645">
        <ele>174</ele>
        <time>2018-08-08T08:31:20Z</time>
      </trkpt>
      <trkpt lat="45.97193" lon="4.75647">
        <ele>174</ele>
        <time>2018-08-08T08:31:21Z</time>
      </trkpt>
      <trkpt lat="45.97198" lon="4.75648">
        <ele>174</ele>
        <time>2018-08-08T08:31:22Z</time>
      </trkpt>
      <trkpt lat="45.97203" lon="4.75651">
        <ele>174</ele>
        <time>2018-08-08T08:31:23Z</time>
      </trkpt>
      <trkpt lat="45.97207" lon="4.75653">
        <ele>173</ele>
        <time>2018-08-08T08:31:24Z</time>
      </trkpt>
      <trkpt lat="45.97212" lon="4.75655">
        <ele>173</ele>
        <time>2018-08-08T08:31:25Z</time>
      </trkpt>
      <trkpt lat="45.97217" lon="4.75657">
        <ele>173</ele>
        <time>2018-08-08T08:31:26Z</time>
      </trkpt>
      <trkpt lat="45.97222" lon="4.75658">
        <ele>173</ele>
        <time>2018-08-08T08:31:27Z</time>
      </trkpt>
      <trkpt lat="45.97227" lon="4.7566">
        <ele>173</ele>
        <time>2018-08-08T08:31:28Z</time>
      </trkpt>
      <trkpt lat="45.97232" lon="4.75661">
        <ele>173</ele>
        <time>2018-08-08T08:31:29Z</time>
      </trkpt>
      <trkpt lat="45.97238" lon="4.75663">
        <ele>173</ele>
        <time>2018-08-08T08:31:30Z</time>
      </trkpt>
      <trkpt lat="45.97244" lon="4.75663">
        <ele>174</ele>
        <time>2018-08-08T08:31:31Z</time>
      </trkpt>
      <trkpt lat="45.97249" lon="4.75665">
        <ele>174</ele>
        <time>2018-08-08T08:31:32Z</time>
      </trkpt>
      <trkpt lat="45.97254" lon="4.75668">
        <ele>174</ele>
        <time>2018-08-08T08:31:33Z</time>
      </trkpt>
      <trkpt lat="45.9726" lon="4.75669">
        <ele>175</ele>
        <time>2018-08-08T08:31:34Z</time>
      </trkpt>
      <trkpt lat="45.97265" lon="4.75671">
        <ele>175</ele>
        <time>2018-08-08T08:31:35Z</time>
      </trkpt>
      <trkpt lat="45.97271" lon="4.75673">
        <ele>176</ele>
        <time>2018-08-08T08:31:36Z</time>
      </trkpt>
      <trkpt lat="45.97276" lon="4.75675">
        <ele>176</ele>
        <time>2018-08-08T08:31:37Z</time>
      </trkpt>
      <trkpt lat="45.97281" lon="4.75676">
        <ele>176</ele>
        <time>2018-08-08T08:31:38Z</time>
      </trkpt>
      <trkpt lat="45.97287" lon="4.75677">
        <ele>176</ele>
        <time>2018-08-08T08:31:39Z</time>
      </trkpt>
      <trkpt lat="45.97292" lon="4.75679">
        <ele>176</ele>
        <time>2018-08-08T08:31:40Z</time>
      </trkpt>
      <trkpt lat="45.97298" lon="4.7568">
        <ele>176</ele>
        <time>2018-08-08T08:31:41Z</time>
      </trkpt>
      <trkpt lat="45.97303" lon="4.75681">
        <ele>177</ele>
        <time>2018-08-08T08:31:42Z</time>
      </trkpt>
      <trkpt lat="45.97308" lon="4.75683">
        <ele>177</ele>
        <time>2018-08-08T08:31:43Z</time>
      </trkpt>
      <trkpt lat="45.97314" lon="4.75683">
        <ele>177</ele>
        <time>2018-08-08T08:31:44Z</time>
      </trkpt>
      <trkpt lat="45.9732" lon="4.75684">
        <ele>177</ele>
        <time>2018-08-08T08:31:45Z</time>
      </trkpt>
      <trkpt lat="45.97326" lon="4.75685">
        <ele>177</ele>
        <time>2018-08-08T08:31:46Z</time>
      </trkpt>
      <trkpt lat="45.97332" lon="4.75685">
        <ele>177</ele>
        <time>2018-08-08T08:31:47Z</time>
      </trkpt>
      <trkpt lat="45.97337" lon="4.75685">
        <ele>175</ele>
        <time>2018-08-08T08:31:48Z</time>
      </trkpt>
      <trkpt lat="45.97343" lon="4.75685">
        <ele>175</ele>
        <time>2018-08-08T08:31:49Z</time>
      </trkpt>
      <trkpt lat="45.97348" lon="4.75687">
        <ele>175</ele>
        <time>2018-08-08T08:31:50Z</time>
      </trkpt>
      <trkpt lat="45.97353" lon="4.75688">
        <ele>175</ele>
        <time>2018-08-08T08:31:51Z</time>
      </trkpt>
      <trkpt lat="45.97358" lon="4.75689">
        <ele>174</ele>
        <time>2018-08-08T08:31:52Z</time>
      </trkpt>
      <trkpt lat="45.97364" lon="4.75688">
        <ele>174</ele>
        <time>2018-08-08T08:31:53Z</time>
      </trkpt>
      <trkpt lat="45.97369" lon="4.75689">
        <ele>174</ele>
        <time>2018-08-08T08:31:54Z</time>
      </trkpt>
      <trkpt lat="45.97374" lon="4.75689">
        <ele>174</ele>
        <time>2018-08-08T08:31:55Z</time>
      </trkpt>
      <trkpt lat="45.9738" lon="4.75689">
        <ele>173</ele>
        <time>2018-08-08T08:31:56Z</time>
      </trkpt>
      <trkpt lat="45.97385" lon="4.75689">
        <ele>173</ele>
        <time>2018-08-08T08:31:57Z</time>
      </trkpt>
      <trkpt lat="45.9739" lon="4.75689">
        <ele>173</ele>
        <time>2018-08-08T08:31:58Z</time>
      </trkpt>
      <trkpt lat="45.97395" lon="4.75689">
        <ele>173</ele>
        <time>2018-08-08T08:31:59Z</time>
      </trkpt>
      <trkpt lat="45.974" lon="4.75689">
        <ele>172</ele>
        <time>2018-08-08T08:32:00Z</time>
      </trkpt>
      <trkpt lat="45.97406" lon="4.75688">
        <ele>172</ele>
        <time>2018-08-08T08:32:01Z</time>
      </trkpt>
      <trkpt lat="45.97411" lon="4.75688">
        <ele>172</ele>
        <time>2018-08-08T08:32:02Z</time>
      </trkpt>
      <trkpt lat="45.97417" lon="4.75688">
        <ele>170</ele>
        <time>2018-08-08T08:32:03Z</time>
      </trkpt>
      <trkpt lat="45.97423" lon="4.75689">
        <ele>170</ele>
        <time>2018-08-08T08:32:04Z</time>
      </trkpt>
      <trkpt lat="45.97429" lon="4.75687">
        <ele>170</ele>
        <time>2018-08-08T08:32:05Z</time>
      </trkpt>
      <trkpt lat="45.97435" lon="4.75688">
        <ele>170</ele>
        <time>2018-08-08T08:32:06Z</time>
      </trkpt>
      <trkpt lat="45.9744" lon="4.75688">
        <ele>170</ele>
        <time>2018-08-08T08:32:07Z</time>
      </trkpt>
      <trkpt lat="45.97445" lon="4.75688">
        <ele>171</ele>
        <time>2018-08-08T08:32:08Z</time>
      </trkpt>
      <trkpt lat="45.97451" lon="4.75688">
        <ele>171</ele>
        <time>2018-08-08T08:32:09Z</time>
      </trkpt>
      <trkpt lat="45.97456" lon="4.75687">
        <ele>171</ele>
        <time>2018-08-08T08:32:10Z</time>
      </trkpt>
      <trkpt lat="45.97462" lon="4.75687">
        <ele>171</ele>
        <time>2018-08-08T08:32:11Z</time>
      </trkpt>
      <trkpt lat="45.97468" lon="4.75686">
        <ele>171</ele>
        <time>2018-08-08T08:32:12Z</time>
      </trkpt>
      <trkpt lat="45.97473" lon="4.75686">
        <ele>171</ele>
        <time>2018-08-08T08:32:13Z</time>
      </trkpt>
      <trkpt lat="45.97479" lon="4.75685">
        <ele>171</ele>
        <time>2018-08-08T08:32:14Z</time>
      </trkpt>
      <trkpt lat="45.97485" lon="4.75685">
        <ele>171</ele>
        <time>2018-08-08T08:32:15Z</time>
      </trkpt>
      <trkpt lat="45.9749" lon="4.75685">
        <ele>171</ele>
        <time>2018-08-08T08:32:16Z</time>
      </trkpt>
      <trkpt lat="45.97495" lon="4.75684">
        <ele>171</ele>
        <time>2018-08-08T08:32:17Z</time>
      </trkpt>
      <trkpt lat="45.97499" lon="4.75682">
        <ele>170</ele>
        <time>2018-08-08T08:32:18Z</time>
      </trkpt>
      <trkpt lat="45.97503" lon="4.7568">
        <ele>171</ele>
        <time>2018-08-08T08:32:19Z</time>
      </trkpt>
      <trkpt lat="45.97509" lon="4.75678">
        <ele>171</ele>
        <time>2018-08-08T08:32:20Z</time>
      </trkpt>
      <trkpt lat="45.97513" lon="4.75676">
        <ele>171</ele>
        <time>2018-08-08T08:32:21Z</time>
      </trkpt>
      <trkpt lat="45.97519" lon="4.75673">
        <ele>171</ele>
        <time>2018-08-08T08:32:22Z</time>
      </trkpt>
      <trkpt lat="45.97525" lon="4.75669">
        <ele>171</ele>
        <time>2018-08-08T08:32:23Z</time>
      </trkpt>
      <trkpt lat="45.9753" lon="4.75667">
        <ele>171</ele>
        <time>2018-08-08T08:32:24Z</time>
      </trkpt>
      <trkpt lat="45.97535" lon="4.75666">
        <ele>169</ele>
        <time>2018-08-08T08:32:25Z</time>
      </trkpt>
      <trkpt lat="45.9754" lon="4.75668">
        <ele>171</ele>
        <time>2018-08-08T08:32:26Z</time>
      </trkpt>
      <trkpt lat="45.97545" lon="4.75671">
        <ele>171</ele>
        <time>2018-08-08T08:32:27Z</time>
      </trkpt>
      <trkpt lat="45.97547" lon="4.75677">
        <ele>171</ele>
        <time>2018-08-08T08:32:28Z</time>
      </trkpt>
      <trkpt lat="45.97553" lon="4.75686">
        <ele>171</ele>
        <time>2018-08-08T08:32:30Z</time>
      </trkpt>
      <trkpt lat="45.97556" lon="4.7569">
        <ele>172</ele>
        <time>2018-08-08T08:32:31Z</time>
      </trkpt>
      <trkpt lat="45.97561" lon="4.75692">
        <ele>172</ele>
        <time>2018-08-08T08:32:32Z</time>
      </trkpt>
      <trkpt lat="45.97565" lon="4.75694">
        <ele>172</ele>
        <time>2018-08-08T08:32:33Z</time>
      </trkpt>
      <trkpt lat="45.97569" lon="4.75694">
        <ele>172</ele>
        <time>2018-08-08T08:32:34Z</time>
      </trkpt>
      <trkpt lat="45.97574" lon="4.75693">
        <ele>172</ele>
        <time>2018-08-08T08:32:35Z</time>
      </trkpt>
      <trkpt lat="45.97579" lon="4.75692">
        <ele>172</ele>
        <time>2018-08-08T08:32:36Z</time>
      </trkpt>
      <trkpt lat="45.97584" lon="4.75691">
        <ele>171</ele>
        <time>2018-08-08T08:32:37Z</time>
      </trkpt>
      <trkpt lat="45.9759" lon="4.7569">
        <ele>171</ele>
        <time>2018-08-08T08:32:38Z</time>
      </trkpt>
      <trkpt lat="45.97595" lon="4.75688">
        <ele>171</ele>
        <time>2018-08-08T08:32:39Z</time>
      </trkpt>
      <trkpt lat="45.976" lon="4.75685">
        <ele>171</ele>
        <time>2018-08-08T08:32:40Z</time>
      </trkpt>
      <trkpt lat="45.97605" lon="4.75681">
        <ele>171</ele>
        <time>2018-08-08T08:32:41Z</time>
      </trkpt>
      <trkpt lat="45.9761" lon="4.75677">
        <ele>171</ele>
        <time>2018-08-08T08:32:42Z</time>
      </trkpt>
      <trkpt lat="45.97615" lon="4.75676">
        <ele>171</ele>
        <time>2018-08-08T08:32:43Z</time>
      </trkpt>
      <trkpt lat="45.97621" lon="4.75675">
        <ele>171</ele>
        <time>2018-08-08T08:32:44Z</time>
      </trkpt>
      <trkpt lat="45.97627" lon="4.75675">
        <ele>171</ele>
        <time>2018-08-08T08:32:45Z</time>
      </trkpt>
      <trkpt lat="45.97634" lon="4.75675">
        <ele>170</ele>
        <time>2018-08-08T08:32:46Z</time>
      </trkpt>
      <trkpt lat="45.97639" lon="4.75675">
        <ele>170</ele>
        <time>2018-08-08T08:32:47Z</time>
      </trkpt>
      <trkpt lat="45.97646" lon="4.75675">
        <ele>170</ele>
        <time>2018-08-08T08:32:48Z</time>
      </trkpt>
      <trkpt lat="45.97651" lon="4.75675">
        <ele>170</ele>
        <time>2018-08-08T08:32:49Z</time>
      </trkpt>
      <trkpt lat="45.97656" lon="4.75674">
        <ele>170</ele>
        <time>2018-08-08T08:32:50Z</time>
      </trkpt>
      <trkpt lat="45.97662" lon="4.75675">
        <ele>170</ele>
        <time>2018-08-08T08:32:51Z</time>
      </trkpt>
      <trkpt lat="45.97667" lon="4.75674">
        <ele>170</ele>
        <time>2018-08-08T08:32:52Z</time>
      </trkpt>
      <trkpt lat="45.97672" lon="4.75675">
        <ele>170</ele>
        <time>2018-08-08T08:32:53Z</time>
      </trkpt>
      <trkpt lat="45.97678" lon="4.75676">
        <ele>170</ele>
        <time>2018-08-08T08:32:54Z</time>
      </trkpt>
      <trkpt lat="45.97684" lon="4.75676">
        <ele>170</ele>
        <time>2018-08-08T08:32:55Z</time>
      </trkpt>
      <trkpt lat="45.9769" lon="4.75676">
        <ele>171</ele>
        <time>2018-08-08T08:32:56Z</time>
      </trkpt>
      <trkpt lat="45.97695" lon="4.75675">
        <ele>171</ele>
        <time>2018-08-08T08:32:57Z</time>
      </trkpt>
      <trkpt lat="45.97701" lon="4.75674">
        <ele>171</ele>
        <time>2018-08-08T08:32:58Z</time>
      </trkpt>
      <trkpt lat="45.97707" lon="4.75673">
        <ele>171</ele>
        <time>2018-08-08T08:32:59Z</time>
      </trkpt>
      <trkpt lat="45.97713" lon="4.75673">
        <ele>171</ele>
        <time>2018-08-08T08:33:00Z</time>
      </trkpt>
      <trkpt lat="45.97719" lon="4.75673">
        <ele>171</ele>
        <time>2018-08-08T08:33:01Z</time>
      </trkpt>
      <trkpt lat="45.97724" lon="4.75671">
        <ele>172</ele>
        <time>2018-08-08T08:33:02Z</time>
      </trkpt>
      <trkpt lat="45.9773" lon="4.75672">
        <ele>172</ele>
        <time>2018-08-08T08:33:03Z</time>
      </trkpt>
      <trkpt lat="45.97735" lon="4.75672">
        <ele>172</ele>
        <time>2018-08-08T08:33:04Z</time>
      </trkpt>
      <trkpt lat="45.97741" lon="4.75672">
        <ele>172</ele>
        <time>2018-08-08T08:33:05Z</time>
      </trkpt>
      <trkpt lat="45.97747" lon="4.75673">
        <ele>172</ele>
        <time>2018-08-08T08:33:06Z</time>
      </trkpt>
      <trkpt lat="45.97751" lon="4.75673">
        <ele>173</ele>
        <time>2018-08-08T08:33:07Z</time>
      </trkpt>
      <trkpt lat="45.97756" lon="4.75673">
        <ele>173</ele>
        <time>2018-08-08T08:33:08Z</time>
      </trkpt>
      <trkpt lat="45.97762" lon="4.75674">
        <ele>173</ele>
        <time>2018-08-08T08:33:09Z</time>
      </trkpt>
      <trkpt lat="45.97767" lon="4.75674">
        <ele>173</ele>
        <time>2018-08-08T08:33:10Z</time>
      </trkpt>
      <trkpt lat="45.97772" lon="4.75675">
        <ele>174</ele>
        <time>2018-08-08T08:33:11Z</time>
      </trkpt>
      <trkpt lat="45.97777" lon="4.75676">
        <ele>174</ele>
        <time>2018-08-08T08:33:12Z</time>
      </trkpt>
      <trkpt lat="45.97783" lon="4.75676">
        <ele>174</ele>
        <time>2018-08-08T08:33:13Z</time>
      </trkpt>
      <trkpt lat="45.97788" lon="4.75677">
        <ele>174</ele>
        <time>2018-08-08T08:33:14Z</time>
      </trkpt>
      <trkpt lat="45.97793" lon="4.75679">
        <ele>174</ele>
        <time>2018-08-08T08:33:15Z</time>
      </trkpt>
      <trkpt lat="45.97798" lon="4.7568">
        <ele>175</ele>
        <time>2018-08-08T08:33:16Z</time>
      </trkpt>
      <trkpt lat="45.97803" lon="4.75681">
        <ele>175</ele>
        <time>2018-08-08T08:33:17Z</time>
      </trkpt>
      <trkpt lat="45.97808" lon="4.75681">
        <ele>175</ele>
        <time>2018-08-08T08:33:18Z</time>
      </trkpt>
      <trkpt lat="45.97813" lon="4.75682">
        <ele>175</ele>
        <time>2018-08-08T08:33:19Z</time>
      </trkpt>
      <trkpt lat="45.97819" lon="4.75682">
        <ele>175</ele>
        <time>2018-08-08T08:33:20Z</time>
      </trkpt>
      <trkpt lat="45.97824" lon="4.75684">
        <ele>175</ele>
        <time>2018-08-08T08:33:21Z</time>
      </trkpt>
      <trkpt lat="45.97829" lon="4.75686">
        <ele>175</ele>
        <time>2018-08-08T08:33:22Z</time>
      </trkpt>
      <trkpt lat="45.97834" lon="4.75687">
        <ele>175</ele>
        <time>2018-08-08T08:33:23Z</time>
      </trkpt>
      <trkpt lat="45.97839" lon="4.75687">
        <ele>175</ele>
        <time>2018-08-08T08:33:24Z</time>
      </trkpt>
      <trkpt lat="45.97844" lon="4.75688">
        <ele>175</ele>
        <time>2018-08-08T08:33:25Z</time>
      </trkpt>
      <trkpt lat="45.9785" lon="4.75688">
        <ele>175</ele>
        <time>2018-08-08T08:33:26Z</time>
      </trkpt>
      <trkpt lat="45.97856" lon="4.75689">
        <ele>175</ele>
        <time>2018-08-08T08:33:27Z</time>
      </trkpt>
      <trkpt lat="45.97861" lon="4.75689">
        <ele>175</ele>
        <time>2018-08-08T08:33:28Z</time>
      </trkpt>
      <trkpt lat="45.97866" lon="4.7569">
        <ele>175</ele>
        <time>2018-08-08T08:33:29Z</time>
      </trkpt>
      <trkpt lat="45.97872" lon="4.75693">
        <ele>175</ele>
        <time>2018-08-08T08:33:30Z</time>
      </trkpt>
      <trkpt lat="45.97877" lon="4.75695">
        <ele>175</ele>
        <time>2018-08-08T08:33:31Z</time>
      </trkpt>
      <trkpt lat="45.97883" lon="4.75698">
        <ele>175</ele>
        <time>2018-08-08T08:33:32Z</time>
      </trkpt>
      <trkpt lat="45.97889" lon="4.757">
        <ele>175</ele>
        <time>2018-08-08T08:33:33Z</time>
      </trkpt>
      <trkpt lat="45.97895" lon="4.75702">
        <ele>175</ele>
        <time>2018-08-08T08:33:34Z</time>
      </trkpt>
      <trkpt lat="45.97901" lon="4.75705">
        <ele>175</ele>
        <time>2018-08-08T08:33:35Z</time>
      </trkpt>
      <trkpt lat="45.97906" lon="4.75709">
        <ele>175</ele>
        <time>2018-08-08T08:33:36Z</time>
      </trkpt>
      <trkpt lat="45.97911" lon="4.75712">
        <ele>175</ele>
        <time>2018-08-08T08:33:37Z</time>
      </trkpt>
      <trkpt lat="45.97916" lon="4.75715">
        <ele>175</ele>
        <time>2018-08-08T08:33:38Z</time>
      </trkpt>
      <trkpt lat="45.9792" lon="4.75717">
        <ele>174</ele>
        <time>2018-08-08T08:33:39Z</time>
      </trkpt>
      <trkpt lat="45.97924" lon="4.75719">
        <ele>174</ele>
        <time>2018-08-08T08:33:40Z</time>
      </trkpt>
      <trkpt lat="45.97929" lon="4.75721">
        <ele>174</ele>
        <time>2018-08-08T08:33:41Z</time>
      </trkpt>
      <trkpt lat="45.97934" lon="4.75723">
        <ele>174</ele>
        <time>2018-08-08T08:33:42Z</time>
      </trkpt>
      <trkpt lat="45.97938" lon="4.75726">
        <ele>174</ele>
        <time>2018-08-08T08:33:43Z</time>
      </trkpt>
      <trkpt lat="45.97943" lon="4.7573">
        <ele>174</ele>
        <time>2018-08-08T08:33:44Z</time>
      </trkpt>
      <trkpt lat="45.97946" lon="4.75734">
        <ele>174</ele>
        <time>2018-08-08T08:33:45Z</time>
      </trkpt>
      <trkpt lat="45.97951" lon="4.75738">
        <ele>174</ele>
        <time>2018-08-08T08:33:46Z</time>
      </trkpt>
      <trkpt lat="45.97954" lon="4.75742">
        <ele>174</ele>
        <time>2018-08-08T08:33:47Z</time>
      </trkpt>
      <trkpt lat="45.97963" lon="4.75745">
        <ele>174</ele>
        <time>2018-08-08T08:33:49Z</time>
      </trkpt>
      <trkpt lat="45.97967" lon="4.75745">
        <ele>174</ele>
        <time>2018-08-08T08:33:50Z</time>
      </trkpt>
      <trkpt lat="45.9797" lon="4.75743">
        <ele>174</ele>
        <time>2018-08-08T08:33:51Z</time>
      </trkpt>
      <trkpt lat="45.97974" lon="4.75736">
        <ele>174</ele>
        <time>2018-08-08T08:33:52Z</time>
      </trkpt>
      <trkpt lat="45.97977" lon="4.75735">
        <ele>174</ele>
        <time>2018-08-08T08:33:53Z</time>
      </trkpt>
      <trkpt lat="45.97983" lon="4.75733">
        <ele>174</ele>
        <time>2018-08-08T08:33:54Z</time>
      </trkpt>
      <trkpt lat="45.97989" lon="4.7573">
        <ele>174</ele>
        <time>2018-08-08T08:33:55Z</time>
      </trkpt>
      <trkpt lat="45.97994" lon="4.75728">
        <ele>174</ele>
        <time>2018-08-08T08:33:56Z</time>
      </trkpt>
      <trkpt lat="45.98" lon="4.75726">
        <ele>174</ele>
        <time>2018-08-08T08:33:57Z</time>
      </trkpt>
      <trkpt lat="45.98006" lon="4.75723">
        <ele>174</ele>
        <time>2018-08-08T08:33:58Z</time>
      </trkpt>
      <trkpt lat="45.9801" lon="4.75721">
        <ele>174</ele>
        <time>2018-08-08T08:33:59Z</time>
      </trkpt>
      <trkpt lat="45.98017" lon="4.7572">
        <ele>174</ele>
        <time>2018-08-08T08:34:00Z</time>
      </trkpt>
      <trkpt lat="45.98021" lon="4.75718">
        <ele>174</ele>
        <time>2018-08-08T08:34:01Z</time>
      </trkpt>
      <trkpt lat="45.98026" lon="4.75717">
        <ele>174</ele>
        <time>2018-08-08T08:34:02Z</time>
      </trkpt>
      <trkpt lat="45.9803" lon="4.75712">
        <ele>174</ele>
        <time>2018-08-08T08:34:03Z</time>
      </trkpt>
      <trkpt lat="45.98035" lon="4.75711">
        <ele>174</ele>
        <time>2018-08-08T08:34:04Z</time>
      </trkpt>
      <trkpt lat="45.9804" lon="4.75709">
        <ele>174</ele>
        <time>2018-08-08T08:34:05Z</time>
      </trkpt>
      <trkpt lat="45.98045" lon="4.7571">
        <ele>174</ele>
        <time>2018-08-08T08:34:06Z</time>
      </trkpt>
      <trkpt lat="45.9805" lon="4.75709">
        <ele>174</ele>
        <time>2018-08-08T08:34:07Z</time>
      </trkpt>
      <trkpt lat="45.98055" lon="4.75708">
        <ele>174</ele>
        <time>2018-08-08T08:34:08Z</time>
      </trkpt>
      <trkpt lat="45.98059" lon="4.7571">
        <ele>174</ele>
        <time>2018-08-08T08:34:09Z</time>
      </trkpt>
      <trkpt lat="45.98064" lon="4.75707">
        <ele>174</ele>
        <time>2018-08-08T08:34:10Z</time>
      </trkpt>
      <trkpt lat="45.9807" lon="4.75706">
        <ele>174</ele>
        <time>2018-08-08T08:34:11Z</time>
      </trkpt>
      <trkpt lat="45.98075" lon="4.75705">
        <ele>174</ele>
        <time>2018-08-08T08:34:12Z</time>
      </trkpt>
      <trkpt lat="45.9808" lon="4.75705">
        <ele>174</ele>
        <time>2018-08-08T08:34:13Z</time>
      </trkpt>
      <trkpt lat="45.98086" lon="4.75704">
        <ele>174</ele>
        <time>2018-08-08T08:34:14Z</time>
      </trkpt>
      <trkpt lat="45.98092" lon="4.75703">
        <ele>174</ele>
        <time>2018-08-08T08:34:15Z</time>
      </trkpt>
      <trkpt lat="45.98098" lon="4.75703">
        <ele>174</ele>
        <time>2018-08-08T08:34:16Z</time>
      </trkpt>
      <trkpt lat="45.98104" lon="4.75704">
        <ele>174</ele>
        <time>2018-08-08T08:34:17Z</time>
      </trkpt>
      <trkpt lat="45.98111" lon="4.75704">
        <ele>174</ele>
        <time>2018-08-08T08:34:18Z</time>
      </trkpt>
      <trkpt lat="45.98116" lon="4.75702">
        <ele>174</ele>
        <time>2018-08-08T08:34:19Z</time>
      </trkpt>
      <trkpt lat="45.98122" lon="4.75701">
        <ele>174</ele>
        <time>2018-08-08T08:34:20Z</time>
      </trkpt>
      <trkpt lat="45.98127" lon="4.75701">
        <ele>174</ele>
        <time>2018-08-08T08:34:21Z</time>
      </trkpt>
      <trkpt lat="45.98132" lon="4.757">
        <ele>174</ele>
        <time>2018-08-08T08:34:22Z</time>
      </trkpt>
      <trkpt lat="45.98137" lon="4.75699">
        <ele>174</ele>
        <time>2018-08-08T08:34:23Z</time>
      </trkpt>
      <trkpt lat="45.98143" lon="4.75699">
        <ele>174</ele>
        <time>2018-08-08T08:34:24Z</time>
      </trkpt>
      <trkpt lat="45.98148" lon="4.75698">
        <ele>174</ele>
        <time>2018-08-08T08:34:25Z</time>
      </trkpt>
      <trkpt lat="45.98155" lon="4.75696">
        <ele>174</ele>
        <time>2018-08-08T08:34:26Z</time>
      </trkpt>
      <trkpt lat="45.98161" lon="4.75698">
        <ele>174</ele>
        <time>2018-08-08T08:34:27Z</time>
      </trkpt>
      <trkpt lat="45.98165" lon="4.75696">
        <ele>174</ele>
        <time>2018-08-08T08:34:28Z</time>
      </trkpt>
      <trkpt lat="45.98171" lon="4.75695">
        <ele>174</ele>
        <time>2018-08-08T08:34:29Z</time>
      </trkpt>
      <trkpt lat="45.98177" lon="4.75691">
        <ele>174</ele>
        <time>2018-08-08T08:34:30Z</time>
      </trkpt>
      <trkpt lat="45.98186" lon="4.75689">
        <ele>174</ele>
        <time>2018-08-08T08:34:32Z</time>
      </trkpt>
      <trkpt lat="45.98191" lon="4.75687">
        <ele>174</ele>
        <time>2018-08-08T08:34:33Z</time>
      </trkpt>
      <trkpt lat="45.98197" lon="4.75688">
        <ele>174</ele>
        <time>2018-08-08T08:34:34Z</time>
      </trkpt>
      <trkpt lat="45.98201" lon="4.75688">
        <ele>174</ele>
        <time>2018-08-08T08:34:35Z</time>
      </trkpt>
      <trkpt lat="45.98207" lon="4.75687">
        <ele>174</ele>
        <time>2018-08-08T08:34:36Z</time>
      </trkpt>
      <trkpt lat="45.98211" lon="4.75689">
        <ele>174</ele>
        <time>2018-08-08T08:34:37Z</time>
      </trkpt>
      <trkpt lat="45.98215" lon="4.75687">
        <ele>174</ele>
        <time>2018-08-08T08:34:38Z</time>
      </trkpt>
      <trkpt lat="45.98221" lon="4.75687">
        <ele>174</ele>
        <time>2018-08-08T08:34:39Z</time>
      </trkpt>
      <trkpt lat="45.98227" lon="4.75684">
        <ele>174</ele>
        <time>2018-08-08T08:34:40Z</time>
      </trkpt>
      <trkpt lat="45.98231" lon="4.75684">
        <ele>174</ele>
        <time>2018-08-08T08:34:41Z</time>
      </trkpt>
      <trkpt lat="45.98237" lon="4.75683">
        <ele>174</ele>
        <time>2018-08-08T08:34:42Z</time>
      </trkpt>
      <trkpt lat="45.98242" lon="4.75681">
        <ele>173</ele>
        <time>2018-08-08T08:34:43Z</time>
      </trkpt>
      <trkpt lat="45.98248" lon="4.75681">
        <ele>173</ele>
        <time>2018-08-08T08:34:44Z</time>
      </trkpt>
      <trkpt lat="45.98254" lon="4.75682">
        <ele>173</ele>
        <time>2018-08-08T08:34:45Z</time>
      </trkpt>
      <trkpt lat="45.9826" lon="4.75681">
        <ele>173</ele>
        <time>2018-08-08T08:34:46Z</time>
      </trkpt>
      <trkpt lat="45.98266" lon="4.75681">
        <ele>173</ele>
        <time>2018-08-08T08:34:47Z</time>
      </trkpt>
      <trkpt lat="45.98271" lon="4.75683">
        <ele>174</ele>
        <time>2018-08-08T08:34:48Z</time>
      </trkpt>
      <trkpt lat="45.98277" lon="4.75684">
        <ele>174</ele>
        <time>2018-08-08T08:34:49Z</time>
      </trkpt>
      <trkpt lat="45.98282" lon="4.75683">
        <ele>174</ele>
        <time>2018-08-08T08:34:50Z</time>
      </trkpt>
      <trkpt lat="45.98288" lon="4.75684">
        <ele>174</ele>
        <time>2018-08-08T08:34:51Z</time>
      </trkpt>
      <trkpt lat="45.98294" lon="4.75684">
        <ele>174</ele>
        <time>2018-08-08T08:34:52Z</time>
      </trkpt>
      <trkpt lat="45.98299" lon="4.75685">
        <ele>174</ele>
        <time>2018-08-08T08:34:53Z</time>
      </trkpt>
      <trkpt lat="45.98305" lon="4.75687">
        <ele>174</ele>
        <time>2018-08-08T08:34:54Z</time>
      </trkpt>
      <trkpt lat="45.98311" lon="4.75687">
        <ele>174</ele>
        <time>2018-08-08T08:34:55Z</time>
      </trkpt>
      <trkpt lat="45.98317" lon="4.75688">
        <ele>174</ele>
        <time>2018-08-08T08:34:56Z</time>
      </trkpt>
      <trkpt lat="45.98323" lon="4.75688">
        <ele>174</ele>
        <time>2018-08-08T08:34:57Z</time>
      </trkpt>
      <trkpt lat="45.98328" lon="4.7569">
        <ele>174</ele>
        <time>2018-08-08T08:34:58Z</time>
      </trkpt>
      <trkpt lat="45.98335" lon="4.75692">
        <ele>174</ele>
        <time>2018-08-08T08:34:59Z</time>
      </trkpt>
      <trkpt lat="45.9834" lon="4.75693">
        <ele>174</ele>
        <time>2018-08-08T08:35:00Z</time>
      </trkpt>
      <trkpt lat="45.98345" lon="4.75694">
        <ele>174</ele>
        <time>2018-08-08T08:35:01Z</time>
      </trkpt>
      <trkpt lat="45.98353" lon="4.75694">
        <ele>174</ele>
        <time>2018-08-08T08:35:03Z</time>
      </trkpt>
      <trkpt lat="45.98359" lon="4.75696">
        <ele>174</ele>
        <time>2018-08-08T08:35:04Z</time>
      </trkpt>
      <trkpt lat="45.98368" lon="4.75695">
        <ele>174</ele>
        <time>2018-08-08T08:35:06Z</time>
      </trkpt>
      <trkpt lat="45.98368" lon="4.75695">
        <ele>174</ele>
        <time>2018-08-08T08:35:07Z</time>
      </trkpt>
      <trkpt lat="45.98376" lon="4.75702">
        <ele>174</ele>
        <time>2018-08-08T08:35:12Z</time>
      </trkpt>
      <trkpt lat="45.98378" lon="4.75704">
        <ele>174</ele>
        <time>2018-08-08T08:35:13Z</time>
      </trkpt>
      <trkpt lat="45.9838" lon="4.75705">
        <ele>174</ele>
        <time>2018-08-08T08:35:14Z</time>
      </trkpt>
      <trkpt lat="45.98387" lon="4.75706">
        <ele>174</ele>
        <time>2018-08-08T08:35:15Z</time>
      </trkpt>
      <trkpt lat="45.98394" lon="4.75702">
        <ele>174</ele>
        <time>2018-08-08T08:35:17Z</time>
      </trkpt>
      <trkpt lat="45.984" lon="4.75703">
        <ele>174</ele>
        <time>2018-08-08T08:35:18Z</time>
      </trkpt>
      <trkpt lat="45.98407" lon="4.75706">
        <ele>174</ele>
        <time>2018-08-08T08:35:20Z</time>
      </trkpt>
      <trkpt lat="45.98412" lon="4.75708">
        <ele>174</ele>
        <time>2018-08-08T08:35:21Z</time>
      </trkpt>
      <trkpt lat="45.98418" lon="4.75706">
        <ele>175</ele>
        <time>2018-08-08T08:35:22Z</time>
      </trkpt>
      <trkpt lat="45.98422" lon="4.75708">
        <ele>175</ele>
        <time>2018-08-08T08:35:23Z</time>
      </trkpt>
      <trkpt lat="45.98428" lon="4.75708">
        <ele>175</ele>
        <time>2018-08-08T08:35:24Z</time>
      </trkpt>
      <trkpt lat="45.98433" lon="4.7571">
        <ele>174</ele>
        <time>2018-08-08T08:35:25Z</time>
      </trkpt>
      <trkpt lat="45.98439" lon="4.75712">
        <ele>174</ele>
        <time>2018-08-08T08:35:26Z</time>
      </trkpt>
      <trkpt lat="45.98444" lon="4.75715">
        <ele>174</ele>
        <time>2018-08-08T08:35:27Z</time>
      </trkpt>
      <trkpt lat="45.9845" lon="4.75717">
        <ele>174</ele>
        <time>2018-08-08T08:35:28Z</time>
      </trkpt>
      <trkpt lat="45.98455" lon="4.75717">
        <ele>174</ele>
        <time>2018-08-08T08:35:29Z</time>
      </trkpt>
      <trkpt lat="45.9846" lon="4.75715">
        <ele>175</ele>
        <time>2018-08-08T08:35:30Z</time>
      </trkpt>
      <trkpt lat="45.98464" lon="4.75716">
        <ele>175</ele>
        <time>2018-08-08T08:35:31Z</time>
      </trkpt>
      <trkpt lat="45.98469" lon="4.75716">
        <ele>175</ele>
        <time>2018-08-08T08:35:32Z</time>
      </trkpt>
      <trkpt lat="45.98474" lon="4.75716">
        <ele>175</ele>
        <time>2018-08-08T08:35:33Z</time>
      </trkpt>
      <trkpt lat="45.9848" lon="4.75718">
        <ele>175</ele>
        <time>2018-08-08T08:35:34Z</time>
      </trkpt>
      <trkpt lat="45.98484" lon="4.75721">
        <ele>175</ele>
        <time>2018-08-08T08:35:35Z</time>
      </trkpt>
      <trkpt lat="45.9849" lon="4.75728">
        <ele>175</ele>
        <time>2018-08-08T08:35:38Z</time>
      </trkpt>
      <trkpt lat="45.98493" lon="4.7573">
        <ele>175</ele>
        <time>2018-08-08T08:35:39Z</time>
      </trkpt>
      <trkpt lat="45.98496" lon="4.7574">
        <ele>175</ele>
        <time>2018-08-08T08:35:42Z</time>
      </trkpt>
      <trkpt lat="45.98496" lon="4.75743">
        <ele>175</ele>
        <time>2018-08-08T08:35:43Z</time>
      </trkpt>
      <trkpt lat="45.98495" lon="4.75754">
        <ele>175</ele>
        <time>2018-08-08T08:35:46Z</time>
      </trkpt>
      <trkpt lat="45.98495" lon="4.75759">
        <ele>175</ele>
        <time>2018-08-08T08:35:47Z</time>
      </trkpt>
      <trkpt lat="45.98495" lon="4.75764">
        <ele>176</ele>
        <time>2018-08-08T08:35:48Z</time>
      </trkpt>
      <trkpt lat="45.98495" lon="4.75776">
        <ele>176</ele>
        <time>2018-08-08T08:35:49Z</time>
      </trkpt>
      <trkpt lat="45.98496" lon="4.75788">
        <ele>176</ele>
        <time>2018-08-08T08:35:51Z</time>
      </trkpt>
      <trkpt lat="45.98497" lon="4.75794">
        <ele>176</ele>
        <time>2018-08-08T08:35:52Z</time>
      </trkpt>
      <trkpt lat="45.98504" lon="4.75802">
        <ele>177</ele>
        <time>2018-08-08T08:35:54Z</time>
      </trkpt>
      <trkpt lat="45.98508" lon="4.75804">
        <ele>177</ele>
        <time>2018-08-08T08:35:55Z</time>
      </trkpt>
      <trkpt lat="45.98516" lon="4.75801">
        <ele>176</ele>
        <time>2018-08-08T08:35:56Z</time>
      </trkpt>
      <trkpt lat="45.9852" lon="4.75802">
        <ele>176</ele>
        <time>2018-08-08T08:35:57Z</time>
      </trkpt>
      <trkpt lat="45.98525" lon="4.75801">
        <ele>176</ele>
        <time>2018-08-08T08:35:58Z</time>
      </trkpt>
      <trkpt lat="45.98529" lon="4.75801">
        <ele>176</ele>
        <time>2018-08-08T08:35:59Z</time>
      </trkpt>
      <trkpt lat="45.98535" lon="4.75804">
        <ele>176</ele>
        <time>2018-08-08T08:36:00Z</time>
      </trkpt>
      <trkpt lat="45.9854" lon="4.75803">
        <ele>176</ele>
        <time>2018-08-08T08:36:01Z</time>
      </trkpt>
      <trkpt lat="45.98544" lon="4.75805">
        <ele>176</ele>
        <time>2018-08-08T08:36:02Z</time>
      </trkpt>
      <trkpt lat="45.98549" lon="4.75806">
        <ele>176</ele>
        <time>2018-08-08T08:36:03Z</time>
      </trkpt>
      <trkpt lat="45.98554" lon="4.75808">
        <ele>176</ele>
        <time>2018-08-08T08:36:04Z</time>
      </trkpt>
      <trkpt lat="45.98558" lon="4.7581">
        <ele>176</ele>
        <time>2018-08-08T08:36:05Z</time>
      </trkpt>
      <trkpt lat="45.98563" lon="4.75814">
        <ele>176</ele>
        <time>2018-08-08T08:36:06Z</time>
      </trkpt>
      <trkpt lat="45.98567" lon="4.75819">
        <ele>176</ele>
        <time>2018-08-08T08:36:07Z</time>
      </trkpt>
      <trkpt lat="45.98571" lon="4.75822">
        <ele>176</ele>
        <time>2018-08-08T08:36:08Z</time>
      </trkpt>
      <trkpt lat="45.98576" lon="4.75827">
        <ele>176</ele>
        <time>2018-08-08T08:36:09Z</time>
      </trkpt>
      <trkpt lat="45.9858" lon="4.75832">
        <ele>176</ele>
        <time>2018-08-08T08:36:10Z</time>
      </trkpt>
      <trkpt lat="45.98583" lon="4.75837">
        <ele>176</ele>
        <time>2018-08-08T08:36:11Z</time>
      </trkpt>
      <trkpt lat="45.98591" lon="4.75843">
        <ele>177</ele>
        <time>2018-08-08T08:36:13Z</time>
      </trkpt>
      <trkpt lat="45.98595" lon="4.75845">
        <ele>177</ele>
        <time>2018-08-08T08:36:14Z</time>
      </trkpt>
      <trkpt lat="45.98602" lon="4.7584">
        <ele>178</ele>
        <time>2018-08-08T08:36:16Z</time>
      </trkpt>
      <trkpt lat="45.98605" lon="4.75834">
        <ele>178</ele>
        <time>2018-08-08T08:36:17Z</time>
      </trkpt>
      <trkpt lat="45.98606" lon="4.75824">
        <ele>176</ele>
        <time>2018-08-08T08:36:18Z</time>
      </trkpt>
      <trkpt lat="45.98606" lon="4.75819">
        <ele>176</ele>
        <time>2018-08-08T08:36:19Z</time>
      </trkpt>
      <trkpt lat="45.98607" lon="4.75812">
        <ele>176</ele>
        <time>2018-08-08T08:36:20Z</time>
      </trkpt>
      <trkpt lat="45.98607" lon="4.75805">
        <ele>176</ele>
        <time>2018-08-08T08:36:21Z</time>
      </trkpt>
      <trkpt lat="45.98605" lon="4.75797">
        <ele>176</ele>
        <time>2018-08-08T08:36:22Z</time>
      </trkpt>
      <trkpt lat="45.98605" lon="4.75789">
        <ele>176</ele>
        <time>2018-08-08T08:36:23Z</time>
      </trkpt>
      <trkpt lat="45.98604" lon="4.75781">
        <ele>175</ele>
        <time>2018-08-08T08:36:24Z</time>
      </trkpt>
      <trkpt lat="45.98604" lon="4.75775">
        <ele>175</ele>
        <time>2018-08-08T08:36:25Z</time>
      </trkpt>
      <trkpt lat="45.98604" lon="4.75768">
        <ele>175</ele>
        <time>2018-08-08T08:36:26Z</time>
      </trkpt>
      <trkpt lat="45.98603" lon="4.75761">
        <ele>175</ele>
        <time>2018-08-08T08:36:27Z</time>
      </trkpt>
      <trkpt lat="45.98601" lon="4.75754">
        <ele>175</ele>
        <time>2018-08-08T08:36:28Z</time>
      </trkpt>
      <trkpt lat="45.986" lon="4.75746">
        <ele>174</ele>
        <time>2018-08-08T08:36:29Z</time>
      </trkpt>
      <trkpt lat="45.98602" lon="4.75738">
        <ele>174</ele>
        <time>2018-08-08T08:36:30Z</time>
      </trkpt>
      <trkpt lat="45.98603" lon="4.75731">
        <ele>174</ele>
        <time>2018-08-08T08:36:31Z</time>
      </trkpt>
      <trkpt lat="45.98612" lon="4.7573">
        <ele>175</ele>
        <time>2018-08-08T08:36:33Z</time>
      </trkpt>
      <trkpt lat="45.98617" lon="4.75733">
        <ele>175</ele>
        <time>2018-08-08T08:36:34Z</time>
      </trkpt>
      <trkpt lat="45.98626" lon="4.75732">
        <ele>175</ele>
        <time>2018-08-08T08:36:36Z</time>
      </trkpt>
      <trkpt lat="45.9863" lon="4.75732">
        <ele>175</ele>
        <time>2018-08-08T08:36:37Z</time>
      </trkpt>
      <trkpt lat="45.98635" lon="4.75733">
        <ele>175</ele>
        <time>2018-08-08T08:36:38Z</time>
      </trkpt>
      <trkpt lat="45.98639" lon="4.75732">
        <ele>175</ele>
        <time>2018-08-08T08:36:39Z</time>
      </trkpt>
      <trkpt lat="45.98646" lon="4.75735">
        <ele>176</ele>
        <time>2018-08-08T08:36:40Z</time>
      </trkpt>
      <trkpt lat="45.9865" lon="4.75737">
        <ele>176</ele>
        <time>2018-08-08T08:36:41Z</time>
      </trkpt>
      <trkpt lat="45.98658" lon="4.75739">
        <ele>176</ele>
        <time>2018-08-08T08:36:43Z</time>
      </trkpt>
      <trkpt lat="45.98662" lon="4.75736">
        <ele>176</ele>
        <time>2018-08-08T08:36:44Z</time>
      </trkpt>
      <trkpt lat="45.9867" lon="4.75736">
        <ele>177</ele>
        <time>2018-08-08T08:36:46Z</time>
      </trkpt>
      <trkpt lat="45.98675" lon="4.75735">
        <ele>177</ele>
        <time>2018-08-08T08:36:47Z</time>
      </trkpt>
      <trkpt lat="45.98681" lon="4.75735">
        <ele>177</ele>
        <time>2018-08-08T08:36:48Z</time>
      </trkpt>
      <trkpt lat="45.98684" lon="4.75735">
        <ele>177</ele>
        <time>2018-08-08T08:36:49Z</time>
      </trkpt>
      <trkpt lat="45.98692" lon="4.75736">
        <ele>177</ele>
        <time>2018-08-08T08:36:51Z</time>
      </trkpt>
      <trkpt lat="45.98695" lon="4.75739">
        <ele>177</ele>
        <time>2018-08-08T08:36:52Z</time>
      </trkpt>
      <trkpt lat="45.98703" lon="4.75737">
        <ele>177</ele>
        <time>2018-08-08T08:36:54Z</time>
      </trkpt>
      <trkpt lat="45.98707" lon="4.75739">
        <ele>177</ele>
        <time>2018-08-08T08:36:55Z</time>
      </trkpt>
      <trkpt lat="45.98714" lon="4.75738">
        <ele>177</ele>
        <time>2018-08-08T08:36:56Z</time>
      </trkpt>
      <trkpt lat="45.9872" lon="4.75736">
        <ele>177</ele>
        <time>2018-08-08T08:36:57Z</time>
      </trkpt>
      <trkpt lat="45.98729" lon="4.75736">
        <ele>177</ele>
        <time>2018-08-08T08:36:59Z</time>
      </trkpt>
      <trkpt lat="45.98732" lon="4.75736">
        <ele>177</ele>
        <time>2018-08-08T08:37:00Z</time>
      </trkpt>
      <trkpt lat="45.98738" lon="4.75733">
        <ele>177</ele>
        <time>2018-08-08T08:37:01Z</time>
      </trkpt>
      <trkpt lat="45.98742" lon="4.75733">
        <ele>177</ele>
        <time>2018-08-08T08:37:02Z</time>
      </trkpt>
      <trkpt lat="45.98746" lon="4.75729">
        <ele>177</ele>
        <time>2018-08-08T08:37:03Z</time>
      </trkpt>
      <trkpt lat="45.98751" lon="4.7573">
        <ele>178</ele>
        <time>2018-08-08T08:37:04Z</time>
      </trkpt>
      <trkpt lat="45.98755" lon="4.7573">
        <ele>178</ele>
        <time>2018-08-08T08:37:06Z</time>
      </trkpt>
      <trkpt lat="45.98764" lon="4.7573">
        <ele>178</ele>
        <time>2018-08-08T08:37:07Z</time>
      </trkpt>
      <trkpt lat="45.98773" lon="4.75732">
        <ele>178</ele>
        <time>2018-08-08T08:37:09Z</time>
      </trkpt>
      <trkpt lat="45.98778" lon="4.7573">
        <ele>178</ele>
        <time>2018-08-08T08:37:10Z</time>
      </trkpt>
      <trkpt lat="45.98782" lon="4.75729">
        <ele>178</ele>
        <time>2018-08-08T08:37:11Z</time>
      </trkpt>
      <trkpt lat="45.98788" lon="4.75728">
        <ele>178</ele>
        <time>2018-08-08T08:37:12Z</time>
      </trkpt>
      <trkpt lat="45.98792" lon="4.75726">
        <ele>179</ele>
        <time>2018-08-08T08:37:13Z</time>
      </trkpt>
      <trkpt lat="45.98797" lon="4.75726">
        <ele>179</ele>
        <time>2018-08-08T08:37:14Z</time>
      </trkpt>
      <trkpt lat="45.98802" lon="4.75725">
        <ele>179</ele>
        <time>2018-08-08T08:37:15Z</time>
      </trkpt>
      <trkpt lat="45.98807" lon="4.75723">
        <ele>179</ele>
        <time>2018-08-08T08:37:16Z</time>
      </trkpt>
      <trkpt lat="45.98812" lon="4.7572">
        <ele>179</ele>
        <time>2018-08-08T08:37:17Z</time>
      </trkpt>
      <trkpt lat="45.98817" lon="4.7572">
        <ele>179</ele>
        <time>2018-08-08T08:37:18Z</time>
      </trkpt>
      <trkpt lat="45.98823" lon="4.7572">
        <ele>179</ele>
        <time>2018-08-08T08:37:19Z</time>
      </trkpt>
      <trkpt lat="45.98829" lon="4.7572">
        <ele>179</ele>
        <time>2018-08-08T08:37:20Z</time>
      </trkpt>
      <trkpt lat="45.98833" lon="4.75721">
        <ele>179</ele>
        <time>2018-08-08T08:37:21Z</time>
      </trkpt>
      <trkpt lat="45.98837" lon="4.7572">
        <ele>180</ele>
        <time>2018-08-08T08:37:22Z</time>
      </trkpt>
      <trkpt lat="45.98846" lon="4.75719">
        <ele>180</ele>
        <time>2018-08-08T08:37:24Z</time>
      </trkpt>
      <trkpt lat="45.98851" lon="4.75719">
        <ele>180</ele>
        <time>2018-08-08T08:37:25Z</time>
      </trkpt>
      <trkpt lat="45.98855" lon="4.75718">
        <ele>180</ele>
        <time>2018-08-08T08:37:26Z</time>
      </trkpt>
      <trkpt lat="45.9886" lon="4.75718">
        <ele>180</ele>
        <time>2018-08-08T08:37:27Z</time>
      </trkpt>
      <trkpt lat="45.98866" lon="4.75718">
        <ele>180</ele>
        <time>2018-08-08T08:37:28Z</time>
      </trkpt>
      <trkpt lat="45.9887" lon="4.75715">
        <ele>180</ele>
        <time>2018-08-08T08:37:29Z</time>
      </trkpt>
      <trkpt lat="45.98875" lon="4.75713">
        <ele>180</ele>
        <time>2018-08-08T08:37:31Z</time>
      </trkpt>
      <trkpt lat="45.98881" lon="4.7571">
        <ele>180</ele>
        <time>2018-08-08T08:37:32Z</time>
      </trkpt>
      <trkpt lat="45.98887" lon="4.75708">
        <ele>180</ele>
        <time>2018-08-08T08:37:33Z</time>
      </trkpt>
      <trkpt lat="45.98894" lon="4.75705">
        <ele>180</ele>
        <time>2018-08-08T08:37:34Z</time>
      </trkpt>
      <trkpt lat="45.98902" lon="4.757">
        <ele>180</ele>
        <time>2018-08-08T08:37:35Z</time>
      </trkpt>
      <trkpt lat="45.98909" lon="4.75695">
        <ele>180</ele>
        <time>2018-08-08T08:37:36Z</time>
      </trkpt>
      <trkpt lat="45.98916" lon="4.75694">
        <ele>179</ele>
        <time>2018-08-08T08:37:37Z</time>
      </trkpt>
      <trkpt lat="45.98922" lon="4.75693">
        <ele>181</ele>
        <time>2018-08-08T08:37:38Z</time>
      </trkpt>
      <trkpt lat="45.98928" lon="4.7569">
        <ele>181</ele>
        <time>2018-08-08T08:37:39Z</time>
      </trkpt>
      <trkpt lat="45.98934" lon="4.75688">
        <ele>181</ele>
        <time>2018-08-08T08:37:40Z</time>
      </trkpt>
      <trkpt lat="45.98937" lon="4.75686">
        <ele>181</ele>
        <time>2018-08-08T08:37:41Z</time>
      </trkpt>
      <trkpt lat="45.98943" lon="4.75684">
        <ele>181</ele>
        <time>2018-08-08T08:37:42Z</time>
      </trkpt>
      <trkpt lat="45.98948" lon="4.75679">
        <ele>181</ele>
        <time>2018-08-08T08:37:43Z</time>
      </trkpt>
      <trkpt lat="45.98952" lon="4.7568">
        <ele>181</ele>
        <time>2018-08-08T08:37:44Z</time>
      </trkpt>
      <trkpt lat="45.98956" lon="4.75678">
        <ele>181</ele>
        <time>2018-08-08T08:37:45Z</time>
      </trkpt>
      <trkpt lat="45.98961" lon="4.75674">
        <ele>181</ele>
        <time>2018-08-08T08:37:46Z</time>
      </trkpt>
      <trkpt lat="45.98965" lon="4.75674">
        <ele>181</ele>
        <time>2018-08-08T08:37:48Z</time>
      </trkpt>
      <trkpt lat="45.98973" lon="4.75671">
        <ele>181</ele>
        <time>2018-08-08T08:37:49Z</time>
      </trkpt>
      <trkpt lat="45.9898" lon="4.75671">
        <ele>181</ele>
        <time>2018-08-08T08:37:50Z</time>
      </trkpt>
      <trkpt lat="45.98986" lon="4.75671">
        <ele>181</ele>
        <time>2018-08-08T08:37:51Z</time>
      </trkpt>
      <trkpt lat="45.98992" lon="4.75671">
        <ele>181</ele>
        <time>2018-08-08T08:37:52Z</time>
      </trkpt>
      <trkpt lat="45.98997" lon="4.75672">
        <ele>181</ele>
        <time>2018-08-08T08:37:53Z</time>
      </trkpt>
      <trkpt lat="45.99004" lon="4.75671">
        <ele>181</ele>
        <time>2018-08-08T08:37:54Z</time>
      </trkpt>
      <trkpt lat="45.99009" lon="4.7567">
        <ele>181</ele>
        <time>2018-08-08T08:37:55Z</time>
      </trkpt>
      <trkpt lat="45.99016" lon="4.75669">
        <ele>182</ele>
        <time>2018-08-08T08:37:56Z</time>
      </trkpt>
      <trkpt lat="45.9902" lon="4.75671">
        <ele>182</ele>
        <time>2018-08-08T08:37:57Z</time>
      </trkpt>
      <trkpt lat="45.99026" lon="4.7567">
        <ele>183</ele>
        <time>2018-08-08T08:37:58Z</time>
      </trkpt>
      <trkpt lat="45.99032" lon="4.75669">
        <ele>183</ele>
        <time>2018-08-08T08:37:59Z</time>
      </trkpt>
      <trkpt lat="45.99039" lon="4.75669">
        <ele>183</ele>
        <time>2018-08-08T08:38:00Z</time>
      </trkpt>
      <trkpt lat="45.99046" lon="4.75669">
        <ele>183</ele>
        <time>2018-08-08T08:38:01Z</time>
      </trkpt>
      <trkpt lat="45.99052" lon="4.7567">
        <ele>183</ele>
        <time>2018-08-08T08:38:02Z</time>
      </trkpt>
      <trkpt lat="45.99056" lon="4.75672">
        <ele>183</ele>
        <time>2018-08-08T08:38:03Z</time>
      </trkpt>
      <trkpt lat="45.99061" lon="4.75672">
        <ele>182</ele>
        <time>2018-08-08T08:38:04Z</time>
      </trkpt>
      <trkpt lat="45.99067" lon="4.75672">
        <ele>182</ele>
        <time>2018-08-08T08:38:05Z</time>
      </trkpt>
      <trkpt lat="45.99076" lon="4.75673">
        <ele>181</ele>
        <time>2018-08-08T08:38:06Z</time>
      </trkpt>
      <trkpt lat="45.99085" lon="4.75666">
        <ele>180</ele>
        <time>2018-08-08T08:38:07Z</time>
      </trkpt>
      <trkpt lat="45.99093" lon="4.75668">
        <ele>181</ele>
        <time>2018-08-08T08:38:10Z</time>
      </trkpt>
      <trkpt lat="45.99095" lon="4.75666">
        <ele>179</ele>
        <time>2018-08-08T08:38:11Z</time>
      </trkpt>
      <trkpt lat="45.99104" lon="4.75659">
        <ele>178</ele>
        <time>2018-08-08T08:38:12Z</time>
      </trkpt>
      <trkpt lat="45.99111" lon="4.75653">
        <ele>178</ele>
        <time>2018-08-08T08:38:13Z</time>
      </trkpt>
      <trkpt lat="45.99117" lon="4.75648">
        <ele>178</ele>
        <time>2018-08-08T08:38:14Z</time>
      </trkpt>
      <trkpt lat="45.99122" lon="4.75642">
        <ele>178</ele>
        <time>2018-08-08T08:38:15Z</time>
      </trkpt>
      <trkpt lat="45.99127" lon="4.75641">
        <ele>178</ele>
        <time>2018-08-08T08:38:16Z</time>
      </trkpt>
      <trkpt lat="45.99132" lon="4.75639">
        <ele>178</ele>
        <time>2018-08-08T08:38:17Z</time>
      </trkpt>
      <trkpt lat="45.99139" lon="4.75635">
        <ele>177</ele>
        <time>2018-08-08T08:38:18Z</time>
      </trkpt>
      <trkpt lat="45.99145" lon="4.75632">
        <ele>177</ele>
        <time>2018-08-08T08:38:19Z</time>
      </trkpt>
      <trkpt lat="45.99149" lon="4.75624">
        <ele>177</ele>
        <time>2018-08-08T08:38:20Z</time>
      </trkpt>
      <trkpt lat="45.99157" lon="4.75619">
        <ele>177</ele>
        <time>2018-08-08T08:38:21Z</time>
      </trkpt>
      <trkpt lat="45.99163" lon="4.75614">
        <ele>177</ele>
        <time>2018-08-08T08:38:22Z</time>
      </trkpt>
      <trkpt lat="45.99169" lon="4.75609">
        <ele>178</ele>
        <time>2018-08-08T08:38:23Z</time>
      </trkpt>
      <trkpt lat="45.99174" lon="4.75605">
        <ele>177</ele>
        <time>2018-08-08T08:38:24Z</time>
      </trkpt>
      <trkpt lat="45.9918" lon="4.75599">
        <ele>177</ele>
        <time>2018-08-08T08:38:25Z</time>
      </trkpt>
      <trkpt lat="45.99186" lon="4.75595">
        <ele>177</ele>
        <time>2018-08-08T08:38:26Z</time>
      </trkpt>
      <trkpt lat="45.99192" lon="4.75594">
        <ele>178</ele>
        <time>2018-08-08T08:38:27Z</time>
      </trkpt>
      <trkpt lat="45.99197" lon="4.75592">
        <ele>178</ele>
        <time>2018-08-08T08:38:28Z</time>
      </trkpt>
      <trkpt lat="45.99204" lon="4.7559">
        <ele>178</ele>
        <time>2018-08-08T08:38:29Z</time>
      </trkpt>
      <trkpt lat="45.99211" lon="4.75589">
        <ele>178</ele>
        <time>2018-08-08T08:38:30Z</time>
      </trkpt>
      <trkpt lat="45.99216" lon="4.75583">
        <ele>175</ele>
        <time>2018-08-08T08:38:31Z</time>
      </trkpt>
      <trkpt lat="45.9922" lon="4.75579">
        <ele>175</ele>
        <time>2018-08-08T08:38:32Z</time>
      </trkpt>
      <trkpt lat="45.99226" lon="4.75573">
        <ele>175</ele>
        <time>2018-08-08T08:38:33Z</time>
      </trkpt>
      <trkpt lat="45.9923" lon="4.75571">
        <ele>175</ele>
        <time>2018-08-08T08:38:34Z</time>
      </trkpt>
      <trkpt lat="45.99237" lon="4.75569">
        <ele>175</ele>
        <time>2018-08-08T08:38:35Z</time>
      </trkpt>
      <trkpt lat="45.99243" lon="4.75565">
        <ele>175</ele>
        <time>2018-08-08T08:38:36Z</time>
      </trkpt>
      <trkpt lat="45.99251" lon="4.75559">
        <ele>177</ele>
        <time>2018-08-08T08:38:37Z</time>
      </trkpt>
      <trkpt lat="45.99257" lon="4.75553">
        <ele>177</ele>
        <time>2018-08-08T08:38:38Z</time>
      </trkpt>
      <trkpt lat="45.99264" lon="4.75549">
        <ele>177</ele>
        <time>2018-08-08T08:38:39Z</time>
      </trkpt>
      <trkpt lat="45.99271" lon="4.75546">
        <ele>177</ele>
        <time>2018-08-08T08:38:40Z</time>
      </trkpt>
      <trkpt lat="45.99276" lon="4.75542">
        <ele>177</ele>
        <time>2018-08-08T08:38:41Z</time>
      </trkpt>
      <trkpt lat="45.99283" lon="4.75536">
        <ele>177</ele>
        <time>2018-08-08T08:38:42Z</time>
      </trkpt>
      <trkpt lat="45.9929" lon="4.7553">
        <ele>177</ele>
        <time>2018-08-08T08:38:43Z</time>
      </trkpt>
      <trkpt lat="45.99295" lon="4.75524">
        <ele>177</ele>
        <time>2018-08-08T08:38:44Z</time>
      </trkpt>
      <trkpt lat="45.99301" lon="4.75518">
        <ele>177</ele>
        <time>2018-08-08T08:38:45Z</time>
      </trkpt>
      <trkpt lat="45.99307" lon="4.75509">
        <ele>177</ele>
        <time>2018-08-08T08:38:46Z</time>
      </trkpt>
      <trkpt lat="45.99312" lon="4.75504">
        <ele>177</ele>
        <time>2018-08-08T08:38:47Z</time>
      </trkpt>
      <trkpt lat="45.99317" lon="4.75494">
        <ele>175</ele>
        <time>2018-08-08T08:38:48Z</time>
      </trkpt>
      <trkpt lat="45.99323" lon="4.75486">
        <ele>175</ele>
        <time>2018-08-08T08:38:49Z</time>
      </trkpt>
      <trkpt lat="45.99327" lon="4.75481">
        <ele>175</ele>
        <time>2018-08-08T08:38:50Z</time>
      </trkpt>
      <trkpt lat="45.99332" lon="4.75472">
        <ele>174</ele>
        <time>2018-08-08T08:38:51Z</time>
      </trkpt>
      <trkpt lat="45.99338" lon="4.75464">
        <ele>177</ele>
        <time>2018-08-08T08:38:52Z</time>
      </trkpt>
      <trkpt lat="45.99341" lon="4.75455">
        <ele>177</ele>
        <time>2018-08-08T08:38:53Z</time>
      </trkpt>
      <trkpt lat="45.99346" lon="4.7545">
        <ele>177</ele>
        <time>2018-08-08T08:38:54Z</time>
      </trkpt>
      <trkpt lat="45.9935" lon="4.75443">
        <ele>176</ele>
        <time>2018-08-08T08:38:55Z</time>
      </trkpt>
      <trkpt lat="45.99355" lon="4.7544">
        <ele>176</ele>
        <time>2018-08-08T08:38:56Z</time>
      </trkpt>
      <trkpt lat="45.99359" lon="4.75433">
        <ele>176</ele>
        <time>2018-08-08T08:38:57Z</time>
      </trkpt>
      <trkpt lat="45.99363" lon="4.75425">
        <ele>176</ele>
        <time>2018-08-08T08:38:58Z</time>
      </trkpt>
      <trkpt lat="45.99365" lon="4.75417">
        <ele>173</ele>
        <time>2018-08-08T08:38:59Z</time>
      </trkpt>
      <trkpt lat="45.99367" lon="4.75409">
        <ele>173</ele>
        <time>2018-08-08T08:39:00Z</time>
      </trkpt>
      <trkpt lat="45.99368" lon="4.75402">
        <ele>173</ele>
        <time>2018-08-08T08:39:01Z</time>
      </trkpt>
      <trkpt lat="45.99368" lon="4.75394">
        <ele>173</ele>
        <time>2018-08-08T08:39:02Z</time>
      </trkpt>
      <trkpt lat="45.9937" lon="4.75387">
        <ele>172</ele>
        <time>2018-08-08T08:39:03Z</time>
      </trkpt>
      <trkpt lat="45.99372" lon="4.7538">
        <ele>172</ele>
        <time>2018-08-08T08:39:04Z</time>
      </trkpt>
      <trkpt lat="45.99375" lon="4.75372">
        <ele>172</ele>
        <time>2018-08-08T08:39:05Z</time>
      </trkpt>
      <trkpt lat="45.99378" lon="4.75365">
        <ele>172</ele>
        <time>2018-08-08T08:39:06Z</time>
      </trkpt>
      <trkpt lat="45.99381" lon="4.75358">
        <ele>172</ele>
        <time>2018-08-08T08:39:07Z</time>
      </trkpt>
      <trkpt lat="45.99385" lon="4.75352">
        <ele>172</ele>
        <time>2018-08-08T08:39:08Z</time>
      </trkpt>
      <trkpt lat="45.9939" lon="4.75347">
        <ele>172</ele>
        <time>2018-08-08T08:39:09Z</time>
      </trkpt>
      <trkpt lat="45.99395" lon="4.75342">
        <ele>171</ele>
        <time>2018-08-08T08:39:10Z</time>
      </trkpt>
      <trkpt lat="45.99399" lon="4.75337">
        <ele>171</ele>
        <time>2018-08-08T08:39:11Z</time>
      </trkpt>
      <trkpt lat="45.99405" lon="4.75332">
        <ele>170</ele>
        <time>2018-08-08T08:39:12Z</time>
      </trkpt>
      <trkpt lat="45.99411" lon="4.75327">
        <ele>170</ele>
        <time>2018-08-08T08:39:13Z</time>
      </trkpt>
      <trkpt lat="45.99417" lon="4.75326">
        <ele>170</ele>
        <time>2018-08-08T08:39:14Z</time>
      </trkpt>
      <trkpt lat="45.99422" lon="4.75323">
        <ele>170</ele>
        <time>2018-08-08T08:39:15Z</time>
      </trkpt>
      <trkpt lat="45.99426" lon="4.75322">
        <ele>170</ele>
        <time>2018-08-08T08:39:16Z</time>
      </trkpt>
      <trkpt lat="45.99432" lon="4.7532">
        <ele>171</ele>
        <time>2018-08-08T08:39:17Z</time>
      </trkpt>
      <trkpt lat="45.99437" lon="4.75321">
        <ele>171</ele>
        <time>2018-08-08T08:39:18Z</time>
      </trkpt>
      <trkpt lat="45.99444" lon="4.75321">
        <ele>171</ele>
        <time>2018-08-08T08:39:19Z</time>
      </trkpt>
      <trkpt lat="45.9945" lon="4.75319">
        <ele>171</ele>
        <time>2018-08-08T08:39:20Z</time>
      </trkpt>
      <trkpt lat="45.99456" lon="4.75319">
        <ele>171</ele>
        <time>2018-08-08T08:39:21Z</time>
      </trkpt>
      <trkpt lat="45.99463" lon="4.75316">
        <ele>171</ele>
        <time>2018-08-08T08:39:22Z</time>
      </trkpt>
      <trkpt lat="45.99469" lon="4.75316">
        <ele>171</ele>
        <time>2018-08-08T08:39:23Z</time>
      </trkpt>
      <trkpt lat="45.99474" lon="4.75316">
        <ele>171</ele>
        <time>2018-08-08T08:39:24Z</time>
      </trkpt>
      <trkpt lat="45.9948" lon="4.75317">
        <ele>171</ele>
        <time>2018-08-08T08:39:25Z</time>
      </trkpt>
      <trkpt lat="45.99485" lon="4.75314">
        <ele>171</ele>
        <time>2018-08-08T08:39:26Z</time>
      </trkpt>
      <trkpt lat="45.99492" lon="4.75314">
        <ele>171</ele>
        <time>2018-08-08T08:39:27Z</time>
      </trkpt>
      <trkpt lat="45.99498" lon="4.75314">
        <ele>171</ele>
        <time>2018-08-08T08:39:28Z</time>
      </trkpt>
      <trkpt lat="45.99504" lon="4.75313">
        <ele>172</ele>
        <time>2018-08-08T08:39:29Z</time>
      </trkpt>
      <trkpt lat="45.99509" lon="4.75314">
        <ele>172</ele>
        <time>2018-08-08T08:39:30Z</time>
      </trkpt>
      <trkpt lat="45.99516" lon="4.75313">
        <ele>172</ele>
        <time>2018-08-08T08:39:31Z</time>
      </trkpt>
      <trkpt lat="45.99523" lon="4.75312">
        <ele>172</ele>
        <time>2018-08-08T08:39:32Z</time>
      </trkpt>
      <trkpt lat="45.99528" lon="4.75312">
        <ele>172</ele>
        <time>2018-08-08T08:39:33Z</time>
      </trkpt>
      <trkpt lat="45.99533" lon="4.7531">
        <ele>172</ele>
        <time>2018-08-08T08:39:34Z</time>
      </trkpt>
      <trkpt lat="45.99539" lon="4.75311">
        <ele>172</ele>
        <time>2018-08-08T08:39:35Z</time>
      </trkpt>
      <trkpt lat="45.99544" lon="4.75313">
        <ele>172</ele>
        <time>2018-08-08T08:39:36Z</time>
      </trkpt>
      <trkpt lat="45.99549" lon="4.75315">
        <ele>172</ele>
        <time>2018-08-08T08:39:37Z</time>
      </trkpt>
      <trkpt lat="45.99556" lon="4.75319">
        <ele>172</ele>
        <time>2018-08-08T08:39:38Z</time>
      </trkpt>
      <trkpt lat="45.9956" lon="4.75324">
        <ele>172</ele>
        <time>2018-08-08T08:39:39Z</time>
      </trkpt>
      <trkpt lat="45.99565" lon="4.75327">
        <ele>172</ele>
        <time>2018-08-08T08:39:40Z</time>
      </trkpt>
      <trkpt lat="45.9957" lon="4.7533">
        <ele>173</ele>
        <time>2018-08-08T08:39:41Z</time>
      </trkpt>
      <trkpt lat="45.99577" lon="4.75332">
        <ele>173</ele>
        <time>2018-08-08T08:39:42Z</time>
      </trkpt>
      <trkpt lat="45.99583" lon="4.7533">
        <ele>173</ele>
        <time>2018-08-08T08:39:43Z</time>
      </trkpt>
      <trkpt lat="45.99587" lon="4.75326">
        <ele>173</ele>
        <time>2018-08-08T08:39:44Z</time>
      </trkpt>
      <trkpt lat="45.99592" lon="4.75322">
        <ele>173</ele>
        <time>2018-08-08T08:39:45Z</time>
      </trkpt>
      <trkpt lat="45.99595" lon="4.75313">
        <ele>174</ele>
        <time>2018-08-08T08:39:46Z</time>
      </trkpt>
      <trkpt lat="45.99599" lon="4.75304">
        <ele>174</ele>
        <time>2018-08-08T08:39:47Z</time>
      </trkpt>
      <trkpt lat="45.99602" lon="4.75297">
        <ele>174</ele>
        <time>2018-08-08T08:39:48Z</time>
      </trkpt>
      <trkpt lat="45.99606" lon="4.75289">
        <ele>174</ele>
        <time>2018-08-08T08:39:49Z</time>
      </trkpt>
      <trkpt lat="45.99612" lon="4.75285">
        <ele>174</ele>
        <time>2018-08-08T08:39:50Z</time>
      </trkpt>
      <trkpt lat="45.99618" lon="4.75283">
        <ele>174</ele>
        <time>2018-08-08T08:39:51Z</time>
      </trkpt>
      <trkpt lat="45.99625" lon="4.75282">
        <ele>174</ele>
        <time>2018-08-08T08:39:52Z</time>
      </trkpt>
      <trkpt lat="45.99632" lon="4.75282">
        <ele>174</ele>
        <time>2018-08-08T08:39:53Z</time>
      </trkpt>
      <trkpt lat="45.99639" lon="4.75283">
        <ele>174</ele>
        <time>2018-08-08T08:39:54Z</time>
      </trkpt>
      <trkpt lat="45.99647" lon="4.75283">
        <ele>174</ele>
        <time>2018-08-08T08:39:55Z</time>
      </trkpt>
      <trkpt lat="45.99655" lon="4.75282">
        <ele>174</ele>
        <time>2018-08-08T08:39:56Z</time>
      </trkpt>
      <trkpt lat="45.99663" lon="4.75279">
        <ele>174</ele>
        <time>2018-08-08T08:39:57Z</time>
      </trkpt>
      <trkpt lat="45.99671" lon="4.75277">
        <ele>176</ele>
        <time>2018-08-08T08:39:58Z</time>
      </trkpt>
      <trkpt lat="45.9968" lon="4.75272">
        <ele>176</ele>
        <time>2018-08-08T08:39:59Z</time>
      </trkpt>
      <trkpt lat="45.99687" lon="4.75264">
        <ele>176</ele>
        <time>2018-08-08T08:40:00Z</time>
      </trkpt>
      <trkpt lat="45.99694" lon="4.75263">
        <ele>176</ele>
        <time>2018-08-08T08:40:01Z</time>
      </trkpt>
      <trkpt lat="45.99701" lon="4.75261">
        <ele>176</ele>
        <time>2018-08-08T08:40:02Z</time>
      </trkpt>
      <trkpt lat="45.99708" lon="4.75258">
        <ele>176</ele>
        <time>2018-08-08T08:40:03Z</time>
      </trkpt>
      <trkpt lat="45.99716" lon="4.75251">
        <ele>176</ele>
        <time>2018-08-08T08:40:04Z</time>
      </trkpt>
      <trkpt lat="45.99722" lon="4.75247">
        <ele>175</ele>
        <time>2018-08-08T08:40:05Z</time>
      </trkpt>
      <trkpt lat="45.99729" lon="4.75244">
        <ele>175</ele>
        <time>2018-08-08T08:40:06Z</time>
      </trkpt>
      <trkpt lat="45.99736" lon="4.7524">
        <ele>175</ele>
        <time>2018-08-08T08:40:07Z</time>
      </trkpt>
      <trkpt lat="45.99741" lon="4.75237">
        <ele>175</ele>
        <time>2018-08-08T08:40:08Z</time>
      </trkpt>
      <trkpt lat="45.99746" lon="4.75238">
        <ele>175</ele>
        <time>2018-08-08T08:40:09Z</time>
      </trkpt>
      <trkpt lat="45.99752" lon="4.75236">
        <ele>175</ele>
        <time>2018-08-08T08:40:10Z</time>
      </trkpt>
      <trkpt lat="45.99758" lon="4.75229">
        <ele>175</ele>
        <time>2018-08-08T08:40:11Z</time>
      </trkpt>
      <trkpt lat="45.99763" lon="4.75223">
        <ele>175</ele>
        <time>2018-08-08T08:40:12Z</time>
      </trkpt>
      <trkpt lat="45.99768" lon="4.75222">
        <ele>175</ele>
        <time>2018-08-08T08:40:13Z</time>
      </trkpt>
      <trkpt lat="45.99773" lon="4.75221">
        <ele>175</ele>
        <time>2018-08-08T08:40:14Z</time>
      </trkpt>
      <trkpt lat="45.99778" lon="4.75219">
        <ele>175</ele>
        <time>2018-08-08T08:40:15Z</time>
      </trkpt>
      <trkpt lat="45.99784" lon="4.75214">
        <ele>174</ele>
        <time>2018-08-08T08:40:16Z</time>
      </trkpt>
      <trkpt lat="45.9979" lon="4.75212">
        <ele>174</ele>
        <time>2018-08-08T08:40:17Z</time>
      </trkpt>
      <trkpt lat="45.99796" lon="4.75209">
        <ele>174</ele>
        <time>2018-08-08T08:40:18Z</time>
      </trkpt>
      <trkpt lat="45.99802" lon="4.75208">
        <ele>174</ele>
        <time>2018-08-08T08:40:19Z</time>
      </trkpt>
      <trkpt lat="45.99807" lon="4.75207">
        <ele>174</ele>
        <time>2018-08-08T08:40:20Z</time>
      </trkpt>
      <trkpt lat="45.99813" lon="4.75205">
        <ele>174</ele>
        <time>2018-08-08T08:40:21Z</time>
      </trkpt>
      <trkpt lat="45.99819" lon="4.75202">
        <ele>174</ele>
        <time>2018-08-08T08:40:22Z</time>
      </trkpt>
      <trkpt lat="45.99824" lon="4.752">
        <ele>174</ele>
        <time>2018-08-08T08:40:23Z</time>
      </trkpt>
      <trkpt lat="45.99829" lon="4.75197">
        <ele>174</ele>
        <time>2018-08-08T08:40:24Z</time>
      </trkpt>
      <trkpt lat="45.99834" lon="4.75193">
        <ele>174</ele>
        <time>2018-08-08T08:40:25Z</time>
      </trkpt>
      <trkpt lat="45.99839" lon="4.75191">
        <ele>174</ele>
        <time>2018-08-08T08:40:26Z</time>
      </trkpt>
      <trkpt lat="45.99844" lon="4.75188">
        <ele>174</ele>
        <time>2018-08-08T08:40:27Z</time>
      </trkpt>
      <trkpt lat="45.9985" lon="4.75186">
        <ele>174</ele>
        <time>2018-08-08T08:40:28Z</time>
      </trkpt>
      <trkpt lat="45.99856" lon="4.75183">
        <ele>174</ele>
        <time>2018-08-08T08:40:29Z</time>
      </trkpt>
      <trkpt lat="45.99861" lon="4.75181">
        <ele>174</ele>
        <time>2018-08-08T08:40:30Z</time>
      </trkpt>
      <trkpt lat="45.99867" lon="4.75179">
        <ele>174</ele>
        <time>2018-08-08T08:40:31Z</time>
      </trkpt>
      <trkpt lat="45.99872" lon="4.75176">
        <ele>174</ele>
        <time>2018-08-08T08:40:32Z</time>
      </trkpt>
      <trkpt lat="45.99877" lon="4.75173">
        <ele>174</ele>
        <time>2018-08-08T08:40:33Z</time>
      </trkpt>
      <trkpt lat="45.99882" lon="4.75171">
        <ele>174</ele>
        <time>2018-08-08T08:40:34Z</time>
      </trkpt>
      <trkpt lat="45.99887" lon="4.75169">
        <ele>174</ele>
        <time>2018-08-08T08:40:35Z</time>
      </trkpt>
      <trkpt lat="45.99892" lon="4.75166">
        <ele>172</ele>
        <time>2018-08-08T08:40:36Z</time>
      </trkpt>
      <trkpt lat="45.99898" lon="4.75164">
        <ele>172</ele>
        <time>2018-08-08T08:40:37Z</time>
      </trkpt>
      <trkpt lat="45.99902" lon="4.75162">
        <ele>172</ele>
        <time>2018-08-08T08:40:38Z</time>
      </trkpt>
      <trkpt lat="45.99907" lon="4.75159">
        <ele>173</ele>
        <time>2018-08-08T08:40:39Z</time>
      </trkpt>
      <trkpt lat="45.99912" lon="4.75157">
        <ele>173</ele>
        <time>2018-08-08T08:40:40Z</time>
      </trkpt>
      <trkpt lat="45.99917" lon="4.75157">
        <ele>173</ele>
        <time>2018-08-08T08:40:41Z</time>
      </trkpt>
      <trkpt lat="45.99922" lon="4.75155">
        <ele>173</ele>
        <time>2018-08-08T08:40:42Z</time>
      </trkpt>
      <trkpt lat="45.99928" lon="4.75153">
        <ele>173</ele>
        <time>2018-08-08T08:40:43Z</time>
      </trkpt>
      <trkpt lat="45.99933" lon="4.7515">
        <ele>173</ele>
        <time>2018-08-08T08:40:44Z</time>
      </trkpt>
      <trkpt lat="45.99938" lon="4.7515">
        <ele>173</ele>
        <time>2018-08-08T08:40:45Z</time>
      </trkpt>
      <trkpt lat="45.99943" lon="4.75149">
        <ele>173</ele>
        <time>2018-08-08T08:40:46Z</time>
      </trkpt>
      <trkpt lat="45.9995" lon="4.75146">
        <ele>173</ele>
        <time>2018-08-08T08:40:47Z</time>
      </trkpt>
      <trkpt lat="45.99955" lon="4.75144">
        <ele>173</ele>
        <time>2018-08-08T08:40:48Z</time>
      </trkpt>
      <trkpt lat="45.9996" lon="4.75142">
        <ele>173</ele>
        <time>2018-08-08T08:40:49Z</time>
      </trkpt>
      <trkpt lat="45.99966" lon="4.75138">
        <ele>173</ele>
        <time>2018-08-08T08:40:50Z</time>
      </trkpt>
      <trkpt lat="45.99972" lon="4.75135">
        <ele>173</ele>
        <time>2018-08-08T08:40:51Z</time>
      </trkpt>
      <trkpt lat="45.99978" lon="4.75132">
        <ele>173</ele>
        <time>2018-08-08T08:40:52Z</time>
      </trkpt>
      <trkpt lat="45.99983" lon="4.7513">
        <ele>173</ele>
        <time>2018-08-08T08:40:53Z</time>
      </trkpt>
      <trkpt lat="45.9999" lon="4.75127">
        <ele>173</ele>
        <time>2018-08-08T08:40:54Z</time>
      </trkpt>
      <trkpt lat="45.99995" lon="4.75126">
        <ele>173</ele>
        <time>2018-08-08T08:40:55Z</time>
      </trkpt>
      <trkpt lat="46" lon="4.75124">
        <ele>174</ele>
        <time>2018-08-08T08:40:56Z</time>
      </trkpt>
      <trkpt lat="46.00006" lon="4.75123">
        <ele>174</ele>
        <time>2018-08-08T08:40:57Z</time>
      </trkpt>
      <trkpt lat="46.00012" lon="4.75122">
        <ele>174</ele>
        <time>2018-08-08T08:40:58Z</time>
      </trkpt>
      <trkpt lat="46.00018" lon="4.7512">
        <ele>174</ele>
        <time>2018-08-08T08:40:59Z</time>
      </trkpt>
      <trkpt lat="46.00024" lon="4.75117">
        <ele>174</ele>
        <time>2018-08-08T08:41:00Z</time>
      </trkpt>
      <trkpt lat="46.00029" lon="4.75114">
        <ele>174</ele>
        <time>2018-08-08T08:41:01Z</time>
      </trkpt>
      <trkpt lat="46.00035" lon="4.75113">
        <ele>174</ele>
        <time>2018-08-08T08:41:02Z</time>
      </trkpt>
      <trkpt lat="46.00043" lon="4.75111">
        <ele>174</ele>
        <time>2018-08-08T08:41:04Z</time>
      </trkpt>
      <trkpt lat="46.0005" lon="4.75109">
        <ele>174</ele>
        <time>2018-08-08T08:41:05Z</time>
      </trkpt>
      <trkpt lat="46.00055" lon="4.7511">
        <ele>174</ele>
        <time>2018-08-08T08:41:06Z</time>
      </trkpt>
      <trkpt lat="46.0006" lon="4.7511">
        <ele>174</ele>
        <time>2018-08-08T08:41:07Z</time>
      </trkpt>
      <trkpt lat="46.00066" lon="4.75111">
        <ele>174</ele>
        <time>2018-08-08T08:41:08Z</time>
      </trkpt>
      <trkpt lat="46.00072" lon="4.75111">
        <ele>174</ele>
        <time>2018-08-08T08:41:09Z</time>
      </trkpt>
      <trkpt lat="46.00078" lon="4.75111">
        <ele>174</ele>
        <time>2018-08-08T08:41:10Z</time>
      </trkpt>
      <trkpt lat="46.00084" lon="4.7511">
        <ele>175</ele>
        <time>2018-08-08T08:41:11Z</time>
      </trkpt>
      <trkpt lat="46.0009" lon="4.7511">
        <ele>175</ele>
        <time>2018-08-08T08:41:12Z</time>
      </trkpt>
      <trkpt lat="46.00096" lon="4.75109">
        <ele>175</ele>
        <time>2018-08-08T08:41:13Z</time>
      </trkpt>
      <trkpt lat="46.00102" lon="4.75108">
        <ele>175</ele>
        <time>2018-08-08T08:41:14Z</time>
      </trkpt>
      <trkpt lat="46.00108" lon="4.75107">
        <ele>175</ele>
        <time>2018-08-08T08:41:15Z</time>
      </trkpt>
      <trkpt lat="46.00115" lon="4.7511">
        <ele>175</ele>
        <time>2018-08-08T08:41:17Z</time>
      </trkpt>
      <trkpt lat="46.00119" lon="4.75112">
        <ele>175</ele>
        <time>2018-08-08T08:41:18Z</time>
      </trkpt>
      <trkpt lat="46.00124" lon="4.75112">
        <ele>175</ele>
        <time>2018-08-08T08:41:19Z</time>
      </trkpt>
      <trkpt lat="46.00129" lon="4.75112">
        <ele>175</ele>
        <time>2018-08-08T08:41:20Z</time>
      </trkpt>
      <trkpt lat="46.00135" lon="4.75111">
        <ele>175</ele>
        <time>2018-08-08T08:41:21Z</time>
      </trkpt>
      <trkpt lat="46.0014" lon="4.75112">
        <ele>175</ele>
        <time>2018-08-08T08:41:22Z</time>
      </trkpt>
      <trkpt lat="46.00144" lon="4.75112">
        <ele>175</ele>
        <time>2018-08-08T08:41:23Z</time>
      </trkpt>
      <trkpt lat="46.00151" lon="4.75111">
        <ele>175</ele>
        <time>2018-08-08T08:41:24Z</time>
      </trkpt>
      <trkpt lat="46.00155" lon="4.75112">
        <ele>175</ele>
        <time>2018-08-08T08:41:25Z</time>
      </trkpt>
      <trkpt lat="46.0016" lon="4.75112">
        <ele>175</ele>
        <time>2018-08-08T08:41:26Z</time>
      </trkpt>
      <trkpt lat="46.00166" lon="4.75112">
        <ele>175</ele>
        <time>2018-08-08T08:41:27Z</time>
      </trkpt>
      <trkpt lat="46.00171" lon="4.75111">
        <ele>176</ele>
        <time>2018-08-08T08:41:28Z</time>
      </trkpt>
      <trkpt lat="46.00178" lon="4.75108">
        <ele>176</ele>
        <time>2018-08-08T08:41:29Z</time>
      </trkpt>
      <trkpt lat="46.00185" lon="4.75107">
        <ele>176</ele>
        <time>2018-08-08T08:41:30Z</time>
      </trkpt>
      <trkpt lat="46.0019" lon="4.75109">
        <ele>176</ele>
        <time>2018-08-08T08:41:31Z</time>
      </trkpt>
      <trkpt lat="46.00195" lon="4.75111">
        <ele>176</ele>
        <time>2018-08-08T08:41:32Z</time>
      </trkpt>
      <trkpt lat="46.00203" lon="4.75108">
        <ele>176</ele>
        <time>2018-08-08T08:41:34Z</time>
      </trkpt>
      <trkpt lat="46.00208" lon="4.7511">
        <ele>176</ele>
        <time>2018-08-08T08:41:35Z</time>
      </trkpt>
      <trkpt lat="46.00212" lon="4.75113">
        <ele>176</ele>
        <time>2018-08-08T08:41:36Z</time>
      </trkpt>
      <trkpt lat="46.00216" lon="4.75116">
        <ele>176</ele>
        <time>2018-08-08T08:41:37Z</time>
      </trkpt>
      <trkpt lat="46.00212" lon="4.75123">
        <ele>176</ele>
        <time>2018-08-08T08:41:38Z</time>
      </trkpt>
      <trkpt lat="46.00214" lon="4.7513">
        <ele>176</ele>
        <time>2018-08-08T08:41:39Z</time>
      </trkpt>
      <trkpt lat="46.00213" lon="4.75135">
        <ele>176</ele>
        <time>2018-08-08T08:41:40Z</time>
      </trkpt>
      <trkpt lat="46.00209" lon="4.75143">
        <ele>177</ele>
        <time>2018-08-08T08:41:41Z</time>
      </trkpt>
      <trkpt lat="46.00209" lon="4.75154">
        <ele>177</ele>
        <time>2018-08-08T08:41:43Z</time>
      </trkpt>
      <trkpt lat="46.0021" lon="4.7516">
        <ele>177</ele>
        <time>2018-08-08T08:41:44Z</time>
      </trkpt>
      <trkpt lat="46.00209" lon="4.75169">
        <ele>179</ele>
        <time>2018-08-08T08:41:46Z</time>
      </trkpt>
      <trkpt lat="46.00209" lon="4.75176">
        <ele>179</ele>
        <time>2018-08-08T08:41:47Z</time>
      </trkpt>
      <trkpt lat="46.0021" lon="4.75188">
        <ele>179</ele>
        <time>2018-08-08T08:41:49Z</time>
      </trkpt>
      <trkpt lat="46.0021" lon="4.75192">
        <ele>179</ele>
        <time>2018-08-08T08:41:50Z</time>
      </trkpt>
      <trkpt lat="46.00211" lon="4.75204">
        <ele>179</ele>
        <time>2018-08-08T08:41:52Z</time>
      </trkpt>
      <trkpt lat="46.00212" lon="4.7521">
        <ele>180</ele>
        <time>2018-08-08T08:41:53Z</time>
      </trkpt>
      <trkpt lat="46.00213" lon="4.7522">
        <ele>180</ele>
        <time>2018-08-08T08:41:57Z</time>
      </trkpt>
      <trkpt lat="46.00213" lon="4.75223">
        <ele>180</ele>
        <time>2018-08-08T08:41:58Z</time>
      </trkpt>
      <trkpt lat="46.00214" lon="4.75234">
        <ele>180</ele>
        <time>2018-08-08T08:42:01Z</time>
      </trkpt>
      <trkpt lat="46.00214" lon="4.75237">
        <ele>180</ele>
        <time>2018-08-08T08:42:02Z</time>
      </trkpt>
      <trkpt lat="46.00213" lon="4.75248">
        <ele>180</ele>
        <time>2018-08-08T08:42:05Z</time>
      </trkpt>
      <trkpt lat="46.00213" lon="4.75252">
        <ele>184</ele>
        <time>2018-08-08T08:42:06Z</time>
      </trkpt>
      <trkpt lat="46.00212" lon="4.75264">
        <ele>184</ele>
        <time>2018-08-08T08:42:10Z</time>
      </trkpt>
      <trkpt lat="46.00211" lon="4.75267">
        <ele>184</ele>
        <time>2018-08-08T08:42:11Z</time>
      </trkpt>
      <trkpt lat="46.0021" lon="4.75277">
        <ele>184</ele>
        <time>2018-08-08T08:42:14Z</time>
      </trkpt>
      <trkpt lat="46.0021" lon="4.75281">
        <ele>185</ele>
        <time>2018-08-08T08:42:15Z</time>
      </trkpt>
      <trkpt lat="46.0021" lon="4.75293">
        <ele>185</ele>
        <time>2018-08-08T08:42:18Z</time>
      </trkpt>
      <trkpt lat="46.0021" lon="4.75298">
        <ele>185</ele>
        <time>2018-08-08T08:42:19Z</time>
      </trkpt>
      <trkpt lat="46.00211" lon="4.75309">
        <ele>186</ele>
        <time>2018-08-08T08:42:22Z</time>
      </trkpt>
      <trkpt lat="46.00211" lon="4.75313">
        <ele>186</ele>
        <time>2018-08-08T08:42:23Z</time>
      </trkpt>
      <trkpt lat="46.00212" lon="4.75324">
        <ele>186</ele>
        <time>2018-08-08T08:42:26Z</time>
      </trkpt>
      <trkpt lat="46.00213" lon="4.75328">
        <ele>186</ele>
        <time>2018-08-08T08:42:27Z</time>
      </trkpt>
      <trkpt lat="46.00214" lon="4.75339">
        <ele>190</ele>
        <time>2018-08-08T08:42:30Z</time>
      </trkpt>
      <trkpt lat="46.00214" lon="4.75343">
        <ele>190</ele>
        <time>2018-08-08T08:42:31Z</time>
      </trkpt>
      <trkpt lat="46.00215" lon="4.75354">
        <ele>191</ele>
        <time>2018-08-08T08:42:34Z</time>
      </trkpt>
      <trkpt lat="46.00215" lon="4.75358">
        <ele>191</ele>
        <time>2018-08-08T08:42:35Z</time>
      </trkpt>
      <trkpt lat="46.00214" lon="4.75368">
        <ele>191</ele>
        <time>2018-08-08T08:42:38Z</time>
      </trkpt>
      <trkpt lat="46.00214" lon="4.75372">
        <ele>191</ele>
        <time>2018-08-08T08:42:39Z</time>
      </trkpt>
      <trkpt lat="46.00213" lon="4.75383">
        <ele>192</ele>
        <time>2018-08-08T08:42:42Z</time>
      </trkpt>
      <trkpt lat="46.00213" lon="4.75386">
        <ele>192</ele>
        <time>2018-08-08T08:42:43Z</time>
      </trkpt>
      <trkpt lat="46.00211" lon="4.75396">
        <ele>192</ele>
        <time>2018-08-08T08:42:46Z</time>
      </trkpt>
      <trkpt lat="46.00211" lon="4.754">
        <ele>192</ele>
        <time>2018-08-08T08:42:47Z</time>
      </trkpt>
      <trkpt lat="46.0021" lon="4.75412">
        <ele>193</ele>
        <time>2018-08-08T08:42:50Z</time>
      </trkpt>
      <trkpt lat="46.0021" lon="4.75415">
        <ele>193</ele>
        <time>2018-08-08T08:42:51Z</time>
      </trkpt>
      <trkpt lat="46.0021" lon="4.75427">
        <ele>196</ele>
        <time>2018-08-08T08:42:54Z</time>
      </trkpt>
      <trkpt lat="46.0021" lon="4.75431">
        <ele>197</ele>
        <time>2018-08-08T08:42:55Z</time>
      </trkpt>
      <trkpt lat="46.0021" lon="4.75442">
        <ele>197</ele>
        <time>2018-08-08T08:42:58Z</time>
      </trkpt>
      <trkpt lat="46.0021" lon="4.75446">
        <ele>197</ele>
        <time>2018-08-08T08:42:59Z</time>
      </trkpt>
      <trkpt lat="46.0021" lon="4.75457">
        <ele>197</ele>
        <time>2018-08-08T08:43:02Z</time>
      </trkpt>
      <trkpt lat="46.0021" lon="4.7546">
        <ele>198</ele>
        <time>2018-08-08T08:43:03Z</time>
      </trkpt>
      <trkpt lat="46.00211" lon="4.75471">
        <ele>198</ele>
        <time>2018-08-08T08:43:06Z</time>
      </trkpt>
      <trkpt lat="46.00211" lon="4.75475">
        <ele>198</ele>
        <time>2018-08-08T08:43:07Z</time>
      </trkpt>
      <trkpt lat="46.00212" lon="4.75486">
        <ele>198</ele>
        <time>2018-08-08T08:43:10Z</time>
      </trkpt>
      <trkpt lat="46.00212" lon="4.7549">
        <ele>198</ele>
        <time>2018-08-08T08:43:11Z</time>
      </trkpt>
      <trkpt lat="46.00213" lon="4.75501">
        <ele>204</ele>
        <time>2018-08-08T08:43:14Z</time>
      </trkpt>
      <trkpt lat="46.00213" lon="4.75504">
        <ele>204</ele>
        <time>2018-08-08T08:43:15Z</time>
      </trkpt>
      <trkpt lat="46.00214" lon="4.75515">
        <ele>204</ele>
        <time>2018-08-08T08:43:18Z</time>
      </trkpt>
      <trkpt lat="46.00215" lon="4.75519">
        <ele>204</ele>
        <time>2018-08-08T08:43:19Z</time>
      </trkpt>
      <trkpt lat="46.00215" lon="4.75531">
        <ele>205</ele>
        <time>2018-08-08T08:43:24Z</time>
      </trkpt>
      <trkpt lat="46.00215" lon="4.75535">
        <ele>205</ele>
        <time>2018-08-08T08:43:25Z</time>
      </trkpt>
      <trkpt lat="46.00217" lon="4.75547">
        <ele>206</ele>
        <time>2018-08-08T08:43:28Z</time>
      </trkpt>
      <trkpt lat="46.00218" lon="4.7555">
        <ele>206</ele>
        <time>2018-08-08T08:43:29Z</time>
      </trkpt>
      <trkpt lat="46.00222" lon="4.7556">
        <ele>206</ele>
        <time>2018-08-08T08:43:32Z</time>
      </trkpt>
      <trkpt lat="46.00224" lon="4.75563">
        <ele>206</ele>
        <time>2018-08-08T08:43:33Z</time>
      </trkpt>
      <trkpt lat="46.00229" lon="4.7557">
        <ele>206</ele>
        <time>2018-08-08T08:43:36Z</time>
      </trkpt>
      <trkpt lat="46.0023" lon="4.75574">
        <ele>206</ele>
        <time>2018-08-08T08:43:37Z</time>
      </trkpt>
      <trkpt lat="46.00235" lon="4.75581">
        <ele>206</ele>
        <time>2018-08-08T08:43:39Z</time>
      </trkpt>
      <trkpt lat="46.00236" lon="4.75584">
        <ele>209</ele>
        <time>2018-08-08T08:43:40Z</time>
      </trkpt>
      <trkpt lat="46.00242" lon="4.75591">
        <ele>208</ele>
        <time>2018-08-08T08:43:43Z</time>
      </trkpt>
      <trkpt lat="46.00244" lon="4.75594">
        <ele>208</ele>
        <time>2018-08-08T08:43:44Z</time>
      </trkpt>
      <trkpt lat="46.0025" lon="4.75601">
        <ele>210</ele>
        <time>2018-08-08T08:43:47Z</time>
      </trkpt>
      <trkpt lat="46.00251" lon="4.75604">
        <ele>205</ele>
        <time>2018-08-08T08:43:48Z</time>
      </trkpt>
      <trkpt lat="46.00256" lon="4.75612">
        <ele>206</ele>
        <time>2018-08-08T08:43:51Z</time>
      </trkpt>
      <trkpt lat="46.00257" lon="4.75615">
        <ele>206</ele>
        <time>2018-08-08T08:43:52Z</time>
      </trkpt>
      <trkpt lat="46.00261" lon="4.75623">
        <ele>206</ele>
        <time>2018-08-08T08:43:55Z</time>
      </trkpt>
      <trkpt lat="46.00262" lon="4.75625">
        <ele>206</ele>
        <time>2018-08-08T08:43:56Z</time>
      </trkpt>
      <trkpt lat="46.00268" lon="4.75635">
        <ele>207</ele>
        <time>2018-08-08T08:44:00Z</time>
      </trkpt>
      <trkpt lat="46.0027" lon="4.75637">
        <ele>207</ele>
        <time>2018-08-08T08:44:01Z</time>
      </trkpt>
      <trkpt lat="46.00275" lon="4.75644">
        <ele>207</ele>
        <time>2018-08-08T08:44:04Z</time>
      </trkpt>
      <trkpt lat="46.00277" lon="4.75647">
        <ele>207</ele>
        <time>2018-08-08T08:44:05Z</time>
      </trkpt>
      <trkpt lat="46.00282" lon="4.75653">
        <ele>207</ele>
        <time>2018-08-08T08:44:08Z</time>
      </trkpt>
      <trkpt lat="46.00284" lon="4.75655">
        <ele>207</ele>
        <time>2018-08-08T08:44:09Z</time>
      </trkpt>
      <trkpt lat="46.0029" lon="4.75664">
        <ele>206</ele>
        <time>2018-08-08T08:44:13Z</time>
      </trkpt>
      <trkpt lat="46.00292" lon="4.75667">
        <ele>206</ele>
        <time>2018-08-08T08:44:14Z</time>
      </trkpt>
      <trkpt lat="46.00296" lon="4.75674">
        <ele>208</ele>
        <time>2018-08-08T08:44:17Z</time>
      </trkpt>
      <trkpt lat="46.00298" lon="4.75677">
        <ele>208</ele>
        <time>2018-08-08T08:44:18Z</time>
      </trkpt>
      <trkpt lat="46.00303" lon="4.75684">
        <ele>208</ele>
        <time>2018-08-08T08:44:21Z</time>
      </trkpt>
      <trkpt lat="46.00305" lon="4.75687">
        <ele>208</ele>
        <time>2018-08-08T08:44:22Z</time>
      </trkpt>
      <trkpt lat="46.00309" lon="4.75693">
        <ele>208</ele>
        <time>2018-08-08T08:44:24Z</time>
      </trkpt>
      <trkpt lat="46.00311" lon="4.75697">
        <ele>208</ele>
        <time>2018-08-08T08:44:25Z</time>
      </trkpt>
      <trkpt lat="46.00315" lon="4.75706">
        <ele>208</ele>
        <time>2018-08-08T08:44:28Z</time>
      </trkpt>
      <trkpt lat="46.00317" lon="4.75709">
        <ele>208</ele>
        <time>2018-08-08T08:44:29Z</time>
      </trkpt>
      <trkpt lat="46.00322" lon="4.75716">
        <ele>208</ele>
        <time>2018-08-08T08:44:32Z</time>
      </trkpt>
      <trkpt lat="46.00324" lon="4.75718">
        <ele>208</ele>
        <time>2018-08-08T08:44:33Z</time>
      </trkpt>
      <trkpt lat="46.0033" lon="4.75725">
        <ele>208</ele>
        <time>2018-08-08T08:44:36Z</time>
      </trkpt>
      <trkpt lat="46.00332" lon="4.75728">
        <ele>208</ele>
        <time>2018-08-08T08:44:37Z</time>
      </trkpt>
      <trkpt lat="46.00336" lon="4.75735">
        <ele>210</ele>
        <time>2018-08-08T08:44:40Z</time>
      </trkpt>
      <trkpt lat="46.00338" lon="4.75737">
        <ele>209</ele>
        <time>2018-08-08T08:44:41Z</time>
      </trkpt>
      <trkpt lat="46.00342" lon="4.75745">
        <ele>209</ele>
        <time>2018-08-08T08:44:44Z</time>
      </trkpt>
      <trkpt lat="46.00344" lon="4.75748">
        <ele>209</ele>
        <time>2018-08-08T08:44:45Z</time>
      </trkpt>
      <trkpt lat="46.00348" lon="4.75754">
        <ele>211</ele>
        <time>2018-08-08T08:44:47Z</time>
      </trkpt>
      <trkpt lat="46.00351" lon="4.75757">
        <ele>211</ele>
        <time>2018-08-08T08:44:48Z</time>
      </trkpt>
      <trkpt lat="46.00356" lon="4.75764">
        <ele>212</ele>
        <time>2018-08-08T08:44:51Z</time>
      </trkpt>
      <trkpt lat="46.00358" lon="4.75767">
        <ele>212</ele>
        <time>2018-08-08T08:44:52Z</time>
      </trkpt>
      <trkpt lat="46.00362" lon="4.75775">
        <ele>212</ele>
        <time>2018-08-08T08:44:55Z</time>
      </trkpt>
      <trkpt lat="46.00364" lon="4.75778">
        <ele>212</ele>
        <time>2018-08-08T08:44:56Z</time>
      </trkpt>
      <trkpt lat="46.00368" lon="4.75786">
        <ele>213</ele>
        <time>2018-08-08T08:44:59Z</time>
      </trkpt>
      <trkpt lat="46.0037" lon="4.75789">
        <ele>213</ele>
        <time>2018-08-08T08:45:00Z</time>
      </trkpt>
      <trkpt lat="46.00375" lon="4.75796">
        <ele>213</ele>
        <time>2018-08-08T08:45:03Z</time>
      </trkpt>
      <trkpt lat="46.00377" lon="4.75799">
        <ele>213</ele>
        <time>2018-08-08T08:45:04Z</time>
      </trkpt>
      <trkpt lat="46.00384" lon="4.75807">
        <ele>213</ele>
        <time>2018-08-08T08:45:08Z</time>
      </trkpt>
      <trkpt lat="46.00385" lon="4.75809">
        <ele>213</ele>
        <time>2018-08-08T08:45:09Z</time>
      </trkpt>
      <trkpt lat="46.00391" lon="4.75817">
        <ele>213</ele>
        <time>2018-08-08T08:45:12Z</time>
      </trkpt>
      <trkpt lat="46.00392" lon="4.75819">
        <ele>213</ele>
        <time>2018-08-08T08:45:13Z</time>
      </trkpt>
      <trkpt lat="46.00397" lon="4.75827">
        <ele>213</ele>
        <time>2018-08-08T08:45:16Z</time>
      </trkpt>
      <trkpt lat="46.00398" lon="4.7583">
        <ele>213</ele>
        <time>2018-08-08T08:45:17Z</time>
      </trkpt>
      <trkpt lat="46.00402" lon="4.75837">
        <ele>214</ele>
        <time>2018-08-08T08:45:20Z</time>
      </trkpt>
      <trkpt lat="46.00404" lon="4.75839">
        <ele>214</ele>
        <time>2018-08-08T08:45:21Z</time>
      </trkpt>
      <trkpt lat="46.0041" lon="4.75848">
        <ele>214</ele>
        <time>2018-08-08T08:45:25Z</time>
      </trkpt>
      <trkpt lat="46.00412" lon="4.75851">
        <ele>214</ele>
        <time>2018-08-08T08:45:26Z</time>
      </trkpt>
      <trkpt lat="46.00415" lon="4.7586">
        <ele>215</ele>
        <time>2018-08-08T08:45:29Z</time>
      </trkpt>
      <trkpt lat="46.00417" lon="4.75864">
        <ele>216</ele>
        <time>2018-08-08T08:45:30Z</time>
      </trkpt>
      <trkpt lat="46.0042" lon="4.75872">
        <ele>216</ele>
        <time>2018-08-08T08:45:33Z</time>
      </trkpt>
      <trkpt lat="46.00422" lon="4.75875">
        <ele>217</ele>
        <time>2018-08-08T08:45:34Z</time>
      </trkpt>
      <trkpt lat="46.00426" lon="4.75884">
        <ele>217</ele>
        <time>2018-08-08T08:45:37Z</time>
      </trkpt>
      <trkpt lat="46.00427" lon="4.75887">
        <ele>217</ele>
        <time>2018-08-08T08:45:38Z</time>
      </trkpt>
      <trkpt lat="46.0043" lon="4.75896">
        <ele>217</ele>
        <time>2018-08-08T08:45:41Z</time>
      </trkpt>
      <trkpt lat="46.00431" lon="4.75899">
        <ele>217</ele>
        <time>2018-08-08T08:45:42Z</time>
      </trkpt>
      <trkpt lat="46.00435" lon="4.75907">
        <ele>217</ele>
        <time>2018-08-08T08:45:45Z</time>
      </trkpt>
      <trkpt lat="46.00436" lon="4.75911">
        <ele>217</ele>
        <time>2018-08-08T08:45:46Z</time>
      </trkpt>
      <trkpt lat="46.0044" lon="4.7592">
        <ele>218</ele>
        <time>2018-08-08T08:45:49Z</time>
      </trkpt>
      <trkpt lat="46.00441" lon="4.75924">
        <ele>218</ele>
        <time>2018-08-08T08:45:50Z</time>
      </trkpt>
      <trkpt lat="46.00444" lon="4.75933">
        <ele>218</ele>
        <time>2018-08-08T08:45:53Z</time>
      </trkpt>
      <trkpt lat="46.00445" lon="4.75936">
        <ele>218</ele>
        <time>2018-08-08T08:45:54Z</time>
      </trkpt>
      <trkpt lat="46.00446" lon="4.75948">
        <ele>219</ele>
        <time>2018-08-08T08:45:58Z</time>
      </trkpt>
      <trkpt lat="46.00445" lon="4.75951">
        <ele>219</ele>
        <time>2018-08-08T08:45:59Z</time>
      </trkpt>
      <trkpt lat="46.00443" lon="4.75962">
        <ele>219</ele>
        <time>2018-08-08T08:46:02Z</time>
      </trkpt>
      <trkpt lat="46.00441" lon="4.75965">
        <ele>219</ele>
        <time>2018-08-08T08:46:03Z</time>
      </trkpt>
      <trkpt lat="46.00436" lon="4.75972">
        <ele>219</ele>
        <time>2018-08-08T08:46:06Z</time>
      </trkpt>
      <trkpt lat="46.00434" lon="4.75975">
        <ele>219</ele>
        <time>2018-08-08T08:46:07Z</time>
      </trkpt>
      <trkpt lat="46.00427" lon="4.75982">
        <ele>220</ele>
        <time>2018-08-08T08:46:11Z</time>
      </trkpt>
      <trkpt lat="46.00425" lon="4.75984">
        <ele>220</ele>
        <time>2018-08-08T08:46:12Z</time>
      </trkpt>
      <trkpt lat="46.00417" lon="4.75988">
        <ele>220</ele>
        <time>2018-08-08T08:46:16Z</time>
      </trkpt>
      <trkpt lat="46.00415" lon="4.75989">
        <ele>221</ele>
        <time>2018-08-08T08:46:17Z</time>
      </trkpt>
      <trkpt lat="46.00408" lon="4.75995">
        <ele>221</ele>
        <time>2018-08-08T08:46:20Z</time>
      </trkpt>
      <trkpt lat="46.00406" lon="4.75996">
        <ele>221</ele>
        <time>2018-08-08T08:46:21Z</time>
      </trkpt>
      <trkpt lat="46.004" lon="4.76001">
        <ele>223</ele>
        <time>2018-08-08T08:46:24Z</time>
      </trkpt>
      <trkpt lat="46.00398" lon="4.76003">
        <ele>223</ele>
        <time>2018-08-08T08:46:25Z</time>
      </trkpt>
      <trkpt lat="46.00392" lon="4.76011">
        <ele>224</ele>
        <time>2018-08-08T08:46:29Z</time>
      </trkpt>
      <trkpt lat="46.0039" lon="4.76012">
        <ele>224</ele>
        <time>2018-08-08T08:46:30Z</time>
      </trkpt>
      <trkpt lat="46.00383" lon="4.76018">
        <ele>225</ele>
        <time>2018-08-08T08:46:34Z</time>
      </trkpt>
      <trkpt lat="46.00381" lon="4.76019">
        <ele>225</ele>
        <time>2018-08-08T08:46:35Z</time>
      </trkpt>
      <trkpt lat="46.00375" lon="4.76025">
        <ele>225</ele>
        <time>2018-08-08T08:46:38Z</time>
      </trkpt>
      <trkpt lat="46.00373" lon="4.76028">
        <ele>225</ele>
        <time>2018-08-08T08:46:39Z</time>
      </trkpt>
      <trkpt lat="46.00369" lon="4.76036">
        <ele>225</ele>
        <time>2018-08-08T08:46:42Z</time>
      </trkpt>
      <trkpt lat="46.00368" lon="4.76039">
        <ele>225</ele>
        <time>2018-08-08T08:46:43Z</time>
      </trkpt>
      <trkpt lat="46.00366" lon="4.76049">
        <ele>226</ele>
        <time>2018-08-08T08:46:46Z</time>
      </trkpt>
      <trkpt lat="46.00366" lon="4.76053">
        <ele>226</ele>
        <time>2018-08-08T08:46:47Z</time>
      </trkpt>
      <trkpt lat="46.00368" lon="4.76063">
        <ele>226</ele>
        <time>2018-08-08T08:46:50Z</time>
      </trkpt>
      <trkpt lat="46.00369" lon="4.76065">
        <ele>226</ele>
        <time>2018-08-08T08:46:51Z</time>
      </trkpt>
      <trkpt lat="46.00376" lon="4.76074">
        <ele>226</ele>
        <time>2018-08-08T08:46:56Z</time>
      </trkpt>
      <trkpt lat="46.00378" lon="4.76074">
        <ele>226</ele>
        <time>2018-08-08T08:46:57Z</time>
      </trkpt>
      <trkpt lat="46.00383" lon="4.76075">
        <ele>226</ele>
        <time>2018-08-08T08:47:00Z</time>
      </trkpt>
      <trkpt lat="46.00396" lon="4.76078">
        <ele>226</ele>
        <time>2018-08-08T08:47:01Z</time>
      </trkpt>
      <trkpt lat="46.00403" lon="4.76085">
        <ele>227</ele>
        <time>2018-08-08T08:47:06Z</time>
      </trkpt>
      <trkpt lat="46.00406" lon="4.76085">
        <ele>227</ele>
        <time>2018-08-08T08:47:07Z</time>
      </trkpt>
      <trkpt lat="46.00413" lon="4.76082">
        <ele>226</ele>
        <time>2018-08-08T08:47:10Z</time>
      </trkpt>
      <trkpt lat="46.00417" lon="4.76081">
        <ele>226</ele>
        <time>2018-08-08T08:47:11Z</time>
      </trkpt>
      <trkpt lat="46.00425" lon="4.7608">
        <ele>225</ele>
        <time>2018-08-08T08:47:14Z</time>
      </trkpt>
      <trkpt lat="46.00427" lon="4.7608">
        <ele>225</ele>
        <time>2018-08-08T08:47:15Z</time>
      </trkpt>
      <trkpt lat="46.00437" lon="4.76081">
        <ele>224</ele>
        <time>2018-08-08T08:47:16Z</time>
      </trkpt>
      <trkpt lat="46.00445" lon="4.76085">
        <ele>227</ele>
        <time>2018-08-08T08:47:22Z</time>
      </trkpt>
      <trkpt lat="46.00446" lon="4.76086">
        <ele>227</ele>
        <time>2018-08-08T08:47:23Z</time>
      </trkpt>
      <trkpt lat="46.00452" lon="4.7609">
        <ele>227</ele>
        <time>2018-08-08T08:47:26Z</time>
      </trkpt>
      <trkpt lat="46.00454" lon="4.76092">
        <ele>227</ele>
        <time>2018-08-08T08:47:27Z</time>
      </trkpt>
      <trkpt lat="46.00461" lon="4.76099">
        <ele>227</ele>
        <time>2018-08-08T08:47:30Z</time>
      </trkpt>
      <trkpt lat="46.00463" lon="4.76102">
        <ele>227</ele>
        <time>2018-08-08T08:47:31Z</time>
      </trkpt>
      <trkpt lat="46.0047" lon="4.76108">
        <ele>227</ele>
        <time>2018-08-08T08:47:35Z</time>
      </trkpt>
      <trkpt lat="46.00472" lon="4.76109">
        <ele>227</ele>
        <time>2018-08-08T08:47:36Z</time>
      </trkpt>
      <trkpt lat="46.00478" lon="4.76118">
        <ele>227</ele>
        <time>2018-08-08T08:47:40Z</time>
      </trkpt>
      <trkpt lat="46.0048" lon="4.7612">
        <ele>227</ele>
        <time>2018-08-08T08:47:41Z</time>
      </trkpt>
      <trkpt lat="46.00485" lon="4.76129">
        <ele>228</ele>
        <time>2018-08-08T08:47:45Z</time>
      </trkpt>
      <trkpt lat="46.00487" lon="4.7613">
        <ele>228</ele>
        <time>2018-08-08T08:47:46Z</time>
      </trkpt>
      <trkpt lat="46.00494" lon="4.76138">
        <ele>228</ele>
        <time>2018-08-08T08:47:50Z</time>
      </trkpt>
      <trkpt lat="46.00496" lon="4.7614">
        <ele>228</ele>
        <time>2018-08-08T08:47:51Z</time>
      </trkpt>
      <trkpt lat="46.00502" lon="4.76145">
        <ele>228</ele>
        <time>2018-08-08T08:47:54Z</time>
      </trkpt>
      <trkpt lat="46.00504" lon="4.76147">
        <ele>228</ele>
        <time>2018-08-08T08:47:55Z</time>
      </trkpt>
      <trkpt lat="46.00511" lon="4.76154">
        <ele>228</ele>
        <time>2018-08-08T08:47:58Z</time>
      </trkpt>
      <trkpt lat="46.00513" lon="4.76156">
        <ele>228</ele>
        <time>2018-08-08T08:47:59Z</time>
      </trkpt>
      <trkpt lat="46.0052" lon="4.76162">
        <ele>228</ele>
        <time>2018-08-08T08:48:02Z</time>
      </trkpt>
      <trkpt lat="46.00522" lon="4.76164">
        <ele>228</ele>
        <time>2018-08-08T08:48:03Z</time>
      </trkpt>
      <trkpt lat="46.00528" lon="4.7617">
        <ele>230</ele>
        <time>2018-08-08T08:48:06Z</time>
      </trkpt>
      <trkpt lat="46.0053" lon="4.76172">
        <ele>230</ele>
        <time>2018-08-08T08:48:07Z</time>
      </trkpt>
      <trkpt lat="46.00537" lon="4.76176">
        <ele>230</ele>
        <time>2018-08-08T08:48:10Z</time>
      </trkpt>
      <trkpt lat="46.0054" lon="4.76177">
        <ele>230</ele>
        <time>2018-08-08T08:48:11Z</time>
      </trkpt>
      <trkpt lat="46.00547" lon="4.7618">
        <ele>230</ele>
        <time>2018-08-08T08:48:14Z</time>
      </trkpt>
      <trkpt lat="46.0055" lon="4.76181">
        <ele>230</ele>
        <time>2018-08-08T08:48:15Z</time>
      </trkpt>
      <trkpt lat="46.00556" lon="4.76182">
        <ele>230</ele>
        <time>2018-08-08T08:48:17Z</time>
      </trkpt>
      <trkpt lat="46.00559" lon="4.76183">
        <ele>230</ele>
        <time>2018-08-08T08:48:18Z</time>
      </trkpt>
      <trkpt lat="46.00566" lon="4.76186">
        <ele>230</ele>
        <time>2018-08-08T08:48:21Z</time>
      </trkpt>
      <trkpt lat="46.00568" lon="4.76187">
        <ele>230</ele>
        <time>2018-08-08T08:48:22Z</time>
      </trkpt>
      <trkpt lat="46.00576" lon="4.76188">
        <ele>230</ele>
        <time>2018-08-08T08:48:25Z</time>
      </trkpt>
      <trkpt lat="46.00579" lon="4.76188">
        <ele>230</ele>
        <time>2018-08-08T08:48:26Z</time>
      </trkpt>
      <trkpt lat="46.00587" lon="4.76189">
        <ele>230</ele>
        <time>2018-08-08T08:48:29Z</time>
      </trkpt>
      <trkpt lat="46.00589" lon="4.7619">
        <ele>230</ele>
        <time>2018-08-08T08:48:30Z</time>
      </trkpt>
      <trkpt lat="46.00596" lon="4.76194">
        <ele>230</ele>
        <time>2018-08-08T08:48:33Z</time>
      </trkpt>
      <trkpt lat="46.00598" lon="4.76196">
        <ele>230</ele>
        <time>2018-08-08T08:48:34Z</time>
      </trkpt>
      <trkpt lat="46.00604" lon="4.762">
        <ele>230</ele>
        <time>2018-08-08T08:48:37Z</time>
      </trkpt>
      <trkpt lat="46.00607" lon="4.76201">
        <ele>230</ele>
        <time>2018-08-08T08:48:38Z</time>
      </trkpt>
      <trkpt lat="46.00615" lon="4.76203">
        <ele>230</ele>
        <time>2018-08-08T08:48:41Z</time>
      </trkpt>
      <trkpt lat="46.00619" lon="4.76204">
        <ele>230</ele>
        <time>2018-08-08T08:48:42Z</time>
      </trkpt>
      <trkpt lat="46.00626" lon="4.76205">
        <ele>230</ele>
        <time>2018-08-08T08:48:45Z</time>
      </trkpt>
      <trkpt lat="46.00632" lon="4.762">
        <ele>230</ele>
        <time>2018-08-08T08:48:46Z</time>
      </trkpt>
      <trkpt lat="46.00633" lon="4.76188">
        <ele>230</ele>
        <time>2018-08-08T08:48:48Z</time>
      </trkpt>
      <trkpt lat="46.00632" lon="4.76181">
        <ele>230</ele>
        <time>2018-08-08T08:48:49Z</time>
      </trkpt>
      <trkpt lat="46.00631" lon="4.76171">
        <ele>230</ele>
        <time>2018-08-08T08:48:50Z</time>
      </trkpt>
      <trkpt lat="46.00634" lon="4.76165">
        <ele>228</ele>
        <time>2018-08-08T08:48:51Z</time>
      </trkpt>
      <trkpt lat="46.00638" lon="4.7616">
        <ele>228</ele>
        <time>2018-08-08T08:48:52Z</time>
      </trkpt>
      <trkpt lat="46.00641" lon="4.76154">
        <ele>228</ele>
        <time>2018-08-08T08:48:53Z</time>
      </trkpt>
      <trkpt lat="46.00646" lon="4.76147">
        <ele>228</ele>
        <time>2018-08-08T08:48:54Z</time>
      </trkpt>
      <trkpt lat="46.00651" lon="4.76142">
        <ele>228</ele>
        <time>2018-08-08T08:48:55Z</time>
      </trkpt>
      <trkpt lat="46.00658" lon="4.76136">
        <ele>228</ele>
        <time>2018-08-08T08:48:56Z</time>
      </trkpt>
      <trkpt lat="46.00666" lon="4.7613">
        <ele>228</ele>
        <time>2018-08-08T08:48:57Z</time>
      </trkpt>
      <trkpt lat="46.00674" lon="4.76127">
        <ele>226</ele>
        <time>2018-08-08T08:48:58Z</time>
      </trkpt>
      <trkpt lat="46.00684" lon="4.76126">
        <ele>225</ele>
        <time>2018-08-08T08:48:59Z</time>
      </trkpt>
      <trkpt lat="46.00694" lon="4.76121">
        <ele>225</ele>
        <time>2018-08-08T08:49:00Z</time>
      </trkpt>
      <trkpt lat="46.00703" lon="4.76121">
        <ele>225</ele>
        <time>2018-08-08T08:49:01Z</time>
      </trkpt>
      <trkpt lat="46.00713" lon="4.7612">
        <ele>224</ele>
        <time>2018-08-08T08:49:02Z</time>
      </trkpt>
      <trkpt lat="46.00724" lon="4.76121">
        <ele>224</ele>
        <time>2018-08-08T08:49:03Z</time>
      </trkpt>
      <trkpt lat="46.00734" lon="4.76117">
        <ele>223</ele>
        <time>2018-08-08T08:49:04Z</time>
      </trkpt>
      <trkpt lat="46.00746" lon="4.76118">
        <ele>223</ele>
        <time>2018-08-08T08:49:05Z</time>
      </trkpt>
      <trkpt lat="46.00757" lon="4.76115">
        <ele>219</ele>
        <time>2018-08-08T08:49:06Z</time>
      </trkpt>
      <trkpt lat="46.00768" lon="4.76115">
        <ele>219</ele>
        <time>2018-08-08T08:49:07Z</time>
      </trkpt>
      <trkpt lat="46.00779" lon="4.76117">
        <ele>219</ele>
        <time>2018-08-08T08:49:08Z</time>
      </trkpt>
      <trkpt lat="46.00791" lon="4.76117">
        <ele>219</ele>
        <time>2018-08-08T08:49:09Z</time>
      </trkpt>
      <trkpt lat="46.00801" lon="4.76117">
        <ele>218</ele>
        <time>2018-08-08T08:49:10Z</time>
      </trkpt>
      <trkpt lat="46.00812" lon="4.76114">
        <ele>218</ele>
        <time>2018-08-08T08:49:11Z</time>
      </trkpt>
      <trkpt lat="46.00822" lon="4.76116">
        <ele>218</ele>
        <time>2018-08-08T08:49:12Z</time>
      </trkpt>
      <trkpt lat="46.00833" lon="4.76115">
        <ele>218</ele>
        <time>2018-08-08T08:49:13Z</time>
      </trkpt>
      <trkpt lat="46.00844" lon="4.76112">
        <ele>216</ele>
        <time>2018-08-08T08:49:14Z</time>
      </trkpt>
      <trkpt lat="46.00854" lon="4.76107">
        <ele>215</ele>
        <time>2018-08-08T08:49:15Z</time>
      </trkpt>
      <trkpt lat="46.00864" lon="4.76106">
        <ele>215</ele>
        <time>2018-08-08T08:49:16Z</time>
      </trkpt>
      <trkpt lat="46.00875" lon="4.76097">
        <ele>215</ele>
        <time>2018-08-08T08:49:17Z</time>
      </trkpt>
      <trkpt lat="46.00885" lon="4.76095">
        <ele>215</ele>
        <time>2018-08-08T08:49:18Z</time>
      </trkpt>
      <trkpt lat="46.00895" lon="4.76094">
        <ele>214</ele>
        <time>2018-08-08T08:49:19Z</time>
      </trkpt>
      <trkpt lat="46.00905" lon="4.76092">
        <ele>214</ele>
        <time>2018-08-08T08:49:20Z</time>
      </trkpt>
      <trkpt lat="46.00915" lon="4.76091">
        <ele>214</ele>
        <time>2018-08-08T08:49:21Z</time>
      </trkpt>
      <trkpt lat="46.00924" lon="4.76089">
        <ele>213</ele>
        <time>2018-08-08T08:49:22Z</time>
      </trkpt>
      <trkpt lat="46.00933" lon="4.76085">
        <ele>213</ele>
        <time>2018-08-08T08:49:23Z</time>
      </trkpt>
      <trkpt lat="46.00942" lon="4.76081">
        <ele>212</ele>
        <time>2018-08-08T08:49:24Z</time>
      </trkpt>
      <trkpt lat="46.00951" lon="4.7608">
        <ele>212</ele>
        <time>2018-08-08T08:49:25Z</time>
      </trkpt>
      <trkpt lat="46.0096" lon="4.76078">
        <ele>212</ele>
        <time>2018-08-08T08:49:26Z</time>
      </trkpt>
      <trkpt lat="46.00968" lon="4.76077">
        <ele>212</ele>
        <time>2018-08-08T08:49:27Z</time>
      </trkpt>
      <trkpt lat="46.00976" lon="4.76076">
        <ele>212</ele>
        <time>2018-08-08T08:49:28Z</time>
      </trkpt>
      <trkpt lat="46.00986" lon="4.76073">
        <ele>212</ele>
        <time>2018-08-08T08:49:29Z</time>
      </trkpt>
      <trkpt lat="46.00993" lon="4.76072">
        <ele>212</ele>
        <time>2018-08-08T08:49:30Z</time>
      </trkpt>
      <trkpt lat="46.01002" lon="4.7607">
        <ele>211</ele>
        <time>2018-08-08T08:49:31Z</time>
      </trkpt>
      <trkpt lat="46.01011" lon="4.76069">
        <ele>211</ele>
        <time>2018-08-08T08:49:32Z</time>
      </trkpt>
      <trkpt lat="46.01018" lon="4.76068">
        <ele>210</ele>
        <time>2018-08-08T08:49:33Z</time>
      </trkpt>
      <trkpt lat="46.01027" lon="4.76068">
        <ele>210</ele>
        <time>2018-08-08T08:49:34Z</time>
      </trkpt>
      <trkpt lat="46.01036" lon="4.76072">
        <ele>210</ele>
        <time>2018-08-08T08:49:35Z</time>
      </trkpt>
      <trkpt lat="46.01044" lon="4.76071">
        <ele>210</ele>
        <time>2018-08-08T08:49:36Z</time>
      </trkpt>
      <trkpt lat="46.01053" lon="4.76068">
        <ele>210</ele>
        <time>2018-08-08T08:49:37Z</time>
      </trkpt>
      <trkpt lat="46.01062" lon="4.76066">
        <ele>209</ele>
        <time>2018-08-08T08:49:38Z</time>
      </trkpt>
      <trkpt lat="46.01072" lon="4.76062">
        <ele>209</ele>
        <time>2018-08-08T08:49:39Z</time>
      </trkpt>
      <trkpt lat="46.0108" lon="4.76062">
        <ele>209</ele>
        <time>2018-08-08T08:49:40Z</time>
      </trkpt>
      <trkpt lat="46.01088" lon="4.76063">
        <ele>208</ele>
        <time>2018-08-08T08:49:41Z</time>
      </trkpt>
      <trkpt lat="46.01097" lon="4.76057">
        <ele>208</ele>
        <time>2018-08-08T08:49:42Z</time>
      </trkpt>
      <trkpt lat="46.01105" lon="4.76058">
        <ele>208</ele>
        <time>2018-08-08T08:49:43Z</time>
      </trkpt>
      <trkpt lat="46.01113" lon="4.76056">
        <ele>208</ele>
        <time>2018-08-08T08:49:44Z</time>
      </trkpt>
      <trkpt lat="46.0112" lon="4.76058">
        <ele>208</ele>
        <time>2018-08-08T08:49:45Z</time>
      </trkpt>
      <trkpt lat="46.01125" lon="4.76059">
        <ele>208</ele>
        <time>2018-08-08T08:49:46Z</time>
      </trkpt>
      <trkpt lat="46.01132" lon="4.76062">
        <ele>208</ele>
        <time>2018-08-08T08:49:47Z</time>
      </trkpt>
      <trkpt lat="46.01141" lon="4.76059">
        <ele>208</ele>
        <time>2018-08-08T08:49:48Z</time>
      </trkpt>
      <trkpt lat="46.01149" lon="4.76056">
        <ele>208</ele>
        <time>2018-08-08T08:49:49Z</time>
      </trkpt>
      <trkpt lat="46.01157" lon="4.76053">
        <ele>208</ele>
        <time>2018-08-08T08:49:50Z</time>
      </trkpt>
      <trkpt lat="46.01165" lon="4.7605">
        <ele>208</ele>
        <time>2018-08-08T08:49:51Z</time>
      </trkpt>
      <trkpt lat="46.01174" lon="4.76052">
        <ele>207</ele>
        <time>2018-08-08T08:49:52Z</time>
      </trkpt>
      <trkpt lat="46.01178" lon="4.76048">
        <ele>207</ele>
        <time>2018-08-08T08:49:53Z</time>
      </trkpt>
      <trkpt lat="46.01185" lon="4.76056">
        <ele>206</ele>
        <time>2018-08-08T08:49:54Z</time>
      </trkpt>
      <trkpt lat="46.01191" lon="4.76053">
        <ele>206</ele>
        <time>2018-08-08T08:49:55Z</time>
      </trkpt>
      <trkpt lat="46.01198" lon="4.76057">
        <ele>206</ele>
        <time>2018-08-08T08:49:56Z</time>
      </trkpt>
      <trkpt lat="46.01208" lon="4.76063">
        <ele>206</ele>
        <time>2018-08-08T08:49:57Z</time>
      </trkpt>
      <trkpt lat="46.01215" lon="4.76067">
        <ele>206</ele>
        <time>2018-08-08T08:49:58Z</time>
      </trkpt>
      <trkpt lat="46.01224" lon="4.76068">
        <ele>206</ele>
        <time>2018-08-08T08:49:59Z</time>
      </trkpt>
      <trkpt lat="46.01233" lon="4.76067">
        <ele>205</ele>
        <time>2018-08-08T08:50:00Z</time>
      </trkpt>
      <trkpt lat="46.0124" lon="4.76071">
        <ele>205</ele>
        <time>2018-08-08T08:50:01Z</time>
      </trkpt>
      <trkpt lat="46.01248" lon="4.7607">
        <ele>205</ele>
        <time>2018-08-08T08:50:02Z</time>
      </trkpt>
      <trkpt lat="46.01254" lon="4.76069">
        <ele>204</ele>
        <time>2018-08-08T08:50:03Z</time>
      </trkpt>
      <trkpt lat="46.01263" lon="4.76067">
        <ele>204</ele>
        <time>2018-08-08T08:50:04Z</time>
      </trkpt>
      <trkpt lat="46.0127" lon="4.76066">
        <ele>204</ele>
        <time>2018-08-08T08:50:05Z</time>
      </trkpt>
      <trkpt lat="46.01275" lon="4.76065">
        <ele>204</ele>
        <time>2018-08-08T08:50:06Z</time>
      </trkpt>
      <trkpt lat="46.01282" lon="4.76066">
        <ele>204</ele>
        <time>2018-08-08T08:50:07Z</time>
      </trkpt>
      <trkpt lat="46.01288" lon="4.76065">
        <ele>204</ele>
        <time>2018-08-08T08:50:08Z</time>
      </trkpt>
      <trkpt lat="46.01294" lon="4.76063">
        <ele>204</ele>
        <time>2018-08-08T08:50:09Z</time>
      </trkpt>
      <trkpt lat="46.01301" lon="4.7606">
        <ele>203</ele>
        <time>2018-08-08T08:50:10Z</time>
      </trkpt>
      <trkpt lat="46.01306" lon="4.76058">
        <ele>203</ele>
        <time>2018-08-08T08:50:11Z</time>
      </trkpt>
      <trkpt lat="46.01312" lon="4.76056">
        <ele>203</ele>
        <time>2018-08-08T08:50:12Z</time>
      </trkpt>
      <trkpt lat="46.01319" lon="4.76054">
        <ele>203</ele>
        <time>2018-08-08T08:50:13Z</time>
      </trkpt>
      <trkpt lat="46.01324" lon="4.76052">
        <ele>203</ele>
        <time>2018-08-08T08:50:14Z</time>
      </trkpt>
      <trkpt lat="46.0133" lon="4.76051">
        <ele>203</ele>
        <time>2018-08-08T08:50:15Z</time>
      </trkpt>
      <trkpt lat="46.01336" lon="4.7605">
        <ele>203</ele>
        <time>2018-08-08T08:50:16Z</time>
      </trkpt>
      <trkpt lat="46.01342" lon="4.76051">
        <ele>203</ele>
        <time>2018-08-08T08:50:17Z</time>
      </trkpt>
      <trkpt lat="46.01348" lon="4.7605">
        <ele>203</ele>
        <time>2018-08-08T08:50:18Z</time>
      </trkpt>
      <trkpt lat="46.01354" lon="4.76047">
        <ele>203</ele>
        <time>2018-08-08T08:50:19Z</time>
      </trkpt>
      <trkpt lat="46.01359" lon="4.76044">
        <ele>203</ele>
        <time>2018-08-08T08:50:20Z</time>
      </trkpt>
      <trkpt lat="46.01364" lon="4.76042">
        <ele>203</ele>
        <time>2018-08-08T08:50:21Z</time>
      </trkpt>
      <trkpt lat="46.01368" lon="4.7604">
        <ele>203</ele>
        <time>2018-08-08T08:50:22Z</time>
      </trkpt>
      <trkpt lat="46.01373" lon="4.76041">
        <ele>203</ele>
        <time>2018-08-08T08:50:23Z</time>
      </trkpt>
      <trkpt lat="46.01378" lon="4.7604">
        <ele>203</ele>
        <time>2018-08-08T08:50:24Z</time>
      </trkpt>
      <trkpt lat="46.01383" lon="4.76041">
        <ele>203</ele>
        <time>2018-08-08T08:50:25Z</time>
      </trkpt>
      <trkpt lat="46.0139" lon="4.76042">
        <ele>203</ele>
        <time>2018-08-08T08:50:26Z</time>
      </trkpt>
      <trkpt lat="46.01396" lon="4.76041">
        <ele>203</ele>
        <time>2018-08-08T08:50:27Z</time>
      </trkpt>
      <trkpt lat="46.01401" lon="4.76043">
        <ele>203</ele>
        <time>2018-08-08T08:50:28Z</time>
      </trkpt>
      <trkpt lat="46.01407" lon="4.76046">
        <ele>203</ele>
        <time>2018-08-08T08:50:29Z</time>
      </trkpt>
      <trkpt lat="46.01413" lon="4.76046">
        <ele>203</ele>
        <time>2018-08-08T08:50:30Z</time>
      </trkpt>
      <trkpt lat="46.01418" lon="4.76049">
        <ele>204</ele>
        <time>2018-08-08T08:50:31Z</time>
      </trkpt>
      <trkpt lat="46.01424" lon="4.76053">
        <ele>204</ele>
        <time>2018-08-08T08:50:32Z</time>
      </trkpt>
      <trkpt lat="46.0143" lon="4.76056">
        <ele>203</ele>
        <time>2018-08-08T08:50:33Z</time>
      </trkpt>
      <trkpt lat="46.01435" lon="4.76061">
        <ele>203</ele>
        <time>2018-08-08T08:50:34Z</time>
      </trkpt>
      <trkpt lat="46.01439" lon="4.76066">
        <ele>203</ele>
        <time>2018-08-08T08:50:35Z</time>
      </trkpt>
      <trkpt lat="46.01446" lon="4.76069">
        <ele>203</ele>
        <time>2018-08-08T08:50:36Z</time>
      </trkpt>
      <trkpt lat="46.01452" lon="4.76072">
        <ele>203</ele>
        <time>2018-08-08T08:50:37Z</time>
      </trkpt>
      <trkpt lat="46.01458" lon="4.76074">
        <ele>203</ele>
        <time>2018-08-08T08:50:38Z</time>
      </trkpt>
      <trkpt lat="46.01464" lon="4.76075">
        <ele>203</ele>
        <time>2018-08-08T08:50:39Z</time>
      </trkpt>
      <trkpt lat="46.0147" lon="4.76076">
        <ele>203</ele>
        <time>2018-08-08T08:50:40Z</time>
      </trkpt>
      <trkpt lat="46.01476" lon="4.76077">
        <ele>203</ele>
        <time>2018-08-08T08:50:41Z</time>
      </trkpt>
      <trkpt lat="46.01483" lon="4.76079">
        <ele>203</ele>
        <time>2018-08-08T08:50:42Z</time>
      </trkpt>
      <trkpt lat="46.0149" lon="4.76081">
        <ele>203</ele>
        <time>2018-08-08T08:50:43Z</time>
      </trkpt>
      <trkpt lat="46.01497" lon="4.76082">
        <ele>203</ele>
        <time>2018-08-08T08:50:44Z</time>
      </trkpt>
      <trkpt lat="46.01504" lon="4.76084">
        <ele>203</ele>
        <time>2018-08-08T08:50:45Z</time>
      </trkpt>
      <trkpt lat="46.01511" lon="4.76085">
        <ele>203</ele>
        <time>2018-08-08T08:50:46Z</time>
      </trkpt>
      <trkpt lat="46.01518" lon="4.76087">
        <ele>203</ele>
        <time>2018-08-08T08:50:47Z</time>
      </trkpt>
      <trkpt lat="46.01525" lon="4.76088">
        <ele>202</ele>
        <time>2018-08-08T08:50:48Z</time>
      </trkpt>
      <trkpt lat="46.01532" lon="4.76089">
        <ele>202</ele>
        <time>2018-08-08T08:50:49Z</time>
      </trkpt>
      <trkpt lat="46.01538" lon="4.76091">
        <ele>202</ele>
        <time>2018-08-08T08:50:50Z</time>
      </trkpt>
      <trkpt lat="46.01545" lon="4.76093">
        <ele>202</ele>
        <time>2018-08-08T08:50:51Z</time>
      </trkpt>
      <trkpt lat="46.01551" lon="4.76096">
        <ele>202</ele>
        <time>2018-08-08T08:50:52Z</time>
      </trkpt>
      <trkpt lat="46.01557" lon="4.76099">
        <ele>202</ele>
        <time>2018-08-08T08:50:53Z</time>
      </trkpt>
      <trkpt lat="46.01563" lon="4.76102">
        <ele>202</ele>
        <time>2018-08-08T08:50:54Z</time>
      </trkpt>
      <trkpt lat="46.01569" lon="4.76105">
        <ele>202</ele>
        <time>2018-08-08T08:50:55Z</time>
      </trkpt>
      <trkpt lat="46.01574" lon="4.76108">
        <ele>202</ele>
        <time>2018-08-08T08:50:56Z</time>
      </trkpt>
      <trkpt lat="46.01581" lon="4.7611">
        <ele>202</ele>
        <time>2018-08-08T08:50:57Z</time>
      </trkpt>
      <trkpt lat="46.01587" lon="4.76112">
        <ele>200</ele>
        <time>2018-08-08T08:50:58Z</time>
      </trkpt>
      <trkpt lat="46.01594" lon="4.76112">
        <ele>200</ele>
        <time>2018-08-08T08:50:59Z</time>
      </trkpt>
      <trkpt lat="46.01601" lon="4.76114">
        <ele>200</ele>
        <time>2018-08-08T08:51:00Z</time>
      </trkpt>
      <trkpt lat="46.01608" lon="4.76114">
        <ele>200</ele>
        <time>2018-08-08T08:51:01Z</time>
      </trkpt>
      <trkpt lat="46.01613" lon="4.76116">
        <ele>200</ele>
        <time>2018-08-08T08:51:02Z</time>
      </trkpt>
      <trkpt lat="46.01621" lon="4.76114">
        <ele>200</ele>
        <time>2018-08-08T08:51:03Z</time>
      </trkpt>
      <trkpt lat="46.01629" lon="4.76118">
        <ele>199</ele>
        <time>2018-08-08T08:51:04Z</time>
      </trkpt>
      <trkpt lat="46.01635" lon="4.76119">
        <ele>199</ele>
        <time>2018-08-08T08:51:05Z</time>
      </trkpt>
      <trkpt lat="46.01642" lon="4.76121">
        <ele>199</ele>
        <time>2018-08-08T08:51:06Z</time>
      </trkpt>
      <trkpt lat="46.01649" lon="4.76122">
        <ele>199</ele>
        <time>2018-08-08T08:51:07Z</time>
      </trkpt>
      <trkpt lat="46.01654" lon="4.76121">
        <ele>199</ele>
        <time>2018-08-08T08:51:08Z</time>
      </trkpt>
      <trkpt lat="46.01661" lon="4.76122">
        <ele>199</ele>
        <time>2018-08-08T08:51:09Z</time>
      </trkpt>
      <trkpt lat="46.01667" lon="4.76122">
        <ele>198</ele>
        <time>2018-08-08T08:51:10Z</time>
      </trkpt>
      <trkpt lat="46.01672" lon="4.76123">
        <ele>198</ele>
        <time>2018-08-08T08:51:11Z</time>
      </trkpt>
      <trkpt lat="46.01679" lon="4.76123">
        <ele>198</ele>
        <time>2018-08-08T08:51:12Z</time>
      </trkpt>
      <trkpt lat="46.01686" lon="4.76123">
        <ele>198</ele>
        <time>2018-08-08T08:51:13Z</time>
      </trkpt>
      <trkpt lat="46.01692" lon="4.76124">
        <ele>198</ele>
        <time>2018-08-08T08:51:14Z</time>
      </trkpt>
      <trkpt lat="46.01698" lon="4.76125">
        <ele>198</ele>
        <time>2018-08-08T08:51:15Z</time>
      </trkpt>
      <trkpt lat="46.01704" lon="4.76126">
        <ele>198</ele>
        <time>2018-08-08T08:51:16Z</time>
      </trkpt>
      <trkpt lat="46.0171" lon="4.76127">
        <ele>197</ele>
        <time>2018-08-08T08:51:17Z</time>
      </trkpt>
      <trkpt lat="46.01716" lon="4.76129">
        <ele>197</ele>
        <time>2018-08-08T08:51:18Z</time>
      </trkpt>
      <trkpt lat="46.01724" lon="4.76128">
        <ele>197</ele>
        <time>2018-08-08T08:51:19Z</time>
      </trkpt>
      <trkpt lat="46.01731" lon="4.76126">
        <ele>197</ele>
        <time>2018-08-08T08:51:20Z</time>
      </trkpt>
      <trkpt lat="46.01737" lon="4.76124">
        <ele>197</ele>
        <time>2018-08-08T08:51:21Z</time>
      </trkpt>
      <trkpt lat="46.01741" lon="4.76127">
        <ele>197</ele>
        <time>2018-08-08T08:51:22Z</time>
      </trkpt>
      <trkpt lat="46.01747" lon="4.76128">
        <ele>197</ele>
        <time>2018-08-08T08:51:23Z</time>
      </trkpt>
      <trkpt lat="46.01752" lon="4.76129">
        <ele>198</ele>
        <time>2018-08-08T08:51:24Z</time>
      </trkpt>
      <trkpt lat="46.01757" lon="4.76131">
        <ele>198</ele>
        <time>2018-08-08T08:51:25Z</time>
      </trkpt>
      <trkpt lat="46.01764" lon="4.76132">
        <ele>198</ele>
        <time>2018-08-08T08:51:26Z</time>
      </trkpt>
      <trkpt lat="46.0177" lon="4.76132">
        <ele>198</ele>
        <time>2018-08-08T08:51:27Z</time>
      </trkpt>
      <trkpt lat="46.01776" lon="4.76133">
        <ele>198</ele>
        <time>2018-08-08T08:51:28Z</time>
      </trkpt>
      <trkpt lat="46.01783" lon="4.76134">
        <ele>198</ele>
        <time>2018-08-08T08:51:29Z</time>
      </trkpt>
      <trkpt lat="46.01789" lon="4.76135">
        <ele>198</ele>
        <time>2018-08-08T08:51:30Z</time>
      </trkpt>
      <trkpt lat="46.01796" lon="4.76135">
        <ele>198</ele>
        <time>2018-08-08T08:51:31Z</time>
      </trkpt>
      <trkpt lat="46.01803" lon="4.76136">
        <ele>198</ele>
        <time>2018-08-08T08:51:32Z</time>
      </trkpt>
      <trkpt lat="46.01808" lon="4.76136">
        <ele>198</ele>
        <time>2018-08-08T08:51:33Z</time>
      </trkpt>
      <trkpt lat="46.01815" lon="4.76136">
        <ele>198</ele>
        <time>2018-08-08T08:51:34Z</time>
      </trkpt>
      <trkpt lat="46.01821" lon="4.76137">
        <ele>198</ele>
        <time>2018-08-08T08:51:35Z</time>
      </trkpt>
      <trkpt lat="46.01826" lon="4.76137">
        <ele>198</ele>
        <time>2018-08-08T08:51:36Z</time>
      </trkpt>
      <trkpt lat="46.01832" lon="4.76138">
        <ele>198</ele>
        <time>2018-08-08T08:51:37Z</time>
      </trkpt>
      <trkpt lat="46.01837" lon="4.76137">
        <ele>199</ele>
        <time>2018-08-08T08:51:38Z</time>
      </trkpt>
      <trkpt lat="46.01843" lon="4.76138">
        <ele>199</ele>
        <time>2018-08-08T08:51:39Z</time>
      </trkpt>
      <trkpt lat="46.01848" lon="4.76138">
        <ele>199</ele>
        <time>2018-08-08T08:51:40Z</time>
      </trkpt>
      <trkpt lat="46.01853" lon="4.76137">
        <ele>199</ele>
        <time>2018-08-08T08:51:41Z</time>
      </trkpt>
      <trkpt lat="46.01858" lon="4.76137">
        <ele>199</ele>
        <time>2018-08-08T08:51:42Z</time>
      </trkpt>
      <trkpt lat="46.01863" lon="4.76138">
        <ele>199</ele>
        <time>2018-08-08T08:51:43Z</time>
      </trkpt>
      <trkpt lat="46.01868" lon="4.76138">
        <ele>199</ele>
        <time>2018-08-08T08:51:44Z</time>
      </trkpt>
      <trkpt lat="46.01874" lon="4.76135">
        <ele>199</ele>
        <time>2018-08-08T08:51:45Z</time>
      </trkpt>
      <trkpt lat="46.01878" lon="4.76135">
        <ele>199</ele>
        <time>2018-08-08T08:51:46Z</time>
      </trkpt>
      <trkpt lat="46.01883" lon="4.76134">
        <ele>199</ele>
        <time>2018-08-08T08:51:47Z</time>
      </trkpt>
      <trkpt lat="46.01889" lon="4.76133">
        <ele>199</ele>
        <time>2018-08-08T08:51:48Z</time>
      </trkpt>
      <trkpt lat="46.01896" lon="4.76133">
        <ele>199</ele>
        <time>2018-08-08T08:51:49Z</time>
      </trkpt>
      <trkpt lat="46.01901" lon="4.76132">
        <ele>199</ele>
        <time>2018-08-08T08:51:50Z</time>
      </trkpt>
      <trkpt lat="46.01908" lon="4.76132">
        <ele>199</ele>
        <time>2018-08-08T08:51:51Z</time>
      </trkpt>
      <trkpt lat="46.01912" lon="4.76133">
        <ele>199</ele>
        <time>2018-08-08T08:51:52Z</time>
      </trkpt>
      <trkpt lat="46.01918" lon="4.76132">
        <ele>199</ele>
        <time>2018-08-08T08:51:53Z</time>
      </trkpt>
      <trkpt lat="46.01921" lon="4.7613">
        <ele>199</ele>
        <time>2018-08-08T08:51:54Z</time>
      </trkpt>
      <trkpt lat="46.01927" lon="4.76126">
        <ele>199</ele>
        <time>2018-08-08T08:51:55Z</time>
      </trkpt>
      <trkpt lat="46.01932" lon="4.76124">
        <ele>198</ele>
        <time>2018-08-08T08:51:56Z</time>
      </trkpt>
      <trkpt lat="46.01937" lon="4.76122">
        <ele>198</ele>
        <time>2018-08-08T08:51:57Z</time>
      </trkpt>
      <trkpt lat="46.01942" lon="4.76122">
        <ele>198</ele>
        <time>2018-08-08T08:51:58Z</time>
      </trkpt>
      <trkpt lat="46.01947" lon="4.76118">
        <ele>198</ele>
        <time>2018-08-08T08:51:59Z</time>
      </trkpt>
      <trkpt lat="46.01954" lon="4.76116">
        <ele>198</ele>
        <time>2018-08-08T08:52:00Z</time>
      </trkpt>
      <trkpt lat="46.01962" lon="4.76111">
        <ele>198</ele>
        <time>2018-08-08T08:52:01Z</time>
      </trkpt>
      <trkpt lat="46.0197" lon="4.76114">
        <ele>198</ele>
        <time>2018-08-08T08:52:03Z</time>
      </trkpt>
      <trkpt lat="46.01976" lon="4.76113">
        <ele>198</ele>
        <time>2018-08-08T08:52:04Z</time>
      </trkpt>
      <trkpt lat="46.01984" lon="4.76112">
        <ele>198</ele>
        <time>2018-08-08T08:52:05Z</time>
      </trkpt>
      <trkpt lat="46.01989" lon="4.7611">
        <ele>198</ele>
        <time>2018-08-08T08:52:06Z</time>
      </trkpt>
      <trkpt lat="46.01994" lon="4.7611">
        <ele>198</ele>
        <time>2018-08-08T08:52:07Z</time>
      </trkpt>
      <trkpt lat="46.01998" lon="4.76111">
        <ele>198</ele>
        <time>2018-08-08T08:52:08Z</time>
      </trkpt>
      <trkpt lat="46.02007" lon="4.76105">
        <ele>197</ele>
        <time>2018-08-08T08:52:09Z</time>
      </trkpt>
      <trkpt lat="46.02014" lon="4.76104">
        <ele>197</ele>
        <time>2018-08-08T08:52:10Z</time>
      </trkpt>
      <trkpt lat="46.02019" lon="4.76103">
        <ele>197</ele>
        <time>2018-08-08T08:52:11Z</time>
      </trkpt>
      <trkpt lat="46.02024" lon="4.76102">
        <ele>197</ele>
        <time>2018-08-08T08:52:12Z</time>
      </trkpt>
      <trkpt lat="46.02031" lon="4.76102">
        <ele>197</ele>
        <time>2018-08-08T08:52:13Z</time>
      </trkpt>
      <trkpt lat="46.02037" lon="4.76097">
        <ele>197</ele>
        <time>2018-08-08T08:52:14Z</time>
      </trkpt>
      <trkpt lat="46.02044" lon="4.76095">
        <ele>197</ele>
        <time>2018-08-08T08:52:15Z</time>
      </trkpt>
      <trkpt lat="46.0205" lon="4.76093">
        <ele>197</ele>
        <time>2018-08-08T08:52:16Z</time>
      </trkpt>
      <trkpt lat="46.02057" lon="4.7609">
        <ele>197</ele>
        <time>2018-08-08T08:52:17Z</time>
      </trkpt>
      <trkpt lat="46.02065" lon="4.76087">
        <ele>197</ele>
        <time>2018-08-08T08:52:18Z</time>
      </trkpt>
      <trkpt lat="46.02072" lon="4.76086">
        <ele>196</ele>
        <time>2018-08-08T08:52:19Z</time>
      </trkpt>
      <trkpt lat="46.02078" lon="4.7609">
        <ele>196</ele>
        <time>2018-08-08T08:52:20Z</time>
      </trkpt>
      <trkpt lat="46.02085" lon="4.76084">
        <ele>196</ele>
        <time>2018-08-08T08:52:21Z</time>
      </trkpt>
      <trkpt lat="46.02092" lon="4.7608">
        <ele>195</ele>
        <time>2018-08-08T08:52:22Z</time>
      </trkpt>
      <trkpt lat="46.02099" lon="4.76075">
        <ele>195</ele>
        <time>2018-08-08T08:52:23Z</time>
      </trkpt>
      <trkpt lat="46.02106" lon="4.76071">
        <ele>194</ele>
        <time>2018-08-08T08:52:24Z</time>
      </trkpt>
      <trkpt lat="46.02114" lon="4.76064">
        <ele>194</ele>
        <time>2018-08-08T08:52:25Z</time>
      </trkpt>
      <trkpt lat="46.02119" lon="4.76057">
        <ele>194</ele>
        <time>2018-08-08T08:52:26Z</time>
      </trkpt>
      <trkpt lat="46.02125" lon="4.76052">
        <ele>194</ele>
        <time>2018-08-08T08:52:27Z</time>
      </trkpt>
      <trkpt lat="46.02132" lon="4.76043">
        <ele>193</ele>
        <time>2018-08-08T08:52:28Z</time>
      </trkpt>
      <trkpt lat="46.02138" lon="4.76038">
        <ele>193</ele>
        <time>2018-08-08T08:52:29Z</time>
      </trkpt>
      <trkpt lat="46.02144" lon="4.76032">
        <ele>193</ele>
        <time>2018-08-08T08:52:30Z</time>
      </trkpt>
      <trkpt lat="46.0215" lon="4.76029">
        <ele>193</ele>
        <time>2018-08-08T08:52:31Z</time>
      </trkpt>
      <trkpt lat="46.02155" lon="4.76024">
        <ele>193</ele>
        <time>2018-08-08T08:52:32Z</time>
      </trkpt>
      <trkpt lat="46.0216" lon="4.7602">
        <ele>193</ele>
        <time>2018-08-08T08:52:33Z</time>
      </trkpt>
      <trkpt lat="46.02165" lon="4.76015">
        <ele>193</ele>
        <time>2018-08-08T08:52:34Z</time>
      </trkpt>
      <trkpt lat="46.0217" lon="4.7601">
        <ele>193</ele>
        <time>2018-08-08T08:52:35Z</time>
      </trkpt>
      <trkpt lat="46.02177" lon="4.76005">
        <ele>193</ele>
        <time>2018-08-08T08:52:36Z</time>
      </trkpt>
      <trkpt lat="46.02184" lon="4.75994">
        <ele>192</ele>
        <time>2018-08-08T08:52:37Z</time>
      </trkpt>
      <trkpt lat="46.02189" lon="4.75989">
        <ele>192</ele>
        <time>2018-08-08T08:52:38Z</time>
      </trkpt>
      <trkpt lat="46.02195" lon="4.75985">
        <ele>192</ele>
        <time>2018-08-08T08:52:39Z</time>
      </trkpt>
      <trkpt lat="46.02198" lon="4.75981">
        <ele>192</ele>
        <time>2018-08-08T08:52:40Z</time>
      </trkpt>
      <trkpt lat="46.02204" lon="4.75977">
        <ele>192</ele>
        <time>2018-08-08T08:52:41Z</time>
      </trkpt>
      <trkpt lat="46.02209" lon="4.7597">
        <ele>192</ele>
        <time>2018-08-08T08:52:42Z</time>
      </trkpt>
      <trkpt lat="46.02214" lon="4.75967">
        <ele>192</ele>
        <time>2018-08-08T08:52:43Z</time>
      </trkpt>
      <trkpt lat="46.02219" lon="4.75962">
        <ele>193</ele>
        <time>2018-08-08T08:52:44Z</time>
      </trkpt>
      <trkpt lat="46.02223" lon="4.75957">
        <ele>193</ele>
        <time>2018-08-08T08:52:45Z</time>
      </trkpt>
      <trkpt lat="46.02231" lon="4.75952">
        <ele>193</ele>
        <time>2018-08-08T08:52:47Z</time>
      </trkpt>
      <trkpt lat="46.02235" lon="4.75949">
        <ele>193</ele>
        <time>2018-08-08T08:52:48Z</time>
      </trkpt>
      <trkpt lat="46.02241" lon="4.75948">
        <ele>193</ele>
        <time>2018-08-08T08:52:49Z</time>
      </trkpt>
      <trkpt lat="46.02248" lon="4.75943">
        <ele>193</ele>
        <time>2018-08-08T08:52:50Z</time>
      </trkpt>
      <trkpt lat="46.02252" lon="4.75941">
        <ele>194</ele>
        <time>2018-08-08T08:52:51Z</time>
      </trkpt>
      <trkpt lat="46.02256" lon="4.75938">
        <ele>194</ele>
        <time>2018-08-08T08:52:52Z</time>
      </trkpt>
      <trkpt lat="46.02261" lon="4.75934">
        <ele>193</ele>
        <time>2018-08-08T08:52:53Z</time>
      </trkpt>
      <trkpt lat="46.02265" lon="4.7593">
        <ele>193</ele>
        <time>2018-08-08T08:52:54Z</time>
      </trkpt>
      <trkpt lat="46.02269" lon="4.75927">
        <ele>193</ele>
        <time>2018-08-08T08:52:55Z</time>
      </trkpt>
      <trkpt lat="46.02274" lon="4.75923">
        <ele>194</ele>
        <time>2018-08-08T08:52:56Z</time>
      </trkpt>
      <trkpt lat="46.02278" lon="4.75918">
        <ele>194</ele>
        <time>2018-08-08T08:52:57Z</time>
      </trkpt>
      <trkpt lat="46.02283" lon="4.75913">
        <ele>193</ele>
        <time>2018-08-08T08:52:58Z</time>
      </trkpt>
      <trkpt lat="46.02288" lon="4.75908">
        <ele>193</ele>
        <time>2018-08-08T08:52:59Z</time>
      </trkpt>
      <trkpt lat="46.02292" lon="4.75904">
        <ele>193</ele>
        <time>2018-08-08T08:53:00Z</time>
      </trkpt>
      <trkpt lat="46.02296" lon="4.75899">
        <ele>193</ele>
        <time>2018-08-08T08:53:01Z</time>
      </trkpt>
      <trkpt lat="46.02302" lon="4.75894">
        <ele>193</ele>
        <time>2018-08-08T08:53:02Z</time>
      </trkpt>
      <trkpt lat="46.02308" lon="4.75889">
        <ele>193</ele>
        <time>2018-08-08T08:53:03Z</time>
      </trkpt>
      <trkpt lat="46.02313" lon="4.75885">
        <ele>193</ele>
        <time>2018-08-08T08:53:04Z</time>
      </trkpt>
      <trkpt lat="46.02316" lon="4.7588">
        <ele>193</ele>
        <time>2018-08-08T08:53:05Z</time>
      </trkpt>
      <trkpt lat="46.02321" lon="4.75876">
        <ele>193</ele>
        <time>2018-08-08T08:53:06Z</time>
      </trkpt>
      <trkpt lat="46.02326" lon="4.75872">
        <ele>193</ele>
        <time>2018-08-08T08:53:07Z</time>
      </trkpt>
      <trkpt lat="46.02331" lon="4.75868">
        <ele>193</ele>
        <time>2018-08-08T08:53:08Z</time>
      </trkpt>
      <trkpt lat="46.02336" lon="4.75863">
        <ele>193</ele>
        <time>2018-08-08T08:53:09Z</time>
      </trkpt>
      <trkpt lat="46.02341" lon="4.75857">
        <ele>193</ele>
        <time>2018-08-08T08:53:10Z</time>
      </trkpt>
      <trkpt lat="46.02347" lon="4.75853">
        <ele>193</ele>
        <time>2018-08-08T08:53:11Z</time>
      </trkpt>
      <trkpt lat="46.02351" lon="4.75848">
        <ele>193</ele>
        <time>2018-08-08T08:53:12Z</time>
      </trkpt>
      <trkpt lat="46.02357" lon="4.75843">
        <ele>193</ele>
        <time>2018-08-08T08:53:13Z</time>
      </trkpt>
      <trkpt lat="46.02363" lon="4.75839">
        <ele>193</ele>
        <time>2018-08-08T08:53:14Z</time>
      </trkpt>
      <trkpt lat="46.0237" lon="4.75834">
        <ele>193</ele>
        <time>2018-08-08T08:53:15Z</time>
      </trkpt>
      <trkpt lat="46.02374" lon="4.7583">
        <ele>192</ele>
        <time>2018-08-08T08:53:16Z</time>
      </trkpt>
      <trkpt lat="46.0238" lon="4.75827">
        <ele>192</ele>
        <time>2018-08-08T08:53:17Z</time>
      </trkpt>
      <trkpt lat="46.02384" lon="4.75823">
        <ele>192</ele>
        <time>2018-08-08T08:53:18Z</time>
      </trkpt>
      <trkpt lat="46.0239" lon="4.75819">
        <ele>192</ele>
        <time>2018-08-08T08:53:19Z</time>
      </trkpt>
      <trkpt lat="46.02395" lon="4.75816">
        <ele>192</ele>
        <time>2018-08-08T08:53:20Z</time>
      </trkpt>
      <trkpt lat="46.02401" lon="4.75811">
        <ele>192</ele>
        <time>2018-08-08T08:53:21Z</time>
      </trkpt>
      <trkpt lat="46.02406" lon="4.75807">
        <ele>192</ele>
        <time>2018-08-08T08:53:22Z</time>
      </trkpt>
      <trkpt lat="46.02411" lon="4.75803">
        <ele>192</ele>
        <time>2018-08-08T08:53:23Z</time>
      </trkpt>
      <trkpt lat="46.02416" lon="4.758">
        <ele>192</ele>
        <time>2018-08-08T08:53:24Z</time>
      </trkpt>
      <trkpt lat="46.02423" lon="4.75798">
        <ele>192</ele>
        <time>2018-08-08T08:53:25Z</time>
      </trkpt>
      <trkpt lat="46.02428" lon="4.75793">
        <ele>191</ele>
        <time>2018-08-08T08:53:26Z</time>
      </trkpt>
      <trkpt lat="46.02434" lon="4.7579">
        <ele>191</ele>
        <time>2018-08-08T08:53:27Z</time>
      </trkpt>
      <trkpt lat="46.02441" lon="4.75786">
        <ele>191</ele>
        <time>2018-08-08T08:53:28Z</time>
      </trkpt>
      <trkpt lat="46.02446" lon="4.75784">
        <ele>191</ele>
        <time>2018-08-08T08:53:29Z</time>
      </trkpt>
      <trkpt lat="46.02452" lon="4.75782">
        <ele>191</ele>
        <time>2018-08-08T08:53:30Z</time>
      </trkpt>
      <trkpt lat="46.02459" lon="4.75771">
        <ele>191</ele>
        <time>2018-08-08T08:53:31Z</time>
      </trkpt>
      <trkpt lat="46.02466" lon="4.75768">
        <ele>191</ele>
        <time>2018-08-08T08:53:32Z</time>
      </trkpt>
      <trkpt lat="46.02472" lon="4.75768">
        <ele>191</ele>
        <time>2018-08-08T08:53:33Z</time>
      </trkpt>
      <trkpt lat="46.02481" lon="4.75764">
        <ele>191</ele>
        <time>2018-08-08T08:53:34Z</time>
      </trkpt>
      <trkpt lat="46.02488" lon="4.75763">
        <ele>190</ele>
        <time>2018-08-08T08:53:35Z</time>
      </trkpt>
      <trkpt lat="46.02496" lon="4.75758">
        <ele>190</ele>
        <time>2018-08-08T08:53:36Z</time>
      </trkpt>
      <trkpt lat="46.02504" lon="4.75755">
        <ele>189</ele>
        <time>2018-08-08T08:53:37Z</time>
      </trkpt>
      <trkpt lat="46.02511" lon="4.75751">
        <ele>189</ele>
        <time>2018-08-08T08:53:38Z</time>
      </trkpt>
      <trkpt lat="46.0252" lon="4.7575">
        <ele>188</ele>
        <time>2018-08-08T08:53:39Z</time>
      </trkpt>
      <trkpt lat="46.02529" lon="4.75747">
        <ele>187</ele>
        <time>2018-08-08T08:53:40Z</time>
      </trkpt>
      <trkpt lat="46.02537" lon="4.75744">
        <ele>187</ele>
        <time>2018-08-08T08:53:41Z</time>
      </trkpt>
      <trkpt lat="46.02546" lon="4.75742">
        <ele>186</ele>
        <time>2018-08-08T08:53:42Z</time>
      </trkpt>
      <trkpt lat="46.02556" lon="4.75741">
        <ele>186</ele>
        <time>2018-08-08T08:53:43Z</time>
      </trkpt>
      <trkpt lat="46.02565" lon="4.75741">
        <ele>185</ele>
        <time>2018-08-08T08:53:44Z</time>
      </trkpt>
      <trkpt lat="46.02575" lon="4.75741">
        <ele>184</ele>
        <time>2018-08-08T08:53:45Z</time>
      </trkpt>
      <trkpt lat="46.02584" lon="4.75743">
        <ele>183</ele>
        <time>2018-08-08T08:53:46Z</time>
      </trkpt>
      <trkpt lat="46.02596" lon="4.75742">
        <ele>183</ele>
        <time>2018-08-08T08:53:47Z</time>
      </trkpt>
      <trkpt lat="46.02606" lon="4.75745">
        <ele>183</ele>
        <time>2018-08-08T08:53:48Z</time>
      </trkpt>
      <trkpt lat="46.02616" lon="4.75745">
        <ele>182</ele>
        <time>2018-08-08T08:53:49Z</time>
      </trkpt>
      <trkpt lat="46.02626" lon="4.75746">
        <ele>182</ele>
        <time>2018-08-08T08:53:50Z</time>
      </trkpt>
      <trkpt lat="46.02637" lon="4.75744">
        <ele>182</ele>
        <time>2018-08-08T08:53:51Z</time>
      </trkpt>
      <trkpt lat="46.02648" lon="4.75744">
        <ele>182</ele>
        <time>2018-08-08T08:53:52Z</time>
      </trkpt>
      <trkpt lat="46.0266" lon="4.75747">
        <ele>181</ele>
        <time>2018-08-08T08:53:53Z</time>
      </trkpt>
      <trkpt lat="46.02671" lon="4.75748">
        <ele>181</ele>
        <time>2018-08-08T08:53:54Z</time>
      </trkpt>
      <trkpt lat="46.02682" lon="4.75748">
        <ele>181</ele>
        <time>2018-08-08T08:53:55Z</time>
      </trkpt>
      <trkpt lat="46.02692" lon="4.75745">
        <ele>182</ele>
        <time>2018-08-08T08:53:56Z</time>
      </trkpt>
      <trkpt lat="46.02701" lon="4.7574">
        <ele>182</ele>
        <time>2018-08-08T08:53:57Z</time>
      </trkpt>
      <trkpt lat="46.02711" lon="4.75734">
        <ele>182</ele>
        <time>2018-08-08T08:53:58Z</time>
      </trkpt>
      <trkpt lat="46.0272" lon="4.75731">
        <ele>182</ele>
        <time>2018-08-08T08:53:59Z</time>
      </trkpt>
      <trkpt lat="46.02729" lon="4.75727">
        <ele>183</ele>
        <time>2018-08-08T08:54:00Z</time>
      </trkpt>
      <trkpt lat="46.02737" lon="4.75722">
        <ele>183</ele>
        <time>2018-08-08T08:54:01Z</time>
      </trkpt>
      <trkpt lat="46.02746" lon="4.75718">
        <ele>182</ele>
        <time>2018-08-08T08:54:02Z</time>
      </trkpt>
      <trkpt lat="46.02755" lon="4.75716">
        <ele>183</ele>
        <time>2018-08-08T08:54:03Z</time>
      </trkpt>
      <trkpt lat="46.02762" lon="4.75714">
        <ele>183</ele>
        <time>2018-08-08T08:54:04Z</time>
      </trkpt>
      <trkpt lat="46.02769" lon="4.75717">
        <ele>183</ele>
        <time>2018-08-08T08:54:05Z</time>
      </trkpt>
      <trkpt lat="46.02777" lon="4.75717">
        <ele>183</ele>
        <time>2018-08-08T08:54:06Z</time>
      </trkpt>
      <trkpt lat="46.02786" lon="4.75719">
        <ele>183</ele>
        <time>2018-08-08T08:54:07Z</time>
      </trkpt>
      <trkpt lat="46.02794" lon="4.75723">
        <ele>183</ele>
        <time>2018-08-08T08:54:08Z</time>
      </trkpt>
      <trkpt lat="46.02798" lon="4.75728">
        <ele>184</ele>
        <time>2018-08-08T08:54:09Z</time>
      </trkpt>
      <trkpt lat="46.02805" lon="4.7573">
        <ele>184</ele>
        <time>2018-08-08T08:54:10Z</time>
      </trkpt>
      <trkpt lat="46.0281" lon="4.75733">
        <ele>184</ele>
        <time>2018-08-08T08:54:11Z</time>
      </trkpt>
      <trkpt lat="46.02814" lon="4.75736">
        <ele>184</ele>
        <time>2018-08-08T08:54:12Z</time>
      </trkpt>
      <trkpt lat="46.02822" lon="4.75733">
        <ele>185</ele>
        <time>2018-08-08T08:54:13Z</time>
      </trkpt>
      <trkpt lat="46.0283" lon="4.75733">
        <ele>185</ele>
        <time>2018-08-08T08:54:14Z</time>
      </trkpt>
      <trkpt lat="46.02836" lon="4.75734">
        <ele>185</ele>
        <time>2018-08-08T08:54:15Z</time>
      </trkpt>
      <trkpt lat="46.02842" lon="4.75733">
        <ele>185</ele>
        <time>2018-08-08T08:54:16Z</time>
      </trkpt>
      <trkpt lat="46.02849" lon="4.75731">
        <ele>184</ele>
        <time>2018-08-08T08:54:17Z</time>
      </trkpt>
      <trkpt lat="46.02854" lon="4.75733">
        <ele>184</ele>
        <time>2018-08-08T08:54:18Z</time>
      </trkpt>
      <trkpt lat="46.02859" lon="4.75734">
        <ele>184</ele>
        <time>2018-08-08T08:54:19Z</time>
      </trkpt>
      <trkpt lat="46.02864" lon="4.75733">
        <ele>184</ele>
        <time>2018-08-08T08:54:20Z</time>
      </trkpt>
      <trkpt lat="46.0287" lon="4.75734">
        <ele>184</ele>
        <time>2018-08-08T08:54:21Z</time>
      </trkpt>
      <trkpt lat="46.02876" lon="4.75741">
        <ele>184</ele>
        <time>2018-08-08T08:54:22Z</time>
      </trkpt>
      <trkpt lat="46.02881" lon="4.75738">
        <ele>184</ele>
        <time>2018-08-08T08:54:23Z</time>
      </trkpt>
      <trkpt lat="46.02884" lon="4.75731">
        <ele>183</ele>
        <time>2018-08-08T08:54:24Z</time>
      </trkpt>
      <trkpt lat="46.02891" lon="4.75732">
        <ele>183</ele>
        <time>2018-08-08T08:54:25Z</time>
      </trkpt>
      <trkpt lat="46.02898" lon="4.75725">
        <ele>183</ele>
        <time>2018-08-08T08:54:26Z</time>
      </trkpt>
      <trkpt lat="46.02906" lon="4.75715">
        <ele>183</ele>
        <time>2018-08-08T08:54:27Z</time>
      </trkpt>
      <trkpt lat="46.0291" lon="4.75717">
        <ele>183</ele>
        <time>2018-08-08T08:54:29Z</time>
      </trkpt>
      <trkpt lat="46.02917" lon="4.75722">
        <ele>183</ele>
        <time>2018-08-08T08:54:30Z</time>
      </trkpt>
      <trkpt lat="46.02924" lon="4.75722">
        <ele>183</ele>
        <time>2018-08-08T08:54:32Z</time>
      </trkpt>
      <trkpt lat="46.0293" lon="4.75721">
        <ele>183</ele>
        <time>2018-08-08T08:54:33Z</time>
      </trkpt>
      <trkpt lat="46.02936" lon="4.75724">
        <ele>183</ele>
        <time>2018-08-08T08:54:35Z</time>
      </trkpt>
      <trkpt lat="46.02943" lon="4.75722">
        <ele>183</ele>
        <time>2018-08-08T08:54:36Z</time>
      </trkpt>
      <trkpt lat="46.02951" lon="4.75724">
        <ele>183</ele>
        <time>2018-08-08T08:54:38Z</time>
      </trkpt>
      <trkpt lat="46.02956" lon="4.75722">
        <ele>183</ele>
        <time>2018-08-08T08:54:39Z</time>
      </trkpt>
      <trkpt lat="46.02961" lon="4.75724">
        <ele>183</ele>
        <time>2018-08-08T08:54:40Z</time>
      </trkpt>
      <trkpt lat="46.02965" lon="4.75725">
        <ele>183</ele>
        <time>2018-08-08T08:54:41Z</time>
      </trkpt>
      <trkpt lat="46.02969" lon="4.75723">
        <ele>183</ele>
        <time>2018-08-08T08:54:42Z</time>
      </trkpt>
      <trkpt lat="46.02974" lon="4.75722">
        <ele>183</ele>
        <time>2018-08-08T08:54:43Z</time>
      </trkpt>
      <trkpt lat="46.02978" lon="4.7572">
        <ele>183</ele>
        <time>2018-08-08T08:54:44Z</time>
      </trkpt>
      <trkpt lat="46.02984" lon="4.75718">
        <ele>183</ele>
        <time>2018-08-08T08:54:45Z</time>
      </trkpt>
      <trkpt lat="46.02989" lon="4.75714">
        <ele>183</ele>
        <time>2018-08-08T08:54:46Z</time>
      </trkpt>
      <trkpt lat="46.02995" lon="4.7571">
        <ele>183</ele>
        <time>2018-08-08T08:54:47Z</time>
      </trkpt>
      <trkpt lat="46.03003" lon="4.75707">
        <ele>184</ele>
        <time>2018-08-08T08:54:49Z</time>
      </trkpt>
      <trkpt lat="46.03008" lon="4.75704">
        <ele>184</ele>
        <time>2018-08-08T08:54:50Z</time>
      </trkpt>
      <trkpt lat="46.03014" lon="4.75703">
        <ele>184</ele>
        <time>2018-08-08T08:54:51Z</time>
      </trkpt>
      <trkpt lat="46.03019" lon="4.75702">
        <ele>184</ele>
        <time>2018-08-08T08:54:52Z</time>
      </trkpt>
      <trkpt lat="46.03023" lon="4.75699">
        <ele>184</ele>
        <time>2018-08-08T08:54:53Z</time>
      </trkpt>
      <trkpt lat="46.03027" lon="4.75696">
        <ele>184</ele>
        <time>2018-08-08T08:54:54Z</time>
      </trkpt>
      <trkpt lat="46.03031" lon="4.75694">
        <ele>184</ele>
        <time>2018-08-08T08:54:55Z</time>
      </trkpt>
      <trkpt lat="46.03035" lon="4.75692">
        <ele>184</ele>
        <time>2018-08-08T08:54:56Z</time>
      </trkpt>
      <trkpt lat="46.0304" lon="4.7569">
        <ele>184</ele>
        <time>2018-08-08T08:54:57Z</time>
      </trkpt>
      <trkpt lat="46.03045" lon="4.75688">
        <ele>184</ele>
        <time>2018-08-08T08:54:58Z</time>
      </trkpt>
      <trkpt lat="46.03052" lon="4.75684">
        <ele>184</ele>
        <time>2018-08-08T08:54:59Z</time>
      </trkpt>
      <trkpt lat="46.03055" lon="4.75685">
        <ele>184</ele>
        <time>2018-08-08T08:55:00Z</time>
      </trkpt>
      <trkpt lat="46.03062" lon="4.75686">
        <ele>184</ele>
        <time>2018-08-08T08:55:03Z</time>
      </trkpt>
      <trkpt lat="46.0307" lon="4.75683">
        <ele>184</ele>
        <time>2018-08-08T08:55:04Z</time>
      </trkpt>
      <trkpt lat="46.03076" lon="4.7569">
        <ele>184</ele>
        <time>2018-08-08T08:55:06Z</time>
      </trkpt>
      <trkpt lat="46.03084" lon="4.75682">
        <ele>185</ele>
        <time>2018-08-08T08:55:07Z</time>
      </trkpt>
      <trkpt lat="46.03091" lon="4.75685">
        <ele>185</ele>
        <time>2018-08-08T08:55:09Z</time>
      </trkpt>
      <trkpt lat="46.03094" lon="4.75684">
        <ele>185</ele>
        <time>2018-08-08T08:55:10Z</time>
      </trkpt>
      <trkpt lat="46.03102" lon="4.75685">
        <ele>186</ele>
        <time>2018-08-08T08:55:12Z</time>
      </trkpt>
      <trkpt lat="46.03106" lon="4.75685">
        <ele>186</ele>
        <time>2018-08-08T08:55:13Z</time>
      </trkpt>
      <trkpt lat="46.03113" lon="4.75684">
        <ele>186</ele>
        <time>2018-08-08T08:55:15Z</time>
      </trkpt>
      <trkpt lat="46.03115" lon="4.75683">
        <ele>186</ele>
        <time>2018-08-08T08:55:16Z</time>
      </trkpt>
      <trkpt lat="46.0312" lon="4.75682">
        <ele>186</ele>
        <time>2018-08-08T08:55:18Z</time>
      </trkpt>
      <trkpt lat="46.03128" lon="4.75682">
        <ele>187</ele>
        <time>2018-08-08T08:55:19Z</time>
      </trkpt>
      <trkpt lat="46.03136" lon="4.75681">
        <ele>187</ele>
        <time>2018-08-08T08:55:21Z</time>
      </trkpt>
      <trkpt lat="46.03138" lon="4.75681">
        <ele>187</ele>
        <time>2018-08-08T08:55:22Z</time>
      </trkpt>
      <trkpt lat="46.03146" lon="4.7568">
        <ele>187</ele>
        <time>2018-08-08T08:55:23Z</time>
      </trkpt>
      <trkpt lat="46.0315" lon="4.75682">
        <ele>187</ele>
        <time>2018-08-08T08:55:24Z</time>
      </trkpt>
      <trkpt lat="46.03158" lon="4.75681">
        <ele>188</ele>
        <time>2018-08-08T08:55:26Z</time>
      </trkpt>
      <trkpt lat="46.0316" lon="4.75681">
        <ele>188</ele>
        <time>2018-08-08T08:55:27Z</time>
      </trkpt>
      <trkpt lat="46.03165" lon="4.75681">
        <ele>188</ele>
        <time>2018-08-08T08:55:29Z</time>
      </trkpt>
      <trkpt lat="46.03173" lon="4.7568">
        <ele>190</ele>
        <time>2018-08-08T08:55:30Z</time>
      </trkpt>
      <trkpt lat="46.03182" lon="4.75679">
        <ele>191</ele>
        <time>2018-08-08T08:55:32Z</time>
      </trkpt>
      <trkpt lat="46.03187" lon="4.75679">
        <ele>191</ele>
        <time>2018-08-08T08:55:33Z</time>
      </trkpt>
      <trkpt lat="46.03193" lon="4.75678">
        <ele>192</ele>
        <time>2018-08-08T08:55:35Z</time>
      </trkpt>
      <trkpt lat="46.03199" lon="4.75678">
        <ele>192</ele>
        <time>2018-08-08T08:55:36Z</time>
      </trkpt>
      <trkpt lat="46.03203" lon="4.75677">
        <ele>193</ele>
        <time>2018-08-08T08:55:38Z</time>
      </trkpt>
      <trkpt lat="46.03212" lon="4.75676">
        <ele>193</ele>
        <time>2018-08-08T08:55:39Z</time>
      </trkpt>
      <trkpt lat="46.0322" lon="4.75673">
        <ele>193</ele>
        <time>2018-08-08T08:55:41Z</time>
      </trkpt>
      <trkpt lat="46.03222" lon="4.75673">
        <ele>194</ele>
        <time>2018-08-08T08:55:42Z</time>
      </trkpt>
      <trkpt lat="46.0323" lon="4.75672">
        <ele>194</ele>
        <time>2018-08-08T08:55:44Z</time>
      </trkpt>
      <trkpt lat="46.03236" lon="4.75672">
        <ele>194</ele>
        <time>2018-08-08T08:55:45Z</time>
      </trkpt>
      <trkpt lat="46.03243" lon="4.75672">
        <ele>195</ele>
        <time>2018-08-08T08:55:46Z</time>
      </trkpt>
      <trkpt lat="46.03251" lon="4.75674">
        <ele>195</ele>
        <time>2018-08-08T08:55:47Z</time>
      </trkpt>
      <trkpt lat="46.03259" lon="4.75679">
        <ele>194</ele>
        <time>2018-08-08T08:55:48Z</time>
      </trkpt>
      <trkpt lat="46.03268" lon="4.75676">
        <ele>194</ele>
        <time>2018-08-08T08:55:49Z</time>
      </trkpt>
      <trkpt lat="46.03282" lon="4.75667">
        <ele>191</ele>
        <time>2018-08-08T08:55:50Z</time>
      </trkpt>
      <trkpt lat="46.03289" lon="4.75663">
        <ele>190</ele>
        <time>2018-08-08T08:55:51Z</time>
      </trkpt>
      <trkpt lat="46.03295" lon="4.75657">
        <ele>190</ele>
        <time>2018-08-08T08:55:52Z</time>
      </trkpt>
      <trkpt lat="46.03294" lon="4.75646">
        <ele>190</ele>
        <time>2018-08-08T08:55:55Z</time>
      </trkpt>
      <trkpt lat="46.03299" lon="4.7564">
        <ele>189</ele>
        <time>2018-08-08T08:55:56Z</time>
      </trkpt>
      <trkpt lat="46.03305" lon="4.7564">
        <ele>189</ele>
        <time>2018-08-08T08:55:58Z</time>
      </trkpt>
      <trkpt lat="46.0331" lon="4.75638">
        <ele>189</ele>
        <time>2018-08-08T08:55:59Z</time>
      </trkpt>
      <trkpt lat="46.03315" lon="4.75639">
        <ele>189</ele>
        <time>2018-08-08T08:56:00Z</time>
      </trkpt>
      <trkpt lat="46.03319" lon="4.75639">
        <ele>189</ele>
        <time>2018-08-08T08:56:01Z</time>
      </trkpt>
      <trkpt lat="46.03327" lon="4.75642">
        <ele>189</ele>
        <time>2018-08-08T08:56:03Z</time>
      </trkpt>
      <trkpt lat="46.03333" lon="4.75643">
        <ele>189</ele>
        <time>2018-08-08T08:56:04Z</time>
      </trkpt>
      <trkpt lat="46.03341" lon="4.75644">
        <ele>188</ele>
        <time>2018-08-08T08:56:06Z</time>
      </trkpt>
      <trkpt lat="46.03347" lon="4.75643">
        <ele>188</ele>
        <time>2018-08-08T08:56:07Z</time>
      </trkpt>
      <trkpt lat="46.03351" lon="4.75643">
        <ele>188</ele>
        <time>2018-08-08T08:56:08Z</time>
      </trkpt>
      <trkpt lat="46.03356" lon="4.75643">
        <ele>188</ele>
        <time>2018-08-08T08:56:09Z</time>
      </trkpt>
      <trkpt lat="46.03361" lon="4.75644">
        <ele>188</ele>
        <time>2018-08-08T08:56:10Z</time>
      </trkpt>
      <trkpt lat="46.03365" lon="4.75644">
        <ele>188</ele>
        <time>2018-08-08T08:56:11Z</time>
      </trkpt>
      <trkpt lat="46.03371" lon="4.75643">
        <ele>188</ele>
        <time>2018-08-08T08:56:12Z</time>
      </trkpt>
      <trkpt lat="46.03376" lon="4.75642">
        <ele>188</ele>
        <time>2018-08-08T08:56:13Z</time>
      </trkpt>
      <trkpt lat="46.03384" lon="4.75637">
        <ele>188</ele>
        <time>2018-08-08T08:56:15Z</time>
      </trkpt>
      <trkpt lat="46.03386" lon="4.75638">
        <ele>188</ele>
        <time>2018-08-08T08:56:16Z</time>
      </trkpt>
      <trkpt lat="46.03391" lon="4.75635">
        <ele>188</ele>
        <time>2018-08-08T08:56:17Z</time>
      </trkpt>
      <trkpt lat="46.03396" lon="4.75635">
        <ele>188</ele>
        <time>2018-08-08T08:56:18Z</time>
      </trkpt>
      <trkpt lat="46.03402" lon="4.75634">
        <ele>188</ele>
        <time>2018-08-08T08:56:19Z</time>
      </trkpt>
      <trkpt lat="46.03407" lon="4.75633">
        <ele>188</ele>
        <time>2018-08-08T08:56:20Z</time>
      </trkpt>
      <trkpt lat="46.03413" lon="4.75632">
        <ele>188</ele>
        <time>2018-08-08T08:56:21Z</time>
      </trkpt>
      <trkpt lat="46.03417" lon="4.75631">
        <ele>188</ele>
        <time>2018-08-08T08:56:22Z</time>
      </trkpt>
      <trkpt lat="46.03422" lon="4.75629">
        <ele>188</ele>
        <time>2018-08-08T08:56:23Z</time>
      </trkpt>
      <trkpt lat="46.03427" lon="4.75627">
        <ele>188</ele>
        <time>2018-08-08T08:56:24Z</time>
      </trkpt>
      <trkpt lat="46.03433" lon="4.75632">
        <ele>188</ele>
        <time>2018-08-08T08:56:26Z</time>
      </trkpt>
      <trkpt lat="46.03438" lon="4.75636">
        <ele>188</ele>
        <time>2018-08-08T08:56:27Z</time>
      </trkpt>
      <trkpt lat="46.03444" lon="4.75643">
        <ele>188</ele>
        <time>2018-08-08T08:56:29Z</time>
      </trkpt>
      <trkpt lat="46.03447" lon="4.75649">
        <ele>188</ele>
        <time>2018-08-08T08:56:30Z</time>
      </trkpt>
      <trkpt lat="46.0345" lon="4.75654">
        <ele>188</ele>
        <time>2018-08-08T08:56:31Z</time>
      </trkpt>
      <trkpt lat="46.03453" lon="4.75659">
        <ele>188</ele>
        <time>2018-08-08T08:56:32Z</time>
      </trkpt>
      <trkpt lat="46.03455" lon="4.75665">
        <ele>188</ele>
        <time>2018-08-08T08:56:33Z</time>
      </trkpt>
      <trkpt lat="46.03458" lon="4.75671">
        <ele>189</ele>
        <time>2018-08-08T08:56:34Z</time>
      </trkpt>
      <trkpt lat="46.0346" lon="4.75678">
        <ele>189</ele>
        <time>2018-08-08T08:56:35Z</time>
      </trkpt>
      <trkpt lat="46.03462" lon="4.75683">
        <ele>189</ele>
        <time>2018-08-08T08:56:36Z</time>
      </trkpt>
      <trkpt lat="46.03467" lon="4.75693">
        <ele>189</ele>
        <time>2018-08-08T08:56:38Z</time>
      </trkpt>
      <trkpt lat="46.03469" lon="4.75699">
        <ele>189</ele>
        <time>2018-08-08T08:56:39Z</time>
      </trkpt>
      <trkpt lat="46.03471" lon="4.75704">
        <ele>189</ele>
        <time>2018-08-08T08:56:40Z</time>
      </trkpt>
      <trkpt lat="46.03473" lon="4.75711">
        <ele>189</ele>
        <time>2018-08-08T08:56:41Z</time>
      </trkpt>
      <trkpt lat="46.03475" lon="4.75717">
        <ele>189</ele>
        <time>2018-08-08T08:56:42Z</time>
      </trkpt>
      <trkpt lat="46.03477" lon="4.75723">
        <ele>189</ele>
        <time>2018-08-08T08:56:43Z</time>
      </trkpt>
      <trkpt lat="46.03479" lon="4.75729">
        <ele>189</ele>
        <time>2018-08-08T08:56:44Z</time>
      </trkpt>
      <trkpt lat="46.03482" lon="4.75736">
        <ele>189</ele>
        <time>2018-08-08T08:56:45Z</time>
      </trkpt>
      <trkpt lat="46.03485" lon="4.75741">
        <ele>189</ele>
        <time>2018-08-08T08:56:46Z</time>
      </trkpt>
      <trkpt lat="46.03487" lon="4.75748">
        <ele>189</ele>
        <time>2018-08-08T08:56:47Z</time>
      </trkpt>
      <trkpt lat="46.03491" lon="4.75753">
        <ele>189</ele>
        <time>2018-08-08T08:56:48Z</time>
      </trkpt>
      <trkpt lat="46.03492" lon="4.75759">
        <ele>189</ele>
        <time>2018-08-08T08:56:49Z</time>
      </trkpt>
      <trkpt lat="46.03495" lon="4.75765">
        <ele>189</ele>
        <time>2018-08-08T08:56:50Z</time>
      </trkpt>
      <trkpt lat="46.03497" lon="4.75772">
        <ele>189</ele>
        <time>2018-08-08T08:56:51Z</time>
      </trkpt>
      <trkpt lat="46.03499" lon="4.75777">
        <ele>190</ele>
        <time>2018-08-08T08:56:52Z</time>
      </trkpt>
      <trkpt lat="46.03501" lon="4.75784">
        <ele>189</ele>
        <time>2018-08-08T08:56:53Z</time>
      </trkpt>
      <trkpt lat="46.03504" lon="4.7579">
        <ele>189</ele>
        <time>2018-08-08T08:56:54Z</time>
      </trkpt>
      <trkpt lat="46.03506" lon="4.75796">
        <ele>189</ele>
        <time>2018-08-08T08:56:55Z</time>
      </trkpt>
      <trkpt lat="46.03511" lon="4.75806">
        <ele>189</ele>
        <time>2018-08-08T08:56:57Z</time>
      </trkpt>
      <trkpt lat="46.03513" lon="4.75812">
        <ele>189</ele>
        <time>2018-08-08T08:56:58Z</time>
      </trkpt>
      <trkpt lat="46.03518" lon="4.75821">
        <ele>190</ele>
        <time>2018-08-08T08:57:00Z</time>
      </trkpt>
      <trkpt lat="46.03521" lon="4.75826">
        <ele>190</ele>
        <time>2018-08-08T08:57:01Z</time>
      </trkpt>
      <trkpt lat="46.03525" lon="4.7583">
        <ele>190</ele>
        <time>2018-08-08T08:57:02Z</time>
      </trkpt>
      <trkpt lat="46.03526" lon="4.75838">
        <ele>190</ele>
        <time>2018-08-08T08:57:03Z</time>
      </trkpt>
      <trkpt lat="46.03529" lon="4.75845">
        <ele>190</ele>
        <time>2018-08-08T08:57:04Z</time>
      </trkpt>
      <trkpt lat="46.0353" lon="4.7585">
        <ele>190</ele>
        <time>2018-08-08T08:57:05Z</time>
      </trkpt>
      <trkpt lat="46.03533" lon="4.75856">
        <ele>190</ele>
        <time>2018-08-08T08:57:06Z</time>
      </trkpt>
      <trkpt lat="46.03536" lon="4.75862">
        <ele>190</ele>
        <time>2018-08-08T08:57:07Z</time>
      </trkpt>
      <trkpt lat="46.03539" lon="4.75873">
        <ele>190</ele>
        <time>2018-08-08T08:57:09Z</time>
      </trkpt>
      <trkpt lat="46.03542" lon="4.75877">
        <ele>189</ele>
        <time>2018-08-08T08:57:10Z</time>
      </trkpt>
      <trkpt lat="46.03547" lon="4.75887">
        <ele>189</ele>
        <time>2018-08-08T08:57:12Z</time>
      </trkpt>
      <trkpt lat="46.03549" lon="4.75892">
        <ele>189</ele>
        <time>2018-08-08T08:57:13Z</time>
      </trkpt>
      <trkpt lat="46.03553" lon="4.75895">
        <ele>189</ele>
        <time>2018-08-08T08:57:14Z</time>
      </trkpt>
      <trkpt lat="46.03555" lon="4.75901">
        <ele>189</ele>
        <time>2018-08-08T08:57:15Z</time>
      </trkpt>
      <trkpt lat="46.03557" lon="4.75907">
        <ele>189</ele>
        <time>2018-08-08T08:57:16Z</time>
      </trkpt>
      <trkpt lat="46.03561" lon="4.75912">
        <ele>189</ele>
        <time>2018-08-08T08:57:17Z</time>
      </trkpt>
      <trkpt lat="46.03565" lon="4.75922">
        <ele>190</ele>
        <time>2018-08-08T08:57:19Z</time>
      </trkpt>
      <trkpt lat="46.03568" lon="4.75926">
        <ele>190</ele>
        <time>2018-08-08T08:57:20Z</time>
      </trkpt>
      <trkpt lat="46.03573" lon="4.75936">
        <ele>190</ele>
        <time>2018-08-08T08:57:22Z</time>
      </trkpt>
      <trkpt lat="46.03575" lon="4.75942">
        <ele>190</ele>
        <time>2018-08-08T08:57:23Z</time>
      </trkpt>
      <trkpt lat="46.03579" lon="4.75953">
        <ele>190</ele>
        <time>2018-08-08T08:57:25Z</time>
      </trkpt>
      <trkpt lat="46.03581" lon="4.75958">
        <ele>190</ele>
        <time>2018-08-08T08:57:26Z</time>
      </trkpt>
      <trkpt lat="46.03585" lon="4.75968">
        <ele>190</ele>
        <time>2018-08-08T08:57:28Z</time>
      </trkpt>
      <trkpt lat="46.03587" lon="4.75975">
        <ele>190</ele>
        <time>2018-08-08T08:57:29Z</time>
      </trkpt>
      <trkpt lat="46.03592" lon="4.75985">
        <ele>190</ele>
        <time>2018-08-08T08:57:31Z</time>
      </trkpt>
      <trkpt lat="46.03594" lon="4.75992">
        <ele>190</ele>
        <time>2018-08-08T08:57:32Z</time>
      </trkpt>
      <trkpt lat="46.03596" lon="4.75999">
        <ele>191</ele>
        <time>2018-08-08T08:57:33Z</time>
      </trkpt>
      <trkpt lat="46.03598" lon="4.76004">
        <ele>191</ele>
        <time>2018-08-08T08:57:34Z</time>
      </trkpt>
      <trkpt lat="46.03601" lon="4.7601">
        <ele>191</ele>
        <time>2018-08-08T08:57:35Z</time>
      </trkpt>
      <trkpt lat="46.03602" lon="4.76015">
        <ele>191</ele>
        <time>2018-08-08T08:57:36Z</time>
      </trkpt>
      <trkpt lat="46.03606" lon="4.76026">
        <ele>191</ele>
        <time>2018-08-08T08:57:38Z</time>
      </trkpt>
      <trkpt lat="46.03608" lon="4.76032">
        <ele>191</ele>
        <time>2018-08-08T08:57:39Z</time>
      </trkpt>
      <trkpt lat="46.03612" lon="4.76044">
        <ele>191</ele>
        <time>2018-08-08T08:57:41Z</time>
      </trkpt>
      <trkpt lat="46.03613" lon="4.76049">
        <ele>191</ele>
        <time>2018-08-08T08:57:42Z</time>
      </trkpt>
      <trkpt lat="46.03616" lon="4.76055">
        <ele>191</ele>
        <time>2018-08-08T08:57:43Z</time>
      </trkpt>
      <trkpt lat="46.03618" lon="4.76062">
        <ele>191</ele>
        <time>2018-08-08T08:57:44Z</time>
      </trkpt>
      <trkpt lat="46.0362" lon="4.76069">
        <ele>191</ele>
        <time>2018-08-08T08:57:45Z</time>
      </trkpt>
      <trkpt lat="46.03622" lon="4.76075">
        <ele>191</ele>
        <time>2018-08-08T08:57:46Z</time>
      </trkpt>
      <trkpt lat="46.03623" lon="4.76082">
        <ele>191</ele>
        <time>2018-08-08T08:57:47Z</time>
      </trkpt>
      <trkpt lat="46.03624" lon="4.7609">
        <ele>192</ele>
        <time>2018-08-08T08:57:48Z</time>
      </trkpt>
      <trkpt lat="46.03625" lon="4.76097">
        <ele>192</ele>
        <time>2018-08-08T08:57:49Z</time>
      </trkpt>
      <trkpt lat="46.03625" lon="4.76105">
        <ele>192</ele>
        <time>2018-08-08T08:57:50Z</time>
      </trkpt>
      <trkpt lat="46.03627" lon="4.76117">
        <ele>192</ele>
        <time>2018-08-08T08:57:52Z</time>
      </trkpt>
      <trkpt lat="46.03627" lon="4.76122">
        <ele>192</ele>
        <time>2018-08-08T08:57:53Z</time>
      </trkpt>
      <trkpt lat="46.03628" lon="4.76132">
        <ele>192</ele>
        <time>2018-08-08T08:57:55Z</time>
      </trkpt>
      <trkpt lat="46.03627" lon="4.76137">
        <ele>192</ele>
        <time>2018-08-08T08:57:56Z</time>
      </trkpt>
      <trkpt lat="46.03628" lon="4.76144">
        <ele>192</ele>
        <time>2018-08-08T08:57:57Z</time>
      </trkpt>
      <trkpt lat="46.03628" lon="4.76151">
        <ele>192</ele>
        <time>2018-08-08T08:57:58Z</time>
      </trkpt>
      <trkpt lat="46.03628" lon="4.76157">
        <ele>192</ele>
        <time>2018-08-08T08:57:59Z</time>
      </trkpt>
      <trkpt lat="46.03627" lon="4.76164">
        <ele>192</ele>
        <time>2018-08-08T08:58:00Z</time>
      </trkpt>
      <trkpt lat="46.03626" lon="4.76177">
        <ele>193</ele>
        <time>2018-08-08T08:58:02Z</time>
      </trkpt>
      <trkpt lat="46.03626" lon="4.76183">
        <ele>193</ele>
        <time>2018-08-08T08:58:03Z</time>
      </trkpt>
      <trkpt lat="46.03623" lon="4.76195">
        <ele>193</ele>
        <time>2018-08-08T08:58:06Z</time>
      </trkpt>
      <trkpt lat="46.03622" lon="4.76203">
        <ele>193</ele>
        <time>2018-08-08T08:58:07Z</time>
      </trkpt>
      <trkpt lat="46.03621" lon="4.76214">
        <ele>193</ele>
        <time>2018-08-08T08:58:09Z</time>
      </trkpt>
      <trkpt lat="46.0362" lon="4.76219">
        <ele>193</ele>
        <time>2018-08-08T08:58:10Z</time>
      </trkpt>
      <trkpt lat="46.03619" lon="4.76228">
        <ele>193</ele>
        <time>2018-08-08T08:58:12Z</time>
      </trkpt>
      <trkpt lat="46.03617" lon="4.76236">
        <ele>193</ele>
        <time>2018-08-08T08:58:13Z</time>
      </trkpt>
      <trkpt lat="46.03615" lon="4.76248">
        <ele>193</ele>
        <time>2018-08-08T08:58:15Z</time>
      </trkpt>
      <trkpt lat="46.03615" lon="4.76254">
        <ele>194</ele>
        <time>2018-08-08T08:58:16Z</time>
      </trkpt>
      <trkpt lat="46.03613" lon="4.76265">
        <ele>194</ele>
        <time>2018-08-08T08:58:18Z</time>
      </trkpt>
      <trkpt lat="46.03613" lon="4.76272">
        <ele>194</ele>
        <time>2018-08-08T08:58:19Z</time>
      </trkpt>
      <trkpt lat="46.03611" lon="4.76282">
        <ele>194</ele>
        <time>2018-08-08T08:58:21Z</time>
      </trkpt>
      <trkpt lat="46.03611" lon="4.76285">
        <ele>194</ele>
        <time>2018-08-08T08:58:22Z</time>
      </trkpt>
      <trkpt lat="46.0361" lon="4.76296">
        <ele>195</ele>
        <time>2018-08-08T08:58:24Z</time>
      </trkpt>
      <trkpt lat="46.0361" lon="4.76302">
        <ele>195</ele>
        <time>2018-08-08T08:58:25Z</time>
      </trkpt>
      <trkpt lat="46.03609" lon="4.76309">
        <ele>195</ele>
        <time>2018-08-08T08:58:27Z</time>
      </trkpt>
      <trkpt lat="46.03607" lon="4.76316">
        <ele>195</ele>
        <time>2018-08-08T08:58:28Z</time>
      </trkpt>
      <trkpt lat="46.03605" lon="4.76323">
        <ele>195</ele>
        <time>2018-08-08T08:58:29Z</time>
      </trkpt>
      <trkpt lat="46.03604" lon="4.76329">
        <ele>195</ele>
        <time>2018-08-08T08:58:30Z</time>
      </trkpt>
      <trkpt lat="46.03602" lon="4.76341">
        <ele>196</ele>
        <time>2018-08-08T08:58:32Z</time>
      </trkpt>
      <trkpt lat="46.03602" lon="4.76346">
        <ele>196</ele>
        <time>2018-08-08T08:58:33Z</time>
      </trkpt>
      <trkpt lat="46.03601" lon="4.76358">
        <ele>196</ele>
        <time>2018-08-08T08:58:35Z</time>
      </trkpt>
      <trkpt lat="46.03601" lon="4.76363">
        <ele>197</ele>
        <time>2018-08-08T08:58:36Z</time>
      </trkpt>
      <trkpt lat="46.036" lon="4.76375">
        <ele>197</ele>
        <time>2018-08-08T08:58:38Z</time>
      </trkpt>
      <trkpt lat="46.03599" lon="4.7638">
        <ele>197</ele>
        <time>2018-08-08T08:58:39Z</time>
      </trkpt>
      <trkpt lat="46.03598" lon="4.76391">
        <ele>197</ele>
        <time>2018-08-08T08:58:41Z</time>
      </trkpt>
      <trkpt lat="46.03598" lon="4.76397">
        <ele>198</ele>
        <time>2018-08-08T08:58:42Z</time>
      </trkpt>
      <trkpt lat="46.03597" lon="4.76408">
        <ele>198</ele>
        <time>2018-08-08T08:58:44Z</time>
      </trkpt>
      <trkpt lat="46.03596" lon="4.76414">
        <ele>198</ele>
        <time>2018-08-08T08:58:45Z</time>
      </trkpt>
      <trkpt lat="46.03595" lon="4.76425">
        <ele>199</ele>
        <time>2018-08-08T08:58:47Z</time>
      </trkpt>
      <trkpt lat="46.03594" lon="4.76431">
        <ele>199</ele>
        <time>2018-08-08T08:58:48Z</time>
      </trkpt>
      <trkpt lat="46.03592" lon="4.76439">
        <ele>199</ele>
        <time>2018-08-08T08:58:50Z</time>
      </trkpt>
      <trkpt lat="46.03592" lon="4.76446">
        <ele>199</ele>
        <time>2018-08-08T08:58:51Z</time>
      </trkpt>
      <trkpt lat="46.03591" lon="4.76458">
        <ele>199</ele>
        <time>2018-08-08T08:58:53Z</time>
      </trkpt>
      <trkpt lat="46.03592" lon="4.76464">
        <ele>199</ele>
        <time>2018-08-08T08:58:54Z</time>
      </trkpt>
      <trkpt lat="46.03594" lon="4.7647">
        <ele>199</ele>
        <time>2018-08-08T08:58:55Z</time>
      </trkpt>
      <trkpt lat="46.036" lon="4.76475">
        <ele>199</ele>
        <time>2018-08-08T08:58:56Z</time>
      </trkpt>
      <trkpt lat="46.03603" lon="4.7648">
        <ele>199</ele>
        <time>2018-08-08T08:58:57Z</time>
      </trkpt>
      <trkpt lat="46.03607" lon="4.76484">
        <ele>199</ele>
        <time>2018-08-08T08:58:58Z</time>
      </trkpt>
      <trkpt lat="46.03611" lon="4.76489">
        <ele>199</ele>
        <time>2018-08-08T08:58:59Z</time>
      </trkpt>
      <trkpt lat="46.03614" lon="4.76494">
        <ele>199</ele>
        <time>2018-08-08T08:59:00Z</time>
      </trkpt>
      <trkpt lat="46.03615" lon="4.76501">
        <ele>200</ele>
        <time>2018-08-08T08:59:01Z</time>
      </trkpt>
      <trkpt lat="46.03616" lon="4.76508">
        <ele>200</ele>
        <time>2018-08-08T08:59:02Z</time>
      </trkpt>
      <trkpt lat="46.03619" lon="4.76516">
        <ele>200</ele>
        <time>2018-08-08T08:59:03Z</time>
      </trkpt>
      <trkpt lat="46.03627" lon="4.76514">
        <ele>200</ele>
        <time>2018-08-08T08:59:04Z</time>
      </trkpt>
      <trkpt lat="46.03626" lon="4.76525">
        <ele>200</ele>
        <time>2018-08-08T08:59:06Z</time>
      </trkpt>
      <trkpt lat="46.03629" lon="4.76531">
        <ele>200</ele>
        <time>2018-08-08T08:59:07Z</time>
      </trkpt>
      <trkpt lat="46.03633" lon="4.76541">
        <ele>200</ele>
        <time>2018-08-08T08:59:09Z</time>
      </trkpt>
      <trkpt lat="46.03636" lon="4.76544">
        <ele>200</ele>
        <time>2018-08-08T08:59:10Z</time>
      </trkpt>
      <trkpt lat="46.0364" lon="4.76552">
        <ele>200</ele>
        <time>2018-08-08T08:59:13Z</time>
      </trkpt>
      <trkpt lat="46.03644" lon="4.76561">
        <ele>201</ele>
        <time>2018-08-08T08:59:14Z</time>
      </trkpt>
      <trkpt lat="46.03647" lon="4.76568">
        <ele>201</ele>
        <time>2018-08-08T08:59:16Z</time>
      </trkpt>
      <trkpt lat="46.03651" lon="4.76572">
        <ele>201</ele>
        <time>2018-08-08T08:59:17Z</time>
      </trkpt>
      <trkpt lat="46.03657" lon="4.76579">
        <ele>201</ele>
        <time>2018-08-08T08:59:19Z</time>
      </trkpt>
      <trkpt lat="46.03658" lon="4.76581">
        <ele>201</ele>
        <time>2018-08-08T08:59:20Z</time>
      </trkpt>
      <trkpt lat="46.03664" lon="4.76586">
        <ele>202</ele>
        <time>2018-08-08T08:59:23Z</time>
      </trkpt>
      <trkpt lat="46.03666" lon="4.76588">
        <ele>202</ele>
        <time>2018-08-08T08:59:24Z</time>
      </trkpt>
      <trkpt lat="46.03674" lon="4.76596">
        <ele>203</ele>
        <time>2018-08-08T08:59:25Z</time>
      </trkpt>
      <trkpt lat="46.03677" lon="4.766">
        <ele>203</ele>
        <time>2018-08-08T08:59:27Z</time>
      </trkpt>
      <trkpt lat="46.0368" lon="4.76609">
        <ele>203</ele>
        <time>2018-08-08T08:59:28Z</time>
      </trkpt>
      <trkpt lat="46.03681" lon="4.7662">
        <ele>203</ele>
        <time>2018-08-08T08:59:30Z</time>
      </trkpt>
      <trkpt lat="46.03682" lon="4.76626">
        <ele>203</ele>
        <time>2018-08-08T08:59:31Z</time>
      </trkpt>
      <trkpt lat="46.03681" lon="4.76638">
        <ele>204</ele>
        <time>2018-08-08T08:59:33Z</time>
      </trkpt>
      <trkpt lat="46.03681" lon="4.76644">
        <ele>204</ele>
        <time>2018-08-08T08:59:34Z</time>
      </trkpt>
      <trkpt lat="46.03682" lon="4.76656">
        <ele>204</ele>
        <time>2018-08-08T08:59:36Z</time>
      </trkpt>
      <trkpt lat="46.03684" lon="4.76662">
        <ele>204</ele>
        <time>2018-08-08T08:59:37Z</time>
      </trkpt>
      <trkpt lat="46.03686" lon="4.76668">
        <ele>205</ele>
        <time>2018-08-08T08:59:38Z</time>
      </trkpt>
      <trkpt lat="46.03688" lon="4.76673">
        <ele>205</ele>
        <time>2018-08-08T08:59:39Z</time>
      </trkpt>
      <trkpt lat="46.03695" lon="4.7668">
        <ele>205</ele>
        <time>2018-08-08T08:59:41Z</time>
      </trkpt>
      <trkpt lat="46.037" lon="4.76681">
        <ele>205</ele>
        <time>2018-08-08T08:59:42Z</time>
      </trkpt>
      <trkpt lat="46.03707" lon="4.76688">
        <ele>205</ele>
        <time>2018-08-08T08:59:44Z</time>
      </trkpt>
      <trkpt lat="46.0371" lon="4.76692">
        <ele>205</ele>
        <time>2018-08-08T08:59:45Z</time>
      </trkpt>
      <trkpt lat="46.03718" lon="4.76697">
        <ele>205</ele>
        <time>2018-08-08T08:59:47Z</time>
      </trkpt>
      <trkpt lat="46.03722" lon="4.76699">
        <ele>205</ele>
        <time>2018-08-08T08:59:48Z</time>
      </trkpt>
      <trkpt lat="46.0373" lon="4.76702">
        <ele>205</ele>
        <time>2018-08-08T08:59:50Z</time>
      </trkpt>
      <trkpt lat="46.03733" lon="4.76703">
        <ele>205</ele>
        <time>2018-08-08T08:59:51Z</time>
      </trkpt>
      <trkpt lat="46.03738" lon="4.76703">
        <ele>205</ele>
        <time>2018-08-08T08:59:52Z</time>
      </trkpt>
      <trkpt lat="46.03742" lon="4.76704">
        <ele>205</ele>
        <time>2018-08-08T08:59:53Z</time>
      </trkpt>
      <trkpt lat="46.03747" lon="4.76705">
        <ele>205</ele>
        <time>2018-08-08T08:59:54Z</time>
      </trkpt>
      <trkpt lat="46.03751" lon="4.76707">
        <ele>205</ele>
        <time>2018-08-08T08:59:55Z</time>
      </trkpt>
      <trkpt lat="46.03759" lon="4.76709">
        <ele>205</ele>
        <time>2018-08-08T08:59:57Z</time>
      </trkpt>
      <trkpt lat="46.0376" lon="4.7671">
        <ele>205</ele>
        <time>2018-08-08T08:59:58Z</time>
      </trkpt>
      <trkpt lat="46.03769" lon="4.76713">
        <ele>205</ele>
        <time>2018-08-08T09:00:01Z</time>
      </trkpt>
      <trkpt lat="46.03775" lon="4.76711">
        <ele>205</ele>
        <time>2018-08-08T09:00:02Z</time>
      </trkpt>
      <trkpt lat="46.03782" lon="4.76711">
        <ele>205</ele>
        <time>2018-08-08T09:00:04Z</time>
      </trkpt>
      <trkpt lat="46.03786" lon="4.76711">
        <ele>205</ele>
        <time>2018-08-08T09:00:05Z</time>
      </trkpt>
      <trkpt lat="46.0379" lon="4.7671">
        <ele>205</ele>
        <time>2018-08-08T09:00:06Z</time>
      </trkpt>
      <trkpt lat="46.03795" lon="4.76713">
        <ele>205</ele>
        <time>2018-08-08T09:00:07Z</time>
      </trkpt>
      <trkpt lat="46.03801" lon="4.76711">
        <ele>205</ele>
        <time>2018-08-08T09:00:09Z</time>
      </trkpt>
      <trkpt lat="46.03806" lon="4.7671">
        <ele>205</ele>
        <time>2018-08-08T09:00:10Z</time>
      </trkpt>
      <trkpt lat="46.03814" lon="4.7671">
        <ele>205</ele>
        <time>2018-08-08T09:00:12Z</time>
      </trkpt>
      <trkpt lat="46.03819" lon="4.76706">
        <ele>205</ele>
        <time>2018-08-08T09:00:13Z</time>
      </trkpt>
      <trkpt lat="46.03824" lon="4.76706">
        <ele>205</ele>
        <time>2018-08-08T09:00:14Z</time>
      </trkpt>
      <trkpt lat="46.03829" lon="4.76703">
        <ele>205</ele>
        <time>2018-08-08T09:00:15Z</time>
      </trkpt>
      <trkpt lat="46.03838" lon="4.76704">
        <ele>205</ele>
        <time>2018-08-08T09:00:17Z</time>
      </trkpt>
      <trkpt lat="46.03843" lon="4.76703">
        <ele>205</ele>
        <time>2018-08-08T09:00:18Z</time>
      </trkpt>
      <trkpt lat="46.03848" lon="4.76704">
        <ele>205</ele>
        <time>2018-08-08T09:00:19Z</time>
      </trkpt>
      <trkpt lat="46.03853" lon="4.76702">
        <ele>205</ele>
        <time>2018-08-08T09:00:20Z</time>
      </trkpt>
      <trkpt lat="46.03857" lon="4.76702">
        <ele>205</ele>
        <time>2018-08-08T09:00:21Z</time>
      </trkpt>
      <trkpt lat="46.03862" lon="4.76702">
        <ele>205</ele>
        <time>2018-08-08T09:00:22Z</time>
      </trkpt>
      <trkpt lat="46.0387" lon="4.76699">
        <ele>205</ele>
        <time>2018-08-08T09:00:24Z</time>
      </trkpt>
      <trkpt lat="46.03874" lon="4.76699">
        <ele>205</ele>
        <time>2018-08-08T09:00:25Z</time>
      </trkpt>
      <trkpt lat="46.03879" lon="4.76697">
        <ele>205</ele>
        <time>2018-08-08T09:00:26Z</time>
      </trkpt>
      <trkpt lat="46.03885" lon="4.76694">
        <ele>205</ele>
        <time>2018-08-08T09:00:27Z</time>
      </trkpt>
      <trkpt lat="46.0389" lon="4.76693">
        <ele>205</ele>
        <time>2018-08-08T09:00:28Z</time>
      </trkpt>
      <trkpt lat="46.03895" lon="4.76694">
        <ele>205</ele>
        <time>2018-08-08T09:00:29Z</time>
      </trkpt>
      <trkpt lat="46.03901" lon="4.76692">
        <ele>205</ele>
        <time>2018-08-08T09:00:30Z</time>
      </trkpt>
      <trkpt lat="46.03906" lon="4.76688">
        <ele>205</ele>
        <time>2018-08-08T09:00:31Z</time>
      </trkpt>
      <trkpt lat="46.03911" lon="4.76688">
        <ele>205</ele>
        <time>2018-08-08T09:00:32Z</time>
      </trkpt>
      <trkpt lat="46.03918" lon="4.76689">
        <ele>204</ele>
        <time>2018-08-08T09:00:33Z</time>
      </trkpt>
      <trkpt lat="46.03923" lon="4.76686">
        <ele>204</ele>
        <time>2018-08-08T09:00:34Z</time>
      </trkpt>
      <trkpt lat="46.03928" lon="4.76685">
        <ele>204</ele>
        <time>2018-08-08T09:00:35Z</time>
      </trkpt>
      <trkpt lat="46.03934" lon="4.76683">
        <ele>204</ele>
        <time>2018-08-08T09:00:36Z</time>
      </trkpt>
      <trkpt lat="46.03939" lon="4.76684">
        <ele>204</ele>
        <time>2018-08-08T09:00:37Z</time>
      </trkpt>
      <trkpt lat="46.03943" lon="4.76684">
        <ele>204</ele>
        <time>2018-08-08T09:00:38Z</time>
      </trkpt>
      <trkpt lat="46.03948" lon="4.76682">
        <ele>204</ele>
        <time>2018-08-08T09:00:39Z</time>
      </trkpt>
      <trkpt lat="46.03956" lon="4.7668">
        <ele>204</ele>
        <time>2018-08-08T09:00:41Z</time>
      </trkpt>
      <trkpt lat="46.0396" lon="4.7668">
        <ele>203</ele>
        <time>2018-08-08T09:00:42Z</time>
      </trkpt>
      <trkpt lat="46.03968" lon="4.76679">
        <ele>203</ele>
        <time>2018-08-08T09:00:44Z</time>
      </trkpt>
      <trkpt lat="46.0397" lon="4.76679">
        <ele>203</ele>
        <time>2018-08-08T09:00:45Z</time>
      </trkpt>
      <trkpt lat="46.03976" lon="4.76679">
        <ele>203</ele>
        <time>2018-08-08T09:00:48Z</time>
      </trkpt>
      <trkpt lat="46.03986" lon="4.76678">
        <ele>203</ele>
        <time>2018-08-08T09:00:49Z</time>
      </trkpt>
      <trkpt lat="46.03991" lon="4.76676">
        <ele>203</ele>
        <time>2018-08-08T09:00:50Z</time>
      </trkpt>
      <trkpt lat="46.03998" lon="4.76673">
        <ele>202</ele>
        <time>2018-08-08T09:00:51Z</time>
      </trkpt>
      <trkpt lat="46.04003" lon="4.76674">
        <ele>202</ele>
        <time>2018-08-08T09:00:52Z</time>
      </trkpt>
      <trkpt lat="46.04009" lon="4.76673">
        <ele>202</ele>
        <time>2018-08-08T09:00:53Z</time>
      </trkpt>
      <trkpt lat="46.04014" lon="4.76671">
        <ele>202</ele>
        <time>2018-08-08T09:00:54Z</time>
      </trkpt>
      <trkpt lat="46.0402" lon="4.76671">
        <ele>202</ele>
        <time>2018-08-08T09:00:55Z</time>
      </trkpt>
      <trkpt lat="46.04026" lon="4.76669">
        <ele>202</ele>
        <time>2018-08-08T09:00:56Z</time>
      </trkpt>
      <trkpt lat="46.0403" lon="4.76667">
        <ele>202</ele>
        <time>2018-08-08T09:00:57Z</time>
      </trkpt>
      <trkpt lat="46.04034" lon="4.76665">
        <ele>201</ele>
        <time>2018-08-08T09:00:58Z</time>
      </trkpt>
      <trkpt lat="46.0404" lon="4.76663">
        <ele>201</ele>
        <time>2018-08-08T09:00:59Z</time>
      </trkpt>
      <trkpt lat="46.04046" lon="4.76659">
        <ele>201</ele>
        <time>2018-08-08T09:01:00Z</time>
      </trkpt>
      <trkpt lat="46.04051" lon="4.76657">
        <ele>201</ele>
        <time>2018-08-08T09:01:01Z</time>
      </trkpt>
      <trkpt lat="46.04057" lon="4.76656">
        <ele>201</ele>
        <time>2018-08-08T09:01:02Z</time>
      </trkpt>
      <trkpt lat="46.04062" lon="4.76657">
        <ele>201</ele>
        <time>2018-08-08T09:01:03Z</time>
      </trkpt>
      <trkpt lat="46.04065" lon="4.76657">
        <ele>201</ele>
        <time>2018-08-08T09:01:04Z</time>
      </trkpt>
      <trkpt lat="46.04073" lon="4.76657">
        <ele>201</ele>
        <time>2018-08-08T09:01:05Z</time>
      </trkpt>
      <trkpt lat="46.04078" lon="4.76657">
        <ele>202</ele>
        <time>2018-08-08T09:01:06Z</time>
      </trkpt>
      <trkpt lat="46.04084" lon="4.76654">
        <ele>201</ele>
        <time>2018-08-08T09:01:07Z</time>
      </trkpt>
      <trkpt lat="46.04088" lon="4.76654">
        <ele>201</ele>
        <time>2018-08-08T09:01:08Z</time>
      </trkpt>
      <trkpt lat="46.04095" lon="4.76653">
        <ele>201</ele>
        <time>2018-08-08T09:01:09Z</time>
      </trkpt>
      <trkpt lat="46.041" lon="4.76653">
        <ele>201</ele>
        <time>2018-08-08T09:01:10Z</time>
      </trkpt>
      <trkpt lat="46.04107" lon="4.76647">
        <ele>200</ele>
        <time>2018-08-08T09:01:11Z</time>
      </trkpt>
      <trkpt lat="46.04112" lon="4.76646">
        <ele>200</ele>
        <time>2018-08-08T09:01:12Z</time>
      </trkpt>
      <trkpt lat="46.0412" lon="4.76644">
        <ele>200</ele>
        <time>2018-08-08T09:01:13Z</time>
      </trkpt>
      <trkpt lat="46.04126" lon="4.76642">
        <ele>200</ele>
        <time>2018-08-08T09:01:14Z</time>
      </trkpt>
      <trkpt lat="46.04132" lon="4.76642">
        <ele>200</ele>
        <time>2018-08-08T09:01:15Z</time>
      </trkpt>
      <trkpt lat="46.04137" lon="4.76635">
        <ele>200</ele>
        <time>2018-08-08T09:01:16Z</time>
      </trkpt>
      <trkpt lat="46.04143" lon="4.76633">
        <ele>200</ele>
        <time>2018-08-08T09:01:17Z</time>
      </trkpt>
      <trkpt lat="46.04148" lon="4.76631">
        <ele>200</ele>
        <time>2018-08-08T09:01:18Z</time>
      </trkpt>
      <trkpt lat="46.04154" lon="4.76623">
        <ele>200</ele>
        <time>2018-08-08T09:01:19Z</time>
      </trkpt>
      <trkpt lat="46.04158" lon="4.76623">
        <ele>199</ele>
        <time>2018-08-08T09:01:20Z</time>
      </trkpt>
      <trkpt lat="46.04163" lon="4.76619">
        <ele>199</ele>
        <time>2018-08-08T09:01:21Z</time>
      </trkpt>
      <trkpt lat="46.04168" lon="4.76617">
        <ele>198</ele>
        <time>2018-08-08T09:01:22Z</time>
      </trkpt>
      <trkpt lat="46.04173" lon="4.76609">
        <ele>198</ele>
        <time>2018-08-08T09:01:23Z</time>
      </trkpt>
      <trkpt lat="46.04178" lon="4.76605">
        <ele>198</ele>
        <time>2018-08-08T09:01:24Z</time>
      </trkpt>
      <trkpt lat="46.04184" lon="4.76602">
        <ele>198</ele>
        <time>2018-08-08T09:01:25Z</time>
      </trkpt>
      <trkpt lat="46.04191" lon="4.76599">
        <ele>198</ele>
        <time>2018-08-08T09:01:26Z</time>
      </trkpt>
      <trkpt lat="46.04197" lon="4.76594">
        <ele>198</ele>
        <time>2018-08-08T09:01:27Z</time>
      </trkpt>
      <trkpt lat="46.04204" lon="4.76592">
        <ele>198</ele>
        <time>2018-08-08T09:01:28Z</time>
      </trkpt>
      <trkpt lat="46.04211" lon="4.76588">
        <ele>198</ele>
        <time>2018-08-08T09:01:29Z</time>
      </trkpt>
      <trkpt lat="46.04219" lon="4.76587">
        <ele>198</ele>
        <time>2018-08-08T09:01:30Z</time>
      </trkpt>
      <trkpt lat="46.04226" lon="4.76583">
        <ele>197</ele>
        <time>2018-08-08T09:01:31Z</time>
      </trkpt>
      <trkpt lat="46.04234" lon="4.76584">
        <ele>197</ele>
        <time>2018-08-08T09:01:32Z</time>
      </trkpt>
      <trkpt lat="46.04241" lon="4.76586">
        <ele>197</ele>
        <time>2018-08-08T09:01:33Z</time>
      </trkpt>
      <trkpt lat="46.04246" lon="4.7659">
        <ele>197</ele>
        <time>2018-08-08T09:01:34Z</time>
      </trkpt>
      <trkpt lat="46.04256" lon="4.76587">
        <ele>197</ele>
        <time>2018-08-08T09:01:35Z</time>
      </trkpt>
      <trkpt lat="46.04264" lon="4.76583">
        <ele>197</ele>
        <time>2018-08-08T09:01:36Z</time>
      </trkpt>
      <trkpt lat="46.04272" lon="4.76585">
        <ele>198</ele>
        <time>2018-08-08T09:01:37Z</time>
      </trkpt>
      <trkpt lat="46.0428" lon="4.76583">
        <ele>197</ele>
        <time>2018-08-08T09:01:38Z</time>
      </trkpt>
      <trkpt lat="46.04288" lon="4.76583">
        <ele>198</ele>
        <time>2018-08-08T09:01:39Z</time>
      </trkpt>
      <trkpt lat="46.04294" lon="4.76582">
        <ele>197</ele>
        <time>2018-08-08T09:01:40Z</time>
      </trkpt>
      <trkpt lat="46.04302" lon="4.76583">
        <ele>197</ele>
        <time>2018-08-08T09:01:41Z</time>
      </trkpt>
      <trkpt lat="46.04309" lon="4.7658">
        <ele>197</ele>
        <time>2018-08-08T09:01:42Z</time>
      </trkpt>
      <trkpt lat="46.04316" lon="4.76582">
        <ele>198</ele>
        <time>2018-08-08T09:01:43Z</time>
      </trkpt>
      <trkpt lat="46.04323" lon="4.76582">
        <ele>198</ele>
        <time>2018-08-08T09:01:44Z</time>
      </trkpt>
      <trkpt lat="46.0433" lon="4.76581">
        <ele>199</ele>
        <time>2018-08-08T09:01:45Z</time>
      </trkpt>
      <trkpt lat="46.04338" lon="4.7658">
        <ele>199</ele>
        <time>2018-08-08T09:01:46Z</time>
      </trkpt>
      <trkpt lat="46.04346" lon="4.7658">
        <ele>198</ele>
        <time>2018-08-08T09:01:47Z</time>
      </trkpt>
      <trkpt lat="46.04355" lon="4.76578">
        <ele>198</ele>
        <time>2018-08-08T09:01:48Z</time>
      </trkpt>
      <trkpt lat="46.04362" lon="4.76578">
        <ele>197</ele>
        <time>2018-08-08T09:01:49Z</time>
      </trkpt>
      <trkpt lat="46.0437" lon="4.76576">
        <ele>197</ele>
        <time>2018-08-08T09:01:50Z</time>
      </trkpt>
      <trkpt lat="46.04378" lon="4.76576">
        <ele>197</ele>
        <time>2018-08-08T09:01:51Z</time>
      </trkpt>
      <trkpt lat="46.04386" lon="4.76576">
        <ele>197</ele>
        <time>2018-08-08T09:01:52Z</time>
      </trkpt>
      <trkpt lat="46.04393" lon="4.76574">
        <ele>198</ele>
        <time>2018-08-08T09:01:53Z</time>
      </trkpt>
      <trkpt lat="46.04401" lon="4.76573">
        <ele>198</ele>
        <time>2018-08-08T09:01:54Z</time>
      </trkpt>
      <trkpt lat="46.04407" lon="4.76572">
        <ele>198</ele>
        <time>2018-08-08T09:01:55Z</time>
      </trkpt>
      <trkpt lat="46.04415" lon="4.76571">
        <ele>198</ele>
        <time>2018-08-08T09:01:56Z</time>
      </trkpt>
      <trkpt lat="46.04421" lon="4.7657">
        <ele>197</ele>
        <time>2018-08-08T09:01:57Z</time>
      </trkpt>
      <trkpt lat="46.04427" lon="4.7657">
        <ele>196</ele>
        <time>2018-08-08T09:01:58Z</time>
      </trkpt>
      <trkpt lat="46.04436" lon="4.76571">
        <ele>196</ele>
        <time>2018-08-08T09:01:59Z</time>
      </trkpt>
      <trkpt lat="46.04443" lon="4.76572">
        <ele>195</ele>
        <time>2018-08-08T09:02:00Z</time>
      </trkpt>
      <trkpt lat="46.04453" lon="4.76574">
        <ele>194</ele>
        <time>2018-08-08T09:02:01Z</time>
      </trkpt>
      <trkpt lat="46.04463" lon="4.76573">
        <ele>194</ele>
        <time>2018-08-08T09:02:02Z</time>
      </trkpt>
      <trkpt lat="46.04471" lon="4.76575">
        <ele>193</ele>
        <time>2018-08-08T09:02:03Z</time>
      </trkpt>
      <trkpt lat="46.0448" lon="4.76576">
        <ele>193</ele>
        <time>2018-08-08T09:02:04Z</time>
      </trkpt>
      <trkpt lat="46.04486" lon="4.76572">
        <ele>192</ele>
        <time>2018-08-08T09:02:05Z</time>
      </trkpt>
      <trkpt lat="46.04494" lon="4.76572">
        <ele>192</ele>
        <time>2018-08-08T09:02:06Z</time>
      </trkpt>
      <trkpt lat="46.045" lon="4.76568">
        <ele>192</ele>
        <time>2018-08-08T09:02:07Z</time>
      </trkpt>
      <trkpt lat="46.04505" lon="4.76561">
        <ele>189</ele>
        <time>2018-08-08T09:02:08Z</time>
      </trkpt>
      <trkpt lat="46.04512" lon="4.76566">
        <ele>189</ele>
        <time>2018-08-08T09:02:09Z</time>
      </trkpt>
      <trkpt lat="46.04516" lon="4.76564">
        <ele>189</ele>
        <time>2018-08-08T09:02:10Z</time>
      </trkpt>
      <trkpt lat="46.04523" lon="4.76563">
        <ele>189</ele>
        <time>2018-08-08T09:02:12Z</time>
      </trkpt>
      <trkpt lat="46.04525" lon="4.76564">
        <ele>189</ele>
        <time>2018-08-08T09:02:13Z</time>
      </trkpt>
      <trkpt lat="46.04532" lon="4.76561">
        <ele>188</ele>
        <time>2018-08-08T09:02:14Z</time>
      </trkpt>
      <trkpt lat="46.04535" lon="4.76561">
        <ele>188</ele>
        <time>2018-08-08T09:02:15Z</time>
      </trkpt>
      <trkpt lat="46.0454" lon="4.76561">
        <ele>188</ele>
        <time>2018-08-08T09:02:16Z</time>
      </trkpt>
      <trkpt lat="46.04547" lon="4.76559">
        <ele>188</ele>
        <time>2018-08-08T09:02:17Z</time>
      </trkpt>
      <trkpt lat="46.04553" lon="4.76556">
        <ele>188</ele>
        <time>2018-08-08T09:02:18Z</time>
      </trkpt>
      <trkpt lat="46.04558" lon="4.76554">
        <ele>188</ele>
        <time>2018-08-08T09:02:19Z</time>
      </trkpt>
      <trkpt lat="46.04564" lon="4.7655">
        <ele>187</ele>
        <time>2018-08-08T09:02:20Z</time>
      </trkpt>
      <trkpt lat="46.04569" lon="4.76546">
        <ele>187</ele>
        <time>2018-08-08T09:02:21Z</time>
      </trkpt>
      <trkpt lat="46.04575" lon="4.76544">
        <ele>187</ele>
        <time>2018-08-08T09:02:22Z</time>
      </trkpt>
      <trkpt lat="46.0458" lon="4.76544">
        <ele>187</ele>
        <time>2018-08-08T09:02:23Z</time>
      </trkpt>
      <trkpt lat="46.04586" lon="4.76542">
        <ele>186</ele>
        <time>2018-08-08T09:02:24Z</time>
      </trkpt>
      <trkpt lat="46.04592" lon="4.7654">
        <ele>186</ele>
        <time>2018-08-08T09:02:25Z</time>
      </trkpt>
      <trkpt lat="46.04596" lon="4.76538">
        <ele>186</ele>
        <time>2018-08-08T09:02:26Z</time>
      </trkpt>
      <trkpt lat="46.04603" lon="4.76534">
        <ele>186</ele>
        <time>2018-08-08T09:02:27Z</time>
      </trkpt>
      <trkpt lat="46.04608" lon="4.76531">
        <ele>186</ele>
        <time>2018-08-08T09:02:28Z</time>
      </trkpt>
      <trkpt lat="46.04612" lon="4.76529">
        <ele>186</ele>
        <time>2018-08-08T09:02:29Z</time>
      </trkpt>
      <trkpt lat="46.04618" lon="4.76527">
        <ele>186</ele>
        <time>2018-08-08T09:02:30Z</time>
      </trkpt>
      <trkpt lat="46.04624" lon="4.76525">
        <ele>186</ele>
        <time>2018-08-08T09:02:31Z</time>
      </trkpt>
      <trkpt lat="46.04631" lon="4.7652">
        <ele>186</ele>
        <time>2018-08-08T09:02:32Z</time>
      </trkpt>
      <trkpt lat="46.04635" lon="4.76519">
        <ele>186</ele>
        <time>2018-08-08T09:02:33Z</time>
      </trkpt>
      <trkpt lat="46.0464" lon="4.76519">
        <ele>186</ele>
        <time>2018-08-08T09:02:34Z</time>
      </trkpt>
      <trkpt lat="46.04645" lon="4.76518">
        <ele>186</ele>
        <time>2018-08-08T09:02:35Z</time>
      </trkpt>
      <trkpt lat="46.04651" lon="4.76518">
        <ele>186</ele>
        <time>2018-08-08T09:02:36Z</time>
      </trkpt>
      <trkpt lat="46.04657" lon="4.76517">
        <ele>186</ele>
        <time>2018-08-08T09:02:37Z</time>
      </trkpt>
      <trkpt lat="46.04662" lon="4.76517">
        <ele>186</ele>
        <time>2018-08-08T09:02:38Z</time>
      </trkpt>
      <trkpt lat="46.04667" lon="4.76514">
        <ele>186</ele>
        <time>2018-08-08T09:02:39Z</time>
      </trkpt>
      <trkpt lat="46.04672" lon="4.76517">
        <ele>187</ele>
        <time>2018-08-08T09:02:41Z</time>
      </trkpt>
      <trkpt lat="46.04677" lon="4.76518">
        <ele>187</ele>
        <time>2018-08-08T09:02:42Z</time>
      </trkpt>
      <trkpt lat="46.04685" lon="4.76519">
        <ele>187</ele>
        <time>2018-08-08T09:02:54Z</time>
      </trkpt>
      <trkpt lat="46.04686" lon="4.76519">
        <ele>187</ele>
        <time>2018-08-08T09:02:55Z</time>
      </trkpt>
      <trkpt lat="46.04692" lon="4.76514">
        <ele>187</ele>
        <time>2018-08-08T09:03:01Z</time>
      </trkpt>
      <trkpt lat="46.04694" lon="4.76511">
        <ele>187</ele>
        <time>2018-08-08T09:03:02Z</time>
      </trkpt>
      <trkpt lat="46.047" lon="4.76502">
        <ele>188</ele>
        <time>2018-08-08T09:03:05Z</time>
      </trkpt>
      <trkpt lat="46.04702" lon="4.76499">
        <ele>188</ele>
        <time>2018-08-08T09:03:06Z</time>
      </trkpt>
      <trkpt lat="46.04705" lon="4.76496">
        <ele>188</ele>
        <time>2018-08-08T09:03:07Z</time>
      </trkpt>
      <trkpt lat="46.04714" lon="4.7649">
        <ele>189</ele>
        <time>2018-08-08T09:03:08Z</time>
      </trkpt>
      <trkpt lat="46.0472" lon="4.76487">
        <ele>189</ele>
        <time>2018-08-08T09:03:11Z</time>
      </trkpt>
      <trkpt lat="46.04722" lon="4.76486">
        <ele>189</ele>
        <time>2018-08-08T09:03:12Z</time>
      </trkpt>
      <trkpt lat="46.04731" lon="4.76482">
        <ele>189</ele>
        <time>2018-08-08T09:03:15Z</time>
      </trkpt>
      <trkpt lat="46.04733" lon="4.76481">
        <ele>190</ele>
        <time>2018-08-08T09:03:16Z</time>
      </trkpt>
      <trkpt lat="46.04737" lon="4.7648">
        <ele>190</ele>
        <time>2018-08-08T09:03:17Z</time>
      </trkpt>
      <trkpt lat="46.04746" lon="4.76477">
        <ele>190</ele>
        <time>2018-08-08T09:03:18Z</time>
      </trkpt>
      <trkpt lat="46.04754" lon="4.76474">
        <ele>192</ele>
        <time>2018-08-08T09:03:21Z</time>
      </trkpt>
      <trkpt lat="46.04755" lon="4.76473">
        <ele>192</ele>
        <time>2018-08-08T09:03:22Z</time>
      </trkpt>
      <trkpt lat="46.0476" lon="4.76469">
        <ele>192</ele>
        <time>2018-08-08T09:03:24Z</time>
      </trkpt>
      <trkpt lat="46.04767" lon="4.76463">
        <ele>192</ele>
        <time>2018-08-08T09:03:25Z</time>
      </trkpt>
      <trkpt lat="46.04771" lon="4.7646">
        <ele>192</ele>
        <time>2018-08-08T09:03:27Z</time>
      </trkpt>
      <trkpt lat="46.04777" lon="4.76457">
        <ele>192</ele>
        <time>2018-08-08T09:03:28Z</time>
      </trkpt>
      <trkpt lat="46.04784" lon="4.76452">
        <ele>192</ele>
        <time>2018-08-08T09:03:30Z</time>
      </trkpt>
      <trkpt lat="46.04788" lon="4.76449">
        <ele>192</ele>
        <time>2018-08-08T09:03:31Z</time>
      </trkpt>
      <trkpt lat="46.04795" lon="4.76444">
        <ele>193</ele>
        <time>2018-08-08T09:03:34Z</time>
      </trkpt>
      <trkpt lat="46.04797" lon="4.76443">
        <ele>193</ele>
        <time>2018-08-08T09:03:35Z</time>
      </trkpt>
      <trkpt lat="46.04804" lon="4.76446">
        <ele>193</ele>
        <time>2018-08-08T09:03:36Z</time>
      </trkpt>
      <trkpt lat="46.04806" lon="4.76443">
        <ele>193</ele>
        <time>2018-08-08T09:03:37Z</time>
      </trkpt>
      <trkpt lat="46.04812" lon="4.76444">
        <ele>193</ele>
        <time>2018-08-08T09:03:40Z</time>
      </trkpt>
      <trkpt lat="46.04815" lon="4.76443">
        <ele>193</ele>
        <time>2018-08-08T09:03:41Z</time>
      </trkpt>
      <trkpt lat="46.04823" lon="4.76444">
        <ele>193</ele>
        <time>2018-08-08T09:03:44Z</time>
      </trkpt>
      <trkpt lat="46.04831" lon="4.76446">
        <ele>193</ele>
        <time>2018-08-08T09:03:45Z</time>
      </trkpt>
      <trkpt lat="46.04838" lon="4.7645">
        <ele>194</ele>
        <time>2018-08-08T09:03:48Z</time>
      </trkpt>
      <trkpt lat="46.0484" lon="4.76452">
        <ele>194</ele>
        <time>2018-08-08T09:03:49Z</time>
      </trkpt>
      <trkpt lat="46.04847" lon="4.76454">
        <ele>193</ele>
        <time>2018-08-08T09:03:52Z</time>
      </trkpt>
      <trkpt lat="46.04856" lon="4.76455">
        <ele>193</ele>
        <time>2018-08-08T09:03:53Z</time>
      </trkpt>
      <trkpt lat="46.0486" lon="4.76455">
        <ele>193</ele>
        <time>2018-08-08T09:03:55Z</time>
      </trkpt>
      <trkpt lat="46.04867" lon="4.76457">
        <ele>193</ele>
        <time>2018-08-08T09:03:56Z</time>
      </trkpt>
      <trkpt lat="46.04873" lon="4.76458">
        <ele>193</ele>
        <time>2018-08-08T09:03:58Z</time>
      </trkpt>
      <trkpt lat="46.04879" lon="4.76457">
        <ele>193</ele>
        <time>2018-08-08T09:03:59Z</time>
      </trkpt>
      <trkpt lat="46.04886" lon="4.76456">
        <ele>193</ele>
        <time>2018-08-08T09:04:01Z</time>
      </trkpt>
      <trkpt lat="46.0489" lon="4.76455">
        <ele>193</ele>
        <time>2018-08-08T09:04:02Z</time>
      </trkpt>
      <trkpt lat="46.04896" lon="4.76449">
        <ele>193</ele>
        <time>2018-08-08T09:04:03Z</time>
      </trkpt>
      <trkpt lat="46.049" lon="4.76447">
        <ele>193</ele>
        <time>2018-08-08T09:04:04Z</time>
      </trkpt>
      <trkpt lat="46.04908" lon="4.76445">
        <ele>193</ele>
        <time>2018-08-08T09:04:06Z</time>
      </trkpt>
      <trkpt lat="46.04914" lon="4.76439">
        <ele>193</ele>
        <time>2018-08-08T09:04:07Z</time>
      </trkpt>
      <trkpt lat="46.04918" lon="4.76436">
        <ele>191</ele>
        <time>2018-08-08T09:04:08Z</time>
      </trkpt>
      <trkpt lat="46.04923" lon="4.76435">
        <ele>191</ele>
        <time>2018-08-08T09:04:09Z</time>
      </trkpt>
      <trkpt lat="46.04928" lon="4.76434">
        <ele>191</ele>
        <time>2018-08-08T09:04:10Z</time>
      </trkpt>
      <trkpt lat="46.04932" lon="4.76431">
        <ele>191</ele>
        <time>2018-08-08T09:04:11Z</time>
      </trkpt>
      <trkpt lat="46.04938" lon="4.76432">
        <ele>191</ele>
        <time>2018-08-08T09:04:12Z</time>
      </trkpt>
      <trkpt lat="46.04945" lon="4.76432">
        <ele>191</ele>
        <time>2018-08-08T09:04:13Z</time>
      </trkpt>
      <trkpt lat="46.04948" lon="4.76437">
        <ele>191</ele>
        <time>2018-08-08T09:04:14Z</time>
      </trkpt>
      <trkpt lat="46.04955" lon="4.7644">
        <ele>191</ele>
        <time>2018-08-08T09:04:15Z</time>
      </trkpt>
      <trkpt lat="46.0496" lon="4.76444">
        <ele>191</ele>
        <time>2018-08-08T09:04:16Z</time>
      </trkpt>
      <trkpt lat="46.04962" lon="4.7645">
        <ele>191</ele>
        <time>2018-08-08T09:04:17Z</time>
      </trkpt>
      <trkpt lat="46.04965" lon="4.76456">
        <ele>191</ele>
        <time>2018-08-08T09:04:18Z</time>
      </trkpt>
      <trkpt lat="46.04967" lon="4.76462">
        <ele>191</ele>
        <time>2018-08-08T09:04:19Z</time>
      </trkpt>
      <trkpt lat="46.0497" lon="4.76468">
        <ele>191</ele>
        <time>2018-08-08T09:04:20Z</time>
      </trkpt>
      <trkpt lat="46.04972" lon="4.76474">
        <ele>191</ele>
        <time>2018-08-08T09:04:21Z</time>
      </trkpt>
      <trkpt lat="46.04975" lon="4.76485">
        <ele>191</ele>
        <time>2018-08-08T09:04:23Z</time>
      </trkpt>
      <trkpt lat="46.04976" lon="4.7649">
        <ele>191</ele>
        <time>2018-08-08T09:04:24Z</time>
      </trkpt>
      <trkpt lat="46.04979" lon="4.76501">
        <ele>191</ele>
        <time>2018-08-08T09:04:26Z</time>
      </trkpt>
      <trkpt lat="46.04982" lon="4.76507">
        <ele>191</ele>
        <time>2018-08-08T09:04:27Z</time>
      </trkpt>
      <trkpt lat="46.04984" lon="4.76518">
        <ele>191</ele>
        <time>2018-08-08T09:04:29Z</time>
      </trkpt>
      <trkpt lat="46.04987" lon="4.76524">
        <ele>191</ele>
        <time>2018-08-08T09:04:30Z</time>
      </trkpt>
      <trkpt lat="46.04993" lon="4.76533">
        <ele>191</ele>
        <time>2018-08-08T09:04:32Z</time>
      </trkpt>
      <trkpt lat="46.04995" lon="4.76538">
        <ele>191</ele>
        <time>2018-08-08T09:04:33Z</time>
      </trkpt>
      <trkpt lat="46.04999" lon="4.76548">
        <ele>192</ele>
        <time>2018-08-08T09:04:36Z</time>
      </trkpt>
      <trkpt lat="46.05" lon="4.7655">
        <ele>190</ele>
        <time>2018-08-08T09:04:37Z</time>
      </trkpt>
      <trkpt lat="46.05001" lon="4.76561">
        <ele>191</ele>
        <time>2018-08-08T09:04:55Z</time>
      </trkpt>
      <trkpt lat="46.05001" lon="4.76563">
        <ele>191</ele>
        <time>2018-08-08T09:04:56Z</time>
      </trkpt>
      <trkpt lat="46.05003" lon="4.76569">
        <ele>191</ele>
        <time>2018-08-08T09:04:58Z</time>
      </trkpt>
      <trkpt lat="46.05009" lon="4.76577">
        <ele>191</ele>
        <time>2018-08-08T09:04:59Z</time>
      </trkpt>
      <trkpt lat="46.05016" lon="4.76573">
        <ele>191</ele>
        <time>2018-08-08T09:05:00Z</time>
      </trkpt>
      <trkpt lat="46.05022" lon="4.76573">
        <ele>191</ele>
        <time>2018-08-08T09:05:01Z</time>
      </trkpt>
      <trkpt lat="46.05027" lon="4.76575">
        <ele>190</ele>
        <time>2018-08-08T09:05:02Z</time>
      </trkpt>
      <trkpt lat="46.05032" lon="4.76577">
        <ele>190</ele>
        <time>2018-08-08T09:05:03Z</time>
      </trkpt>
      <trkpt lat="46.05037" lon="4.76579">
        <ele>190</ele>
        <time>2018-08-08T09:05:04Z</time>
      </trkpt>
      <trkpt lat="46.05042" lon="4.76581">
        <ele>190</ele>
        <time>2018-08-08T09:05:05Z</time>
      </trkpt>
      <trkpt lat="46.05046" lon="4.76585">
        <ele>191</ele>
        <time>2018-08-08T09:05:06Z</time>
      </trkpt>
      <trkpt lat="46.05051" lon="4.7659">
        <ele>191</ele>
        <time>2018-08-08T09:05:07Z</time>
      </trkpt>
      <trkpt lat="46.05055" lon="4.76594">
        <ele>191</ele>
        <time>2018-08-08T09:05:08Z</time>
      </trkpt>
      <trkpt lat="46.0506" lon="4.76597">
        <ele>191</ele>
        <time>2018-08-08T09:05:09Z</time>
      </trkpt>
      <trkpt lat="46.05065" lon="4.766">
        <ele>191</ele>
        <time>2018-08-08T09:05:10Z</time>
      </trkpt>
      <trkpt lat="46.0507" lon="4.76604">
        <ele>191</ele>
        <time>2018-08-08T09:05:11Z</time>
      </trkpt>
      <trkpt lat="46.05074" lon="4.76607">
        <ele>191</ele>
        <time>2018-08-08T09:05:12Z</time>
      </trkpt>
      <trkpt lat="46.05075" lon="4.76615">
        <ele>191</ele>
        <time>2018-08-08T09:05:13Z</time>
      </trkpt>
      <trkpt lat="46.05077" lon="4.76623">
        <ele>192</ele>
        <time>2018-08-08T09:05:14Z</time>
      </trkpt>
      <trkpt lat="46.05078" lon="4.76628">
        <ele>192</ele>
        <time>2018-08-08T09:05:15Z</time>
      </trkpt>
      <trkpt lat="46.05078" lon="4.76638">
        <ele>192</ele>
        <time>2018-08-08T09:05:16Z</time>
      </trkpt>
      <trkpt lat="46.05078" lon="4.76645">
        <ele>192</ele>
        <time>2018-08-08T09:05:17Z</time>
      </trkpt>
      <trkpt lat="46.05079" lon="4.76656">
        <ele>193</ele>
        <time>2018-08-08T09:05:19Z</time>
      </trkpt>
      <trkpt lat="46.05079" lon="4.76663">
        <ele>193</ele>
        <time>2018-08-08T09:05:20Z</time>
      </trkpt>
      <trkpt lat="46.0508" lon="4.76671">
        <ele>193</ele>
        <time>2018-08-08T09:05:21Z</time>
      </trkpt>
      <trkpt lat="46.0508" lon="4.7668">
        <ele>193</ele>
        <time>2018-08-08T09:05:22Z</time>
      </trkpt>
      <trkpt lat="46.05082" lon="4.76691">
        <ele>193</ele>
        <time>2018-08-08T09:05:24Z</time>
      </trkpt>
      <trkpt lat="46.05083" lon="4.76698">
        <ele>193</ele>
        <time>2018-08-08T09:05:25Z</time>
      </trkpt>
      <trkpt lat="46.05084" lon="4.76706">
        <ele>193</ele>
        <time>2018-08-08T09:05:26Z</time>
      </trkpt>
      <trkpt lat="46.05085" lon="4.76712">
        <ele>193</ele>
        <time>2018-08-08T09:05:27Z</time>
      </trkpt>
      <trkpt lat="46.05087" lon="4.76719">
        <ele>193</ele>
        <time>2018-08-08T09:05:28Z</time>
      </trkpt>
      <trkpt lat="46.05088" lon="4.76725">
        <ele>193</ele>
        <time>2018-08-08T09:05:29Z</time>
      </trkpt>
      <trkpt lat="46.05089" lon="4.76731">
        <ele>193</ele>
        <time>2018-08-08T09:05:30Z</time>
      </trkpt>
      <trkpt lat="46.05091" lon="4.76737">
        <ele>193</ele>
        <time>2018-08-08T09:05:31Z</time>
      </trkpt>
      <trkpt lat="46.05093" lon="4.76748">
        <ele>194</ele>
        <time>2018-08-08T09:05:33Z</time>
      </trkpt>
      <trkpt lat="46.05094" lon="4.76753">
        <ele>194</ele>
        <time>2018-08-08T09:05:34Z</time>
      </trkpt>
      <trkpt lat="46.05095" lon="4.7676">
        <ele>194</ele>
        <time>2018-08-08T09:05:35Z</time>
      </trkpt>
      <trkpt lat="46.05097" lon="4.76766">
        <ele>194</ele>
        <time>2018-08-08T09:05:36Z</time>
      </trkpt>
      <trkpt lat="46.05099" lon="4.76777">
        <ele>194</ele>
        <time>2018-08-08T09:05:38Z</time>
      </trkpt>
      <trkpt lat="46.05101" lon="4.76783">
        <ele>194</ele>
        <time>2018-08-08T09:05:39Z</time>
      </trkpt>
      <trkpt lat="46.05104" lon="4.76794">
        <ele>194</ele>
        <time>2018-08-08T09:05:41Z</time>
      </trkpt>
      <trkpt lat="46.05106" lon="4.768">
        <ele>194</ele>
        <time>2018-08-08T09:05:42Z</time>
      </trkpt>
      <trkpt lat="46.05109" lon="4.76811">
        <ele>194</ele>
        <time>2018-08-08T09:05:44Z</time>
      </trkpt>
      <trkpt lat="46.05111" lon="4.76818">
        <ele>194</ele>
        <time>2018-08-08T09:05:45Z</time>
      </trkpt>
      <trkpt lat="46.05113" lon="4.76824">
        <ele>194</ele>
        <time>2018-08-08T09:05:46Z</time>
      </trkpt>
      <trkpt lat="46.05115" lon="4.7683">
        <ele>194</ele>
        <time>2018-08-08T09:05:47Z</time>
      </trkpt>
      <trkpt lat="46.05117" lon="4.76836">
        <ele>195</ele>
        <time>2018-08-08T09:05:48Z</time>
      </trkpt>
      <trkpt lat="46.05118" lon="4.76843">
        <ele>195</ele>
        <time>2018-08-08T09:05:49Z</time>
      </trkpt>
      <trkpt lat="46.05123" lon="4.76852">
        <ele>195</ele>
        <time>2018-08-08T09:05:51Z</time>
      </trkpt>
      <trkpt lat="46.05124" lon="4.76858">
        <ele>195</ele>
        <time>2018-08-08T09:05:52Z</time>
      </trkpt>
      <trkpt lat="46.05127" lon="4.76864">
        <ele>195</ele>
        <time>2018-08-08T09:05:53Z</time>
      </trkpt>
      <trkpt lat="46.05129" lon="4.7687">
        <ele>195</ele>
        <time>2018-08-08T09:05:54Z</time>
      </trkpt>
      <trkpt lat="46.05133" lon="4.7688">
        <ele>195</ele>
        <time>2018-08-08T09:05:56Z</time>
      </trkpt>
      <trkpt lat="46.05137" lon="4.76884">
        <ele>195</ele>
        <time>2018-08-08T09:05:57Z</time>
      </trkpt>
      <trkpt lat="46.05143" lon="4.76893">
        <ele>195</ele>
        <time>2018-08-08T09:05:59Z</time>
      </trkpt>
      <trkpt lat="46.05146" lon="4.76897">
        <ele>195</ele>
        <time>2018-08-08T09:06:00Z</time>
      </trkpt>
      <trkpt lat="46.0515" lon="4.76906">
        <ele>195</ele>
        <time>2018-08-08T09:06:02Z</time>
      </trkpt>
      <trkpt lat="46.05152" lon="4.7691">
        <ele>195</ele>
        <time>2018-08-08T09:06:03Z</time>
      </trkpt>
      <trkpt lat="46.05156" lon="4.76918">
        <ele>196</ele>
        <time>2018-08-08T09:06:05Z</time>
      </trkpt>
      <trkpt lat="46.05158" lon="4.76922">
        <ele>196</ele>
        <time>2018-08-08T09:06:06Z</time>
      </trkpt>
      <trkpt lat="46.05163" lon="4.76929">
        <ele>196</ele>
        <time>2018-08-08T09:06:08Z</time>
      </trkpt>
      <trkpt lat="46.05166" lon="4.76933">
        <ele>196</ele>
        <time>2018-08-08T09:06:09Z</time>
      </trkpt>
      <trkpt lat="46.0517" lon="4.76942">
        <ele>197</ele>
        <time>2018-08-08T09:06:11Z</time>
      </trkpt>
      <trkpt lat="46.05171" lon="4.76944">
        <ele>197</ele>
        <time>2018-08-08T09:06:12Z</time>
      </trkpt>
      <trkpt lat="46.05174" lon="4.76951">
        <ele>197</ele>
        <time>2018-08-08T09:06:13Z</time>
      </trkpt>
      <trkpt lat="46.05176" lon="4.76956">
        <ele>197</ele>
        <time>2018-08-08T09:06:14Z</time>
      </trkpt>
      <trkpt lat="46.05178" lon="4.76965">
        <ele>198</ele>
        <time>2018-08-08T09:06:17Z</time>
      </trkpt>
      <trkpt lat="46.05181" lon="4.76975">
        <ele>198</ele>
        <time>2018-08-08T09:06:18Z</time>
      </trkpt>
      <trkpt lat="46.05184" lon="4.76985">
        <ele>198</ele>
        <time>2018-08-08T09:06:21Z</time>
      </trkpt>
      <trkpt lat="46.05185" lon="4.76988">
        <ele>198</ele>
        <time>2018-08-08T09:06:22Z</time>
      </trkpt>
      <trkpt lat="46.05188" lon="4.76998">
        <ele>198</ele>
        <time>2018-08-08T09:06:25Z</time>
      </trkpt>
      <trkpt lat="46.05189" lon="4.77002">
        <ele>199</ele>
        <time>2018-08-08T09:06:26Z</time>
      </trkpt>
      <trkpt lat="46.05192" lon="4.77011">
        <ele>200</ele>
        <time>2018-08-08T09:06:28Z</time>
      </trkpt>
      <trkpt lat="46.05194" lon="4.77015">
        <ele>200</ele>
        <time>2018-08-08T09:06:29Z</time>
      </trkpt>
      <trkpt lat="46.05198" lon="4.77028">
        <ele>200</ele>
        <time>2018-08-08T09:06:30Z</time>
      </trkpt>
      <trkpt lat="46.05201" lon="4.7704">
        <ele>200</ele>
        <time>2018-08-08T09:06:34Z</time>
      </trkpt>
      <trkpt lat="46.05202" lon="4.77043">
        <ele>200</ele>
        <time>2018-08-08T09:06:35Z</time>
      </trkpt>
      <trkpt lat="46.05206" lon="4.77054">
        <ele>201</ele>
        <time>2018-08-08T09:06:36Z</time>
      </trkpt>
      <trkpt lat="46.05207" lon="4.77055">
        <ele>201</ele>
        <time>2018-08-08T09:06:37Z</time>
      </trkpt>
      <trkpt lat="46.0521" lon="4.77063">
        <ele>201</ele>
        <time>2018-08-08T09:06:40Z</time>
      </trkpt>
      <trkpt lat="46.05214" lon="4.77073">
        <ele>201</ele>
        <time>2018-08-08T09:06:41Z</time>
      </trkpt>
      <trkpt lat="46.05218" lon="4.77082">
        <ele>201</ele>
        <time>2018-08-08T09:06:44Z</time>
      </trkpt>
      <trkpt lat="46.05219" lon="4.77085">
        <ele>203</ele>
        <time>2018-08-08T09:06:45Z</time>
      </trkpt>
      <trkpt lat="46.05221" lon="4.77088">
        <ele>203</ele>
        <time>2018-08-08T09:06:46Z</time>
      </trkpt>
      <trkpt lat="46.05225" lon="4.77097">
        <ele>203</ele>
        <time>2018-08-08T09:06:47Z</time>
      </trkpt>
      <trkpt lat="46.05232" lon="4.77104">
        <ele>203</ele>
        <time>2018-08-08T09:06:51Z</time>
      </trkpt>
      <trkpt lat="46.05234" lon="4.77106">
        <ele>203</ele>
        <time>2018-08-08T09:06:52Z</time>
      </trkpt>
      <trkpt lat="46.0524" lon="4.77111">
        <ele>203</ele>
        <time>2018-08-08T09:06:55Z</time>
      </trkpt>
      <trkpt lat="46.05242" lon="4.77113">
        <ele>203</ele>
        <time>2018-08-08T09:06:56Z</time>
      </trkpt>
      <trkpt lat="46.05249" lon="4.7712">
        <ele>204</ele>
        <time>2018-08-08T09:06:59Z</time>
      </trkpt>
      <trkpt lat="46.0525" lon="4.77122">
        <ele>204</ele>
        <time>2018-08-08T09:07:00Z</time>
      </trkpt>
      <trkpt lat="46.05257" lon="4.7713">
        <ele>204</ele>
        <time>2018-08-08T09:07:03Z</time>
      </trkpt>
      <trkpt lat="46.05259" lon="4.77133">
        <ele>204</ele>
        <time>2018-08-08T09:07:04Z</time>
      </trkpt>
      <trkpt lat="46.05266" lon="4.7714">
        <ele>204</ele>
        <time>2018-08-08T09:07:08Z</time>
      </trkpt>
      <trkpt lat="46.05275" lon="4.77149">
        <ele>204</ele>
        <time>2018-08-08T09:07:09Z</time>
      </trkpt>
      <trkpt lat="46.05281" lon="4.77157">
        <ele>204</ele>
        <time>2018-08-08T09:07:12Z</time>
      </trkpt>
      <trkpt lat="46.05284" lon="4.7716">
        <ele>204</ele>
        <time>2018-08-08T09:07:13Z</time>
      </trkpt>
      <trkpt lat="46.05286" lon="4.77162">
        <ele>204</ele>
        <time>2018-08-08T09:07:14Z</time>
      </trkpt>
      <trkpt lat="46.05293" lon="4.77171">
        <ele>205</ele>
        <time>2018-08-08T09:07:15Z</time>
      </trkpt>
      <trkpt lat="46.053" lon="4.77178">
        <ele>205</ele>
        <time>2018-08-08T09:07:17Z</time>
      </trkpt>
      <trkpt lat="46.05303" lon="4.77182">
        <ele>205</ele>
        <time>2018-08-08T09:07:18Z</time>
      </trkpt>
      <trkpt lat="46.0531" lon="4.77188">
        <ele>205</ele>
        <time>2018-08-08T09:07:21Z</time>
      </trkpt>
      <trkpt lat="46.05312" lon="4.7719">
        <ele>205</ele>
        <time>2018-08-08T09:07:22Z</time>
      </trkpt>
      <trkpt lat="46.05314" lon="4.77192">
        <ele>205</ele>
        <time>2018-08-08T09:07:23Z</time>
      </trkpt>
      <trkpt lat="46.05321" lon="4.772">
        <ele>205</ele>
        <time>2018-08-08T09:07:24Z</time>
      </trkpt>
      <trkpt lat="46.05325" lon="4.77204">
        <ele>205</ele>
        <time>2018-08-08T09:07:26Z</time>
      </trkpt>
      <trkpt lat="46.05331" lon="4.77209">
        <ele>205</ele>
        <time>2018-08-08T09:07:27Z</time>
      </trkpt>
      <trkpt lat="46.05338" lon="4.77216">
        <ele>204</ele>
        <time>2018-08-08T09:07:29Z</time>
      </trkpt>
      <trkpt lat="46.05341" lon="4.77219">
        <ele>204</ele>
        <time>2018-08-08T09:07:30Z</time>
      </trkpt>
      <trkpt lat="46.05349" lon="4.77225">
        <ele>204</ele>
        <time>2018-08-08T09:07:32Z</time>
      </trkpt>
      <trkpt lat="46.05354" lon="4.77227">
        <ele>203</ele>
        <time>2018-08-08T09:07:33Z</time>
      </trkpt>
      <trkpt lat="46.05362" lon="4.77232">
        <ele>203</ele>
        <time>2018-08-08T09:07:35Z</time>
      </trkpt>
      <trkpt lat="46.05366" lon="4.77234">
        <ele>203</ele>
        <time>2018-08-08T09:07:36Z</time>
      </trkpt>
      <trkpt lat="46.05374" lon="4.77238">
        <ele>203</ele>
        <time>2018-08-08T09:07:38Z</time>
      </trkpt>
      <trkpt lat="46.05378" lon="4.7724">
        <ele>203</ele>
        <time>2018-08-08T09:07:39Z</time>
      </trkpt>
      <trkpt lat="46.05386" lon="4.77243">
        <ele>202</ele>
        <time>2018-08-08T09:07:41Z</time>
      </trkpt>
      <trkpt lat="46.0539" lon="4.77245">
        <ele>202</ele>
        <time>2018-08-08T09:07:42Z</time>
      </trkpt>
      <trkpt lat="46.05398" lon="4.7725">
        <ele>202</ele>
        <time>2018-08-08T09:07:44Z</time>
      </trkpt>
      <trkpt lat="46.05401" lon="4.77252">
        <ele>203</ele>
        <time>2018-08-08T09:07:45Z</time>
      </trkpt>
      <trkpt lat="46.05406" lon="4.77254">
        <ele>202</ele>
        <time>2018-08-08T09:07:46Z</time>
      </trkpt>
      <trkpt lat="46.0541" lon="4.77256">
        <ele>202</ele>
        <time>2018-08-08T09:07:47Z</time>
      </trkpt>
      <trkpt lat="46.05415" lon="4.77258">
        <ele>202</ele>
        <time>2018-08-08T09:07:48Z</time>
      </trkpt>
      <trkpt lat="46.05419" lon="4.77259">
        <ele>201</ele>
        <time>2018-08-08T09:07:49Z</time>
      </trkpt>
      <trkpt lat="46.05424" lon="4.77261">
        <ele>201</ele>
        <time>2018-08-08T09:07:50Z</time>
      </trkpt>
      <trkpt lat="46.05428" lon="4.77264">
        <ele>201</ele>
        <time>2018-08-08T09:07:51Z</time>
      </trkpt>
      <trkpt lat="46.05436" lon="4.77268">
        <ele>201</ele>
        <time>2018-08-08T09:07:53Z</time>
      </trkpt>
      <trkpt lat="46.0544" lon="4.77269">
        <ele>201</ele>
        <time>2018-08-08T09:07:54Z</time>
      </trkpt>
      <trkpt lat="46.05444" lon="4.77272">
        <ele>201</ele>
        <time>2018-08-08T09:07:55Z</time>
      </trkpt>
      <trkpt lat="46.05449" lon="4.77274">
        <ele>201</ele>
        <time>2018-08-08T09:07:56Z</time>
      </trkpt>
      <trkpt lat="46.05453" lon="4.77276">
        <ele>201</ele>
        <time>2018-08-08T09:07:57Z</time>
      </trkpt>
      <trkpt lat="46.05458" lon="4.77275">
        <ele>201</ele>
        <time>2018-08-08T09:07:58Z</time>
      </trkpt>
      <trkpt lat="46.05466" lon="4.77279">
        <ele>201</ele>
        <time>2018-08-08T09:08:00Z</time>
      </trkpt>
      <trkpt lat="46.05471" lon="4.77281">
        <ele>201</ele>
        <time>2018-08-08T09:08:01Z</time>
      </trkpt>
      <trkpt lat="46.05476" lon="4.77285">
        <ele>201</ele>
        <time>2018-08-08T09:08:02Z</time>
      </trkpt>
      <trkpt lat="46.0548" lon="4.77287">
        <ele>201</ele>
        <time>2018-08-08T09:08:03Z</time>
      </trkpt>
      <trkpt lat="46.05484" lon="4.77292">
        <ele>201</ele>
        <time>2018-08-08T09:08:04Z</time>
      </trkpt>
      <trkpt lat="46.05489" lon="4.77294">
        <ele>201</ele>
        <time>2018-08-08T09:08:05Z</time>
      </trkpt>
      <trkpt lat="46.05494" lon="4.77296">
        <ele>201</ele>
        <time>2018-08-08T09:08:06Z</time>
      </trkpt>
      <trkpt lat="46.05499" lon="4.77299">
        <ele>201</ele>
        <time>2018-08-08T09:08:07Z</time>
      </trkpt>
      <trkpt lat="46.05504" lon="4.77302">
        <ele>200</ele>
        <time>2018-08-08T09:08:08Z</time>
      </trkpt>
      <trkpt lat="46.05508" lon="4.77304">
        <ele>200</ele>
        <time>2018-08-08T09:08:09Z</time>
      </trkpt>
      <trkpt lat="46.05512" lon="4.77307">
        <ele>200</ele>
        <time>2018-08-08T09:08:10Z</time>
      </trkpt>
      <trkpt lat="46.05517" lon="4.7731">
        <ele>200</ele>
        <time>2018-08-08T09:08:11Z</time>
      </trkpt>
      <trkpt lat="46.05524" lon="4.77315">
        <ele>200</ele>
        <time>2018-08-08T09:08:13Z</time>
      </trkpt>
      <trkpt lat="46.05528" lon="4.77319">
        <ele>200</ele>
        <time>2018-08-08T09:08:14Z</time>
      </trkpt>
      <trkpt lat="46.05533" lon="4.77322">
        <ele>200</ele>
        <time>2018-08-08T09:08:15Z</time>
      </trkpt>
      <trkpt lat="46.05537" lon="4.77324">
        <ele>200</ele>
        <time>2018-08-08T09:08:16Z</time>
      </trkpt>
      <trkpt lat="46.05545" lon="4.77329">
        <ele>200</ele>
        <time>2018-08-08T09:08:18Z</time>
      </trkpt>
      <trkpt lat="46.0555" lon="4.77333">
        <ele>200</ele>
        <time>2018-08-08T09:08:19Z</time>
      </trkpt>
      <trkpt lat="46.05555" lon="4.77333">
        <ele>200</ele>
        <time>2018-08-08T09:08:20Z</time>
      </trkpt>
      <trkpt lat="46.05559" lon="4.77335">
        <ele>201</ele>
        <time>2018-08-08T09:08:21Z</time>
      </trkpt>
      <trkpt lat="46.05563" lon="4.77338">
        <ele>201</ele>
        <time>2018-08-08T09:08:22Z</time>
      </trkpt>
      <trkpt lat="46.05567" lon="4.7734">
        <ele>201</ele>
        <time>2018-08-08T09:08:23Z</time>
      </trkpt>
      <trkpt lat="46.05572" lon="4.77341">
        <ele>201</ele>
        <time>2018-08-08T09:08:24Z</time>
      </trkpt>
      <trkpt lat="46.05576" lon="4.77344">
        <ele>201</ele>
        <time>2018-08-08T09:08:25Z</time>
      </trkpt>
      <trkpt lat="46.05581" lon="4.77347">
        <ele>201</ele>
        <time>2018-08-08T09:08:26Z</time>
      </trkpt>
      <trkpt lat="46.05585" lon="4.7735">
        <ele>201</ele>
        <time>2018-08-08T09:08:27Z</time>
      </trkpt>
      <trkpt lat="46.0559" lon="4.77352">
        <ele>201</ele>
        <time>2018-08-08T09:08:28Z</time>
      </trkpt>
      <trkpt lat="46.05595" lon="4.77355">
        <ele>202</ele>
        <time>2018-08-08T09:08:29Z</time>
      </trkpt>
      <trkpt lat="46.05599" lon="4.77357">
        <ele>202</ele>
        <time>2018-08-08T09:08:30Z</time>
      </trkpt>
      <trkpt lat="46.05604" lon="4.77359">
        <ele>202</ele>
        <time>2018-08-08T09:08:31Z</time>
      </trkpt>
      <trkpt lat="46.05609" lon="4.77362">
        <ele>202</ele>
        <time>2018-08-08T09:08:32Z</time>
      </trkpt>
      <trkpt lat="46.05613" lon="4.77365">
        <ele>202</ele>
        <time>2018-08-08T09:08:33Z</time>
      </trkpt>
      <trkpt lat="46.05616" lon="4.77369">
        <ele>203</ele>
        <time>2018-08-08T09:08:34Z</time>
      </trkpt>
      <trkpt lat="46.05621" lon="4.77373">
        <ele>203</ele>
        <time>2018-08-08T09:08:35Z</time>
      </trkpt>
      <trkpt lat="46.05625" lon="4.77376">
        <ele>203</ele>
        <time>2018-08-08T09:08:36Z</time>
      </trkpt>
      <trkpt lat="46.05629" lon="4.77379">
        <ele>203</ele>
        <time>2018-08-08T09:08:37Z</time>
      </trkpt>
      <trkpt lat="46.05637" lon="4.77386">
        <ele>203</ele>
        <time>2018-08-08T09:08:39Z</time>
      </trkpt>
      <trkpt lat="46.0564" lon="4.77388">
        <ele>203</ele>
        <time>2018-08-08T09:08:40Z</time>
      </trkpt>
      <trkpt lat="46.05644" lon="4.77392">
        <ele>203</ele>
        <time>2018-08-08T09:08:41Z</time>
      </trkpt>
      <trkpt lat="46.05648" lon="4.77395">
        <ele>203</ele>
        <time>2018-08-08T09:08:42Z</time>
      </trkpt>
      <trkpt lat="46.05655" lon="4.77402">
        <ele>204</ele>
        <time>2018-08-08T09:08:44Z</time>
      </trkpt>
      <trkpt lat="46.05658" lon="4.77406">
        <ele>204</ele>
        <time>2018-08-08T09:08:45Z</time>
      </trkpt>
      <trkpt lat="46.05665" lon="4.77413">
        <ele>205</ele>
        <time>2018-08-08T09:08:47Z</time>
      </trkpt>
      <trkpt lat="46.05668" lon="4.77416">
        <ele>205</ele>
        <time>2018-08-08T09:08:48Z</time>
      </trkpt>
      <trkpt lat="46.05674" lon="4.77423">
        <ele>206</ele>
        <time>2018-08-08T09:08:50Z</time>
      </trkpt>
      <trkpt lat="46.05675" lon="4.77425">
        <ele>206</ele>
        <time>2018-08-08T09:08:51Z</time>
      </trkpt>
      <trkpt lat="46.05679" lon="4.7743">
        <ele>206</ele>
        <time>2018-08-08T09:08:52Z</time>
      </trkpt>
      <trkpt lat="46.05683" lon="4.77433">
        <ele>206</ele>
        <time>2018-08-08T09:08:53Z</time>
      </trkpt>
      <trkpt lat="46.05686" lon="4.77437">
        <ele>206</ele>
        <time>2018-08-08T09:08:55Z</time>
      </trkpt>
      <trkpt lat="46.05691" lon="4.77442">
        <ele>206</ele>
        <time>2018-08-08T09:08:56Z</time>
      </trkpt>
      <trkpt lat="46.05697" lon="4.77447">
        <ele>207</ele>
        <time>2018-08-08T09:08:59Z</time>
      </trkpt>
      <trkpt lat="46.05704" lon="4.77452">
        <ele>207</ele>
        <time>2018-08-08T09:09:00Z</time>
      </trkpt>
      <trkpt lat="46.05711" lon="4.77456">
        <ele>207</ele>
        <time>2018-08-08T09:09:02Z</time>
      </trkpt>
      <trkpt lat="46.05714" lon="4.77458">
        <ele>207</ele>
        <time>2018-08-08T09:09:03Z</time>
      </trkpt>
      <trkpt lat="46.05721" lon="4.77463">
        <ele>207</ele>
        <time>2018-08-08T09:09:05Z</time>
      </trkpt>
      <trkpt lat="46.05724" lon="4.77465">
        <ele>207</ele>
        <time>2018-08-08T09:09:06Z</time>
      </trkpt>
      <trkpt lat="46.05728" lon="4.77468">
        <ele>207</ele>
        <time>2018-08-08T09:09:08Z</time>
      </trkpt>
      <trkpt lat="46.05733" lon="4.77473">
        <ele>207</ele>
        <time>2018-08-08T09:09:09Z</time>
      </trkpt>
      <trkpt lat="46.05739" lon="4.7748">
        <ele>207</ele>
        <time>2018-08-08T09:09:11Z</time>
      </trkpt>
      <trkpt lat="46.05742" lon="4.77484">
        <ele>207</ele>
        <time>2018-08-08T09:09:12Z</time>
      </trkpt>
      <trkpt lat="46.05747" lon="4.77493">
        <ele>208</ele>
        <time>2018-08-08T09:09:14Z</time>
      </trkpt>
      <trkpt lat="46.0575" lon="4.77497">
        <ele>208</ele>
        <time>2018-08-08T09:09:15Z</time>
      </trkpt>
      <trkpt lat="46.05755" lon="4.77506">
        <ele>208</ele>
        <time>2018-08-08T09:09:17Z</time>
      </trkpt>
      <trkpt lat="46.05757" lon="4.77511">
        <ele>208</ele>
        <time>2018-08-08T09:09:18Z</time>
      </trkpt>
      <trkpt lat="46.05763" lon="4.77519">
        <ele>208</ele>
        <time>2018-08-08T09:09:20Z</time>
      </trkpt>
      <trkpt lat="46.05766" lon="4.77523">
        <ele>208</ele>
        <time>2018-08-08T09:09:21Z</time>
      </trkpt>
      <trkpt lat="46.05771" lon="4.77531">
        <ele>208</ele>
        <time>2018-08-08T09:09:23Z</time>
      </trkpt>
      <trkpt lat="46.05774" lon="4.77536">
        <ele>208</ele>
        <time>2018-08-08T09:09:24Z</time>
      </trkpt>
      <trkpt lat="46.05779" lon="4.77544">
        <ele>208</ele>
        <time>2018-08-08T09:09:26Z</time>
      </trkpt>
      <trkpt lat="46.05783" lon="4.77549">
        <ele>208</ele>
        <time>2018-08-08T09:09:27Z</time>
      </trkpt>
      <trkpt lat="46.05789" lon="4.77558">
        <ele>208</ele>
        <time>2018-08-08T09:09:29Z</time>
      </trkpt>
      <trkpt lat="46.05792" lon="4.77563">
        <ele>208</ele>
        <time>2018-08-08T09:09:30Z</time>
      </trkpt>
      <trkpt lat="46.05799" lon="4.77572">
        <ele>208</ele>
        <time>2018-08-08T09:09:32Z</time>
      </trkpt>
      <trkpt lat="46.05803" lon="4.77574">
        <ele>208</ele>
        <time>2018-08-08T09:09:33Z</time>
      </trkpt>
      <trkpt lat="46.0581" lon="4.77582">
        <ele>208</ele>
        <time>2018-08-08T09:09:35Z</time>
      </trkpt>
      <trkpt lat="46.05813" lon="4.77588">
        <ele>208</ele>
        <time>2018-08-08T09:09:36Z</time>
      </trkpt>
      <trkpt lat="46.05815" lon="4.77593">
        <ele>208</ele>
        <time>2018-08-08T09:09:37Z</time>
      </trkpt>
      <trkpt lat="46.05818" lon="4.776">
        <ele>208</ele>
        <time>2018-08-08T09:09:38Z</time>
      </trkpt>
      <trkpt lat="46.05823" lon="4.77602">
        <ele>208</ele>
        <time>2018-08-08T09:09:39Z</time>
      </trkpt>
      <trkpt lat="46.05827" lon="4.77605">
        <ele>208</ele>
        <time>2018-08-08T09:09:40Z</time>
      </trkpt>
      <trkpt lat="46.0583" lon="4.77608">
        <ele>208</ele>
        <time>2018-08-08T09:09:41Z</time>
      </trkpt>
      <trkpt lat="46.05835" lon="4.77613">
        <ele>208</ele>
        <time>2018-08-08T09:09:42Z</time>
      </trkpt>
      <trkpt lat="46.05839" lon="4.7762">
        <ele>208</ele>
        <time>2018-08-08T09:09:43Z</time>
      </trkpt>
      <trkpt lat="46.05845" lon="4.77619">
        <ele>208</ele>
        <time>2018-08-08T09:09:44Z</time>
      </trkpt>
      <trkpt lat="46.05849" lon="4.77622">
        <ele>208</ele>
        <time>2018-08-08T09:09:45Z</time>
      </trkpt>
      <trkpt lat="46.05852" lon="4.77627">
        <ele>208</ele>
        <time>2018-08-08T09:09:46Z</time>
      </trkpt>
      <trkpt lat="46.05855" lon="4.77631">
        <ele>208</ele>
        <time>2018-08-08T09:09:47Z</time>
      </trkpt>
      <trkpt lat="46.05859" lon="4.77638">
        <ele>208</ele>
        <time>2018-08-08T09:09:48Z</time>
      </trkpt>
      <trkpt lat="46.05863" lon="4.77644">
        <ele>208</ele>
        <time>2018-08-08T09:09:49Z</time>
      </trkpt>
      <trkpt lat="46.05867" lon="4.77649">
        <ele>208</ele>
        <time>2018-08-08T09:09:50Z</time>
      </trkpt>
      <trkpt lat="46.05871" lon="4.77656">
        <ele>208</ele>
        <time>2018-08-08T09:09:51Z</time>
      </trkpt>
      <trkpt lat="46.05875" lon="4.7766">
        <ele>208</ele>
        <time>2018-08-08T09:09:52Z</time>
      </trkpt>
      <trkpt lat="46.05878" lon="4.77665">
        <ele>208</ele>
        <time>2018-08-08T09:09:53Z</time>
      </trkpt>
      <trkpt lat="46.05881" lon="4.77671">
        <ele>208</ele>
        <time>2018-08-08T09:09:54Z</time>
      </trkpt>
      <trkpt lat="46.05885" lon="4.77682">
        <ele>208</ele>
        <time>2018-08-08T09:09:56Z</time>
      </trkpt>
      <trkpt lat="46.05886" lon="4.77684">
        <ele>208</ele>
        <time>2018-08-08T09:09:57Z</time>
      </trkpt>
      <trkpt lat="46.05888" lon="4.77695">
        <ele>208</ele>
        <time>2018-08-08T09:09:58Z</time>
      </trkpt>
      <trkpt lat="46.05889" lon="4.777">
        <ele>208</ele>
        <time>2018-08-08T09:09:59Z</time>
      </trkpt>
      <trkpt lat="46.05891" lon="4.77706">
        <ele>208</ele>
        <time>2018-08-08T09:10:00Z</time>
      </trkpt>
      <trkpt lat="46.05892" lon="4.77712">
        <ele>208</ele>
        <time>2018-08-08T09:10:01Z</time>
      </trkpt>
      <trkpt lat="46.05893" lon="4.77719">
        <ele>209</ele>
        <time>2018-08-08T09:10:02Z</time>
      </trkpt>
      <trkpt lat="46.05894" lon="4.77726">
        <ele>209</ele>
        <time>2018-08-08T09:10:03Z</time>
      </trkpt>
      <trkpt lat="46.05894" lon="4.77733">
        <ele>209</ele>
        <time>2018-08-08T09:10:04Z</time>
      </trkpt>
      <trkpt lat="46.05896" lon="4.7774">
        <ele>209</ele>
        <time>2018-08-08T09:10:05Z</time>
      </trkpt>
      <trkpt lat="46.05897" lon="4.77746">
        <ele>209</ele>
        <time>2018-08-08T09:10:06Z</time>
      </trkpt>
      <trkpt lat="46.05899" lon="4.77753">
        <ele>209</ele>
        <time>2018-08-08T09:10:07Z</time>
      </trkpt>
      <trkpt lat="46.059" lon="4.7776">
        <ele>209</ele>
        <time>2018-08-08T09:10:08Z</time>
      </trkpt>
      <trkpt lat="46.05903" lon="4.77767">
        <ele>209</ele>
        <time>2018-08-08T09:10:09Z</time>
      </trkpt>
      <trkpt lat="46.05905" lon="4.77773">
        <ele>210</ele>
        <time>2018-08-08T09:10:10Z</time>
      </trkpt>
      <trkpt lat="46.05908" lon="4.77779">
        <ele>210</ele>
        <time>2018-08-08T09:10:11Z</time>
      </trkpt>
      <trkpt lat="46.05912" lon="4.77788">
        <ele>210</ele>
        <time>2018-08-08T09:10:13Z</time>
      </trkpt>
      <trkpt lat="46.05912" lon="4.7779">
        <ele>210</ele>
        <time>2018-08-08T09:10:14Z</time>
      </trkpt>
      <trkpt lat="46.05916" lon="4.77797">
        <ele>210</ele>
        <time>2018-08-08T09:10:15Z</time>
      </trkpt>
      <trkpt lat="46.05918" lon="4.77802">
        <ele>210</ele>
        <time>2018-08-08T09:10:16Z</time>
      </trkpt>
      <trkpt lat="46.05924" lon="4.77809">
        <ele>210</ele>
        <time>2018-08-08T09:10:18Z</time>
      </trkpt>
      <trkpt lat="46.05927" lon="4.77815">
        <ele>210</ele>
        <time>2018-08-08T09:10:19Z</time>
      </trkpt>
      <trkpt lat="46.05932" lon="4.77824">
        <ele>210</ele>
        <time>2018-08-08T09:10:21Z</time>
      </trkpt>
      <trkpt lat="46.05933" lon="4.7783">
        <ele>210</ele>
        <time>2018-08-08T09:10:22Z</time>
      </trkpt>
      <trkpt lat="46.05937" lon="4.77835">
        <ele>211</ele>
        <time>2018-08-08T09:10:23Z</time>
      </trkpt>
      <trkpt lat="46.05941" lon="4.77841">
        <ele>211</ele>
        <time>2018-08-08T09:10:24Z</time>
      </trkpt>
      <trkpt lat="46.05946" lon="4.77849">
        <ele>211</ele>
        <time>2018-08-08T09:10:26Z</time>
      </trkpt>
      <trkpt lat="46.05949" lon="4.77853">
        <ele>211</ele>
        <time>2018-08-08T09:10:27Z</time>
      </trkpt>
      <trkpt lat="46.05955" lon="4.77861">
        <ele>211</ele>
        <time>2018-08-08T09:10:29Z</time>
      </trkpt>
      <trkpt lat="46.05958" lon="4.77865">
        <ele>211</ele>
        <time>2018-08-08T09:10:30Z</time>
      </trkpt>
      <trkpt lat="46.05962" lon="4.77868">
        <ele>211</ele>
        <time>2018-08-08T09:10:31Z</time>
      </trkpt>
      <trkpt lat="46.05965" lon="4.77874">
        <ele>211</ele>
        <time>2018-08-08T09:10:32Z</time>
      </trkpt>
      <trkpt lat="46.05969" lon="4.77884">
        <ele>211</ele>
        <time>2018-08-08T09:10:34Z</time>
      </trkpt>
      <trkpt lat="46.05973" lon="4.77891">
        <ele>211</ele>
        <time>2018-08-08T09:10:35Z</time>
      </trkpt>
      <trkpt lat="46.05974" lon="4.77895">
        <ele>211</ele>
        <time>2018-08-08T09:10:37Z</time>
      </trkpt>
      <trkpt lat="46.05977" lon="4.77904">
        <ele>211</ele>
        <time>2018-08-08T09:10:38Z</time>
      </trkpt>
      <trkpt lat="46.0598" lon="4.77911">
        <ele>211</ele>
        <time>2018-08-08T09:10:39Z</time>
      </trkpt>
      <trkpt lat="46.05981" lon="4.77916">
        <ele>211</ele>
        <time>2018-08-08T09:10:40Z</time>
      </trkpt>
      <trkpt lat="46.0598" lon="4.77924">
        <ele>212</ele>
        <time>2018-08-08T09:10:41Z</time>
      </trkpt>
      <trkpt lat="46.05979" lon="4.77931">
        <ele>212</ele>
        <time>2018-08-08T09:10:42Z</time>
      </trkpt>
      <trkpt lat="46.05982" lon="4.77942">
        <ele>212</ele>
        <time>2018-08-08T09:10:44Z</time>
      </trkpt>
      <trkpt lat="46.05986" lon="4.77947">
        <ele>212</ele>
        <time>2018-08-08T09:10:45Z</time>
      </trkpt>
      <trkpt lat="46.05988" lon="4.77954">
        <ele>212</ele>
        <time>2018-08-08T09:10:46Z</time>
      </trkpt>
      <trkpt lat="46.05996" lon="4.77956">
        <ele>212</ele>
        <time>2018-08-08T09:10:47Z</time>
      </trkpt>
      <trkpt lat="46.06002" lon="4.77965">
        <ele>211</ele>
        <time>2018-08-08T09:10:49Z</time>
      </trkpt>
      <trkpt lat="46.06007" lon="4.77967">
        <ele>211</ele>
        <time>2018-08-08T09:10:50Z</time>
      </trkpt>
      <trkpt lat="46.06012" lon="4.77969">
        <ele>211</ele>
        <time>2018-08-08T09:10:51Z</time>
      </trkpt>
      <trkpt lat="46.06017" lon="4.77973">
        <ele>211</ele>
        <time>2018-08-08T09:10:52Z</time>
      </trkpt>
      <trkpt lat="46.06021" lon="4.77975">
        <ele>211</ele>
        <time>2018-08-08T09:10:53Z</time>
      </trkpt>
      <trkpt lat="46.06025" lon="4.7798">
        <ele>211</ele>
        <time>2018-08-08T09:10:54Z</time>
      </trkpt>
      <trkpt lat="46.06027" lon="4.77984">
        <ele>211</ele>
        <time>2018-08-08T09:10:55Z</time>
      </trkpt>
      <trkpt lat="46.06032" lon="4.77988">
        <ele>211</ele>
        <time>2018-08-08T09:10:56Z</time>
      </trkpt>
      <trkpt lat="46.06035" lon="4.77993">
        <ele>211</ele>
        <time>2018-08-08T09:10:57Z</time>
      </trkpt>
      <trkpt lat="46.06038" lon="4.77998">
        <ele>211</ele>
        <time>2018-08-08T09:10:58Z</time>
      </trkpt>
      <trkpt lat="46.06041" lon="4.78004">
        <ele>211</ele>
        <time>2018-08-08T09:10:59Z</time>
      </trkpt>
      <trkpt lat="46.06045" lon="4.7801">
        <ele>211</ele>
        <time>2018-08-08T09:11:00Z</time>
      </trkpt>
      <trkpt lat="46.06049" lon="4.78016">
        <ele>211</ele>
        <time>2018-08-08T09:11:01Z</time>
      </trkpt>
      <trkpt lat="46.06053" lon="4.78022">
        <ele>211</ele>
        <time>2018-08-08T09:11:02Z</time>
      </trkpt>
      <trkpt lat="46.06057" lon="4.78028">
        <ele>211</ele>
        <time>2018-08-08T09:11:03Z</time>
      </trkpt>
      <trkpt lat="46.06063" lon="4.78031">
        <ele>211</ele>
        <time>2018-08-08T09:11:04Z</time>
      </trkpt>
      <trkpt lat="46.06068" lon="4.78036">
        <ele>211</ele>
        <time>2018-08-08T09:11:05Z</time>
      </trkpt>
      <trkpt lat="46.06072" lon="4.78039">
        <ele>211</ele>
        <time>2018-08-08T09:11:06Z</time>
      </trkpt>
      <trkpt lat="46.06076" lon="4.78043">
        <ele>211</ele>
        <time>2018-08-08T09:11:07Z</time>
      </trkpt>
      <trkpt lat="46.06081" lon="4.78046">
        <ele>211</ele>
        <time>2018-08-08T09:11:08Z</time>
      </trkpt>
      <trkpt lat="46.06085" lon="4.78049">
        <ele>210</ele>
        <time>2018-08-08T09:11:09Z</time>
      </trkpt>
      <trkpt lat="46.06089" lon="4.78052">
        <ele>210</ele>
        <time>2018-08-08T09:11:10Z</time>
      </trkpt>
      <trkpt lat="46.06094" lon="4.78061">
        <ele>210</ele>
        <time>2018-08-08T09:11:12Z</time>
      </trkpt>
      <trkpt lat="46.06097" lon="4.78065">
        <ele>210</ele>
        <time>2018-08-08T09:11:13Z</time>
      </trkpt>
      <trkpt lat="46.06101" lon="4.78069">
        <ele>210</ele>
        <time>2018-08-08T09:11:14Z</time>
      </trkpt>
      <trkpt lat="46.06104" lon="4.78074">
        <ele>210</ele>
        <time>2018-08-08T09:11:15Z</time>
      </trkpt>
      <trkpt lat="46.0611" lon="4.78083">
        <ele>210</ele>
        <time>2018-08-08T09:11:17Z</time>
      </trkpt>
      <trkpt lat="46.06118" lon="4.78088">
        <ele>209</ele>
        <time>2018-08-08T09:11:18Z</time>
      </trkpt>
      <trkpt lat="46.06126" lon="4.78092">
        <ele>209</ele>
        <time>2018-08-08T09:11:19Z</time>
      </trkpt>
      <trkpt lat="46.06131" lon="4.78101">
        <ele>209</ele>
        <time>2018-08-08T09:11:21Z</time>
      </trkpt>
      <trkpt lat="46.06137" lon="4.78107">
        <ele>208</ele>
        <time>2018-08-08T09:11:22Z</time>
      </trkpt>
      <trkpt lat="46.06142" lon="4.78114">
        <ele>208</ele>
        <time>2018-08-08T09:11:23Z</time>
      </trkpt>
      <trkpt lat="46.06147" lon="4.78118">
        <ele>208</ele>
        <time>2018-08-08T09:11:24Z</time>
      </trkpt>
      <trkpt lat="46.06153" lon="4.78124">
        <ele>208</ele>
        <time>2018-08-08T09:11:25Z</time>
      </trkpt>
      <trkpt lat="46.06159" lon="4.78129">
        <ele>208</ele>
        <time>2018-08-08T09:11:26Z</time>
      </trkpt>
      <trkpt lat="46.06165" lon="4.78136">
        <ele>208</ele>
        <time>2018-08-08T09:11:27Z</time>
      </trkpt>
      <trkpt lat="46.06173" lon="4.78138">
        <ele>206</ele>
        <time>2018-08-08T09:11:28Z</time>
      </trkpt>
      <trkpt lat="46.06182" lon="4.78143">
        <ele>206</ele>
        <time>2018-08-08T09:11:29Z</time>
      </trkpt>
      <trkpt lat="46.06191" lon="4.78149">
        <ele>206</ele>
        <time>2018-08-08T09:11:30Z</time>
      </trkpt>
      <trkpt lat="46.06198" lon="4.78155">
        <ele>205</ele>
        <time>2018-08-08T09:11:31Z</time>
      </trkpt>
      <trkpt lat="46.06204" lon="4.78161">
        <ele>205</ele>
        <time>2018-08-08T09:11:32Z</time>
      </trkpt>
      <trkpt lat="46.0621" lon="4.78168">
        <ele>207</ele>
        <time>2018-08-08T09:11:33Z</time>
      </trkpt>
      <trkpt lat="46.06216" lon="4.78173">
        <ele>207</ele>
        <time>2018-08-08T09:11:34Z</time>
      </trkpt>
      <trkpt lat="46.06224" lon="4.78177">
        <ele>206</ele>
        <time>2018-08-08T09:11:35Z</time>
      </trkpt>
      <trkpt lat="46.0623" lon="4.7818">
        <ele>206</ele>
        <time>2018-08-08T09:11:36Z</time>
      </trkpt>
      <trkpt lat="46.06236" lon="4.78184">
        <ele>206</ele>
        <time>2018-08-08T09:11:37Z</time>
      </trkpt>
      <trkpt lat="46.06243" lon="4.78187">
        <ele>206</ele>
        <time>2018-08-08T09:11:38Z</time>
      </trkpt>
      <trkpt lat="46.0625" lon="4.78193">
        <ele>206</ele>
        <time>2018-08-08T09:11:39Z</time>
      </trkpt>
      <trkpt lat="46.06255" lon="4.78197">
        <ele>205</ele>
        <time>2018-08-08T09:11:40Z</time>
      </trkpt>
      <trkpt lat="46.06261" lon="4.78202">
        <ele>205</ele>
        <time>2018-08-08T09:11:41Z</time>
      </trkpt>
      <trkpt lat="46.06268" lon="4.78205">
        <ele>205</ele>
        <time>2018-08-08T09:11:42Z</time>
      </trkpt>
      <trkpt lat="46.06273" lon="4.78208">
        <ele>206</ele>
        <time>2018-08-08T09:11:43Z</time>
      </trkpt>
      <trkpt lat="46.06279" lon="4.78211">
        <ele>205</ele>
        <time>2018-08-08T09:11:44Z</time>
      </trkpt>
      <trkpt lat="46.06284" lon="4.78214">
        <ele>205</ele>
        <time>2018-08-08T09:11:45Z</time>
      </trkpt>
      <trkpt lat="46.06289" lon="4.78217">
        <ele>205</ele>
        <time>2018-08-08T09:11:46Z</time>
      </trkpt>
      <trkpt lat="46.06295" lon="4.78222">
        <ele>205</ele>
        <time>2018-08-08T09:11:47Z</time>
      </trkpt>
      <trkpt lat="46.063" lon="4.78226">
        <ele>205</ele>
        <time>2018-08-08T09:11:48Z</time>
      </trkpt>
      <trkpt lat="46.06306" lon="4.78232">
        <ele>206</ele>
        <time>2018-08-08T09:11:49Z</time>
      </trkpt>
      <trkpt lat="46.06313" lon="4.78234">
        <ele>206</ele>
        <time>2018-08-08T09:11:50Z</time>
      </trkpt>
      <trkpt lat="46.06318" lon="4.78235">
        <ele>206</ele>
        <time>2018-08-08T09:11:51Z</time>
      </trkpt>
      <trkpt lat="46.06324" lon="4.78239">
        <ele>206</ele>
        <time>2018-08-08T09:11:52Z</time>
      </trkpt>
      <trkpt lat="46.06329" lon="4.78241">
        <ele>206</ele>
        <time>2018-08-08T09:11:53Z</time>
      </trkpt>
      <trkpt lat="46.06334" lon="4.78243">
        <ele>206</ele>
        <time>2018-08-08T09:11:54Z</time>
      </trkpt>
      <trkpt lat="46.06343" lon="4.78243">
        <ele>205</ele>
        <time>2018-08-08T09:11:56Z</time>
      </trkpt>
      <trkpt lat="46.06346" lon="4.78243">
        <ele>205</ele>
        <time>2018-08-08T09:11:57Z</time>
      </trkpt>
      <trkpt lat="46.06354" lon="4.7824">
        <ele>205</ele>
        <time>2018-08-08T09:11:59Z</time>
      </trkpt>
      <trkpt lat="46.06357" lon="4.78236">
        <ele>205</ele>
        <time>2018-08-08T09:12:00Z</time>
      </trkpt>
      <trkpt lat="46.06361" lon="4.78232">
        <ele>205</ele>
        <time>2018-08-08T09:12:01Z</time>
      </trkpt>
      <trkpt lat="46.06366" lon="4.78225">
        <ele>205</ele>
        <time>2018-08-08T09:12:02Z</time>
      </trkpt>
      <trkpt lat="46.06371" lon="4.78216">
        <ele>204</ele>
        <time>2018-08-08T09:12:04Z</time>
      </trkpt>
      <trkpt lat="46.06377" lon="4.7821">
        <ele>204</ele>
        <time>2018-08-08T09:12:05Z</time>
      </trkpt>
      <trkpt lat="46.06384" lon="4.78207">
        <ele>204</ele>
        <time>2018-08-08T09:12:06Z</time>
      </trkpt>
      <trkpt lat="46.06388" lon="4.782">
        <ele>204</ele>
        <time>2018-08-08T09:12:07Z</time>
      </trkpt>
      <trkpt lat="46.06394" lon="4.7819">
        <ele>204</ele>
        <time>2018-08-08T09:12:08Z</time>
      </trkpt>
      <trkpt lat="46.06398" lon="4.78184">
        <ele>204</ele>
        <time>2018-08-08T09:12:09Z</time>
      </trkpt>
      <trkpt lat="46.06397" lon="4.78172">
        <ele>204</ele>
        <time>2018-08-08T09:12:10Z</time>
      </trkpt>
      <trkpt lat="46.06401" lon="4.78161">
        <ele>202</ele>
        <time>2018-08-08T09:12:11Z</time>
      </trkpt>
      <trkpt lat="46.06397" lon="4.7815">
        <ele>201</ele>
        <time>2018-08-08T09:12:12Z</time>
      </trkpt>
      <trkpt lat="46.06396" lon="4.78138">
        <ele>201</ele>
        <time>2018-08-08T09:12:13Z</time>
      </trkpt>
      <trkpt lat="46.06388" lon="4.78127">
        <ele>201</ele>
        <time>2018-08-08T09:12:14Z</time>
      </trkpt>
      <trkpt lat="46.06388" lon="4.78117">
        <ele>200</ele>
        <time>2018-08-08T09:12:15Z</time>
      </trkpt>
      <trkpt lat="46.06389" lon="4.78106">
        <ele>200</ele>
        <time>2018-08-08T09:12:16Z</time>
      </trkpt>
      <trkpt lat="46.06392" lon="4.781">
        <ele>200</ele>
        <time>2018-08-08T09:12:17Z</time>
      </trkpt>
      <trkpt lat="46.06392" lon="4.7809">
        <ele>200</ele>
        <time>2018-08-08T09:12:18Z</time>
      </trkpt>
      <trkpt lat="46.06395" lon="4.78081">
        <ele>198</ele>
        <time>2018-08-08T09:12:19Z</time>
      </trkpt>
      <trkpt lat="46.064" lon="4.78076">
        <ele>198</ele>
        <time>2018-08-08T09:12:20Z</time>
      </trkpt>
      <trkpt lat="46.06402" lon="4.78068">
        <ele>198</ele>
        <time>2018-08-08T09:12:21Z</time>
      </trkpt>
      <trkpt lat="46.06406" lon="4.78059">
        <ele>198</ele>
        <time>2018-08-08T09:12:22Z</time>
      </trkpt>
      <trkpt lat="46.06411" lon="4.78053">
        <ele>198</ele>
        <time>2018-08-08T09:12:23Z</time>
      </trkpt>
      <trkpt lat="46.06414" lon="4.78048">
        <ele>197</ele>
        <time>2018-08-08T09:12:24Z</time>
      </trkpt>
      <trkpt lat="46.0642" lon="4.78043">
        <ele>198</ele>
        <time>2018-08-08T09:12:25Z</time>
      </trkpt>
      <trkpt lat="46.06424" lon="4.78038">
        <ele>198</ele>
        <time>2018-08-08T09:12:26Z</time>
      </trkpt>
      <trkpt lat="46.06429" lon="4.78033">
        <ele>198</ele>
        <time>2018-08-08T09:12:27Z</time>
      </trkpt>
      <trkpt lat="46.06433" lon="4.78026">
        <ele>198</ele>
        <time>2018-08-08T09:12:28Z</time>
      </trkpt>
      <trkpt lat="46.06437" lon="4.78018">
        <ele>197</ele>
        <time>2018-08-08T09:12:29Z</time>
      </trkpt>
      <trkpt lat="46.06439" lon="4.78009">
        <ele>197</ele>
        <time>2018-08-08T09:12:30Z</time>
      </trkpt>
      <trkpt lat="46.06441" lon="4.78">
        <ele>195</ele>
        <time>2018-08-08T09:12:31Z</time>
      </trkpt>
      <trkpt lat="46.06442" lon="4.77991">
        <ele>195</ele>
        <time>2018-08-08T09:12:32Z</time>
      </trkpt>
      <trkpt lat="46.06444" lon="4.77981">
        <ele>195</ele>
        <time>2018-08-08T09:12:33Z</time>
      </trkpt>
      <trkpt lat="46.06446" lon="4.77971">
        <ele>195</ele>
        <time>2018-08-08T09:12:34Z</time>
      </trkpt>
      <trkpt lat="46.06449" lon="4.77961">
        <ele>195</ele>
        <time>2018-08-08T09:12:35Z</time>
      </trkpt>
      <trkpt lat="46.06452" lon="4.77951">
        <ele>195</ele>
        <time>2018-08-08T09:12:36Z</time>
      </trkpt>
      <trkpt lat="46.06456" lon="4.77941">
        <ele>195</ele>
        <time>2018-08-08T09:12:37Z</time>
      </trkpt>
      <trkpt lat="46.06459" lon="4.77931">
        <ele>195</ele>
        <time>2018-08-08T09:12:38Z</time>
      </trkpt>
      <trkpt lat="46.06462" lon="4.7792">
        <ele>194</ele>
        <time>2018-08-08T09:12:39Z</time>
      </trkpt>
      <trkpt lat="46.06465" lon="4.7791">
        <ele>193</ele>
        <time>2018-08-08T09:12:40Z</time>
      </trkpt>
      <trkpt lat="46.06469" lon="4.77898">
        <ele>193</ele>
        <time>2018-08-08T09:12:41Z</time>
      </trkpt>
      <trkpt lat="46.06473" lon="4.77887">
        <ele>193</ele>
        <time>2018-08-08T09:12:42Z</time>
      </trkpt>
      <trkpt lat="46.06477" lon="4.77875">
        <ele>193</ele>
        <time>2018-08-08T09:12:43Z</time>
      </trkpt>
      <trkpt lat="46.06481" lon="4.77863">
        <ele>192</ele>
        <time>2018-08-08T09:12:44Z</time>
      </trkpt>
      <trkpt lat="46.06486" lon="4.77852">
        <ele>192</ele>
        <time>2018-08-08T09:12:45Z</time>
      </trkpt>
      <trkpt lat="46.0649" lon="4.77841">
        <ele>192</ele>
        <time>2018-08-08T09:12:46Z</time>
      </trkpt>
      <trkpt lat="46.06495" lon="4.77829">
        <ele>192</ele>
        <time>2018-08-08T09:12:47Z</time>
      </trkpt>
      <trkpt lat="46.065" lon="4.77819">
        <ele>192</ele>
        <time>2018-08-08T09:12:48Z</time>
      </trkpt>
      <trkpt lat="46.06505" lon="4.77808">
        <ele>192</ele>
        <time>2018-08-08T09:12:49Z</time>
      </trkpt>
      <trkpt lat="46.06511" lon="4.77798">
        <ele>192</ele>
        <time>2018-08-08T09:12:50Z</time>
      </trkpt>
      <trkpt lat="46.06516" lon="4.77784">
        <ele>192</ele>
        <time>2018-08-08T09:12:51Z</time>
      </trkpt>
      <trkpt lat="46.06522" lon="4.77774">
        <ele>192</ele>
        <time>2018-08-08T09:12:52Z</time>
      </trkpt>
      <trkpt lat="46.06528" lon="4.77765">
        <ele>192</ele>
        <time>2018-08-08T09:12:53Z</time>
      </trkpt>
      <trkpt lat="46.06533" lon="4.77754">
        <ele>191</ele>
        <time>2018-08-08T09:12:54Z</time>
      </trkpt>
      <trkpt lat="46.06537" lon="4.77744">
        <ele>190</ele>
        <time>2018-08-08T09:12:55Z</time>
      </trkpt>
      <trkpt lat="46.06543" lon="4.77735">
        <ele>190</ele>
        <time>2018-08-08T09:12:56Z</time>
      </trkpt>
      <trkpt lat="46.06548" lon="4.77725">
        <ele>189</ele>
        <time>2018-08-08T09:12:57Z</time>
      </trkpt>
      <trkpt lat="46.06554" lon="4.77715">
        <ele>189</ele>
        <time>2018-08-08T09:12:58Z</time>
      </trkpt>
      <trkpt lat="46.06561" lon="4.77707">
        <ele>189</ele>
        <time>2018-08-08T09:12:59Z</time>
      </trkpt>
      <trkpt lat="46.06568" lon="4.777">
        <ele>189</ele>
        <time>2018-08-08T09:13:00Z</time>
      </trkpt>
      <trkpt lat="46.06575" lon="4.77676">
        <ele>187</ele>
        <time>2018-08-08T09:13:01Z</time>
      </trkpt>
      <trkpt lat="46.06583" lon="4.77683">
        <ele>188</ele>
        <time>2018-08-08T09:13:02Z</time>
      </trkpt>
      <trkpt lat="46.06587" lon="4.77672">
        <ele>186</ele>
        <time>2018-08-08T09:13:03Z</time>
      </trkpt>
      <trkpt lat="46.06594" lon="4.77672">
        <ele>187</ele>
        <time>2018-08-08T09:13:04Z</time>
      </trkpt>
      <trkpt lat="46.06601" lon="4.77668">
        <ele>187</ele>
        <time>2018-08-08T09:13:05Z</time>
      </trkpt>
      <trkpt lat="46.06609" lon="4.77666">
        <ele>185</ele>
        <time>2018-08-08T09:13:06Z</time>
      </trkpt>
      <trkpt lat="46.06617" lon="4.7766">
        <ele>185</ele>
        <time>2018-08-08T09:13:07Z</time>
      </trkpt>
      <trkpt lat="46.06622" lon="4.77653">
        <ele>185</ele>
        <time>2018-08-08T09:13:08Z</time>
      </trkpt>
      <trkpt lat="46.06626" lon="4.77645">
        <ele>185</ele>
        <time>2018-08-08T09:13:09Z</time>
      </trkpt>
      <trkpt lat="46.06627" lon="4.77631">
        <ele>185</ele>
        <time>2018-08-08T09:13:10Z</time>
      </trkpt>
      <trkpt lat="46.0663" lon="4.77621">
        <ele>185</ele>
        <time>2018-08-08T09:13:11Z</time>
      </trkpt>
      <trkpt lat="46.0663" lon="4.77608">
        <ele>185</ele>
        <time>2018-08-08T09:13:12Z</time>
      </trkpt>
      <trkpt lat="46.06631" lon="4.77597">
        <ele>185</ele>
        <time>2018-08-08T09:13:13Z</time>
      </trkpt>
      <trkpt lat="46.06631" lon="4.77583">
        <ele>183</ele>
        <time>2018-08-08T09:13:14Z</time>
      </trkpt>
      <trkpt lat="46.06632" lon="4.77572">
        <ele>183</ele>
        <time>2018-08-08T09:13:15Z</time>
      </trkpt>
      <trkpt lat="46.06633" lon="4.77559">
        <ele>183</ele>
        <time>2018-08-08T09:13:16Z</time>
      </trkpt>
      <trkpt lat="46.06635" lon="4.77549">
        <ele>183</ele>
        <time>2018-08-08T09:13:17Z</time>
      </trkpt>
      <trkpt lat="46.0663" lon="4.77533">
        <ele>182</ele>
        <time>2018-08-08T09:13:18Z</time>
      </trkpt>
      <trkpt lat="46.06624" lon="4.77519">
        <ele>182</ele>
        <time>2018-08-08T09:13:19Z</time>
      </trkpt>
      <trkpt lat="46.06617" lon="4.77507">
        <ele>183</ele>
        <time>2018-08-08T09:13:20Z</time>
      </trkpt>
      <trkpt lat="46.06614" lon="4.77494">
        <ele>181</ele>
        <time>2018-08-08T09:13:21Z</time>
      </trkpt>
      <trkpt lat="46.06606" lon="4.77485">
        <ele>181</ele>
        <time>2018-08-08T09:13:22Z</time>
      </trkpt>
      <trkpt lat="46.066" lon="4.77474">
        <ele>181</ele>
        <time>2018-08-08T09:13:23Z</time>
      </trkpt>
      <trkpt lat="46.06597" lon="4.77463">
        <ele>180</ele>
        <time>2018-08-08T09:13:24Z</time>
      </trkpt>
      <trkpt lat="46.06596" lon="4.77452">
        <ele>180</ele>
        <time>2018-08-08T09:13:25Z</time>
      </trkpt>
      <trkpt lat="46.06595" lon="4.77444">
        <ele>180</ele>
        <time>2018-08-08T09:13:26Z</time>
      </trkpt>
      <trkpt lat="46.06594" lon="4.77434">
        <ele>179</ele>
        <time>2018-08-08T09:13:27Z</time>
      </trkpt>
      <trkpt lat="46.06594" lon="4.77424">
        <ele>179</ele>
        <time>2018-08-08T09:13:28Z</time>
      </trkpt>
      <trkpt lat="46.06603" lon="4.77415">
        <ele>177</ele>
        <time>2018-08-08T09:13:29Z</time>
      </trkpt>
      <trkpt lat="46.06607" lon="4.77405">
        <ele>177</ele>
        <time>2018-08-08T09:13:30Z</time>
      </trkpt>
      <trkpt lat="46.0661" lon="4.77394">
        <ele>177</ele>
        <time>2018-08-08T09:13:31Z</time>
      </trkpt>
      <trkpt lat="46.06615" lon="4.77386">
        <ele>177</ele>
        <time>2018-08-08T09:13:32Z</time>
      </trkpt>
      <trkpt lat="46.06624" lon="4.77375">
        <ele>176</ele>
        <time>2018-08-08T09:13:33Z</time>
      </trkpt>
      <trkpt lat="46.06629" lon="4.77366">
        <ele>176</ele>
        <time>2018-08-08T09:13:34Z</time>
      </trkpt>
      <trkpt lat="46.06633" lon="4.77357">
        <ele>176</ele>
        <time>2018-08-08T09:13:35Z</time>
      </trkpt>
      <trkpt lat="46.06637" lon="4.77347">
        <ele>176</ele>
        <time>2018-08-08T09:13:36Z</time>
      </trkpt>
      <trkpt lat="46.06641" lon="4.77337">
        <ele>175</ele>
        <time>2018-08-08T09:13:37Z</time>
      </trkpt>
      <trkpt lat="46.06645" lon="4.77328">
        <ele>174</ele>
        <time>2018-08-08T09:13:38Z</time>
      </trkpt>
      <trkpt lat="46.06648" lon="4.7732">
        <ele>174</ele>
        <time>2018-08-08T09:13:39Z</time>
      </trkpt>
      <trkpt lat="46.06651" lon="4.77312">
        <ele>174</ele>
        <time>2018-08-08T09:13:40Z</time>
      </trkpt>
      <trkpt lat="46.06654" lon="4.77304">
        <ele>174</ele>
        <time>2018-08-08T09:13:41Z</time>
      </trkpt>
      <trkpt lat="46.06657" lon="4.77296">
        <ele>174</ele>
        <time>2018-08-08T09:13:42Z</time>
      </trkpt>
      <trkpt lat="46.0666" lon="4.77288">
        <ele>174</ele>
        <time>2018-08-08T09:13:43Z</time>
      </trkpt>
      <trkpt lat="46.06663" lon="4.77281">
        <ele>174</ele>
        <time>2018-08-08T09:13:44Z</time>
      </trkpt>
      <trkpt lat="46.06666" lon="4.77272">
        <ele>174</ele>
        <time>2018-08-08T09:13:45Z</time>
      </trkpt>
      <trkpt lat="46.06669" lon="4.77264">
        <ele>173</ele>
        <time>2018-08-08T09:13:46Z</time>
      </trkpt>
      <trkpt lat="46.06673" lon="4.77255">
        <ele>173</ele>
        <time>2018-08-08T09:13:47Z</time>
      </trkpt>
      <trkpt lat="46.06675" lon="4.77248">
        <ele>173</ele>
        <time>2018-08-08T09:13:48Z</time>
      </trkpt>
      <trkpt lat="46.06678" lon="4.7724">
        <ele>173</ele>
        <time>2018-08-08T09:13:49Z</time>
      </trkpt>
      <trkpt lat="46.0668" lon="4.77231">
        <ele>172</ele>
        <time>2018-08-08T09:13:50Z</time>
      </trkpt>
      <trkpt lat="46.06683" lon="4.77222">
        <ele>172</ele>
        <time>2018-08-08T09:13:51Z</time>
      </trkpt>
      <trkpt lat="46.06686" lon="4.77215">
        <ele>172</ele>
        <time>2018-08-08T09:13:52Z</time>
      </trkpt>
      <trkpt lat="46.06689" lon="4.77208">
        <ele>172</ele>
        <time>2018-08-08T09:13:53Z</time>
      </trkpt>
      <trkpt lat="46.06694" lon="4.77204">
        <ele>172</ele>
        <time>2018-08-08T09:13:54Z</time>
      </trkpt>
      <trkpt lat="46.06698" lon="4.77202">
        <ele>172</ele>
        <time>2018-08-08T09:13:55Z</time>
      </trkpt>
      <trkpt lat="46.06704" lon="4.77201">
        <ele>172</ele>
        <time>2018-08-08T09:13:56Z</time>
      </trkpt>
      <trkpt lat="46.06709" lon="4.772">
        <ele>172</ele>
        <time>2018-08-08T09:13:57Z</time>
      </trkpt>
      <trkpt lat="46.06714" lon="4.77199">
        <ele>172</ele>
        <time>2018-08-08T09:13:58Z</time>
      </trkpt>
      <trkpt lat="46.06719" lon="4.77197">
        <ele>172</ele>
        <time>2018-08-08T09:13:59Z</time>
      </trkpt>
      <trkpt lat="46.06724" lon="4.77195">
        <ele>172</ele>
        <time>2018-08-08T09:14:00Z</time>
      </trkpt>
      <trkpt lat="46.06729" lon="4.77193">
        <ele>172</ele>
        <time>2018-08-08T09:14:01Z</time>
      </trkpt>
      <trkpt lat="46.06733" lon="4.7719">
        <ele>172</ele>
        <time>2018-08-08T09:14:02Z</time>
      </trkpt>
      <trkpt lat="46.06738" lon="4.77187">
        <ele>172</ele>
        <time>2018-08-08T09:14:03Z</time>
      </trkpt>
      <trkpt lat="46.06743" lon="4.77181">
        <ele>172</ele>
        <time>2018-08-08T09:14:04Z</time>
      </trkpt>
      <trkpt lat="46.06748" lon="4.77178">
        <ele>172</ele>
        <time>2018-08-08T09:14:05Z</time>
      </trkpt>
      <trkpt lat="46.06752" lon="4.77175">
        <ele>172</ele>
        <time>2018-08-08T09:14:06Z</time>
      </trkpt>
      <trkpt lat="46.06757" lon="4.7717">
        <ele>172</ele>
        <time>2018-08-08T09:14:07Z</time>
      </trkpt>
      <trkpt lat="46.06764" lon="4.77166">
        <ele>172</ele>
        <time>2018-08-08T09:14:09Z</time>
      </trkpt>
      <trkpt lat="46.06768" lon="4.7716">
        <ele>172</ele>
        <time>2018-08-08T09:14:10Z</time>
      </trkpt>
      <trkpt lat="46.06772" lon="4.77158">
        <ele>172</ele>
        <time>2018-08-08T09:14:11Z</time>
      </trkpt>
      <trkpt lat="46.06776" lon="4.77153">
        <ele>172</ele>
        <time>2018-08-08T09:14:12Z</time>
      </trkpt>
      <trkpt lat="46.0678" lon="4.77149">
        <ele>172</ele>
        <time>2018-08-08T09:14:13Z</time>
      </trkpt>
      <trkpt lat="46.06785" lon="4.77138">
        <ele>172</ele>
        <time>2018-08-08T09:14:14Z</time>
      </trkpt>
      <trkpt lat="46.06787" lon="4.77132">
        <ele>172</ele>
        <time>2018-08-08T09:14:15Z</time>
      </trkpt>
      <trkpt lat="46.06791" lon="4.77128">
        <ele>172</ele>
        <time>2018-08-08T09:14:16Z</time>
      </trkpt>
      <trkpt lat="46.06796" lon="4.77125">
        <ele>172</ele>
        <time>2018-08-08T09:14:17Z</time>
      </trkpt>
      <trkpt lat="46.06801" lon="4.7712">
        <ele>172</ele>
        <time>2018-08-08T09:14:18Z</time>
      </trkpt>
      <trkpt lat="46.06807" lon="4.77114">
        <ele>172</ele>
        <time>2018-08-08T09:14:19Z</time>
      </trkpt>
      <trkpt lat="46.06812" lon="4.77112">
        <ele>172</ele>
        <time>2018-08-08T09:14:20Z</time>
      </trkpt>
      <trkpt lat="46.06816" lon="4.77108">
        <ele>172</ele>
        <time>2018-08-08T09:14:21Z</time>
      </trkpt>
      <trkpt lat="46.06822" lon="4.77104">
        <ele>173</ele>
        <time>2018-08-08T09:14:22Z</time>
      </trkpt>
      <trkpt lat="46.06827" lon="4.77101">
        <ele>173</ele>
        <time>2018-08-08T09:14:23Z</time>
      </trkpt>
      <trkpt lat="46.06833" lon="4.77097">
        <ele>173</ele>
        <time>2018-08-08T09:14:24Z</time>
      </trkpt>
      <trkpt lat="46.06837" lon="4.77093">
        <ele>173</ele>
        <time>2018-08-08T09:14:25Z</time>
      </trkpt>
      <trkpt lat="46.06843" lon="4.7709">
        <ele>173</ele>
        <time>2018-08-08T09:14:26Z</time>
      </trkpt>
      <trkpt lat="46.06849" lon="4.77088">
        <ele>173</ele>
        <time>2018-08-08T09:14:27Z</time>
      </trkpt>
      <trkpt lat="46.06855" lon="4.77084">
        <ele>173</ele>
        <time>2018-08-08T09:14:28Z</time>
      </trkpt>
      <trkpt lat="46.06861" lon="4.77083">
        <ele>173</ele>
        <time>2018-08-08T09:14:29Z</time>
      </trkpt>
      <trkpt lat="46.06867" lon="4.7708">
        <ele>173</ele>
        <time>2018-08-08T09:14:30Z</time>
      </trkpt>
      <trkpt lat="46.06873" lon="4.77081">
        <ele>173</ele>
        <time>2018-08-08T09:14:31Z</time>
      </trkpt>
      <trkpt lat="46.06879" lon="4.77077">
        <ele>173</ele>
        <time>2018-08-08T09:14:32Z</time>
      </trkpt>
      <trkpt lat="46.06885" lon="4.77077">
        <ele>173</ele>
        <time>2018-08-08T09:14:33Z</time>
      </trkpt>
      <trkpt lat="46.06891" lon="4.77078">
        <ele>173</ele>
        <time>2018-08-08T09:14:34Z</time>
      </trkpt>
      <trkpt lat="46.06896" lon="4.77076">
        <ele>173</ele>
        <time>2018-08-08T09:14:35Z</time>
      </trkpt>
      <trkpt lat="46.06901" lon="4.77074">
        <ele>173</ele>
        <time>2018-08-08T09:14:36Z</time>
      </trkpt>
      <trkpt lat="46.06907" lon="4.77075">
        <ele>173</ele>
        <time>2018-08-08T09:14:37Z</time>
      </trkpt>
      <trkpt lat="46.06914" lon="4.77073">
        <ele>173</ele>
        <time>2018-08-08T09:14:38Z</time>
      </trkpt>
      <trkpt lat="46.06918" lon="4.77075">
        <ele>173</ele>
        <time>2018-08-08T09:14:39Z</time>
      </trkpt>
      <trkpt lat="46.06924" lon="4.77075">
        <ele>173</ele>
        <time>2018-08-08T09:14:40Z</time>
      </trkpt>
      <trkpt lat="46.06929" lon="4.77077">
        <ele>173</ele>
        <time>2018-08-08T09:14:41Z</time>
      </trkpt>
      <trkpt lat="46.06934" lon="4.77076">
        <ele>173</ele>
        <time>2018-08-08T09:14:42Z</time>
      </trkpt>
      <trkpt lat="46.0694" lon="4.77075">
        <ele>173</ele>
        <time>2018-08-08T09:14:43Z</time>
      </trkpt>
      <trkpt lat="46.06945" lon="4.77075">
        <ele>173</ele>
        <time>2018-08-08T09:14:44Z</time>
      </trkpt>
      <trkpt lat="46.0695" lon="4.77074">
        <ele>173</ele>
        <time>2018-08-08T09:14:45Z</time>
      </trkpt>
      <trkpt lat="46.06955" lon="4.77075">
        <ele>173</ele>
        <time>2018-08-08T09:14:46Z</time>
      </trkpt>
      <trkpt lat="46.06962" lon="4.77074">
        <ele>173</ele>
        <time>2018-08-08T09:14:47Z</time>
      </trkpt>
      <trkpt lat="46.06968" lon="4.77074">
        <ele>173</ele>
        <time>2018-08-08T09:14:48Z</time>
      </trkpt>
      <trkpt lat="46.06973" lon="4.77073">
        <ele>173</ele>
        <time>2018-08-08T09:14:49Z</time>
      </trkpt>
      <trkpt lat="46.06979" lon="4.7707">
        <ele>174</ele>
        <time>2018-08-08T09:14:50Z</time>
      </trkpt>
      <trkpt lat="46.06984" lon="4.77066">
        <ele>174</ele>
        <time>2018-08-08T09:14:51Z</time>
      </trkpt>
      <trkpt lat="46.06988" lon="4.77061">
        <ele>173</ele>
        <time>2018-08-08T09:14:52Z</time>
      </trkpt>
      <trkpt lat="46.06991" lon="4.77053">
        <ele>173</ele>
        <time>2018-08-08T09:14:53Z</time>
      </trkpt>
      <trkpt lat="46.06993" lon="4.77045">
        <ele>173</ele>
        <time>2018-08-08T09:14:54Z</time>
      </trkpt>
      <trkpt lat="46.06996" lon="4.77038">
        <ele>173</ele>
        <time>2018-08-08T09:14:55Z</time>
      </trkpt>
      <trkpt lat="46.06999" lon="4.77031">
        <ele>173</ele>
        <time>2018-08-08T09:14:56Z</time>
      </trkpt>
      <trkpt lat="46.07002" lon="4.77024">
        <ele>174</ele>
        <time>2018-08-08T09:14:57Z</time>
      </trkpt>
      <trkpt lat="46.07006" lon="4.77016">
        <ele>174</ele>
        <time>2018-08-08T09:14:58Z</time>
      </trkpt>
      <trkpt lat="46.07009" lon="4.77007">
        <ele>173</ele>
        <time>2018-08-08T09:14:59Z</time>
      </trkpt>
      <trkpt lat="46.07012" lon="4.77">
        <ele>173</ele>
        <time>2018-08-08T09:15:00Z</time>
      </trkpt>
      <trkpt lat="46.07016" lon="4.76993">
        <ele>173</ele>
        <time>2018-08-08T09:15:01Z</time>
      </trkpt>
      <trkpt lat="46.07019" lon="4.76983">
        <ele>173</ele>
        <time>2018-08-08T09:15:02Z</time>
      </trkpt>
      <trkpt lat="46.07023" lon="4.7698">
        <ele>173</ele>
        <time>2018-08-08T09:15:03Z</time>
      </trkpt>
      <trkpt lat="46.07026" lon="4.76974">
        <ele>173</ele>
        <time>2018-08-08T09:15:04Z</time>
      </trkpt>
      <trkpt lat="46.07028" lon="4.76968">
        <ele>173</ele>
        <time>2018-08-08T09:15:05Z</time>
      </trkpt>
      <trkpt lat="46.07032" lon="4.76963">
        <ele>173</ele>
        <time>2018-08-08T09:15:06Z</time>
      </trkpt>
      <trkpt lat="46.07035" lon="4.76953">
        <ele>173</ele>
        <time>2018-08-08T09:15:07Z</time>
      </trkpt>
      <trkpt lat="46.07038" lon="4.76949">
        <ele>173</ele>
        <time>2018-08-08T09:15:08Z</time>
      </trkpt>
      <trkpt lat="46.07041" lon="4.76943">
        <ele>173</ele>
        <time>2018-08-08T09:15:09Z</time>
      </trkpt>
      <trkpt lat="46.07042" lon="4.7693">
        <ele>173</ele>
        <time>2018-08-08T09:15:10Z</time>
      </trkpt>
      <trkpt lat="46.07047" lon="4.7692">
        <ele>173</ele>
        <time>2018-08-08T09:15:12Z</time>
      </trkpt>
      <trkpt lat="46.07051" lon="4.76914">
        <ele>172</ele>
        <time>2018-08-08T09:15:13Z</time>
      </trkpt>
      <trkpt lat="46.07054" lon="4.76908">
        <ele>172</ele>
        <time>2018-08-08T09:15:14Z</time>
      </trkpt>
      <trkpt lat="46.07058" lon="4.76903">
        <ele>172</ele>
        <time>2018-08-08T09:15:15Z</time>
      </trkpt>
      <trkpt lat="46.07061" lon="4.76898">
        <ele>172</ele>
        <time>2018-08-08T09:15:16Z</time>
      </trkpt>
      <trkpt lat="46.07066" lon="4.76893">
        <ele>172</ele>
        <time>2018-08-08T09:15:17Z</time>
      </trkpt>
      <trkpt lat="46.07069" lon="4.76887">
        <ele>172</ele>
        <time>2018-08-08T09:15:18Z</time>
      </trkpt>
      <trkpt lat="46.07072" lon="4.7688">
        <ele>172</ele>
        <time>2018-08-08T09:15:19Z</time>
      </trkpt>
      <trkpt lat="46.07075" lon="4.76874">
        <ele>172</ele>
        <time>2018-08-08T09:15:20Z</time>
      </trkpt>
      <trkpt lat="46.07078" lon="4.76869">
        <ele>172</ele>
        <time>2018-08-08T09:15:21Z</time>
      </trkpt>
      <trkpt lat="46.07081" lon="4.7686">
        <ele>172</ele>
        <time>2018-08-08T09:15:22Z</time>
      </trkpt>
      <trkpt lat="46.07085" lon="4.76853">
        <ele>173</ele>
        <time>2018-08-08T09:15:23Z</time>
      </trkpt>
      <trkpt lat="46.07088" lon="4.76846">
        <ele>172</ele>
        <time>2018-08-08T09:15:24Z</time>
      </trkpt>
      <trkpt lat="46.07092" lon="4.76839">
        <ele>172</ele>
        <time>2018-08-08T09:15:25Z</time>
      </trkpt>
      <trkpt lat="46.07096" lon="4.76833">
        <ele>172</ele>
        <time>2018-08-08T09:15:26Z</time>
      </trkpt>
      <trkpt lat="46.071" lon="4.76829">
        <ele>172</ele>
        <time>2018-08-08T09:15:27Z</time>
      </trkpt>
      <trkpt lat="46.07102" lon="4.76823">
        <ele>172</ele>
        <time>2018-08-08T09:15:28Z</time>
      </trkpt>
      <trkpt lat="46.07105" lon="4.76816">
        <ele>172</ele>
        <time>2018-08-08T09:15:29Z</time>
      </trkpt>
      <trkpt lat="46.07108" lon="4.7681">
        <ele>172</ele>
        <time>2018-08-08T09:15:30Z</time>
      </trkpt>
      <trkpt lat="46.07111" lon="4.76804">
        <ele>172</ele>
        <time>2018-08-08T09:15:31Z</time>
      </trkpt>
      <trkpt lat="46.07114" lon="4.76798">
        <ele>172</ele>
        <time>2018-08-08T09:15:32Z</time>
      </trkpt>
      <trkpt lat="46.07118" lon="4.7679">
        <ele>171</ele>
        <time>2018-08-08T09:15:33Z</time>
      </trkpt>
      <trkpt lat="46.07121" lon="4.76784">
        <ele>171</ele>
        <time>2018-08-08T09:15:34Z</time>
      </trkpt>
      <trkpt lat="46.07124" lon="4.76778">
        <ele>171</ele>
        <time>2018-08-08T09:15:35Z</time>
      </trkpt>
      <trkpt lat="46.07127" lon="4.76773">
        <ele>171</ele>
        <time>2018-08-08T09:15:36Z</time>
      </trkpt>
      <trkpt lat="46.07129" lon="4.76765">
        <ele>171</ele>
        <time>2018-08-08T09:15:37Z</time>
      </trkpt>
      <trkpt lat="46.07132" lon="4.76758">
        <ele>171</ele>
        <time>2018-08-08T09:15:38Z</time>
      </trkpt>
      <trkpt lat="46.07136" lon="4.76752">
        <ele>171</ele>
        <time>2018-08-08T09:15:39Z</time>
      </trkpt>
      <trkpt lat="46.0714" lon="4.76746">
        <ele>171</ele>
        <time>2018-08-08T09:15:40Z</time>
      </trkpt>
      <trkpt lat="46.07143" lon="4.7674">
        <ele>171</ele>
        <time>2018-08-08T09:15:41Z</time>
      </trkpt>
      <trkpt lat="46.07146" lon="4.76734">
        <ele>171</ele>
        <time>2018-08-08T09:15:42Z</time>
      </trkpt>
      <trkpt lat="46.07149" lon="4.76728">
        <ele>171</ele>
        <time>2018-08-08T09:15:43Z</time>
      </trkpt>
      <trkpt lat="46.07153" lon="4.76721">
        <ele>170</ele>
        <time>2018-08-08T09:15:44Z</time>
      </trkpt>
      <trkpt lat="46.07156" lon="4.76714">
        <ele>170</ele>
        <time>2018-08-08T09:15:45Z</time>
      </trkpt>
      <trkpt lat="46.07159" lon="4.76708">
        <ele>170</ele>
        <time>2018-08-08T09:15:46Z</time>
      </trkpt>
      <trkpt lat="46.07163" lon="4.76703">
        <ele>170</ele>
        <time>2018-08-08T09:15:47Z</time>
      </trkpt>
      <trkpt lat="46.07164" lon="4.76698">
        <ele>170</ele>
        <time>2018-08-08T09:15:48Z</time>
      </trkpt>
      <trkpt lat="46.07168" lon="4.76691">
        <ele>170</ele>
        <time>2018-08-08T09:15:49Z</time>
      </trkpt>
      <trkpt lat="46.0717" lon="4.76684">
        <ele>170</ele>
        <time>2018-08-08T09:15:50Z</time>
      </trkpt>
      <trkpt lat="46.07172" lon="4.76679">
        <ele>170</ele>
        <time>2018-08-08T09:15:51Z</time>
      </trkpt>
      <trkpt lat="46.07176" lon="4.76673">
        <ele>170</ele>
        <time>2018-08-08T09:15:52Z</time>
      </trkpt>
      <trkpt lat="46.07179" lon="4.76668">
        <ele>170</ele>
        <time>2018-08-08T09:15:53Z</time>
      </trkpt>
      <trkpt lat="46.07184" lon="4.76662">
        <ele>170</ele>
        <time>2018-08-08T09:15:54Z</time>
      </trkpt>
      <trkpt lat="46.07187" lon="4.76656">
        <ele>170</ele>
        <time>2018-08-08T09:15:55Z</time>
      </trkpt>
      <trkpt lat="46.07191" lon="4.7665">
        <ele>170</ele>
        <time>2018-08-08T09:15:56Z</time>
      </trkpt>
      <trkpt lat="46.07195" lon="4.76644">
        <ele>170</ele>
        <time>2018-08-08T09:15:57Z</time>
      </trkpt>
      <trkpt lat="46.07199" lon="4.76639">
        <ele>170</ele>
        <time>2018-08-08T09:15:58Z</time>
      </trkpt>
      <trkpt lat="46.07203" lon="4.76634">
        <ele>170</ele>
        <time>2018-08-08T09:15:59Z</time>
      </trkpt>
      <trkpt lat="46.07206" lon="4.76627">
        <ele>170</ele>
        <time>2018-08-08T09:16:00Z</time>
      </trkpt>
      <trkpt lat="46.07211" lon="4.76622">
        <ele>170</ele>
        <time>2018-08-08T09:16:01Z</time>
      </trkpt>
      <trkpt lat="46.07215" lon="4.76616">
        <ele>170</ele>
        <time>2018-08-08T09:16:02Z</time>
      </trkpt>
      <trkpt lat="46.07218" lon="4.7661">
        <ele>170</ele>
        <time>2018-08-08T09:16:03Z</time>
      </trkpt>
      <trkpt lat="46.07223" lon="4.76605">
        <ele>170</ele>
        <time>2018-08-08T09:16:04Z</time>
      </trkpt>
      <trkpt lat="46.07228" lon="4.76599">
        <ele>170</ele>
        <time>2018-08-08T09:16:05Z</time>
      </trkpt>
      <trkpt lat="46.07232" lon="4.76593">
        <ele>170</ele>
        <time>2018-08-08T09:16:06Z</time>
      </trkpt>
      <trkpt lat="46.07236" lon="4.76587">
        <ele>170</ele>
        <time>2018-08-08T09:16:07Z</time>
      </trkpt>
      <trkpt lat="46.07241" lon="4.76582">
        <ele>170</ele>
        <time>2018-08-08T09:16:08Z</time>
      </trkpt>
      <trkpt lat="46.07245" lon="4.76576">
        <ele>170</ele>
        <time>2018-08-08T09:16:09Z</time>
      </trkpt>
      <trkpt lat="46.07249" lon="4.76571">
        <ele>170</ele>
        <time>2018-08-08T09:16:10Z</time>
      </trkpt>
      <trkpt lat="46.07253" lon="4.76563">
        <ele>170</ele>
        <time>2018-08-08T09:16:11Z</time>
      </trkpt>
      <trkpt lat="46.07261" lon="4.7656">
        <ele>170</ele>
        <time>2018-08-08T09:16:13Z</time>
      </trkpt>
      <trkpt lat="46.07265" lon="4.76549">
        <ele>170</ele>
        <time>2018-08-08T09:16:14Z</time>
      </trkpt>
      <trkpt lat="46.0727" lon="4.76544">
        <ele>170</ele>
        <time>2018-08-08T09:16:15Z</time>
      </trkpt>
      <trkpt lat="46.07276" lon="4.76542">
        <ele>170</ele>
        <time>2018-08-08T09:16:16Z</time>
      </trkpt>
      <trkpt lat="46.07279" lon="4.76534">
        <ele>170</ele>
        <time>2018-08-08T09:16:17Z</time>
      </trkpt>
      <trkpt lat="46.07285" lon="4.76529">
        <ele>170</ele>
        <time>2018-08-08T09:16:18Z</time>
      </trkpt>
      <trkpt lat="46.07289" lon="4.76526">
        <ele>170</ele>
        <time>2018-08-08T09:16:19Z</time>
      </trkpt>
      <trkpt lat="46.07293" lon="4.76521">
        <ele>170</ele>
        <time>2018-08-08T09:16:20Z</time>
      </trkpt>
      <trkpt lat="46.07297" lon="4.76515">
        <ele>170</ele>
        <time>2018-08-08T09:16:21Z</time>
      </trkpt>
      <trkpt lat="46.07302" lon="4.76511">
        <ele>170</ele>
        <time>2018-08-08T09:16:22Z</time>
      </trkpt>
      <trkpt lat="46.07306" lon="4.76507">
        <ele>170</ele>
        <time>2018-08-08T09:16:23Z</time>
      </trkpt>
      <trkpt lat="46.07311" lon="4.76503">
        <ele>170</ele>
        <time>2018-08-08T09:16:24Z</time>
      </trkpt>
      <trkpt lat="46.07315" lon="4.76497">
        <ele>170</ele>
        <time>2018-08-08T09:16:25Z</time>
      </trkpt>
      <trkpt lat="46.07318" lon="4.76493">
        <ele>170</ele>
        <time>2018-08-08T09:16:26Z</time>
      </trkpt>
      <trkpt lat="46.07322" lon="4.7649">
        <ele>170</ele>
        <time>2018-08-08T09:16:27Z</time>
      </trkpt>
      <trkpt lat="46.07326" lon="4.76486">
        <ele>170</ele>
        <time>2018-08-08T09:16:28Z</time>
      </trkpt>
      <trkpt lat="46.07329" lon="4.76479">
        <ele>170</ele>
        <time>2018-08-08T09:16:29Z</time>
      </trkpt>
      <trkpt lat="46.07334" lon="4.76474">
        <ele>171</ele>
        <time>2018-08-08T09:16:30Z</time>
      </trkpt>
      <trkpt lat="46.07338" lon="4.76472">
        <ele>171</ele>
        <time>2018-08-08T09:16:31Z</time>
      </trkpt>
      <trkpt lat="46.07343" lon="4.76469">
        <ele>171</ele>
        <time>2018-08-08T09:16:32Z</time>
      </trkpt>
      <trkpt lat="46.07348" lon="4.76465">
        <ele>171</ele>
        <time>2018-08-08T09:16:33Z</time>
      </trkpt>
      <trkpt lat="46.07354" lon="4.76459">
        <ele>171</ele>
        <time>2018-08-08T09:16:34Z</time>
      </trkpt>
      <trkpt lat="46.07359" lon="4.76455">
        <ele>171</ele>
        <time>2018-08-08T09:16:35Z</time>
      </trkpt>
      <trkpt lat="46.07365" lon="4.76449">
        <ele>171</ele>
        <time>2018-08-08T09:16:36Z</time>
      </trkpt>
      <trkpt lat="46.07371" lon="4.76442">
        <ele>171</ele>
        <time>2018-08-08T09:16:38Z</time>
      </trkpt>
      <trkpt lat="46.07375" lon="4.76437">
        <ele>171</ele>
        <time>2018-08-08T09:16:39Z</time>
      </trkpt>
      <trkpt lat="46.07383" lon="4.76429">
        <ele>171</ele>
        <time>2018-08-08T09:16:41Z</time>
      </trkpt>
      <trkpt lat="46.07386" lon="4.76425">
        <ele>171</ele>
        <time>2018-08-08T09:16:42Z</time>
      </trkpt>
      <trkpt lat="46.07391" lon="4.76421">
        <ele>171</ele>
        <time>2018-08-08T09:16:43Z</time>
      </trkpt>
      <trkpt lat="46.07395" lon="4.76416">
        <ele>171</ele>
        <time>2018-08-08T09:16:44Z</time>
      </trkpt>
      <trkpt lat="46.07399" lon="4.76411">
        <ele>171</ele>
        <time>2018-08-08T09:16:45Z</time>
      </trkpt>
      <trkpt lat="46.07404" lon="4.76407">
        <ele>171</ele>
        <time>2018-08-08T09:16:46Z</time>
      </trkpt>
      <trkpt lat="46.07408" lon="4.76399">
        <ele>170</ele>
        <time>2018-08-08T09:16:47Z</time>
      </trkpt>
      <trkpt lat="46.07413" lon="4.76392">
        <ele>170</ele>
        <time>2018-08-08T09:16:48Z</time>
      </trkpt>
      <trkpt lat="46.07417" lon="4.76387">
        <ele>171</ele>
        <time>2018-08-08T09:16:49Z</time>
      </trkpt>
      <trkpt lat="46.07422" lon="4.76384">
        <ele>171</ele>
        <time>2018-08-08T09:16:50Z</time>
      </trkpt>
      <trkpt lat="46.07427" lon="4.7638">
        <ele>171</ele>
        <time>2018-08-08T09:16:51Z</time>
      </trkpt>
      <trkpt lat="46.07431" lon="4.76376">
        <ele>171</ele>
        <time>2018-08-08T09:16:52Z</time>
      </trkpt>
      <trkpt lat="46.07435" lon="4.76372">
        <ele>171</ele>
        <time>2018-08-08T09:16:53Z</time>
      </trkpt>
      <trkpt lat="46.07439" lon="4.76368">
        <ele>171</ele>
        <time>2018-08-08T09:16:54Z</time>
      </trkpt>
      <trkpt lat="46.07443" lon="4.76364">
        <ele>171</ele>
        <time>2018-08-08T09:16:55Z</time>
      </trkpt>
      <trkpt lat="46.07446" lon="4.76359">
        <ele>172</ele>
        <time>2018-08-08T09:16:56Z</time>
      </trkpt>
      <trkpt lat="46.07451" lon="4.76355">
        <ele>172</ele>
        <time>2018-08-08T09:16:57Z</time>
      </trkpt>
      <trkpt lat="46.07454" lon="4.76351">
        <ele>172</ele>
        <time>2018-08-08T09:16:58Z</time>
      </trkpt>
      <trkpt lat="46.07458" lon="4.76347">
        <ele>172</ele>
        <time>2018-08-08T09:16:59Z</time>
      </trkpt>
      <trkpt lat="46.07463" lon="4.76345">
        <ele>172</ele>
        <time>2018-08-08T09:17:00Z</time>
      </trkpt>
      <trkpt lat="46.07468" lon="4.76347">
        <ele>172</ele>
        <time>2018-08-08T09:17:01Z</time>
      </trkpt>
      <trkpt lat="46.07472" lon="4.76347">
        <ele>172</ele>
        <time>2018-08-08T09:17:02Z</time>
      </trkpt>
      <trkpt lat="46.07476" lon="4.76344">
        <ele>172</ele>
        <time>2018-08-08T09:17:05Z</time>
      </trkpt>
      <trkpt lat="46.07476" lon="4.76344">
        <ele>172</ele>
        <time>2018-08-08T09:17:06Z</time>
      </trkpt>
      <trkpt lat="46.07476" lon="4.76344">
        <ele>172</ele>
        <time>2018-08-08T09:17:09Z</time>
      </trkpt>
      <trkpt lat="46.07476" lon="4.76344">
        <ele>172</ele>
        <time>2018-08-08T09:17:10Z</time>
      </trkpt>
      <trkpt lat="46.07475" lon="4.76339">
        <ele>172</ele>
        <time>2018-08-08T09:17:22Z</time>
      </trkpt>
      <trkpt lat="46.07475" lon="4.76338">
        <ele>172</ele>
        <time>2018-08-08T09:17:23Z</time>
      </trkpt>
      <trkpt lat="46.07476" lon="4.76336">
        <ele>172</ele>
        <time>2018-08-08T09:18:03Z</time>
      </trkpt>
      <trkpt lat="46.07476" lon="4.76337">
        <ele>172</ele>
        <time>2018-08-08T09:18:04Z</time>
      </trkpt>
      <trkpt lat="46.07484" lon="4.7634">
        <ele>173</ele>
        <time>2018-08-08T09:18:27Z</time>
      </trkpt>
      <trkpt lat="46.07485" lon="4.76338">
        <ele>173</ele>
        <time>2018-08-08T09:18:28Z</time>
      </trkpt>
      <trkpt lat="46.07489" lon="4.76329">
        <ele>173</ele>
        <time>2018-08-08T09:18:31Z</time>
      </trkpt>
      <trkpt lat="46.07491" lon="4.76317">
        <ele>173</ele>
        <time>2018-08-08T09:18:32Z</time>
      </trkpt>
      <trkpt lat="46.07495" lon="4.76307">
        <ele>173</ele>
        <time>2018-08-08T09:18:34Z</time>
      </trkpt>
      <trkpt lat="46.07498" lon="4.76302">
        <ele>173</ele>
        <time>2018-08-08T09:18:35Z</time>
      </trkpt>
      <trkpt lat="46.07501" lon="4.76299">
        <ele>174</ele>
        <time>2018-08-08T09:18:36Z</time>
      </trkpt>
      <trkpt lat="46.07507" lon="4.76295">
        <ele>174</ele>
        <time>2018-08-08T09:18:37Z</time>
      </trkpt>
      <trkpt lat="46.0751" lon="4.76291">
        <ele>174</ele>
        <time>2018-08-08T09:18:38Z</time>
      </trkpt>
      <trkpt lat="46.07514" lon="4.76286">
        <ele>174</ele>
        <time>2018-08-08T09:18:39Z</time>
      </trkpt>
      <trkpt lat="46.07519" lon="4.76282">
        <ele>174</ele>
        <time>2018-08-08T09:18:40Z</time>
      </trkpt>
      <trkpt lat="46.07524" lon="4.76278">
        <ele>174</ele>
        <time>2018-08-08T09:18:41Z</time>
      </trkpt>
      <trkpt lat="46.07528" lon="4.76274">
        <ele>174</ele>
        <time>2018-08-08T09:18:42Z</time>
      </trkpt>
      <trkpt lat="46.07533" lon="4.76268">
        <ele>174</ele>
        <time>2018-08-08T09:18:43Z</time>
      </trkpt>
      <trkpt lat="46.07538" lon="4.76264">
        <ele>174</ele>
        <time>2018-08-08T09:18:44Z</time>
      </trkpt>
      <trkpt lat="46.07542" lon="4.76259">
        <ele>174</ele>
        <time>2018-08-08T09:18:45Z</time>
      </trkpt>
      <trkpt lat="46.07546" lon="4.76256">
        <ele>174</ele>
        <time>2018-08-08T09:18:46Z</time>
      </trkpt>
      <trkpt lat="46.0755" lon="4.76252">
        <ele>174</ele>
        <time>2018-08-08T09:18:47Z</time>
      </trkpt>
      <trkpt lat="46.07556" lon="4.76246">
        <ele>173</ele>
        <time>2018-08-08T09:18:48Z</time>
      </trkpt>
      <trkpt lat="46.07561" lon="4.7624">
        <ele>173</ele>
        <time>2018-08-08T09:18:49Z</time>
      </trkpt>
      <trkpt lat="46.07567" lon="4.76232">
        <ele>173</ele>
        <time>2018-08-08T09:18:51Z</time>
      </trkpt>
      <trkpt lat="46.07569" lon="4.7623">
        <ele>173</ele>
        <time>2018-08-08T09:18:52Z</time>
      </trkpt>
      <trkpt lat="46.07574" lon="4.76223">
        <ele>173</ele>
        <time>2018-08-08T09:18:53Z</time>
      </trkpt>
      <trkpt lat="46.07577" lon="4.76221">
        <ele>173</ele>
        <time>2018-08-08T09:18:54Z</time>
      </trkpt>
      <trkpt lat="46.07581" lon="4.76216">
        <ele>173</ele>
        <time>2018-08-08T09:18:55Z</time>
      </trkpt>
      <trkpt lat="46.07585" lon="4.76212">
        <ele>173</ele>
        <time>2018-08-08T09:18:56Z</time>
      </trkpt>
      <trkpt lat="46.07589" lon="4.76209">
        <ele>173</ele>
        <time>2018-08-08T09:18:57Z</time>
      </trkpt>
      <trkpt lat="46.07593" lon="4.76204">
        <ele>173</ele>
        <time>2018-08-08T09:18:58Z</time>
      </trkpt>
      <trkpt lat="46.07597" lon="4.76201">
        <ele>173</ele>
        <time>2018-08-08T09:18:59Z</time>
      </trkpt>
      <trkpt lat="46.07601" lon="4.76198">
        <ele>173</ele>
        <time>2018-08-08T09:19:00Z</time>
      </trkpt>
      <trkpt lat="46.07605" lon="4.76193">
        <ele>173</ele>
        <time>2018-08-08T09:19:01Z</time>
      </trkpt>
      <trkpt lat="46.0761" lon="4.76189">
        <ele>173</ele>
        <time>2018-08-08T09:19:02Z</time>
      </trkpt>
      <trkpt lat="46.07614" lon="4.76184">
        <ele>173</ele>
        <time>2018-08-08T09:19:03Z</time>
      </trkpt>
      <trkpt lat="46.07619" lon="4.7618">
        <ele>173</ele>
        <time>2018-08-08T09:19:04Z</time>
      </trkpt>
      <trkpt lat="46.07624" lon="4.76174">
        <ele>173</ele>
        <time>2018-08-08T09:19:05Z</time>
      </trkpt>
      <trkpt lat="46.07629" lon="4.76169">
        <ele>173</ele>
        <time>2018-08-08T09:19:06Z</time>
      </trkpt>
      <trkpt lat="46.07633" lon="4.76165">
        <ele>172</ele>
        <time>2018-08-08T09:19:07Z</time>
      </trkpt>
      <trkpt lat="46.07637" lon="4.76161">
        <ele>172</ele>
        <time>2018-08-08T09:19:08Z</time>
      </trkpt>
      <trkpt lat="46.07641" lon="4.76155">
        <ele>172</ele>
        <time>2018-08-08T09:19:09Z</time>
      </trkpt>
      <trkpt lat="46.07647" lon="4.76149">
        <ele>172</ele>
        <time>2018-08-08T09:19:10Z</time>
      </trkpt>
      <trkpt lat="46.0765" lon="4.76145">
        <ele>172</ele>
        <time>2018-08-08T09:19:12Z</time>
      </trkpt>
      <trkpt lat="46.07654" lon="4.7614">
        <ele>172</ele>
        <time>2018-08-08T09:19:13Z</time>
      </trkpt>
      <trkpt lat="46.07658" lon="4.76136">
        <ele>172</ele>
        <time>2018-08-08T09:19:14Z</time>
      </trkpt>
      <trkpt lat="46.07662" lon="4.76133">
        <ele>172</ele>
        <time>2018-08-08T09:19:15Z</time>
      </trkpt>
      <trkpt lat="46.07666" lon="4.76127">
        <ele>172</ele>
        <time>2018-08-08T09:19:16Z</time>
      </trkpt>
      <trkpt lat="46.07672" lon="4.7612">
        <ele>173</ele>
        <time>2018-08-08T09:19:17Z</time>
      </trkpt>
      <trkpt lat="46.07677" lon="4.76118">
        <ele>173</ele>
        <time>2018-08-08T09:19:18Z</time>
      </trkpt>
      <trkpt lat="46.0768" lon="4.76114">
        <ele>173</ele>
        <time>2018-08-08T09:19:19Z</time>
      </trkpt>
      <trkpt lat="46.07687" lon="4.76107">
        <ele>173</ele>
        <time>2018-08-08T09:19:22Z</time>
      </trkpt>
      <trkpt lat="46.07689" lon="4.76106">
        <ele>173</ele>
        <time>2018-08-08T09:19:23Z</time>
      </trkpt>
      <trkpt lat="46.07686" lon="4.76094">
        <ele>173</ele>
        <time>2018-08-08T09:19:27Z</time>
      </trkpt>
      <trkpt lat="46.07685" lon="4.76092">
        <ele>173</ele>
        <time>2018-08-08T09:19:28Z</time>
      </trkpt>
      <trkpt lat="46.07683" lon="4.76084">
        <ele>173</ele>
        <time>2018-08-08T09:19:30Z</time>
      </trkpt>
      <trkpt lat="46.07681" lon="4.7608">
        <ele>174</ele>
        <time>2018-08-08T09:19:31Z</time>
      </trkpt>
      <trkpt lat="46.07675" lon="4.76062">
        <ele>174</ele>
        <time>2018-08-08T09:19:32Z</time>
      </trkpt>
      <trkpt lat="46.07672" lon="4.76051">
        <ele>174</ele>
        <time>2018-08-08T09:19:34Z</time>
      </trkpt>
      <trkpt lat="46.07668" lon="4.76036">
        <ele>174</ele>
        <time>2018-08-08T09:19:35Z</time>
      </trkpt>
      <trkpt lat="46.07664" lon="4.76025">
        <ele>172</ele>
        <time>2018-08-08T09:19:36Z</time>
      </trkpt>
      <trkpt lat="46.07659" lon="4.76019">
        <ele>172</ele>
        <time>2018-08-08T09:19:37Z</time>
      </trkpt>
      <trkpt lat="46.07655" lon="4.76007">
        <ele>172</ele>
        <time>2018-08-08T09:19:39Z</time>
      </trkpt>
      <trkpt lat="46.07656" lon="4.75997">
        <ele>171</ele>
        <time>2018-08-08T09:19:40Z</time>
      </trkpt>
      <trkpt lat="46.07652" lon="4.75986">
        <ele>170</ele>
        <time>2018-08-08T09:19:43Z</time>
      </trkpt>
      <trkpt lat="46.0765" lon="4.75983">
        <ele>170</ele>
        <time>2018-08-08T09:19:44Z</time>
      </trkpt>
      <trkpt lat="46.07655" lon="4.75979">
        <ele>170</ele>
        <time>2018-08-08T09:19:47Z</time>
      </trkpt>
      <trkpt lat="46.0766" lon="4.75976">
        <ele>170</ele>
        <time>2018-08-08T09:19:48Z</time>
      </trkpt>
      <trkpt lat="46.07667" lon="4.75973">
        <ele>172</ele>
        <time>2018-08-08T09:19:50Z</time>
      </trkpt>
      <trkpt lat="46.07671" lon="4.75971">
        <ele>172</ele>
        <time>2018-08-08T09:19:51Z</time>
      </trkpt>
      <trkpt lat="46.07675" lon="4.75967">
        <ele>172</ele>
        <time>2018-08-08T09:19:52Z</time>
      </trkpt>
      <trkpt lat="46.0768" lon="4.75965">
        <ele>172</ele>
        <time>2018-08-08T09:19:53Z</time>
      </trkpt>
      <trkpt lat="46.07687" lon="4.7596">
        <ele>172</ele>
        <time>2018-08-08T09:19:54Z</time>
      </trkpt>
      <trkpt lat="46.07691" lon="4.75958">
        <ele>172</ele>
        <time>2018-08-08T09:19:55Z</time>
      </trkpt>
      <trkpt lat="46.07697" lon="4.75953">
        <ele>172</ele>
        <time>2018-08-08T09:19:56Z</time>
      </trkpt>
      <trkpt lat="46.07701" lon="4.7595">
        <ele>172</ele>
        <time>2018-08-08T09:19:57Z</time>
      </trkpt>
      <trkpt lat="46.07706" lon="4.75947">
        <ele>172</ele>
        <time>2018-08-08T09:19:58Z</time>
      </trkpt>
      <trkpt lat="46.0771" lon="4.75943">
        <ele>172</ele>
        <time>2018-08-08T09:19:59Z</time>
      </trkpt>
      <trkpt lat="46.07716" lon="4.75939">
        <ele>172</ele>
        <time>2018-08-08T09:20:00Z</time>
      </trkpt>
      <trkpt lat="46.07718" lon="4.75936">
        <ele>172</ele>
        <time>2018-08-08T09:20:01Z</time>
      </trkpt>
      <trkpt lat="46.07724" lon="4.75929">
        <ele>173</ele>
        <time>2018-08-08T09:20:03Z</time>
      </trkpt>
      <trkpt lat="46.07728" lon="4.75923">
        <ele>173</ele>
        <time>2018-08-08T09:20:04Z</time>
      </trkpt>
      <trkpt lat="46.07733" lon="4.7592">
        <ele>173</ele>
        <time>2018-08-08T09:20:05Z</time>
      </trkpt>
      <trkpt lat="46.07736" lon="4.75916">
        <ele>171</ele>
        <time>2018-08-08T09:20:06Z</time>
      </trkpt>
      <trkpt lat="46.07741" lon="4.75913">
        <ele>172</ele>
        <time>2018-08-08T09:20:07Z</time>
      </trkpt>
      <trkpt lat="46.07745" lon="4.75911">
        <ele>172</ele>
        <time>2018-08-08T09:20:08Z</time>
      </trkpt>
      <trkpt lat="46.07749" lon="4.75905">
        <ele>172</ele>
        <time>2018-08-08T09:20:09Z</time>
      </trkpt>
      <trkpt lat="46.07753" lon="4.75902">
        <ele>173</ele>
        <time>2018-08-08T09:20:10Z</time>
      </trkpt>
      <trkpt lat="46.07758" lon="4.75899">
        <ele>173</ele>
        <time>2018-08-08T09:20:11Z</time>
      </trkpt>
      <trkpt lat="46.07762" lon="4.75895">
        <ele>173</ele>
        <time>2018-08-08T09:20:12Z</time>
      </trkpt>
      <trkpt lat="46.07767" lon="4.75893">
        <ele>173</ele>
        <time>2018-08-08T09:20:13Z</time>
      </trkpt>
      <trkpt lat="46.0777" lon="4.75888">
        <ele>172</ele>
        <time>2018-08-08T09:20:14Z</time>
      </trkpt>
      <trkpt lat="46.07775" lon="4.75884">
        <ele>172</ele>
        <time>2018-08-08T09:20:15Z</time>
      </trkpt>
      <trkpt lat="46.07782" lon="4.75878">
        <ele>172</ele>
        <time>2018-08-08T09:20:16Z</time>
      </trkpt>
      <trkpt lat="46.07787" lon="4.75874">
        <ele>172</ele>
        <time>2018-08-08T09:20:17Z</time>
      </trkpt>
      <trkpt lat="46.07791" lon="4.75871">
        <ele>172</ele>
        <time>2018-08-08T09:20:18Z</time>
      </trkpt>
      <trkpt lat="46.07794" lon="4.75866">
        <ele>172</ele>
        <time>2018-08-08T09:20:19Z</time>
      </trkpt>
      <trkpt lat="46.07798" lon="4.75862">
        <ele>172</ele>
        <time>2018-08-08T09:20:20Z</time>
      </trkpt>
      <trkpt lat="46.07803" lon="4.75858">
        <ele>172</ele>
        <time>2018-08-08T09:20:21Z</time>
      </trkpt>
      <trkpt lat="46.07808" lon="4.75853">
        <ele>172</ele>
        <time>2018-08-08T09:20:22Z</time>
      </trkpt>
      <trkpt lat="46.07811" lon="4.75849">
        <ele>172</ele>
        <time>2018-08-08T09:20:23Z</time>
      </trkpt>
      <trkpt lat="46.07816" lon="4.75845">
        <ele>172</ele>
        <time>2018-08-08T09:20:24Z</time>
      </trkpt>
      <trkpt lat="46.0782" lon="4.7584">
        <ele>172</ele>
        <time>2018-08-08T09:20:25Z</time>
      </trkpt>
      <trkpt lat="46.07823" lon="4.75834">
        <ele>173</ele>
        <time>2018-08-08T09:20:26Z</time>
      </trkpt>
      <trkpt lat="46.07828" lon="4.75831">
        <ele>172</ele>
        <time>2018-08-08T09:20:27Z</time>
      </trkpt>
      <trkpt lat="46.07833" lon="4.75828">
        <ele>172</ele>
        <time>2018-08-08T09:20:28Z</time>
      </trkpt>
      <trkpt lat="46.07839" lon="4.7582">
        <ele>172</ele>
        <time>2018-08-08T09:20:29Z</time>
      </trkpt>
      <trkpt lat="46.07844" lon="4.75815">
        <ele>172</ele>
        <time>2018-08-08T09:20:30Z</time>
      </trkpt>
      <trkpt lat="46.0785" lon="4.75811">
        <ele>172</ele>
        <time>2018-08-08T09:20:31Z</time>
      </trkpt>
      <trkpt lat="46.07853" lon="4.75807">
        <ele>172</ele>
        <time>2018-08-08T09:20:32Z</time>
      </trkpt>
      <trkpt lat="46.07858" lon="4.75803">
        <ele>172</ele>
        <time>2018-08-08T09:20:33Z</time>
      </trkpt>
      <trkpt lat="46.07863" lon="4.75795">
        <ele>171</ele>
        <time>2018-08-08T09:20:34Z</time>
      </trkpt>
      <trkpt lat="46.07871" lon="4.7579">
        <ele>171</ele>
        <time>2018-08-08T09:20:36Z</time>
      </trkpt>
      <trkpt lat="46.07874" lon="4.75787">
        <ele>171</ele>
        <time>2018-08-08T09:20:37Z</time>
      </trkpt>
      <trkpt lat="46.07881" lon="4.75784">
        <ele>171</ele>
        <time>2018-08-08T09:20:39Z</time>
      </trkpt>
      <trkpt lat="46.07887" lon="4.75781">
        <ele>172</ele>
        <time>2018-08-08T09:20:40Z</time>
      </trkpt>
      <trkpt lat="46.07891" lon="4.75775">
        <ele>172</ele>
        <time>2018-08-08T09:20:41Z</time>
      </trkpt>
      <trkpt lat="46.07895" lon="4.75771">
        <ele>172</ele>
        <time>2018-08-08T09:20:42Z</time>
      </trkpt>
      <trkpt lat="46.07901" lon="4.75762">
        <ele>172</ele>
        <time>2018-08-08T09:20:44Z</time>
      </trkpt>
      <trkpt lat="46.07906" lon="4.75756">
        <ele>172</ele>
        <time>2018-08-08T09:20:45Z</time>
      </trkpt>
      <trkpt lat="46.07912" lon="4.75747">
        <ele>172</ele>
        <time>2018-08-08T09:20:46Z</time>
      </trkpt>
      <trkpt lat="46.07918" lon="4.75745">
        <ele>173</ele>
        <time>2018-08-08T09:20:47Z</time>
      </trkpt>
      <trkpt lat="46.07922" lon="4.75737">
        <ele>173</ele>
        <time>2018-08-08T09:20:48Z</time>
      </trkpt>
      <trkpt lat="46.07927" lon="4.75732">
        <ele>173</ele>
        <time>2018-08-08T09:20:49Z</time>
      </trkpt>
      <trkpt lat="46.07932" lon="4.75725">
        <ele>173</ele>
        <time>2018-08-08T09:20:50Z</time>
      </trkpt>
      <trkpt lat="46.07935" lon="4.75724">
        <ele>173</ele>
        <time>2018-08-08T09:20:51Z</time>
      </trkpt>
      <trkpt lat="46.07941" lon="4.75719">
        <ele>173</ele>
        <time>2018-08-08T09:20:52Z</time>
      </trkpt>
      <trkpt lat="46.07944" lon="4.75714">
        <ele>173</ele>
        <time>2018-08-08T09:20:53Z</time>
      </trkpt>
      <trkpt lat="46.07951" lon="4.75709">
        <ele>173</ele>
        <time>2018-08-08T09:20:55Z</time>
      </trkpt>
      <trkpt lat="46.07956" lon="4.75708">
        <ele>173</ele>
        <time>2018-08-08T09:20:56Z</time>
      </trkpt>
      <trkpt lat="46.07964" lon="4.75704">
        <ele>173</ele>
        <time>2018-08-08T09:20:58Z</time>
      </trkpt>
      <trkpt lat="46.07965" lon="4.75704">
        <ele>173</ele>
        <time>2018-08-08T09:20:59Z</time>
      </trkpt>
      <trkpt lat="46.07969" lon="4.757">
        <ele>173</ele>
        <time>2018-08-08T09:21:00Z</time>
      </trkpt>
      <trkpt lat="46.07973" lon="4.75697">
        <ele>173</ele>
        <time>2018-08-08T09:21:01Z</time>
      </trkpt>
      <trkpt lat="46.07977" lon="4.7569">
        <ele>174</ele>
        <time>2018-08-08T09:21:02Z</time>
      </trkpt>
      <trkpt lat="46.07981" lon="4.75685">
        <ele>174</ele>
        <time>2018-08-08T09:21:03Z</time>
      </trkpt>
      <trkpt lat="46.07985" lon="4.75681">
        <ele>174</ele>
        <time>2018-08-08T09:21:04Z</time>
      </trkpt>
      <trkpt lat="46.0799" lon="4.75677">
        <ele>175</ele>
        <time>2018-08-08T09:21:05Z</time>
      </trkpt>
      <trkpt lat="46.07997" lon="4.75669">
        <ele>176</ele>
        <time>2018-08-08T09:21:07Z</time>
      </trkpt>
      <trkpt lat="46.08001" lon="4.75666">
        <ele>176</ele>
        <time>2018-08-08T09:21:08Z</time>
      </trkpt>
      <trkpt lat="46.08005" lon="4.75663">
        <ele>175</ele>
        <time>2018-08-08T09:21:09Z</time>
      </trkpt>
      <trkpt lat="46.08009" lon="4.75661">
        <ele>175</ele>
        <time>2018-08-08T09:21:10Z</time>
      </trkpt>
      <trkpt lat="46.08016" lon="4.75658">
        <ele>174</ele>
        <time>2018-08-08T09:21:12Z</time>
      </trkpt>
      <trkpt lat="46.0802" lon="4.75657">
        <ele>174</ele>
        <time>2018-08-08T09:21:13Z</time>
      </trkpt>
      <trkpt lat="46.08022" lon="4.75657">
        <ele>174</ele>
        <time>2018-08-08T09:21:14Z</time>
      </trkpt>
      <trkpt lat="46.0803" lon="4.75657">
        <ele>174</ele>
        <time>2018-08-08T09:21:15Z</time>
      </trkpt>
      <trkpt lat="46.08033" lon="4.75645">
        <ele>174</ele>
        <time>2018-08-08T09:21:26Z</time>
      </trkpt>
      <trkpt lat="46.08034" lon="4.75644">
        <ele>174</ele>
        <time>2018-08-08T09:21:27Z</time>
      </trkpt>
      <trkpt lat="46.08041" lon="4.75637">
        <ele>173</ele>
        <time>2018-08-08T09:21:33Z</time>
      </trkpt>
      <trkpt lat="46.08042" lon="4.75636">
        <ele>173</ele>
        <time>2018-08-08T09:21:34Z</time>
      </trkpt>
      <trkpt lat="46.08048" lon="4.75633">
        <ele>173</ele>
        <time>2018-08-08T09:21:40Z</time>
      </trkpt>
      <trkpt lat="46.08049" lon="4.75633">
        <ele>173</ele>
        <time>2018-08-08T09:21:41Z</time>
      </trkpt>
      <trkpt lat="46.08053" lon="4.75624">
        <ele>173</ele>
        <time>2018-08-08T09:22:07Z</time>
      </trkpt>
      <trkpt lat="46.08053" lon="4.75624">
        <ele>173</ele>
        <time>2018-08-08T09:22:08Z</time>
      </trkpt>
      <trkpt lat="46.0805" lon="4.75618">
        <ele>173</ele>
        <time>2018-08-08T09:22:19Z</time>
      </trkpt>
      <trkpt lat="46.08049" lon="4.75618">
        <ele>173</ele>
        <time>2018-08-08T09:22:20Z</time>
      </trkpt>
      <trkpt lat="46.08049" lon="4.75618">
        <ele>173</ele>
        <time>2018-08-08T09:22:21Z</time>
      </trkpt>
      <trkpt lat="46.08046" lon="4.75619">
        <ele>173</ele>
        <time>2018-08-08T09:22:27Z</time>
      </trkpt>
      <trkpt lat="46.08046" lon="4.75619">
        <ele>173</ele>
        <time>2018-08-08T09:22:28Z</time>
      </trkpt>
      <trkpt lat="46.08046" lon="4.75619">
        <ele>173</ele>
        <time>2018-08-08T09:22:29Z</time>
      </trkpt>
      <trkpt lat="46.08053" lon="4.75621">
        <ele>173</ele>
        <time>2018-08-08T09:26:08Z</time>
      </trkpt>
      <trkpt lat="46.08054" lon="4.7562">
        <ele>173</ele>
        <time>2018-08-08T09:26:09Z</time>
      </trkpt>
      <trkpt lat="46.08054" lon="4.75615">
        <ele>173</ele>
        <time>2018-08-08T09:27:19Z</time>
      </trkpt>
      <trkpt lat="46.08055" lon="4.75615">
        <ele>173</ele>
        <time>2018-08-08T09:27:20Z</time>
      </trkpt>
      <trkpt lat="46.08046" lon="4.75616">
        <ele>173</ele>
        <time>2018-08-08T09:27:31Z</time>
      </trkpt>
      <trkpt lat="46.08045" lon="4.75617">
        <ele>173</ele>
        <time>2018-08-08T09:27:32Z</time>
      </trkpt>
      <trkpt lat="46.08043" lon="4.75622">
        <ele>173</ele>
        <time>2018-08-08T09:27:44Z</time>
      </trkpt>
      <trkpt lat="46.08039" lon="4.75637">
        <ele>173</ele>
        <time>2018-08-08T09:27:49.655Z</time>
      </trkpt>
      <trkpt lat="46.08041" lon="4.7563">
        <ele>173</ele>
        <time>2018-08-08T09:27:50Z</time>
      </trkpt>
      <trkpt lat="46.08042" lon="4.75624">
        <ele>173</ele>
        <time>2018-08-08T09:27:51Z</time>
      </trkpt>
      <trkpt lat="46.08045" lon="4.75613">
        <ele>173</ele>
        <time>2018-08-08T09:27:56Z</time>
      </trkpt>
      <trkpt lat="46.08045" lon="4.75612">
        <ele>173</ele>
        <time>2018-08-08T09:27:57Z</time>
      </trkpt>
      <trkpt lat="46.08041" lon="4.75613">
        <ele>173</ele>
        <time>2018-08-08T09:33:39Z</time>
      </trkpt>
      <trkpt lat="46.08033" lon="4.75629">
        <ele>173</ele>
        <time>2018-08-08T09:33:44.618Z</time>
      </trkpt>
      <trkpt lat="46.08038" lon="4.75619">
        <ele>173</ele>
        <time>2018-08-08T09:33:47Z</time>
      </trkpt>
      <trkpt lat="46.08039" lon="4.75618">
        <ele>173</ele>
        <time>2018-08-08T09:33:48Z</time>
      </trkpt>
      <trkpt lat="46.08046" lon="4.75616">
        <ele>173</ele>
        <time>2018-08-08T09:34:01Z</time>
      </trkpt>
      <trkpt lat="46.08048" lon="4.75616">
        <ele>173</ele>
        <time>2018-08-08T09:34:02Z</time>
      </trkpt>
      <trkpt lat="46.08057" lon="4.75618">
        <ele>173</ele>
        <time>2018-08-08T09:34:13Z</time>
      </trkpt>
      <trkpt lat="46.08057" lon="4.75618">
        <ele>173</ele>
        <time>2018-08-08T09:34:14Z</time>
      </trkpt>
      <trkpt lat="46.08058" lon="4.75617">
        <ele>173</ele>
        <time>2018-08-08T09:34:15Z</time>
      </trkpt>
      <trkpt lat="46.08067" lon="4.75608">
        <ele>173</ele>
        <time>2018-08-08T09:34:23.807Z</time>
      </trkpt>
      <trkpt lat="46.08072" lon="4.75602">
        <ele>173</ele>
        <time>2018-08-08T09:34:25Z</time>
      </trkpt>
      <trkpt lat="46.08073" lon="4.75599">
        <ele>173</ele>
        <time>2018-08-08T09:34:26Z</time>
      </trkpt>
      <trkpt lat="46.08081" lon="4.75592">
        <ele>174</ele>
        <time>2018-08-08T09:34:30Z</time>
      </trkpt>
      <trkpt lat="46.08082" lon="4.75591">
        <ele>174</ele>
        <time>2018-08-08T09:34:31Z</time>
      </trkpt>
      <trkpt lat="46.08091" lon="4.75587">
        <ele>174</ele>
        <time>2018-08-08T09:34:35Z</time>
      </trkpt>
      <trkpt lat="46.08092" lon="4.75586">
        <ele>174</ele>
        <time>2018-08-08T09:34:36Z</time>
      </trkpt>
      <trkpt lat="46.08091" lon="4.75574">
        <ele>173</ele>
        <time>2018-08-08T09:34:41Z</time>
      </trkpt>
      <trkpt lat="46.0809" lon="4.75573">
        <ele>173</ele>
        <time>2018-08-08T09:34:42Z</time>
      </trkpt>
      <trkpt lat="46.08086" lon="4.75561">
        <ele>173</ele>
        <time>2018-08-08T09:34:46Z</time>
      </trkpt>
      <trkpt lat="46.08085" lon="4.75558">
        <ele>172</ele>
        <time>2018-08-08T09:34:47Z</time>
      </trkpt>
      <trkpt lat="46.08081" lon="4.75547">
        <ele>169</ele>
        <time>2018-08-08T09:34:50Z</time>
      </trkpt>
      <trkpt lat="46.0808" lon="4.75544">
        <ele>169</ele>
        <time>2018-08-08T09:34:51Z</time>
      </trkpt>
      <trkpt lat="46.08075" lon="4.75534">
        <ele>168</ele>
        <time>2018-08-08T09:34:54Z</time>
      </trkpt>
      <trkpt lat="46.08074" lon="4.75531">
        <ele>168</ele>
        <time>2018-08-08T09:34:55.152Z</time>
      </trkpt>
      <trkpt lat="46.0807" lon="4.75522">
        <ele>168</ele>
        <time>2018-08-08T09:34:57Z</time>
      </trkpt>
      <trkpt lat="46.08068" lon="4.75518">
        <ele>167</ele>
        <time>2018-08-08T09:34:58Z</time>
      </trkpt>
      <trkpt lat="46.08064" lon="4.7551">
        <ele>167</ele>
        <time>2018-08-08T09:35:00Z</time>
      </trkpt>
      <trkpt lat="46.08062" lon="4.75506">
        <ele>167</ele>
        <time>2018-08-08T09:35:01Z</time>
      </trkpt>
      <trkpt lat="46.08059" lon="4.75498">
        <ele>166</ele>
        <time>2018-08-08T09:35:03Z</time>
      </trkpt>
      <trkpt lat="46.08057" lon="4.75495">
        <ele>166</ele>
        <time>2018-08-08T09:35:04Z</time>
      </trkpt>
      <trkpt lat="46.08054" lon="4.75487">
        <ele>166</ele>
        <time>2018-08-08T09:35:06Z</time>
      </trkpt>
      <trkpt lat="46.08048" lon="4.75476">
        <ele>166</ele>
        <time>2018-08-08T09:35:07Z</time>
      </trkpt>
      <trkpt lat="46.08044" lon="4.75467">
        <ele>166</ele>
        <time>2018-08-08T09:35:10Z</time>
      </trkpt>
      <trkpt lat="46.08039" lon="4.75457">
        <ele>166</ele>
        <time>2018-08-08T09:35:11Z</time>
      </trkpt>
      <trkpt lat="46.08034" lon="4.75446">
        <ele>166</ele>
        <time>2018-08-08T09:35:13Z</time>
      </trkpt>
      <trkpt lat="46.08031" lon="4.7544">
        <ele>166</ele>
        <time>2018-08-08T09:35:14Z</time>
      </trkpt>
      <trkpt lat="46.08029" lon="4.75434">
        <ele>166</ele>
        <time>2018-08-08T09:35:15Z</time>
      </trkpt>
      <trkpt lat="46.08026" lon="4.75427">
        <ele>166</ele>
        <time>2018-08-08T09:35:16Z</time>
      </trkpt>
      <trkpt lat="46.08022" lon="4.75421">
        <ele>166</ele>
        <time>2018-08-08T09:35:17Z</time>
      </trkpt>
      <trkpt lat="46.08019" lon="4.75414">
        <ele>166</ele>
        <time>2018-08-08T09:35:18Z</time>
      </trkpt>
      <trkpt lat="46.08016" lon="4.75408">
        <ele>166</ele>
        <time>2018-08-08T09:35:19Z</time>
      </trkpt>
      <trkpt lat="46.08013" lon="4.75401">
        <ele>167</ele>
        <time>2018-08-08T09:35:20Z</time>
      </trkpt>
      <trkpt lat="46.08011" lon="4.75394">
        <ele>167</ele>
        <time>2018-08-08T09:35:21Z</time>
      </trkpt>
      <trkpt lat="46.08007" lon="4.75385">
        <ele>167</ele>
        <time>2018-08-08T09:35:22Z</time>
      </trkpt>
      <trkpt lat="46.08003" lon="4.75374">
        <ele>167</ele>
        <time>2018-08-08T09:35:23Z</time>
      </trkpt>
      <trkpt lat="46.07998" lon="4.75367">
        <ele>168</ele>
        <time>2018-08-08T09:35:24Z</time>
      </trkpt>
      <trkpt lat="46.07993" lon="4.75357">
        <ele>168</ele>
        <time>2018-08-08T09:35:25Z</time>
      </trkpt>
      <trkpt lat="46.07989" lon="4.75346">
        <ele>168</ele>
        <time>2018-08-08T09:35:26Z</time>
      </trkpt>
      <trkpt lat="46.07981" lon="4.75337">
        <ele>168</ele>
        <time>2018-08-08T09:35:27Z</time>
      </trkpt>
      <trkpt lat="46.07978" lon="4.75329">
        <ele>169</ele>
        <time>2018-08-08T09:35:28Z</time>
      </trkpt>
      <trkpt lat="46.07975" lon="4.7532">
        <ele>169</ele>
        <time>2018-08-08T09:35:29Z</time>
      </trkpt>
      <trkpt lat="46.07974" lon="4.75315">
        <ele>169</ele>
        <time>2018-08-08T09:35:30Z</time>
      </trkpt>
      <trkpt lat="46.0797" lon="4.75308">
        <ele>169</ele>
        <time>2018-08-08T09:35:31Z</time>
      </trkpt>
      <trkpt lat="46.07966" lon="4.75299">
        <ele>169</ele>
        <time>2018-08-08T09:35:32Z</time>
      </trkpt>
      <trkpt lat="46.07958" lon="4.75292">
        <ele>169</ele>
        <time>2018-08-08T09:35:33Z</time>
      </trkpt>
      <trkpt lat="46.07954" lon="4.75285">
        <ele>169</ele>
        <time>2018-08-08T09:35:34Z</time>
      </trkpt>
      <trkpt lat="46.07949" lon="4.75276">
        <ele>169</ele>
        <time>2018-08-08T09:35:35Z</time>
      </trkpt>
      <trkpt lat="46.07943" lon="4.75269">
        <ele>169</ele>
        <time>2018-08-08T09:35:36Z</time>
      </trkpt>
      <trkpt lat="46.07941" lon="4.75263">
        <ele>170</ele>
        <time>2018-08-08T09:35:37Z</time>
      </trkpt>
      <trkpt lat="46.07938" lon="4.75255">
        <ele>170</ele>
        <time>2018-08-08T09:35:38Z</time>
      </trkpt>
      <trkpt lat="46.07935" lon="4.75247">
        <ele>170</ele>
        <time>2018-08-08T09:35:39Z</time>
      </trkpt>
      <trkpt lat="46.07932" lon="4.7524">
        <ele>170</ele>
        <time>2018-08-08T09:35:40.577Z</time>
      </trkpt>
      <trkpt lat="46.0793" lon="4.75236">
        <ele>170</ele>
        <time>2018-08-08T09:35:41Z</time>
      </trkpt>
      <trkpt lat="46.07928" lon="4.7523">
        <ele>170</ele>
        <time>2018-08-08T09:35:42Z</time>
      </trkpt>
      <trkpt lat="46.07922" lon="4.75222">
        <ele>171</ele>
        <time>2018-08-08T09:35:43Z</time>
      </trkpt>
      <trkpt lat="46.07919" lon="4.7521">
        <ele>171</ele>
        <time>2018-08-08T09:35:45Z</time>
      </trkpt>
      <trkpt lat="46.07917" lon="4.75202">
        <ele>171</ele>
        <time>2018-08-08T09:35:46Z</time>
      </trkpt>
      <trkpt lat="46.07915" lon="4.75191">
        <ele>171</ele>
        <time>2018-08-08T09:35:48Z</time>
      </trkpt>
      <trkpt lat="46.07912" lon="4.75185">
        <ele>171</ele>
        <time>2018-08-08T09:35:49Z</time>
      </trkpt>
      <trkpt lat="46.07908" lon="4.75178">
        <ele>172</ele>
        <time>2018-08-08T09:35:50Z</time>
      </trkpt>
      <trkpt lat="46.07904" lon="4.75173">
        <ele>172</ele>
        <time>2018-08-08T09:35:51Z</time>
      </trkpt>
      <trkpt lat="46.07902" lon="4.75167">
        <ele>172</ele>
        <time>2018-08-08T09:35:52Z</time>
      </trkpt>
      <trkpt lat="46.07898" lon="4.75161">
        <ele>171</ele>
        <time>2018-08-08T09:35:53Z</time>
      </trkpt>
      <trkpt lat="46.07894" lon="4.75154">
        <ele>171</ele>
        <time>2018-08-08T09:35:54Z</time>
      </trkpt>
      <trkpt lat="46.0789" lon="4.75148">
        <ele>171</ele>
        <time>2018-08-08T09:35:55Z</time>
      </trkpt>
      <trkpt lat="46.07886" lon="4.75143">
        <ele>171</ele>
        <time>2018-08-08T09:35:56Z</time>
      </trkpt>
      <trkpt lat="46.07882" lon="4.75136">
        <ele>171</ele>
        <time>2018-08-08T09:35:57Z</time>
      </trkpt>
      <trkpt lat="46.07877" lon="4.7513">
        <ele>171</ele>
        <time>2018-08-08T09:35:58Z</time>
      </trkpt>
      <trkpt lat="46.07874" lon="4.75125">
        <ele>171</ele>
        <time>2018-08-08T09:35:59Z</time>
      </trkpt>
      <trkpt lat="46.07869" lon="4.75119">
        <ele>171</ele>
        <time>2018-08-08T09:36:00Z</time>
      </trkpt>
      <trkpt lat="46.07866" lon="4.75114">
        <ele>171</ele>
        <time>2018-08-08T09:36:01Z</time>
      </trkpt>
      <trkpt lat="46.07862" lon="4.75108">
        <ele>171</ele>
        <time>2018-08-08T09:36:02Z</time>
      </trkpt>
      <trkpt lat="46.07857" lon="4.75102">
        <ele>171</ele>
        <time>2018-08-08T09:36:03Z</time>
      </trkpt>
      <trkpt lat="46.07854" lon="4.75095">
        <ele>171</ele>
        <time>2018-08-08T09:36:04Z</time>
      </trkpt>
      <trkpt lat="46.0785" lon="4.75089">
        <ele>171</ele>
        <time>2018-08-08T09:36:05Z</time>
      </trkpt>
      <trkpt lat="46.07847" lon="4.75084">
        <ele>171</ele>
        <time>2018-08-08T09:36:06Z</time>
      </trkpt>
      <trkpt lat="46.07842" lon="4.75078">
        <ele>171</ele>
        <time>2018-08-08T09:36:07Z</time>
      </trkpt>
      <trkpt lat="46.07839" lon="4.75071">
        <ele>171</ele>
        <time>2018-08-08T09:36:08Z</time>
      </trkpt>
      <trkpt lat="46.07838" lon="4.75066">
        <ele>171</ele>
        <time>2018-08-08T09:36:09Z</time>
      </trkpt>
      <trkpt lat="46.07834" lon="4.75062">
        <ele>171</ele>
        <time>2018-08-08T09:36:10Z</time>
      </trkpt>
      <trkpt lat="46.07829" lon="4.75057">
        <ele>171</ele>
        <time>2018-08-08T09:36:11Z</time>
      </trkpt>
      <trkpt lat="46.07824" lon="4.75052">
        <ele>171</ele>
        <time>2018-08-08T09:36:12Z</time>
      </trkpt>
      <trkpt lat="46.07819" lon="4.75047">
        <ele>171</ele>
        <time>2018-08-08T09:36:13Z</time>
      </trkpt>
      <trkpt lat="46.07813" lon="4.75043">
        <ele>171</ele>
        <time>2018-08-08T09:36:14Z</time>
      </trkpt>
      <trkpt lat="46.07808" lon="4.75039">
        <ele>171</ele>
        <time>2018-08-08T09:36:15Z</time>
      </trkpt>
      <trkpt lat="46.07805" lon="4.75036">
        <ele>171</ele>
        <time>2018-08-08T09:36:16Z</time>
      </trkpt>
      <trkpt lat="46.07799" lon="4.75031">
        <ele>171</ele>
        <time>2018-08-08T09:36:17Z</time>
      </trkpt>
      <trkpt lat="46.07793" lon="4.75027">
        <ele>171</ele>
        <time>2018-08-08T09:36:18Z</time>
      </trkpt>
      <trkpt lat="46.07788" lon="4.75022">
        <ele>172</ele>
        <time>2018-08-08T09:36:19Z</time>
      </trkpt>
      <trkpt lat="46.07782" lon="4.75018">
        <ele>172</ele>
        <time>2018-08-08T09:36:20Z</time>
      </trkpt>
      <trkpt lat="46.07777" lon="4.75014">
        <ele>172</ele>
        <time>2018-08-08T09:36:21Z</time>
      </trkpt>
      <trkpt lat="46.07771" lon="4.7501">
        <ele>172</ele>
        <time>2018-08-08T09:36:22Z</time>
      </trkpt>
      <trkpt lat="46.07767" lon="4.75006">
        <ele>172</ele>
        <time>2018-08-08T09:36:23Z</time>
      </trkpt>
      <trkpt lat="46.07763" lon="4.75002">
        <ele>172</ele>
        <time>2018-08-08T09:36:24Z</time>
      </trkpt>
      <trkpt lat="46.07758" lon="4.74998">
        <ele>172</ele>
        <time>2018-08-08T09:36:25Z</time>
      </trkpt>
      <trkpt lat="46.07754" lon="4.74993">
        <ele>172</ele>
        <time>2018-08-08T09:36:26Z</time>
      </trkpt>
      <trkpt lat="46.0775" lon="4.7499">
        <ele>173</ele>
        <time>2018-08-08T09:36:27Z</time>
      </trkpt>
      <trkpt lat="46.07745" lon="4.74985">
        <ele>173</ele>
        <time>2018-08-08T09:36:28Z</time>
      </trkpt>
      <trkpt lat="46.0774" lon="4.74981">
        <ele>173</ele>
        <time>2018-08-08T09:36:29Z</time>
      </trkpt>
      <trkpt lat="46.07735" lon="4.74977">
        <ele>172</ele>
        <time>2018-08-08T09:36:30Z</time>
      </trkpt>
      <trkpt lat="46.0773" lon="4.74973">
        <ele>172</ele>
        <time>2018-08-08T09:36:31Z</time>
      </trkpt>
      <trkpt lat="46.07725" lon="4.74968">
        <ele>172</ele>
        <time>2018-08-08T09:36:32Z</time>
      </trkpt>
      <trkpt lat="46.0772" lon="4.74964">
        <ele>172</ele>
        <time>2018-08-08T09:36:33Z</time>
      </trkpt>
      <trkpt lat="46.07715" lon="4.74961">
        <ele>172</ele>
        <time>2018-08-08T09:36:34Z</time>
      </trkpt>
      <trkpt lat="46.0771" lon="4.74957">
        <ele>172</ele>
        <time>2018-08-08T09:36:35Z</time>
      </trkpt>
      <trkpt lat="46.07706" lon="4.74953">
        <ele>172</ele>
        <time>2018-08-08T09:36:36Z</time>
      </trkpt>
      <trkpt lat="46.07702" lon="4.7495">
        <ele>172</ele>
        <time>2018-08-08T09:36:37Z</time>
      </trkpt>
      <trkpt lat="46.07698" lon="4.74947">
        <ele>172</ele>
        <time>2018-08-08T09:36:38Z</time>
      </trkpt>
      <trkpt lat="46.07695" lon="4.74943">
        <ele>172</ele>
        <time>2018-08-08T09:36:39Z</time>
      </trkpt>
      <trkpt lat="46.0769" lon="4.7494">
        <ele>172</ele>
        <time>2018-08-08T09:36:40Z</time>
      </trkpt>
      <trkpt lat="46.07686" lon="4.74937">
        <ele>172</ele>
        <time>2018-08-08T09:36:41Z</time>
      </trkpt>
      <trkpt lat="46.07682" lon="4.74933">
        <ele>172</ele>
        <time>2018-08-08T09:36:42Z</time>
      </trkpt>
      <trkpt lat="46.07677" lon="4.7493">
        <ele>172</ele>
        <time>2018-08-08T09:36:43Z</time>
      </trkpt>
      <trkpt lat="46.07671" lon="4.74926">
        <ele>172</ele>
        <time>2018-08-08T09:36:44Z</time>
      </trkpt>
      <trkpt lat="46.07666" lon="4.74922">
        <ele>172</ele>
        <time>2018-08-08T09:36:45Z</time>
      </trkpt>
      <trkpt lat="46.07661" lon="4.74918">
        <ele>172</ele>
        <time>2018-08-08T09:36:46Z</time>
      </trkpt>
      <trkpt lat="46.07656" lon="4.74913">
        <ele>172</ele>
        <time>2018-08-08T09:36:47Z</time>
      </trkpt>
      <trkpt lat="46.07651" lon="4.74909">
        <ele>171</ele>
        <time>2018-08-08T09:36:48Z</time>
      </trkpt>
      <trkpt lat="46.07647" lon="4.74905">
        <ele>171</ele>
        <time>2018-08-08T09:36:49Z</time>
      </trkpt>
      <trkpt lat="46.07641" lon="4.74901">
        <ele>171</ele>
        <time>2018-08-08T09:36:50Z</time>
      </trkpt>
      <trkpt lat="46.07637" lon="4.74897">
        <ele>171</ele>
        <time>2018-08-08T09:36:51Z</time>
      </trkpt>
      <trkpt lat="46.07631" lon="4.74893">
        <ele>171</ele>
        <time>2018-08-08T09:36:52Z</time>
      </trkpt>
      <trkpt lat="46.07625" lon="4.74889">
        <ele>171</ele>
        <time>2018-08-08T09:36:53Z</time>
      </trkpt>
      <trkpt lat="46.07621" lon="4.74885">
        <ele>171</ele>
        <time>2018-08-08T09:36:54Z</time>
      </trkpt>
      <trkpt lat="46.07615" lon="4.74882">
        <ele>171</ele>
        <time>2018-08-08T09:36:55Z</time>
      </trkpt>
      <trkpt lat="46.0761" lon="4.74877">
        <ele>171</ele>
        <time>2018-08-08T09:36:56Z</time>
      </trkpt>
      <trkpt lat="46.07605" lon="4.74873">
        <ele>171</ele>
        <time>2018-08-08T09:36:57Z</time>
      </trkpt>
      <trkpt lat="46.076" lon="4.74868">
        <ele>171</ele>
        <time>2018-08-08T09:36:58Z</time>
      </trkpt>
      <trkpt lat="46.07595" lon="4.74865">
        <ele>171</ele>
        <time>2018-08-08T09:36:59Z</time>
      </trkpt>
      <trkpt lat="46.07591" lon="4.74861">
        <ele>171</ele>
        <time>2018-08-08T09:37:00Z</time>
      </trkpt>
      <trkpt lat="46.07585" lon="4.74856">
        <ele>171</ele>
        <time>2018-08-08T09:37:01Z</time>
      </trkpt>
      <trkpt lat="46.07579" lon="4.74852">
        <ele>171</ele>
        <time>2018-08-08T09:37:02Z</time>
      </trkpt>
      <trkpt lat="46.07574" lon="4.74848">
        <ele>171</ele>
        <time>2018-08-08T09:37:03Z</time>
      </trkpt>
      <trkpt lat="46.07569" lon="4.74843">
        <ele>171</ele>
        <time>2018-08-08T09:37:04Z</time>
      </trkpt>
      <trkpt lat="46.07563" lon="4.74838">
        <ele>171</ele>
        <time>2018-08-08T09:37:05Z</time>
      </trkpt>
      <trkpt lat="46.07557" lon="4.74834">
        <ele>171</ele>
        <time>2018-08-08T09:37:06Z</time>
      </trkpt>
      <trkpt lat="46.07552" lon="4.7483">
        <ele>172</ele>
        <time>2018-08-08T09:37:07Z</time>
      </trkpt>
      <trkpt lat="46.07545" lon="4.74825">
        <ele>172</ele>
        <time>2018-08-08T09:37:08Z</time>
      </trkpt>
      <trkpt lat="46.07539" lon="4.7482">
        <ele>172</ele>
        <time>2018-08-08T09:37:09Z</time>
      </trkpt>
      <trkpt lat="46.07534" lon="4.74816">
        <ele>172</ele>
        <time>2018-08-08T09:37:10Z</time>
      </trkpt>
      <trkpt lat="46.07529" lon="4.74812">
        <ele>172</ele>
        <time>2018-08-08T09:37:11Z</time>
      </trkpt>
      <trkpt lat="46.07523" lon="4.74807">
        <ele>172</ele>
        <time>2018-08-08T09:37:12Z</time>
      </trkpt>
      <trkpt lat="46.07517" lon="4.74803">
        <ele>172</ele>
        <time>2018-08-08T09:37:13Z</time>
      </trkpt>
      <trkpt lat="46.07513" lon="4.74798">
        <ele>172</ele>
        <time>2018-08-08T09:37:14Z</time>
      </trkpt>
      <trkpt lat="46.07507" lon="4.74794">
        <ele>172</ele>
        <time>2018-08-08T09:37:15Z</time>
      </trkpt>
      <trkpt lat="46.07502" lon="4.7479">
        <ele>172</ele>
        <time>2018-08-08T09:37:16Z</time>
      </trkpt>
      <trkpt lat="46.07497" lon="4.74785">
        <ele>173</ele>
        <time>2018-08-08T09:37:17Z</time>
      </trkpt>
      <trkpt lat="46.0749" lon="4.74779">
        <ele>173</ele>
        <time>2018-08-08T09:37:18Z</time>
      </trkpt>
      <trkpt lat="46.07484" lon="4.74774">
        <ele>173</ele>
        <time>2018-08-08T09:37:19Z</time>
      </trkpt>
      <trkpt lat="46.07479" lon="4.74768">
        <ele>173</ele>
        <time>2018-08-08T09:37:20Z</time>
      </trkpt>
      <trkpt lat="46.07474" lon="4.74763">
        <ele>173</ele>
        <time>2018-08-08T09:37:21Z</time>
      </trkpt>
      <trkpt lat="46.07469" lon="4.74758">
        <ele>173</ele>
        <time>2018-08-08T09:37:22Z</time>
      </trkpt>
      <trkpt lat="46.07465" lon="4.74752">
        <ele>173</ele>
        <time>2018-08-08T09:37:23Z</time>
      </trkpt>
      <trkpt lat="46.0746" lon="4.74746">
        <ele>173</ele>
        <time>2018-08-08T09:37:24Z</time>
      </trkpt>
      <trkpt lat="46.07455" lon="4.7474">
        <ele>173</ele>
        <time>2018-08-08T09:37:25Z</time>
      </trkpt>
      <trkpt lat="46.07452" lon="4.74734">
        <ele>173</ele>
        <time>2018-08-08T09:37:26Z</time>
      </trkpt>
      <trkpt lat="46.07448" lon="4.74727">
        <ele>173</ele>
        <time>2018-08-08T09:37:27Z</time>
      </trkpt>
      <trkpt lat="46.07444" lon="4.74721">
        <ele>173</ele>
        <time>2018-08-08T09:37:28Z</time>
      </trkpt>
      <trkpt lat="46.0744" lon="4.74715">
        <ele>173</ele>
        <time>2018-08-08T09:37:29Z</time>
      </trkpt>
      <trkpt lat="46.07438" lon="4.74709">
        <ele>173</ele>
        <time>2018-08-08T09:37:30Z</time>
      </trkpt>
      <trkpt lat="46.07435" lon="4.74703">
        <ele>173</ele>
        <time>2018-08-08T09:37:31Z</time>
      </trkpt>
      <trkpt lat="46.07431" lon="4.74696">
        <ele>173</ele>
        <time>2018-08-08T09:37:32Z</time>
      </trkpt>
      <trkpt lat="46.07429" lon="4.74689">
        <ele>173</ele>
        <time>2018-08-08T09:37:33Z</time>
      </trkpt>
      <trkpt lat="46.07425" lon="4.74681">
        <ele>172</ele>
        <time>2018-08-08T09:37:34Z</time>
      </trkpt>
      <trkpt lat="46.07421" lon="4.74675">
        <ele>172</ele>
        <time>2018-08-08T09:37:35Z</time>
      </trkpt>
      <trkpt lat="46.07418" lon="4.74668">
        <ele>172</ele>
        <time>2018-08-08T09:37:36Z</time>
      </trkpt>
      <trkpt lat="46.07414" lon="4.74661">
        <ele>172</ele>
        <time>2018-08-08T09:37:37Z</time>
      </trkpt>
      <trkpt lat="46.07411" lon="4.74654">
        <ele>173</ele>
        <time>2018-08-08T09:37:38Z</time>
      </trkpt>
      <trkpt lat="46.07408" lon="4.74647">
        <ele>173</ele>
        <time>2018-08-08T09:37:39Z</time>
      </trkpt>
      <trkpt lat="46.07406" lon="4.74641">
        <ele>173</ele>
        <time>2018-08-08T09:37:40Z</time>
      </trkpt>
      <trkpt lat="46.07401" lon="4.74634">
        <ele>174</ele>
        <time>2018-08-08T09:37:41Z</time>
      </trkpt>
      <trkpt lat="46.07398" lon="4.74628">
        <ele>174</ele>
        <time>2018-08-08T09:37:42Z</time>
      </trkpt>
      <trkpt lat="46.07395" lon="4.74622">
        <ele>174</ele>
        <time>2018-08-08T09:37:43Z</time>
      </trkpt>
      <trkpt lat="46.07392" lon="4.74616">
        <ele>174</ele>
        <time>2018-08-08T09:37:44Z</time>
      </trkpt>
      <trkpt lat="46.0739" lon="4.74611">
        <ele>174</ele>
        <time>2018-08-08T09:37:45Z</time>
      </trkpt>
      <trkpt lat="46.07386" lon="4.74605">
        <ele>174</ele>
        <time>2018-08-08T09:37:46Z</time>
      </trkpt>
      <trkpt lat="46.07384" lon="4.746">
        <ele>174</ele>
        <time>2018-08-08T09:37:47Z</time>
      </trkpt>
      <trkpt lat="46.07381" lon="4.74593">
        <ele>174</ele>
        <time>2018-08-08T09:37:48Z</time>
      </trkpt>
      <trkpt lat="46.07378" lon="4.74586">
        <ele>174</ele>
        <time>2018-08-08T09:37:49Z</time>
      </trkpt>
      <trkpt lat="46.07374" lon="4.74579">
        <ele>175</ele>
        <time>2018-08-08T09:37:50Z</time>
      </trkpt>
      <trkpt lat="46.07371" lon="4.74572">
        <ele>175</ele>
        <time>2018-08-08T09:37:51Z</time>
      </trkpt>
      <trkpt lat="46.07367" lon="4.74566">
        <ele>175</ele>
        <time>2018-08-08T09:37:52Z</time>
      </trkpt>
      <trkpt lat="46.07361" lon="4.7456">
        <ele>175</ele>
        <time>2018-08-08T09:37:53Z</time>
      </trkpt>
      <trkpt lat="46.07359" lon="4.74554">
        <ele>175</ele>
        <time>2018-08-08T09:37:54Z</time>
      </trkpt>
      <trkpt lat="46.07356" lon="4.74548">
        <ele>175</ele>
        <time>2018-08-08T09:37:55Z</time>
      </trkpt>
      <trkpt lat="46.07351" lon="4.74537">
        <ele>175</ele>
        <time>2018-08-08T09:37:57Z</time>
      </trkpt>
      <trkpt lat="46.07347" lon="4.74531">
        <ele>175</ele>
        <time>2018-08-08T09:37:58Z</time>
      </trkpt>
      <trkpt lat="46.07343" lon="4.74525">
        <ele>175</ele>
        <time>2018-08-08T09:37:59Z</time>
      </trkpt>
      <trkpt lat="46.07339" lon="4.74518">
        <ele>175</ele>
        <time>2018-08-08T09:38:00Z</time>
      </trkpt>
      <trkpt lat="46.07336" lon="4.74511">
        <ele>176</ele>
        <time>2018-08-08T09:38:01Z</time>
      </trkpt>
      <trkpt lat="46.07332" lon="4.74505">
        <ele>176</ele>
        <time>2018-08-08T09:38:02Z</time>
      </trkpt>
      <trkpt lat="46.07328" lon="4.74498">
        <ele>176</ele>
        <time>2018-08-08T09:38:03Z</time>
      </trkpt>
      <trkpt lat="46.07326" lon="4.7449">
        <ele>176</ele>
        <time>2018-08-08T09:38:04Z</time>
      </trkpt>
      <trkpt lat="46.07323" lon="4.74483">
        <ele>175</ele>
        <time>2018-08-08T09:38:05Z</time>
      </trkpt>
      <trkpt lat="46.07319" lon="4.74476">
        <ele>175</ele>
        <time>2018-08-08T09:38:06Z</time>
      </trkpt>
      <trkpt lat="46.07318" lon="4.74469">
        <ele>175</ele>
        <time>2018-08-08T09:38:07Z</time>
      </trkpt>
      <trkpt lat="46.07316" lon="4.74461">
        <ele>175</ele>
        <time>2018-08-08T09:38:08Z</time>
      </trkpt>
      <trkpt lat="46.07313" lon="4.74453">
        <ele>175</ele>
        <time>2018-08-08T09:38:09Z</time>
      </trkpt>
      <trkpt lat="46.07311" lon="4.74443">
        <ele>175</ele>
        <time>2018-08-08T09:38:10Z</time>
      </trkpt>
      <trkpt lat="46.07309" lon="4.74435">
        <ele>175</ele>
        <time>2018-08-08T09:38:11Z</time>
      </trkpt>
      <trkpt lat="46.07308" lon="4.74428">
        <ele>175</ele>
        <time>2018-08-08T09:38:12Z</time>
      </trkpt>
      <trkpt lat="46.07306" lon="4.7442">
        <ele>175</ele>
        <time>2018-08-08T09:38:13Z</time>
      </trkpt>
      <trkpt lat="46.07306" lon="4.74413">
        <ele>174</ele>
        <time>2018-08-08T09:38:14Z</time>
      </trkpt>
      <trkpt lat="46.07299" lon="4.74405">
        <ele>174</ele>
        <time>2018-08-08T09:38:15Z</time>
      </trkpt>
      <trkpt lat="46.07303" lon="4.74398">
        <ele>174</ele>
        <time>2018-08-08T09:38:16Z</time>
      </trkpt>
      <trkpt lat="46.07303" lon="4.7439">
        <ele>174</ele>
        <time>2018-08-08T09:38:17Z</time>
      </trkpt>
      <trkpt lat="46.07297" lon="4.74384">
        <ele>174</ele>
        <time>2018-08-08T09:38:18Z</time>
      </trkpt>
      <trkpt lat="46.07297" lon="4.74376">
        <ele>174</ele>
        <time>2018-08-08T09:38:19Z</time>
      </trkpt>
      <trkpt lat="46.07298" lon="4.74368">
        <ele>174</ele>
        <time>2018-08-08T09:38:20Z</time>
      </trkpt>
      <trkpt lat="46.07299" lon="4.7436">
        <ele>174</ele>
        <time>2018-08-08T09:38:21Z</time>
      </trkpt>
      <trkpt lat="46.07299" lon="4.74352">
        <ele>174</ele>
        <time>2018-08-08T09:38:22Z</time>
      </trkpt>
      <trkpt lat="46.07298" lon="4.74344">
        <ele>174</ele>
        <time>2018-08-08T09:38:23Z</time>
      </trkpt>
      <trkpt lat="46.07295" lon="4.74336">
        <ele>174</ele>
        <time>2018-08-08T09:38:24Z</time>
      </trkpt>
      <trkpt lat="46.07293" lon="4.74327">
        <ele>174</ele>
        <time>2018-08-08T09:38:25Z</time>
      </trkpt>
      <trkpt lat="46.07292" lon="4.7432">
        <ele>174</ele>
        <time>2018-08-08T09:38:26Z</time>
      </trkpt>
      <trkpt lat="46.0729" lon="4.74313">
        <ele>174</ele>
        <time>2018-08-08T09:38:27Z</time>
      </trkpt>
      <trkpt lat="46.07289" lon="4.74305">
        <ele>174</ele>
        <time>2018-08-08T09:38:28Z</time>
      </trkpt>
      <trkpt lat="46.07289" lon="4.74296">
        <ele>174</ele>
        <time>2018-08-08T09:38:29Z</time>
      </trkpt>
      <trkpt lat="46.07289" lon="4.74289">
        <ele>174</ele>
        <time>2018-08-08T09:38:30Z</time>
      </trkpt>
      <trkpt lat="46.07286" lon="4.74278">
        <ele>175</ele>
        <time>2018-08-08T09:38:32Z</time>
      </trkpt>
      <trkpt lat="46.07283" lon="4.74271">
        <ele>175</ele>
        <time>2018-08-08T09:38:33Z</time>
      </trkpt>
      <trkpt lat="46.07281" lon="4.74259">
        <ele>175</ele>
        <time>2018-08-08T09:38:35Z</time>
      </trkpt>
      <trkpt lat="46.07279" lon="4.74254">
        <ele>175</ele>
        <time>2018-08-08T09:38:36Z</time>
      </trkpt>
      <trkpt lat="46.07276" lon="4.74244">
        <ele>175</ele>
        <time>2018-08-08T09:38:38Z</time>
      </trkpt>
      <trkpt lat="46.07276" lon="4.74239">
        <ele>175</ele>
        <time>2018-08-08T09:38:39Z</time>
      </trkpt>
      <trkpt lat="46.07271" lon="4.74229">
        <ele>176</ele>
        <time>2018-08-08T09:38:41Z</time>
      </trkpt>
      <trkpt lat="46.0727" lon="4.74223">
        <ele>176</ele>
        <time>2018-08-08T09:38:42Z</time>
      </trkpt>
      <trkpt lat="46.07267" lon="4.74214">
        <ele>176</ele>
        <time>2018-08-08T09:38:45Z</time>
      </trkpt>
      <trkpt lat="46.07266" lon="4.74211">
        <ele>176</ele>
        <time>2018-08-08T09:38:46Z</time>
      </trkpt>
      <trkpt lat="46.07262" lon="4.74199">
        <ele>176</ele>
        <time>2018-08-08T09:38:49Z</time>
      </trkpt>
      <trkpt lat="46.07259" lon="4.74186">
        <ele>176</ele>
        <time>2018-08-08T09:38:50Z</time>
      </trkpt>
      <trkpt lat="46.07257" lon="4.74181">
        <ele>176</ele>
        <time>2018-08-08T09:38:52Z</time>
      </trkpt>
      <trkpt lat="46.07254" lon="4.74173">
        <ele>177</ele>
        <time>2018-08-08T09:38:53Z</time>
      </trkpt>
      <trkpt lat="46.07251" lon="4.74165">
        <ele>177</ele>
        <time>2018-08-08T09:38:56Z</time>
      </trkpt>
      <trkpt lat="46.0725" lon="4.74161">
        <ele>177</ele>
        <time>2018-08-08T09:38:57Z</time>
      </trkpt>
      <trkpt lat="46.07248" lon="4.74154">
        <ele>177</ele>
        <time>2018-08-08T09:38:59Z</time>
      </trkpt>
      <trkpt lat="46.07243" lon="4.74142">
        <ele>177</ele>
        <time>2018-08-08T09:39:00Z</time>
      </trkpt>
      <trkpt lat="46.0724" lon="4.74133">
        <ele>177</ele>
        <time>2018-08-08T09:39:02Z</time>
      </trkpt>
      <trkpt lat="46.07238" lon="4.74127">
        <ele>177</ele>
        <time>2018-08-08T09:39:03Z</time>
      </trkpt>
      <trkpt lat="46.07235" lon="4.74117">
        <ele>177</ele>
        <time>2018-08-08T09:39:05Z</time>
      </trkpt>
      <trkpt lat="46.07233" lon="4.74111">
        <ele>177</ele>
        <time>2018-08-08T09:39:06Z</time>
      </trkpt>
      <trkpt lat="46.07231" lon="4.74105">
        <ele>177</ele>
        <time>2018-08-08T09:39:07Z</time>
      </trkpt>
      <trkpt lat="46.07229" lon="4.74099">
        <ele>177</ele>
        <time>2018-08-08T09:39:08Z</time>
      </trkpt>
      <trkpt lat="46.07226" lon="4.74093">
        <ele>177</ele>
        <time>2018-08-08T09:39:09Z</time>
      </trkpt>
      <trkpt lat="46.07223" lon="4.74085">
        <ele>177</ele>
        <time>2018-08-08T09:39:10Z</time>
      </trkpt>
      <trkpt lat="46.0722" lon="4.74078">
        <ele>177</ele>
        <time>2018-08-08T09:39:11Z</time>
      </trkpt>
      <trkpt lat="46.07216" lon="4.74071">
        <ele>177</ele>
        <time>2018-08-08T09:39:12Z</time>
      </trkpt>
      <trkpt lat="46.07214" lon="4.74064">
        <ele>177</ele>
        <time>2018-08-08T09:39:13Z</time>
      </trkpt>
      <trkpt lat="46.07212" lon="4.74058">
        <ele>177</ele>
        <time>2018-08-08T09:39:14Z</time>
      </trkpt>
      <trkpt lat="46.07208" lon="4.7405">
        <ele>178</ele>
        <time>2018-08-08T09:39:15Z</time>
      </trkpt>
      <trkpt lat="46.07206" lon="4.74043">
        <ele>178</ele>
        <time>2018-08-08T09:39:16Z</time>
      </trkpt>
      <trkpt lat="46.072" lon="4.74034">
        <ele>178</ele>
        <time>2018-08-08T09:39:17Z</time>
      </trkpt>
      <trkpt lat="46.072" lon="4.74027">
        <ele>178</ele>
        <time>2018-08-08T09:39:18Z</time>
      </trkpt>
      <trkpt lat="46.07198" lon="4.74017">
        <ele>178</ele>
        <time>2018-08-08T09:39:19Z</time>
      </trkpt>
      <trkpt lat="46.07192" lon="4.7401">
        <ele>178</ele>
        <time>2018-08-08T09:39:20Z</time>
      </trkpt>
      <trkpt lat="46.07191" lon="4.74002">
        <ele>178</ele>
        <time>2018-08-08T09:39:21Z</time>
      </trkpt>
      <trkpt lat="46.0719" lon="4.73991">
        <ele>178</ele>
        <time>2018-08-08T09:39:22Z</time>
      </trkpt>
      <trkpt lat="46.07187" lon="4.7398">
        <ele>178</ele>
        <time>2018-08-08T09:39:23Z</time>
      </trkpt>
      <trkpt lat="46.07187" lon="4.73971">
        <ele>178</ele>
        <time>2018-08-08T09:39:24Z</time>
      </trkpt>
      <trkpt lat="46.0718" lon="4.7396">
        <ele>178</ele>
        <time>2018-08-08T09:39:25Z</time>
      </trkpt>
      <trkpt lat="46.07175" lon="4.73949">
        <ele>177</ele>
        <time>2018-08-08T09:39:26Z</time>
      </trkpt>
      <trkpt lat="46.0717" lon="4.73938">
        <ele>177</ele>
        <time>2018-08-08T09:39:27Z</time>
      </trkpt>
      <trkpt lat="46.07167" lon="4.73928">
        <ele>177</ele>
        <time>2018-08-08T09:39:28Z</time>
      </trkpt>
      <trkpt lat="46.07165" lon="4.73918">
        <ele>177</ele>
        <time>2018-08-08T09:39:29Z</time>
      </trkpt>
      <trkpt lat="46.07162" lon="4.73908">
        <ele>177</ele>
        <time>2018-08-08T09:39:30Z</time>
      </trkpt>
      <trkpt lat="46.07158" lon="4.73898">
        <ele>177</ele>
        <time>2018-08-08T09:39:31Z</time>
      </trkpt>
      <trkpt lat="46.07155" lon="4.73889">
        <ele>177</ele>
        <time>2018-08-08T09:39:32Z</time>
      </trkpt>
      <trkpt lat="46.07151" lon="4.73881">
        <ele>176</ele>
        <time>2018-08-08T09:39:33Z</time>
      </trkpt>
      <trkpt lat="46.07149" lon="4.73874">
        <ele>176</ele>
        <time>2018-08-08T09:39:34Z</time>
      </trkpt>
      <trkpt lat="46.07146" lon="4.73867">
        <ele>176</ele>
        <time>2018-08-08T09:39:35Z</time>
      </trkpt>
      <trkpt lat="46.07142" lon="4.7386">
        <ele>176</ele>
        <time>2018-08-08T09:39:36Z</time>
      </trkpt>
      <trkpt lat="46.07137" lon="4.73852">
        <ele>176</ele>
        <time>2018-08-08T09:39:37Z</time>
      </trkpt>
      <trkpt lat="46.07132" lon="4.73845">
        <ele>176</ele>
        <time>2018-08-08T09:39:38Z</time>
      </trkpt>
      <trkpt lat="46.07128" lon="4.73839">
        <ele>176</ele>
        <time>2018-08-08T09:39:39Z</time>
      </trkpt>
      <trkpt lat="46.07123" lon="4.73835">
        <ele>177</ele>
        <time>2018-08-08T09:39:40Z</time>
      </trkpt>
      <trkpt lat="46.0712" lon="4.7383">
        <ele>177</ele>
        <time>2018-08-08T09:39:41Z</time>
      </trkpt>
      <trkpt lat="46.07117" lon="4.73825">
        <ele>177</ele>
        <time>2018-08-08T09:39:42Z</time>
      </trkpt>
      <trkpt lat="46.07112" lon="4.73821">
        <ele>177</ele>
        <time>2018-08-08T09:39:43Z</time>
      </trkpt>
      <trkpt lat="46.07109" lon="4.73816">
        <ele>178</ele>
        <time>2018-08-08T09:39:44Z</time>
      </trkpt>
      <trkpt lat="46.07103" lon="4.73814">
        <ele>178</ele>
        <time>2018-08-08T09:39:45Z</time>
      </trkpt>
      <trkpt lat="46.07099" lon="4.73809">
        <ele>178</ele>
        <time>2018-08-08T09:39:46Z</time>
      </trkpt>
      <trkpt lat="46.07094" lon="4.73805">
        <ele>178</ele>
        <time>2018-08-08T09:39:47Z</time>
      </trkpt>
      <trkpt lat="46.07086" lon="4.73802">
        <ele>178</ele>
        <time>2018-08-08T09:39:48Z</time>
      </trkpt>
      <trkpt lat="46.07079" lon="4.73798">
        <ele>178</ele>
        <time>2018-08-08T09:39:49Z</time>
      </trkpt>
      <trkpt lat="46.07072" lon="4.73796">
        <ele>178</ele>
        <time>2018-08-08T09:39:50Z</time>
      </trkpt>
      <trkpt lat="46.07065" lon="4.73794">
        <ele>178</ele>
        <time>2018-08-08T09:39:51Z</time>
      </trkpt>
      <trkpt lat="46.07059" lon="4.73791">
        <ele>178</ele>
        <time>2018-08-08T09:39:52Z</time>
      </trkpt>
      <trkpt lat="46.07052" lon="4.7379">
        <ele>177</ele>
        <time>2018-08-08T09:39:53Z</time>
      </trkpt>
      <trkpt lat="46.07047" lon="4.73789">
        <ele>177</ele>
        <time>2018-08-08T09:39:54Z</time>
      </trkpt>
      <trkpt lat="46.0704" lon="4.73787">
        <ele>177</ele>
        <time>2018-08-08T09:39:55Z</time>
      </trkpt>
      <trkpt lat="46.07034" lon="4.73787">
        <ele>177</ele>
        <time>2018-08-08T09:39:56Z</time>
      </trkpt>
      <trkpt lat="46.07027" lon="4.73786">
        <ele>177</ele>
        <time>2018-08-08T09:39:57Z</time>
      </trkpt>
      <trkpt lat="46.0702" lon="4.73785">
        <ele>177</ele>
        <time>2018-08-08T09:39:58Z</time>
      </trkpt>
      <trkpt lat="46.07014" lon="4.73785">
        <ele>177</ele>
        <time>2018-08-08T09:39:59Z</time>
      </trkpt>
      <trkpt lat="46.07008" lon="4.73785">
        <ele>177</ele>
        <time>2018-08-08T09:40:00Z</time>
      </trkpt>
      <trkpt lat="46.07002" lon="4.73784">
        <ele>177</ele>
        <time>2018-08-08T09:40:01Z</time>
      </trkpt>
      <trkpt lat="46.06995" lon="4.73784">
        <ele>176</ele>
        <time>2018-08-08T09:40:02Z</time>
      </trkpt>
      <trkpt lat="46.06988" lon="4.73783">
        <ele>176</ele>
        <time>2018-08-08T09:40:03Z</time>
      </trkpt>
      <trkpt lat="46.06981" lon="4.73782">
        <ele>176</ele>
        <time>2018-08-08T09:40:04Z</time>
      </trkpt>
      <trkpt lat="46.06975" lon="4.73781">
        <ele>176</ele>
        <time>2018-08-08T09:40:05Z</time>
      </trkpt>
      <trkpt lat="46.06969" lon="4.7378">
        <ele>176</ele>
        <time>2018-08-08T09:40:06Z</time>
      </trkpt>
      <trkpt lat="46.06963" lon="4.73779">
        <ele>176</ele>
        <time>2018-08-08T09:40:07Z</time>
      </trkpt>
      <trkpt lat="46.06958" lon="4.73777">
        <ele>176</ele>
        <time>2018-08-08T09:40:08Z</time>
      </trkpt>
      <trkpt lat="46.06953" lon="4.73774">
        <ele>176</ele>
        <time>2018-08-08T09:40:09Z</time>
      </trkpt>
      <trkpt lat="46.06948" lon="4.73771">
        <ele>176</ele>
        <time>2018-08-08T09:40:10Z</time>
      </trkpt>
      <trkpt lat="46.06944" lon="4.73769">
        <ele>176</ele>
        <time>2018-08-08T09:40:11Z</time>
      </trkpt>
      <trkpt lat="46.06939" lon="4.73766">
        <ele>176</ele>
        <time>2018-08-08T09:40:12Z</time>
      </trkpt>
      <trkpt lat="46.06935" lon="4.73762">
        <ele>176</ele>
        <time>2018-08-08T09:40:13Z</time>
      </trkpt>
      <trkpt lat="46.0693" lon="4.73759">
        <ele>177</ele>
        <time>2018-08-08T09:40:14Z</time>
      </trkpt>
      <trkpt lat="46.06926" lon="4.73753">
        <ele>177</ele>
        <time>2018-08-08T09:40:15Z</time>
      </trkpt>
      <trkpt lat="46.06922" lon="4.73748">
        <ele>177</ele>
        <time>2018-08-08T09:40:16Z</time>
      </trkpt>
      <trkpt lat="46.06916" lon="4.73744">
        <ele>177</ele>
        <time>2018-08-08T09:40:17Z</time>
      </trkpt>
      <trkpt lat="46.06912" lon="4.73737">
        <ele>177</ele>
        <time>2018-08-08T09:40:18Z</time>
      </trkpt>
      <trkpt lat="46.06908" lon="4.73731">
        <ele>177</ele>
        <time>2018-08-08T09:40:19Z</time>
      </trkpt>
      <trkpt lat="46.06904" lon="4.73725">
        <ele>176</ele>
        <time>2018-08-08T09:40:20Z</time>
      </trkpt>
      <trkpt lat="46.06901" lon="4.73719">
        <ele>176</ele>
        <time>2018-08-08T09:40:21Z</time>
      </trkpt>
      <trkpt lat="46.06897" lon="4.73713">
        <ele>176</ele>
        <time>2018-08-08T09:40:22Z</time>
      </trkpt>
      <trkpt lat="46.06893" lon="4.73707">
        <ele>176</ele>
        <time>2018-08-08T09:40:23Z</time>
      </trkpt>
      <trkpt lat="46.06888" lon="4.73701">
        <ele>176</ele>
        <time>2018-08-08T09:40:24Z</time>
      </trkpt>
      <trkpt lat="46.06884" lon="4.73696">
        <ele>176</ele>
        <time>2018-08-08T09:40:25Z</time>
      </trkpt>
      <trkpt lat="46.0688" lon="4.73692">
        <ele>176</ele>
        <time>2018-08-08T09:40:26Z</time>
      </trkpt>
      <trkpt lat="46.06875" lon="4.73687">
        <ele>176</ele>
        <time>2018-08-08T09:40:27Z</time>
      </trkpt>
      <trkpt lat="46.0687" lon="4.73683">
        <ele>176</ele>
        <time>2018-08-08T09:40:28Z</time>
      </trkpt>
      <trkpt lat="46.06866" lon="4.73679">
        <ele>176</ele>
        <time>2018-08-08T09:40:29Z</time>
      </trkpt>
      <trkpt lat="46.06861" lon="4.73673">
        <ele>176</ele>
        <time>2018-08-08T09:40:30Z</time>
      </trkpt>
      <trkpt lat="46.06856" lon="4.73669">
        <ele>176</ele>
        <time>2018-08-08T09:40:31Z</time>
      </trkpt>
      <trkpt lat="46.06851" lon="4.73664">
        <ele>176</ele>
        <time>2018-08-08T09:40:32Z</time>
      </trkpt>
      <trkpt lat="46.06847" lon="4.73659">
        <ele>176</ele>
        <time>2018-08-08T09:40:33Z</time>
      </trkpt>
      <trkpt lat="46.06843" lon="4.73653">
        <ele>176</ele>
        <time>2018-08-08T09:40:34Z</time>
      </trkpt>
      <trkpt lat="46.06839" lon="4.73648">
        <ele>176</ele>
        <time>2018-08-08T09:40:35Z</time>
      </trkpt>
      <trkpt lat="46.06833" lon="4.73643">
        <ele>177</ele>
        <time>2018-08-08T09:40:36Z</time>
      </trkpt>
      <trkpt lat="46.06828" lon="4.73638">
        <ele>178</ele>
        <time>2018-08-08T09:40:37Z</time>
      </trkpt>
      <trkpt lat="46.06823" lon="4.73632">
        <ele>178</ele>
        <time>2018-08-08T09:40:38Z</time>
      </trkpt>
      <trkpt lat="46.06819" lon="4.73626">
        <ele>178</ele>
        <time>2018-08-08T09:40:39Z</time>
      </trkpt>
      <trkpt lat="46.06814" lon="4.73621">
        <ele>178</ele>
        <time>2018-08-08T09:40:40Z</time>
      </trkpt>
      <trkpt lat="46.06809" lon="4.73616">
        <ele>178</ele>
        <time>2018-08-08T09:40:41Z</time>
      </trkpt>
      <trkpt lat="46.06805" lon="4.7361">
        <ele>178</ele>
        <time>2018-08-08T09:40:42Z</time>
      </trkpt>
      <trkpt lat="46.06801" lon="4.73605">
        <ele>178</ele>
        <time>2018-08-08T09:40:43Z</time>
      </trkpt>
      <trkpt lat="46.06797" lon="4.736">
        <ele>178</ele>
        <time>2018-08-08T09:40:44Z</time>
      </trkpt>
      <trkpt lat="46.06792" lon="4.73594">
        <ele>179</ele>
        <time>2018-08-08T09:40:45Z</time>
      </trkpt>
      <trkpt lat="46.06789" lon="4.73589">
        <ele>179</ele>
        <time>2018-08-08T09:40:46Z</time>
      </trkpt>
      <trkpt lat="46.06785" lon="4.73584">
        <ele>179</ele>
        <time>2018-08-08T09:40:47Z</time>
      </trkpt>
      <trkpt lat="46.06782" lon="4.73578">
        <ele>179</ele>
        <time>2018-08-08T09:40:48Z</time>
      </trkpt>
      <trkpt lat="46.06778" lon="4.73573">
        <ele>179</ele>
        <time>2018-08-08T09:40:49Z</time>
      </trkpt>
      <trkpt lat="46.06776" lon="4.73566">
        <ele>179</ele>
        <time>2018-08-08T09:40:50Z</time>
      </trkpt>
      <trkpt lat="46.06773" lon="4.73561">
        <ele>179</ele>
        <time>2018-08-08T09:40:51Z</time>
      </trkpt>
      <trkpt lat="46.06771" lon="4.73554">
        <ele>179</ele>
        <time>2018-08-08T09:40:52Z</time>
      </trkpt>
      <trkpt lat="46.06768" lon="4.73547">
        <ele>179</ele>
        <time>2018-08-08T09:40:53Z</time>
      </trkpt>
      <trkpt lat="46.06765" lon="4.7354">
        <ele>179</ele>
        <time>2018-08-08T09:40:54Z</time>
      </trkpt>
      <trkpt lat="46.06763" lon="4.73533">
        <ele>179</ele>
        <time>2018-08-08T09:40:55Z</time>
      </trkpt>
      <trkpt lat="46.06761" lon="4.73527">
        <ele>179</ele>
        <time>2018-08-08T09:40:56Z</time>
      </trkpt>
      <trkpt lat="46.06758" lon="4.73521">
        <ele>179</ele>
        <time>2018-08-08T09:40:57Z</time>
      </trkpt>
      <trkpt lat="46.06756" lon="4.73515">
        <ele>179</ele>
        <time>2018-08-08T09:40:58Z</time>
      </trkpt>
      <trkpt lat="46.0675" lon="4.73509">
        <ele>179</ele>
        <time>2018-08-08T09:40:59Z</time>
      </trkpt>
      <trkpt lat="46.06746" lon="4.73504">
        <ele>179</ele>
        <time>2018-08-08T09:41:00Z</time>
      </trkpt>
      <trkpt lat="46.06742" lon="4.735">
        <ele>179</ele>
        <time>2018-08-08T09:41:01Z</time>
      </trkpt>
      <trkpt lat="46.06737" lon="4.73496">
        <ele>180</ele>
        <time>2018-08-08T09:41:02Z</time>
      </trkpt>
      <trkpt lat="46.06732" lon="4.73492">
        <ele>180</ele>
        <time>2018-08-08T09:41:03Z</time>
      </trkpt>
      <trkpt lat="46.06728" lon="4.73488">
        <ele>180</ele>
        <time>2018-08-08T09:41:04Z</time>
      </trkpt>
      <trkpt lat="46.06723" lon="4.73483">
        <ele>180</ele>
        <time>2018-08-08T09:41:05Z</time>
      </trkpt>
      <trkpt lat="46.0672" lon="4.73476">
        <ele>180</ele>
        <time>2018-08-08T09:41:06Z</time>
      </trkpt>
      <trkpt lat="46.06717" lon="4.73469">
        <ele>180</ele>
        <time>2018-08-08T09:41:07Z</time>
      </trkpt>
      <trkpt lat="46.06712" lon="4.73464">
        <ele>180</ele>
        <time>2018-08-08T09:41:08Z</time>
      </trkpt>
      <trkpt lat="46.06709" lon="4.73458">
        <ele>180</ele>
        <time>2018-08-08T09:41:09Z</time>
      </trkpt>
      <trkpt lat="46.06704" lon="4.73452">
        <ele>180</ele>
        <time>2018-08-08T09:41:10Z</time>
      </trkpt>
      <trkpt lat="46.06701" lon="4.73445">
        <ele>180</ele>
        <time>2018-08-08T09:41:11Z</time>
      </trkpt>
      <trkpt lat="46.06697" lon="4.73439">
        <ele>181</ele>
        <time>2018-08-08T09:41:12Z</time>
      </trkpt>
      <trkpt lat="46.06694" lon="4.73434">
        <ele>181</ele>
        <time>2018-08-08T09:41:13Z</time>
      </trkpt>
      <trkpt lat="46.0669" lon="4.73428">
        <ele>181</ele>
        <time>2018-08-08T09:41:14Z</time>
      </trkpt>
      <trkpt lat="46.06685" lon="4.73424">
        <ele>181</ele>
        <time>2018-08-08T09:41:15Z</time>
      </trkpt>
      <trkpt lat="46.06682" lon="4.73419">
        <ele>181</ele>
        <time>2018-08-08T09:41:16Z</time>
      </trkpt>
      <trkpt lat="46.06678" lon="4.73414">
        <ele>181</ele>
        <time>2018-08-08T09:41:17Z</time>
      </trkpt>
      <trkpt lat="46.06675" lon="4.73409">
        <ele>181</ele>
        <time>2018-08-08T09:41:18Z</time>
      </trkpt>
      <trkpt lat="46.06672" lon="4.73404">
        <ele>181</ele>
        <time>2018-08-08T09:41:19Z</time>
      </trkpt>
      <trkpt lat="46.06668" lon="4.73398">
        <ele>181</ele>
        <time>2018-08-08T09:41:20Z</time>
      </trkpt>
      <trkpt lat="46.06665" lon="4.73393">
        <ele>182</ele>
        <time>2018-08-08T09:41:21Z</time>
      </trkpt>
      <trkpt lat="46.06661" lon="4.73387">
        <ele>182</ele>
        <time>2018-08-08T09:41:22Z</time>
      </trkpt>
      <trkpt lat="46.06658" lon="4.7338">
        <ele>182</ele>
        <time>2018-08-08T09:41:23Z</time>
      </trkpt>
      <trkpt lat="46.06653" lon="4.73371">
        <ele>182</ele>
        <time>2018-08-08T09:41:25Z</time>
      </trkpt>
      <trkpt lat="46.06648" lon="4.73367">
        <ele>182</ele>
        <time>2018-08-08T09:41:26Z</time>
      </trkpt>
      <trkpt lat="46.06643" lon="4.73363">
        <ele>182</ele>
        <time>2018-08-08T09:41:27Z</time>
      </trkpt>
      <trkpt lat="46.06639" lon="4.73359">
        <ele>182</ele>
        <time>2018-08-08T09:41:28Z</time>
      </trkpt>
      <trkpt lat="46.06631" lon="4.73354">
        <ele>182</ele>
        <time>2018-08-08T09:41:30Z</time>
      </trkpt>
      <trkpt lat="46.06626" lon="4.73353">
        <ele>182</ele>
        <time>2018-08-08T09:41:31Z</time>
      </trkpt>
      <trkpt lat="46.06622" lon="4.73351">
        <ele>182</ele>
        <time>2018-08-08T09:41:32Z</time>
      </trkpt>
      <trkpt lat="46.06616" lon="4.73349">
        <ele>182</ele>
        <time>2018-08-08T09:41:33Z</time>
      </trkpt>
      <trkpt lat="46.06612" lon="4.73345">
        <ele>182</ele>
        <time>2018-08-08T09:41:34Z</time>
      </trkpt>
      <trkpt lat="46.06608" lon="4.73343">
        <ele>182</ele>
        <time>2018-08-08T09:41:35Z</time>
      </trkpt>
      <trkpt lat="46.06606" lon="4.73336">
        <ele>182</ele>
        <time>2018-08-08T09:41:36Z</time>
      </trkpt>
      <trkpt lat="46.06603" lon="4.73331">
        <ele>182</ele>
        <time>2018-08-08T09:41:37Z</time>
      </trkpt>
      <trkpt lat="46.06597" lon="4.73322">
        <ele>182</ele>
        <time>2018-08-08T09:41:39Z</time>
      </trkpt>
      <trkpt lat="46.06595" lon="4.73317">
        <ele>182</ele>
        <time>2018-08-08T09:41:40Z</time>
      </trkpt>
      <trkpt lat="46.06589" lon="4.73308">
        <ele>183</ele>
        <time>2018-08-08T09:41:42Z</time>
      </trkpt>
      <trkpt lat="46.06587" lon="4.73304">
        <ele>183</ele>
        <time>2018-08-08T09:41:43Z</time>
      </trkpt>
      <trkpt lat="46.06583" lon="4.73293">
        <ele>184</ele>
        <time>2018-08-08T09:41:45Z</time>
      </trkpt>
      <trkpt lat="46.0658" lon="4.73287">
        <ele>184</ele>
        <time>2018-08-08T09:41:46Z</time>
      </trkpt>
      <trkpt lat="46.06579" lon="4.73281">
        <ele>184</ele>
        <time>2018-08-08T09:41:47Z</time>
      </trkpt>
      <trkpt lat="46.06575" lon="4.73275">
        <ele>184</ele>
        <time>2018-08-08T09:41:48Z</time>
      </trkpt>
      <trkpt lat="46.06571" lon="4.73265">
        <ele>184</ele>
        <time>2018-08-08T09:41:50Z</time>
      </trkpt>
      <trkpt lat="46.0657" lon="4.73259">
        <ele>184</ele>
        <time>2018-08-08T09:41:51Z</time>
      </trkpt>
      <trkpt lat="46.06567" lon="4.73248">
        <ele>186</ele>
        <time>2018-08-08T09:41:53Z</time>
      </trkpt>
      <trkpt lat="46.06566" lon="4.73242">
        <ele>186</ele>
        <time>2018-08-08T09:41:54Z</time>
      </trkpt>
      <trkpt lat="46.06563" lon="4.73235">
        <ele>186</ele>
        <time>2018-08-08T09:41:55Z</time>
      </trkpt>
      <trkpt lat="46.0656" lon="4.73229">
        <ele>186</ele>
        <time>2018-08-08T09:41:56Z</time>
      </trkpt>
      <trkpt lat="46.06559" lon="4.73223">
        <ele>186</ele>
        <time>2018-08-08T09:41:57Z</time>
      </trkpt>
      <trkpt lat="46.06557" lon="4.73216">
        <ele>186</ele>
        <time>2018-08-08T09:41:58Z</time>
      </trkpt>
      <trkpt lat="46.06556" lon="4.73211">
        <ele>186</ele>
        <time>2018-08-08T09:41:59Z</time>
      </trkpt>
      <trkpt lat="46.06554" lon="4.73203">
        <ele>186</ele>
        <time>2018-08-08T09:42:00Z</time>
      </trkpt>
      <trkpt lat="46.06553" lon="4.73196">
        <ele>186</ele>
        <time>2018-08-08T09:42:01Z</time>
      </trkpt>
      <trkpt lat="46.06551" lon="4.73188">
        <ele>187</ele>
        <time>2018-08-08T09:42:02Z</time>
      </trkpt>
      <trkpt lat="46.0655" lon="4.7318">
        <ele>187</ele>
        <time>2018-08-08T09:42:03Z</time>
      </trkpt>
      <trkpt lat="46.06551" lon="4.73173">
        <ele>187</ele>
        <time>2018-08-08T09:42:04Z</time>
      </trkpt>
      <trkpt lat="46.06552" lon="4.73168">
        <ele>187</ele>
        <time>2018-08-08T09:42:05Z</time>
      </trkpt>
      <trkpt lat="46.0655" lon="4.73159">
        <ele>187</ele>
        <time>2018-08-08T09:42:06Z</time>
      </trkpt>
      <trkpt lat="46.06549" lon="4.73148">
        <ele>187</ele>
        <time>2018-08-08T09:42:08Z</time>
      </trkpt>
      <trkpt lat="46.06548" lon="4.73141">
        <ele>187</ele>
        <time>2018-08-08T09:42:09Z</time>
      </trkpt>
      <trkpt lat="46.06546" lon="4.7313">
        <ele>187</ele>
        <time>2018-08-08T09:42:11Z</time>
      </trkpt>
      <trkpt lat="46.06544" lon="4.73123">
        <ele>187</ele>
        <time>2018-08-08T09:42:12Z</time>
      </trkpt>
      <trkpt lat="46.06543" lon="4.73115">
        <ele>187</ele>
        <time>2018-08-08T09:42:13Z</time>
      </trkpt>
      <trkpt lat="46.06541" lon="4.73109">
        <ele>188</ele>
        <time>2018-08-08T09:42:14Z</time>
      </trkpt>
      <trkpt lat="46.06536" lon="4.73102">
        <ele>188</ele>
        <time>2018-08-08T09:42:15Z</time>
      </trkpt>
      <trkpt lat="46.06534" lon="4.73093">
        <ele>188</ele>
        <time>2018-08-08T09:42:16Z</time>
      </trkpt>
      <trkpt lat="46.06531" lon="4.73088">
        <ele>188</ele>
        <time>2018-08-08T09:42:17Z</time>
      </trkpt>
      <trkpt lat="46.06527" lon="4.73081">
        <ele>188</ele>
        <time>2018-08-08T09:42:18Z</time>
      </trkpt>
      <trkpt lat="46.06524" lon="4.73074">
        <ele>188</ele>
        <time>2018-08-08T09:42:19Z</time>
      </trkpt>
      <trkpt lat="46.06524" lon="4.73069">
        <ele>188</ele>
        <time>2018-08-08T09:42:20Z</time>
      </trkpt>
      <trkpt lat="46.06521" lon="4.73057">
        <ele>188</ele>
        <time>2018-08-08T09:42:22Z</time>
      </trkpt>
      <trkpt lat="46.06517" lon="4.73051">
        <ele>188</ele>
        <time>2018-08-08T09:42:23Z</time>
      </trkpt>
      <trkpt lat="46.06515" lon="4.73043">
        <ele>188</ele>
        <time>2018-08-08T09:42:24Z</time>
      </trkpt>
      <trkpt lat="46.0651" lon="4.73036">
        <ele>189</ele>
        <time>2018-08-08T09:42:25Z</time>
      </trkpt>
      <trkpt lat="46.06507" lon="4.73024">
        <ele>189</ele>
        <time>2018-08-08T09:42:27Z</time>
      </trkpt>
      <trkpt lat="46.06505" lon="4.73019">
        <ele>189</ele>
        <time>2018-08-08T09:42:28Z</time>
      </trkpt>
      <trkpt lat="46.06501" lon="4.73013">
        <ele>189</ele>
        <time>2018-08-08T09:42:29Z</time>
      </trkpt>
      <trkpt lat="46.06498" lon="4.73006">
        <ele>189</ele>
        <time>2018-08-08T09:42:30Z</time>
      </trkpt>
      <trkpt lat="46.06496" lon="4.72999">
        <ele>189</ele>
        <time>2018-08-08T09:42:31Z</time>
      </trkpt>
      <trkpt lat="46.06494" lon="4.72991">
        <ele>189</ele>
        <time>2018-08-08T09:42:32Z</time>
      </trkpt>
      <trkpt lat="46.06492" lon="4.72984">
        <ele>189</ele>
        <time>2018-08-08T09:42:33Z</time>
      </trkpt>
      <trkpt lat="46.06491" lon="4.72976">
        <ele>189</ele>
        <time>2018-08-08T09:42:34Z</time>
      </trkpt>
      <trkpt lat="46.06489" lon="4.72969">
        <ele>189</ele>
        <time>2018-08-08T09:42:35Z</time>
      </trkpt>
      <trkpt lat="46.06486" lon="4.72961">
        <ele>188</ele>
        <time>2018-08-08T09:42:36Z</time>
      </trkpt>
      <trkpt lat="46.06484" lon="4.72952">
        <ele>188</ele>
        <time>2018-08-08T09:42:37Z</time>
      </trkpt>
      <trkpt lat="46.06482" lon="4.72944">
        <ele>188</ele>
        <time>2018-08-08T09:42:38Z</time>
      </trkpt>
      <trkpt lat="46.06483" lon="4.72931">
        <ele>189</ele>
        <time>2018-08-08T09:42:40Z</time>
      </trkpt>
      <trkpt lat="46.06481" lon="4.72922">
        <ele>189</ele>
        <time>2018-08-08T09:42:41Z</time>
      </trkpt>
      <trkpt lat="46.06479" lon="4.72912">
        <ele>189</ele>
        <time>2018-08-08T09:42:42Z</time>
      </trkpt>
      <trkpt lat="46.06478" lon="4.72907">
        <ele>188</ele>
        <time>2018-08-08T09:42:43Z</time>
      </trkpt>
      <trkpt lat="46.06475" lon="4.72899">
        <ele>188</ele>
        <time>2018-08-08T09:42:44Z</time>
      </trkpt>
      <trkpt lat="46.06472" lon="4.72891">
        <ele>188</ele>
        <time>2018-08-08T09:42:45Z</time>
      </trkpt>
      <trkpt lat="46.06471" lon="4.72885">
        <ele>188</ele>
        <time>2018-08-08T09:42:46Z</time>
      </trkpt>
      <trkpt lat="46.06471" lon="4.72875">
        <ele>188</ele>
        <time>2018-08-08T09:42:47Z</time>
      </trkpt>
      <trkpt lat="46.06469" lon="4.72863">
        <ele>188</ele>
        <time>2018-08-08T09:42:49Z</time>
      </trkpt>
      <trkpt lat="46.06469" lon="4.72857">
        <ele>188</ele>
        <time>2018-08-08T09:42:50Z</time>
      </trkpt>
      <trkpt lat="46.06468" lon="4.72849">
        <ele>188</ele>
        <time>2018-08-08T09:42:51Z</time>
      </trkpt>
      <trkpt lat="46.06467" lon="4.72842">
        <ele>188</ele>
        <time>2018-08-08T09:42:52Z</time>
      </trkpt>
      <trkpt lat="46.06465" lon="4.72835">
        <ele>188</ele>
        <time>2018-08-08T09:42:53Z</time>
      </trkpt>
      <trkpt lat="46.06464" lon="4.72829">
        <ele>188</ele>
        <time>2018-08-08T09:42:54Z</time>
      </trkpt>
      <trkpt lat="46.06465" lon="4.72819">
        <ele>188</ele>
        <time>2018-08-08T09:42:55Z</time>
      </trkpt>
      <trkpt lat="46.06463" lon="4.7281">
        <ele>188</ele>
        <time>2018-08-08T09:42:56Z</time>
      </trkpt>
      <trkpt lat="46.06462" lon="4.72802">
        <ele>188</ele>
        <time>2018-08-08T09:42:57Z</time>
      </trkpt>
      <trkpt lat="46.0646" lon="4.72795">
        <ele>188</ele>
        <time>2018-08-08T09:42:58Z</time>
      </trkpt>
      <trkpt lat="46.06459" lon="4.72788">
        <ele>188</ele>
        <time>2018-08-08T09:42:59Z</time>
      </trkpt>
      <trkpt lat="46.06458" lon="4.7278">
        <ele>188</ele>
        <time>2018-08-08T09:43:00Z</time>
      </trkpt>
      <trkpt lat="46.06457" lon="4.72772">
        <ele>188</ele>
        <time>2018-08-08T09:43:01Z</time>
      </trkpt>
      <trkpt lat="46.06456" lon="4.72765">
        <ele>188</ele>
        <time>2018-08-08T09:43:02Z</time>
      </trkpt>
      <trkpt lat="46.06455" lon="4.72758">
        <ele>188</ele>
        <time>2018-08-08T09:43:03Z</time>
      </trkpt>
      <trkpt lat="46.06453" lon="4.7275">
        <ele>189</ele>
        <time>2018-08-08T09:43:04Z</time>
      </trkpt>
      <trkpt lat="46.06452" lon="4.72742">
        <ele>189</ele>
        <time>2018-08-08T09:43:05Z</time>
      </trkpt>
      <trkpt lat="46.0645" lon="4.72735">
        <ele>189</ele>
        <time>2018-08-08T09:43:06Z</time>
      </trkpt>
      <trkpt lat="46.06449" lon="4.72728">
        <ele>189</ele>
        <time>2018-08-08T09:43:07Z</time>
      </trkpt>
      <trkpt lat="46.06448" lon="4.7272">
        <ele>190</ele>
        <time>2018-08-08T09:43:08Z</time>
      </trkpt>
      <trkpt lat="46.06446" lon="4.72712">
        <ele>190</ele>
        <time>2018-08-08T09:43:09Z</time>
      </trkpt>
      <trkpt lat="46.06444" lon="4.72706">
        <ele>190</ele>
        <time>2018-08-08T09:43:10Z</time>
      </trkpt>
      <trkpt lat="46.06443" lon="4.72699">
        <ele>190</ele>
        <time>2018-08-08T09:43:11Z</time>
      </trkpt>
      <trkpt lat="46.06441" lon="4.72692">
        <ele>190</ele>
        <time>2018-08-08T09:43:12Z</time>
      </trkpt>
      <trkpt lat="46.06439" lon="4.72685">
        <ele>190</ele>
        <time>2018-08-08T09:43:13Z</time>
      </trkpt>
      <trkpt lat="46.06439" lon="4.72679">
        <ele>191</ele>
        <time>2018-08-08T09:43:14Z</time>
      </trkpt>
      <trkpt lat="46.06438" lon="4.72668">
        <ele>191</ele>
        <time>2018-08-08T09:43:16Z</time>
      </trkpt>
      <trkpt lat="46.06436" lon="4.72661">
        <ele>192</ele>
        <time>2018-08-08T09:43:17Z</time>
      </trkpt>
      <trkpt lat="46.06434" lon="4.72649">
        <ele>192</ele>
        <time>2018-08-08T09:43:19Z</time>
      </trkpt>
      <trkpt lat="46.06432" lon="4.72643">
        <ele>192</ele>
        <time>2018-08-08T09:43:20Z</time>
      </trkpt>
      <trkpt lat="46.06432" lon="4.72632">
        <ele>192</ele>
        <time>2018-08-08T09:43:22Z</time>
      </trkpt>
      <trkpt lat="46.06428" lon="4.72627">
        <ele>193</ele>
        <time>2018-08-08T09:43:23Z</time>
      </trkpt>
      <trkpt lat="46.06424" lon="4.72616">
        <ele>193</ele>
        <time>2018-08-08T09:43:25Z</time>
      </trkpt>
      <trkpt lat="46.06424" lon="4.7261">
        <ele>193</ele>
        <time>2018-08-08T09:43:26Z</time>
      </trkpt>
      <trkpt lat="46.06424" lon="4.72602">
        <ele>193</ele>
        <time>2018-08-08T09:43:28Z</time>
      </trkpt>
      <trkpt lat="46.06423" lon="4.72594">
        <ele>194</ele>
        <time>2018-08-08T09:43:29Z</time>
      </trkpt>
      <trkpt lat="46.06423" lon="4.72584">
        <ele>194</ele>
        <time>2018-08-08T09:43:31Z</time>
      </trkpt>
      <trkpt lat="46.06422" lon="4.72578">
        <ele>195</ele>
        <time>2018-08-08T09:43:32Z</time>
      </trkpt>
      <trkpt lat="46.06421" lon="4.72568">
        <ele>195</ele>
        <time>2018-08-08T09:43:34Z</time>
      </trkpt>
      <trkpt lat="46.0642" lon="4.72562">
        <ele>195</ele>
        <time>2018-08-08T09:43:35Z</time>
      </trkpt>
      <trkpt lat="46.06419" lon="4.72552">
        <ele>196</ele>
        <time>2018-08-08T09:43:37Z</time>
      </trkpt>
      <trkpt lat="46.06418" lon="4.72546">
        <ele>196</ele>
        <time>2018-08-08T09:43:38Z</time>
      </trkpt>
      <trkpt lat="46.06417" lon="4.72534">
        <ele>197</ele>
        <time>2018-08-08T09:43:40Z</time>
      </trkpt>
      <trkpt lat="46.06416" lon="4.72528">
        <ele>197</ele>
        <time>2018-08-08T09:43:41Z</time>
      </trkpt>
      <trkpt lat="46.06415" lon="4.72518">
        <ele>198</ele>
        <time>2018-08-08T09:43:43Z</time>
      </trkpt>
      <trkpt lat="46.06415" lon="4.72512">
        <ele>198</ele>
        <time>2018-08-08T09:43:44Z</time>
      </trkpt>
      <trkpt lat="46.06413" lon="4.72502">
        <ele>199</ele>
        <time>2018-08-08T09:43:46Z</time>
      </trkpt>
      <trkpt lat="46.06412" lon="4.72499">
        <ele>199</ele>
        <time>2018-08-08T09:43:47Z</time>
      </trkpt>
      <trkpt lat="46.06411" lon="4.72492">
        <ele>199</ele>
        <time>2018-08-08T09:43:48Z</time>
      </trkpt>
      <trkpt lat="46.0641" lon="4.72486">
        <ele>199</ele>
        <time>2018-08-08T09:43:49Z</time>
      </trkpt>
      <trkpt lat="46.06406" lon="4.72477">
        <ele>198</ele>
        <time>2018-08-08T09:43:51Z</time>
      </trkpt>
      <trkpt lat="46.06403" lon="4.72472">
        <ele>198</ele>
        <time>2018-08-08T09:43:52Z</time>
      </trkpt>
      <trkpt lat="46.064" lon="4.72465">
        <ele>197</ele>
        <time>2018-08-08T09:43:54Z</time>
      </trkpt>
      <trkpt lat="46.06398" lon="4.72459">
        <ele>197</ele>
        <time>2018-08-08T09:43:55Z</time>
      </trkpt>
      <trkpt lat="46.06394" lon="4.7245">
        <ele>197</ele>
        <time>2018-08-08T09:43:57Z</time>
      </trkpt>
      <trkpt lat="46.06392" lon="4.72444">
        <ele>197</ele>
        <time>2018-08-08T09:43:58Z</time>
      </trkpt>
      <trkpt lat="46.06388" lon="4.72433">
        <ele>197</ele>
        <time>2018-08-08T09:44:00Z</time>
      </trkpt>
      <trkpt lat="46.06383" lon="4.72428">
        <ele>197</ele>
        <time>2018-08-08T09:44:01Z</time>
      </trkpt>
      <trkpt lat="46.06378" lon="4.72418">
        <ele>197</ele>
        <time>2018-08-08T09:44:03Z</time>
      </trkpt>
      <trkpt lat="46.06375" lon="4.72413">
        <ele>196</ele>
        <time>2018-08-08T09:44:04Z</time>
      </trkpt>
      <trkpt lat="46.06372" lon="4.72403">
        <ele>196</ele>
        <time>2018-08-08T09:44:06Z</time>
      </trkpt>
      <trkpt lat="46.06369" lon="4.72397">
        <ele>196</ele>
        <time>2018-08-08T09:44:07Z</time>
      </trkpt>
      <trkpt lat="46.06369" lon="4.72386">
        <ele>196</ele>
        <time>2018-08-08T09:44:09Z</time>
      </trkpt>
      <trkpt lat="46.06371" lon="4.72381">
        <ele>196</ele>
        <time>2018-08-08T09:44:10Z</time>
      </trkpt>
      <trkpt lat="46.06372" lon="4.72372">
        <ele>196</ele>
        <time>2018-08-08T09:44:12Z</time>
      </trkpt>
      <trkpt lat="46.06375" lon="4.72365">
        <ele>195</ele>
        <time>2018-08-08T09:44:13Z</time>
      </trkpt>
      <trkpt lat="46.06378" lon="4.72354">
        <ele>195</ele>
        <time>2018-08-08T09:44:15Z</time>
      </trkpt>
      <trkpt lat="46.06378" lon="4.72347">
        <ele>195</ele>
        <time>2018-08-08T09:44:16Z</time>
      </trkpt>
      <trkpt lat="46.06377" lon="4.72338">
        <ele>195</ele>
        <time>2018-08-08T09:44:17Z</time>
      </trkpt>
      <trkpt lat="46.06376" lon="4.72329">
        <ele>194</ele>
        <time>2018-08-08T09:44:18Z</time>
      </trkpt>
      <trkpt lat="46.06373" lon="4.7232">
        <ele>193</ele>
        <time>2018-08-08T09:44:19Z</time>
      </trkpt>
      <trkpt lat="46.06374" lon="4.72313">
        <ele>193</ele>
        <time>2018-08-08T09:44:20Z</time>
      </trkpt>
      <trkpt lat="46.06376" lon="4.72302">
        <ele>193</ele>
        <time>2018-08-08T09:44:24Z</time>
      </trkpt>
      <trkpt lat="46.06378" lon="4.723">
        <ele>193</ele>
        <time>2018-08-08T09:44:25Z</time>
      </trkpt>
      <trkpt lat="46.06382" lon="4.72292">
        <ele>193</ele>
        <time>2018-08-08T09:44:28Z</time>
      </trkpt>
      <trkpt lat="46.06388" lon="4.72285">
        <ele>193</ele>
        <time>2018-08-08T09:44:29Z</time>
      </trkpt>
      <trkpt lat="46.06397" lon="4.72284">
        <ele>192</ele>
        <time>2018-08-08T09:44:32Z</time>
      </trkpt>
      <trkpt lat="46.06398" lon="4.72283">
        <ele>192</ele>
        <time>2018-08-08T09:44:33Z</time>
      </trkpt>
      <trkpt lat="46.06405" lon="4.72283">
        <ele>192</ele>
        <time>2018-08-08T09:44:37Z</time>
      </trkpt>
      <trkpt lat="46.06408" lon="4.72283">
        <ele>192</ele>
        <time>2018-08-08T09:44:38Z</time>
      </trkpt>
      <trkpt lat="46.06416" lon="4.72285">
        <ele>192</ele>
        <time>2018-08-08T09:44:39Z</time>
      </trkpt>
      <trkpt lat="46.06419" lon="4.72286">
        <ele>190</ele>
        <time>2018-08-08T09:44:40Z</time>
      </trkpt>
      <trkpt lat="46.06428" lon="4.72288">
        <ele>190</ele>
        <time>2018-08-08T09:44:44Z</time>
      </trkpt>
      <trkpt lat="46.0643" lon="4.72287">
        <ele>190</ele>
        <time>2018-08-08T09:44:45Z</time>
      </trkpt>
      <trkpt lat="46.06429" lon="4.72268">
        <ele>190</ele>
        <time>2018-08-08T09:44:46Z</time>
      </trkpt>
      <trkpt lat="46.06427" lon="4.72261">
        <ele>189</ele>
        <time>2018-08-08T09:44:47Z</time>
      </trkpt>
      <trkpt lat="46.06426" lon="4.72256">
        <ele>189</ele>
        <time>2018-08-08T09:44:48Z</time>
      </trkpt>
      <trkpt lat="46.0642" lon="4.72247">
        <ele>189</ele>
        <time>2018-08-08T09:44:50Z</time>
      </trkpt>
      <trkpt lat="46.06418" lon="4.72241">
        <ele>188</ele>
        <time>2018-08-08T09:44:51Z</time>
      </trkpt>
      <trkpt lat="46.06415" lon="4.72236">
        <ele>189</ele>
        <time>2018-08-08T09:44:52Z</time>
      </trkpt>
      <trkpt lat="46.06413" lon="4.7223">
        <ele>190</ele>
        <time>2018-08-08T09:44:53Z</time>
      </trkpt>
      <trkpt lat="46.06409" lon="4.72225">
        <ele>190</ele>
        <time>2018-08-08T09:44:54Z</time>
      </trkpt>
      <trkpt lat="46.06407" lon="4.72216">
        <ele>190</ele>
        <time>2018-08-08T09:44:55Z</time>
      </trkpt>
      <trkpt lat="46.06405" lon="4.72209">
        <ele>190</ele>
        <time>2018-08-08T09:44:56Z</time>
      </trkpt>
      <trkpt lat="46.06404" lon="4.72199">
        <ele>189</ele>
        <time>2018-08-08T09:44:57Z</time>
      </trkpt>
      <trkpt lat="46.06405" lon="4.7219">
        <ele>189</ele>
        <time>2018-08-08T09:44:58Z</time>
      </trkpt>
      <trkpt lat="46.06401" lon="4.72184">
        <ele>189</ele>
        <time>2018-08-08T09:44:59Z</time>
      </trkpt>
      <trkpt lat="46.06402" lon="4.72176">
        <ele>189</ele>
        <time>2018-08-08T09:45:00Z</time>
      </trkpt>
      <trkpt lat="46.06398" lon="4.72165">
        <ele>188</ele>
        <time>2018-08-08T09:45:01Z</time>
      </trkpt>
      <trkpt lat="46.06394" lon="4.72156">
        <ele>188</ele>
        <time>2018-08-08T09:45:02Z</time>
      </trkpt>
      <trkpt lat="46.06392" lon="4.72145">
        <ele>188</ele>
        <time>2018-08-08T09:45:03Z</time>
      </trkpt>
      <trkpt lat="46.06387" lon="4.72137">
        <ele>189</ele>
        <time>2018-08-08T09:45:04Z</time>
      </trkpt>
      <trkpt lat="46.06384" lon="4.72128">
        <ele>189</ele>
        <time>2018-08-08T09:45:05Z</time>
      </trkpt>
      <trkpt lat="46.06381" lon="4.7212">
        <ele>189</ele>
        <time>2018-08-08T09:45:06Z</time>
      </trkpt>
      <trkpt lat="46.06377" lon="4.72111">
        <ele>189</ele>
        <time>2018-08-08T09:45:07Z</time>
      </trkpt>
      <trkpt lat="46.06373" lon="4.72102">
        <ele>189</ele>
        <time>2018-08-08T09:45:08Z</time>
      </trkpt>
      <trkpt lat="46.06374" lon="4.72094">
        <ele>189</ele>
        <time>2018-08-08T09:45:09Z</time>
      </trkpt>
      <trkpt lat="46.0637" lon="4.72086">
        <ele>189</ele>
        <time>2018-08-08T09:45:10Z</time>
      </trkpt>
      <trkpt lat="46.0637" lon="4.7208">
        <ele>189</ele>
        <time>2018-08-08T09:45:11Z</time>
      </trkpt>
      <trkpt lat="46.06366" lon="4.72071">
        <ele>189</ele>
        <time>2018-08-08T09:45:12Z</time>
      </trkpt>
      <trkpt lat="46.06364" lon="4.72064">
        <ele>189</ele>
        <time>2018-08-08T09:45:13Z</time>
      </trkpt>
      <trkpt lat="46.06362" lon="4.72056">
        <ele>189</ele>
        <time>2018-08-08T09:45:14Z</time>
      </trkpt>
      <trkpt lat="46.0636" lon="4.72049">
        <ele>189</ele>
        <time>2018-08-08T09:45:15Z</time>
      </trkpt>
      <trkpt lat="46.06358" lon="4.72042">
        <ele>189</ele>
        <time>2018-08-08T09:45:16Z</time>
      </trkpt>
      <trkpt lat="46.06357" lon="4.72035">
        <ele>189</ele>
        <time>2018-08-08T09:45:17Z</time>
      </trkpt>
      <trkpt lat="46.06356" lon="4.72028">
        <ele>189</ele>
        <time>2018-08-08T09:45:18Z</time>
      </trkpt>
      <trkpt lat="46.06351" lon="4.72022">
        <ele>189</ele>
        <time>2018-08-08T09:45:19Z</time>
      </trkpt>
      <trkpt lat="46.06349" lon="4.72015">
        <ele>189</ele>
        <time>2018-08-08T09:45:20Z</time>
      </trkpt>
      <trkpt lat="46.06347" lon="4.72008">
        <ele>189</ele>
        <time>2018-08-08T09:45:21Z</time>
      </trkpt>
      <trkpt lat="46.06343" lon="4.72">
        <ele>189</ele>
        <time>2018-08-08T09:45:22Z</time>
      </trkpt>
      <trkpt lat="46.0634" lon="4.71994">
        <ele>189</ele>
        <time>2018-08-08T09:45:23Z</time>
      </trkpt>
      <trkpt lat="46.06336" lon="4.71986">
        <ele>189</ele>
        <time>2018-08-08T09:45:24Z</time>
      </trkpt>
      <trkpt lat="46.06334" lon="4.71978">
        <ele>189</ele>
        <time>2018-08-08T09:45:25Z</time>
      </trkpt>
      <trkpt lat="46.06331" lon="4.71968">
        <ele>190</ele>
        <time>2018-08-08T09:45:26Z</time>
      </trkpt>
      <trkpt lat="46.06332" lon="4.71962">
        <ele>190</ele>
        <time>2018-08-08T09:45:27Z</time>
      </trkpt>
      <trkpt lat="46.0633" lon="4.71955">
        <ele>190</ele>
        <time>2018-08-08T09:45:28Z</time>
      </trkpt>
      <trkpt lat="46.06328" lon="4.71948">
        <ele>190</ele>
        <time>2018-08-08T09:45:29Z</time>
      </trkpt>
      <trkpt lat="46.06325" lon="4.71941">
        <ele>190</ele>
        <time>2018-08-08T09:45:30Z</time>
      </trkpt>
      <trkpt lat="46.06322" lon="4.71933">
        <ele>190</ele>
        <time>2018-08-08T09:45:31Z</time>
      </trkpt>
      <trkpt lat="46.06319" lon="4.71925">
        <ele>190</ele>
        <time>2018-08-08T09:45:32Z</time>
      </trkpt>
      <trkpt lat="46.06318" lon="4.71916">
        <ele>189</ele>
        <time>2018-08-08T09:45:33Z</time>
      </trkpt>
      <trkpt lat="46.06312" lon="4.71908">
        <ele>189</ele>
        <time>2018-08-08T09:45:34Z</time>
      </trkpt>
      <trkpt lat="46.06308" lon="4.71899">
        <ele>189</ele>
        <time>2018-08-08T09:45:35Z</time>
      </trkpt>
      <trkpt lat="46.06307" lon="4.7189">
        <ele>189</ele>
        <time>2018-08-08T09:45:36Z</time>
      </trkpt>
      <trkpt lat="46.06305" lon="4.7188">
        <ele>189</ele>
        <time>2018-08-08T09:45:37Z</time>
      </trkpt>
      <trkpt lat="46.06305" lon="4.71875">
        <ele>189</ele>
        <time>2018-08-08T09:45:38Z</time>
      </trkpt>
      <trkpt lat="46.06302" lon="4.71866">
        <ele>189</ele>
        <time>2018-08-08T09:45:39Z</time>
      </trkpt>
      <trkpt lat="46.06302" lon="4.7186">
        <ele>189</ele>
        <time>2018-08-08T09:45:40Z</time>
      </trkpt>
      <trkpt lat="46.06297" lon="4.71853">
        <ele>189</ele>
        <time>2018-08-08T09:45:41Z</time>
      </trkpt>
      <trkpt lat="46.06296" lon="4.71845">
        <ele>189</ele>
        <time>2018-08-08T09:45:42Z</time>
      </trkpt>
      <trkpt lat="46.06294" lon="4.71836">
        <ele>189</ele>
        <time>2018-08-08T09:45:43Z</time>
      </trkpt>
      <trkpt lat="46.06291" lon="4.71829">
        <ele>189</ele>
        <time>2018-08-08T09:45:44Z</time>
      </trkpt>
      <trkpt lat="46.0629" lon="4.71823">
        <ele>189</ele>
        <time>2018-08-08T09:45:45Z</time>
      </trkpt>
      <trkpt lat="46.06291" lon="4.71815">
        <ele>189</ele>
        <time>2018-08-08T09:45:46Z</time>
      </trkpt>
      <trkpt lat="46.06292" lon="4.71808">
        <ele>189</ele>
        <time>2018-08-08T09:45:47Z</time>
      </trkpt>
      <trkpt lat="46.06288" lon="4.718">
        <ele>189</ele>
        <time>2018-08-08T09:45:49Z</time>
      </trkpt>
      <trkpt lat="46.06284" lon="4.71797">
        <ele>190</ele>
        <time>2018-08-08T09:45:50Z</time>
      </trkpt>
      <trkpt lat="46.06281" lon="4.7179">
        <ele>190</ele>
        <time>2018-08-08T09:45:51Z</time>
      </trkpt>
      <trkpt lat="46.0628" lon="4.71783">
        <ele>190</ele>
        <time>2018-08-08T09:45:52Z</time>
      </trkpt>
      <trkpt lat="46.06278" lon="4.71772">
        <ele>190</ele>
        <time>2018-08-08T09:45:54Z</time>
      </trkpt>
      <trkpt lat="46.06275" lon="4.71766">
        <ele>190</ele>
        <time>2018-08-08T09:45:55Z</time>
      </trkpt>
      <trkpt lat="46.06275" lon="4.71759">
        <ele>190</ele>
        <time>2018-08-08T09:45:56Z</time>
      </trkpt>
      <trkpt lat="46.0627" lon="4.71753">
        <ele>190</ele>
        <time>2018-08-08T09:45:57Z</time>
      </trkpt>
      <trkpt lat="46.0627" lon="4.71746">
        <ele>190</ele>
        <time>2018-08-08T09:45:58Z</time>
      </trkpt>
      <trkpt lat="46.06268" lon="4.71738">
        <ele>190</ele>
        <time>2018-08-08T09:45:59Z</time>
      </trkpt>
      <trkpt lat="46.06263" lon="4.71728">
        <ele>190</ele>
        <time>2018-08-08T09:46:01Z</time>
      </trkpt>
      <trkpt lat="46.0626" lon="4.71722">
        <ele>190</ele>
        <time>2018-08-08T09:46:02Z</time>
      </trkpt>
      <trkpt lat="46.06258" lon="4.71715">
        <ele>190</ele>
        <time>2018-08-08T09:46:03Z</time>
      </trkpt>
      <trkpt lat="46.06256" lon="4.71707">
        <ele>190</ele>
        <time>2018-08-08T09:46:04Z</time>
      </trkpt>
      <trkpt lat="46.06252" lon="4.717">
        <ele>190</ele>
        <time>2018-08-08T09:46:05Z</time>
      </trkpt>
      <trkpt lat="46.06251" lon="4.71693">
        <ele>190</ele>
        <time>2018-08-08T09:46:06Z</time>
      </trkpt>
      <trkpt lat="46.06247" lon="4.71686">
        <ele>191</ele>
        <time>2018-08-08T09:46:07Z</time>
      </trkpt>
      <trkpt lat="46.06245" lon="4.71679">
        <ele>191</ele>
        <time>2018-08-08T09:46:08Z</time>
      </trkpt>
      <trkpt lat="46.06244" lon="4.71673">
        <ele>191</ele>
        <time>2018-08-08T09:46:09Z</time>
      </trkpt>
      <trkpt lat="46.06241" lon="4.71667">
        <ele>191</ele>
        <time>2018-08-08T09:46:10Z</time>
      </trkpt>
      <trkpt lat="46.06236" lon="4.71657">
        <ele>191</ele>
        <time>2018-08-08T09:46:12Z</time>
      </trkpt>
      <trkpt lat="46.06234" lon="4.71651">
        <ele>191</ele>
        <time>2018-08-08T09:46:13Z</time>
      </trkpt>
      <trkpt lat="46.0623" lon="4.71646">
        <ele>191</ele>
        <time>2018-08-08T09:46:14Z</time>
      </trkpt>
      <trkpt lat="46.06229" lon="4.71641">
        <ele>191</ele>
        <time>2018-08-08T09:46:15Z</time>
      </trkpt>
      <trkpt lat="46.06223" lon="4.71635">
        <ele>191</ele>
        <time>2018-08-08T09:46:16Z</time>
      </trkpt>
      <trkpt lat="46.06219" lon="4.7163">
        <ele>191</ele>
        <time>2018-08-08T09:46:17Z</time>
      </trkpt>
      <trkpt lat="46.06216" lon="4.71625">
        <ele>191</ele>
        <time>2018-08-08T09:46:18Z</time>
      </trkpt>
      <trkpt lat="46.06212" lon="4.71619">
        <ele>191</ele>
        <time>2018-08-08T09:46:19Z</time>
      </trkpt>
      <trkpt lat="46.06208" lon="4.71608">
        <ele>191</ele>
        <time>2018-08-08T09:46:21Z</time>
      </trkpt>
      <trkpt lat="46.06206" lon="4.71603">
        <ele>191</ele>
        <time>2018-08-08T09:46:22Z</time>
      </trkpt>
      <trkpt lat="46.06202" lon="4.71598">
        <ele>191</ele>
        <time>2018-08-08T09:46:23Z</time>
      </trkpt>
      <trkpt lat="46.06199" lon="4.71592">
        <ele>191</ele>
        <time>2018-08-08T09:46:24Z</time>
      </trkpt>
      <trkpt lat="46.06197" lon="4.71588">
        <ele>191</ele>
        <time>2018-08-08T09:46:25Z</time>
      </trkpt>
      <trkpt lat="46.06193" lon="4.71582">
        <ele>191</ele>
        <time>2018-08-08T09:46:26Z</time>
      </trkpt>
      <trkpt lat="46.06189" lon="4.71576">
        <ele>191</ele>
        <time>2018-08-08T09:46:27Z</time>
      </trkpt>
      <trkpt lat="46.06186" lon="4.71571">
        <ele>191</ele>
        <time>2018-08-08T09:46:28Z</time>
      </trkpt>
      <trkpt lat="46.06182" lon="4.71565">
        <ele>191</ele>
        <time>2018-08-08T09:46:29Z</time>
      </trkpt>
      <trkpt lat="46.06177" lon="4.7156">
        <ele>191</ele>
        <time>2018-08-08T09:46:30Z</time>
      </trkpt>
      <trkpt lat="46.06172" lon="4.71555">
        <ele>191</ele>
        <time>2018-08-08T09:46:31Z</time>
      </trkpt>
      <trkpt lat="46.06167" lon="4.7155">
        <ele>191</ele>
        <time>2018-08-08T09:46:32Z</time>
      </trkpt>
      <trkpt lat="46.06163" lon="4.71545">
        <ele>192</ele>
        <time>2018-08-08T09:46:33Z</time>
      </trkpt>
      <trkpt lat="46.06159" lon="4.7154">
        <ele>192</ele>
        <time>2018-08-08T09:46:34Z</time>
      </trkpt>
      <trkpt lat="46.06155" lon="4.71536">
        <ele>192</ele>
        <time>2018-08-08T09:46:35Z</time>
      </trkpt>
      <trkpt lat="46.06152" lon="4.71531">
        <ele>192</ele>
        <time>2018-08-08T09:46:36Z</time>
      </trkpt>
      <trkpt lat="46.06146" lon="4.71523">
        <ele>192</ele>
        <time>2018-08-08T09:46:38Z</time>
      </trkpt>
      <trkpt lat="46.06145" lon="4.71517">
        <ele>192</ele>
        <time>2018-08-08T09:46:39Z</time>
      </trkpt>
      <trkpt lat="46.06141" lon="4.71511">
        <ele>192</ele>
        <time>2018-08-08T09:46:40Z</time>
      </trkpt>
      <trkpt lat="46.06138" lon="4.71506">
        <ele>192</ele>
        <time>2018-08-08T09:46:41Z</time>
      </trkpt>
      <trkpt lat="46.06136" lon="4.715">
        <ele>192</ele>
        <time>2018-08-08T09:46:42Z</time>
      </trkpt>
      <trkpt lat="46.06134" lon="4.71494">
        <ele>192</ele>
        <time>2018-08-08T09:46:43Z</time>
      </trkpt>
      <trkpt lat="46.06131" lon="4.71487">
        <ele>192</ele>
        <time>2018-08-08T09:46:44Z</time>
      </trkpt>
      <trkpt lat="46.0613" lon="4.71481">
        <ele>192</ele>
        <time>2018-08-08T09:46:45Z</time>
      </trkpt>
      <trkpt lat="46.06129" lon="4.71475">
        <ele>192</ele>
        <time>2018-08-08T09:46:46Z</time>
      </trkpt>
      <trkpt lat="46.06128" lon="4.71468">
        <ele>192</ele>
        <time>2018-08-08T09:46:47Z</time>
      </trkpt>
      <trkpt lat="46.06127" lon="4.71462">
        <ele>192</ele>
        <time>2018-08-08T09:46:48Z</time>
      </trkpt>
      <trkpt lat="46.06123" lon="4.71456">
        <ele>193</ele>
        <time>2018-08-08T09:46:49Z</time>
      </trkpt>
      <trkpt lat="46.06122" lon="4.71448">
        <ele>193</ele>
        <time>2018-08-08T09:46:50Z</time>
      </trkpt>
      <trkpt lat="46.06119" lon="4.71441">
        <ele>193</ele>
        <time>2018-08-08T09:46:51Z</time>
      </trkpt>
      <trkpt lat="46.06116" lon="4.71434">
        <ele>193</ele>
        <time>2018-08-08T09:46:52Z</time>
      </trkpt>
      <trkpt lat="46.06114" lon="4.71427">
        <ele>193</ele>
        <time>2018-08-08T09:46:53Z</time>
      </trkpt>
      <trkpt lat="46.06113" lon="4.7142">
        <ele>193</ele>
        <time>2018-08-08T09:46:54Z</time>
      </trkpt>
      <trkpt lat="46.06109" lon="4.71414">
        <ele>193</ele>
        <time>2018-08-08T09:46:55Z</time>
      </trkpt>
      <trkpt lat="46.06108" lon="4.71408">
        <ele>193</ele>
        <time>2018-08-08T09:46:56Z</time>
      </trkpt>
      <trkpt lat="46.06106" lon="4.714">
        <ele>193</ele>
        <time>2018-08-08T09:46:57Z</time>
      </trkpt>
      <trkpt lat="46.06104" lon="4.71394">
        <ele>193</ele>
        <time>2018-08-08T09:46:58Z</time>
      </trkpt>
      <trkpt lat="46.06103" lon="4.71386">
        <ele>193</ele>
        <time>2018-08-08T09:46:59Z</time>
      </trkpt>
      <trkpt lat="46.06102" lon="4.71379">
        <ele>193</ele>
        <time>2018-08-08T09:47:00Z</time>
      </trkpt>
      <trkpt lat="46.061" lon="4.71372">
        <ele>193</ele>
        <time>2018-08-08T09:47:01Z</time>
      </trkpt>
      <trkpt lat="46.06097" lon="4.71365">
        <ele>193</ele>
        <time>2018-08-08T09:47:02Z</time>
      </trkpt>
      <trkpt lat="46.06096" lon="4.71356">
        <ele>193</ele>
        <time>2018-08-08T09:47:03Z</time>
      </trkpt>
      <trkpt lat="46.06095" lon="4.7135">
        <ele>193</ele>
        <time>2018-08-08T09:47:04Z</time>
      </trkpt>
      <trkpt lat="46.06091" lon="4.71344">
        <ele>193</ele>
        <time>2018-08-08T09:47:05Z</time>
      </trkpt>
      <trkpt lat="46.06089" lon="4.71337">
        <ele>193</ele>
        <time>2018-08-08T09:47:06Z</time>
      </trkpt>
      <trkpt lat="46.0609" lon="4.71331">
        <ele>193</ele>
        <time>2018-08-08T09:47:07Z</time>
      </trkpt>
      <trkpt lat="46.06088" lon="4.7132">
        <ele>193</ele>
        <time>2018-08-08T09:47:09Z</time>
      </trkpt>
      <trkpt lat="46.06086" lon="4.71312">
        <ele>193</ele>
        <time>2018-08-08T09:47:10Z</time>
      </trkpt>
      <trkpt lat="46.06084" lon="4.71302">
        <ele>193</ele>
        <time>2018-08-08T09:47:12Z</time>
      </trkpt>
      <trkpt lat="46.0608" lon="4.71299">
        <ele>193</ele>
        <time>2018-08-08T09:47:13Z</time>
      </trkpt>
      <trkpt lat="46.06078" lon="4.71292">
        <ele>193</ele>
        <time>2018-08-08T09:47:14Z</time>
      </trkpt>
      <trkpt lat="46.06075" lon="4.71287">
        <ele>193</ele>
        <time>2018-08-08T09:47:15Z</time>
      </trkpt>
      <trkpt lat="46.06071" lon="4.71281">
        <ele>193</ele>
        <time>2018-08-08T09:47:16Z</time>
      </trkpt>
      <trkpt lat="46.06069" lon="4.71275">
        <ele>193</ele>
        <time>2018-08-08T09:47:17Z</time>
      </trkpt>
      <trkpt lat="46.06066" lon="4.71263">
        <ele>193</ele>
        <time>2018-08-08T09:47:19Z</time>
      </trkpt>
      <trkpt lat="46.06063" lon="4.71257">
        <ele>193</ele>
        <time>2018-08-08T09:47:20Z</time>
      </trkpt>
      <trkpt lat="46.06059" lon="4.7125">
        <ele>193</ele>
        <time>2018-08-08T09:47:21Z</time>
      </trkpt>
      <trkpt lat="46.06055" lon="4.71243">
        <ele>193</ele>
        <time>2018-08-08T09:47:22Z</time>
      </trkpt>
      <trkpt lat="46.06052" lon="4.71235">
        <ele>193</ele>
        <time>2018-08-08T09:47:23Z</time>
      </trkpt>
      <trkpt lat="46.0605" lon="4.71228">
        <ele>193</ele>
        <time>2018-08-08T09:47:24Z</time>
      </trkpt>
      <trkpt lat="46.06048" lon="4.7122">
        <ele>193</ele>
        <time>2018-08-08T09:47:25Z</time>
      </trkpt>
      <trkpt lat="46.06045" lon="4.71213">
        <ele>193</ele>
        <time>2018-08-08T09:47:26Z</time>
      </trkpt>
      <trkpt lat="46.06043" lon="4.71207">
        <ele>193</ele>
        <time>2018-08-08T09:47:27Z</time>
      </trkpt>
      <trkpt lat="46.0604" lon="4.71201">
        <ele>193</ele>
        <time>2018-08-08T09:47:28Z</time>
      </trkpt>
      <trkpt lat="46.06038" lon="4.71194">
        <ele>193</ele>
        <time>2018-08-08T09:47:29Z</time>
      </trkpt>
      <trkpt lat="46.06034" lon="4.71187">
        <ele>193</ele>
        <time>2018-08-08T09:47:30Z</time>
      </trkpt>
      <trkpt lat="46.06033" lon="4.7118">
        <ele>193</ele>
        <time>2018-08-08T09:47:31Z</time>
      </trkpt>
      <trkpt lat="46.0603" lon="4.71173">
        <ele>193</ele>
        <time>2018-08-08T09:47:32Z</time>
      </trkpt>
      <trkpt lat="46.06029" lon="4.71166">
        <ele>193</ele>
        <time>2018-08-08T09:47:33Z</time>
      </trkpt>
      <trkpt lat="46.06025" lon="4.71159">
        <ele>193</ele>
        <time>2018-08-08T09:47:34Z</time>
      </trkpt>
      <trkpt lat="46.06022" lon="4.7115">
        <ele>193</ele>
        <time>2018-08-08T09:47:35Z</time>
      </trkpt>
      <trkpt lat="46.0602" lon="4.71143">
        <ele>193</ele>
        <time>2018-08-08T09:47:36Z</time>
      </trkpt>
      <trkpt lat="46.06018" lon="4.71135">
        <ele>193</ele>
        <time>2018-08-08T09:47:37Z</time>
      </trkpt>
      <trkpt lat="46.06016" lon="4.71128">
        <ele>193</ele>
        <time>2018-08-08T09:47:38Z</time>
      </trkpt>
      <trkpt lat="46.06013" lon="4.71121">
        <ele>193</ele>
        <time>2018-08-08T09:47:39Z</time>
      </trkpt>
      <trkpt lat="46.06011" lon="4.71114">
        <ele>193</ele>
        <time>2018-08-08T09:47:40Z</time>
      </trkpt>
      <trkpt lat="46.06008" lon="4.71106">
        <ele>193</ele>
        <time>2018-08-08T09:47:41Z</time>
      </trkpt>
      <trkpt lat="46.06004" lon="4.711">
        <ele>193</ele>
        <time>2018-08-08T09:47:42Z</time>
      </trkpt>
      <trkpt lat="46.06002" lon="4.71094">
        <ele>193</ele>
        <time>2018-08-08T09:47:43Z</time>
      </trkpt>
      <trkpt lat="46.06001" lon="4.71088">
        <ele>193</ele>
        <time>2018-08-08T09:47:44Z</time>
      </trkpt>
      <trkpt lat="46.05996" lon="4.71076">
        <ele>193</ele>
        <time>2018-08-08T09:47:46Z</time>
      </trkpt>
      <trkpt lat="46.05993" lon="4.71071">
        <ele>193</ele>
        <time>2018-08-08T09:47:47Z</time>
      </trkpt>
      <trkpt lat="46.0599" lon="4.71064">
        <ele>193</ele>
        <time>2018-08-08T09:47:48Z</time>
      </trkpt>
      <trkpt lat="46.05987" lon="4.71057">
        <ele>193</ele>
        <time>2018-08-08T09:47:49Z</time>
      </trkpt>
      <trkpt lat="46.05985" lon="4.7105">
        <ele>193</ele>
        <time>2018-08-08T09:47:50Z</time>
      </trkpt>
      <trkpt lat="46.05982" lon="4.71044">
        <ele>193</ele>
        <time>2018-08-08T09:47:51Z</time>
      </trkpt>
      <trkpt lat="46.05979" lon="4.71037">
        <ele>192</ele>
        <time>2018-08-08T09:47:52Z</time>
      </trkpt>
      <trkpt lat="46.05976" lon="4.71032">
        <ele>192</ele>
        <time>2018-08-08T09:47:53Z</time>
      </trkpt>
      <trkpt lat="46.05974" lon="4.71025">
        <ele>192</ele>
        <time>2018-08-08T09:47:54Z</time>
      </trkpt>
      <trkpt lat="46.05972" lon="4.71019">
        <ele>193</ele>
        <time>2018-08-08T09:47:55Z</time>
      </trkpt>
      <trkpt lat="46.05971" lon="4.71012">
        <ele>193</ele>
        <time>2018-08-08T09:47:56Z</time>
      </trkpt>
      <trkpt lat="46.0597" lon="4.71005">
        <ele>193</ele>
        <time>2018-08-08T09:47:57Z</time>
      </trkpt>
      <trkpt lat="46.05967" lon="4.70998">
        <ele>193</ele>
        <time>2018-08-08T09:47:58Z</time>
      </trkpt>
      <trkpt lat="46.05964" lon="4.70992">
        <ele>193</ele>
        <time>2018-08-08T09:47:59Z</time>
      </trkpt>
      <trkpt lat="46.05961" lon="4.70985">
        <ele>193</ele>
        <time>2018-08-08T09:48:00Z</time>
      </trkpt>
      <trkpt lat="46.05959" lon="4.70978">
        <ele>193</ele>
        <time>2018-08-08T09:48:01Z</time>
      </trkpt>
      <trkpt lat="46.05956" lon="4.7097">
        <ele>193</ele>
        <time>2018-08-08T09:48:02Z</time>
      </trkpt>
      <trkpt lat="46.05953" lon="4.70964">
        <ele>193</ele>
        <time>2018-08-08T09:48:03Z</time>
      </trkpt>
      <trkpt lat="46.05953" lon="4.70956">
        <ele>193</ele>
        <time>2018-08-08T09:48:04Z</time>
      </trkpt>
      <trkpt lat="46.0595" lon="4.70949">
        <ele>193</ele>
        <time>2018-08-08T09:48:05Z</time>
      </trkpt>
      <trkpt lat="46.05949" lon="4.70942">
        <ele>193</ele>
        <time>2018-08-08T09:48:06Z</time>
      </trkpt>
      <trkpt lat="46.05946" lon="4.70935">
        <ele>193</ele>
        <time>2018-08-08T09:48:07Z</time>
      </trkpt>
      <trkpt lat="46.05944" lon="4.70928">
        <ele>193</ele>
        <time>2018-08-08T09:48:08Z</time>
      </trkpt>
      <trkpt lat="46.05942" lon="4.7092">
        <ele>194</ele>
        <time>2018-08-08T09:48:09Z</time>
      </trkpt>
      <trkpt lat="46.0594" lon="4.70913">
        <ele>194</ele>
        <time>2018-08-08T09:48:10Z</time>
      </trkpt>
      <trkpt lat="46.05938" lon="4.70906">
        <ele>194</ele>
        <time>2018-08-08T09:48:11Z</time>
      </trkpt>
      <trkpt lat="46.05937" lon="4.709">
        <ele>194</ele>
        <time>2018-08-08T09:48:12Z</time>
      </trkpt>
      <trkpt lat="46.05937" lon="4.70892">
        <ele>194</ele>
        <time>2018-08-08T09:48:13Z</time>
      </trkpt>
      <trkpt lat="46.05936" lon="4.70884">
        <ele>194</ele>
        <time>2018-08-08T09:48:14Z</time>
      </trkpt>
      <trkpt lat="46.05936" lon="4.70876">
        <ele>194</ele>
        <time>2018-08-08T09:48:15Z</time>
      </trkpt>
      <trkpt lat="46.05935" lon="4.70869">
        <ele>194</ele>
        <time>2018-08-08T09:48:16Z</time>
      </trkpt>
      <trkpt lat="46.05935" lon="4.70861">
        <ele>194</ele>
        <time>2018-08-08T09:48:17Z</time>
      </trkpt>
      <trkpt lat="46.05934" lon="4.70854">
        <ele>194</ele>
        <time>2018-08-08T09:48:18Z</time>
      </trkpt>
      <trkpt lat="46.05934" lon="4.70847">
        <ele>194</ele>
        <time>2018-08-08T09:48:19Z</time>
      </trkpt>
      <trkpt lat="46.05934" lon="4.7084">
        <ele>194</ele>
        <time>2018-08-08T09:48:20Z</time>
      </trkpt>
      <trkpt lat="46.05933" lon="4.70833">
        <ele>194</ele>
        <time>2018-08-08T09:48:21Z</time>
      </trkpt>
      <trkpt lat="46.05931" lon="4.70826">
        <ele>194</ele>
        <time>2018-08-08T09:48:22Z</time>
      </trkpt>
      <trkpt lat="46.0593" lon="4.7082">
        <ele>194</ele>
        <time>2018-08-08T09:48:23Z</time>
      </trkpt>
      <trkpt lat="46.05928" lon="4.70809">
        <ele>194</ele>
        <time>2018-08-08T09:48:25Z</time>
      </trkpt>
      <trkpt lat="46.05925" lon="4.70804">
        <ele>194</ele>
        <time>2018-08-08T09:48:26Z</time>
      </trkpt>
      <trkpt lat="46.05925" lon="4.70791">
        <ele>194</ele>
        <time>2018-08-08T09:48:28Z</time>
      </trkpt>
      <trkpt lat="46.05924" lon="4.70784">
        <ele>194</ele>
        <time>2018-08-08T09:48:29Z</time>
      </trkpt>
      <trkpt lat="46.05922" lon="4.70777">
        <ele>194</ele>
        <time>2018-08-08T09:48:30Z</time>
      </trkpt>
      <trkpt lat="46.05923" lon="4.70769">
        <ele>194</ele>
        <time>2018-08-08T09:48:31Z</time>
      </trkpt>
      <trkpt lat="46.05921" lon="4.7076">
        <ele>194</ele>
        <time>2018-08-08T09:48:32Z</time>
      </trkpt>
      <trkpt lat="46.05919" lon="4.70752">
        <ele>194</ele>
        <time>2018-08-08T09:48:33Z</time>
      </trkpt>
      <trkpt lat="46.05918" lon="4.70744">
        <ele>194</ele>
        <time>2018-08-08T09:48:34Z</time>
      </trkpt>
      <trkpt lat="46.05917" lon="4.70736">
        <ele>194</ele>
        <time>2018-08-08T09:48:35Z</time>
      </trkpt>
      <trkpt lat="46.05916" lon="4.70729">
        <ele>194</ele>
        <time>2018-08-08T09:48:36Z</time>
      </trkpt>
      <trkpt lat="46.05915" lon="4.70722">
        <ele>194</ele>
        <time>2018-08-08T09:48:37Z</time>
      </trkpt>
      <trkpt lat="46.05914" lon="4.70714">
        <ele>194</ele>
        <time>2018-08-08T09:48:38Z</time>
      </trkpt>
      <trkpt lat="46.05913" lon="4.70706">
        <ele>194</ele>
        <time>2018-08-08T09:48:39Z</time>
      </trkpt>
      <trkpt lat="46.0591" lon="4.70699">
        <ele>194</ele>
        <time>2018-08-08T09:48:40Z</time>
      </trkpt>
      <trkpt lat="46.05908" lon="4.7069">
        <ele>194</ele>
        <time>2018-08-08T09:48:41Z</time>
      </trkpt>
      <trkpt lat="46.05908" lon="4.70681">
        <ele>194</ele>
        <time>2018-08-08T09:48:42Z</time>
      </trkpt>
      <trkpt lat="46.05907" lon="4.70673">
        <ele>194</ele>
        <time>2018-08-08T09:48:43Z</time>
      </trkpt>
      <trkpt lat="46.05908" lon="4.70665">
        <ele>194</ele>
        <time>2018-08-08T09:48:44Z</time>
      </trkpt>
      <trkpt lat="46.05907" lon="4.70656">
        <ele>194</ele>
        <time>2018-08-08T09:48:45Z</time>
      </trkpt>
      <trkpt lat="46.05906" lon="4.70648">
        <ele>194</ele>
        <time>2018-08-08T09:48:46Z</time>
      </trkpt>
      <trkpt lat="46.05908" lon="4.70641">
        <ele>194</ele>
        <time>2018-08-08T09:48:47Z</time>
      </trkpt>
      <trkpt lat="46.05909" lon="4.70634">
        <ele>194</ele>
        <time>2018-08-08T09:48:48Z</time>
      </trkpt>
      <trkpt lat="46.05911" lon="4.70627">
        <ele>194</ele>
        <time>2018-08-08T09:48:49Z</time>
      </trkpt>
      <trkpt lat="46.05911" lon="4.70619">
        <ele>194</ele>
        <time>2018-08-08T09:48:50Z</time>
      </trkpt>
      <trkpt lat="46.0591" lon="4.70613">
        <ele>194</ele>
        <time>2018-08-08T09:48:51Z</time>
      </trkpt>
      <trkpt lat="46.0591" lon="4.70606">
        <ele>194</ele>
        <time>2018-08-08T09:48:52Z</time>
      </trkpt>
      <trkpt lat="46.05912" lon="4.70598">
        <ele>194</ele>
        <time>2018-08-08T09:48:53Z</time>
      </trkpt>
      <trkpt lat="46.05914" lon="4.70592">
        <ele>195</ele>
        <time>2018-08-08T09:48:54Z</time>
      </trkpt>
      <trkpt lat="46.05917" lon="4.70585">
        <ele>195</ele>
        <time>2018-08-08T09:48:55Z</time>
      </trkpt>
      <trkpt lat="46.05918" lon="4.70576">
        <ele>195</ele>
        <time>2018-08-08T09:48:56Z</time>
      </trkpt>
      <trkpt lat="46.05919" lon="4.70569">
        <ele>195</ele>
        <time>2018-08-08T09:48:57Z</time>
      </trkpt>
      <trkpt lat="46.05921" lon="4.70564">
        <ele>195</ele>
        <time>2018-08-08T09:48:58Z</time>
      </trkpt>
      <trkpt lat="46.05924" lon="4.70558">
        <ele>195</ele>
        <time>2018-08-08T09:48:59Z</time>
      </trkpt>
      <trkpt lat="46.05926" lon="4.70551">
        <ele>195</ele>
        <time>2018-08-08T09:49:00Z</time>
      </trkpt>
      <trkpt lat="46.05928" lon="4.70543">
        <ele>195</ele>
        <time>2018-08-08T09:49:01Z</time>
      </trkpt>
      <trkpt lat="46.05931" lon="4.70537">
        <ele>195</ele>
        <time>2018-08-08T09:49:02Z</time>
      </trkpt>
      <trkpt lat="46.05933" lon="4.7053">
        <ele>195</ele>
        <time>2018-08-08T09:49:03Z</time>
      </trkpt>
      <trkpt lat="46.05935" lon="4.70522">
        <ele>195</ele>
        <time>2018-08-08T09:49:04Z</time>
      </trkpt>
      <trkpt lat="46.05936" lon="4.70514">
        <ele>195</ele>
        <time>2018-08-08T09:49:05Z</time>
      </trkpt>
      <trkpt lat="46.05938" lon="4.70507">
        <ele>195</ele>
        <time>2018-08-08T09:49:06Z</time>
      </trkpt>
      <trkpt lat="46.05938" lon="4.70499">
        <ele>195</ele>
        <time>2018-08-08T09:49:07Z</time>
      </trkpt>
      <trkpt lat="46.05938" lon="4.70493">
        <ele>195</ele>
        <time>2018-08-08T09:49:08Z</time>
      </trkpt>
      <trkpt lat="46.05935" lon="4.70483">
        <ele>195</ele>
        <time>2018-08-08T09:49:09Z</time>
      </trkpt>
      <trkpt lat="46.05932" lon="4.70473">
        <ele>195</ele>
        <time>2018-08-08T09:49:10Z</time>
      </trkpt>
      <trkpt lat="46.05928" lon="4.70466">
        <ele>195</ele>
        <time>2018-08-08T09:49:11Z</time>
      </trkpt>
      <trkpt lat="46.05925" lon="4.70459">
        <ele>195</ele>
        <time>2018-08-08T09:49:12Z</time>
      </trkpt>
      <trkpt lat="46.0592" lon="4.70451">
        <ele>195</ele>
        <time>2018-08-08T09:49:13Z</time>
      </trkpt>
      <trkpt lat="46.05914" lon="4.70443">
        <ele>195</ele>
        <time>2018-08-08T09:49:14Z</time>
      </trkpt>
      <trkpt lat="46.05909" lon="4.70437">
        <ele>195</ele>
        <time>2018-08-08T09:49:15Z</time>
      </trkpt>
      <trkpt lat="46.05905" lon="4.7043">
        <ele>195</ele>
        <time>2018-08-08T09:49:16Z</time>
      </trkpt>
      <trkpt lat="46.05901" lon="4.70425">
        <ele>195</ele>
        <time>2018-08-08T09:49:17Z</time>
      </trkpt>
      <trkpt lat="46.05897" lon="4.70419">
        <ele>195</ele>
        <time>2018-08-08T09:49:18Z</time>
      </trkpt>
      <trkpt lat="46.05894" lon="4.70413">
        <ele>196</ele>
        <time>2018-08-08T09:49:19Z</time>
      </trkpt>
      <trkpt lat="46.0589" lon="4.70406">
        <ele>196</ele>
        <time>2018-08-08T09:49:20Z</time>
      </trkpt>
      <trkpt lat="46.05884" lon="4.70399">
        <ele>196</ele>
        <time>2018-08-08T09:49:21Z</time>
      </trkpt>
      <trkpt lat="46.05883" lon="4.70393">
        <ele>196</ele>
        <time>2018-08-08T09:49:22Z</time>
      </trkpt>
      <trkpt lat="46.05879" lon="4.70387">
        <ele>196</ele>
        <time>2018-08-08T09:49:23Z</time>
      </trkpt>
      <trkpt lat="46.05874" lon="4.70381">
        <ele>196</ele>
        <time>2018-08-08T09:49:24Z</time>
      </trkpt>
      <trkpt lat="46.05871" lon="4.70375">
        <ele>196</ele>
        <time>2018-08-08T09:49:25Z</time>
      </trkpt>
      <trkpt lat="46.05868" lon="4.7037">
        <ele>196</ele>
        <time>2018-08-08T09:49:26Z</time>
      </trkpt>
      <trkpt lat="46.05864" lon="4.70364">
        <ele>196</ele>
        <time>2018-08-08T09:49:27Z</time>
      </trkpt>
      <trkpt lat="46.05861" lon="4.70358">
        <ele>196</ele>
        <time>2018-08-08T09:49:28Z</time>
      </trkpt>
      <trkpt lat="46.05856" lon="4.70352">
        <ele>196</ele>
        <time>2018-08-08T09:49:29Z</time>
      </trkpt>
      <trkpt lat="46.05851" lon="4.70345">
        <ele>196</ele>
        <time>2018-08-08T09:49:30Z</time>
      </trkpt>
      <trkpt lat="46.05847" lon="4.70339">
        <ele>197</ele>
        <time>2018-08-08T09:49:31Z</time>
      </trkpt>
      <trkpt lat="46.05843" lon="4.70334">
        <ele>197</ele>
        <time>2018-08-08T09:49:32Z</time>
      </trkpt>
      <trkpt lat="46.05839" lon="4.70328">
        <ele>197</ele>
        <time>2018-08-08T09:49:33Z</time>
      </trkpt>
      <trkpt lat="46.05835" lon="4.70324">
        <ele>197</ele>
        <time>2018-08-08T09:49:34Z</time>
      </trkpt>
      <trkpt lat="46.05832" lon="4.70318">
        <ele>197</ele>
        <time>2018-08-08T09:49:35Z</time>
      </trkpt>
      <trkpt lat="46.05829" lon="4.70314">
        <ele>197</ele>
        <time>2018-08-08T09:49:36Z</time>
      </trkpt>
      <trkpt lat="46.05826" lon="4.70308">
        <ele>197</ele>
        <time>2018-08-08T09:49:37Z</time>
      </trkpt>
      <trkpt lat="46.05821" lon="4.70304">
        <ele>197</ele>
        <time>2018-08-08T09:49:38Z</time>
      </trkpt>
      <trkpt lat="46.05818" lon="4.703">
        <ele>197</ele>
        <time>2018-08-08T09:49:39Z</time>
      </trkpt>
      <trkpt lat="46.05814" lon="4.70296">
        <ele>197</ele>
        <time>2018-08-08T09:49:40Z</time>
      </trkpt>
      <trkpt lat="46.05811" lon="4.70291">
        <ele>197</ele>
        <time>2018-08-08T09:49:41Z</time>
      </trkpt>
      <trkpt lat="46.05808" lon="4.70286">
        <ele>197</ele>
        <time>2018-08-08T09:49:42Z</time>
      </trkpt>
      <trkpt lat="46.05805" lon="4.70281">
        <ele>197</ele>
        <time>2018-08-08T09:49:43Z</time>
      </trkpt>
      <trkpt lat="46.05801" lon="4.70276">
        <ele>197</ele>
        <time>2018-08-08T09:49:44Z</time>
      </trkpt>
      <trkpt lat="46.05798" lon="4.70272">
        <ele>197</ele>
        <time>2018-08-08T09:49:45Z</time>
      </trkpt>
      <trkpt lat="46.05794" lon="4.70267">
        <ele>197</ele>
        <time>2018-08-08T09:49:46Z</time>
      </trkpt>
      <trkpt lat="46.05791" lon="4.70261">
        <ele>198</ele>
        <time>2018-08-08T09:49:47Z</time>
      </trkpt>
      <trkpt lat="46.05788" lon="4.70256">
        <ele>198</ele>
        <time>2018-08-08T09:49:48Z</time>
      </trkpt>
      <trkpt lat="46.05785" lon="4.7025">
        <ele>198</ele>
        <time>2018-08-08T09:49:49Z</time>
      </trkpt>
      <trkpt lat="46.05782" lon="4.70245">
        <ele>198</ele>
        <time>2018-08-08T09:49:50Z</time>
      </trkpt>
      <trkpt lat="46.05778" lon="4.70239">
        <ele>198</ele>
        <time>2018-08-08T09:49:51Z</time>
      </trkpt>
      <trkpt lat="46.05775" lon="4.70233">
        <ele>198</ele>
        <time>2018-08-08T09:49:52Z</time>
      </trkpt>
      <trkpt lat="46.05771" lon="4.70227">
        <ele>198</ele>
        <time>2018-08-08T09:49:53Z</time>
      </trkpt>
      <trkpt lat="46.05768" lon="4.70221">
        <ele>198</ele>
        <time>2018-08-08T09:49:54Z</time>
      </trkpt>
      <trkpt lat="46.05765" lon="4.70215">
        <ele>198</ele>
        <time>2018-08-08T09:49:55Z</time>
      </trkpt>
      <trkpt lat="46.05761" lon="4.70209">
        <ele>198</ele>
        <time>2018-08-08T09:49:56Z</time>
      </trkpt>
      <trkpt lat="46.05758" lon="4.70203">
        <ele>198</ele>
        <time>2018-08-08T09:49:57Z</time>
      </trkpt>
      <trkpt lat="46.05755" lon="4.70196">
        <ele>198</ele>
        <time>2018-08-08T09:49:58Z</time>
      </trkpt>
      <trkpt lat="46.05751" lon="4.7019">
        <ele>198</ele>
        <time>2018-08-08T09:49:59Z</time>
      </trkpt>
      <trkpt lat="46.05747" lon="4.70185">
        <ele>198</ele>
        <time>2018-08-08T09:50:00Z</time>
      </trkpt>
      <trkpt lat="46.05744" lon="4.70179">
        <ele>198</ele>
        <time>2018-08-08T09:50:01Z</time>
      </trkpt>
      <trkpt lat="46.0574" lon="4.70173">
        <ele>198</ele>
        <time>2018-08-08T09:50:02Z</time>
      </trkpt>
      <trkpt lat="46.05736" lon="4.70167">
        <ele>198</ele>
        <time>2018-08-08T09:50:03Z</time>
      </trkpt>
      <trkpt lat="46.05732" lon="4.70161">
        <ele>199</ele>
        <time>2018-08-08T09:50:04Z</time>
      </trkpt>
      <trkpt lat="46.05729" lon="4.70154">
        <ele>198</ele>
        <time>2018-08-08T09:50:05Z</time>
      </trkpt>
      <trkpt lat="46.05726" lon="4.70148">
        <ele>198</ele>
        <time>2018-08-08T09:50:06Z</time>
      </trkpt>
      <trkpt lat="46.05722" lon="4.70143">
        <ele>198</ele>
        <time>2018-08-08T09:50:07Z</time>
      </trkpt>
      <trkpt lat="46.05719" lon="4.70132">
        <ele>198</ele>
        <time>2018-08-08T09:50:09Z</time>
      </trkpt>
      <trkpt lat="46.05714" lon="4.70125">
        <ele>198</ele>
        <time>2018-08-08T09:50:10Z</time>
      </trkpt>
      <trkpt lat="46.05712" lon="4.70118">
        <ele>198</ele>
        <time>2018-08-08T09:50:11Z</time>
      </trkpt>
      <trkpt lat="46.05709" lon="4.70112">
        <ele>198</ele>
        <time>2018-08-08T09:50:12Z</time>
      </trkpt>
      <trkpt lat="46.05704" lon="4.70106">
        <ele>198</ele>
        <time>2018-08-08T09:50:13Z</time>
      </trkpt>
      <trkpt lat="46.057" lon="4.70099">
        <ele>198</ele>
        <time>2018-08-08T09:50:14Z</time>
      </trkpt>
      <trkpt lat="46.05696" lon="4.70093">
        <ele>198</ele>
        <time>2018-08-08T09:50:15Z</time>
      </trkpt>
      <trkpt lat="46.05692" lon="4.70087">
        <ele>198</ele>
        <time>2018-08-08T09:50:16Z</time>
      </trkpt>
      <trkpt lat="46.05688" lon="4.70081">
        <ele>199</ele>
        <time>2018-08-08T09:50:17Z</time>
      </trkpt>
      <trkpt lat="46.05684" lon="4.70073">
        <ele>199</ele>
        <time>2018-08-08T09:50:18Z</time>
      </trkpt>
      <trkpt lat="46.0568" lon="4.70067">
        <ele>199</ele>
        <time>2018-08-08T09:50:19Z</time>
      </trkpt>
      <trkpt lat="46.05677" lon="4.7006">
        <ele>199</ele>
        <time>2018-08-08T09:50:20Z</time>
      </trkpt>
      <trkpt lat="46.05675" lon="4.70053">
        <ele>199</ele>
        <time>2018-08-08T09:50:21Z</time>
      </trkpt>
      <trkpt lat="46.05673" lon="4.70047">
        <ele>199</ele>
        <time>2018-08-08T09:50:22Z</time>
      </trkpt>
      <trkpt lat="46.0567" lon="4.70042">
        <ele>199</ele>
        <time>2018-08-08T09:50:23Z</time>
      </trkpt>
      <trkpt lat="46.05668" lon="4.70035">
        <ele>199</ele>
        <time>2018-08-08T09:50:24Z</time>
      </trkpt>
      <trkpt lat="46.05665" lon="4.70028">
        <ele>200</ele>
        <time>2018-08-08T09:50:25Z</time>
      </trkpt>
      <trkpt lat="46.05662" lon="4.70022">
        <ele>200</ele>
        <time>2018-08-08T09:50:26Z</time>
      </trkpt>
      <trkpt lat="46.05658" lon="4.70016">
        <ele>200</ele>
        <time>2018-08-08T09:50:27Z</time>
      </trkpt>
      <trkpt lat="46.05655" lon="4.70009">
        <ele>200</ele>
        <time>2018-08-08T09:50:28Z</time>
      </trkpt>
      <trkpt lat="46.05651" lon="4.70003">
        <ele>200</ele>
        <time>2018-08-08T09:50:29Z</time>
      </trkpt>
      <trkpt lat="46.05648" lon="4.69997">
        <ele>200</ele>
        <time>2018-08-08T09:50:30Z</time>
      </trkpt>
      <trkpt lat="46.05645" lon="4.69991">
        <ele>200</ele>
        <time>2018-08-08T09:50:31Z</time>
      </trkpt>
      <trkpt lat="46.05643" lon="4.69985">
        <ele>200</ele>
        <time>2018-08-08T09:50:32Z</time>
      </trkpt>
      <trkpt lat="46.0564" lon="4.69979">
        <ele>200</ele>
        <time>2018-08-08T09:50:33Z</time>
      </trkpt>
      <trkpt lat="46.05637" lon="4.69974">
        <ele>200</ele>
        <time>2018-08-08T09:50:34Z</time>
      </trkpt>
      <trkpt lat="46.05633" lon="4.69964">
        <ele>200</ele>
        <time>2018-08-08T09:50:36Z</time>
      </trkpt>
      <trkpt lat="46.05631" lon="4.69958">
        <ele>200</ele>
        <time>2018-08-08T09:50:37Z</time>
      </trkpt>
      <trkpt lat="46.05625" lon="4.69948">
        <ele>200</ele>
        <time>2018-08-08T09:50:39Z</time>
      </trkpt>
      <trkpt lat="46.05623" lon="4.69943">
        <ele>200</ele>
        <time>2018-08-08T09:50:40Z</time>
      </trkpt>
      <trkpt lat="46.0562" lon="4.69937">
        <ele>200</ele>
        <time>2018-08-08T09:50:41Z</time>
      </trkpt>
      <trkpt lat="46.05617" lon="4.69932">
        <ele>200</ele>
        <time>2018-08-08T09:50:42Z</time>
      </trkpt>
      <trkpt lat="46.05614" lon="4.69926">
        <ele>201</ele>
        <time>2018-08-08T09:50:43Z</time>
      </trkpt>
      <trkpt lat="46.0561" lon="4.6992">
        <ele>201</ele>
        <time>2018-08-08T09:50:44Z</time>
      </trkpt>
      <trkpt lat="46.05605" lon="4.69914">
        <ele>201</ele>
        <time>2018-08-08T09:50:45Z</time>
      </trkpt>
      <trkpt lat="46.05603" lon="4.69908">
        <ele>201</ele>
        <time>2018-08-08T09:50:46Z</time>
      </trkpt>
      <trkpt lat="46.05599" lon="4.69902">
        <ele>201</ele>
        <time>2018-08-08T09:50:47Z</time>
      </trkpt>
      <trkpt lat="46.05597" lon="4.69896">
        <ele>201</ele>
        <time>2018-08-08T09:50:48Z</time>
      </trkpt>
      <trkpt lat="46.05594" lon="4.69889">
        <ele>201</ele>
        <time>2018-08-08T09:50:49Z</time>
      </trkpt>
      <trkpt lat="46.05591" lon="4.69884">
        <ele>201</ele>
        <time>2018-08-08T09:50:50Z</time>
      </trkpt>
      <trkpt lat="46.05587" lon="4.69879">
        <ele>201</ele>
        <time>2018-08-08T09:50:51Z</time>
      </trkpt>
      <trkpt lat="46.05584" lon="4.69874">
        <ele>201</ele>
        <time>2018-08-08T09:50:52Z</time>
      </trkpt>
      <trkpt lat="46.05582" lon="4.69868">
        <ele>200</ele>
        <time>2018-08-08T09:50:53Z</time>
      </trkpt>
      <trkpt lat="46.05579" lon="4.69861">
        <ele>200</ele>
        <time>2018-08-08T09:50:54Z</time>
      </trkpt>
      <trkpt lat="46.05574" lon="4.69855">
        <ele>200</ele>
        <time>2018-08-08T09:50:56Z</time>
      </trkpt>
      <trkpt lat="46.05572" lon="4.69853">
        <ele>200</ele>
        <time>2018-08-08T09:50:57Z</time>
      </trkpt>
      <trkpt lat="46.05564" lon="4.69852">
        <ele>200</ele>
        <time>2018-08-08T09:50:58Z</time>
      </trkpt>
      <trkpt lat="46.05559" lon="4.69853">
        <ele>200</ele>
        <time>2018-08-08T09:50:59Z</time>
      </trkpt>
      <trkpt lat="46.05554" lon="4.69856">
        <ele>200</ele>
        <time>2018-08-08T09:51:00Z</time>
      </trkpt>
      <trkpt lat="46.05548" lon="4.69859">
        <ele>200</ele>
        <time>2018-08-08T09:51:01Z</time>
      </trkpt>
      <trkpt lat="46.05542" lon="4.69862">
        <ele>200</ele>
        <time>2018-08-08T09:51:02Z</time>
      </trkpt>
      <trkpt lat="46.05537" lon="4.69864">
        <ele>200</ele>
        <time>2018-08-08T09:51:03Z</time>
      </trkpt>
      <trkpt lat="46.05532" lon="4.69868">
        <ele>200</ele>
        <time>2018-08-08T09:51:04Z</time>
      </trkpt>
      <trkpt lat="46.05526" lon="4.69869">
        <ele>200</ele>
        <time>2018-08-08T09:51:05Z</time>
      </trkpt>
      <trkpt lat="46.0552" lon="4.69872">
        <ele>199</ele>
        <time>2018-08-08T09:51:06Z</time>
      </trkpt>
      <trkpt lat="46.05515" lon="4.69875">
        <ele>199</ele>
        <time>2018-08-08T09:51:07Z</time>
      </trkpt>
      <trkpt lat="46.05509" lon="4.69877">
        <ele>199</ele>
        <time>2018-08-08T09:51:08Z</time>
      </trkpt>
      <trkpt lat="46.05504" lon="4.69879">
        <ele>199</ele>
        <time>2018-08-08T09:51:09Z</time>
      </trkpt>
      <trkpt lat="46.05499" lon="4.69882">
        <ele>199</ele>
        <time>2018-08-08T09:51:10Z</time>
      </trkpt>
      <trkpt lat="46.05494" lon="4.69885">
        <ele>199</ele>
        <time>2018-08-08T09:51:11Z</time>
      </trkpt>
      <trkpt lat="46.05489" lon="4.69886">
        <ele>199</ele>
        <time>2018-08-08T09:51:12Z</time>
      </trkpt>
      <trkpt lat="46.05484" lon="4.69886">
        <ele>199</ele>
        <time>2018-08-08T09:51:13Z</time>
      </trkpt>
      <trkpt lat="46.05478" lon="4.69888">
        <ele>199</ele>
        <time>2018-08-08T09:51:14Z</time>
      </trkpt>
      <trkpt lat="46.05473" lon="4.69889">
        <ele>199</ele>
        <time>2018-08-08T09:51:15Z</time>
      </trkpt>
      <trkpt lat="46.05467" lon="4.69891">
        <ele>199</ele>
        <time>2018-08-08T09:51:16Z</time>
      </trkpt>
      <trkpt lat="46.05461" lon="4.69893">
        <ele>199</ele>
        <time>2018-08-08T09:51:17Z</time>
      </trkpt>
      <trkpt lat="46.05454" lon="4.69894">
        <ele>199</ele>
        <time>2018-08-08T09:51:18Z</time>
      </trkpt>
      <trkpt lat="46.05448" lon="4.69896">
        <ele>199</ele>
        <time>2018-08-08T09:51:19Z</time>
      </trkpt>
      <trkpt lat="46.05442" lon="4.69897">
        <ele>199</ele>
        <time>2018-08-08T09:51:20Z</time>
      </trkpt>
      <trkpt lat="46.05435" lon="4.69898">
        <ele>199</ele>
        <time>2018-08-08T09:51:21Z</time>
      </trkpt>
      <trkpt lat="46.05429" lon="4.699">
        <ele>199</ele>
        <time>2018-08-08T09:51:22Z</time>
      </trkpt>
      <trkpt lat="46.05425" lon="4.699">
        <ele>199</ele>
        <time>2018-08-08T09:51:23Z</time>
      </trkpt>
      <trkpt lat="46.05421" lon="4.69903">
        <ele>199</ele>
        <time>2018-08-08T09:51:24Z</time>
      </trkpt>
      <trkpt lat="46.05415" lon="4.69903">
        <ele>199</ele>
        <time>2018-08-08T09:51:25Z</time>
      </trkpt>
      <trkpt lat="46.05409" lon="4.69904">
        <ele>199</ele>
        <time>2018-08-08T09:51:26Z</time>
      </trkpt>
      <trkpt lat="46.05403" lon="4.69904">
        <ele>199</ele>
        <time>2018-08-08T09:51:27Z</time>
      </trkpt>
      <trkpt lat="46.05398" lon="4.69902">
        <ele>199</ele>
        <time>2018-08-08T09:51:28Z</time>
      </trkpt>
      <trkpt lat="46.05392" lon="4.69899">
        <ele>199</ele>
        <time>2018-08-08T09:51:29Z</time>
      </trkpt>
      <trkpt lat="46.05386" lon="4.69898">
        <ele>199</ele>
        <time>2018-08-08T09:51:30Z</time>
      </trkpt>
      <trkpt lat="46.05381" lon="4.69897">
        <ele>199</ele>
        <time>2018-08-08T09:51:31Z</time>
      </trkpt>
      <trkpt lat="46.05376" lon="4.69895">
        <ele>199</ele>
        <time>2018-08-08T09:51:32Z</time>
      </trkpt>
      <trkpt lat="46.05371" lon="4.69893">
        <ele>199</ele>
        <time>2018-08-08T09:51:33Z</time>
      </trkpt>
      <trkpt lat="46.05366" lon="4.69892">
        <ele>199</ele>
        <time>2018-08-08T09:51:34Z</time>
      </trkpt>
      <trkpt lat="46.05359" lon="4.6989">
        <ele>199</ele>
        <time>2018-08-08T09:51:35Z</time>
      </trkpt>
      <trkpt lat="46.05354" lon="4.69889">
        <ele>199</ele>
        <time>2018-08-08T09:51:36Z</time>
      </trkpt>
      <trkpt lat="46.05347" lon="4.69887">
        <ele>199</ele>
        <time>2018-08-08T09:51:37Z</time>
      </trkpt>
      <trkpt lat="46.05341" lon="4.69884">
        <ele>199</ele>
        <time>2018-08-08T09:51:38Z</time>
      </trkpt>
      <trkpt lat="46.05335" lon="4.69884">
        <ele>199</ele>
        <time>2018-08-08T09:51:39Z</time>
      </trkpt>
      <trkpt lat="46.05329" lon="4.69883">
        <ele>199</ele>
        <time>2018-08-08T09:51:40Z</time>
      </trkpt>
      <trkpt lat="46.05324" lon="4.69882">
        <ele>199</ele>
        <time>2018-08-08T09:51:41Z</time>
      </trkpt>
      <trkpt lat="46.05318" lon="4.69881">
        <ele>199</ele>
        <time>2018-08-08T09:51:42Z</time>
      </trkpt>
      <trkpt lat="46.05313" lon="4.6988">
        <ele>199</ele>
        <time>2018-08-08T09:51:43Z</time>
      </trkpt>
      <trkpt lat="46.05308" lon="4.69878">
        <ele>199</ele>
        <time>2018-08-08T09:51:44Z</time>
      </trkpt>
      <trkpt lat="46.05302" lon="4.69877">
        <ele>199</ele>
        <time>2018-08-08T09:51:45Z</time>
      </trkpt>
      <trkpt lat="46.05297" lon="4.69876">
        <ele>199</ele>
        <time>2018-08-08T09:51:46Z</time>
      </trkpt>
      <trkpt lat="46.05292" lon="4.69875">
        <ele>199</ele>
        <time>2018-08-08T09:51:47Z</time>
      </trkpt>
      <trkpt lat="46.05285" lon="4.69873">
        <ele>199</ele>
        <time>2018-08-08T09:51:48Z</time>
      </trkpt>
      <trkpt lat="46.05279" lon="4.69872">
        <ele>199</ele>
        <time>2018-08-08T09:51:49Z</time>
      </trkpt>
      <trkpt lat="46.05273" lon="4.6987">
        <ele>199</ele>
        <time>2018-08-08T09:51:50Z</time>
      </trkpt>
      <trkpt lat="46.05267" lon="4.69868">
        <ele>199</ele>
        <time>2018-08-08T09:51:51Z</time>
      </trkpt>
      <trkpt lat="46.05261" lon="4.69865">
        <ele>199</ele>
        <time>2018-08-08T09:51:52Z</time>
      </trkpt>
      <trkpt lat="46.05255" lon="4.69864">
        <ele>199</ele>
        <time>2018-08-08T09:51:53Z</time>
      </trkpt>
      <trkpt lat="46.05249" lon="4.69862">
        <ele>200</ele>
        <time>2018-08-08T09:51:54Z</time>
      </trkpt>
      <trkpt lat="46.05243" lon="4.6986">
        <ele>201</ele>
        <time>2018-08-08T09:51:55Z</time>
      </trkpt>
      <trkpt lat="46.05236" lon="4.69858">
        <ele>201</ele>
        <time>2018-08-08T09:51:56Z</time>
      </trkpt>
      <trkpt lat="46.05231" lon="4.69856">
        <ele>201</ele>
        <time>2018-08-08T09:51:57Z</time>
      </trkpt>
      <trkpt lat="46.05227" lon="4.69855">
        <ele>201</ele>
        <time>2018-08-08T09:51:58Z</time>
      </trkpt>
      <trkpt lat="46.0522" lon="4.69853">
        <ele>201</ele>
        <time>2018-08-08T09:51:59Z</time>
      </trkpt>
      <trkpt lat="46.05214" lon="4.69851">
        <ele>201</ele>
        <time>2018-08-08T09:52:00Z</time>
      </trkpt>
      <trkpt lat="46.05208" lon="4.6985">
        <ele>201</ele>
        <time>2018-08-08T09:52:01Z</time>
      </trkpt>
      <trkpt lat="46.05203" lon="4.69848">
        <ele>201</ele>
        <time>2018-08-08T09:52:02Z</time>
      </trkpt>
      <trkpt lat="46.05197" lon="4.69845">
        <ele>201</ele>
        <time>2018-08-08T09:52:03Z</time>
      </trkpt>
      <trkpt lat="46.05191" lon="4.69843">
        <ele>202</ele>
        <time>2018-08-08T09:52:04Z</time>
      </trkpt>
      <trkpt lat="46.05185" lon="4.69843">
        <ele>202</ele>
        <time>2018-08-08T09:52:05Z</time>
      </trkpt>
      <trkpt lat="46.0518" lon="4.69841">
        <ele>202</ele>
        <time>2018-08-08T09:52:06Z</time>
      </trkpt>
      <trkpt lat="46.05175" lon="4.69839">
        <ele>202</ele>
        <time>2018-08-08T09:52:07Z</time>
      </trkpt>
      <trkpt lat="46.05169" lon="4.69837">
        <ele>203</ele>
        <time>2018-08-08T09:52:08Z</time>
      </trkpt>
      <trkpt lat="46.05165" lon="4.69835">
        <ele>203</ele>
        <time>2018-08-08T09:52:09Z</time>
      </trkpt>
      <trkpt lat="46.0516" lon="4.69833">
        <ele>203</ele>
        <time>2018-08-08T09:52:10Z</time>
      </trkpt>
      <trkpt lat="46.05154" lon="4.69831">
        <ele>203</ele>
        <time>2018-08-08T09:52:11Z</time>
      </trkpt>
      <trkpt lat="46.0515" lon="4.6983">
        <ele>204</ele>
        <time>2018-08-08T09:52:12Z</time>
      </trkpt>
      <trkpt lat="46.05145" lon="4.69829">
        <ele>204</ele>
        <time>2018-08-08T09:52:13Z</time>
      </trkpt>
      <trkpt lat="46.05136" lon="4.69828">
        <ele>204</ele>
        <time>2018-08-08T09:52:15Z</time>
      </trkpt>
      <trkpt lat="46.05132" lon="4.69828">
        <ele>204</ele>
        <time>2018-08-08T09:52:16Z</time>
      </trkpt>
      <trkpt lat="46.05125" lon="4.69834">
        <ele>204</ele>
        <time>2018-08-08T09:52:18Z</time>
      </trkpt>
      <trkpt lat="46.05122" lon="4.69837">
        <ele>204</ele>
        <time>2018-08-08T09:52:19Z</time>
      </trkpt>
      <trkpt lat="46.05121" lon="4.69844">
        <ele>204</ele>
        <time>2018-08-08T09:52:20Z</time>
      </trkpt>
      <trkpt lat="46.0512" lon="4.69851">
        <ele>204</ele>
        <time>2018-08-08T09:52:21Z</time>
      </trkpt>
      <trkpt lat="46.0512" lon="4.69857">
        <ele>204</ele>
        <time>2018-08-08T09:52:22Z</time>
      </trkpt>
      <trkpt lat="46.05119" lon="4.69864">
        <ele>204</ele>
        <time>2018-08-08T09:52:23Z</time>
      </trkpt>
      <trkpt lat="46.05117" lon="4.69872">
        <ele>204</ele>
        <time>2018-08-08T09:52:24Z</time>
      </trkpt>
      <trkpt lat="46.05116" lon="4.6988">
        <ele>204</ele>
        <time>2018-08-08T09:52:25Z</time>
      </trkpt>
      <trkpt lat="46.05114" lon="4.69888">
        <ele>204</ele>
        <time>2018-08-08T09:52:26Z</time>
      </trkpt>
      <trkpt lat="46.05113" lon="4.69896">
        <ele>204</ele>
        <time>2018-08-08T09:52:27Z</time>
      </trkpt>
      <trkpt lat="46.05111" lon="4.69905">
        <ele>204</ele>
        <time>2018-08-08T09:52:28Z</time>
      </trkpt>
      <trkpt lat="46.05111" lon="4.69912">
        <ele>204</ele>
        <time>2018-08-08T09:52:29Z</time>
      </trkpt>
      <trkpt lat="46.05109" lon="4.6992">
        <ele>203</ele>
        <time>2018-08-08T09:52:30Z</time>
      </trkpt>
      <trkpt lat="46.05108" lon="4.69927">
        <ele>203</ele>
        <time>2018-08-08T09:52:31Z</time>
      </trkpt>
      <trkpt lat="46.05107" lon="4.69934">
        <ele>203</ele>
        <time>2018-08-08T09:52:32Z</time>
      </trkpt>
      <trkpt lat="46.05106" lon="4.69942">
        <ele>203</ele>
        <time>2018-08-08T09:52:33Z</time>
      </trkpt>
      <trkpt lat="46.05104" lon="4.69949">
        <ele>203</ele>
        <time>2018-08-08T09:52:34Z</time>
      </trkpt>
      <trkpt lat="46.05103" lon="4.69957">
        <ele>203</ele>
        <time>2018-08-08T09:52:35Z</time>
      </trkpt>
      <trkpt lat="46.05102" lon="4.69966">
        <ele>203</ele>
        <time>2018-08-08T09:52:36Z</time>
      </trkpt>
      <trkpt lat="46.05101" lon="4.69973">
        <ele>203</ele>
        <time>2018-08-08T09:52:37Z</time>
      </trkpt>
      <trkpt lat="46.051" lon="4.69981">
        <ele>204</ele>
        <time>2018-08-08T09:52:38Z</time>
      </trkpt>
      <trkpt lat="46.05099" lon="4.69989">
        <ele>204</ele>
        <time>2018-08-08T09:52:39Z</time>
      </trkpt>
      <trkpt lat="46.05098" lon="4.69997">
        <ele>204</ele>
        <time>2018-08-08T09:52:40Z</time>
      </trkpt>
      <trkpt lat="46.05097" lon="4.70005">
        <ele>204</ele>
        <time>2018-08-08T09:52:41Z</time>
      </trkpt>
      <trkpt lat="46.05095" lon="4.70013">
        <ele>203</ele>
        <time>2018-08-08T09:52:42Z</time>
      </trkpt>
      <trkpt lat="46.05092" lon="4.7002">
        <ele>203</ele>
        <time>2018-08-08T09:52:43Z</time>
      </trkpt>
      <trkpt lat="46.05089" lon="4.70025">
        <ele>203</ele>
        <time>2018-08-08T09:52:44Z</time>
      </trkpt>
      <trkpt lat="46.05085" lon="4.70029">
        <ele>203</ele>
        <time>2018-08-08T09:52:45Z</time>
      </trkpt>
      <trkpt lat="46.05078" lon="4.70037">
        <ele>204</ele>
        <time>2018-08-08T09:52:47Z</time>
      </trkpt>
      <trkpt lat="46.05074" lon="4.70038">
        <ele>204</ele>
        <time>2018-08-08T09:52:48Z</time>
      </trkpt>
      <trkpt lat="46.05065" lon="4.70036">
        <ele>204</ele>
        <time>2018-08-08T09:52:50Z</time>
      </trkpt>
      <trkpt lat="46.0506" lon="4.70033">
        <ele>204</ele>
        <time>2018-08-08T09:52:51Z</time>
      </trkpt>
      <trkpt lat="46.05055" lon="4.70029">
        <ele>204</ele>
        <time>2018-08-08T09:52:52Z</time>
      </trkpt>
      <trkpt lat="46.0505" lon="4.70026">
        <ele>204</ele>
        <time>2018-08-08T09:52:53Z</time>
      </trkpt>
      <trkpt lat="46.05046" lon="4.70023">
        <ele>204</ele>
        <time>2018-08-08T09:52:54Z</time>
      </trkpt>
      <trkpt lat="46.05043" lon="4.70019">
        <ele>204</ele>
        <time>2018-08-08T09:52:55Z</time>
      </trkpt>
      <trkpt lat="46.05036" lon="4.70016">
        <ele>204</ele>
        <time>2018-08-08T09:52:56Z</time>
      </trkpt>
      <trkpt lat="46.05033" lon="4.70013">
        <ele>204</ele>
        <time>2018-08-08T09:52:57Z</time>
      </trkpt>
      <trkpt lat="46.05028" lon="4.70009">
        <ele>204</ele>
        <time>2018-08-08T09:52:58Z</time>
      </trkpt>
      <trkpt lat="46.05024" lon="4.70005">
        <ele>204</ele>
        <time>2018-08-08T09:52:59Z</time>
      </trkpt>
      <trkpt lat="46.0502" lon="4.7">
        <ele>205</ele>
        <time>2018-08-08T09:53:00Z</time>
      </trkpt>
      <trkpt lat="46.05015" lon="4.69995">
        <ele>205</ele>
        <time>2018-08-08T09:53:01Z</time>
      </trkpt>
      <trkpt lat="46.05011" lon="4.6999">
        <ele>205</ele>
        <time>2018-08-08T09:53:02Z</time>
      </trkpt>
      <trkpt lat="46.05009" lon="4.69984">
        <ele>205</ele>
        <time>2018-08-08T09:53:03Z</time>
      </trkpt>
      <trkpt lat="46.05003" lon="4.69978">
        <ele>205</ele>
        <time>2018-08-08T09:53:04Z</time>
      </trkpt>
      <trkpt lat="46.05" lon="4.69972">
        <ele>205</ele>
        <time>2018-08-08T09:53:05Z</time>
      </trkpt>
      <trkpt lat="46.04997" lon="4.69967">
        <ele>205</ele>
        <time>2018-08-08T09:53:06Z</time>
      </trkpt>
      <trkpt lat="46.04994" lon="4.69961">
        <ele>205</ele>
        <time>2018-08-08T09:53:07Z</time>
      </trkpt>
      <trkpt lat="46.04992" lon="4.69956">
        <ele>206</ele>
        <time>2018-08-08T09:53:08Z</time>
      </trkpt>
      <trkpt lat="46.04989" lon="4.6995">
        <ele>206</ele>
        <time>2018-08-08T09:53:09Z</time>
      </trkpt>
      <trkpt lat="46.04987" lon="4.69945">
        <ele>206</ele>
        <time>2018-08-08T09:53:10Z</time>
      </trkpt>
      <trkpt lat="46.04984" lon="4.69939">
        <ele>206</ele>
        <time>2018-08-08T09:53:11Z</time>
      </trkpt>
      <trkpt lat="46.04979" lon="4.69933">
        <ele>206</ele>
        <time>2018-08-08T09:53:12Z</time>
      </trkpt>
      <trkpt lat="46.04973" lon="4.69928">
        <ele>206</ele>
        <time>2018-08-08T09:53:13Z</time>
      </trkpt>
      <trkpt lat="46.04969" lon="4.69922">
        <ele>206</ele>
        <time>2018-08-08T09:53:14Z</time>
      </trkpt>
      <trkpt lat="46.04966" lon="4.69917">
        <ele>206</ele>
        <time>2018-08-08T09:53:15Z</time>
      </trkpt>
      <trkpt lat="46.04964" lon="4.69911">
        <ele>206</ele>
        <time>2018-08-08T09:53:16Z</time>
      </trkpt>
      <trkpt lat="46.04959" lon="4.69905">
        <ele>206</ele>
        <time>2018-08-08T09:53:17Z</time>
      </trkpt>
      <trkpt lat="46.04955" lon="4.699">
        <ele>207</ele>
        <time>2018-08-08T09:53:18Z</time>
      </trkpt>
      <trkpt lat="46.04951" lon="4.69896">
        <ele>207</ele>
        <time>2018-08-08T09:53:19Z</time>
      </trkpt>
      <trkpt lat="46.04946" lon="4.69892">
        <ele>207</ele>
        <time>2018-08-08T09:53:20Z</time>
      </trkpt>
      <trkpt lat="46.04941" lon="4.69886">
        <ele>207</ele>
        <time>2018-08-08T09:53:21Z</time>
      </trkpt>
      <trkpt lat="46.04934" lon="4.69878">
        <ele>207</ele>
        <time>2018-08-08T09:53:23Z</time>
      </trkpt>
      <trkpt lat="46.0493" lon="4.69875">
        <ele>207</ele>
        <time>2018-08-08T09:53:24Z</time>
      </trkpt>
      <trkpt lat="46.04924" lon="4.69867">
        <ele>207</ele>
        <time>2018-08-08T09:53:27Z</time>
      </trkpt>
      <trkpt lat="46.04919" lon="4.69865">
        <ele>207</ele>
        <time>2018-08-08T09:53:28Z</time>
      </trkpt>
      <trkpt lat="46.04915" lon="4.69862">
        <ele>206</ele>
        <time>2018-08-08T09:53:29Z</time>
      </trkpt>
      <trkpt lat="46.04909" lon="4.69859">
        <ele>206</ele>
        <time>2018-08-08T09:53:30Z</time>
      </trkpt>
      <trkpt lat="46.04903" lon="4.69857">
        <ele>206</ele>
        <time>2018-08-08T09:53:31Z</time>
      </trkpt>
      <trkpt lat="46.04898" lon="4.69854">
        <ele>206</ele>
        <time>2018-08-08T09:53:32Z</time>
      </trkpt>
      <trkpt lat="46.04893" lon="4.69855">
        <ele>206</ele>
        <time>2018-08-08T09:53:33Z</time>
      </trkpt>
      <trkpt lat="46.04888" lon="4.69854">
        <ele>206</ele>
        <time>2018-08-08T09:53:34Z</time>
      </trkpt>
      <trkpt lat="46.04882" lon="4.69848">
        <ele>206</ele>
        <time>2018-08-08T09:53:35Z</time>
      </trkpt>
      <trkpt lat="46.04878" lon="4.69846">
        <ele>206</ele>
        <time>2018-08-08T09:53:36Z</time>
      </trkpt>
      <trkpt lat="46.04873" lon="4.69842">
        <ele>206</ele>
        <time>2018-08-08T09:53:37Z</time>
      </trkpt>
      <trkpt lat="46.04867" lon="4.69838">
        <ele>206</ele>
        <time>2018-08-08T09:53:38Z</time>
      </trkpt>
      <trkpt lat="46.0486" lon="4.69832">
        <ele>207</ele>
        <time>2018-08-08T09:53:40Z</time>
      </trkpt>
      <trkpt lat="46.04856" lon="4.6983">
        <ele>207</ele>
        <time>2018-08-08T09:53:41Z</time>
      </trkpt>
      <trkpt lat="46.04852" lon="4.69827">
        <ele>207</ele>
        <time>2018-08-08T09:53:42Z</time>
      </trkpt>
      <trkpt lat="46.04847" lon="4.69824">
        <ele>207</ele>
        <time>2018-08-08T09:53:43Z</time>
      </trkpt>
      <trkpt lat="46.04842" lon="4.69822">
        <ele>207</ele>
        <time>2018-08-08T09:53:44Z</time>
      </trkpt>
      <trkpt lat="46.04837" lon="4.69821">
        <ele>207</ele>
        <time>2018-08-08T09:53:45Z</time>
      </trkpt>
      <trkpt lat="46.04833" lon="4.69818">
        <ele>207</ele>
        <time>2018-08-08T09:53:46Z</time>
      </trkpt>
      <trkpt lat="46.04829" lon="4.69815">
        <ele>207</ele>
        <time>2018-08-08T09:53:47Z</time>
      </trkpt>
      <trkpt lat="46.04822" lon="4.69812">
        <ele>207</ele>
        <time>2018-08-08T09:53:49Z</time>
      </trkpt>
      <trkpt lat="46.04816" lon="4.69809">
        <ele>207</ele>
        <time>2018-08-08T09:53:50Z</time>
      </trkpt>
      <trkpt lat="46.04808" lon="4.69804">
        <ele>206</ele>
        <time>2018-08-08T09:53:52Z</time>
      </trkpt>
      <trkpt lat="46.04806" lon="4.69804">
        <ele>206</ele>
        <time>2018-08-08T09:53:53Z</time>
      </trkpt>
      <trkpt lat="46.04802" lon="4.69804">
        <ele>206</ele>
        <time>2018-08-08T09:53:55Z</time>
      </trkpt>
      <trkpt lat="46.04796" lon="4.69812">
        <ele>206</ele>
        <time>2018-08-08T09:53:56Z</time>
      </trkpt>
      <trkpt lat="46.04792" lon="4.6982">
        <ele>206</ele>
        <time>2018-08-08T09:53:58Z</time>
      </trkpt>
      <trkpt lat="46.04788" lon="4.69823">
        <ele>206</ele>
        <time>2018-08-08T09:53:59Z</time>
      </trkpt>
      <trkpt lat="46.04785" lon="4.69827">
        <ele>206</ele>
        <time>2018-08-08T09:54:00Z</time>
      </trkpt>
      <trkpt lat="46.04779" lon="4.69828">
        <ele>206</ele>
        <time>2018-08-08T09:54:01Z</time>
      </trkpt>
      <trkpt lat="46.0477" lon="4.69832">
        <ele>206</ele>
        <time>2018-08-08T09:54:03Z</time>
      </trkpt>
      <trkpt lat="46.04764" lon="4.69832">
        <ele>206</ele>
        <time>2018-08-08T09:54:04Z</time>
      </trkpt>
      <trkpt lat="46.04757" lon="4.69832">
        <ele>205</ele>
        <time>2018-08-08T09:54:05Z</time>
      </trkpt>
      <trkpt lat="46.04751" lon="4.69833">
        <ele>205</ele>
        <time>2018-08-08T09:54:06Z</time>
      </trkpt>
      <trkpt lat="46.04745" lon="4.69832">
        <ele>205</ele>
        <time>2018-08-08T09:54:07Z</time>
      </trkpt>
      <trkpt lat="46.0474" lon="4.69835">
        <ele>204</ele>
        <time>2018-08-08T09:54:08Z</time>
      </trkpt>
      <trkpt lat="46.04735" lon="4.69836">
        <ele>204</ele>
        <time>2018-08-08T09:54:09Z</time>
      </trkpt>
      <trkpt lat="46.04729" lon="4.69841">
        <ele>203</ele>
        <time>2018-08-08T09:54:10Z</time>
      </trkpt>
      <trkpt lat="46.04722" lon="4.69842">
        <ele>203</ele>
        <time>2018-08-08T09:54:11Z</time>
      </trkpt>
      <trkpt lat="46.04716" lon="4.69841">
        <ele>203</ele>
        <time>2018-08-08T09:54:12Z</time>
      </trkpt>
      <trkpt lat="46.04709" lon="4.69841">
        <ele>203</ele>
        <time>2018-08-08T09:54:13Z</time>
      </trkpt>
      <trkpt lat="46.04704" lon="4.69842">
        <ele>202</ele>
        <time>2018-08-08T09:54:14Z</time>
      </trkpt>
      <trkpt lat="46.04698" lon="4.69841">
        <ele>202</ele>
        <time>2018-08-08T09:54:15Z</time>
      </trkpt>
      <trkpt lat="46.04693" lon="4.69839">
        <ele>202</ele>
        <time>2018-08-08T09:54:16Z</time>
      </trkpt>
      <trkpt lat="46.04687" lon="4.69837">
        <ele>202</ele>
        <time>2018-08-08T09:54:17Z</time>
      </trkpt>
      <trkpt lat="46.0468" lon="4.69835">
        <ele>203</ele>
        <time>2018-08-08T09:54:18Z</time>
      </trkpt>
      <trkpt lat="46.04675" lon="4.69832">
        <ele>203</ele>
        <time>2018-08-08T09:54:19Z</time>
      </trkpt>
      <trkpt lat="46.04668" lon="4.6983">
        <ele>203</ele>
        <time>2018-08-08T09:54:20Z</time>
      </trkpt>
      <trkpt lat="46.0466" lon="4.69827">
        <ele>203</ele>
        <time>2018-08-08T09:54:22Z</time>
      </trkpt>
      <trkpt lat="46.04655" lon="4.69827">
        <ele>202</ele>
        <time>2018-08-08T09:54:23Z</time>
      </trkpt>
      <trkpt lat="46.04649" lon="4.69825">
        <ele>202</ele>
        <time>2018-08-08T09:54:24Z</time>
      </trkpt>
      <trkpt lat="46.04644" lon="4.69823">
        <ele>202</ele>
        <time>2018-08-08T09:54:25Z</time>
      </trkpt>
      <trkpt lat="46.04639" lon="4.69822">
        <ele>202</ele>
        <time>2018-08-08T09:54:26Z</time>
      </trkpt>
      <trkpt lat="46.04634" lon="4.69819">
        <ele>202</ele>
        <time>2018-08-08T09:54:27Z</time>
      </trkpt>
      <trkpt lat="46.04628" lon="4.69817">
        <ele>202</ele>
        <time>2018-08-08T09:54:28Z</time>
      </trkpt>
      <trkpt lat="46.04622" lon="4.69816">
        <ele>202</ele>
        <time>2018-08-08T09:54:29Z</time>
      </trkpt>
      <trkpt lat="46.04616" lon="4.69814">
        <ele>201</ele>
        <time>2018-08-08T09:54:30Z</time>
      </trkpt>
      <trkpt lat="46.0461" lon="4.69811">
        <ele>201</ele>
        <time>2018-08-08T09:54:31Z</time>
      </trkpt>
      <trkpt lat="46.04605" lon="4.69809">
        <ele>201</ele>
        <time>2018-08-08T09:54:32Z</time>
      </trkpt>
      <trkpt lat="46.046" lon="4.69806">
        <ele>201</ele>
        <time>2018-08-08T09:54:33Z</time>
      </trkpt>
      <trkpt lat="46.04594" lon="4.69805">
        <ele>201</ele>
        <time>2018-08-08T09:54:34Z</time>
      </trkpt>
      <trkpt lat="46.04587" lon="4.69802">
        <ele>201</ele>
        <time>2018-08-08T09:54:35Z</time>
      </trkpt>
      <trkpt lat="46.0458" lon="4.69801">
        <ele>200</ele>
        <time>2018-08-08T09:54:36Z</time>
      </trkpt>
      <trkpt lat="46.04574" lon="4.69799">
        <ele>200</ele>
        <time>2018-08-08T09:54:37Z</time>
      </trkpt>
      <trkpt lat="46.04568" lon="4.69797">
        <ele>200</ele>
        <time>2018-08-08T09:54:38Z</time>
      </trkpt>
      <trkpt lat="46.04561" lon="4.69796">
        <ele>200</ele>
        <time>2018-08-08T09:54:39Z</time>
      </trkpt>
      <trkpt lat="46.04555" lon="4.69794">
        <ele>199</ele>
        <time>2018-08-08T09:54:40Z</time>
      </trkpt>
      <trkpt lat="46.04547" lon="4.6979">
        <ele>199</ele>
        <time>2018-08-08T09:54:41Z</time>
      </trkpt>
      <trkpt lat="46.04541" lon="4.69789">
        <ele>199</ele>
        <time>2018-08-08T09:54:42Z</time>
      </trkpt>
      <trkpt lat="46.04536" lon="4.69789">
        <ele>199</ele>
        <time>2018-08-08T09:54:43Z</time>
      </trkpt>
      <trkpt lat="46.04529" lon="4.69789">
        <ele>199</ele>
        <time>2018-08-08T09:54:44Z</time>
      </trkpt>
      <trkpt lat="46.04523" lon="4.69788">
        <ele>199</ele>
        <time>2018-08-08T09:54:45Z</time>
      </trkpt>
      <trkpt lat="46.04516" lon="4.69787">
        <ele>199</ele>
        <time>2018-08-08T09:54:46Z</time>
      </trkpt>
      <trkpt lat="46.04509" lon="4.69787">
        <ele>199</ele>
        <time>2018-08-08T09:54:47Z</time>
      </trkpt>
      <trkpt lat="46.04503" lon="4.69787">
        <ele>199</ele>
        <time>2018-08-08T09:54:48Z</time>
      </trkpt>
      <trkpt lat="46.04496" lon="4.69789">
        <ele>197</ele>
        <time>2018-08-08T09:54:49Z</time>
      </trkpt>
      <trkpt lat="46.04489" lon="4.6979">
        <ele>197</ele>
        <time>2018-08-08T09:54:50Z</time>
      </trkpt>
      <trkpt lat="46.04481" lon="4.69792">
        <ele>197</ele>
        <time>2018-08-08T09:54:51Z</time>
      </trkpt>
      <trkpt lat="46.04474" lon="4.69795">
        <ele>197</ele>
        <time>2018-08-08T09:54:52Z</time>
      </trkpt>
      <trkpt lat="46.04467" lon="4.69797">
        <ele>197</ele>
        <time>2018-08-08T09:54:53Z</time>
      </trkpt>
      <trkpt lat="46.0446" lon="4.69799">
        <ele>197</ele>
        <time>2018-08-08T09:54:54Z</time>
      </trkpt>
      <trkpt lat="46.04451" lon="4.69801">
        <ele>196</ele>
        <time>2018-08-08T09:54:55Z</time>
      </trkpt>
      <trkpt lat="46.04444" lon="4.69804">
        <ele>196</ele>
        <time>2018-08-08T09:54:56Z</time>
      </trkpt>
      <trkpt lat="46.04436" lon="4.69806">
        <ele>196</ele>
        <time>2018-08-08T09:54:57Z</time>
      </trkpt>
      <trkpt lat="46.04428" lon="4.69808">
        <ele>196</ele>
        <time>2018-08-08T09:54:58Z</time>
      </trkpt>
      <trkpt lat="46.0442" lon="4.6981">
        <ele>196</ele>
        <time>2018-08-08T09:54:59Z</time>
      </trkpt>
      <trkpt lat="46.04413" lon="4.69812">
        <ele>194</ele>
        <time>2018-08-08T09:55:00Z</time>
      </trkpt>
      <trkpt lat="46.04404" lon="4.69815">
        <ele>194</ele>
        <time>2018-08-08T09:55:01Z</time>
      </trkpt>
      <trkpt lat="46.04397" lon="4.69818">
        <ele>194</ele>
        <time>2018-08-08T09:55:02Z</time>
      </trkpt>
      <trkpt lat="46.04389" lon="4.6982">
        <ele>194</ele>
        <time>2018-08-08T09:55:03Z</time>
      </trkpt>
      <trkpt lat="46.0438" lon="4.69825">
        <ele>194</ele>
        <time>2018-08-08T09:55:04Z</time>
      </trkpt>
      <trkpt lat="46.04373" lon="4.69828">
        <ele>194</ele>
        <time>2018-08-08T09:55:05Z</time>
      </trkpt>
      <trkpt lat="46.04364" lon="4.69832">
        <ele>193</ele>
        <time>2018-08-08T09:55:06Z</time>
      </trkpt>
      <trkpt lat="46.04356" lon="4.69836">
        <ele>193</ele>
        <time>2018-08-08T09:55:07Z</time>
      </trkpt>
      <trkpt lat="46.04348" lon="4.69841">
        <ele>193</ele>
        <time>2018-08-08T09:55:08Z</time>
      </trkpt>
      <trkpt lat="46.0434" lon="4.6985">
        <ele>192</ele>
        <time>2018-08-08T09:55:09Z</time>
      </trkpt>
      <trkpt lat="46.04332" lon="4.69858">
        <ele>191</ele>
        <time>2018-08-08T09:55:10Z</time>
      </trkpt>
      <trkpt lat="46.04325" lon="4.69867">
        <ele>191</ele>
        <time>2018-08-08T09:55:11Z</time>
      </trkpt>
      <trkpt lat="46.04321" lon="4.69877">
        <ele>190</ele>
        <time>2018-08-08T09:55:12Z</time>
      </trkpt>
      <trkpt lat="46.04315" lon="4.69887">
        <ele>190</ele>
        <time>2018-08-08T09:55:13Z</time>
      </trkpt>
      <trkpt lat="46.04308" lon="4.69901">
        <ele>190</ele>
        <time>2018-08-08T09:55:14Z</time>
      </trkpt>
      <trkpt lat="46.04302" lon="4.69911">
        <ele>190</ele>
        <time>2018-08-08T09:55:15Z</time>
      </trkpt>
      <trkpt lat="46.04296" lon="4.69919">
        <ele>189</ele>
        <time>2018-08-08T09:55:16Z</time>
      </trkpt>
      <trkpt lat="46.04288" lon="4.69926">
        <ele>189</ele>
        <time>2018-08-08T09:55:17Z</time>
      </trkpt>
      <trkpt lat="46.04281" lon="4.69931">
        <ele>189</ele>
        <time>2018-08-08T09:55:18Z</time>
      </trkpt>
      <trkpt lat="46.04274" lon="4.69936">
        <ele>189</ele>
        <time>2018-08-08T09:55:19Z</time>
      </trkpt>
      <trkpt lat="46.04267" lon="4.69942">
        <ele>188</ele>
        <time>2018-08-08T09:55:20Z</time>
      </trkpt>
      <trkpt lat="46.0426" lon="4.69948">
        <ele>188</ele>
        <time>2018-08-08T09:55:21Z</time>
      </trkpt>
      <trkpt lat="46.04254" lon="4.69957">
        <ele>188</ele>
        <time>2018-08-08T09:55:22Z</time>
      </trkpt>
      <trkpt lat="46.04249" lon="4.69964">
        <ele>188</ele>
        <time>2018-08-08T09:55:23Z</time>
      </trkpt>
      <trkpt lat="46.04244" lon="4.6997">
        <ele>188</ele>
        <time>2018-08-08T09:55:24Z</time>
      </trkpt>
      <trkpt lat="46.04238" lon="4.69976">
        <ele>188</ele>
        <time>2018-08-08T09:55:25Z</time>
      </trkpt>
      <trkpt lat="46.04232" lon="4.69982">
        <ele>188</ele>
        <time>2018-08-08T09:55:26Z</time>
      </trkpt>
      <trkpt lat="46.04226" lon="4.6999">
        <ele>188</ele>
        <time>2018-08-08T09:55:27Z</time>
      </trkpt>
      <trkpt lat="46.04219" lon="4.69997">
        <ele>188</ele>
        <time>2018-08-08T09:55:28Z</time>
      </trkpt>
      <trkpt lat="46.04213" lon="4.7">
        <ele>188</ele>
        <time>2018-08-08T09:55:29Z</time>
      </trkpt>
      <trkpt lat="46.04207" lon="4.70005">
        <ele>188</ele>
        <time>2018-08-08T09:55:30Z</time>
      </trkpt>
      <trkpt lat="46.042" lon="4.7001">
        <ele>188</ele>
        <time>2018-08-08T09:55:31Z</time>
      </trkpt>
      <trkpt lat="46.04194" lon="4.70015">
        <ele>188</ele>
        <time>2018-08-08T09:55:32Z</time>
      </trkpt>
      <trkpt lat="46.04187" lon="4.70019">
        <ele>189</ele>
        <time>2018-08-08T09:55:33Z</time>
      </trkpt>
      <trkpt lat="46.04181" lon="4.70021">
        <ele>189</ele>
        <time>2018-08-08T09:55:34Z</time>
      </trkpt>
      <trkpt lat="46.04175" lon="4.70025">
        <ele>189</ele>
        <time>2018-08-08T09:55:35Z</time>
      </trkpt>
      <trkpt lat="46.04169" lon="4.70028">
        <ele>189</ele>
        <time>2018-08-08T09:55:36Z</time>
      </trkpt>
      <trkpt lat="46.04162" lon="4.70028">
        <ele>191</ele>
        <time>2018-08-08T09:55:37Z</time>
      </trkpt>
      <trkpt lat="46.04154" lon="4.70031">
        <ele>191</ele>
        <time>2018-08-08T09:55:38Z</time>
      </trkpt>
      <trkpt lat="46.0415" lon="4.70035">
        <ele>191</ele>
        <time>2018-08-08T09:55:39Z</time>
      </trkpt>
      <trkpt lat="46.04146" lon="4.70038">
        <ele>191</ele>
        <time>2018-08-08T09:55:40Z</time>
      </trkpt>
      <trkpt lat="46.0414" lon="4.7004">
        <ele>192</ele>
        <time>2018-08-08T09:55:41Z</time>
      </trkpt>
      <trkpt lat="46.04135" lon="4.7004">
        <ele>192</ele>
        <time>2018-08-08T09:55:42Z</time>
      </trkpt>
      <trkpt lat="46.0413" lon="4.70045">
        <ele>192</ele>
        <time>2018-08-08T09:55:43Z</time>
      </trkpt>
      <trkpt lat="46.04121" lon="4.70046">
        <ele>192</ele>
        <time>2018-08-08T09:55:45Z</time>
      </trkpt>
      <trkpt lat="46.0412" lon="4.70048">
        <ele>192</ele>
        <time>2018-08-08T09:55:46Z</time>
      </trkpt>
      <trkpt lat="46.04116" lon="4.70056">
        <ele>192</ele>
        <time>2018-08-08T09:55:47Z</time>
      </trkpt>
      <trkpt lat="46.04111" lon="4.70062">
        <ele>192</ele>
        <time>2018-08-08T09:55:48Z</time>
      </trkpt>
      <trkpt lat="46.04106" lon="4.70064">
        <ele>193</ele>
        <time>2018-08-08T09:55:49Z</time>
      </trkpt>
      <trkpt lat="46.04101" lon="4.70066">
        <ele>193</ele>
        <time>2018-08-08T09:55:50Z</time>
      </trkpt>
      <trkpt lat="46.04096" lon="4.70069">
        <ele>193</ele>
        <time>2018-08-08T09:55:51Z</time>
      </trkpt>
      <trkpt lat="46.04089" lon="4.70071">
        <ele>193</ele>
        <time>2018-08-08T09:55:52Z</time>
      </trkpt>
      <trkpt lat="46.04085" lon="4.70073">
        <ele>193</ele>
        <time>2018-08-08T09:55:53Z</time>
      </trkpt>
      <trkpt lat="46.04078" lon="4.70076">
        <ele>194</ele>
        <time>2018-08-08T09:55:54Z</time>
      </trkpt>
      <trkpt lat="46.04071" lon="4.70077">
        <ele>194</ele>
        <time>2018-08-08T09:55:55Z</time>
      </trkpt>
      <trkpt lat="46.04064" lon="4.70076">
        <ele>194</ele>
        <time>2018-08-08T09:55:56Z</time>
      </trkpt>
      <trkpt lat="46.04058" lon="4.70078">
        <ele>194</ele>
        <time>2018-08-08T09:55:58Z</time>
      </trkpt>
      <trkpt lat="46.04054" lon="4.70078">
        <ele>194</ele>
        <time>2018-08-08T09:55:59Z</time>
      </trkpt>
      <trkpt lat="46.04049" lon="4.7008">
        <ele>194</ele>
        <time>2018-08-08T09:56:00Z</time>
      </trkpt>
      <trkpt lat="46.04043" lon="4.70082">
        <ele>195</ele>
        <time>2018-08-08T09:56:01Z</time>
      </trkpt>
      <trkpt lat="46.04037" lon="4.70081">
        <ele>195</ele>
        <time>2018-08-08T09:56:02Z</time>
      </trkpt>
      <trkpt lat="46.04034" lon="4.70085">
        <ele>195</ele>
        <time>2018-08-08T09:56:03Z</time>
      </trkpt>
      <trkpt lat="46.04026" lon="4.70083">
        <ele>195</ele>
        <time>2018-08-08T09:56:05Z</time>
      </trkpt>
      <trkpt lat="46.04018" lon="4.70083">
        <ele>195</ele>
        <time>2018-08-08T09:56:06Z</time>
      </trkpt>
      <trkpt lat="46.04017" lon="4.70085">
        <ele>195</ele>
        <time>2018-08-08T09:56:07Z</time>
      </trkpt>
      <trkpt lat="46.04008" lon="4.70088">
        <ele>196</ele>
        <time>2018-08-08T09:56:08Z</time>
      </trkpt>
      <trkpt lat="46.04006" lon="4.70086">
        <ele>196</ele>
        <time>2018-08-08T09:56:09Z</time>
      </trkpt>
      <trkpt lat="46.03998" lon="4.70085">
        <ele>196</ele>
        <time>2018-08-08T09:56:10Z</time>
      </trkpt>
      <trkpt lat="46.03993" lon="4.70086">
        <ele>196</ele>
        <time>2018-08-08T09:56:11Z</time>
      </trkpt>
      <trkpt lat="46.03987" lon="4.70087">
        <ele>196</ele>
        <time>2018-08-08T09:56:12Z</time>
      </trkpt>
      <trkpt lat="46.0398" lon="4.7009">
        <ele>196</ele>
        <time>2018-08-08T09:56:13Z</time>
      </trkpt>
      <trkpt lat="46.03973" lon="4.7009">
        <ele>196</ele>
        <time>2018-08-08T09:56:14Z</time>
      </trkpt>
      <trkpt lat="46.03967" lon="4.70091">
        <ele>196</ele>
        <time>2018-08-08T09:56:15Z</time>
      </trkpt>
      <trkpt lat="46.03962" lon="4.70093">
        <ele>196</ele>
        <time>2018-08-08T09:56:16Z</time>
      </trkpt>
      <trkpt lat="46.03958" lon="4.70094">
        <ele>196</ele>
        <time>2018-08-08T09:56:17Z</time>
      </trkpt>
      <trkpt lat="46.03952" lon="4.70095">
        <ele>196</ele>
        <time>2018-08-08T09:56:18Z</time>
      </trkpt>
      <trkpt lat="46.03946" lon="4.70098">
        <ele>196</ele>
        <time>2018-08-08T09:56:19Z</time>
      </trkpt>
      <trkpt lat="46.03941" lon="4.70098">
        <ele>196</ele>
        <time>2018-08-08T09:56:20Z</time>
      </trkpt>
      <trkpt lat="46.03934" lon="4.70103">
        <ele>196</ele>
        <time>2018-08-08T09:56:21Z</time>
      </trkpt>
      <trkpt lat="46.03926" lon="4.70104">
        <ele>195</ele>
        <time>2018-08-08T09:56:22Z</time>
      </trkpt>
      <trkpt lat="46.03919" lon="4.70106">
        <ele>195</ele>
        <time>2018-08-08T09:56:23Z</time>
      </trkpt>
      <trkpt lat="46.03909" lon="4.70107">
        <ele>194</ele>
        <time>2018-08-08T09:56:24Z</time>
      </trkpt>
      <trkpt lat="46.03902" lon="4.70108">
        <ele>194</ele>
        <time>2018-08-08T09:56:25Z</time>
      </trkpt>
      <trkpt lat="46.03896" lon="4.70111">
        <ele>194</ele>
        <time>2018-08-08T09:56:26Z</time>
      </trkpt>
      <trkpt lat="46.03889" lon="4.70112">
        <ele>193</ele>
        <time>2018-08-08T09:56:27Z</time>
      </trkpt>
      <trkpt lat="46.03885" lon="4.70114">
        <ele>193</ele>
        <time>2018-08-08T09:56:28Z</time>
      </trkpt>
      <trkpt lat="46.03879" lon="4.70116">
        <ele>193</ele>
        <time>2018-08-08T09:56:29Z</time>
      </trkpt>
      <trkpt lat="46.03872" lon="4.70116">
        <ele>193</ele>
        <time>2018-08-08T09:56:30Z</time>
      </trkpt>
      <trkpt lat="46.03864" lon="4.70119">
        <ele>193</ele>
        <time>2018-08-08T09:56:31Z</time>
      </trkpt>
      <trkpt lat="46.03858" lon="4.7012">
        <ele>192</ele>
        <time>2018-08-08T09:56:32Z</time>
      </trkpt>
      <trkpt lat="46.03851" lon="4.70124">
        <ele>192</ele>
        <time>2018-08-08T09:56:33Z</time>
      </trkpt>
      <trkpt lat="46.03845" lon="4.70136">
        <ele>192</ele>
        <time>2018-08-08T09:56:34Z</time>
      </trkpt>
      <trkpt lat="46.03838" lon="4.70134">
        <ele>192</ele>
        <time>2018-08-08T09:56:35Z</time>
      </trkpt>
      <trkpt lat="46.03831" lon="4.70132">
        <ele>190</ele>
        <time>2018-08-08T09:56:36Z</time>
      </trkpt>
      <trkpt lat="46.03827" lon="4.70137">
        <ele>190</ele>
        <time>2018-08-08T09:56:37Z</time>
      </trkpt>
      <trkpt lat="46.03823" lon="4.70143">
        <ele>190</ele>
        <time>2018-08-08T09:56:38Z</time>
      </trkpt>
      <trkpt lat="46.03817" lon="4.70145">
        <ele>190</ele>
        <time>2018-08-08T09:56:39Z</time>
      </trkpt>
      <trkpt lat="46.03811" lon="4.70144">
        <ele>190</ele>
        <time>2018-08-08T09:56:40Z</time>
      </trkpt>
      <trkpt lat="46.03805" lon="4.70145">
        <ele>190</ele>
        <time>2018-08-08T09:56:41Z</time>
      </trkpt>
      <trkpt lat="46.03799" lon="4.70147">
        <ele>189</ele>
        <time>2018-08-08T09:56:42Z</time>
      </trkpt>
      <trkpt lat="46.03795" lon="4.70147">
        <ele>189</ele>
        <time>2018-08-08T09:56:43Z</time>
      </trkpt>
      <trkpt lat="46.03788" lon="4.7015">
        <ele>189</ele>
        <time>2018-08-08T09:56:44Z</time>
      </trkpt>
      <trkpt lat="46.03783" lon="4.70153">
        <ele>189</ele>
        <time>2018-08-08T09:56:45Z</time>
      </trkpt>
      <trkpt lat="46.03777" lon="4.70154">
        <ele>189</ele>
        <time>2018-08-08T09:56:46Z</time>
      </trkpt>
      <trkpt lat="46.03772" lon="4.70157">
        <ele>188</ele>
        <time>2018-08-08T09:56:47Z</time>
      </trkpt>
      <trkpt lat="46.03765" lon="4.70159">
        <ele>188</ele>
        <time>2018-08-08T09:56:48Z</time>
      </trkpt>
      <trkpt lat="46.03761" lon="4.70166">
        <ele>188</ele>
        <time>2018-08-08T09:56:49Z</time>
      </trkpt>
      <trkpt lat="46.03757" lon="4.7017">
        <ele>188</ele>
        <time>2018-08-08T09:56:50Z</time>
      </trkpt>
      <trkpt lat="46.03751" lon="4.70171">
        <ele>187</ele>
        <time>2018-08-08T09:56:51Z</time>
      </trkpt>
      <trkpt lat="46.03746" lon="4.70171">
        <ele>187</ele>
        <time>2018-08-08T09:56:52Z</time>
      </trkpt>
      <trkpt lat="46.03741" lon="4.70172">
        <ele>187</ele>
        <time>2018-08-08T09:56:53Z</time>
      </trkpt>
      <trkpt lat="46.03737" lon="4.70175">
        <ele>188</ele>
        <time>2018-08-08T09:56:54Z</time>
      </trkpt>
      <trkpt lat="46.03731" lon="4.70174">
        <ele>188</ele>
        <time>2018-08-08T09:56:55Z</time>
      </trkpt>
      <trkpt lat="46.03726" lon="4.70173">
        <ele>188</ele>
        <time>2018-08-08T09:56:56Z</time>
      </trkpt>
      <trkpt lat="46.03717" lon="4.70175">
        <ele>188</ele>
        <time>2018-08-08T09:56:58Z</time>
      </trkpt>
      <trkpt lat="46.03712" lon="4.70176">
        <ele>189</ele>
        <time>2018-08-08T09:56:59Z</time>
      </trkpt>
      <trkpt lat="46.03705" lon="4.70183">
        <ele>189</ele>
        <time>2018-08-08T09:57:01Z</time>
      </trkpt>
      <trkpt lat="46.037" lon="4.70185">
        <ele>189</ele>
        <time>2018-08-08T09:57:02Z</time>
      </trkpt>
      <trkpt lat="46.03695" lon="4.70187">
        <ele>189</ele>
        <time>2018-08-08T09:57:03Z</time>
      </trkpt>
      <trkpt lat="46.03691" lon="4.70189">
        <ele>189</ele>
        <time>2018-08-08T09:57:04Z</time>
      </trkpt>
      <trkpt lat="46.03688" lon="4.70193">
        <ele>189</ele>
        <time>2018-08-08T09:57:05Z</time>
      </trkpt>
      <trkpt lat="46.03682" lon="4.70195">
        <ele>189</ele>
        <time>2018-08-08T09:57:06Z</time>
      </trkpt>
      <trkpt lat="46.03678" lon="4.70196">
        <ele>189</ele>
        <time>2018-08-08T09:57:07Z</time>
      </trkpt>
      <trkpt lat="46.03672" lon="4.70196">
        <ele>189</ele>
        <time>2018-08-08T09:57:08Z</time>
      </trkpt>
      <trkpt lat="46.03666" lon="4.70196">
        <ele>191</ele>
        <time>2018-08-08T09:57:10Z</time>
      </trkpt>
      <trkpt lat="46.03662" lon="4.70198">
        <ele>191</ele>
        <time>2018-08-08T09:57:11Z</time>
      </trkpt>
      <trkpt lat="46.0366" lon="4.70199">
        <ele>191</ele>
        <time>2018-08-08T09:57:13Z</time>
      </trkpt>
      <trkpt lat="46.03653" lon="4.70202">
        <ele>191</ele>
        <time>2018-08-08T09:57:14Z</time>
      </trkpt>
      <trkpt lat="46.03645" lon="4.70205">
        <ele>190</ele>
        <time>2018-08-08T09:57:16Z</time>
      </trkpt>
      <trkpt lat="46.0364" lon="4.70208">
        <ele>190</ele>
        <time>2018-08-08T09:57:17Z</time>
      </trkpt>
      <trkpt lat="46.03637" lon="4.70211">
        <ele>190</ele>
        <time>2018-08-08T09:57:18Z</time>
      </trkpt>
      <trkpt lat="46.03631" lon="4.70211">
        <ele>190</ele>
        <time>2018-08-08T09:57:19Z</time>
      </trkpt>
      <trkpt lat="46.03629" lon="4.70213">
        <ele>190</ele>
        <time>2018-08-08T09:57:21Z</time>
      </trkpt>
      <trkpt lat="46.03624" lon="4.70219">
        <ele>190</ele>
        <time>2018-08-08T09:57:22Z</time>
      </trkpt>
      <trkpt lat="46.03617" lon="4.70221">
        <ele>190</ele>
        <time>2018-08-08T09:57:23Z</time>
      </trkpt>
      <trkpt lat="46.03614" lon="4.70223">
        <ele>190</ele>
        <time>2018-08-08T09:57:24Z</time>
      </trkpt>
      <trkpt lat="46.03606" lon="4.70225">
        <ele>190</ele>
        <time>2018-08-08T09:57:25Z</time>
      </trkpt>
      <trkpt lat="46.03599" lon="4.70228">
        <ele>190</ele>
        <time>2018-08-08T09:57:26Z</time>
      </trkpt>
      <trkpt lat="46.0359" lon="4.7023">
        <ele>190</ele>
        <time>2018-08-08T09:57:28Z</time>
      </trkpt>
      <trkpt lat="46.03587" lon="4.70231">
        <ele>190</ele>
        <time>2018-08-08T09:57:29Z</time>
      </trkpt>
      <trkpt lat="46.03579" lon="4.70236">
        <ele>190</ele>
        <time>2018-08-08T09:57:31Z</time>
      </trkpt>
      <trkpt lat="46.03574" lon="4.70238">
        <ele>190</ele>
        <time>2018-08-08T09:57:32Z</time>
      </trkpt>
      <trkpt lat="46.03566" lon="4.70241">
        <ele>190</ele>
        <time>2018-08-08T09:57:34Z</time>
      </trkpt>
      <trkpt lat="46.0356" lon="4.70244">
        <ele>190</ele>
        <time>2018-08-08T09:57:35Z</time>
      </trkpt>
      <trkpt lat="46.0355" lon="4.70246">
        <ele>190</ele>
        <time>2018-08-08T09:57:36Z</time>
      </trkpt>
      <trkpt lat="46.03545" lon="4.7025">
        <ele>189</ele>
        <time>2018-08-08T09:57:37Z</time>
      </trkpt>
      <trkpt lat="46.0354" lon="4.70251">
        <ele>188</ele>
        <time>2018-08-08T09:57:38Z</time>
      </trkpt>
      <trkpt lat="46.03536" lon="4.70253">
        <ele>188</ele>
        <time>2018-08-08T09:57:39Z</time>
      </trkpt>
      <trkpt lat="46.03531" lon="4.70257">
        <ele>187</ele>
        <time>2018-08-08T09:57:40Z</time>
      </trkpt>
      <trkpt lat="46.03525" lon="4.70258">
        <ele>187</ele>
        <time>2018-08-08T09:57:41Z</time>
      </trkpt>
      <trkpt lat="46.0352" lon="4.7026">
        <ele>187</ele>
        <time>2018-08-08T09:57:42Z</time>
      </trkpt>
      <trkpt lat="46.03515" lon="4.70261">
        <ele>187</ele>
        <time>2018-08-08T09:57:43Z</time>
      </trkpt>
      <trkpt lat="46.03509" lon="4.70263">
        <ele>187</ele>
        <time>2018-08-08T09:57:44Z</time>
      </trkpt>
      <trkpt lat="46.03505" lon="4.70264">
        <ele>187</ele>
        <time>2018-08-08T09:57:45Z</time>
      </trkpt>
      <trkpt lat="46.03498" lon="4.70266">
        <ele>187</ele>
        <time>2018-08-08T09:57:46Z</time>
      </trkpt>
      <trkpt lat="46.03491" lon="4.70269">
        <ele>188</ele>
        <time>2018-08-08T09:57:48Z</time>
      </trkpt>
      <trkpt lat="46.03488" lon="4.70273">
        <ele>188</ele>
        <time>2018-08-08T09:57:49Z</time>
      </trkpt>
      <trkpt lat="46.03479" lon="4.70272">
        <ele>188</ele>
        <time>2018-08-08T09:57:51Z</time>
      </trkpt>
      <trkpt lat="46.03472" lon="4.70274">
        <ele>188</ele>
        <time>2018-08-08T09:57:52Z</time>
      </trkpt>
      <trkpt lat="46.03467" lon="4.70275">
        <ele>188</ele>
        <time>2018-08-08T09:57:53Z</time>
      </trkpt>
      <trkpt lat="46.03461" lon="4.70278">
        <ele>188</ele>
        <time>2018-08-08T09:57:54Z</time>
      </trkpt>
      <trkpt lat="46.03456" lon="4.70282">
        <ele>188</ele>
        <time>2018-08-08T09:57:55Z</time>
      </trkpt>
      <trkpt lat="46.03451" lon="4.70283">
        <ele>188</ele>
        <time>2018-08-08T09:57:56Z</time>
      </trkpt>
      <trkpt lat="46.03443" lon="4.70285">
        <ele>188</ele>
        <time>2018-08-08T09:57:57Z</time>
      </trkpt>
      <trkpt lat="46.03439" lon="4.70285">
        <ele>188</ele>
        <time>2018-08-08T09:57:58Z</time>
      </trkpt>
      <trkpt lat="46.03436" lon="4.70286">
        <ele>188</ele>
        <time>2018-08-08T09:57:59Z</time>
      </trkpt>
      <trkpt lat="46.03429" lon="4.70288">
        <ele>189</ele>
        <time>2018-08-08T09:58:00Z</time>
      </trkpt>
      <trkpt lat="46.03421" lon="4.70292">
        <ele>189</ele>
        <time>2018-08-08T09:58:02Z</time>
      </trkpt>
      <trkpt lat="46.03416" lon="4.70294">
        <ele>191</ele>
        <time>2018-08-08T09:58:03Z</time>
      </trkpt>
      <trkpt lat="46.03408" lon="4.70296">
        <ele>191</ele>
        <time>2018-08-08T09:58:05Z</time>
      </trkpt>
      <trkpt lat="46.03403" lon="4.70297">
        <ele>191</ele>
        <time>2018-08-08T09:58:06Z</time>
      </trkpt>
      <trkpt lat="46.03398" lon="4.70299">
        <ele>191</ele>
        <time>2018-08-08T09:58:07Z</time>
      </trkpt>
      <trkpt lat="46.03394" lon="4.703">
        <ele>191</ele>
        <time>2018-08-08T09:58:08Z</time>
      </trkpt>
      <trkpt lat="46.03388" lon="4.70302">
        <ele>191</ele>
        <time>2018-08-08T09:58:09Z</time>
      </trkpt>
      <trkpt lat="46.03385" lon="4.70305">
        <ele>191</ele>
        <time>2018-08-08T09:58:10Z</time>
      </trkpt>
      <trkpt lat="46.0338" lon="4.70308">
        <ele>191</ele>
        <time>2018-08-08T09:58:11Z</time>
      </trkpt>
      <trkpt lat="46.03375" lon="4.7031">
        <ele>191</ele>
        <time>2018-08-08T09:58:12Z</time>
      </trkpt>
      <trkpt lat="46.03368" lon="4.7031">
        <ele>191</ele>
        <time>2018-08-08T09:58:14Z</time>
      </trkpt>
      <trkpt lat="46.03362" lon="4.70314">
        <ele>191</ele>
        <time>2018-08-08T09:58:15Z</time>
      </trkpt>
      <trkpt lat="46.03357" lon="4.70317">
        <ele>191</ele>
        <time>2018-08-08T09:58:16Z</time>
      </trkpt>
      <trkpt lat="46.03354" lon="4.70318">
        <ele>191</ele>
        <time>2018-08-08T09:58:17Z</time>
      </trkpt>
      <trkpt lat="46.03346" lon="4.70321">
        <ele>191</ele>
        <time>2018-08-08T09:58:19Z</time>
      </trkpt>
      <trkpt lat="46.0334" lon="4.70322">
        <ele>191</ele>
        <time>2018-08-08T09:58:20Z</time>
      </trkpt>
      <trkpt lat="46.03332" lon="4.70325">
        <ele>192</ele>
        <time>2018-08-08T09:58:24Z</time>
      </trkpt>
      <trkpt lat="46.03329" lon="4.70326">
        <ele>192</ele>
        <time>2018-08-08T09:58:25Z</time>
      </trkpt>
      <trkpt lat="46.03322" lon="4.7033">
        <ele>192</ele>
        <time>2018-08-08T09:58:26Z</time>
      </trkpt>
      <trkpt lat="46.0332" lon="4.7033">
        <ele>192</ele>
        <time>2018-08-08T09:58:27Z</time>
      </trkpt>
      <trkpt lat="46.03314" lon="4.70333">
        <ele>192</ele>
        <time>2018-08-08T09:58:30Z</time>
      </trkpt>
      <trkpt lat="46.03305" lon="4.70336">
        <ele>191</ele>
        <time>2018-08-08T09:58:31Z</time>
      </trkpt>
      <trkpt lat="46.033" lon="4.70339">
        <ele>191</ele>
        <time>2018-08-08T09:58:34Z</time>
      </trkpt>
      <trkpt lat="46.03293" lon="4.70342">
        <ele>191</ele>
        <time>2018-08-08T09:58:35Z</time>
      </trkpt>
      <trkpt lat="46.03286" lon="4.70344">
        <ele>191</ele>
        <time>2018-08-08T09:58:37Z</time>
      </trkpt>
      <trkpt lat="46.03283" lon="4.70346">
        <ele>191</ele>
        <time>2018-08-08T09:58:38Z</time>
      </trkpt>
      <trkpt lat="46.03274" lon="4.70349">
        <ele>191</ele>
        <time>2018-08-08T09:58:40Z</time>
      </trkpt>
      <trkpt lat="46.03268" lon="4.70352">
        <ele>191</ele>
        <time>2018-08-08T09:58:41Z</time>
      </trkpt>
      <trkpt lat="46.03266" lon="4.70353">
        <ele>191</ele>
        <time>2018-08-08T09:58:42Z</time>
      </trkpt>
      <trkpt lat="46.03258" lon="4.70356">
        <ele>191</ele>
        <time>2018-08-08T09:58:43Z</time>
      </trkpt>
      <trkpt lat="46.0325" lon="4.70361">
        <ele>192</ele>
        <time>2018-08-08T09:58:45Z</time>
      </trkpt>
      <trkpt lat="46.03244" lon="4.70363">
        <ele>192</ele>
        <time>2018-08-08T09:58:46Z</time>
      </trkpt>
      <trkpt lat="46.03238" lon="4.70365">
        <ele>192</ele>
        <time>2018-08-08T09:58:48Z</time>
      </trkpt>
      <trkpt lat="46.03232" lon="4.70367">
        <ele>192</ele>
        <time>2018-08-08T09:58:49Z</time>
      </trkpt>
      <trkpt lat="46.03227" lon="4.70369">
        <ele>192</ele>
        <time>2018-08-08T09:58:50Z</time>
      </trkpt>
      <trkpt lat="46.03223" lon="4.70372">
        <ele>192</ele>
        <time>2018-08-08T09:58:51Z</time>
      </trkpt>
      <trkpt lat="46.03215" lon="4.70376">
        <ele>192</ele>
        <time>2018-08-08T09:58:53Z</time>
      </trkpt>
      <trkpt lat="46.0321" lon="4.70379">
        <ele>192</ele>
        <time>2018-08-08T09:58:54Z</time>
      </trkpt>
      <trkpt lat="46.03202" lon="4.70385">
        <ele>192</ele>
        <time>2018-08-08T09:58:56Z</time>
      </trkpt>
      <trkpt lat="46.03197" lon="4.70384">
        <ele>192</ele>
        <time>2018-08-08T09:58:57Z</time>
      </trkpt>
      <trkpt lat="46.03191" lon="4.70387">
        <ele>192</ele>
        <time>2018-08-08T09:58:59Z</time>
      </trkpt>
      <trkpt lat="46.03186" lon="4.70388">
        <ele>192</ele>
        <time>2018-08-08T09:59:00Z</time>
      </trkpt>
      <trkpt lat="46.03182" lon="4.70391">
        <ele>192</ele>
        <time>2018-08-08T09:59:01Z</time>
      </trkpt>
      <trkpt lat="46.03178" lon="4.70395">
        <ele>192</ele>
        <time>2018-08-08T09:59:02Z</time>
      </trkpt>
      <trkpt lat="46.03173" lon="4.70397">
        <ele>192</ele>
        <time>2018-08-08T09:59:03Z</time>
      </trkpt>
      <trkpt lat="46.03169" lon="4.704">
        <ele>192</ele>
        <time>2018-08-08T09:59:04Z</time>
      </trkpt>
      <trkpt lat="46.03164" lon="4.70402">
        <ele>192</ele>
        <time>2018-08-08T09:59:05Z</time>
      </trkpt>
      <trkpt lat="46.03158" lon="4.70405">
        <ele>192</ele>
        <time>2018-08-08T09:59:06Z</time>
      </trkpt>
      <trkpt lat="46.03153" lon="4.70408">
        <ele>192</ele>
        <time>2018-08-08T09:59:07Z</time>
      </trkpt>
      <trkpt lat="46.03148" lon="4.70411">
        <ele>192</ele>
        <time>2018-08-08T09:59:08Z</time>
      </trkpt>
      <trkpt lat="46.0314" lon="4.70418">
        <ele>192</ele>
        <time>2018-08-08T09:59:10Z</time>
      </trkpt>
      <trkpt lat="46.03134" lon="4.70418">
        <ele>192</ele>
        <time>2018-08-08T09:59:11Z</time>
      </trkpt>
      <trkpt lat="46.03129" lon="4.7042">
        <ele>192</ele>
        <time>2018-08-08T09:59:12Z</time>
      </trkpt>
      <trkpt lat="46.03124" lon="4.70423">
        <ele>192</ele>
        <time>2018-08-08T09:59:13Z</time>
      </trkpt>
      <trkpt lat="46.03117" lon="4.70425">
        <ele>192</ele>
        <time>2018-08-08T09:59:15Z</time>
      </trkpt>
      <trkpt lat="46.03112" lon="4.70427">
        <ele>192</ele>
        <time>2018-08-08T09:59:16Z</time>
      </trkpt>
      <trkpt lat="46.03105" lon="4.70432">
        <ele>192</ele>
        <time>2018-08-08T09:59:18Z</time>
      </trkpt>
      <trkpt lat="46.03101" lon="4.70434">
        <ele>192</ele>
        <time>2018-08-08T09:59:19Z</time>
      </trkpt>
      <trkpt lat="46.03093" lon="4.70438">
        <ele>192</ele>
        <time>2018-08-08T09:59:21Z</time>
      </trkpt>
      <trkpt lat="46.03087" lon="4.70439">
        <ele>192</ele>
        <time>2018-08-08T09:59:22Z</time>
      </trkpt>
      <trkpt lat="46.03082" lon="4.70443">
        <ele>191</ele>
        <time>2018-08-08T09:59:23Z</time>
      </trkpt>
      <trkpt lat="46.03076" lon="4.70446">
        <ele>191</ele>
        <time>2018-08-08T09:59:24Z</time>
      </trkpt>
      <trkpt lat="46.0307" lon="4.7045">
        <ele>191</ele>
        <time>2018-08-08T09:59:25Z</time>
      </trkpt>
      <trkpt lat="46.03066" lon="4.70454">
        <ele>191</ele>
        <time>2018-08-08T09:59:26Z</time>
      </trkpt>
      <trkpt lat="46.03061" lon="4.7046">
        <ele>191</ele>
        <time>2018-08-08T09:59:27Z</time>
      </trkpt>
      <trkpt lat="46.03056" lon="4.70464">
        <ele>191</ele>
        <time>2018-08-08T09:59:28Z</time>
      </trkpt>
      <trkpt lat="46.03051" lon="4.70468">
        <ele>191</ele>
        <time>2018-08-08T09:59:29Z</time>
      </trkpt>
      <trkpt lat="46.03047" lon="4.70471">
        <ele>191</ele>
        <time>2018-08-08T09:59:30Z</time>
      </trkpt>
      <trkpt lat="46.03042" lon="4.70475">
        <ele>191</ele>
        <time>2018-08-08T09:59:31Z</time>
      </trkpt>
      <trkpt lat="46.03039" lon="4.70481">
        <ele>191</ele>
        <time>2018-08-08T09:59:32Z</time>
      </trkpt>
      <trkpt lat="46.03034" lon="4.70485">
        <ele>191</ele>
        <time>2018-08-08T09:59:33Z</time>
      </trkpt>
      <trkpt lat="46.03029" lon="4.7049">
        <ele>191</ele>
        <time>2018-08-08T09:59:34Z</time>
      </trkpt>
      <trkpt lat="46.03025" lon="4.70496">
        <ele>191</ele>
        <time>2018-08-08T09:59:35Z</time>
      </trkpt>
      <trkpt lat="46.0302" lon="4.705">
        <ele>191</ele>
        <time>2018-08-08T09:59:36Z</time>
      </trkpt>
      <trkpt lat="46.03015" lon="4.70504">
        <ele>191</ele>
        <time>2018-08-08T09:59:37Z</time>
      </trkpt>
      <trkpt lat="46.0301" lon="4.70509">
        <ele>191</ele>
        <time>2018-08-08T09:59:38Z</time>
      </trkpt>
      <trkpt lat="46.03005" lon="4.70514">
        <ele>191</ele>
        <time>2018-08-08T09:59:39Z</time>
      </trkpt>
      <trkpt lat="46.03" lon="4.70518">
        <ele>191</ele>
        <time>2018-08-08T09:59:40Z</time>
      </trkpt>
      <trkpt lat="46.02996" lon="4.70523">
        <ele>191</ele>
        <time>2018-08-08T09:59:41Z</time>
      </trkpt>
      <trkpt lat="46.02991" lon="4.70527">
        <ele>191</ele>
        <time>2018-08-08T09:59:42Z</time>
      </trkpt>
      <trkpt lat="46.02986" lon="4.70532">
        <ele>191</ele>
        <time>2018-08-08T09:59:43Z</time>
      </trkpt>
      <trkpt lat="46.02981" lon="4.70535">
        <ele>191</ele>
        <time>2018-08-08T09:59:44Z</time>
      </trkpt>
      <trkpt lat="46.02976" lon="4.70539">
        <ele>191</ele>
        <time>2018-08-08T09:59:45Z</time>
      </trkpt>
      <trkpt lat="46.02971" lon="4.70543">
        <ele>191</ele>
        <time>2018-08-08T09:59:46Z</time>
      </trkpt>
      <trkpt lat="46.02967" lon="4.70548">
        <ele>191</ele>
        <time>2018-08-08T09:59:47Z</time>
      </trkpt>
      <trkpt lat="46.02961" lon="4.70553">
        <ele>191</ele>
        <time>2018-08-08T09:59:48Z</time>
      </trkpt>
      <trkpt lat="46.02957" lon="4.70559">
        <ele>191</ele>
        <time>2018-08-08T09:59:49Z</time>
      </trkpt>
      <trkpt lat="46.02952" lon="4.70566">
        <ele>191</ele>
        <time>2018-08-08T09:59:50Z</time>
      </trkpt>
      <trkpt lat="46.02948" lon="4.70572">
        <ele>191</ele>
        <time>2018-08-08T09:59:51Z</time>
      </trkpt>
      <trkpt lat="46.02945" lon="4.70579">
        <ele>191</ele>
        <time>2018-08-08T09:59:52Z</time>
      </trkpt>
      <trkpt lat="46.02942" lon="4.70584">
        <ele>192</ele>
        <time>2018-08-08T09:59:53Z</time>
      </trkpt>
      <trkpt lat="46.0294" lon="4.70592">
        <ele>192</ele>
        <time>2018-08-08T09:59:54Z</time>
      </trkpt>
      <trkpt lat="46.02937" lon="4.70599">
        <ele>192</ele>
        <time>2018-08-08T09:59:55Z</time>
      </trkpt>
      <trkpt lat="46.02935" lon="4.70605">
        <ele>192</ele>
        <time>2018-08-08T09:59:56Z</time>
      </trkpt>
      <trkpt lat="46.02933" lon="4.70612">
        <ele>192</ele>
        <time>2018-08-08T09:59:57Z</time>
      </trkpt>
      <trkpt lat="46.0293" lon="4.70619">
        <ele>192</ele>
        <time>2018-08-08T09:59:58Z</time>
      </trkpt>
      <trkpt lat="46.02928" lon="4.70625">
        <ele>192</ele>
        <time>2018-08-08T09:59:59Z</time>
      </trkpt>
      <trkpt lat="46.02926" lon="4.7063">
        <ele>192</ele>
        <time>2018-08-08T10:00:00Z</time>
      </trkpt>
      <trkpt lat="46.02924" lon="4.70639">
        <ele>192</ele>
        <time>2018-08-08T10:00:01Z</time>
      </trkpt>
      <trkpt lat="46.02922" lon="4.70647">
        <ele>192</ele>
        <time>2018-08-08T10:00:02Z</time>
      </trkpt>
      <trkpt lat="46.02918" lon="4.70652">
        <ele>191</ele>
        <time>2018-08-08T10:00:03Z</time>
      </trkpt>
      <trkpt lat="46.02913" lon="4.70656">
        <ele>191</ele>
        <time>2018-08-08T10:00:04Z</time>
      </trkpt>
      <trkpt lat="46.02908" lon="4.70657">
        <ele>191</ele>
        <time>2018-08-08T10:00:05Z</time>
      </trkpt>
      <trkpt lat="46.02903" lon="4.70658">
        <ele>191</ele>
        <time>2018-08-08T10:00:06Z</time>
      </trkpt>
      <trkpt lat="46.02898" lon="4.70659">
        <ele>191</ele>
        <time>2018-08-08T10:00:07Z</time>
      </trkpt>
      <trkpt lat="46.02893" lon="4.70659">
        <ele>190</ele>
        <time>2018-08-08T10:00:08Z</time>
      </trkpt>
      <trkpt lat="46.02887" lon="4.70659">
        <ele>190</ele>
        <time>2018-08-08T10:00:09Z</time>
      </trkpt>
      <trkpt lat="46.0288" lon="4.70659">
        <ele>190</ele>
        <time>2018-08-08T10:00:10Z</time>
      </trkpt>
      <trkpt lat="46.02875" lon="4.7066">
        <ele>190</ele>
        <time>2018-08-08T10:00:11Z</time>
      </trkpt>
      <trkpt lat="46.02869" lon="4.70661">
        <ele>190</ele>
        <time>2018-08-08T10:00:12Z</time>
      </trkpt>
      <trkpt lat="46.02863" lon="4.70659">
        <ele>190</ele>
        <time>2018-08-08T10:00:13Z</time>
      </trkpt>
      <trkpt lat="46.02857" lon="4.70661">
        <ele>190</ele>
        <time>2018-08-08T10:00:14Z</time>
      </trkpt>
      <trkpt lat="46.02851" lon="4.70662">
        <ele>190</ele>
        <time>2018-08-08T10:00:15Z</time>
      </trkpt>
      <trkpt lat="46.02845" lon="4.70663">
        <ele>189</ele>
        <time>2018-08-08T10:00:16Z</time>
      </trkpt>
      <trkpt lat="46.02838" lon="4.70664">
        <ele>189</ele>
        <time>2018-08-08T10:00:17Z</time>
      </trkpt>
      <trkpt lat="46.02832" lon="4.70666">
        <ele>189</ele>
        <time>2018-08-08T10:00:18Z</time>
      </trkpt>
      <trkpt lat="46.02827" lon="4.70668">
        <ele>189</ele>
        <time>2018-08-08T10:00:19Z</time>
      </trkpt>
      <trkpt lat="46.0282" lon="4.70668">
        <ele>189</ele>
        <time>2018-08-08T10:00:20Z</time>
      </trkpt>
      <trkpt lat="46.02814" lon="4.7067">
        <ele>189</ele>
        <time>2018-08-08T10:00:21Z</time>
      </trkpt>
      <trkpt lat="46.02808" lon="4.70671">
        <ele>189</ele>
        <time>2018-08-08T10:00:22Z</time>
      </trkpt>
      <trkpt lat="46.02804" lon="4.70672">
        <ele>189</ele>
        <time>2018-08-08T10:00:23Z</time>
      </trkpt>
      <trkpt lat="46.02798" lon="4.70673">
        <ele>189</ele>
        <time>2018-08-08T10:00:24Z</time>
      </trkpt>
      <trkpt lat="46.02793" lon="4.70673">
        <ele>189</ele>
        <time>2018-08-08T10:00:25Z</time>
      </trkpt>
      <trkpt lat="46.02788" lon="4.70673">
        <ele>189</ele>
        <time>2018-08-08T10:00:26Z</time>
      </trkpt>
      <trkpt lat="46.02783" lon="4.70674">
        <ele>189</ele>
        <time>2018-08-08T10:00:27Z</time>
      </trkpt>
      <trkpt lat="46.02778" lon="4.70674">
        <ele>189</ele>
        <time>2018-08-08T10:00:28Z</time>
      </trkpt>
      <trkpt lat="46.02772" lon="4.70672">
        <ele>189</ele>
        <time>2018-08-08T10:00:29Z</time>
      </trkpt>
      <trkpt lat="46.02767" lon="4.70671">
        <ele>189</ele>
        <time>2018-08-08T10:00:30Z</time>
      </trkpt>
      <trkpt lat="46.02761" lon="4.7067">
        <ele>189</ele>
        <time>2018-08-08T10:00:31Z</time>
      </trkpt>
      <trkpt lat="46.02756" lon="4.70669">
        <ele>189</ele>
        <time>2018-08-08T10:00:32Z</time>
      </trkpt>
      <trkpt lat="46.0275" lon="4.70667">
        <ele>189</ele>
        <time>2018-08-08T10:00:33Z</time>
      </trkpt>
      <trkpt lat="46.02744" lon="4.70666">
        <ele>189</ele>
        <time>2018-08-08T10:00:34Z</time>
      </trkpt>
      <trkpt lat="46.02738" lon="4.70667">
        <ele>189</ele>
        <time>2018-08-08T10:00:35Z</time>
      </trkpt>
      <trkpt lat="46.02732" lon="4.70665">
        <ele>189</ele>
        <time>2018-08-08T10:00:36Z</time>
      </trkpt>
      <trkpt lat="46.02727" lon="4.70665">
        <ele>189</ele>
        <time>2018-08-08T10:00:37Z</time>
      </trkpt>
      <trkpt lat="46.02721" lon="4.70664">
        <ele>189</ele>
        <time>2018-08-08T10:00:38Z</time>
      </trkpt>
      <trkpt lat="46.02715" lon="4.70663">
        <ele>189</ele>
        <time>2018-08-08T10:00:39Z</time>
      </trkpt>
      <trkpt lat="46.0271" lon="4.70662">
        <ele>189</ele>
        <time>2018-08-08T10:00:40Z</time>
      </trkpt>
      <trkpt lat="46.02704" lon="4.70661">
        <ele>189</ele>
        <time>2018-08-08T10:00:41Z</time>
      </trkpt>
      <trkpt lat="46.02698" lon="4.7066">
        <ele>189</ele>
        <time>2018-08-08T10:00:42Z</time>
      </trkpt>
      <trkpt lat="46.02693" lon="4.70659">
        <ele>189</ele>
        <time>2018-08-08T10:00:43Z</time>
      </trkpt>
      <trkpt lat="46.02688" lon="4.70659">
        <ele>190</ele>
        <time>2018-08-08T10:00:44Z</time>
      </trkpt>
      <trkpt lat="46.02682" lon="4.70658">
        <ele>190</ele>
        <time>2018-08-08T10:00:45Z</time>
      </trkpt>
      <trkpt lat="46.02678" lon="4.70655">
        <ele>190</ele>
        <time>2018-08-08T10:00:46Z</time>
      </trkpt>
      <trkpt lat="46.02674" lon="4.70655">
        <ele>190</ele>
        <time>2018-08-08T10:00:47Z</time>
      </trkpt>
      <trkpt lat="46.02669" lon="4.70654">
        <ele>190</ele>
        <time>2018-08-08T10:00:48Z</time>
      </trkpt>
      <trkpt lat="46.02665" lon="4.70653">
        <ele>190</ele>
        <time>2018-08-08T10:00:49Z</time>
      </trkpt>
      <trkpt lat="46.02659" lon="4.70652">
        <ele>190</ele>
        <time>2018-08-08T10:00:50Z</time>
      </trkpt>
      <trkpt lat="46.02652" lon="4.70649">
        <ele>190</ele>
        <time>2018-08-08T10:00:52Z</time>
      </trkpt>
      <trkpt lat="46.02648" lon="4.70648">
        <ele>190</ele>
        <time>2018-08-08T10:00:53Z</time>
      </trkpt>
      <trkpt lat="46.02642" lon="4.70647">
        <ele>190</ele>
        <time>2018-08-08T10:00:54Z</time>
      </trkpt>
      <trkpt lat="46.02635" lon="4.70645">
        <ele>190</ele>
        <time>2018-08-08T10:00:55Z</time>
      </trkpt>
      <trkpt lat="46.02629" lon="4.70643">
        <ele>190</ele>
        <time>2018-08-08T10:00:56Z</time>
      </trkpt>
      <trkpt lat="46.02622" lon="4.70642">
        <ele>190</ele>
        <time>2018-08-08T10:00:57Z</time>
      </trkpt>
      <trkpt lat="46.02616" lon="4.70641">
        <ele>190</ele>
        <time>2018-08-08T10:00:58Z</time>
      </trkpt>
      <trkpt lat="46.0261" lon="4.70641">
        <ele>190</ele>
        <time>2018-08-08T10:00:59Z</time>
      </trkpt>
      <trkpt lat="46.02605" lon="4.70641">
        <ele>190</ele>
        <time>2018-08-08T10:01:00Z</time>
      </trkpt>
      <trkpt lat="46.02599" lon="4.7064">
        <ele>190</ele>
        <time>2018-08-08T10:01:01Z</time>
      </trkpt>
      <trkpt lat="46.02594" lon="4.70638">
        <ele>190</ele>
        <time>2018-08-08T10:01:02Z</time>
      </trkpt>
      <trkpt lat="46.02588" lon="4.70638">
        <ele>190</ele>
        <time>2018-08-08T10:01:03Z</time>
      </trkpt>
      <trkpt lat="46.02583" lon="4.70637">
        <ele>189</ele>
        <time>2018-08-08T10:01:04Z</time>
      </trkpt>
      <trkpt lat="46.02577" lon="4.70636">
        <ele>189</ele>
        <time>2018-08-08T10:01:05Z</time>
      </trkpt>
      <trkpt lat="46.02572" lon="4.70635">
        <ele>189</ele>
        <time>2018-08-08T10:01:06Z</time>
      </trkpt>
      <trkpt lat="46.02565" lon="4.70634">
        <ele>189</ele>
        <time>2018-08-08T10:01:07Z</time>
      </trkpt>
      <trkpt lat="46.0256" lon="4.70632">
        <ele>189</ele>
        <time>2018-08-08T10:01:08Z</time>
      </trkpt>
      <trkpt lat="46.02554" lon="4.70632">
        <ele>189</ele>
        <time>2018-08-08T10:01:09Z</time>
      </trkpt>
      <trkpt lat="46.02547" lon="4.70629">
        <ele>189</ele>
        <time>2018-08-08T10:01:10Z</time>
      </trkpt>
      <trkpt lat="46.02542" lon="4.70629">
        <ele>189</ele>
        <time>2018-08-08T10:01:11Z</time>
      </trkpt>
      <trkpt lat="46.02537" lon="4.70629">
        <ele>189</ele>
        <time>2018-08-08T10:01:12Z</time>
      </trkpt>
      <trkpt lat="46.02531" lon="4.70626">
        <ele>189</ele>
        <time>2018-08-08T10:01:13Z</time>
      </trkpt>
      <trkpt lat="46.02525" lon="4.70626">
        <ele>189</ele>
        <time>2018-08-08T10:01:14Z</time>
      </trkpt>
      <trkpt lat="46.0252" lon="4.70624">
        <ele>189</ele>
        <time>2018-08-08T10:01:15Z</time>
      </trkpt>
      <trkpt lat="46.02512" lon="4.70619">
        <ele>189</ele>
        <time>2018-08-08T10:01:18Z</time>
      </trkpt>
      <trkpt lat="46.02504" lon="4.70618">
        <ele>189</ele>
        <time>2018-08-08T10:01:19Z</time>
      </trkpt>
      <trkpt lat="46.02496" lon="4.70616">
        <ele>188</ele>
        <time>2018-08-08T10:01:21Z</time>
      </trkpt>
      <trkpt lat="46.0249" lon="4.70611">
        <ele>188</ele>
        <time>2018-08-08T10:01:22Z</time>
      </trkpt>
      <trkpt lat="46.02484" lon="4.70612">
        <ele>188</ele>
        <time>2018-08-08T10:01:24Z</time>
      </trkpt>
      <trkpt lat="46.0248" lon="4.70614">
        <ele>188</ele>
        <time>2018-08-08T10:01:25Z</time>
      </trkpt>
      <trkpt lat="46.02476" lon="4.70619">
        <ele>188</ele>
        <time>2018-08-08T10:01:27Z</time>
      </trkpt>
      <trkpt lat="46.02473" lon="4.70628">
        <ele>188</ele>
        <time>2018-08-08T10:01:28Z</time>
      </trkpt>
      <trkpt lat="46.02468" lon="4.70637">
        <ele>188</ele>
        <time>2018-08-08T10:01:30Z</time>
      </trkpt>
      <trkpt lat="46.02467" lon="4.70643">
        <ele>188</ele>
        <time>2018-08-08T10:01:31Z</time>
      </trkpt>
      <trkpt lat="46.02465" lon="4.7065">
        <ele>188</ele>
        <time>2018-08-08T10:01:32Z</time>
      </trkpt>
      <trkpt lat="46.02464" lon="4.70656">
        <ele>189</ele>
        <time>2018-08-08T10:01:33Z</time>
      </trkpt>
      <trkpt lat="46.02463" lon="4.70664">
        <ele>189</ele>
        <time>2018-08-08T10:01:34Z</time>
      </trkpt>
      <trkpt lat="46.02461" lon="4.70673">
        <ele>190</ele>
        <time>2018-08-08T10:01:35Z</time>
      </trkpt>
      <trkpt lat="46.0246" lon="4.7068">
        <ele>190</ele>
        <time>2018-08-08T10:01:36Z</time>
      </trkpt>
      <trkpt lat="46.02459" lon="4.70686">
        <ele>190</ele>
        <time>2018-08-08T10:01:37Z</time>
      </trkpt>
      <trkpt lat="46.02456" lon="4.70693">
        <ele>190</ele>
        <time>2018-08-08T10:01:38Z</time>
      </trkpt>
      <trkpt lat="46.02455" lon="4.70698">
        <ele>190</ele>
        <time>2018-08-08T10:01:39Z</time>
      </trkpt>
      <trkpt lat="46.02453" lon="4.70704">
        <ele>190</ele>
        <time>2018-08-08T10:01:40Z</time>
      </trkpt>
      <trkpt lat="46.02451" lon="4.70711">
        <ele>190</ele>
        <time>2018-08-08T10:01:41Z</time>
      </trkpt>
      <trkpt lat="46.02449" lon="4.70718">
        <ele>190</ele>
        <time>2018-08-08T10:01:42Z</time>
      </trkpt>
      <trkpt lat="46.02447" lon="4.70725">
        <ele>190</ele>
        <time>2018-08-08T10:01:43Z</time>
      </trkpt>
      <trkpt lat="46.02446" lon="4.70733">
        <ele>190</ele>
        <time>2018-08-08T10:01:44Z</time>
      </trkpt>
      <trkpt lat="46.02444" lon="4.70739">
        <ele>190</ele>
        <time>2018-08-08T10:01:45Z</time>
      </trkpt>
      <trkpt lat="46.0244" lon="4.70742">
        <ele>189</ele>
        <time>2018-08-08T10:01:46Z</time>
      </trkpt>
      <trkpt lat="46.02437" lon="4.70748">
        <ele>189</ele>
        <time>2018-08-08T10:01:47Z</time>
      </trkpt>
      <trkpt lat="46.02433" lon="4.70751">
        <ele>189</ele>
        <time>2018-08-08T10:01:48Z</time>
      </trkpt>
      <trkpt lat="46.02428" lon="4.70755">
        <ele>189</ele>
        <time>2018-08-08T10:01:49Z</time>
      </trkpt>
      <trkpt lat="46.02424" lon="4.70759">
        <ele>189</ele>
        <time>2018-08-08T10:01:50Z</time>
      </trkpt>
      <trkpt lat="46.02419" lon="4.70764">
        <ele>189</ele>
        <time>2018-08-08T10:01:51Z</time>
      </trkpt>
      <trkpt lat="46.02416" lon="4.7077">
        <ele>186</ele>
        <time>2018-08-08T10:01:52Z</time>
      </trkpt>
      <trkpt lat="46.02412" lon="4.70772">
        <ele>186</ele>
        <time>2018-08-08T10:01:53Z</time>
      </trkpt>
      <trkpt lat="46.02407" lon="4.70774">
        <ele>185</ele>
        <time>2018-08-08T10:01:54Z</time>
      </trkpt>
      <trkpt lat="46.02401" lon="4.70775">
        <ele>185</ele>
        <time>2018-08-08T10:01:55Z</time>
      </trkpt>
      <trkpt lat="46.02394" lon="4.70775">
        <ele>185</ele>
        <time>2018-08-08T10:01:56Z</time>
      </trkpt>
      <trkpt lat="46.02389" lon="4.70776">
        <ele>184</ele>
        <time>2018-08-08T10:01:57Z</time>
      </trkpt>
      <trkpt lat="46.02382" lon="4.70774">
        <ele>184</ele>
        <time>2018-08-08T10:01:58Z</time>
      </trkpt>
      <trkpt lat="46.02376" lon="4.70773">
        <ele>184</ele>
        <time>2018-08-08T10:01:59Z</time>
      </trkpt>
      <trkpt lat="46.0237" lon="4.70771">
        <ele>184</ele>
        <time>2018-08-08T10:02:00Z</time>
      </trkpt>
      <trkpt lat="46.02363" lon="4.7077">
        <ele>183</ele>
        <time>2018-08-08T10:02:01Z</time>
      </trkpt>
      <trkpt lat="46.02356" lon="4.7077">
        <ele>183</ele>
        <time>2018-08-08T10:02:02Z</time>
      </trkpt>
      <trkpt lat="46.02349" lon="4.70767">
        <ele>182</ele>
        <time>2018-08-08T10:02:03Z</time>
      </trkpt>
      <trkpt lat="46.02342" lon="4.70766">
        <ele>182</ele>
        <time>2018-08-08T10:02:04Z</time>
      </trkpt>
      <trkpt lat="46.02336" lon="4.70767">
        <ele>182</ele>
        <time>2018-08-08T10:02:05Z</time>
      </trkpt>
      <trkpt lat="46.02329" lon="4.70766">
        <ele>180</ele>
        <time>2018-08-08T10:02:06Z</time>
      </trkpt>
      <trkpt lat="46.02323" lon="4.70764">
        <ele>180</ele>
        <time>2018-08-08T10:02:07Z</time>
      </trkpt>
      <trkpt lat="46.02316" lon="4.70763">
        <ele>180</ele>
        <time>2018-08-08T10:02:08Z</time>
      </trkpt>
      <trkpt lat="46.02309" lon="4.70762">
        <ele>180</ele>
        <time>2018-08-08T10:02:09Z</time>
      </trkpt>
      <trkpt lat="46.02302" lon="4.70761">
        <ele>180</ele>
        <time>2018-08-08T10:02:10Z</time>
      </trkpt>
      <trkpt lat="46.02295" lon="4.70761">
        <ele>180</ele>
        <time>2018-08-08T10:02:11Z</time>
      </trkpt>
      <trkpt lat="46.02288" lon="4.70759">
        <ele>181</ele>
        <time>2018-08-08T10:02:12Z</time>
      </trkpt>
      <trkpt lat="46.02281" lon="4.70758">
        <ele>181</ele>
        <time>2018-08-08T10:02:13Z</time>
      </trkpt>
      <trkpt lat="46.02274" lon="4.70757">
        <ele>181</ele>
        <time>2018-08-08T10:02:14Z</time>
      </trkpt>
      <trkpt lat="46.02268" lon="4.70756">
        <ele>181</ele>
        <time>2018-08-08T10:02:15Z</time>
      </trkpt>
      <trkpt lat="46.02261" lon="4.70754">
        <ele>181</ele>
        <time>2018-08-08T10:02:16Z</time>
      </trkpt>
      <trkpt lat="46.02255" lon="4.70753">
        <ele>181</ele>
        <time>2018-08-08T10:02:17Z</time>
      </trkpt>
      <trkpt lat="46.02248" lon="4.70752">
        <ele>181</ele>
        <time>2018-08-08T10:02:18Z</time>
      </trkpt>
      <trkpt lat="46.02243" lon="4.7075">
        <ele>181</ele>
        <time>2018-08-08T10:02:19Z</time>
      </trkpt>
      <trkpt lat="46.02237" lon="4.70749">
        <ele>181</ele>
        <time>2018-08-08T10:02:20Z</time>
      </trkpt>
      <trkpt lat="46.02231" lon="4.70748">
        <ele>181</ele>
        <time>2018-08-08T10:02:21Z</time>
      </trkpt>
      <trkpt lat="46.02225" lon="4.70746">
        <ele>181</ele>
        <time>2018-08-08T10:02:22Z</time>
      </trkpt>
      <trkpt lat="46.02219" lon="4.70746">
        <ele>180</ele>
        <time>2018-08-08T10:02:23Z</time>
      </trkpt>
      <trkpt lat="46.02213" lon="4.70746">
        <ele>180</ele>
        <time>2018-08-08T10:02:24Z</time>
      </trkpt>
      <trkpt lat="46.02207" lon="4.70744">
        <ele>180</ele>
        <time>2018-08-08T10:02:25Z</time>
      </trkpt>
      <trkpt lat="46.02202" lon="4.70743">
        <ele>180</ele>
        <time>2018-08-08T10:02:26Z</time>
      </trkpt>
      <trkpt lat="46.02197" lon="4.70742">
        <ele>180</ele>
        <time>2018-08-08T10:02:27Z</time>
      </trkpt>
      <trkpt lat="46.02191" lon="4.7074">
        <ele>180</ele>
        <time>2018-08-08T10:02:28Z</time>
      </trkpt>
      <trkpt lat="46.02187" lon="4.70739">
        <ele>180</ele>
        <time>2018-08-08T10:02:29Z</time>
      </trkpt>
      <trkpt lat="46.02178" lon="4.70736">
        <ele>180</ele>
        <time>2018-08-08T10:03:23Z</time>
      </trkpt>
      <trkpt lat="46.02177" lon="4.70736">
        <ele>180</ele>
        <time>2018-08-08T10:03:24Z</time>
      </trkpt>
      <trkpt lat="46.0217" lon="4.70735">
        <ele>180</ele>
        <time>2018-08-08T10:03:30Z</time>
      </trkpt>
      <trkpt lat="46.02162" lon="4.70734">
        <ele>179</ele>
        <time>2018-08-08T10:03:31Z</time>
      </trkpt>
      <trkpt lat="46.02154" lon="4.70733">
        <ele>179</ele>
        <time>2018-08-08T10:03:33Z</time>
      </trkpt>
      <trkpt lat="46.0215" lon="4.70732">
        <ele>179</ele>
        <time>2018-08-08T10:03:34Z</time>
      </trkpt>
      <trkpt lat="46.02141" lon="4.7073">
        <ele>179</ele>
        <time>2018-08-08T10:03:36Z</time>
      </trkpt>
      <trkpt lat="46.02136" lon="4.70729">
        <ele>179</ele>
        <time>2018-08-08T10:03:37Z</time>
      </trkpt>
      <trkpt lat="46.02127" lon="4.70727">
        <ele>179</ele>
        <time>2018-08-08T10:03:39Z</time>
      </trkpt>
      <trkpt lat="46.02126" lon="4.70728">
        <ele>179</ele>
        <time>2018-08-08T10:03:40Z</time>
      </trkpt>
      <trkpt lat="46.02121" lon="4.70726">
        <ele>179</ele>
        <time>2018-08-08T10:03:42Z</time>
      </trkpt>
      <trkpt lat="46.02114" lon="4.70724">
        <ele>179</ele>
        <time>2018-08-08T10:03:43Z</time>
      </trkpt>
      <trkpt lat="46.02111" lon="4.70724">
        <ele>179</ele>
        <time>2018-08-08T10:03:44Z</time>
      </trkpt>
      <trkpt lat="46.02105" lon="4.70722">
        <ele>179</ele>
        <time>2018-08-08T10:03:45Z</time>
      </trkpt>
      <trkpt lat="46.021" lon="4.70721">
        <ele>179</ele>
        <time>2018-08-08T10:03:46Z</time>
      </trkpt>
      <trkpt lat="46.02095" lon="4.7072">
        <ele>179</ele>
        <time>2018-08-08T10:03:47Z</time>
      </trkpt>
      <trkpt lat="46.02086" lon="4.70719">
        <ele>179</ele>
        <time>2018-08-08T10:03:49Z</time>
      </trkpt>
      <trkpt lat="46.02081" lon="4.70718">
        <ele>179</ele>
        <time>2018-08-08T10:03:50Z</time>
      </trkpt>
      <trkpt lat="46.02076" lon="4.70718">
        <ele>179</ele>
        <time>2018-08-08T10:03:51Z</time>
      </trkpt>
      <trkpt lat="46.02071" lon="4.70715">
        <ele>179</ele>
        <time>2018-08-08T10:03:52Z</time>
      </trkpt>
      <trkpt lat="46.02067" lon="4.70716">
        <ele>179</ele>
        <time>2018-08-08T10:03:53Z</time>
      </trkpt>
      <trkpt lat="46.02061" lon="4.70713">
        <ele>179</ele>
        <time>2018-08-08T10:03:54Z</time>
      </trkpt>
      <trkpt lat="46.02055" lon="4.70715">
        <ele>179</ele>
        <time>2018-08-08T10:03:55Z</time>
      </trkpt>
      <trkpt lat="46.0205" lon="4.70712">
        <ele>179</ele>
        <time>2018-08-08T10:03:56Z</time>
      </trkpt>
      <trkpt lat="46.02045" lon="4.70712">
        <ele>179</ele>
        <time>2018-08-08T10:03:57Z</time>
      </trkpt>
      <trkpt lat="46.02039" lon="4.70713">
        <ele>179</ele>
        <time>2018-08-08T10:03:58Z</time>
      </trkpt>
      <trkpt lat="46.02034" lon="4.70713">
        <ele>179</ele>
        <time>2018-08-08T10:03:59Z</time>
      </trkpt>
      <trkpt lat="46.02027" lon="4.70712">
        <ele>179</ele>
        <time>2018-08-08T10:04:00Z</time>
      </trkpt>
      <trkpt lat="46.02021" lon="4.7071">
        <ele>179</ele>
        <time>2018-08-08T10:04:01Z</time>
      </trkpt>
      <trkpt lat="46.02016" lon="4.70709">
        <ele>179</ele>
        <time>2018-08-08T10:04:02Z</time>
      </trkpt>
      <trkpt lat="46.02011" lon="4.70706">
        <ele>179</ele>
        <time>2018-08-08T10:04:03Z</time>
      </trkpt>
      <trkpt lat="46.02007" lon="4.70705">
        <ele>179</ele>
        <time>2018-08-08T10:04:04Z</time>
      </trkpt>
      <trkpt lat="46.02003" lon="4.70706">
        <ele>179</ele>
        <time>2018-08-08T10:04:05Z</time>
      </trkpt>
      <trkpt lat="46.01998" lon="4.70705">
        <ele>181</ele>
        <time>2018-08-08T10:04:06Z</time>
      </trkpt>
      <trkpt lat="46.01989" lon="4.70703">
        <ele>181</ele>
        <time>2018-08-08T10:04:08Z</time>
      </trkpt>
      <trkpt lat="46.01985" lon="4.70702">
        <ele>181</ele>
        <time>2018-08-08T10:04:09Z</time>
      </trkpt>
      <trkpt lat="46.01976" lon="4.70699">
        <ele>181</ele>
        <time>2018-08-08T10:04:11Z</time>
      </trkpt>
      <trkpt lat="46.01971" lon="4.70697">
        <ele>181</ele>
        <time>2018-08-08T10:04:12Z</time>
      </trkpt>
      <trkpt lat="46.01965" lon="4.70696">
        <ele>181</ele>
        <time>2018-08-08T10:04:13Z</time>
      </trkpt>
      <trkpt lat="46.01962" lon="4.70697">
        <ele>181</ele>
        <time>2018-08-08T10:04:14Z</time>
      </trkpt>
      <trkpt lat="46.01956" lon="4.70695">
        <ele>181</ele>
        <time>2018-08-08T10:04:15Z</time>
      </trkpt>
      <trkpt lat="46.01952" lon="4.70695">
        <ele>181</ele>
        <time>2018-08-08T10:04:16Z</time>
      </trkpt>
      <trkpt lat="46.01948" lon="4.70694">
        <ele>182</ele>
        <time>2018-08-08T10:04:17Z</time>
      </trkpt>
      <trkpt lat="46.01943" lon="4.70692">
        <ele>182</ele>
        <time>2018-08-08T10:04:18Z</time>
      </trkpt>
      <trkpt lat="46.01937" lon="4.7069">
        <ele>182</ele>
        <time>2018-08-08T10:04:19Z</time>
      </trkpt>
      <trkpt lat="46.01933" lon="4.70689">
        <ele>182</ele>
        <time>2018-08-08T10:04:20Z</time>
      </trkpt>
      <trkpt lat="46.01927" lon="4.7069">
        <ele>182</ele>
        <time>2018-08-08T10:04:22Z</time>
      </trkpt>
      <trkpt lat="46.01922" lon="4.7069">
        <ele>182</ele>
        <time>2018-08-08T10:04:23Z</time>
      </trkpt>
      <trkpt lat="46.01915" lon="4.70686">
        <ele>184</ele>
        <time>2018-08-08T10:04:25Z</time>
      </trkpt>
      <trkpt lat="46.0191" lon="4.70686">
        <ele>184</ele>
        <time>2018-08-08T10:04:26Z</time>
      </trkpt>
      <trkpt lat="46.01902" lon="4.70685">
        <ele>184</ele>
        <time>2018-08-08T10:04:28Z</time>
      </trkpt>
      <trkpt lat="46.01897" lon="4.70685">
        <ele>184</ele>
        <time>2018-08-08T10:04:29Z</time>
      </trkpt>
      <trkpt lat="46.01892" lon="4.70685">
        <ele>184</ele>
        <time>2018-08-08T10:04:30Z</time>
      </trkpt>
      <trkpt lat="46.01887" lon="4.70685">
        <ele>185</ele>
        <time>2018-08-08T10:04:31Z</time>
      </trkpt>
      <trkpt lat="46.01879" lon="4.70686">
        <ele>185</ele>
        <time>2018-08-08T10:04:33Z</time>
      </trkpt>
      <trkpt lat="46.01874" lon="4.70686">
        <ele>185</ele>
        <time>2018-08-08T10:04:34Z</time>
      </trkpt>
      <trkpt lat="46.01869" lon="4.70687">
        <ele>185</ele>
        <time>2018-08-08T10:04:35Z</time>
      </trkpt>
      <trkpt lat="46.01864" lon="4.70686">
        <ele>185</ele>
        <time>2018-08-08T10:04:36Z</time>
      </trkpt>
      <trkpt lat="46.01859" lon="4.70686">
        <ele>185</ele>
        <time>2018-08-08T10:04:37Z</time>
      </trkpt>
      <trkpt lat="46.01854" lon="4.70686">
        <ele>185</ele>
        <time>2018-08-08T10:04:38Z</time>
      </trkpt>
      <trkpt lat="46.0185" lon="4.70687">
        <ele>185</ele>
        <time>2018-08-08T10:04:39Z</time>
      </trkpt>
      <trkpt lat="46.01845" lon="4.70689">
        <ele>185</ele>
        <time>2018-08-08T10:04:40Z</time>
      </trkpt>
      <trkpt lat="46.0184" lon="4.70689">
        <ele>186</ele>
        <time>2018-08-08T10:04:41Z</time>
      </trkpt>
      <trkpt lat="46.01835" lon="4.7069">
        <ele>186</ele>
        <time>2018-08-08T10:04:42Z</time>
      </trkpt>
      <trkpt lat="46.01827" lon="4.70691">
        <ele>187</ele>
        <time>2018-08-08T10:04:44Z</time>
      </trkpt>
      <trkpt lat="46.01821" lon="4.70692">
        <ele>187</ele>
        <time>2018-08-08T10:04:45Z</time>
      </trkpt>
      <trkpt lat="46.01816" lon="4.70691">
        <ele>187</ele>
        <time>2018-08-08T10:04:46Z</time>
      </trkpt>
      <trkpt lat="46.01811" lon="4.70693">
        <ele>187</ele>
        <time>2018-08-08T10:04:47Z</time>
      </trkpt>
      <trkpt lat="46.01802" lon="4.70693">
        <ele>187</ele>
        <time>2018-08-08T10:04:49Z</time>
      </trkpt>
      <trkpt lat="46.01798" lon="4.70694">
        <ele>187</ele>
        <time>2018-08-08T10:04:50Z</time>
      </trkpt>
      <trkpt lat="46.01792" lon="4.70695">
        <ele>187</ele>
        <time>2018-08-08T10:04:51Z</time>
      </trkpt>
      <trkpt lat="46.01787" lon="4.70694">
        <ele>187</ele>
        <time>2018-08-08T10:04:52Z</time>
      </trkpt>
      <trkpt lat="46.01781" lon="4.70696">
        <ele>187</ele>
        <time>2018-08-08T10:04:53Z</time>
      </trkpt>
      <trkpt lat="46.01776" lon="4.70697">
        <ele>187</ele>
        <time>2018-08-08T10:04:54Z</time>
      </trkpt>
      <trkpt lat="46.01771" lon="4.70697">
        <ele>187</ele>
        <time>2018-08-08T10:04:55Z</time>
      </trkpt>
      <trkpt lat="46.01767" lon="4.70699">
        <ele>187</ele>
        <time>2018-08-08T10:04:56Z</time>
      </trkpt>
      <trkpt lat="46.01762" lon="4.70699">
        <ele>187</ele>
        <time>2018-08-08T10:04:57Z</time>
      </trkpt>
      <trkpt lat="46.01757" lon="4.707">
        <ele>187</ele>
        <time>2018-08-08T10:04:58Z</time>
      </trkpt>
      <trkpt lat="46.01749" lon="4.70699">
        <ele>188</ele>
        <time>2018-08-08T10:05:00Z</time>
      </trkpt>
      <trkpt lat="46.01744" lon="4.70701">
        <ele>188</ele>
        <time>2018-08-08T10:05:01Z</time>
      </trkpt>
      <trkpt lat="46.0174" lon="4.707">
        <ele>188</ele>
        <time>2018-08-08T10:05:02Z</time>
      </trkpt>
      <trkpt lat="46.01735" lon="4.70701">
        <ele>188</ele>
        <time>2018-08-08T10:05:03Z</time>
      </trkpt>
      <trkpt lat="46.01729" lon="4.70701">
        <ele>188</ele>
        <time>2018-08-08T10:05:04Z</time>
      </trkpt>
      <trkpt lat="46.01724" lon="4.70701">
        <ele>188</ele>
        <time>2018-08-08T10:05:05Z</time>
      </trkpt>
      <trkpt lat="46.0172" lon="4.70702">
        <ele>188</ele>
        <time>2018-08-08T10:05:06Z</time>
      </trkpt>
      <trkpt lat="46.01715" lon="4.70702">
        <ele>188</ele>
        <time>2018-08-08T10:05:07Z</time>
      </trkpt>
      <trkpt lat="46.01707" lon="4.70702">
        <ele>189</ele>
        <time>2018-08-08T10:05:09Z</time>
      </trkpt>
      <trkpt lat="46.01702" lon="4.70703">
        <ele>189</ele>
        <time>2018-08-08T10:05:10Z</time>
      </trkpt>
      <trkpt lat="46.01697" lon="4.70702">
        <ele>189</ele>
        <time>2018-08-08T10:05:11Z</time>
      </trkpt>
      <trkpt lat="46.01693" lon="4.70703">
        <ele>189</ele>
        <time>2018-08-08T10:05:12Z</time>
      </trkpt>
      <trkpt lat="46.01685" lon="4.70705">
        <ele>189</ele>
        <time>2018-08-08T10:05:14Z</time>
      </trkpt>
      <trkpt lat="46.01681" lon="4.70705">
        <ele>189</ele>
        <time>2018-08-08T10:05:15Z</time>
      </trkpt>
      <trkpt lat="46.01676" lon="4.70707">
        <ele>189</ele>
        <time>2018-08-08T10:05:16Z</time>
      </trkpt>
      <trkpt lat="46.01672" lon="4.70707">
        <ele>189</ele>
        <time>2018-08-08T10:05:17Z</time>
      </trkpt>
      <trkpt lat="46.01667" lon="4.70708">
        <ele>189</ele>
        <time>2018-08-08T10:05:18Z</time>
      </trkpt>
      <trkpt lat="46.01662" lon="4.70708">
        <ele>190</ele>
        <time>2018-08-08T10:05:19Z</time>
      </trkpt>
      <trkpt lat="46.01654" lon="4.70709">
        <ele>190</ele>
        <time>2018-08-08T10:05:21Z</time>
      </trkpt>
      <trkpt lat="46.0165" lon="4.7071">
        <ele>190</ele>
        <time>2018-08-08T10:05:22Z</time>
      </trkpt>
      <trkpt lat="46.01646" lon="4.70713">
        <ele>190</ele>
        <time>2018-08-08T10:05:23Z</time>
      </trkpt>
      <trkpt lat="46.0164" lon="4.70713">
        <ele>190</ele>
        <time>2018-08-08T10:05:24Z</time>
      </trkpt>
      <trkpt lat="46.01635" lon="4.70713">
        <ele>190</ele>
        <time>2018-08-08T10:05:25Z</time>
      </trkpt>
      <trkpt lat="46.01631" lon="4.70715">
        <ele>190</ele>
        <time>2018-08-08T10:05:26Z</time>
      </trkpt>
      <trkpt lat="46.01626" lon="4.70714">
        <ele>190</ele>
        <time>2018-08-08T10:05:27Z</time>
      </trkpt>
      <trkpt lat="46.01621" lon="4.70714">
        <ele>190</ele>
        <time>2018-08-08T10:05:28Z</time>
      </trkpt>
      <trkpt lat="46.01612" lon="4.70714">
        <ele>190</ele>
        <time>2018-08-08T10:05:30Z</time>
      </trkpt>
      <trkpt lat="46.01609" lon="4.70715">
        <ele>190</ele>
        <time>2018-08-08T10:05:31Z</time>
      </trkpt>
      <trkpt lat="46.01603" lon="4.70714">
        <ele>190</ele>
        <time>2018-08-08T10:05:32Z</time>
      </trkpt>
      <trkpt lat="46.01597" lon="4.70714">
        <ele>190</ele>
        <time>2018-08-08T10:05:33Z</time>
      </trkpt>
      <trkpt lat="46.01591" lon="4.70717">
        <ele>190</ele>
        <time>2018-08-08T10:05:35Z</time>
      </trkpt>
      <trkpt lat="46.01586" lon="4.70717">
        <ele>190</ele>
        <time>2018-08-08T10:05:36Z</time>
      </trkpt>
      <trkpt lat="46.01581" lon="4.70718">
        <ele>190</ele>
        <time>2018-08-08T10:05:37Z</time>
      </trkpt>
      <trkpt lat="46.01575" lon="4.70718">
        <ele>190</ele>
        <time>2018-08-08T10:05:38Z</time>
      </trkpt>
      <trkpt lat="46.01571" lon="4.7072">
        <ele>190</ele>
        <time>2018-08-08T10:05:39Z</time>
      </trkpt>
      <trkpt lat="46.01564" lon="4.70719">
        <ele>190</ele>
        <time>2018-08-08T10:05:40Z</time>
      </trkpt>
      <trkpt lat="46.01556" lon="4.7072">
        <ele>190</ele>
        <time>2018-08-08T10:05:42Z</time>
      </trkpt>
      <trkpt lat="46.01553" lon="4.70723">
        <ele>190</ele>
        <time>2018-08-08T10:05:43Z</time>
      </trkpt>
      <trkpt lat="46.01548" lon="4.70725">
        <ele>190</ele>
        <time>2018-08-08T10:05:44Z</time>
      </trkpt>
      <trkpt lat="46.01543" lon="4.70725">
        <ele>190</ele>
        <time>2018-08-08T10:05:45Z</time>
      </trkpt>
      <trkpt lat="46.01538" lon="4.70725">
        <ele>190</ele>
        <time>2018-08-08T10:05:46Z</time>
      </trkpt>
      <trkpt lat="46.01533" lon="4.70726">
        <ele>190</ele>
        <time>2018-08-08T10:05:47Z</time>
      </trkpt>
      <trkpt lat="46.01525" lon="4.70728">
        <ele>190</ele>
        <time>2018-08-08T10:05:49Z</time>
      </trkpt>
      <trkpt lat="46.0152" lon="4.70729">
        <ele>190</ele>
        <time>2018-08-08T10:05:50Z</time>
      </trkpt>
      <trkpt lat="46.01512" lon="4.7073">
        <ele>190</ele>
        <time>2018-08-08T10:05:52Z</time>
      </trkpt>
      <trkpt lat="46.01508" lon="4.70731">
        <ele>190</ele>
        <time>2018-08-08T10:05:53Z</time>
      </trkpt>
      <trkpt lat="46.01503" lon="4.70729">
        <ele>190</ele>
        <time>2018-08-08T10:05:54Z</time>
      </trkpt>
      <trkpt lat="46.01499" lon="4.70731">
        <ele>190</ele>
        <time>2018-08-08T10:05:55Z</time>
      </trkpt>
      <trkpt lat="46.01494" lon="4.70731">
        <ele>190</ele>
        <time>2018-08-08T10:05:56Z</time>
      </trkpt>
      <trkpt lat="46.01488" lon="4.70729">
        <ele>190</ele>
        <time>2018-08-08T10:05:57Z</time>
      </trkpt>
      <trkpt lat="46.01483" lon="4.70727">
        <ele>190</ele>
        <time>2018-08-08T10:05:58Z</time>
      </trkpt>
      <trkpt lat="46.01478" lon="4.7073">
        <ele>190</ele>
        <time>2018-08-08T10:05:59Z</time>
      </trkpt>
      <trkpt lat="46.01471" lon="4.70731">
        <ele>190</ele>
        <time>2018-08-08T10:06:01Z</time>
      </trkpt>
      <trkpt lat="46.01466" lon="4.70731">
        <ele>190</ele>
        <time>2018-08-08T10:06:02Z</time>
      </trkpt>
      <trkpt lat="46.01461" lon="4.70732">
        <ele>189</ele>
        <time>2018-08-08T10:06:03Z</time>
      </trkpt>
      <trkpt lat="46.01455" lon="4.70732">
        <ele>189</ele>
        <time>2018-08-08T10:06:04Z</time>
      </trkpt>
      <trkpt lat="46.01451" lon="4.70731">
        <ele>189</ele>
        <time>2018-08-08T10:06:05Z</time>
      </trkpt>
      <trkpt lat="46.01446" lon="4.70731">
        <ele>189</ele>
        <time>2018-08-08T10:06:06Z</time>
      </trkpt>
      <trkpt lat="46.01442" lon="4.70732">
        <ele>189</ele>
        <time>2018-08-08T10:06:07Z</time>
      </trkpt>
      <trkpt lat="46.01437" lon="4.70733">
        <ele>189</ele>
        <time>2018-08-08T10:06:08Z</time>
      </trkpt>
      <trkpt lat="46.01429" lon="4.70734">
        <ele>189</ele>
        <time>2018-08-08T10:06:10Z</time>
      </trkpt>
      <trkpt lat="46.01424" lon="4.70735">
        <ele>189</ele>
        <time>2018-08-08T10:06:11Z</time>
      </trkpt>
      <trkpt lat="46.01419" lon="4.70735">
        <ele>189</ele>
        <time>2018-08-08T10:06:12Z</time>
      </trkpt>
      <trkpt lat="46.01414" lon="4.70735">
        <ele>189</ele>
        <time>2018-08-08T10:06:13Z</time>
      </trkpt>
      <trkpt lat="46.01406" lon="4.70738">
        <ele>189</ele>
        <time>2018-08-08T10:06:15Z</time>
      </trkpt>
      <trkpt lat="46.01401" lon="4.70738">
        <ele>189</ele>
        <time>2018-08-08T10:06:16Z</time>
      </trkpt>
      <trkpt lat="46.01396" lon="4.70738">
        <ele>189</ele>
        <time>2018-08-08T10:06:17Z</time>
      </trkpt>
      <trkpt lat="46.01392" lon="4.7074">
        <ele>189</ele>
        <time>2018-08-08T10:06:18Z</time>
      </trkpt>
      <trkpt lat="46.01386" lon="4.7074">
        <ele>189</ele>
        <time>2018-08-08T10:06:19Z</time>
      </trkpt>
      <trkpt lat="46.01381" lon="4.7074">
        <ele>189</ele>
        <time>2018-08-08T10:06:20Z</time>
      </trkpt>
      <trkpt lat="46.01376" lon="4.70741">
        <ele>189</ele>
        <time>2018-08-08T10:06:21Z</time>
      </trkpt>
      <trkpt lat="46.01371" lon="4.70742">
        <ele>189</ele>
        <time>2018-08-08T10:06:22Z</time>
      </trkpt>
      <trkpt lat="46.01366" lon="4.70741">
        <ele>189</ele>
        <time>2018-08-08T10:06:23Z</time>
      </trkpt>
      <trkpt lat="46.01362" lon="4.70742">
        <ele>189</ele>
        <time>2018-08-08T10:06:24Z</time>
      </trkpt>
      <trkpt lat="46.01357" lon="4.70743">
        <ele>189</ele>
        <time>2018-08-08T10:06:25Z</time>
      </trkpt>
      <trkpt lat="46.01352" lon="4.70743">
        <ele>189</ele>
        <time>2018-08-08T10:06:26Z</time>
      </trkpt>
      <trkpt lat="46.01346" lon="4.70742">
        <ele>189</ele>
        <time>2018-08-08T10:06:27Z</time>
      </trkpt>
      <trkpt lat="46.01342" lon="4.70741">
        <ele>189</ele>
        <time>2018-08-08T10:06:28Z</time>
      </trkpt>
      <trkpt lat="46.01337" lon="4.70742">
        <ele>189</ele>
        <time>2018-08-08T10:06:29Z</time>
      </trkpt>
      <trkpt lat="46.01331" lon="4.7074">
        <ele>190</ele>
        <time>2018-08-08T10:06:30Z</time>
      </trkpt>
      <trkpt lat="46.01326" lon="4.70739">
        <ele>190</ele>
        <time>2018-08-08T10:06:31Z</time>
      </trkpt>
      <trkpt lat="46.01321" lon="4.70737">
        <ele>190</ele>
        <time>2018-08-08T10:06:32Z</time>
      </trkpt>
      <trkpt lat="46.01316" lon="4.70737">
        <ele>190</ele>
        <time>2018-08-08T10:06:33Z</time>
      </trkpt>
      <trkpt lat="46.0131" lon="4.70736">
        <ele>191</ele>
        <time>2018-08-08T10:06:34Z</time>
      </trkpt>
      <trkpt lat="46.01306" lon="4.70734">
        <ele>191</ele>
        <time>2018-08-08T10:06:35Z</time>
      </trkpt>
      <trkpt lat="46.01301" lon="4.70733">
        <ele>191</ele>
        <time>2018-08-08T10:06:36Z</time>
      </trkpt>
      <trkpt lat="46.01296" lon="4.70732">
        <ele>191</ele>
        <time>2018-08-08T10:06:37Z</time>
      </trkpt>
      <trkpt lat="46.01291" lon="4.70731">
        <ele>191</ele>
        <time>2018-08-08T10:06:38Z</time>
      </trkpt>
      <trkpt lat="46.01286" lon="4.7073">
        <ele>191</ele>
        <time>2018-08-08T10:06:39Z</time>
      </trkpt>
      <trkpt lat="46.01281" lon="4.70729">
        <ele>191</ele>
        <time>2018-08-08T10:06:40Z</time>
      </trkpt>
      <trkpt lat="46.01276" lon="4.70728">
        <ele>192</ele>
        <time>2018-08-08T10:06:41Z</time>
      </trkpt>
      <trkpt lat="46.0127" lon="4.70727">
        <ele>192</ele>
        <time>2018-08-08T10:06:42Z</time>
      </trkpt>
      <trkpt lat="46.01264" lon="4.70726">
        <ele>192</ele>
        <time>2018-08-08T10:06:44Z</time>
      </trkpt>
      <trkpt lat="46.01258" lon="4.70724">
        <ele>192</ele>
        <time>2018-08-08T10:06:45Z</time>
      </trkpt>
      <trkpt lat="46.01251" lon="4.70719">
        <ele>192</ele>
        <time>2018-08-08T10:06:47Z</time>
      </trkpt>
      <trkpt lat="46.01244" lon="4.7072">
        <ele>193</ele>
        <time>2018-08-08T10:06:48Z</time>
      </trkpt>
      <trkpt lat="46.01239" lon="4.70717">
        <ele>194</ele>
        <time>2018-08-08T10:06:49Z</time>
      </trkpt>
      <trkpt lat="46.01236" lon="4.70715">
        <ele>194</ele>
        <time>2018-08-08T10:06:50Z</time>
      </trkpt>
      <trkpt lat="46.01228" lon="4.70711">
        <ele>194</ele>
        <time>2018-08-08T10:06:52Z</time>
      </trkpt>
      <trkpt lat="46.01223" lon="4.70709">
        <ele>194</ele>
        <time>2018-08-08T10:06:53Z</time>
      </trkpt>
      <trkpt lat="46.01218" lon="4.70705">
        <ele>194</ele>
        <time>2018-08-08T10:06:54Z</time>
      </trkpt>
      <trkpt lat="46.01213" lon="4.70702">
        <ele>194</ele>
        <time>2018-08-08T10:06:55Z</time>
      </trkpt>
      <trkpt lat="46.01209" lon="4.707">
        <ele>194</ele>
        <time>2018-08-08T10:06:56Z</time>
      </trkpt>
      <trkpt lat="46.01204" lon="4.70698">
        <ele>194</ele>
        <time>2018-08-08T10:06:57Z</time>
      </trkpt>
      <trkpt lat="46.012" lon="4.70697">
        <ele>194</ele>
        <time>2018-08-08T10:06:58Z</time>
      </trkpt>
      <trkpt lat="46.01195" lon="4.70695">
        <ele>194</ele>
        <time>2018-08-08T10:06:59Z</time>
      </trkpt>
      <trkpt lat="46.01189" lon="4.70694">
        <ele>194</ele>
        <time>2018-08-08T10:07:00Z</time>
      </trkpt>
      <trkpt lat="46.01184" lon="4.70691">
        <ele>194</ele>
        <time>2018-08-08T10:07:01Z</time>
      </trkpt>
      <trkpt lat="46.0118" lon="4.70689">
        <ele>194</ele>
        <time>2018-08-08T10:07:02Z</time>
      </trkpt>
      <trkpt lat="46.01176" lon="4.70688">
        <ele>194</ele>
        <time>2018-08-08T10:07:03Z</time>
      </trkpt>
      <trkpt lat="46.0117" lon="4.70686">
        <ele>194</ele>
        <time>2018-08-08T10:07:04Z</time>
      </trkpt>
      <trkpt lat="46.01165" lon="4.70684">
        <ele>194</ele>
        <time>2018-08-08T10:07:05Z</time>
      </trkpt>
      <trkpt lat="46.0116" lon="4.70683">
        <ele>194</ele>
        <time>2018-08-08T10:07:06Z</time>
      </trkpt>
      <trkpt lat="46.01155" lon="4.7068">
        <ele>194</ele>
        <time>2018-08-08T10:07:07Z</time>
      </trkpt>
      <trkpt lat="46.0115" lon="4.70679">
        <ele>194</ele>
        <time>2018-08-08T10:07:08Z</time>
      </trkpt>
      <trkpt lat="46.01145" lon="4.70676">
        <ele>194</ele>
        <time>2018-08-08T10:07:09Z</time>
      </trkpt>
      <trkpt lat="46.01139" lon="4.70673">
        <ele>194</ele>
        <time>2018-08-08T10:07:10Z</time>
      </trkpt>
      <trkpt lat="46.01133" lon="4.70671">
        <ele>194</ele>
        <time>2018-08-08T10:07:11Z</time>
      </trkpt>
      <trkpt lat="46.01128" lon="4.70669">
        <ele>194</ele>
        <time>2018-08-08T10:07:12Z</time>
      </trkpt>
      <trkpt lat="46.01124" lon="4.70668">
        <ele>195</ele>
        <time>2018-08-08T10:07:13Z</time>
      </trkpt>
      <trkpt lat="46.01116" lon="4.70664">
        <ele>194</ele>
        <time>2018-08-08T10:07:15Z</time>
      </trkpt>
      <trkpt lat="46.01111" lon="4.70662">
        <ele>194</ele>
        <time>2018-08-08T10:07:16Z</time>
      </trkpt>
      <trkpt lat="46.01105" lon="4.70659">
        <ele>195</ele>
        <time>2018-08-08T10:07:17Z</time>
      </trkpt>
      <trkpt lat="46.011" lon="4.70657">
        <ele>195</ele>
        <time>2018-08-08T10:07:18Z</time>
      </trkpt>
      <trkpt lat="46.01095" lon="4.70655">
        <ele>195</ele>
        <time>2018-08-08T10:07:19Z</time>
      </trkpt>
      <trkpt lat="46.01089" lon="4.70652">
        <ele>195</ele>
        <time>2018-08-08T10:07:20Z</time>
      </trkpt>
      <trkpt lat="46.01081" lon="4.70647">
        <ele>195</ele>
        <time>2018-08-08T10:07:22Z</time>
      </trkpt>
      <trkpt lat="46.01076" lon="4.70645">
        <ele>195</ele>
        <time>2018-08-08T10:07:23Z</time>
      </trkpt>
      <trkpt lat="46.01071" lon="4.70642">
        <ele>195</ele>
        <time>2018-08-08T10:07:24Z</time>
      </trkpt>
      <trkpt lat="46.01065" lon="4.70639">
        <ele>195</ele>
        <time>2018-08-08T10:07:25Z</time>
      </trkpt>
      <trkpt lat="46.0106" lon="4.70637">
        <ele>195</ele>
        <time>2018-08-08T10:07:26Z</time>
      </trkpt>
      <trkpt lat="46.01055" lon="4.70634">
        <ele>195</ele>
        <time>2018-08-08T10:07:27Z</time>
      </trkpt>
      <trkpt lat="46.0105" lon="4.70632">
        <ele>195</ele>
        <time>2018-08-08T10:07:28Z</time>
      </trkpt>
      <trkpt lat="46.01044" lon="4.7063">
        <ele>195</ele>
        <time>2018-08-08T10:07:29Z</time>
      </trkpt>
      <trkpt lat="46.01039" lon="4.70628">
        <ele>196</ele>
        <time>2018-08-08T10:07:30Z</time>
      </trkpt>
      <trkpt lat="46.01034" lon="4.70627">
        <ele>196</ele>
        <time>2018-08-08T10:07:31Z</time>
      </trkpt>
      <trkpt lat="46.01026" lon="4.70623">
        <ele>196</ele>
        <time>2018-08-08T10:07:33Z</time>
      </trkpt>
      <trkpt lat="46.01021" lon="4.70621">
        <ele>196</ele>
        <time>2018-08-08T10:07:34Z</time>
      </trkpt>
      <trkpt lat="46.01016" lon="4.70618">
        <ele>196</ele>
        <time>2018-08-08T10:07:35Z</time>
      </trkpt>
      <trkpt lat="46.01011" lon="4.70615">
        <ele>196</ele>
        <time>2018-08-08T10:07:36Z</time>
      </trkpt>
      <trkpt lat="46.01007" lon="4.70614">
        <ele>196</ele>
        <time>2018-08-08T10:07:37Z</time>
      </trkpt>
      <trkpt lat="46.01003" lon="4.7061">
        <ele>196</ele>
        <time>2018-08-08T10:07:38Z</time>
      </trkpt>
      <trkpt lat="46.00998" lon="4.70608">
        <ele>197</ele>
        <time>2018-08-08T10:07:39Z</time>
      </trkpt>
      <trkpt lat="46.00993" lon="4.70607">
        <ele>197</ele>
        <time>2018-08-08T10:07:40Z</time>
      </trkpt>
      <trkpt lat="46.00988" lon="4.70605">
        <ele>197</ele>
        <time>2018-08-08T10:07:41Z</time>
      </trkpt>
      <trkpt lat="46.00982" lon="4.70602">
        <ele>197</ele>
        <time>2018-08-08T10:07:42Z</time>
      </trkpt>
      <trkpt lat="46.00977" lon="4.70601">
        <ele>197</ele>
        <time>2018-08-08T10:07:43Z</time>
      </trkpt>
      <trkpt lat="46.00972" lon="4.70598">
        <ele>197</ele>
        <time>2018-08-08T10:07:44Z</time>
      </trkpt>
      <trkpt lat="46.00968" lon="4.70597">
        <ele>197</ele>
        <time>2018-08-08T10:07:45Z</time>
      </trkpt>
      <trkpt lat="46.00963" lon="4.70594">
        <ele>197</ele>
        <time>2018-08-08T10:07:46Z</time>
      </trkpt>
      <trkpt lat="46.00959" lon="4.70591">
        <ele>197</ele>
        <time>2018-08-08T10:07:47Z</time>
      </trkpt>
      <trkpt lat="46.00954" lon="4.70588">
        <ele>197</ele>
        <time>2018-08-08T10:07:48Z</time>
      </trkpt>
      <trkpt lat="46.00946" lon="4.70584">
        <ele>197</ele>
        <time>2018-08-08T10:07:50Z</time>
      </trkpt>
      <trkpt lat="46.0094" lon="4.70582">
        <ele>198</ele>
        <time>2018-08-08T10:07:51Z</time>
      </trkpt>
      <trkpt lat="46.00936" lon="4.70582">
        <ele>198</ele>
        <time>2018-08-08T10:07:52Z</time>
      </trkpt>
      <trkpt lat="46.00931" lon="4.70581">
        <ele>198</ele>
        <time>2018-08-08T10:07:53Z</time>
      </trkpt>
      <trkpt lat="46.00926" lon="4.70577">
        <ele>198</ele>
        <time>2018-08-08T10:07:54Z</time>
      </trkpt>
      <trkpt lat="46.00921" lon="4.70575">
        <ele>198</ele>
        <time>2018-08-08T10:07:55Z</time>
      </trkpt>
      <trkpt lat="46.00915" lon="4.70573">
        <ele>199</ele>
        <time>2018-08-08T10:07:57Z</time>
      </trkpt>
      <trkpt lat="46.00909" lon="4.70571">
        <ele>199</ele>
        <time>2018-08-08T10:07:58Z</time>
      </trkpt>
      <trkpt lat="46.00902" lon="4.70568">
        <ele>200</ele>
        <time>2018-08-08T10:08:00Z</time>
      </trkpt>
      <trkpt lat="46.00899" lon="4.70567">
        <ele>200</ele>
        <time>2018-08-08T10:08:01Z</time>
      </trkpt>
      <trkpt lat="46.00892" lon="4.70564">
        <ele>200</ele>
        <time>2018-08-08T10:08:03Z</time>
      </trkpt>
      <trkpt lat="46.00888" lon="4.70561">
        <ele>200</ele>
        <time>2018-08-08T10:08:04Z</time>
      </trkpt>
      <trkpt lat="46.00883" lon="4.7056">
        <ele>200</ele>
        <time>2018-08-08T10:08:05Z</time>
      </trkpt>
      <trkpt lat="46.00879" lon="4.70558">
        <ele>201</ele>
        <time>2018-08-08T10:08:06Z</time>
      </trkpt>
      <trkpt lat="46.00875" lon="4.70556">
        <ele>201</ele>
        <time>2018-08-08T10:08:07Z</time>
      </trkpt>
      <trkpt lat="46.0087" lon="4.70552">
        <ele>201</ele>
        <time>2018-08-08T10:08:08Z</time>
      </trkpt>
      <trkpt lat="46.00863" lon="4.70551">
        <ele>201</ele>
        <time>2018-08-08T10:08:09Z</time>
      </trkpt>
      <trkpt lat="46.00859" lon="4.70549">
        <ele>201</ele>
        <time>2018-08-08T10:08:10Z</time>
      </trkpt>
      <trkpt lat="46.00852" lon="4.70545">
        <ele>201</ele>
        <time>2018-08-08T10:08:12Z</time>
      </trkpt>
      <trkpt lat="46.00848" lon="4.70544">
        <ele>201</ele>
        <time>2018-08-08T10:08:13Z</time>
      </trkpt>
      <trkpt lat="46.00844" lon="4.70541">
        <ele>201</ele>
        <time>2018-08-08T10:08:14Z</time>
      </trkpt>
      <trkpt lat="46.0084" lon="4.70538">
        <ele>202</ele>
        <time>2018-08-08T10:08:15Z</time>
      </trkpt>
      <trkpt lat="46.00836" lon="4.70537">
        <ele>202</ele>
        <time>2018-08-08T10:08:16Z</time>
      </trkpt>
      <trkpt lat="46.00831" lon="4.70535">
        <ele>203</ele>
        <time>2018-08-08T10:08:17Z</time>
      </trkpt>
      <trkpt lat="46.00824" lon="4.70531">
        <ele>204</ele>
        <time>2018-08-08T10:08:19Z</time>
      </trkpt>
      <trkpt lat="46.0082" lon="4.7053">
        <ele>204</ele>
        <time>2018-08-08T10:08:20Z</time>
      </trkpt>
      <trkpt lat="46.00816" lon="4.70527">
        <ele>204</ele>
        <time>2018-08-08T10:08:22Z</time>
      </trkpt>
      <trkpt lat="46.0081" lon="4.70523">
        <ele>204</ele>
        <time>2018-08-08T10:08:23Z</time>
      </trkpt>
      <trkpt lat="46.00803" lon="4.70519">
        <ele>204</ele>
        <time>2018-08-08T10:08:25Z</time>
      </trkpt>
      <trkpt lat="46.008" lon="4.70517">
        <ele>204</ele>
        <time>2018-08-08T10:08:26Z</time>
      </trkpt>
      <trkpt lat="46.00793" lon="4.70514">
        <ele>204</ele>
        <time>2018-08-08T10:08:28Z</time>
      </trkpt>
      <trkpt lat="46.00787" lon="4.70512">
        <ele>205</ele>
        <time>2018-08-08T10:08:29Z</time>
      </trkpt>
      <trkpt lat="46.0078" lon="4.70507">
        <ele>205</ele>
        <time>2018-08-08T10:08:31Z</time>
      </trkpt>
      <trkpt lat="46.00777" lon="4.70506">
        <ele>205</ele>
        <time>2018-08-08T10:08:32Z</time>
      </trkpt>
      <trkpt lat="46.0077" lon="4.70502">
        <ele>206</ele>
        <time>2018-08-08T10:08:34Z</time>
      </trkpt>
      <trkpt lat="46.00766" lon="4.705">
        <ele>206</ele>
        <time>2018-08-08T10:08:35Z</time>
      </trkpt>
      <trkpt lat="46.00758" lon="4.70497">
        <ele>208</ele>
        <time>2018-08-08T10:08:38Z</time>
      </trkpt>
      <trkpt lat="46.00751" lon="4.70494">
        <ele>208</ele>
        <time>2018-08-08T10:08:39Z</time>
      </trkpt>
      <trkpt lat="46.00744" lon="4.70492">
        <ele>209</ele>
        <time>2018-08-08T10:08:41Z</time>
      </trkpt>
      <trkpt lat="46.0074" lon="4.7049">
        <ele>209</ele>
        <time>2018-08-08T10:08:42Z</time>
      </trkpt>
      <trkpt lat="46.00733" lon="4.70489">
        <ele>210</ele>
        <time>2018-08-08T10:08:44Z</time>
      </trkpt>
      <trkpt lat="46.00729" lon="4.70488">
        <ele>210</ele>
        <time>2018-08-08T10:08:45Z</time>
      </trkpt>
      <trkpt lat="46.00725" lon="4.70489">
        <ele>210</ele>
        <time>2018-08-08T10:08:47Z</time>
      </trkpt>
      <trkpt lat="46.00719" lon="4.7049">
        <ele>210</ele>
        <time>2018-08-08T10:08:48Z</time>
      </trkpt>
      <trkpt lat="46.00711" lon="4.70491">
        <ele>210</ele>
        <time>2018-08-08T10:08:50Z</time>
      </trkpt>
      <trkpt lat="46.00707" lon="4.70491">
        <ele>211</ele>
        <time>2018-08-08T10:08:51Z</time>
      </trkpt>
      <trkpt lat="46.00703" lon="4.70491">
        <ele>211</ele>
        <time>2018-08-08T10:08:52Z</time>
      </trkpt>
      <trkpt lat="46.00696" lon="4.70492">
        <ele>211</ele>
        <time>2018-08-08T10:08:53Z</time>
      </trkpt>
      <trkpt lat="46.00692" lon="4.70491">
        <ele>211</ele>
        <time>2018-08-08T10:08:54Z</time>
      </trkpt>
      <trkpt lat="46.00686" lon="4.70491">
        <ele>211</ele>
        <time>2018-08-08T10:08:55Z</time>
      </trkpt>
      <trkpt lat="46.00683" lon="4.7049">
        <ele>211</ele>
        <time>2018-08-08T10:08:57Z</time>
      </trkpt>
      <trkpt lat="46.00675" lon="4.70491">
        <ele>212</ele>
        <time>2018-08-08T10:08:58Z</time>
      </trkpt>
      <trkpt lat="46.00667" lon="4.70493">
        <ele>212</ele>
        <time>2018-08-08T10:09:00Z</time>
      </trkpt>
      <trkpt lat="46.00663" lon="4.70493">
        <ele>212</ele>
        <time>2018-08-08T10:09:01Z</time>
      </trkpt>
      <trkpt lat="46.00654" lon="4.70492">
        <ele>212</ele>
        <time>2018-08-08T10:09:03Z</time>
      </trkpt>
      <trkpt lat="46.00649" lon="4.70492">
        <ele>211</ele>
        <time>2018-08-08T10:09:04Z</time>
      </trkpt>
      <trkpt lat="46.00643" lon="4.70493">
        <ele>211</ele>
        <time>2018-08-08T10:09:05Z</time>
      </trkpt>
      <trkpt lat="46.00639" lon="4.70493">
        <ele>211</ele>
        <time>2018-08-08T10:09:06Z</time>
      </trkpt>
      <trkpt lat="46.00631" lon="4.70498">
        <ele>211</ele>
        <time>2018-08-08T10:09:08Z</time>
      </trkpt>
      <trkpt lat="46.00624" lon="4.70499">
        <ele>211</ele>
        <time>2018-08-08T10:09:09Z</time>
      </trkpt>
      <trkpt lat="46.00619" lon="4.70499">
        <ele>210</ele>
        <time>2018-08-08T10:09:10Z</time>
      </trkpt>
      <trkpt lat="46.00611" lon="4.70497">
        <ele>210</ele>
        <time>2018-08-08T10:09:11Z</time>
      </trkpt>
      <trkpt lat="46.00608" lon="4.70495">
        <ele>210</ele>
        <time>2018-08-08T10:09:12Z</time>
      </trkpt>
      <trkpt lat="46.00598" lon="4.70501">
        <ele>207</ele>
        <time>2018-08-08T10:09:13Z</time>
      </trkpt>
      <trkpt lat="46.00588" lon="4.70499">
        <ele>208</ele>
        <time>2018-08-08T10:09:14Z</time>
      </trkpt>
      <trkpt lat="46.00585" lon="4.70506">
        <ele>207</ele>
        <time>2018-08-08T10:09:15Z</time>
      </trkpt>
      <trkpt lat="46.00578" lon="4.70503">
        <ele>206</ele>
        <time>2018-08-08T10:09:16Z</time>
      </trkpt>
      <trkpt lat="46.00564" lon="4.70507">
        <ele>205</ele>
        <time>2018-08-08T10:09:17Z</time>
      </trkpt>
      <trkpt lat="46.00558" lon="4.70502">
        <ele>205</ele>
        <time>2018-08-08T10:09:19Z</time>
      </trkpt>
      <trkpt lat="46.00555" lon="4.705">
        <ele>205</ele>
        <time>2018-08-08T10:09:20Z</time>
      </trkpt>
      <trkpt lat="46.00551" lon="4.70502">
        <ele>204</ele>
        <time>2018-08-08T10:09:21Z</time>
      </trkpt>
      <trkpt lat="46.00539" lon="4.70504">
        <ele>204</ele>
        <time>2018-08-08T10:09:22Z</time>
      </trkpt>
      <trkpt lat="46.00532" lon="4.70502">
        <ele>204</ele>
        <time>2018-08-08T10:09:23Z</time>
      </trkpt>
      <trkpt lat="46.00527" lon="4.70503">
        <ele>204</ele>
        <time>2018-08-08T10:09:24Z</time>
      </trkpt>
      <trkpt lat="46.00521" lon="4.70502">
        <ele>204</ele>
        <time>2018-08-08T10:09:25Z</time>
      </trkpt>
      <trkpt lat="46.00516" lon="4.70504">
        <ele>204</ele>
        <time>2018-08-08T10:09:26Z</time>
      </trkpt>
      <trkpt lat="46.00511" lon="4.70503">
        <ele>204</ele>
        <time>2018-08-08T10:09:27Z</time>
      </trkpt>
      <trkpt lat="46.00504" lon="4.70503">
        <ele>204</ele>
        <time>2018-08-08T10:09:28Z</time>
      </trkpt>
      <trkpt lat="46.00498" lon="4.70505">
        <ele>203</ele>
        <time>2018-08-08T10:09:29Z</time>
      </trkpt>
      <trkpt lat="46.00493" lon="4.70505">
        <ele>203</ele>
        <time>2018-08-08T10:09:30Z</time>
      </trkpt>
      <trkpt lat="46.00486" lon="4.70504">
        <ele>202</ele>
        <time>2018-08-08T10:09:31Z</time>
      </trkpt>
      <trkpt lat="46.00482" lon="4.70505">
        <ele>202</ele>
        <time>2018-08-08T10:09:32Z</time>
      </trkpt>
      <trkpt lat="46.00477" lon="4.70504">
        <ele>202</ele>
        <time>2018-08-08T10:09:33Z</time>
      </trkpt>
      <trkpt lat="46.0047" lon="4.70501">
        <ele>201</ele>
        <time>2018-08-08T10:09:34Z</time>
      </trkpt>
      <trkpt lat="46.00462" lon="4.70499">
        <ele>203</ele>
        <time>2018-08-08T10:09:35Z</time>
      </trkpt>
      <trkpt lat="46.00456" lon="4.70496">
        <ele>203</ele>
        <time>2018-08-08T10:09:36Z</time>
      </trkpt>
      <trkpt lat="46.0045" lon="4.70493">
        <ele>202</ele>
        <time>2018-08-08T10:09:37Z</time>
      </trkpt>
      <trkpt lat="46.00443" lon="4.70492">
        <ele>202</ele>
        <time>2018-08-08T10:09:38Z</time>
      </trkpt>
      <trkpt lat="46.00437" lon="4.7049">
        <ele>202</ele>
        <time>2018-08-08T10:09:39Z</time>
      </trkpt>
      <trkpt lat="46.00431" lon="4.70489">
        <ele>202</ele>
        <time>2018-08-08T10:09:40Z</time>
      </trkpt>
      <trkpt lat="46.00424" lon="4.70489">
        <ele>201</ele>
        <time>2018-08-08T10:09:41Z</time>
      </trkpt>
      <trkpt lat="46.00418" lon="4.70488">
        <ele>201</ele>
        <time>2018-08-08T10:09:42Z</time>
      </trkpt>
      <trkpt lat="46.00411" lon="4.70487">
        <ele>200</ele>
        <time>2018-08-08T10:09:43Z</time>
      </trkpt>
      <trkpt lat="46.00406" lon="4.70487">
        <ele>200</ele>
        <time>2018-08-08T10:09:44Z</time>
      </trkpt>
      <trkpt lat="46.004" lon="4.70487">
        <ele>200</ele>
        <time>2018-08-08T10:09:45Z</time>
      </trkpt>
      <trkpt lat="46.00393" lon="4.70486">
        <ele>200</ele>
        <time>2018-08-08T10:09:46Z</time>
      </trkpt>
      <trkpt lat="46.00387" lon="4.70487">
        <ele>200</ele>
        <time>2018-08-08T10:09:47Z</time>
      </trkpt>
      <trkpt lat="46.00382" lon="4.70489">
        <ele>200</ele>
        <time>2018-08-08T10:09:48Z</time>
      </trkpt>
      <trkpt lat="46.00376" lon="4.7049">
        <ele>200</ele>
        <time>2018-08-08T10:09:49Z</time>
      </trkpt>
      <trkpt lat="46.0037" lon="4.70492">
        <ele>200</ele>
        <time>2018-08-08T10:09:50Z</time>
      </trkpt>
      <trkpt lat="46.00364" lon="4.70494">
        <ele>200</ele>
        <time>2018-08-08T10:09:51Z</time>
      </trkpt>
      <trkpt lat="46.00357" lon="4.70495">
        <ele>200</ele>
        <time>2018-08-08T10:09:52Z</time>
      </trkpt>
      <trkpt lat="46.00353" lon="4.70497">
        <ele>199</ele>
        <time>2018-08-08T10:09:53Z</time>
      </trkpt>
      <trkpt lat="46.00347" lon="4.70497">
        <ele>199</ele>
        <time>2018-08-08T10:09:54Z</time>
      </trkpt>
      <trkpt lat="46.0034" lon="4.70499">
        <ele>199</ele>
        <time>2018-08-08T10:09:55Z</time>
      </trkpt>
      <trkpt lat="46.00334" lon="4.705">
        <ele>198</ele>
        <time>2018-08-08T10:09:56Z</time>
      </trkpt>
      <trkpt lat="46.00326" lon="4.705">
        <ele>198</ele>
        <time>2018-08-08T10:09:57Z</time>
      </trkpt>
      <trkpt lat="46.00318" lon="4.70501">
        <ele>198</ele>
        <time>2018-08-08T10:09:58Z</time>
      </trkpt>
      <trkpt lat="46.00312" lon="4.70502">
        <ele>197</ele>
        <time>2018-08-08T10:09:59Z</time>
      </trkpt>
      <trkpt lat="46.00306" lon="4.70503">
        <ele>197</ele>
        <time>2018-08-08T10:10:00Z</time>
      </trkpt>
      <trkpt lat="46.003" lon="4.70504">
        <ele>197</ele>
        <time>2018-08-08T10:10:01Z</time>
      </trkpt>
      <trkpt lat="46.00293" lon="4.70506">
        <ele>197</ele>
        <time>2018-08-08T10:10:02Z</time>
      </trkpt>
      <trkpt lat="46.00288" lon="4.70508">
        <ele>197</ele>
        <time>2018-08-08T10:10:03Z</time>
      </trkpt>
      <trkpt lat="46.00281" lon="4.70508">
        <ele>197</ele>
        <time>2018-08-08T10:10:04Z</time>
      </trkpt>
      <trkpt lat="46.00276" lon="4.70508">
        <ele>197</ele>
        <time>2018-08-08T10:10:05Z</time>
      </trkpt>
      <trkpt lat="46.00269" lon="4.7051">
        <ele>197</ele>
        <time>2018-08-08T10:10:06Z</time>
      </trkpt>
      <trkpt lat="46.00263" lon="4.7051">
        <ele>198</ele>
        <time>2018-08-08T10:10:07Z</time>
      </trkpt>
      <trkpt lat="46.00256" lon="4.70511">
        <ele>198</ele>
        <time>2018-08-08T10:10:08Z</time>
      </trkpt>
      <trkpt lat="46.0025" lon="4.70513">
        <ele>198</ele>
        <time>2018-08-08T10:10:09Z</time>
      </trkpt>
      <trkpt lat="46.00243" lon="4.70513">
        <ele>198</ele>
        <time>2018-08-08T10:10:10Z</time>
      </trkpt>
      <trkpt lat="46.00237" lon="4.70516">
        <ele>198</ele>
        <time>2018-08-08T10:10:11Z</time>
      </trkpt>
      <trkpt lat="46.00231" lon="4.70517">
        <ele>198</ele>
        <time>2018-08-08T10:10:12Z</time>
      </trkpt>
      <trkpt lat="46.00225" lon="4.70519">
        <ele>198</ele>
        <time>2018-08-08T10:10:13Z</time>
      </trkpt>
      <trkpt lat="46.00219" lon="4.70522">
        <ele>198</ele>
        <time>2018-08-08T10:10:14Z</time>
      </trkpt>
      <trkpt lat="46.00213" lon="4.70525">
        <ele>198</ele>
        <time>2018-08-08T10:10:15Z</time>
      </trkpt>
      <trkpt lat="46.00209" lon="4.70527">
        <ele>198</ele>
        <time>2018-08-08T10:10:16Z</time>
      </trkpt>
      <trkpt lat="46.00201" lon="4.70527">
        <ele>198</ele>
        <time>2018-08-08T10:10:17Z</time>
      </trkpt>
      <trkpt lat="46.00196" lon="4.70527">
        <ele>198</ele>
        <time>2018-08-08T10:10:18Z</time>
      </trkpt>
      <trkpt lat="46.0019" lon="4.70527">
        <ele>198</ele>
        <time>2018-08-08T10:10:19Z</time>
      </trkpt>
      <trkpt lat="46.00184" lon="4.70529">
        <ele>198</ele>
        <time>2018-08-08T10:10:20Z</time>
      </trkpt>
      <trkpt lat="46.00178" lon="4.70527">
        <ele>198</ele>
        <time>2018-08-08T10:10:21Z</time>
      </trkpt>
      <trkpt lat="46.00171" lon="4.70525">
        <ele>198</ele>
        <time>2018-08-08T10:10:22Z</time>
      </trkpt>
      <trkpt lat="46.00166" lon="4.70521">
        <ele>198</ele>
        <time>2018-08-08T10:10:23Z</time>
      </trkpt>
      <trkpt lat="46.00162" lon="4.70519">
        <ele>198</ele>
        <time>2018-08-08T10:10:24Z</time>
      </trkpt>
      <trkpt lat="46.00154" lon="4.70514">
        <ele>198</ele>
        <time>2018-08-08T10:10:26Z</time>
      </trkpt>
      <trkpt lat="46.00148" lon="4.70513">
        <ele>198</ele>
        <time>2018-08-08T10:10:27Z</time>
      </trkpt>
      <trkpt lat="46.0014" lon="4.70518">
        <ele>198</ele>
        <time>2018-08-08T10:10:29Z</time>
      </trkpt>
      <trkpt lat="46.00136" lon="4.70522">
        <ele>198</ele>
        <time>2018-08-08T10:10:30Z</time>
      </trkpt>
      <trkpt lat="46.00135" lon="4.70532">
        <ele>198</ele>
        <time>2018-08-08T10:10:31Z</time>
      </trkpt>
      <trkpt lat="46.00133" lon="4.70539">
        <ele>198</ele>
        <time>2018-08-08T10:10:32Z</time>
      </trkpt>
      <trkpt lat="46.00131" lon="4.70546">
        <ele>198</ele>
        <time>2018-08-08T10:10:33Z</time>
      </trkpt>
      <trkpt lat="46.00128" lon="4.70552">
        <ele>198</ele>
        <time>2018-08-08T10:10:34Z</time>
      </trkpt>
      <trkpt lat="46.00124" lon="4.70557">
        <ele>198</ele>
        <time>2018-08-08T10:10:35Z</time>
      </trkpt>
      <trkpt lat="46.00117" lon="4.70561">
        <ele>198</ele>
        <time>2018-08-08T10:10:36Z</time>
      </trkpt>
      <trkpt lat="46.00112" lon="4.70564">
        <ele>198</ele>
        <time>2018-08-08T10:10:37Z</time>
      </trkpt>
      <trkpt lat="46.00107" lon="4.70568">
        <ele>198</ele>
        <time>2018-08-08T10:10:38Z</time>
      </trkpt>
      <trkpt lat="46.00101" lon="4.70572">
        <ele>198</ele>
        <time>2018-08-08T10:10:39Z</time>
      </trkpt>
      <trkpt lat="46.00097" lon="4.70575">
        <ele>198</ele>
        <time>2018-08-08T10:10:40Z</time>
      </trkpt>
      <trkpt lat="46.00094" lon="4.70579">
        <ele>198</ele>
        <time>2018-08-08T10:10:41Z</time>
      </trkpt>
      <trkpt lat="46.0009" lon="4.70584">
        <ele>198</ele>
        <time>2018-08-08T10:10:42Z</time>
      </trkpt>
      <trkpt lat="46.00085" lon="4.70588">
        <ele>198</ele>
        <time>2018-08-08T10:10:43Z</time>
      </trkpt>
      <trkpt lat="46.0008" lon="4.70593">
        <ele>198</ele>
        <time>2018-08-08T10:10:44Z</time>
      </trkpt>
      <trkpt lat="46.00074" lon="4.70596">
        <ele>198</ele>
        <time>2018-08-08T10:10:45Z</time>
      </trkpt>
      <trkpt lat="46.00068" lon="4.70597">
        <ele>198</ele>
        <time>2018-08-08T10:10:46Z</time>
      </trkpt>
      <trkpt lat="46.00062" lon="4.70598">
        <ele>198</ele>
        <time>2018-08-08T10:10:47Z</time>
      </trkpt>
      <trkpt lat="46.00058" lon="4.70599">
        <ele>198</ele>
        <time>2018-08-08T10:10:48Z</time>
      </trkpt>
      <trkpt lat="46.00052" lon="4.70599">
        <ele>198</ele>
        <time>2018-08-08T10:10:49Z</time>
      </trkpt>
      <trkpt lat="46.00047" lon="4.70599">
        <ele>198</ele>
        <time>2018-08-08T10:10:50Z</time>
      </trkpt>
      <trkpt lat="46.00042" lon="4.70598">
        <ele>198</ele>
        <time>2018-08-08T10:10:51Z</time>
      </trkpt>
      <trkpt lat="46.00031" lon="4.70602">
        <ele>199</ele>
        <time>2018-08-08T10:10:52Z</time>
      </trkpt>
      <trkpt lat="46.00029" lon="4.70602">
        <ele>199</ele>
        <time>2018-08-08T10:10:53Z</time>
      </trkpt>
      <trkpt lat="46.00021" lon="4.70603">
        <ele>199</ele>
        <time>2018-08-08T10:10:54Z</time>
      </trkpt>
      <trkpt lat="46.00013" lon="4.70603">
        <ele>199</ele>
        <time>2018-08-08T10:10:55Z</time>
      </trkpt>
      <trkpt lat="46.00006" lon="4.70605">
        <ele>199</ele>
        <time>2018-08-08T10:10:56Z</time>
      </trkpt>
      <trkpt lat="46" lon="4.70609">
        <ele>199</ele>
        <time>2018-08-08T10:10:58Z</time>
      </trkpt>
      <trkpt lat="45.99996" lon="4.70609">
        <ele>199</ele>
        <time>2018-08-08T10:10:59Z</time>
      </trkpt>
      <trkpt lat="45.99992" lon="4.7061">
        <ele>199</ele>
        <time>2018-08-08T10:11:00Z</time>
      </trkpt>
      <trkpt lat="45.99984" lon="4.70612">
        <ele>199</ele>
        <time>2018-08-08T10:11:01Z</time>
      </trkpt>
      <trkpt lat="45.99978" lon="4.70614">
        <ele>199</ele>
        <time>2018-08-08T10:11:02Z</time>
      </trkpt>
      <trkpt lat="45.99972" lon="4.70614">
        <ele>199</ele>
        <time>2018-08-08T10:11:03Z</time>
      </trkpt>
      <trkpt lat="45.99967" lon="4.70617">
        <ele>199</ele>
        <time>2018-08-08T10:11:04Z</time>
      </trkpt>
      <trkpt lat="45.99961" lon="4.70617">
        <ele>199</ele>
        <time>2018-08-08T10:11:05Z</time>
      </trkpt>
      <trkpt lat="45.99957" lon="4.70618">
        <ele>199</ele>
        <time>2018-08-08T10:11:06Z</time>
      </trkpt>
      <trkpt lat="45.99949" lon="4.70619">
        <ele>199</ele>
        <time>2018-08-08T10:11:07Z</time>
      </trkpt>
      <trkpt lat="45.99943" lon="4.7062">
        <ele>199</ele>
        <time>2018-08-08T10:11:08Z</time>
      </trkpt>
      <trkpt lat="45.99938" lon="4.70621">
        <ele>199</ele>
        <time>2018-08-08T10:11:09Z</time>
      </trkpt>
      <trkpt lat="45.99932" lon="4.70623">
        <ele>199</ele>
        <time>2018-08-08T10:11:10Z</time>
      </trkpt>
      <trkpt lat="45.99925" lon="4.70622">
        <ele>199</ele>
        <time>2018-08-08T10:11:11Z</time>
      </trkpt>
      <trkpt lat="45.99923" lon="4.70624">
        <ele>199</ele>
        <time>2018-08-08T10:11:12Z</time>
      </trkpt>
      <trkpt lat="45.99915" lon="4.70625">
        <ele>200</ele>
        <time>2018-08-08T10:11:13Z</time>
      </trkpt>
      <trkpt lat="45.99908" lon="4.70628">
        <ele>200</ele>
        <time>2018-08-08T10:11:15Z</time>
      </trkpt>
      <trkpt lat="45.99902" lon="4.70627">
        <ele>200</ele>
        <time>2018-08-08T10:11:16Z</time>
      </trkpt>
      <trkpt lat="45.99894" lon="4.70628">
        <ele>200</ele>
        <time>2018-08-08T10:11:17Z</time>
      </trkpt>
      <trkpt lat="45.99888" lon="4.70629">
        <ele>200</ele>
        <time>2018-08-08T10:11:18Z</time>
      </trkpt>
      <trkpt lat="45.99884" lon="4.70631">
        <ele>201</ele>
        <time>2018-08-08T10:11:19Z</time>
      </trkpt>
      <trkpt lat="45.99877" lon="4.70632">
        <ele>201</ele>
        <time>2018-08-08T10:11:20Z</time>
      </trkpt>
      <trkpt lat="45.99874" lon="4.7063">
        <ele>201</ele>
        <time>2018-08-08T10:11:21Z</time>
      </trkpt>
      <trkpt lat="45.99865" lon="4.70632">
        <ele>201</ele>
        <time>2018-08-08T10:11:22Z</time>
      </trkpt>
      <trkpt lat="45.99858" lon="4.70631">
        <ele>201</ele>
        <time>2018-08-08T10:11:23Z</time>
      </trkpt>
      <trkpt lat="45.99853" lon="4.70632">
        <ele>201</ele>
        <time>2018-08-08T10:11:24Z</time>
      </trkpt>
      <trkpt lat="45.99848" lon="4.70635">
        <ele>201</ele>
        <time>2018-08-08T10:11:25Z</time>
      </trkpt>
      <trkpt lat="45.99841" lon="4.70635">
        <ele>201</ele>
        <time>2018-08-08T10:11:26Z</time>
      </trkpt>
      <trkpt lat="45.99834" lon="4.70637">
        <ele>201</ele>
        <time>2018-08-08T10:11:27Z</time>
      </trkpt>
      <trkpt lat="45.99827" lon="4.70637">
        <ele>202</ele>
        <time>2018-08-08T10:11:28Z</time>
      </trkpt>
      <trkpt lat="45.99821" lon="4.70643">
        <ele>202</ele>
        <time>2018-08-08T10:11:30Z</time>
      </trkpt>
      <trkpt lat="45.99816" lon="4.70644">
        <ele>202</ele>
        <time>2018-08-08T10:11:31Z</time>
      </trkpt>
      <trkpt lat="45.99808" lon="4.70648">
        <ele>202</ele>
        <time>2018-08-08T10:11:33Z</time>
      </trkpt>
      <trkpt lat="45.99802" lon="4.70648">
        <ele>202</ele>
        <time>2018-08-08T10:11:34Z</time>
      </trkpt>
      <trkpt lat="45.99798" lon="4.70652">
        <ele>202</ele>
        <time>2018-08-08T10:11:35Z</time>
      </trkpt>
      <trkpt lat="45.99789" lon="4.70653">
        <ele>202</ele>
        <time>2018-08-08T10:11:36Z</time>
      </trkpt>
      <trkpt lat="45.99785" lon="4.70655">
        <ele>202</ele>
        <time>2018-08-08T10:11:37Z</time>
      </trkpt>
      <trkpt lat="45.99778" lon="4.70656">
        <ele>202</ele>
        <time>2018-08-08T10:11:38Z</time>
      </trkpt>
      <trkpt lat="45.99772" lon="4.70656">
        <ele>202</ele>
        <time>2018-08-08T10:11:39Z</time>
      </trkpt>
      <trkpt lat="45.99769" lon="4.70659">
        <ele>202</ele>
        <time>2018-08-08T10:11:40Z</time>
      </trkpt>
      <trkpt lat="45.99763" lon="4.70659">
        <ele>202</ele>
        <time>2018-08-08T10:11:41Z</time>
      </trkpt>
      <trkpt lat="45.99756" lon="4.70661">
        <ele>202</ele>
        <time>2018-08-08T10:11:42Z</time>
      </trkpt>
      <trkpt lat="45.9975" lon="4.70662">
        <ele>202</ele>
        <time>2018-08-08T10:11:43Z</time>
      </trkpt>
      <trkpt lat="45.99744" lon="4.70663">
        <ele>202</ele>
        <time>2018-08-08T10:11:44Z</time>
      </trkpt>
      <trkpt lat="45.9974" lon="4.70667">
        <ele>202</ele>
        <time>2018-08-08T10:11:45Z</time>
      </trkpt>
      <trkpt lat="45.99734" lon="4.70667">
        <ele>202</ele>
        <time>2018-08-08T10:11:46Z</time>
      </trkpt>
      <trkpt lat="45.99727" lon="4.70668">
        <ele>202</ele>
        <time>2018-08-08T10:11:47Z</time>
      </trkpt>
      <trkpt lat="45.99722" lon="4.70671">
        <ele>201</ele>
        <time>2018-08-08T10:11:48Z</time>
      </trkpt>
      <trkpt lat="45.99717" lon="4.70672">
        <ele>201</ele>
        <time>2018-08-08T10:11:49Z</time>
      </trkpt>
      <trkpt lat="45.99712" lon="4.70672">
        <ele>201</ele>
        <time>2018-08-08T10:11:50Z</time>
      </trkpt>
      <trkpt lat="45.99703" lon="4.70676">
        <ele>201</ele>
        <time>2018-08-08T10:11:52Z</time>
      </trkpt>
      <trkpt lat="45.99698" lon="4.70677">
        <ele>201</ele>
        <time>2018-08-08T10:11:53Z</time>
      </trkpt>
      <trkpt lat="45.99691" lon="4.70676">
        <ele>201</ele>
        <time>2018-08-08T10:11:54Z</time>
      </trkpt>
      <trkpt lat="45.99686" lon="4.70677">
        <ele>201</ele>
        <time>2018-08-08T10:11:55Z</time>
      </trkpt>
      <trkpt lat="45.9968" lon="4.70678">
        <ele>201</ele>
        <time>2018-08-08T10:11:56Z</time>
      </trkpt>
      <trkpt lat="45.99673" lon="4.70678">
        <ele>201</ele>
        <time>2018-08-08T10:11:57Z</time>
      </trkpt>
      <trkpt lat="45.99668" lon="4.7068">
        <ele>201</ele>
        <time>2018-08-08T10:11:58Z</time>
      </trkpt>
      <trkpt lat="45.99661" lon="4.70684">
        <ele>201</ele>
        <time>2018-08-08T10:11:59Z</time>
      </trkpt>
      <trkpt lat="45.99656" lon="4.70684">
        <ele>201</ele>
        <time>2018-08-08T10:12:00Z</time>
      </trkpt>
      <trkpt lat="45.9965" lon="4.70687">
        <ele>201</ele>
        <time>2018-08-08T10:12:01Z</time>
      </trkpt>
      <trkpt lat="45.99645" lon="4.70688">
        <ele>200</ele>
        <time>2018-08-08T10:12:02Z</time>
      </trkpt>
      <trkpt lat="45.99638" lon="4.70687">
        <ele>200</ele>
        <time>2018-08-08T10:12:03Z</time>
      </trkpt>
      <trkpt lat="45.99633" lon="4.70688">
        <ele>200</ele>
        <time>2018-08-08T10:12:04Z</time>
      </trkpt>
      <trkpt lat="45.99627" lon="4.7069">
        <ele>200</ele>
        <time>2018-08-08T10:12:05Z</time>
      </trkpt>
      <trkpt lat="45.99621" lon="4.70693">
        <ele>200</ele>
        <time>2018-08-08T10:12:06Z</time>
      </trkpt>
      <trkpt lat="45.99616" lon="4.70695">
        <ele>200</ele>
        <time>2018-08-08T10:12:07Z</time>
      </trkpt>
      <trkpt lat="45.99611" lon="4.70694">
        <ele>200</ele>
        <time>2018-08-08T10:12:08Z</time>
      </trkpt>
      <trkpt lat="45.99605" lon="4.70693">
        <ele>200</ele>
        <time>2018-08-08T10:12:09Z</time>
      </trkpt>
      <trkpt lat="45.99601" lon="4.70695">
        <ele>200</ele>
        <time>2018-08-08T10:12:10Z</time>
      </trkpt>
      <trkpt lat="45.99596" lon="4.70694">
        <ele>200</ele>
        <time>2018-08-08T10:12:11Z</time>
      </trkpt>
      <trkpt lat="45.9959" lon="4.70695">
        <ele>200</ele>
        <time>2018-08-08T10:12:12Z</time>
      </trkpt>
      <trkpt lat="45.99585" lon="4.70697">
        <ele>200</ele>
        <time>2018-08-08T10:12:13Z</time>
      </trkpt>
      <trkpt lat="45.9958" lon="4.70699">
        <ele>200</ele>
        <time>2018-08-08T10:12:14Z</time>
      </trkpt>
      <trkpt lat="45.99576" lon="4.70702">
        <ele>200</ele>
        <time>2018-08-08T10:12:15Z</time>
      </trkpt>
      <trkpt lat="45.99572" lon="4.70705">
        <ele>200</ele>
        <time>2018-08-08T10:12:16Z</time>
      </trkpt>
      <trkpt lat="45.99565" lon="4.70706">
        <ele>200</ele>
        <time>2018-08-08T10:12:17Z</time>
      </trkpt>
      <trkpt lat="45.9956" lon="4.70707">
        <ele>200</ele>
        <time>2018-08-08T10:12:18Z</time>
      </trkpt>
      <trkpt lat="45.99554" lon="4.70706">
        <ele>200</ele>
        <time>2018-08-08T10:12:19Z</time>
      </trkpt>
      <trkpt lat="45.99548" lon="4.70705">
        <ele>200</ele>
        <time>2018-08-08T10:12:20Z</time>
      </trkpt>
      <trkpt lat="45.99543" lon="4.70705">
        <ele>200</ele>
        <time>2018-08-08T10:12:21Z</time>
      </trkpt>
      <trkpt lat="45.99538" lon="4.70707">
        <ele>199</ele>
        <time>2018-08-08T10:12:22Z</time>
      </trkpt>
      <trkpt lat="45.99533" lon="4.70709">
        <ele>199</ele>
        <time>2018-08-08T10:12:23Z</time>
      </trkpt>
      <trkpt lat="45.99526" lon="4.70711">
        <ele>199</ele>
        <time>2018-08-08T10:12:24Z</time>
      </trkpt>
      <trkpt lat="45.99519" lon="4.7071">
        <ele>199</ele>
        <time>2018-08-08T10:12:25Z</time>
      </trkpt>
      <trkpt lat="45.99514" lon="4.70713">
        <ele>199</ele>
        <time>2018-08-08T10:12:26Z</time>
      </trkpt>
      <trkpt lat="45.99508" lon="4.70714">
        <ele>199</ele>
        <time>2018-08-08T10:12:27Z</time>
      </trkpt>
      <trkpt lat="45.99503" lon="4.70716">
        <ele>199</ele>
        <time>2018-08-08T10:12:28Z</time>
      </trkpt>
      <trkpt lat="45.99498" lon="4.70718">
        <ele>199</ele>
        <time>2018-08-08T10:12:29Z</time>
      </trkpt>
      <trkpt lat="45.99492" lon="4.7072">
        <ele>199</ele>
        <time>2018-08-08T10:12:30Z</time>
      </trkpt>
      <trkpt lat="45.99486" lon="4.7072">
        <ele>199</ele>
        <time>2018-08-08T10:12:31Z</time>
      </trkpt>
      <trkpt lat="45.9948" lon="4.70719">
        <ele>199</ele>
        <time>2018-08-08T10:12:32Z</time>
      </trkpt>
      <trkpt lat="45.99474" lon="4.70717">
        <ele>200</ele>
        <time>2018-08-08T10:12:33Z</time>
      </trkpt>
      <trkpt lat="45.99468" lon="4.70717">
        <ele>200</ele>
        <time>2018-08-08T10:12:34Z</time>
      </trkpt>
      <trkpt lat="45.99461" lon="4.70718">
        <ele>200</ele>
        <time>2018-08-08T10:12:35Z</time>
      </trkpt>
      <trkpt lat="45.99456" lon="4.70719">
        <ele>200</ele>
        <time>2018-08-08T10:12:36Z</time>
      </trkpt>
      <trkpt lat="45.99448" lon="4.70719">
        <ele>200</ele>
        <time>2018-08-08T10:12:37Z</time>
      </trkpt>
      <trkpt lat="45.99443" lon="4.70718">
        <ele>200</ele>
        <time>2018-08-08T10:12:38Z</time>
      </trkpt>
      <trkpt lat="45.99435" lon="4.70717">
        <ele>200</ele>
        <time>2018-08-08T10:12:39Z</time>
      </trkpt>
      <trkpt lat="45.99429" lon="4.70716">
        <ele>200</ele>
        <time>2018-08-08T10:12:40Z</time>
      </trkpt>
      <trkpt lat="45.99424" lon="4.70716">
        <ele>200</ele>
        <time>2018-08-08T10:12:41Z</time>
      </trkpt>
      <trkpt lat="45.99418" lon="4.70715">
        <ele>200</ele>
        <time>2018-08-08T10:12:42Z</time>
      </trkpt>
      <trkpt lat="45.99411" lon="4.70715">
        <ele>199</ele>
        <time>2018-08-08T10:12:43Z</time>
      </trkpt>
      <trkpt lat="45.99405" lon="4.70715">
        <ele>199</ele>
        <time>2018-08-08T10:12:44Z</time>
      </trkpt>
      <trkpt lat="45.99398" lon="4.70714">
        <ele>199</ele>
        <time>2018-08-08T10:12:45Z</time>
      </trkpt>
      <trkpt lat="45.9939" lon="4.70712">
        <ele>199</ele>
        <time>2018-08-08T10:12:46Z</time>
      </trkpt>
      <trkpt lat="45.99385" lon="4.70713">
        <ele>199</ele>
        <time>2018-08-08T10:12:47Z</time>
      </trkpt>
      <trkpt lat="45.99377" lon="4.70713">
        <ele>198</ele>
        <time>2018-08-08T10:12:49Z</time>
      </trkpt>
      <trkpt lat="45.9937" lon="4.70713">
        <ele>198</ele>
        <time>2018-08-08T10:12:50Z</time>
      </trkpt>
      <trkpt lat="45.99364" lon="4.70712">
        <ele>198</ele>
        <time>2018-08-08T10:12:51Z</time>
      </trkpt>
      <trkpt lat="45.9936" lon="4.7071">
        <ele>198</ele>
        <time>2018-08-08T10:12:52Z</time>
      </trkpt>
      <trkpt lat="45.99355" lon="4.70707">
        <ele>198</ele>
        <time>2018-08-08T10:12:53Z</time>
      </trkpt>
      <trkpt lat="45.9935" lon="4.70708">
        <ele>198</ele>
        <time>2018-08-08T10:12:54Z</time>
      </trkpt>
      <trkpt lat="45.99345" lon="4.70709">
        <ele>198</ele>
        <time>2018-08-08T10:12:55Z</time>
      </trkpt>
      <trkpt lat="45.99339" lon="4.70711">
        <ele>197</ele>
        <time>2018-08-08T10:12:56Z</time>
      </trkpt>
      <trkpt lat="45.99338" lon="4.70718">
        <ele>197</ele>
        <time>2018-08-08T10:12:57Z</time>
      </trkpt>
      <trkpt lat="45.9933" lon="4.70716">
        <ele>196</ele>
        <time>2018-08-08T10:12:58Z</time>
      </trkpt>
      <trkpt lat="45.99323" lon="4.70714">
        <ele>196</ele>
        <time>2018-08-08T10:12:59Z</time>
      </trkpt>
      <trkpt lat="45.99317" lon="4.7071">
        <ele>196</ele>
        <time>2018-08-08T10:13:00Z</time>
      </trkpt>
      <trkpt lat="45.9931" lon="4.70709">
        <ele>196</ele>
        <time>2018-08-08T10:13:01Z</time>
      </trkpt>
      <trkpt lat="45.99305" lon="4.70712">
        <ele>196</ele>
        <time>2018-08-08T10:13:02Z</time>
      </trkpt>
      <trkpt lat="45.99298" lon="4.70712">
        <ele>196</ele>
        <time>2018-08-08T10:13:03Z</time>
      </trkpt>
      <trkpt lat="45.99292" lon="4.70711">
        <ele>196</ele>
        <time>2018-08-08T10:13:04Z</time>
      </trkpt>
      <trkpt lat="45.99286" lon="4.70714">
        <ele>196</ele>
        <time>2018-08-08T10:13:06Z</time>
      </trkpt>
      <trkpt lat="45.9928" lon="4.70714">
        <ele>196</ele>
        <time>2018-08-08T10:13:07Z</time>
      </trkpt>
      <trkpt lat="45.99275" lon="4.70715">
        <ele>196</ele>
        <time>2018-08-08T10:13:08Z</time>
      </trkpt>
      <trkpt lat="45.9927" lon="4.70716">
        <ele>196</ele>
        <time>2018-08-08T10:13:09Z</time>
      </trkpt>
      <trkpt lat="45.99266" lon="4.70716">
        <ele>196</ele>
        <time>2018-08-08T10:13:11Z</time>
      </trkpt>
      <trkpt lat="45.99257" lon="4.70716">
        <ele>196</ele>
        <time>2018-08-08T10:13:12Z</time>
      </trkpt>
      <trkpt lat="45.99246" lon="4.70717">
        <ele>196</ele>
        <time>2018-08-08T10:13:13Z</time>
      </trkpt>
      <trkpt lat="45.9924" lon="4.70718">
        <ele>196</ele>
        <time>2018-08-08T10:13:14Z</time>
      </trkpt>
      <trkpt lat="45.9923" lon="4.70715">
        <ele>196</ele>
        <time>2018-08-08T10:13:15Z</time>
      </trkpt>
      <trkpt lat="45.99223" lon="4.70718">
        <ele>196</ele>
        <time>2018-08-08T10:13:17Z</time>
      </trkpt>
      <trkpt lat="45.99217" lon="4.70716">
        <ele>196</ele>
        <time>2018-08-08T10:13:18Z</time>
      </trkpt>
      <trkpt lat="45.99211" lon="4.70715">
        <ele>196</ele>
        <time>2018-08-08T10:13:19Z</time>
      </trkpt>
      <trkpt lat="45.99206" lon="4.70714">
        <ele>196</ele>
        <time>2018-08-08T10:13:20Z</time>
      </trkpt>
      <trkpt lat="45.99196" lon="4.70713">
        <ele>196</ele>
        <time>2018-08-08T10:13:21Z</time>
      </trkpt>
      <trkpt lat="45.99191" lon="4.70713">
        <ele>196</ele>
        <time>2018-08-08T10:13:22Z</time>
      </trkpt>
      <trkpt lat="45.99183" lon="4.70711">
        <ele>196</ele>
        <time>2018-08-08T10:13:23Z</time>
      </trkpt>
      <trkpt lat="45.99178" lon="4.70707">
        <ele>196</ele>
        <time>2018-08-08T10:13:24Z</time>
      </trkpt>
      <trkpt lat="45.99172" lon="4.70707">
        <ele>196</ele>
        <time>2018-08-08T10:13:25Z</time>
      </trkpt>
      <trkpt lat="45.99166" lon="4.70707">
        <ele>195</ele>
        <time>2018-08-08T10:13:26Z</time>
      </trkpt>
      <trkpt lat="45.9916" lon="4.70708">
        <ele>195</ele>
        <time>2018-08-08T10:13:27Z</time>
      </trkpt>
      <trkpt lat="45.99154" lon="4.70707">
        <ele>195</ele>
        <time>2018-08-08T10:13:28Z</time>
      </trkpt>
      <trkpt lat="45.99147" lon="4.70706">
        <ele>195</ele>
        <time>2018-08-08T10:13:29Z</time>
      </trkpt>
      <trkpt lat="45.99143" lon="4.70707">
        <ele>195</ele>
        <time>2018-08-08T10:13:30Z</time>
      </trkpt>
      <trkpt lat="45.99137" lon="4.70707">
        <ele>195</ele>
        <time>2018-08-08T10:13:31Z</time>
      </trkpt>
      <trkpt lat="45.99131" lon="4.70706">
        <ele>195</ele>
        <time>2018-08-08T10:13:32Z</time>
      </trkpt>
      <trkpt lat="45.99125" lon="4.70708">
        <ele>195</ele>
        <time>2018-08-08T10:13:33Z</time>
      </trkpt>
      <trkpt lat="45.99121" lon="4.70708">
        <ele>195</ele>
        <time>2018-08-08T10:13:34Z</time>
      </trkpt>
      <trkpt lat="45.99114" lon="4.70707">
        <ele>195</ele>
        <time>2018-08-08T10:13:35Z</time>
      </trkpt>
      <trkpt lat="45.99107" lon="4.70706">
        <ele>195</ele>
        <time>2018-08-08T10:13:36Z</time>
      </trkpt>
      <trkpt lat="45.991" lon="4.70706">
        <ele>195</ele>
        <time>2018-08-08T10:13:37Z</time>
      </trkpt>
      <trkpt lat="45.99096" lon="4.70706">
        <ele>195</ele>
        <time>2018-08-08T10:13:38Z</time>
      </trkpt>
      <trkpt lat="45.9909" lon="4.70706">
        <ele>195</ele>
        <time>2018-08-08T10:13:39Z</time>
      </trkpt>
      <trkpt lat="45.99082" lon="4.70706">
        <ele>193</ele>
        <time>2018-08-08T10:13:41Z</time>
      </trkpt>
      <trkpt lat="45.99077" lon="4.70706">
        <ele>193</ele>
        <time>2018-08-08T10:13:42Z</time>
      </trkpt>
      <trkpt lat="45.99069" lon="4.70705">
        <ele>193</ele>
        <time>2018-08-08T10:13:44Z</time>
      </trkpt>
      <trkpt lat="45.99066" lon="4.70706">
        <ele>193</ele>
        <time>2018-08-08T10:13:45Z</time>
      </trkpt>
      <trkpt lat="45.99059" lon="4.70706">
        <ele>193</ele>
        <time>2018-08-08T10:13:47Z</time>
      </trkpt>
      <trkpt lat="45.99057" lon="4.70705">
        <ele>193</ele>
        <time>2018-08-08T10:13:48Z</time>
      </trkpt>
      <trkpt lat="45.99055" lon="4.70705">
        <ele>193</ele>
        <time>2018-08-08T10:13:49Z</time>
      </trkpt>
      <trkpt lat="45.99047" lon="4.70706">
        <ele>193</ele>
        <time>2018-08-08T10:13:50Z</time>
      </trkpt>
      <trkpt lat="45.99042" lon="4.70705">
        <ele>193</ele>
        <time>2018-08-08T10:13:58Z</time>
      </trkpt>
      <trkpt lat="45.99042" lon="4.70704">
        <ele>193</ele>
        <time>2018-08-08T10:13:59Z</time>
      </trkpt>
      <trkpt lat="45.99042" lon="4.70704">
        <ele>193</ele>
        <time>2018-08-08T10:14:00Z</time>
      </trkpt>
      <trkpt lat="45.99042" lon="4.70704">
        <ele>193</ele>
        <time>2018-08-08T10:14:01Z</time>
      </trkpt>
      <trkpt lat="45.99042" lon="4.70703">
        <ele>193</ele>
        <time>2018-08-08T10:14:02Z</time>
      </trkpt>
      <trkpt lat="45.99043" lon="4.70703">
        <ele>193</ele>
        <time>2018-08-08T10:14:03Z</time>
      </trkpt>
      <trkpt lat="45.99034" lon="4.70706">
        <ele>192</ele>
        <time>2018-08-08T10:14:27Z</time>
      </trkpt>
      <trkpt lat="45.99024" lon="4.70704">
        <ele>192</ele>
        <time>2018-08-08T10:14:28Z</time>
      </trkpt>
      <trkpt lat="45.99019" lon="4.70704">
        <ele>192</ele>
        <time>2018-08-08T10:14:29Z</time>
      </trkpt>
      <trkpt lat="45.99013" lon="4.70704">
        <ele>192</ele>
        <time>2018-08-08T10:14:30Z</time>
      </trkpt>
      <trkpt lat="45.99006" lon="4.70705">
        <ele>192</ele>
        <time>2018-08-08T10:14:31Z</time>
      </trkpt>
      <trkpt lat="45.98998" lon="4.70709">
        <ele>191</ele>
        <time>2018-08-08T10:14:32Z</time>
      </trkpt>
      <trkpt lat="45.98989" lon="4.70712">
        <ele>191</ele>
        <time>2018-08-08T10:14:33Z</time>
      </trkpt>
      <trkpt lat="45.98985" lon="4.70717">
        <ele>191</ele>
        <time>2018-08-08T10:14:34Z</time>
      </trkpt>
      <trkpt lat="45.98977" lon="4.70724">
        <ele>191</ele>
        <time>2018-08-08T10:14:35Z</time>
      </trkpt>
      <trkpt lat="45.98971" lon="4.70732">
        <ele>191</ele>
        <time>2018-08-08T10:14:36Z</time>
      </trkpt>
      <trkpt lat="45.98965" lon="4.70739">
        <ele>191</ele>
        <time>2018-08-08T10:14:37Z</time>
      </trkpt>
      <trkpt lat="45.98959" lon="4.70748">
        <ele>190</ele>
        <time>2018-08-08T10:14:38Z</time>
      </trkpt>
      <trkpt lat="45.98951" lon="4.70759">
        <ele>189</ele>
        <time>2018-08-08T10:14:39Z</time>
      </trkpt>
      <trkpt lat="45.98943" lon="4.70775">
        <ele>189</ele>
        <time>2018-08-08T10:14:40Z</time>
      </trkpt>
      <trkpt lat="45.98938" lon="4.70785">
        <ele>189</ele>
        <time>2018-08-08T10:14:41Z</time>
      </trkpt>
      <trkpt lat="45.98933" lon="4.70796">
        <ele>189</ele>
        <time>2018-08-08T10:14:42Z</time>
      </trkpt>
      <trkpt lat="45.9893" lon="4.70805">
        <ele>188</ele>
        <time>2018-08-08T10:14:43Z</time>
      </trkpt>
      <trkpt lat="45.98925" lon="4.70816">
        <ele>188</ele>
        <time>2018-08-08T10:14:44Z</time>
      </trkpt>
      <trkpt lat="45.9892" lon="4.70826">
        <ele>187</ele>
        <time>2018-08-08T10:14:45Z</time>
      </trkpt>
      <trkpt lat="45.98917" lon="4.7083">
        <ele>187</ele>
        <time>2018-08-08T10:14:46Z</time>
      </trkpt>
      <trkpt lat="45.98912" lon="4.70834">
        <ele>187</ele>
        <time>2018-08-08T10:14:47Z</time>
      </trkpt>
      <trkpt lat="45.98904" lon="4.70843">
        <ele>187</ele>
        <time>2018-08-08T10:14:48Z</time>
      </trkpt>
      <trkpt lat="45.989" lon="4.70849">
        <ele>186</ele>
        <time>2018-08-08T10:14:49Z</time>
      </trkpt>
      <trkpt lat="45.98896" lon="4.70858">
        <ele>186</ele>
        <time>2018-08-08T10:14:50Z</time>
      </trkpt>
      <trkpt lat="45.98891" lon="4.70864">
        <ele>186</ele>
        <time>2018-08-08T10:14:51Z</time>
      </trkpt>
      <trkpt lat="45.98891" lon="4.70875">
        <ele>186</ele>
        <time>2018-08-08T10:14:52Z</time>
      </trkpt>
      <trkpt lat="45.98887" lon="4.70886">
        <ele>186</ele>
        <time>2018-08-08T10:14:53Z</time>
      </trkpt>
      <trkpt lat="45.98881" lon="4.70894">
        <ele>186</ele>
        <time>2018-08-08T10:14:54Z</time>
      </trkpt>
      <trkpt lat="45.98877" lon="4.70903">
        <ele>186</ele>
        <time>2018-08-08T10:14:55Z</time>
      </trkpt>
      <trkpt lat="45.98879" lon="4.70912">
        <ele>186</ele>
        <time>2018-08-08T10:14:56Z</time>
      </trkpt>
      <trkpt lat="45.98876" lon="4.70919">
        <ele>185</ele>
        <time>2018-08-08T10:14:58Z</time>
      </trkpt>
      <trkpt lat="45.98868" lon="4.70919">
        <ele>185</ele>
        <time>2018-08-08T10:14:59Z</time>
      </trkpt>
      <trkpt lat="45.98863" lon="4.70929">
        <ele>185</ele>
        <time>2018-08-08T10:15:00Z</time>
      </trkpt>
      <trkpt lat="45.98859" lon="4.7094">
        <ele>185</ele>
        <time>2018-08-08T10:15:01Z</time>
      </trkpt>
      <trkpt lat="45.98854" lon="4.70948">
        <ele>185</ele>
        <time>2018-08-08T10:15:02Z</time>
      </trkpt>
      <trkpt lat="45.98853" lon="4.70955">
        <ele>185</ele>
        <time>2018-08-08T10:15:03Z</time>
      </trkpt>
      <trkpt lat="45.98853" lon="4.70964">
        <ele>185</ele>
        <time>2018-08-08T10:15:04Z</time>
      </trkpt>
      <trkpt lat="45.98851" lon="4.70973">
        <ele>185</ele>
        <time>2018-08-08T10:15:05Z</time>
      </trkpt>
      <trkpt lat="45.98846" lon="4.7098">
        <ele>185</ele>
        <time>2018-08-08T10:15:06Z</time>
      </trkpt>
      <trkpt lat="45.98844" lon="4.70986">
        <ele>185</ele>
        <time>2018-08-08T10:15:07Z</time>
      </trkpt>
      <trkpt lat="45.98839" lon="4.70996">
        <ele>185</ele>
        <time>2018-08-08T10:15:08Z</time>
      </trkpt>
      <trkpt lat="45.98837" lon="4.71006">
        <ele>185</ele>
        <time>2018-08-08T10:15:09Z</time>
      </trkpt>
      <trkpt lat="45.98839" lon="4.71017">
        <ele>185</ele>
        <time>2018-08-08T10:15:10Z</time>
      </trkpt>
      <trkpt lat="45.98834" lon="4.71022">
        <ele>185</ele>
        <time>2018-08-08T10:15:11Z</time>
      </trkpt>
      <trkpt lat="45.98829" lon="4.71026">
        <ele>186</ele>
        <time>2018-08-08T10:15:12Z</time>
      </trkpt>
      <trkpt lat="45.98826" lon="4.71036">
        <ele>187</ele>
        <time>2018-08-08T10:15:13Z</time>
      </trkpt>
      <trkpt lat="45.98822" lon="4.71044">
        <ele>187</ele>
        <time>2018-08-08T10:15:14Z</time>
      </trkpt>
      <trkpt lat="45.98819" lon="4.71053">
        <ele>187</ele>
        <time>2018-08-08T10:15:15Z</time>
      </trkpt>
      <trkpt lat="45.98814" lon="4.71058">
        <ele>187</ele>
        <time>2018-08-08T10:15:16Z</time>
      </trkpt>
      <trkpt lat="45.98813" lon="4.71068">
        <ele>187</ele>
        <time>2018-08-08T10:15:17Z</time>
      </trkpt>
      <trkpt lat="45.98808" lon="4.71077">
        <ele>187</ele>
        <time>2018-08-08T10:15:19Z</time>
      </trkpt>
      <trkpt lat="45.98809" lon="4.71086">
        <ele>188</ele>
        <time>2018-08-08T10:15:20Z</time>
      </trkpt>
      <trkpt lat="45.98806" lon="4.71095">
        <ele>188</ele>
        <time>2018-08-08T10:15:21Z</time>
      </trkpt>
      <trkpt lat="45.98798" lon="4.71098">
        <ele>187</ele>
        <time>2018-08-08T10:15:22Z</time>
      </trkpt>
      <trkpt lat="45.98795" lon="4.71108">
        <ele>187</ele>
        <time>2018-08-08T10:15:23Z</time>
      </trkpt>
      <trkpt lat="45.98797" lon="4.71117">
        <ele>187</ele>
        <time>2018-08-08T10:15:24Z</time>
      </trkpt>
      <trkpt lat="45.98795" lon="4.71126">
        <ele>187</ele>
        <time>2018-08-08T10:15:25Z</time>
      </trkpt>
      <trkpt lat="45.98792" lon="4.71135">
        <ele>187</ele>
        <time>2018-08-08T10:15:26Z</time>
      </trkpt>
      <trkpt lat="45.98793" lon="4.71146">
        <ele>187</ele>
        <time>2018-08-08T10:15:27Z</time>
      </trkpt>
      <trkpt lat="45.9879" lon="4.71152">
        <ele>187</ele>
        <time>2018-08-08T10:15:28Z</time>
      </trkpt>
      <trkpt lat="45.9879" lon="4.71159">
        <ele>187</ele>
        <time>2018-08-08T10:15:29Z</time>
      </trkpt>
      <trkpt lat="45.98786" lon="4.71166">
        <ele>187</ele>
        <time>2018-08-08T10:15:30Z</time>
      </trkpt>
      <trkpt lat="45.98788" lon="4.71176">
        <ele>186</ele>
        <time>2018-08-08T10:15:31Z</time>
      </trkpt>
      <trkpt lat="45.98781" lon="4.7118">
        <ele>186</ele>
        <time>2018-08-08T10:15:32Z</time>
      </trkpt>
      <trkpt lat="45.98776" lon="4.71188">
        <ele>186</ele>
        <time>2018-08-08T10:15:33Z</time>
      </trkpt>
      <trkpt lat="45.98775" lon="4.71196">
        <ele>186</ele>
        <time>2018-08-08T10:15:34Z</time>
      </trkpt>
      <trkpt lat="45.98772" lon="4.71203">
        <ele>186</ele>
        <time>2018-08-08T10:15:35Z</time>
      </trkpt>
      <trkpt lat="45.98773" lon="4.71213">
        <ele>186</ele>
        <time>2018-08-08T10:15:36Z</time>
      </trkpt>
      <trkpt lat="45.9877" lon="4.71219">
        <ele>186</ele>
        <time>2018-08-08T10:15:37Z</time>
      </trkpt>
      <trkpt lat="45.98766" lon="4.71225">
        <ele>186</ele>
        <time>2018-08-08T10:15:38Z</time>
      </trkpt>
      <trkpt lat="45.98762" lon="4.71231">
        <ele>186</ele>
        <time>2018-08-08T10:15:39Z</time>
      </trkpt>
      <trkpt lat="45.98758" lon="4.71237">
        <ele>186</ele>
        <time>2018-08-08T10:15:40Z</time>
      </trkpt>
      <trkpt lat="45.98759" lon="4.7125">
        <ele>186</ele>
        <time>2018-08-08T10:15:41Z</time>
      </trkpt>
      <trkpt lat="45.98758" lon="4.7126">
        <ele>186</ele>
        <time>2018-08-08T10:15:42Z</time>
      </trkpt>
      <trkpt lat="45.98755" lon="4.71271">
        <ele>186</ele>
        <time>2018-08-08T10:15:43Z</time>
      </trkpt>
      <trkpt lat="45.98751" lon="4.71274">
        <ele>186</ele>
        <time>2018-08-08T10:15:44Z</time>
      </trkpt>
      <trkpt lat="45.98754" lon="4.71286">
        <ele>185</ele>
        <time>2018-08-08T10:15:45Z</time>
      </trkpt>
      <trkpt lat="45.98752" lon="4.71294">
        <ele>185</ele>
        <time>2018-08-08T10:15:46Z</time>
      </trkpt>
      <trkpt lat="45.9875" lon="4.71301">
        <ele>188</ele>
        <time>2018-08-08T10:15:47Z</time>
      </trkpt>
      <trkpt lat="45.98746" lon="4.71307">
        <ele>188</ele>
        <time>2018-08-08T10:15:48Z</time>
      </trkpt>
      <trkpt lat="45.9874" lon="4.71312">
        <ele>188</ele>
        <time>2018-08-08T10:15:49Z</time>
      </trkpt>
      <trkpt lat="45.98737" lon="4.71318">
        <ele>188</ele>
        <time>2018-08-08T10:15:50Z</time>
      </trkpt>
      <trkpt lat="45.98727" lon="4.7132">
        <ele>188</ele>
        <time>2018-08-08T10:15:51Z</time>
      </trkpt>
      <trkpt lat="45.98727" lon="4.71327">
        <ele>188</ele>
        <time>2018-08-08T10:15:52Z</time>
      </trkpt>
      <trkpt lat="45.98726" lon="4.71335">
        <ele>187</ele>
        <time>2018-08-08T10:15:53Z</time>
      </trkpt>
      <trkpt lat="45.98724" lon="4.71343">
        <ele>187</ele>
        <time>2018-08-08T10:15:54Z</time>
      </trkpt>
      <trkpt lat="45.98723" lon="4.71349">
        <ele>187</ele>
        <time>2018-08-08T10:15:55Z</time>
      </trkpt>
      <trkpt lat="45.98722" lon="4.71355">
        <ele>187</ele>
        <time>2018-08-08T10:15:56Z</time>
      </trkpt>
      <trkpt lat="45.98722" lon="4.71364">
        <ele>187</ele>
        <time>2018-08-08T10:15:57Z</time>
      </trkpt>
      <trkpt lat="45.98722" lon="4.71372">
        <ele>187</ele>
        <time>2018-08-08T10:15:58Z</time>
      </trkpt>
      <trkpt lat="45.98719" lon="4.71378">
        <ele>187</ele>
        <time>2018-08-08T10:15:59Z</time>
      </trkpt>
      <trkpt lat="45.98718" lon="4.71384">
        <ele>187</ele>
        <time>2018-08-08T10:16:00Z</time>
      </trkpt>
      <trkpt lat="45.98715" lon="4.7139">
        <ele>187</ele>
        <time>2018-08-08T10:16:01Z</time>
      </trkpt>
      <trkpt lat="45.98711" lon="4.71398">
        <ele>187</ele>
        <time>2018-08-08T10:16:02Z</time>
      </trkpt>
      <trkpt lat="45.98708" lon="4.71403">
        <ele>187</ele>
        <time>2018-08-08T10:16:03Z</time>
      </trkpt>
      <trkpt lat="45.98708" lon="4.71411">
        <ele>187</ele>
        <time>2018-08-08T10:16:04Z</time>
      </trkpt>
      <trkpt lat="45.98706" lon="4.71417">
        <ele>187</ele>
        <time>2018-08-08T10:16:05Z</time>
      </trkpt>
      <trkpt lat="45.98703" lon="4.71425">
        <ele>187</ele>
        <time>2018-08-08T10:16:08Z</time>
      </trkpt>
      <trkpt lat="45.98701" lon="4.71429">
        <ele>187</ele>
        <time>2018-08-08T10:16:09Z</time>
      </trkpt>
      <trkpt lat="45.98699" lon="4.71438">
        <ele>187</ele>
        <time>2018-08-08T10:16:12Z</time>
      </trkpt>
      <trkpt lat="45.98698" lon="4.71442">
        <ele>187</ele>
        <time>2018-08-08T10:16:13Z</time>
      </trkpt>
      <trkpt lat="45.98693" lon="4.71452">
        <ele>187</ele>
        <time>2018-08-08T10:16:17Z</time>
      </trkpt>
      <trkpt lat="45.98692" lon="4.71455">
        <ele>187</ele>
        <time>2018-08-08T10:16:18Z</time>
      </trkpt>
      <trkpt lat="45.98692" lon="4.71467">
        <ele>187</ele>
        <time>2018-08-08T10:16:21Z</time>
      </trkpt>
      <trkpt lat="45.98692" lon="4.71471">
        <ele>187</ele>
        <time>2018-08-08T10:16:22Z</time>
      </trkpt>
      <trkpt lat="45.98686" lon="4.7148">
        <ele>187</ele>
        <time>2018-08-08T10:16:26Z</time>
      </trkpt>
      <trkpt lat="45.98684" lon="4.7148">
        <ele>187</ele>
        <time>2018-08-08T10:16:27Z</time>
      </trkpt>
      <trkpt lat="45.98681" lon="4.7148">
        <ele>187</ele>
        <time>2018-08-08T10:16:28Z</time>
      </trkpt>
      <trkpt lat="45.98671" lon="4.71479">
        <ele>188</ele>
        <time>2018-08-08T10:16:29Z</time>
      </trkpt>
      <trkpt lat="45.98664" lon="4.71481">
        <ele>190</ele>
        <time>2018-08-08T10:16:31Z</time>
      </trkpt>
      <trkpt lat="45.9866" lon="4.71482">
        <ele>190</ele>
        <time>2018-08-08T10:16:32Z</time>
      </trkpt>
      <trkpt lat="45.98652" lon="4.71486">
        <ele>190</ele>
        <time>2018-08-08T10:16:34Z</time>
      </trkpt>
      <trkpt lat="45.9865" lon="4.71487">
        <ele>190</ele>
        <time>2018-08-08T10:16:35Z</time>
      </trkpt>
      <trkpt lat="45.98648" lon="4.7149">
        <ele>190</ele>
        <time>2018-08-08T10:16:37Z</time>
      </trkpt>
      <trkpt lat="45.98641" lon="4.71494">
        <ele>190</ele>
        <time>2018-08-08T10:16:38Z</time>
      </trkpt>
      <trkpt lat="45.98634" lon="4.7149">
        <ele>190</ele>
        <time>2018-08-08T10:16:42Z</time>
      </trkpt>
      <trkpt lat="45.98632" lon="4.7149">
        <ele>190</ele>
        <time>2018-08-08T10:16:43Z</time>
      </trkpt>
      <trkpt lat="45.98629" lon="4.71491">
        <ele>190</ele>
        <time>2018-08-08T10:16:44Z</time>
      </trkpt>
      <trkpt lat="45.9862" lon="4.71494">
        <ele>190</ele>
        <time>2018-08-08T10:16:45Z</time>
      </trkpt>
      <trkpt lat="45.98618" lon="4.71494">
        <ele>191</ele>
        <time>2018-08-08T10:16:46Z</time>
      </trkpt>
      <trkpt lat="45.98611" lon="4.71495">
        <ele>191</ele>
        <time>2018-08-08T10:16:47Z</time>
      </trkpt>
      <trkpt lat="45.98606" lon="4.71496">
        <ele>191</ele>
        <time>2018-08-08T10:16:48Z</time>
      </trkpt>
      <trkpt lat="45.98601" lon="4.71497">
        <ele>191</ele>
        <time>2018-08-08T10:16:49Z</time>
      </trkpt>
      <trkpt lat="45.98597" lon="4.71498">
        <ele>191</ele>
        <time>2018-08-08T10:16:50Z</time>
      </trkpt>
      <trkpt lat="45.98588" lon="4.71497">
        <ele>192</ele>
        <time>2018-08-08T10:16:51Z</time>
      </trkpt>
      <trkpt lat="45.9858" lon="4.71495">
        <ele>192</ele>
        <time>2018-08-08T10:16:53Z</time>
      </trkpt>
      <trkpt lat="45.98578" lon="4.71496">
        <ele>192</ele>
        <time>2018-08-08T10:16:54Z</time>
      </trkpt>
      <trkpt lat="45.98571" lon="4.715">
        <ele>193</ele>
        <time>2018-08-08T10:16:55Z</time>
      </trkpt>
      <trkpt lat="45.98567" lon="4.71502">
        <ele>193</ele>
        <time>2018-08-08T10:16:56Z</time>
      </trkpt>
      <trkpt lat="45.98561" lon="4.71502">
        <ele>193</ele>
        <time>2018-08-08T10:16:58Z</time>
      </trkpt>
      <trkpt lat="45.98558" lon="4.71501">
        <ele>193</ele>
        <time>2018-08-08T10:16:59Z</time>
      </trkpt>
      <trkpt lat="45.9855" lon="4.71502">
        <ele>194</ele>
        <time>2018-08-08T10:17:02Z</time>
      </trkpt>
      <trkpt lat="45.98548" lon="4.71502">
        <ele>194</ele>
        <time>2018-08-08T10:17:03Z</time>
      </trkpt>
      <trkpt lat="45.9854" lon="4.71501">
        <ele>194</ele>
        <time>2018-08-08T10:17:07Z</time>
      </trkpt>
      <trkpt lat="45.98537" lon="4.71501">
        <ele>194</ele>
        <time>2018-08-08T10:17:08Z</time>
      </trkpt>
      <trkpt lat="45.98529" lon="4.71502">
        <ele>194</ele>
        <time>2018-08-08T10:17:32Z</time>
      </trkpt>
      <trkpt lat="45.98527" lon="4.71503">
        <ele>194</ele>
        <time>2018-08-08T10:17:33Z</time>
      </trkpt>
      <trkpt lat="45.98518" lon="4.71508">
        <ele>195</ele>
        <time>2018-08-08T10:17:34Z</time>
      </trkpt>
      <trkpt lat="45.98513" lon="4.71511">
        <ele>195</ele>
        <time>2018-08-08T10:17:37Z</time>
      </trkpt>
      <trkpt lat="45.98505" lon="4.71515">
        <ele>195</ele>
        <time>2018-08-08T10:17:38Z</time>
      </trkpt>
      <trkpt lat="45.98496" lon="4.71519">
        <ele>196</ele>
        <time>2018-08-08T10:17:40Z</time>
      </trkpt>
      <trkpt lat="45.98492" lon="4.71521">
        <ele>196</ele>
        <time>2018-08-08T10:17:41Z</time>
      </trkpt>
      <trkpt lat="45.98484" lon="4.71525">
        <ele>196</ele>
        <time>2018-08-08T10:17:42Z</time>
      </trkpt>
      <trkpt lat="45.98478" lon="4.71526">
        <ele>196</ele>
        <time>2018-08-08T10:17:43Z</time>
      </trkpt>
      <trkpt lat="45.98472" lon="4.71527">
        <ele>196</ele>
        <time>2018-08-08T10:17:44Z</time>
      </trkpt>
      <trkpt lat="45.98467" lon="4.71528">
        <ele>197</ele>
        <time>2018-08-08T10:17:45Z</time>
      </trkpt>
      <trkpt lat="45.98462" lon="4.71531">
        <ele>197</ele>
        <time>2018-08-08T10:17:46Z</time>
      </trkpt>
      <trkpt lat="45.98456" lon="4.71532">
        <ele>197</ele>
        <time>2018-08-08T10:17:47Z</time>
      </trkpt>
      <trkpt lat="45.98448" lon="4.71534">
        <ele>197</ele>
        <time>2018-08-08T10:17:48Z</time>
      </trkpt>
      <trkpt lat="45.98441" lon="4.71535">
        <ele>197</ele>
        <time>2018-08-08T10:17:49Z</time>
      </trkpt>
      <trkpt lat="45.98435" lon="4.71536">
        <ele>197</ele>
        <time>2018-08-08T10:17:50Z</time>
      </trkpt>
      <trkpt lat="45.98429" lon="4.71538">
        <ele>197</ele>
        <time>2018-08-08T10:17:51Z</time>
      </trkpt>
      <trkpt lat="45.98423" lon="4.71538">
        <ele>197</ele>
        <time>2018-08-08T10:17:52Z</time>
      </trkpt>
      <trkpt lat="45.98416" lon="4.71534">
        <ele>198</ele>
        <time>2018-08-08T10:17:53Z</time>
      </trkpt>
      <trkpt lat="45.98412" lon="4.71533">
        <ele>198</ele>
        <time>2018-08-08T10:17:54Z</time>
      </trkpt>
      <trkpt lat="45.98406" lon="4.71536">
        <ele>198</ele>
        <time>2018-08-08T10:17:55Z</time>
      </trkpt>
      <trkpt lat="45.98399" lon="4.7154">
        <ele>198</ele>
        <time>2018-08-08T10:17:56Z</time>
      </trkpt>
      <trkpt lat="45.98395" lon="4.71545">
        <ele>198</ele>
        <time>2018-08-08T10:17:57Z</time>
      </trkpt>
      <trkpt lat="45.98391" lon="4.71549">
        <ele>198</ele>
        <time>2018-08-08T10:17:58Z</time>
      </trkpt>
      <trkpt lat="45.98388" lon="4.71555">
        <ele>198</ele>
        <time>2018-08-08T10:17:59Z</time>
      </trkpt>
      <trkpt lat="45.98386" lon="4.71563">
        <ele>198</ele>
        <time>2018-08-08T10:18:00Z</time>
      </trkpt>
      <trkpt lat="45.98383" lon="4.71568">
        <ele>198</ele>
        <time>2018-08-08T10:18:01Z</time>
      </trkpt>
      <trkpt lat="45.98377" lon="4.71574">
        <ele>198</ele>
        <time>2018-08-08T10:18:03Z</time>
      </trkpt>
      <trkpt lat="45.98371" lon="4.71575">
        <ele>198</ele>
        <time>2018-08-08T10:18:04Z</time>
      </trkpt>
      <trkpt lat="45.98365" lon="4.71575">
        <ele>198</ele>
        <time>2018-08-08T10:18:05Z</time>
      </trkpt>
      <trkpt lat="45.98359" lon="4.71577">
        <ele>199</ele>
        <time>2018-08-08T10:18:06Z</time>
      </trkpt>
      <trkpt lat="45.98352" lon="4.71573">
        <ele>199</ele>
        <time>2018-08-08T10:18:07Z</time>
      </trkpt>
      <trkpt lat="45.9835" lon="4.71576">
        <ele>199</ele>
        <time>2018-08-08T10:18:08Z</time>
      </trkpt>
      <trkpt lat="45.98344" lon="4.71575">
        <ele>199</ele>
        <time>2018-08-08T10:18:10Z</time>
      </trkpt>
      <trkpt lat="45.9834" lon="4.71575">
        <ele>199</ele>
        <time>2018-08-08T10:18:11Z</time>
      </trkpt>
      <trkpt lat="45.98333" lon="4.71568">
        <ele>198</ele>
        <time>2018-08-08T10:18:13Z</time>
      </trkpt>
      <trkpt lat="45.98329" lon="4.71565">
        <ele>198</ele>
        <time>2018-08-08T10:18:14Z</time>
      </trkpt>
      <trkpt lat="45.98322" lon="4.71562">
        <ele>198</ele>
        <time>2018-08-08T10:18:15Z</time>
      </trkpt>
      <trkpt lat="45.98318" lon="4.71558">
        <ele>198</ele>
        <time>2018-08-08T10:18:16Z</time>
      </trkpt>
      <trkpt lat="45.98313" lon="4.71557">
        <ele>198</ele>
        <time>2018-08-08T10:18:17Z</time>
      </trkpt>
      <trkpt lat="45.98308" lon="4.71553">
        <ele>198</ele>
        <time>2018-08-08T10:18:18Z</time>
      </trkpt>
      <trkpt lat="45.98303" lon="4.7155">
        <ele>198</ele>
        <time>2018-08-08T10:18:19Z</time>
      </trkpt>
      <trkpt lat="45.98298" lon="4.71546">
        <ele>198</ele>
        <time>2018-08-08T10:18:20Z</time>
      </trkpt>
      <trkpt lat="45.98293" lon="4.71542">
        <ele>198</ele>
        <time>2018-08-08T10:18:21Z</time>
      </trkpt>
      <trkpt lat="45.98287" lon="4.71539">
        <ele>198</ele>
        <time>2018-08-08T10:18:22Z</time>
      </trkpt>
      <trkpt lat="45.98282" lon="4.71535">
        <ele>198</ele>
        <time>2018-08-08T10:18:23Z</time>
      </trkpt>
      <trkpt lat="45.98276" lon="4.71531">
        <ele>197</ele>
        <time>2018-08-08T10:18:24Z</time>
      </trkpt>
      <trkpt lat="45.98273" lon="4.71528">
        <ele>197</ele>
        <time>2018-08-08T10:18:25Z</time>
      </trkpt>
      <trkpt lat="45.98266" lon="4.71525">
        <ele>197</ele>
        <time>2018-08-08T10:18:26Z</time>
      </trkpt>
      <trkpt lat="45.98261" lon="4.71522">
        <ele>197</ele>
        <time>2018-08-08T10:18:27Z</time>
      </trkpt>
      <trkpt lat="45.98257" lon="4.71518">
        <ele>197</ele>
        <time>2018-08-08T10:18:28Z</time>
      </trkpt>
      <trkpt lat="45.98251" lon="4.71516">
        <ele>197</ele>
        <time>2018-08-08T10:18:29Z</time>
      </trkpt>
      <trkpt lat="45.98245" lon="4.71512">
        <ele>196</ele>
        <time>2018-08-08T10:18:30Z</time>
      </trkpt>
      <trkpt lat="45.9824" lon="4.71507">
        <ele>196</ele>
        <time>2018-08-08T10:18:31Z</time>
      </trkpt>
      <trkpt lat="45.98233" lon="4.71504">
        <ele>196</ele>
        <time>2018-08-08T10:18:32Z</time>
      </trkpt>
      <trkpt lat="45.98228" lon="4.71502">
        <ele>196</ele>
        <time>2018-08-08T10:18:33Z</time>
      </trkpt>
      <trkpt lat="45.98223" lon="4.71499">
        <ele>197</ele>
        <time>2018-08-08T10:18:34Z</time>
      </trkpt>
      <trkpt lat="45.98218" lon="4.71496">
        <ele>197</ele>
        <time>2018-08-08T10:18:35Z</time>
      </trkpt>
      <trkpt lat="45.98212" lon="4.71494">
        <ele>197</ele>
        <time>2018-08-08T10:18:36Z</time>
      </trkpt>
      <trkpt lat="45.98206" lon="4.71493">
        <ele>197</ele>
        <time>2018-08-08T10:18:37Z</time>
      </trkpt>
      <trkpt lat="45.98198" lon="4.7149">
        <ele>197</ele>
        <time>2018-08-08T10:18:38Z</time>
      </trkpt>
      <trkpt lat="45.98193" lon="4.7149">
        <ele>197</ele>
        <time>2018-08-08T10:18:39Z</time>
      </trkpt>
      <trkpt lat="45.98187" lon="4.71489">
        <ele>197</ele>
        <time>2018-08-08T10:18:40Z</time>
      </trkpt>
      <trkpt lat="45.98182" lon="4.7149">
        <ele>197</ele>
        <time>2018-08-08T10:18:41Z</time>
      </trkpt>
      <trkpt lat="45.98177" lon="4.71491">
        <ele>197</ele>
        <time>2018-08-08T10:18:42Z</time>
      </trkpt>
      <trkpt lat="45.98171" lon="4.71493">
        <ele>197</ele>
        <time>2018-08-08T10:18:43Z</time>
      </trkpt>
      <trkpt lat="45.98167" lon="4.71495">
        <ele>197</ele>
        <time>2018-08-08T10:18:44Z</time>
      </trkpt>
      <trkpt lat="45.98161" lon="4.71497">
        <ele>197</ele>
        <time>2018-08-08T10:18:45Z</time>
      </trkpt>
      <trkpt lat="45.98159" lon="4.71506">
        <ele>197</ele>
        <time>2018-08-08T10:18:46Z</time>
      </trkpt>
      <trkpt lat="45.98155" lon="4.71509">
        <ele>197</ele>
        <time>2018-08-08T10:18:47Z</time>
      </trkpt>
      <trkpt lat="45.98149" lon="4.71512">
        <ele>197</ele>
        <time>2018-08-08T10:18:48Z</time>
      </trkpt>
      <trkpt lat="45.98141" lon="4.71515">
        <ele>197</ele>
        <time>2018-08-08T10:18:50Z</time>
      </trkpt>
      <trkpt lat="45.98135" lon="4.71518">
        <ele>197</ele>
        <time>2018-08-08T10:18:51Z</time>
      </trkpt>
      <trkpt lat="45.98127" lon="4.71522">
        <ele>197</ele>
        <time>2018-08-08T10:18:53Z</time>
      </trkpt>
      <trkpt lat="45.98121" lon="4.71524">
        <ele>197</ele>
        <time>2018-08-08T10:18:54Z</time>
      </trkpt>
      <trkpt lat="45.98116" lon="4.71527">
        <ele>197</ele>
        <time>2018-08-08T10:18:55Z</time>
      </trkpt>
      <trkpt lat="45.98109" lon="4.71525">
        <ele>197</ele>
        <time>2018-08-08T10:18:56Z</time>
      </trkpt>
      <trkpt lat="45.98103" lon="4.71525">
        <ele>197</ele>
        <time>2018-08-08T10:18:57Z</time>
      </trkpt>
      <trkpt lat="45.98098" lon="4.71531">
        <ele>198</ele>
        <time>2018-08-08T10:18:58Z</time>
      </trkpt>
      <trkpt lat="45.98093" lon="4.71541">
        <ele>197</ele>
        <time>2018-08-08T10:19:00Z</time>
      </trkpt>
      <trkpt lat="45.98087" lon="4.71544">
        <ele>198</ele>
        <time>2018-08-08T10:19:01Z</time>
      </trkpt>
      <trkpt lat="45.9808" lon="4.71545">
        <ele>198</ele>
        <time>2018-08-08T10:19:02Z</time>
      </trkpt>
      <trkpt lat="45.98076" lon="4.7155">
        <ele>198</ele>
        <time>2018-08-08T10:19:03Z</time>
      </trkpt>
      <trkpt lat="45.98071" lon="4.71554">
        <ele>198</ele>
        <time>2018-08-08T10:19:04Z</time>
      </trkpt>
      <trkpt lat="45.98069" lon="4.71561">
        <ele>198</ele>
        <time>2018-08-08T10:19:05Z</time>
      </trkpt>
      <trkpt lat="45.98066" lon="4.71566">
        <ele>198</ele>
        <time>2018-08-08T10:19:06Z</time>
      </trkpt>
      <trkpt lat="45.9806" lon="4.71571">
        <ele>198</ele>
        <time>2018-08-08T10:19:07Z</time>
      </trkpt>
      <trkpt lat="45.98054" lon="4.71576">
        <ele>198</ele>
        <time>2018-08-08T10:19:08Z</time>
      </trkpt>
      <trkpt lat="45.98049" lon="4.7158">
        <ele>198</ele>
        <time>2018-08-08T10:19:09Z</time>
      </trkpt>
      <trkpt lat="45.98044" lon="4.71583">
        <ele>198</ele>
        <time>2018-08-08T10:19:10Z</time>
      </trkpt>
      <trkpt lat="45.9804" lon="4.71588">
        <ele>198</ele>
        <time>2018-08-08T10:19:11Z</time>
      </trkpt>
      <trkpt lat="45.98035" lon="4.71591">
        <ele>198</ele>
        <time>2018-08-08T10:19:12Z</time>
      </trkpt>
      <trkpt lat="45.98032" lon="4.71595">
        <ele>198</ele>
        <time>2018-08-08T10:19:13Z</time>
      </trkpt>
      <trkpt lat="45.98025" lon="4.71598">
        <ele>198</ele>
        <time>2018-08-08T10:19:14Z</time>
      </trkpt>
      <trkpt lat="45.9802" lon="4.71602">
        <ele>198</ele>
        <time>2018-08-08T10:19:15Z</time>
      </trkpt>
      <trkpt lat="45.98012" lon="4.71603">
        <ele>198</ele>
        <time>2018-08-08T10:19:16Z</time>
      </trkpt>
      <trkpt lat="45.98009" lon="4.71607">
        <ele>198</ele>
        <time>2018-08-08T10:19:17Z</time>
      </trkpt>
      <trkpt lat="45.98006" lon="4.71612">
        <ele>198</ele>
        <time>2018-08-08T10:19:18Z</time>
      </trkpt>
      <trkpt lat="45.97997" lon="4.71613">
        <ele>198</ele>
        <time>2018-08-08T10:19:19Z</time>
      </trkpt>
      <trkpt lat="45.97994" lon="4.71616">
        <ele>198</ele>
        <time>2018-08-08T10:19:20Z</time>
      </trkpt>
      <trkpt lat="45.97989" lon="4.71621">
        <ele>197</ele>
        <time>2018-08-08T10:19:21Z</time>
      </trkpt>
      <trkpt lat="45.97982" lon="4.71628">
        <ele>197</ele>
        <time>2018-08-08T10:19:23Z</time>
      </trkpt>
      <trkpt lat="45.97977" lon="4.71633">
        <ele>197</ele>
        <time>2018-08-08T10:19:24Z</time>
      </trkpt>
      <trkpt lat="45.9797" lon="4.71636">
        <ele>197</ele>
        <time>2018-08-08T10:19:25Z</time>
      </trkpt>
      <trkpt lat="45.97964" lon="4.71641">
        <ele>197</ele>
        <time>2018-08-08T10:19:26Z</time>
      </trkpt>
      <trkpt lat="45.97961" lon="4.71646">
        <ele>197</ele>
        <time>2018-08-08T10:19:27Z</time>
      </trkpt>
      <trkpt lat="45.97956" lon="4.7165">
        <ele>197</ele>
        <time>2018-08-08T10:19:28Z</time>
      </trkpt>
      <trkpt lat="45.97951" lon="4.71655">
        <ele>197</ele>
        <time>2018-08-08T10:19:29Z</time>
      </trkpt>
      <trkpt lat="45.97947" lon="4.71658">
        <ele>197</ele>
        <time>2018-08-08T10:19:30Z</time>
      </trkpt>
      <trkpt lat="45.97941" lon="4.71661">
        <ele>197</ele>
        <time>2018-08-08T10:19:31Z</time>
      </trkpt>
      <trkpt lat="45.97935" lon="4.71664">
        <ele>197</ele>
        <time>2018-08-08T10:19:32Z</time>
      </trkpt>
      <trkpt lat="45.97928" lon="4.71664">
        <ele>197</ele>
        <time>2018-08-08T10:19:33Z</time>
      </trkpt>
      <trkpt lat="45.97924" lon="4.71668">
        <ele>197</ele>
        <time>2018-08-08T10:19:34Z</time>
      </trkpt>
      <trkpt lat="45.97916" lon="4.71672">
        <ele>197</ele>
        <time>2018-08-08T10:19:35Z</time>
      </trkpt>
      <trkpt lat="45.97911" lon="4.71675">
        <ele>197</ele>
        <time>2018-08-08T10:19:36Z</time>
      </trkpt>
      <trkpt lat="45.97906" lon="4.71677">
        <ele>197</ele>
        <time>2018-08-08T10:19:37Z</time>
      </trkpt>
      <trkpt lat="45.97901" lon="4.71683">
        <ele>196</ele>
        <time>2018-08-08T10:19:38Z</time>
      </trkpt>
      <trkpt lat="45.97894" lon="4.71686">
        <ele>196</ele>
        <time>2018-08-08T10:19:39Z</time>
      </trkpt>
      <trkpt lat="45.97891" lon="4.71697">
        <ele>196</ele>
        <time>2018-08-08T10:19:40Z</time>
      </trkpt>
      <trkpt lat="45.97888" lon="4.71701">
        <ele>196</ele>
        <time>2018-08-08T10:19:41Z</time>
      </trkpt>
      <trkpt lat="45.97884" lon="4.71705">
        <ele>196</ele>
        <time>2018-08-08T10:19:42Z</time>
      </trkpt>
      <trkpt lat="45.9788" lon="4.71705">
        <ele>196</ele>
        <time>2018-08-08T10:19:43Z</time>
      </trkpt>
      <trkpt lat="45.97875" lon="4.71707">
        <ele>196</ele>
        <time>2018-08-08T10:19:44Z</time>
      </trkpt>
      <trkpt lat="45.97868" lon="4.71705">
        <ele>196</ele>
        <time>2018-08-08T10:19:45Z</time>
      </trkpt>
      <trkpt lat="45.97864" lon="4.71709">
        <ele>196</ele>
        <time>2018-08-08T10:19:46Z</time>
      </trkpt>
      <trkpt lat="45.97859" lon="4.71715">
        <ele>196</ele>
        <time>2018-08-08T10:19:47Z</time>
      </trkpt>
      <trkpt lat="45.97857" lon="4.71723">
        <ele>196</ele>
        <time>2018-08-08T10:19:48Z</time>
      </trkpt>
      <trkpt lat="45.97854" lon="4.7173">
        <ele>196</ele>
        <time>2018-08-08T10:19:49Z</time>
      </trkpt>
      <trkpt lat="45.9785" lon="4.71736">
        <ele>196</ele>
        <time>2018-08-08T10:19:50Z</time>
      </trkpt>
      <trkpt lat="45.97845" lon="4.7174">
        <ele>195</ele>
        <time>2018-08-08T10:19:51Z</time>
      </trkpt>
      <trkpt lat="45.97839" lon="4.71741">
        <ele>195</ele>
        <time>2018-08-08T10:19:52Z</time>
      </trkpt>
      <trkpt lat="45.97835" lon="4.71741">
        <ele>195</ele>
        <time>2018-08-08T10:19:53Z</time>
      </trkpt>
      <trkpt lat="45.97828" lon="4.71739">
        <ele>196</ele>
        <time>2018-08-08T10:19:54Z</time>
      </trkpt>
      <trkpt lat="45.97822" lon="4.71739">
        <ele>196</ele>
        <time>2018-08-08T10:19:55Z</time>
      </trkpt>
      <trkpt lat="45.97816" lon="4.71739">
        <ele>196</ele>
        <time>2018-08-08T10:19:56Z</time>
      </trkpt>
      <trkpt lat="45.97811" lon="4.71741">
        <ele>196</ele>
        <time>2018-08-08T10:19:57Z</time>
      </trkpt>
      <trkpt lat="45.97805" lon="4.7174">
        <ele>196</ele>
        <time>2018-08-08T10:19:58Z</time>
      </trkpt>
      <trkpt lat="45.97798" lon="4.71739">
        <ele>196</ele>
        <time>2018-08-08T10:19:59Z</time>
      </trkpt>
      <trkpt lat="45.97792" lon="4.71739">
        <ele>196</ele>
        <time>2018-08-08T10:20:00Z</time>
      </trkpt>
      <trkpt lat="45.97786" lon="4.71736">
        <ele>196</ele>
        <time>2018-08-08T10:20:01Z</time>
      </trkpt>
      <trkpt lat="45.97782" lon="4.71736">
        <ele>196</ele>
        <time>2018-08-08T10:20:02Z</time>
      </trkpt>
      <trkpt lat="45.97777" lon="4.71734">
        <ele>196</ele>
        <time>2018-08-08T10:20:03Z</time>
      </trkpt>
      <trkpt lat="45.97773" lon="4.71733">
        <ele>196</ele>
        <time>2018-08-08T10:20:04Z</time>
      </trkpt>
      <trkpt lat="45.97764" lon="4.71733">
        <ele>196</ele>
        <time>2018-08-08T10:20:07Z</time>
      </trkpt>
      <trkpt lat="45.9776" lon="4.71732">
        <ele>196</ele>
        <time>2018-08-08T10:20:08Z</time>
      </trkpt>
      <trkpt lat="45.97753" lon="4.71733">
        <ele>196</ele>
        <time>2018-08-08T10:20:09Z</time>
      </trkpt>
      <trkpt lat="45.97748" lon="4.71731">
        <ele>196</ele>
        <time>2018-08-08T10:20:10Z</time>
      </trkpt>
      <trkpt lat="45.97742" lon="4.71731">
        <ele>196</ele>
        <time>2018-08-08T10:20:11Z</time>
      </trkpt>
      <trkpt lat="45.97736" lon="4.7173">
        <ele>196</ele>
        <time>2018-08-08T10:20:12Z</time>
      </trkpt>
      <trkpt lat="45.97731" lon="4.7173">
        <ele>196</ele>
        <time>2018-08-08T10:20:13Z</time>
      </trkpt>
      <trkpt lat="45.97724" lon="4.71728">
        <ele>196</ele>
        <time>2018-08-08T10:20:14Z</time>
      </trkpt>
      <trkpt lat="45.97717" lon="4.71727">
        <ele>196</ele>
        <time>2018-08-08T10:20:15Z</time>
      </trkpt>
      <trkpt lat="45.97713" lon="4.71726">
        <ele>196</ele>
        <time>2018-08-08T10:20:16Z</time>
      </trkpt>
      <trkpt lat="45.97709" lon="4.71727">
        <ele>196</ele>
        <time>2018-08-08T10:20:17Z</time>
      </trkpt>
      <trkpt lat="45.97704" lon="4.71726">
        <ele>196</ele>
        <time>2018-08-08T10:20:18Z</time>
      </trkpt>
      <trkpt lat="45.97695" lon="4.71726">
        <ele>196</ele>
        <time>2018-08-08T10:20:20Z</time>
      </trkpt>
      <trkpt lat="45.97687" lon="4.71725">
        <ele>196</ele>
        <time>2018-08-08T10:20:21Z</time>
      </trkpt>
      <trkpt lat="45.97683" lon="4.71725">
        <ele>196</ele>
        <time>2018-08-08T10:20:22Z</time>
      </trkpt>
      <trkpt lat="45.97675" lon="4.71723">
        <ele>196</ele>
        <time>2018-08-08T10:20:23Z</time>
      </trkpt>
      <trkpt lat="45.97669" lon="4.71722">
        <ele>196</ele>
        <time>2018-08-08T10:20:24Z</time>
      </trkpt>
      <trkpt lat="45.97664" lon="4.71721">
        <ele>196</ele>
        <time>2018-08-08T10:20:25Z</time>
      </trkpt>
      <trkpt lat="45.9766" lon="4.71721">
        <ele>196</ele>
        <time>2018-08-08T10:20:26Z</time>
      </trkpt>
      <trkpt lat="45.97654" lon="4.71719">
        <ele>196</ele>
        <time>2018-08-08T10:20:27Z</time>
      </trkpt>
      <trkpt lat="45.97647" lon="4.71714">
        <ele>197</ele>
        <time>2018-08-08T10:20:30Z</time>
      </trkpt>
      <trkpt lat="45.97643" lon="4.7171">
        <ele>197</ele>
        <time>2018-08-08T10:20:31Z</time>
      </trkpt>
      <trkpt lat="45.97635" lon="4.71704">
        <ele>197</ele>
        <time>2018-08-08T10:20:33Z</time>
      </trkpt>
      <trkpt lat="45.9763" lon="4.71704">
        <ele>197</ele>
        <time>2018-08-08T10:20:34Z</time>
      </trkpt>
      <trkpt lat="45.97624" lon="4.71704">
        <ele>197</ele>
        <time>2018-08-08T10:20:35Z</time>
      </trkpt>
      <trkpt lat="45.97618" lon="4.71706">
        <ele>197</ele>
        <time>2018-08-08T10:20:36Z</time>
      </trkpt>
      <trkpt lat="45.97613" lon="4.71707">
        <ele>197</ele>
        <time>2018-08-08T10:20:37Z</time>
      </trkpt>
      <trkpt lat="45.97608" lon="4.7171">
        <ele>197</ele>
        <time>2018-08-08T10:20:38Z</time>
      </trkpt>
      <trkpt lat="45.97604" lon="4.71714">
        <ele>197</ele>
        <time>2018-08-08T10:20:39Z</time>
      </trkpt>
      <trkpt lat="45.976" lon="4.71716">
        <ele>197</ele>
        <time>2018-08-08T10:20:40Z</time>
      </trkpt>
      <trkpt lat="45.97592" lon="4.71718">
        <ele>197</ele>
        <time>2018-08-08T10:20:42Z</time>
      </trkpt>
      <trkpt lat="45.97586" lon="4.71718">
        <ele>197</ele>
        <time>2018-08-08T10:20:43Z</time>
      </trkpt>
      <trkpt lat="45.97579" lon="4.71717">
        <ele>198</ele>
        <time>2018-08-08T10:20:44Z</time>
      </trkpt>
      <trkpt lat="45.97573" lon="4.71717">
        <ele>198</ele>
        <time>2018-08-08T10:20:45Z</time>
      </trkpt>
      <trkpt lat="45.97566" lon="4.71715">
        <ele>198</ele>
        <time>2018-08-08T10:20:46Z</time>
      </trkpt>
      <trkpt lat="45.97559" lon="4.71714">
        <ele>198</ele>
        <time>2018-08-08T10:20:47Z</time>
      </trkpt>
      <trkpt lat="45.97553" lon="4.71713">
        <ele>198</ele>
        <time>2018-08-08T10:20:48Z</time>
      </trkpt>
      <trkpt lat="45.97549" lon="4.71715">
        <ele>198</ele>
        <time>2018-08-08T10:20:49Z</time>
      </trkpt>
      <trkpt lat="45.97544" lon="4.71716">
        <ele>198</ele>
        <time>2018-08-08T10:20:50Z</time>
      </trkpt>
      <trkpt lat="45.97539" lon="4.71716">
        <ele>198</ele>
        <time>2018-08-08T10:20:51Z</time>
      </trkpt>
      <trkpt lat="45.97534" lon="4.71716">
        <ele>198</ele>
        <time>2018-08-08T10:20:52Z</time>
      </trkpt>
      <trkpt lat="45.97529" lon="4.71715">
        <ele>198</ele>
        <time>2018-08-08T10:20:53Z</time>
      </trkpt>
      <trkpt lat="45.9752" lon="4.71714">
        <ele>198</ele>
        <time>2018-08-08T10:20:55Z</time>
      </trkpt>
      <trkpt lat="45.97514" lon="4.71714">
        <ele>198</ele>
        <time>2018-08-08T10:20:56Z</time>
      </trkpt>
      <trkpt lat="45.9751" lon="4.71713">
        <ele>199</ele>
        <time>2018-08-08T10:20:57Z</time>
      </trkpt>
      <trkpt lat="45.97504" lon="4.71714">
        <ele>199</ele>
        <time>2018-08-08T10:20:58Z</time>
      </trkpt>
      <trkpt lat="45.97498" lon="4.71713">
        <ele>198</ele>
        <time>2018-08-08T10:20:59Z</time>
      </trkpt>
      <trkpt lat="45.97493" lon="4.71711">
        <ele>198</ele>
        <time>2018-08-08T10:21:00Z</time>
      </trkpt>
      <trkpt lat="45.97487" lon="4.71711">
        <ele>198</ele>
        <time>2018-08-08T10:21:01Z</time>
      </trkpt>
      <trkpt lat="45.9748" lon="4.71711">
        <ele>198</ele>
        <time>2018-08-08T10:21:02Z</time>
      </trkpt>
      <trkpt lat="45.97475" lon="4.71711">
        <ele>198</ele>
        <time>2018-08-08T10:21:03Z</time>
      </trkpt>
      <trkpt lat="45.97469" lon="4.71708">
        <ele>198</ele>
        <time>2018-08-08T10:21:04Z</time>
      </trkpt>
      <trkpt lat="45.97463" lon="4.71707">
        <ele>197</ele>
        <time>2018-08-08T10:21:05Z</time>
      </trkpt>
      <trkpt lat="45.97458" lon="4.71708">
        <ele>197</ele>
        <time>2018-08-08T10:21:06Z</time>
      </trkpt>
      <trkpt lat="45.97452" lon="4.71707">
        <ele>197</ele>
        <time>2018-08-08T10:21:07Z</time>
      </trkpt>
      <trkpt lat="45.97447" lon="4.71707">
        <ele>197</ele>
        <time>2018-08-08T10:21:08Z</time>
      </trkpt>
      <trkpt lat="45.97443" lon="4.71707">
        <ele>197</ele>
        <time>2018-08-08T10:21:09Z</time>
      </trkpt>
      <trkpt lat="45.97437" lon="4.71706">
        <ele>197</ele>
        <time>2018-08-08T10:21:10Z</time>
      </trkpt>
      <trkpt lat="45.97432" lon="4.71706">
        <ele>197</ele>
        <time>2018-08-08T10:21:11Z</time>
      </trkpt>
      <trkpt lat="45.97428" lon="4.71707">
        <ele>197</ele>
        <time>2018-08-08T10:21:12Z</time>
      </trkpt>
      <trkpt lat="45.97422" lon="4.71706">
        <ele>197</ele>
        <time>2018-08-08T10:21:13Z</time>
      </trkpt>
      <trkpt lat="45.97417" lon="4.71705">
        <ele>197</ele>
        <time>2018-08-08T10:21:14Z</time>
      </trkpt>
      <trkpt lat="45.97412" lon="4.71706">
        <ele>195</ele>
        <time>2018-08-08T10:21:15Z</time>
      </trkpt>
      <trkpt lat="45.97408" lon="4.71706">
        <ele>195</ele>
        <time>2018-08-08T10:21:16Z</time>
      </trkpt>
      <trkpt lat="45.97403" lon="4.71705">
        <ele>195</ele>
        <time>2018-08-08T10:21:17Z</time>
      </trkpt>
      <trkpt lat="45.97398" lon="4.71704">
        <ele>195</ele>
        <time>2018-08-08T10:21:18Z</time>
      </trkpt>
      <trkpt lat="45.97393" lon="4.71705">
        <ele>195</ele>
        <time>2018-08-08T10:21:19Z</time>
      </trkpt>
      <trkpt lat="45.97388" lon="4.71703">
        <ele>195</ele>
        <time>2018-08-08T10:21:20Z</time>
      </trkpt>
      <trkpt lat="45.97382" lon="4.71703">
        <ele>195</ele>
        <time>2018-08-08T10:21:21Z</time>
      </trkpt>
      <trkpt lat="45.97376" lon="4.71702">
        <ele>195</ele>
        <time>2018-08-08T10:21:22Z</time>
      </trkpt>
      <trkpt lat="45.97371" lon="4.71701">
        <ele>195</ele>
        <time>2018-08-08T10:21:23Z</time>
      </trkpt>
      <trkpt lat="45.97366" lon="4.71701">
        <ele>195</ele>
        <time>2018-08-08T10:21:24Z</time>
      </trkpt>
      <trkpt lat="45.97363" lon="4.71701">
        <ele>195</ele>
        <time>2018-08-08T10:21:25Z</time>
      </trkpt>
      <trkpt lat="45.97357" lon="4.71701">
        <ele>195</ele>
        <time>2018-08-08T10:21:26Z</time>
      </trkpt>
      <trkpt lat="45.97348" lon="4.717">
        <ele>196</ele>
        <time>2018-08-08T10:21:28Z</time>
      </trkpt>
      <trkpt lat="45.97341" lon="4.71698">
        <ele>196</ele>
        <time>2018-08-08T10:21:29Z</time>
      </trkpt>
      <trkpt lat="45.97335" lon="4.71698">
        <ele>196</ele>
        <time>2018-08-08T10:21:30Z</time>
      </trkpt>
      <trkpt lat="45.97329" lon="4.71698">
        <ele>196</ele>
        <time>2018-08-08T10:21:31Z</time>
      </trkpt>
      <trkpt lat="45.97324" lon="4.71695">
        <ele>196</ele>
        <time>2018-08-08T10:21:32Z</time>
      </trkpt>
      <trkpt lat="45.9732" lon="4.71693">
        <ele>196</ele>
        <time>2018-08-08T10:21:33Z</time>
      </trkpt>
      <trkpt lat="45.97315" lon="4.71688">
        <ele>196</ele>
        <time>2018-08-08T10:21:34Z</time>
      </trkpt>
      <trkpt lat="45.97309" lon="4.71686">
        <ele>197</ele>
        <time>2018-08-08T10:21:35Z</time>
      </trkpt>
      <trkpt lat="45.97302" lon="4.71687">
        <ele>197</ele>
        <time>2018-08-08T10:21:36Z</time>
      </trkpt>
      <trkpt lat="45.97295" lon="4.71689">
        <ele>197</ele>
        <time>2018-08-08T10:21:37Z</time>
      </trkpt>
      <trkpt lat="45.97289" lon="4.71691">
        <ele>197</ele>
        <time>2018-08-08T10:21:38Z</time>
      </trkpt>
      <trkpt lat="45.97281" lon="4.71691">
        <ele>197</ele>
        <time>2018-08-08T10:21:39Z</time>
      </trkpt>
      <trkpt lat="45.97275" lon="4.71692">
        <ele>197</ele>
        <time>2018-08-08T10:21:40Z</time>
      </trkpt>
      <trkpt lat="45.97269" lon="4.71689">
        <ele>197</ele>
        <time>2018-08-08T10:21:41Z</time>
      </trkpt>
      <trkpt lat="45.97264" lon="4.71689">
        <ele>197</ele>
        <time>2018-08-08T10:21:42Z</time>
      </trkpt>
      <trkpt lat="45.97259" lon="4.71689">
        <ele>197</ele>
        <time>2018-08-08T10:21:43Z</time>
      </trkpt>
      <trkpt lat="45.97252" lon="4.71687">
        <ele>197</ele>
        <time>2018-08-08T10:21:44Z</time>
      </trkpt>
      <trkpt lat="45.97246" lon="4.71685">
        <ele>198</ele>
        <time>2018-08-08T10:21:45Z</time>
      </trkpt>
      <trkpt lat="45.97242" lon="4.71686">
        <ele>197</ele>
        <time>2018-08-08T10:21:46Z</time>
      </trkpt>
      <trkpt lat="45.97236" lon="4.71685">
        <ele>197</ele>
        <time>2018-08-08T10:21:47Z</time>
      </trkpt>
      <trkpt lat="45.97229" lon="4.71688">
        <ele>197</ele>
        <time>2018-08-08T10:21:49Z</time>
      </trkpt>
      <trkpt lat="45.97222" lon="4.71688">
        <ele>197</ele>
        <time>2018-08-08T10:21:50Z</time>
      </trkpt>
      <trkpt lat="45.97214" lon="4.71686">
        <ele>197</ele>
        <time>2018-08-08T10:21:51Z</time>
      </trkpt>
      <trkpt lat="45.97211" lon="4.71689">
        <ele>197</ele>
        <time>2018-08-08T10:21:52Z</time>
      </trkpt>
      <trkpt lat="45.97204" lon="4.71688">
        <ele>197</ele>
        <time>2018-08-08T10:21:53Z</time>
      </trkpt>
      <trkpt lat="45.97198" lon="4.71689">
        <ele>197</ele>
        <time>2018-08-08T10:21:54Z</time>
      </trkpt>
      <trkpt lat="45.9719" lon="4.71689">
        <ele>197</ele>
        <time>2018-08-08T10:21:55Z</time>
      </trkpt>
      <trkpt lat="45.97185" lon="4.71687">
        <ele>197</ele>
        <time>2018-08-08T10:21:56Z</time>
      </trkpt>
      <trkpt lat="45.97181" lon="4.71685">
        <ele>197</ele>
        <time>2018-08-08T10:21:57Z</time>
      </trkpt>
      <trkpt lat="45.97174" lon="4.71685">
        <ele>197</ele>
        <time>2018-08-08T10:21:58Z</time>
      </trkpt>
      <trkpt lat="45.97168" lon="4.71685">
        <ele>197</ele>
        <time>2018-08-08T10:21:59Z</time>
      </trkpt>
      <trkpt lat="45.97158" lon="4.71683">
        <ele>196</ele>
        <time>2018-08-08T10:22:00Z</time>
      </trkpt>
      <trkpt lat="45.97151" lon="4.71683">
        <ele>196</ele>
        <time>2018-08-08T10:22:01Z</time>
      </trkpt>
      <trkpt lat="45.97143" lon="4.71683">
        <ele>195</ele>
        <time>2018-08-08T10:22:02Z</time>
      </trkpt>
      <trkpt lat="45.97136" lon="4.71683">
        <ele>195</ele>
        <time>2018-08-08T10:22:03Z</time>
      </trkpt>
      <trkpt lat="45.97128" lon="4.71681">
        <ele>195</ele>
        <time>2018-08-08T10:22:04Z</time>
      </trkpt>
      <trkpt lat="45.97124" lon="4.71683">
        <ele>195</ele>
        <time>2018-08-08T10:22:05Z</time>
      </trkpt>
      <trkpt lat="45.97118" lon="4.71683">
        <ele>195</ele>
        <time>2018-08-08T10:22:06Z</time>
      </trkpt>
      <trkpt lat="45.9711" lon="4.71683">
        <ele>194</ele>
        <time>2018-08-08T10:22:07Z</time>
      </trkpt>
      <trkpt lat="45.97103" lon="4.71683">
        <ele>194</ele>
        <time>2018-08-08T10:22:08Z</time>
      </trkpt>
      <trkpt lat="45.97096" lon="4.71681">
        <ele>194</ele>
        <time>2018-08-08T10:22:09Z</time>
      </trkpt>
      <trkpt lat="45.9709" lon="4.7168">
        <ele>195</ele>
        <time>2018-08-08T10:22:10Z</time>
      </trkpt>
      <trkpt lat="45.97082" lon="4.71679">
        <ele>194</ele>
        <time>2018-08-08T10:22:11Z</time>
      </trkpt>
      <trkpt lat="45.97079" lon="4.7168">
        <ele>194</ele>
        <time>2018-08-08T10:22:12Z</time>
      </trkpt>
      <trkpt lat="45.9707" lon="4.71679">
        <ele>193</ele>
        <time>2018-08-08T10:22:14Z</time>
      </trkpt>
      <trkpt lat="45.97062" lon="4.71678">
        <ele>193</ele>
        <time>2018-08-08T10:22:15Z</time>
      </trkpt>
      <trkpt lat="45.97056" lon="4.71676">
        <ele>193</ele>
        <time>2018-08-08T10:22:16Z</time>
      </trkpt>
      <trkpt lat="45.97046" lon="4.71673">
        <ele>193</ele>
        <time>2018-08-08T10:22:17Z</time>
      </trkpt>
      <trkpt lat="45.97039" lon="4.71671">
        <ele>193</ele>
        <time>2018-08-08T10:22:18Z</time>
      </trkpt>
      <trkpt lat="45.97031" lon="4.71671">
        <ele>193</ele>
        <time>2018-08-08T10:22:19Z</time>
      </trkpt>
      <trkpt lat="45.97024" lon="4.71673">
        <ele>193</ele>
        <time>2018-08-08T10:22:21Z</time>
      </trkpt>
      <trkpt lat="45.97017" lon="4.71672">
        <ele>193</ele>
        <time>2018-08-08T10:22:22Z</time>
      </trkpt>
      <trkpt lat="45.97011" lon="4.71672">
        <ele>193</ele>
        <time>2018-08-08T10:22:23Z</time>
      </trkpt>
      <trkpt lat="45.97007" lon="4.71672">
        <ele>193</ele>
        <time>2018-08-08T10:22:24Z</time>
      </trkpt>
      <trkpt lat="45.97" lon="4.71672">
        <ele>194</ele>
        <time>2018-08-08T10:22:25Z</time>
      </trkpt>
      <trkpt lat="45.96992" lon="4.71672">
        <ele>193</ele>
        <time>2018-08-08T10:22:26Z</time>
      </trkpt>
      <trkpt lat="45.96985" lon="4.71671">
        <ele>193</ele>
        <time>2018-08-08T10:22:27Z</time>
      </trkpt>
      <trkpt lat="45.96976" lon="4.71671">
        <ele>192</ele>
        <time>2018-08-08T10:22:28Z</time>
      </trkpt>
      <trkpt lat="45.96972" lon="4.71674">
        <ele>192</ele>
        <time>2018-08-08T10:22:29Z</time>
      </trkpt>
      <trkpt lat="45.96966" lon="4.71673">
        <ele>192</ele>
        <time>2018-08-08T10:22:30Z</time>
      </trkpt>
      <trkpt lat="45.96959" lon="4.71673">
        <ele>192</ele>
        <time>2018-08-08T10:22:31Z</time>
      </trkpt>
      <trkpt lat="45.96951" lon="4.71671">
        <ele>192</ele>
        <time>2018-08-08T10:22:32Z</time>
      </trkpt>
      <trkpt lat="45.96942" lon="4.71668">
        <ele>192</ele>
        <time>2018-08-08T10:22:33Z</time>
      </trkpt>
      <trkpt lat="45.96934" lon="4.71665">
        <ele>195</ele>
        <time>2018-08-08T10:22:34Z</time>
      </trkpt>
      <trkpt lat="45.96927" lon="4.71664">
        <ele>195</ele>
        <time>2018-08-08T10:22:35Z</time>
      </trkpt>
      <trkpt lat="45.96921" lon="4.71664">
        <ele>195</ele>
        <time>2018-08-08T10:22:36Z</time>
      </trkpt>
      <trkpt lat="45.96916" lon="4.71663">
        <ele>195</ele>
        <time>2018-08-08T10:22:37Z</time>
      </trkpt>
      <trkpt lat="45.9691" lon="4.71663">
        <ele>195</ele>
        <time>2018-08-08T10:22:38Z</time>
      </trkpt>
      <trkpt lat="45.96904" lon="4.71662">
        <ele>195</ele>
        <time>2018-08-08T10:22:39Z</time>
      </trkpt>
      <trkpt lat="45.96897" lon="4.71661">
        <ele>195</ele>
        <time>2018-08-08T10:22:40Z</time>
      </trkpt>
      <trkpt lat="45.9689" lon="4.71661">
        <ele>195</ele>
        <time>2018-08-08T10:22:41Z</time>
      </trkpt>
      <trkpt lat="45.96882" lon="4.7166">
        <ele>195</ele>
        <time>2018-08-08T10:22:42Z</time>
      </trkpt>
      <trkpt lat="45.96875" lon="4.71658">
        <ele>195</ele>
        <time>2018-08-08T10:22:43Z</time>
      </trkpt>
      <trkpt lat="45.96869" lon="4.71657">
        <ele>195</ele>
        <time>2018-08-08T10:22:44Z</time>
      </trkpt>
      <trkpt lat="45.96861" lon="4.71656">
        <ele>195</ele>
        <time>2018-08-08T10:22:45Z</time>
      </trkpt>
      <trkpt lat="45.96854" lon="4.71653">
        <ele>194</ele>
        <time>2018-08-08T10:22:46Z</time>
      </trkpt>
      <trkpt lat="45.96848" lon="4.71651">
        <ele>194</ele>
        <time>2018-08-08T10:22:47Z</time>
      </trkpt>
      <trkpt lat="45.9684" lon="4.7165">
        <ele>194</ele>
        <time>2018-08-08T10:22:48Z</time>
      </trkpt>
      <trkpt lat="45.96833" lon="4.7165">
        <ele>193</ele>
        <time>2018-08-08T10:22:49Z</time>
      </trkpt>
      <trkpt lat="45.96825" lon="4.71648">
        <ele>193</ele>
        <time>2018-08-08T10:22:50Z</time>
      </trkpt>
      <trkpt lat="45.96822" lon="4.71649">
        <ele>193</ele>
        <time>2018-08-08T10:22:51Z</time>
      </trkpt>
      <trkpt lat="45.96813" lon="4.71649">
        <ele>193</ele>
        <time>2018-08-08T10:22:52Z</time>
      </trkpt>
      <trkpt lat="45.96807" lon="4.71647">
        <ele>193</ele>
        <time>2018-08-08T10:22:53Z</time>
      </trkpt>
      <trkpt lat="45.96802" lon="4.71648">
        <ele>193</ele>
        <time>2018-08-08T10:22:54Z</time>
      </trkpt>
      <trkpt lat="45.96796" lon="4.71646">
        <ele>193</ele>
        <time>2018-08-08T10:22:55Z</time>
      </trkpt>
      <trkpt lat="45.96789" lon="4.71646">
        <ele>193</ele>
        <time>2018-08-08T10:22:56Z</time>
      </trkpt>
      <trkpt lat="45.96783" lon="4.71646">
        <ele>192</ele>
        <time>2018-08-08T10:22:57Z</time>
      </trkpt>
      <trkpt lat="45.96775" lon="4.71646">
        <ele>192</ele>
        <time>2018-08-08T10:22:58Z</time>
      </trkpt>
      <trkpt lat="45.96768" lon="4.71645">
        <ele>192</ele>
        <time>2018-08-08T10:22:59Z</time>
      </trkpt>
      <trkpt lat="45.96761" lon="4.71643">
        <ele>192</ele>
        <time>2018-08-08T10:23:00Z</time>
      </trkpt>
      <trkpt lat="45.96754" lon="4.71642">
        <ele>192</ele>
        <time>2018-08-08T10:23:01Z</time>
      </trkpt>
      <trkpt lat="45.96747" lon="4.71641">
        <ele>190</ele>
        <time>2018-08-08T10:23:02Z</time>
      </trkpt>
      <trkpt lat="45.96739" lon="4.7164">
        <ele>190</ele>
        <time>2018-08-08T10:23:03Z</time>
      </trkpt>
      <trkpt lat="45.96731" lon="4.71639">
        <ele>190</ele>
        <time>2018-08-08T10:23:04Z</time>
      </trkpt>
      <trkpt lat="45.96725" lon="4.71638">
        <ele>190</ele>
        <time>2018-08-08T10:23:05Z</time>
      </trkpt>
      <trkpt lat="45.96718" lon="4.71636">
        <ele>190</ele>
        <time>2018-08-08T10:23:06Z</time>
      </trkpt>
      <trkpt lat="45.96713" lon="4.71637">
        <ele>190</ele>
        <time>2018-08-08T10:23:07Z</time>
      </trkpt>
      <trkpt lat="45.96707" lon="4.71636">
        <ele>190</ele>
        <time>2018-08-08T10:23:08Z</time>
      </trkpt>
      <trkpt lat="45.967" lon="4.71635">
        <ele>190</ele>
        <time>2018-08-08T10:23:09Z</time>
      </trkpt>
      <trkpt lat="45.96693" lon="4.71634">
        <ele>190</ele>
        <time>2018-08-08T10:23:10Z</time>
      </trkpt>
      <trkpt lat="45.96686" lon="4.71634">
        <ele>190</ele>
        <time>2018-08-08T10:23:11Z</time>
      </trkpt>
      <trkpt lat="45.9668" lon="4.71634">
        <ele>190</ele>
        <time>2018-08-08T10:23:12Z</time>
      </trkpt>
      <trkpt lat="45.96672" lon="4.71632">
        <ele>190</ele>
        <time>2018-08-08T10:23:13Z</time>
      </trkpt>
      <trkpt lat="45.96666" lon="4.7163">
        <ele>188</ele>
        <time>2018-08-08T10:23:14Z</time>
      </trkpt>
      <trkpt lat="45.96659" lon="4.71628">
        <ele>188</ele>
        <time>2018-08-08T10:23:15Z</time>
      </trkpt>
      <trkpt lat="45.96651" lon="4.71627">
        <ele>188</ele>
        <time>2018-08-08T10:23:16Z</time>
      </trkpt>
      <trkpt lat="45.96644" lon="4.71627">
        <ele>188</ele>
        <time>2018-08-08T10:23:17Z</time>
      </trkpt>
      <trkpt lat="45.96638" lon="4.71627">
        <ele>188</ele>
        <time>2018-08-08T10:23:18Z</time>
      </trkpt>
      <trkpt lat="45.9663" lon="4.71624">
        <ele>188</ele>
        <time>2018-08-08T10:23:19Z</time>
      </trkpt>
      <trkpt lat="45.96624" lon="4.71623">
        <ele>188</ele>
        <time>2018-08-08T10:23:20Z</time>
      </trkpt>
      <trkpt lat="45.96617" lon="4.71621">
        <ele>188</ele>
        <time>2018-08-08T10:23:21Z</time>
      </trkpt>
      <trkpt lat="45.9661" lon="4.71619">
        <ele>188</ele>
        <time>2018-08-08T10:23:22Z</time>
      </trkpt>
      <trkpt lat="45.96605" lon="4.71619">
        <ele>188</ele>
        <time>2018-08-08T10:23:23Z</time>
      </trkpt>
      <trkpt lat="45.96598" lon="4.71617">
        <ele>188</ele>
        <time>2018-08-08T10:23:24Z</time>
      </trkpt>
      <trkpt lat="45.96591" lon="4.71616">
        <ele>188</ele>
        <time>2018-08-08T10:23:25Z</time>
      </trkpt>
      <trkpt lat="45.96584" lon="4.71614">
        <ele>188</ele>
        <time>2018-08-08T10:23:26Z</time>
      </trkpt>
      <trkpt lat="45.96578" lon="4.71613">
        <ele>186</ele>
        <time>2018-08-08T10:23:27Z</time>
      </trkpt>
      <trkpt lat="45.96572" lon="4.71612">
        <ele>186</ele>
        <time>2018-08-08T10:23:28Z</time>
      </trkpt>
      <trkpt lat="45.96567" lon="4.71614">
        <ele>185</ele>
        <time>2018-08-08T10:23:29Z</time>
      </trkpt>
      <trkpt lat="45.96561" lon="4.71612">
        <ele>185</ele>
        <time>2018-08-08T10:23:30Z</time>
      </trkpt>
      <trkpt lat="45.96556" lon="4.7161">
        <ele>185</ele>
        <time>2018-08-08T10:23:31Z</time>
      </trkpt>
      <trkpt lat="45.96551" lon="4.7161">
        <ele>185</ele>
        <time>2018-08-08T10:23:32Z</time>
      </trkpt>
      <trkpt lat="45.96546" lon="4.71607">
        <ele>185</ele>
        <time>2018-08-08T10:23:33Z</time>
      </trkpt>
      <trkpt lat="45.96539" lon="4.71606">
        <ele>185</ele>
        <time>2018-08-08T10:23:34Z</time>
      </trkpt>
      <trkpt lat="45.96537" lon="4.71603">
        <ele>185</ele>
        <time>2018-08-08T10:23:35Z</time>
      </trkpt>
      <trkpt lat="45.9653" lon="4.71601">
        <ele>185</ele>
        <time>2018-08-08T10:23:36Z</time>
      </trkpt>
      <trkpt lat="45.96525" lon="4.71598">
        <ele>185</ele>
        <time>2018-08-08T10:23:37Z</time>
      </trkpt>
      <trkpt lat="45.96518" lon="4.71598">
        <ele>185</ele>
        <time>2018-08-08T10:23:38Z</time>
      </trkpt>
      <trkpt lat="45.96512" lon="4.71601">
        <ele>185</ele>
        <time>2018-08-08T10:23:39Z</time>
      </trkpt>
      <trkpt lat="45.96506" lon="4.71605">
        <ele>184</ele>
        <time>2018-08-08T10:23:40Z</time>
      </trkpt>
      <trkpt lat="45.965" lon="4.71603">
        <ele>184</ele>
        <time>2018-08-08T10:23:41Z</time>
      </trkpt>
      <trkpt lat="45.96495" lon="4.71602">
        <ele>184</ele>
        <time>2018-08-08T10:23:42Z</time>
      </trkpt>
      <trkpt lat="45.9649" lon="4.71602">
        <ele>184</ele>
        <time>2018-08-08T10:23:43Z</time>
      </trkpt>
      <trkpt lat="45.96484" lon="4.71601">
        <ele>183</ele>
        <time>2018-08-08T10:23:44Z</time>
      </trkpt>
      <trkpt lat="45.96477" lon="4.716">
        <ele>183</ele>
        <time>2018-08-08T10:23:45Z</time>
      </trkpt>
      <trkpt lat="45.96469" lon="4.71599">
        <ele>183</ele>
        <time>2018-08-08T10:23:46Z</time>
      </trkpt>
      <trkpt lat="45.96462" lon="4.71598">
        <ele>183</ele>
        <time>2018-08-08T10:23:47Z</time>
      </trkpt>
      <trkpt lat="45.96454" lon="4.71597">
        <ele>183</ele>
        <time>2018-08-08T10:23:48Z</time>
      </trkpt>
      <trkpt lat="45.96449" lon="4.71596">
        <ele>183</ele>
        <time>2018-08-08T10:23:49Z</time>
      </trkpt>
      <trkpt lat="45.96442" lon="4.71595">
        <ele>183</ele>
        <time>2018-08-08T10:23:50Z</time>
      </trkpt>
      <trkpt lat="45.96433" lon="4.71594">
        <ele>184</ele>
        <time>2018-08-08T10:23:51Z</time>
      </trkpt>
      <trkpt lat="45.96427" lon="4.71592">
        <ele>184</ele>
        <time>2018-08-08T10:23:52Z</time>
      </trkpt>
      <trkpt lat="45.9642" lon="4.71589">
        <ele>184</ele>
        <time>2018-08-08T10:23:53Z</time>
      </trkpt>
      <trkpt lat="45.96413" lon="4.71589">
        <ele>184</ele>
        <time>2018-08-08T10:23:54Z</time>
      </trkpt>
      <trkpt lat="45.96406" lon="4.71588">
        <ele>184</ele>
        <time>2018-08-08T10:23:55Z</time>
      </trkpt>
      <trkpt lat="45.96401" lon="4.71586">
        <ele>183</ele>
        <time>2018-08-08T10:23:56Z</time>
      </trkpt>
      <trkpt lat="45.96394" lon="4.71586">
        <ele>183</ele>
        <time>2018-08-08T10:23:57Z</time>
      </trkpt>
      <trkpt lat="45.96387" lon="4.71585">
        <ele>183</ele>
        <time>2018-08-08T10:23:58Z</time>
      </trkpt>
      <trkpt lat="45.96381" lon="4.71586">
        <ele>183</ele>
        <time>2018-08-08T10:23:59Z</time>
      </trkpt>
      <trkpt lat="45.96375" lon="4.71586">
        <ele>182</ele>
        <time>2018-08-08T10:24:00Z</time>
      </trkpt>
      <trkpt lat="45.96368" lon="4.71584">
        <ele>182</ele>
        <time>2018-08-08T10:24:01Z</time>
      </trkpt>
      <trkpt lat="45.96363" lon="4.71584">
        <ele>182</ele>
        <time>2018-08-08T10:24:02Z</time>
      </trkpt>
      <trkpt lat="45.96358" lon="4.71583">
        <ele>185</ele>
        <time>2018-08-08T10:24:03Z</time>
      </trkpt>
      <trkpt lat="45.9635" lon="4.71582">
        <ele>185</ele>
        <time>2018-08-08T10:24:04Z</time>
      </trkpt>
      <trkpt lat="45.96344" lon="4.71579">
        <ele>184</ele>
        <time>2018-08-08T10:24:05Z</time>
      </trkpt>
      <trkpt lat="45.96336" lon="4.71577">
        <ele>184</ele>
        <time>2018-08-08T10:24:06Z</time>
      </trkpt>
      <trkpt lat="45.96328" lon="4.71576">
        <ele>184</ele>
        <time>2018-08-08T10:24:07Z</time>
      </trkpt>
      <trkpt lat="45.9632" lon="4.71574">
        <ele>184</ele>
        <time>2018-08-08T10:24:08Z</time>
      </trkpt>
      <trkpt lat="45.96313" lon="4.71574">
        <ele>184</ele>
        <time>2018-08-08T10:24:09Z</time>
      </trkpt>
      <trkpt lat="45.96308" lon="4.71573">
        <ele>184</ele>
        <time>2018-08-08T10:24:10Z</time>
      </trkpt>
      <trkpt lat="45.96302" lon="4.71573">
        <ele>184</ele>
        <time>2018-08-08T10:24:11Z</time>
      </trkpt>
      <trkpt lat="45.96294" lon="4.71572">
        <ele>184</ele>
        <time>2018-08-08T10:24:12Z</time>
      </trkpt>
      <trkpt lat="45.96286" lon="4.71571">
        <ele>184</ele>
        <time>2018-08-08T10:24:13Z</time>
      </trkpt>
      <trkpt lat="45.9628" lon="4.7157">
        <ele>184</ele>
        <time>2018-08-08T10:24:14Z</time>
      </trkpt>
      <trkpt lat="45.96272" lon="4.71568">
        <ele>184</ele>
        <time>2018-08-08T10:24:15Z</time>
      </trkpt>
      <trkpt lat="45.96265" lon="4.71566">
        <ele>184</ele>
        <time>2018-08-08T10:24:16Z</time>
      </trkpt>
      <trkpt lat="45.96258" lon="4.71566">
        <ele>183</ele>
        <time>2018-08-08T10:24:17Z</time>
      </trkpt>
      <trkpt lat="45.96251" lon="4.71564">
        <ele>183</ele>
        <time>2018-08-08T10:24:18Z</time>
      </trkpt>
      <trkpt lat="45.96244" lon="4.71562">
        <ele>183</ele>
        <time>2018-08-08T10:24:19Z</time>
      </trkpt>
      <trkpt lat="45.96236" lon="4.71562">
        <ele>183</ele>
        <time>2018-08-08T10:24:20Z</time>
      </trkpt>
      <trkpt lat="45.96229" lon="4.71561">
        <ele>183</ele>
        <time>2018-08-08T10:24:21Z</time>
      </trkpt>
      <trkpt lat="45.96223" lon="4.7156">
        <ele>183</ele>
        <time>2018-08-08T10:24:22Z</time>
      </trkpt>
      <trkpt lat="45.96217" lon="4.7156">
        <ele>183</ele>
        <time>2018-08-08T10:24:23Z</time>
      </trkpt>
      <trkpt lat="45.96209" lon="4.71558">
        <ele>184</ele>
        <time>2018-08-08T10:24:24Z</time>
      </trkpt>
      <trkpt lat="45.96204" lon="4.71557">
        <ele>184</ele>
        <time>2018-08-08T10:24:25Z</time>
      </trkpt>
      <trkpt lat="45.96197" lon="4.71555">
        <ele>184</ele>
        <time>2018-08-08T10:24:26Z</time>
      </trkpt>
      <trkpt lat="45.96191" lon="4.71554">
        <ele>184</ele>
        <time>2018-08-08T10:24:27Z</time>
      </trkpt>
      <trkpt lat="45.96185" lon="4.71553">
        <ele>184</ele>
        <time>2018-08-08T10:24:28Z</time>
      </trkpt>
      <trkpt lat="45.96178" lon="4.71551">
        <ele>184</ele>
        <time>2018-08-08T10:24:29Z</time>
      </trkpt>
      <trkpt lat="45.96173" lon="4.7155">
        <ele>184</ele>
        <time>2018-08-08T10:24:30Z</time>
      </trkpt>
      <trkpt lat="45.96167" lon="4.71549">
        <ele>184</ele>
        <time>2018-08-08T10:24:31Z</time>
      </trkpt>
      <trkpt lat="45.96161" lon="4.71547">
        <ele>184</ele>
        <time>2018-08-08T10:24:32Z</time>
      </trkpt>
      <trkpt lat="45.96154" lon="4.71545">
        <ele>184</ele>
        <time>2018-08-08T10:24:33Z</time>
      </trkpt>
      <trkpt lat="45.96148" lon="4.71545">
        <ele>184</ele>
        <time>2018-08-08T10:24:34Z</time>
      </trkpt>
      <trkpt lat="45.96141" lon="4.71544">
        <ele>185</ele>
        <time>2018-08-08T10:24:35Z</time>
      </trkpt>
      <trkpt lat="45.96135" lon="4.71543">
        <ele>185</ele>
        <time>2018-08-08T10:24:36Z</time>
      </trkpt>
      <trkpt lat="45.96128" lon="4.71543">
        <ele>185</ele>
        <time>2018-08-08T10:24:37Z</time>
      </trkpt>
      <trkpt lat="45.96121" lon="4.71542">
        <ele>185</ele>
        <time>2018-08-08T10:24:38Z</time>
      </trkpt>
      <trkpt lat="45.96115" lon="4.71541">
        <ele>185</ele>
        <time>2018-08-08T10:24:39Z</time>
      </trkpt>
      <trkpt lat="45.96108" lon="4.7154">
        <ele>185</ele>
        <time>2018-08-08T10:24:40Z</time>
      </trkpt>
      <trkpt lat="45.96102" lon="4.71539">
        <ele>185</ele>
        <time>2018-08-08T10:24:41Z</time>
      </trkpt>
      <trkpt lat="45.96096" lon="4.71538">
        <ele>185</ele>
        <time>2018-08-08T10:24:42Z</time>
      </trkpt>
      <trkpt lat="45.96087" lon="4.71536">
        <ele>185</ele>
        <time>2018-08-08T10:24:44Z</time>
      </trkpt>
      <trkpt lat="45.9608" lon="4.71534">
        <ele>186</ele>
        <time>2018-08-08T10:24:45Z</time>
      </trkpt>
      <trkpt lat="45.96073" lon="4.7153">
        <ele>186</ele>
        <time>2018-08-08T10:24:46Z</time>
      </trkpt>
      <trkpt lat="45.96067" lon="4.7153">
        <ele>186</ele>
        <time>2018-08-08T10:24:47Z</time>
      </trkpt>
      <trkpt lat="45.96062" lon="4.71528">
        <ele>186</ele>
        <time>2018-08-08T10:24:48Z</time>
      </trkpt>
      <trkpt lat="45.96057" lon="4.71528">
        <ele>186</ele>
        <time>2018-08-08T10:24:49Z</time>
      </trkpt>
      <trkpt lat="45.96051" lon="4.71527">
        <ele>186</ele>
        <time>2018-08-08T10:24:50Z</time>
      </trkpt>
      <trkpt lat="45.96045" lon="4.71525">
        <ele>186</ele>
        <time>2018-08-08T10:24:51Z</time>
      </trkpt>
      <trkpt lat="45.96038" lon="4.71524">
        <ele>186</ele>
        <time>2018-08-08T10:24:53Z</time>
      </trkpt>
      <trkpt lat="45.96033" lon="4.71525">
        <ele>186</ele>
        <time>2018-08-08T10:24:54Z</time>
      </trkpt>
      <trkpt lat="45.96027" lon="4.71524">
        <ele>186</ele>
        <time>2018-08-08T10:24:55Z</time>
      </trkpt>
      <trkpt lat="45.96022" lon="4.71523">
        <ele>186</ele>
        <time>2018-08-08T10:24:56Z</time>
      </trkpt>
      <trkpt lat="45.96016" lon="4.71522">
        <ele>186</ele>
        <time>2018-08-08T10:24:57Z</time>
      </trkpt>
      <trkpt lat="45.96013" lon="4.71521">
        <ele>186</ele>
        <time>2018-08-08T10:24:58Z</time>
      </trkpt>
      <trkpt lat="45.96005" lon="4.71517">
        <ele>187</ele>
        <time>2018-08-08T10:25:00Z</time>
      </trkpt>
      <trkpt lat="45.96" lon="4.71514">
        <ele>187</ele>
        <time>2018-08-08T10:25:01Z</time>
      </trkpt>
      <trkpt lat="45.95995" lon="4.71512">
        <ele>186</ele>
        <time>2018-08-08T10:25:02Z</time>
      </trkpt>
      <trkpt lat="45.95989" lon="4.71511">
        <ele>186</ele>
        <time>2018-08-08T10:25:03Z</time>
      </trkpt>
      <trkpt lat="45.95983" lon="4.71512">
        <ele>185</ele>
        <time>2018-08-08T10:25:04Z</time>
      </trkpt>
      <trkpt lat="45.95977" lon="4.71514">
        <ele>185</ele>
        <time>2018-08-08T10:25:05Z</time>
      </trkpt>
      <trkpt lat="45.95972" lon="4.71517">
        <ele>185</ele>
        <time>2018-08-08T10:25:06Z</time>
      </trkpt>
      <trkpt lat="45.95965" lon="4.71519">
        <ele>184</ele>
        <time>2018-08-08T10:25:07Z</time>
      </trkpt>
      <trkpt lat="45.95958" lon="4.7152">
        <ele>184</ele>
        <time>2018-08-08T10:25:08Z</time>
      </trkpt>
      <trkpt lat="45.95952" lon="4.71522">
        <ele>184</ele>
        <time>2018-08-08T10:25:09Z</time>
      </trkpt>
      <trkpt lat="45.95945" lon="4.71521">
        <ele>184</ele>
        <time>2018-08-08T10:25:10Z</time>
      </trkpt>
      <trkpt lat="45.95937" lon="4.71521">
        <ele>184</ele>
        <time>2018-08-08T10:25:11Z</time>
      </trkpt>
      <trkpt lat="45.9593" lon="4.71521">
        <ele>184</ele>
        <time>2018-08-08T10:25:12Z</time>
      </trkpt>
      <trkpt lat="45.95922" lon="4.71517">
        <ele>184</ele>
        <time>2018-08-08T10:25:13Z</time>
      </trkpt>
      <trkpt lat="45.95916" lon="4.71517">
        <ele>183</ele>
        <time>2018-08-08T10:25:14Z</time>
      </trkpt>
      <trkpt lat="45.95909" lon="4.71517">
        <ele>183</ele>
        <time>2018-08-08T10:25:15Z</time>
      </trkpt>
      <trkpt lat="45.95901" lon="4.71516">
        <ele>183</ele>
        <time>2018-08-08T10:25:16Z</time>
      </trkpt>
      <trkpt lat="45.95894" lon="4.71515">
        <ele>183</ele>
        <time>2018-08-08T10:25:17Z</time>
      </trkpt>
      <trkpt lat="45.95888" lon="4.71514">
        <ele>182</ele>
        <time>2018-08-08T10:25:18Z</time>
      </trkpt>
      <trkpt lat="45.95881" lon="4.71515">
        <ele>182</ele>
        <time>2018-08-08T10:25:19Z</time>
      </trkpt>
      <trkpt lat="45.95876" lon="4.71519">
        <ele>182</ele>
        <time>2018-08-08T10:25:20Z</time>
      </trkpt>
      <trkpt lat="45.95871" lon="4.71522">
        <ele>182</ele>
        <time>2018-08-08T10:25:21Z</time>
      </trkpt>
      <trkpt lat="45.95865" lon="4.71521">
        <ele>182</ele>
        <time>2018-08-08T10:25:22Z</time>
      </trkpt>
      <trkpt lat="45.95862" lon="4.71526">
        <ele>182</ele>
        <time>2018-08-08T10:25:23Z</time>
      </trkpt>
      <trkpt lat="45.95855" lon="4.71526">
        <ele>182</ele>
        <time>2018-08-08T10:25:24Z</time>
      </trkpt>
      <trkpt lat="45.95848" lon="4.71524">
        <ele>182</ele>
        <time>2018-08-08T10:25:25Z</time>
      </trkpt>
      <trkpt lat="45.9584" lon="4.71523">
        <ele>182</ele>
        <time>2018-08-08T10:25:26Z</time>
      </trkpt>
      <trkpt lat="45.95834" lon="4.71524">
        <ele>182</ele>
        <time>2018-08-08T10:25:27Z</time>
      </trkpt>
      <trkpt lat="45.95828" lon="4.71525">
        <ele>181</ele>
        <time>2018-08-08T10:25:28Z</time>
      </trkpt>
      <trkpt lat="45.95821" lon="4.71524">
        <ele>181</ele>
        <time>2018-08-08T10:25:29Z</time>
      </trkpt>
      <trkpt lat="45.95814" lon="4.71524">
        <ele>181</ele>
        <time>2018-08-08T10:25:30Z</time>
      </trkpt>
      <trkpt lat="45.95806" lon="4.71522">
        <ele>181</ele>
        <time>2018-08-08T10:25:31Z</time>
      </trkpt>
      <trkpt lat="45.95801" lon="4.71523">
        <ele>181</ele>
        <time>2018-08-08T10:25:32Z</time>
      </trkpt>
      <trkpt lat="45.95794" lon="4.71521">
        <ele>181</ele>
        <time>2018-08-08T10:25:33Z</time>
      </trkpt>
      <trkpt lat="45.95787" lon="4.71519">
        <ele>181</ele>
        <time>2018-08-08T10:25:34Z</time>
      </trkpt>
      <trkpt lat="45.95779" lon="4.71517">
        <ele>181</ele>
        <time>2018-08-08T10:25:35Z</time>
      </trkpt>
      <trkpt lat="45.95771" lon="4.71511">
        <ele>181</ele>
        <time>2018-08-08T10:25:36Z</time>
      </trkpt>
      <trkpt lat="45.95762" lon="4.71509">
        <ele>181</ele>
        <time>2018-08-08T10:25:37Z</time>
      </trkpt>
      <trkpt lat="45.95755" lon="4.71509">
        <ele>181</ele>
        <time>2018-08-08T10:25:38Z</time>
      </trkpt>
      <trkpt lat="45.95747" lon="4.71509">
        <ele>181</ele>
        <time>2018-08-08T10:25:39Z</time>
      </trkpt>
      <trkpt lat="45.9574" lon="4.71508">
        <ele>181</ele>
        <time>2018-08-08T10:25:40Z</time>
      </trkpt>
      <trkpt lat="45.95736" lon="4.71509">
        <ele>181</ele>
        <time>2018-08-08T10:25:41Z</time>
      </trkpt>
      <trkpt lat="45.95728" lon="4.71507">
        <ele>181</ele>
        <time>2018-08-08T10:25:42Z</time>
      </trkpt>
      <trkpt lat="45.9572" lon="4.71507">
        <ele>180</ele>
        <time>2018-08-08T10:25:43Z</time>
      </trkpt>
      <trkpt lat="45.95714" lon="4.71506">
        <ele>180</ele>
        <time>2018-08-08T10:25:44Z</time>
      </trkpt>
      <trkpt lat="45.95708" lon="4.71506">
        <ele>180</ele>
        <time>2018-08-08T10:25:45Z</time>
      </trkpt>
      <trkpt lat="45.95701" lon="4.71506">
        <ele>180</ele>
        <time>2018-08-08T10:25:46Z</time>
      </trkpt>
      <trkpt lat="45.95695" lon="4.71504">
        <ele>181</ele>
        <time>2018-08-08T10:25:47Z</time>
      </trkpt>
      <trkpt lat="45.95688" lon="4.71505">
        <ele>181</ele>
        <time>2018-08-08T10:25:48Z</time>
      </trkpt>
      <trkpt lat="45.95681" lon="4.71503">
        <ele>181</ele>
        <time>2018-08-08T10:25:49Z</time>
      </trkpt>
      <trkpt lat="45.95673" lon="4.715">
        <ele>181</ele>
        <time>2018-08-08T10:25:50Z</time>
      </trkpt>
      <trkpt lat="45.95665" lon="4.71497">
        <ele>182</ele>
        <time>2018-08-08T10:25:51Z</time>
      </trkpt>
      <trkpt lat="45.95658" lon="4.71497">
        <ele>182</ele>
        <time>2018-08-08T10:25:52Z</time>
      </trkpt>
      <trkpt lat="45.95651" lon="4.71495">
        <ele>182</ele>
        <time>2018-08-08T10:25:53Z</time>
      </trkpt>
      <trkpt lat="45.95643" lon="4.71494">
        <ele>182</ele>
        <time>2018-08-08T10:25:54Z</time>
      </trkpt>
      <trkpt lat="45.95636" lon="4.71494">
        <ele>182</ele>
        <time>2018-08-08T10:25:55Z</time>
      </trkpt>
      <trkpt lat="45.9563" lon="4.71494">
        <ele>182</ele>
        <time>2018-08-08T10:25:56Z</time>
      </trkpt>
      <trkpt lat="45.95623" lon="4.71494">
        <ele>181</ele>
        <time>2018-08-08T10:25:57Z</time>
      </trkpt>
      <trkpt lat="45.95616" lon="4.71494">
        <ele>181</ele>
        <time>2018-08-08T10:25:58Z</time>
      </trkpt>
      <trkpt lat="45.95608" lon="4.71494">
        <ele>181</ele>
        <time>2018-08-08T10:25:59Z</time>
      </trkpt>
      <trkpt lat="45.95601" lon="4.71494">
        <ele>181</ele>
        <time>2018-08-08T10:26:00Z</time>
      </trkpt>
      <trkpt lat="45.95591" lon="4.71491">
        <ele>181</ele>
        <time>2018-08-08T10:26:01Z</time>
      </trkpt>
      <trkpt lat="45.95584" lon="4.71493">
        <ele>180</ele>
        <time>2018-08-08T10:26:03Z</time>
      </trkpt>
      <trkpt lat="45.95576" lon="4.71494">
        <ele>180</ele>
        <time>2018-08-08T10:26:04Z</time>
      </trkpt>
      <trkpt lat="45.95569" lon="4.71492">
        <ele>180</ele>
        <time>2018-08-08T10:26:05Z</time>
      </trkpt>
      <trkpt lat="45.95561" lon="4.71493">
        <ele>179</ele>
        <time>2018-08-08T10:26:06Z</time>
      </trkpt>
      <trkpt lat="45.95553" lon="4.71491">
        <ele>179</ele>
        <time>2018-08-08T10:26:07Z</time>
      </trkpt>
      <trkpt lat="45.95545" lon="4.71491">
        <ele>179</ele>
        <time>2018-08-08T10:26:08Z</time>
      </trkpt>
      <trkpt lat="45.95539" lon="4.7149">
        <ele>179</ele>
        <time>2018-08-08T10:26:09Z</time>
      </trkpt>
      <trkpt lat="45.95531" lon="4.71491">
        <ele>179</ele>
        <time>2018-08-08T10:26:10Z</time>
      </trkpt>
      <trkpt lat="45.95524" lon="4.71491">
        <ele>178</ele>
        <time>2018-08-08T10:26:11Z</time>
      </trkpt>
      <trkpt lat="45.95517" lon="4.71491">
        <ele>178</ele>
        <time>2018-08-08T10:26:12Z</time>
      </trkpt>
      <trkpt lat="45.9551" lon="4.7149">
        <ele>178</ele>
        <time>2018-08-08T10:26:13Z</time>
      </trkpt>
      <trkpt lat="45.95503" lon="4.71491">
        <ele>178</ele>
        <time>2018-08-08T10:26:14Z</time>
      </trkpt>
      <trkpt lat="45.95496" lon="4.71491">
        <ele>177</ele>
        <time>2018-08-08T10:26:15Z</time>
      </trkpt>
      <trkpt lat="45.95488" lon="4.71491">
        <ele>177</ele>
        <time>2018-08-08T10:26:16Z</time>
      </trkpt>
      <trkpt lat="45.9548" lon="4.71488">
        <ele>176</ele>
        <time>2018-08-08T10:26:17Z</time>
      </trkpt>
      <trkpt lat="45.95472" lon="4.71487">
        <ele>176</ele>
        <time>2018-08-08T10:26:18Z</time>
      </trkpt>
      <trkpt lat="45.95465" lon="4.71487">
        <ele>176</ele>
        <time>2018-08-08T10:26:19Z</time>
      </trkpt>
      <trkpt lat="45.95457" lon="4.71485">
        <ele>176</ele>
        <time>2018-08-08T10:26:20Z</time>
      </trkpt>
      <trkpt lat="45.95449" lon="4.71486">
        <ele>176</ele>
        <time>2018-08-08T10:26:21Z</time>
      </trkpt>
      <trkpt lat="45.95441" lon="4.71485">
        <ele>176</ele>
        <time>2018-08-08T10:26:22Z</time>
      </trkpt>
      <trkpt lat="45.95433" lon="4.71485">
        <ele>175</ele>
        <time>2018-08-08T10:26:23Z</time>
      </trkpt>
      <trkpt lat="45.95425" lon="4.71485">
        <ele>175</ele>
        <time>2018-08-08T10:26:24Z</time>
      </trkpt>
      <trkpt lat="45.95417" lon="4.71484">
        <ele>175</ele>
        <time>2018-08-08T10:26:25Z</time>
      </trkpt>
      <trkpt lat="45.9541" lon="4.71483">
        <ele>175</ele>
        <time>2018-08-08T10:26:26Z</time>
      </trkpt>
      <trkpt lat="45.95403" lon="4.71483">
        <ele>175</ele>
        <time>2018-08-08T10:26:27Z</time>
      </trkpt>
      <trkpt lat="45.95396" lon="4.71483">
        <ele>175</ele>
        <time>2018-08-08T10:26:28Z</time>
      </trkpt>
      <trkpt lat="45.95389" lon="4.71482">
        <ele>175</ele>
        <time>2018-08-08T10:26:29Z</time>
      </trkpt>
      <trkpt lat="45.95381" lon="4.71482">
        <ele>175</ele>
        <time>2018-08-08T10:26:30Z</time>
      </trkpt>
      <trkpt lat="45.95375" lon="4.71482">
        <ele>175</ele>
        <time>2018-08-08T10:26:31Z</time>
      </trkpt>
      <trkpt lat="45.95368" lon="4.71481">
        <ele>175</ele>
        <time>2018-08-08T10:26:32Z</time>
      </trkpt>
      <trkpt lat="45.95362" lon="4.71481">
        <ele>175</ele>
        <time>2018-08-08T10:26:33Z</time>
      </trkpt>
      <trkpt lat="45.95355" lon="4.71479">
        <ele>175</ele>
        <time>2018-08-08T10:26:34Z</time>
      </trkpt>
      <trkpt lat="45.9535" lon="4.71478">
        <ele>175</ele>
        <time>2018-08-08T10:26:35Z</time>
      </trkpt>
      <trkpt lat="45.95343" lon="4.71478">
        <ele>175</ele>
        <time>2018-08-08T10:26:36Z</time>
      </trkpt>
      <trkpt lat="45.95337" lon="4.71479">
        <ele>175</ele>
        <time>2018-08-08T10:26:37Z</time>
      </trkpt>
      <trkpt lat="45.9533" lon="4.71478">
        <ele>175</ele>
        <time>2018-08-08T10:26:38Z</time>
      </trkpt>
      <trkpt lat="45.95322" lon="4.71479">
        <ele>175</ele>
        <time>2018-08-08T10:26:39Z</time>
      </trkpt>
      <trkpt lat="45.95314" lon="4.71477">
        <ele>175</ele>
        <time>2018-08-08T10:26:40Z</time>
      </trkpt>
      <trkpt lat="45.95308" lon="4.71477">
        <ele>175</ele>
        <time>2018-08-08T10:26:41Z</time>
      </trkpt>
      <trkpt lat="45.95299" lon="4.71475">
        <ele>176</ele>
        <time>2018-08-08T10:26:42Z</time>
      </trkpt>
      <trkpt lat="45.95292" lon="4.71474">
        <ele>176</ele>
        <time>2018-08-08T10:26:43Z</time>
      </trkpt>
      <trkpt lat="45.95287" lon="4.71476">
        <ele>176</ele>
        <time>2018-08-08T10:26:44Z</time>
      </trkpt>
      <trkpt lat="45.95283" lon="4.7148">
        <ele>176</ele>
        <time>2018-08-08T10:26:45Z</time>
      </trkpt>
      <trkpt lat="45.95277" lon="4.7148">
        <ele>176</ele>
        <time>2018-08-08T10:26:46Z</time>
      </trkpt>
      <trkpt lat="45.9527" lon="4.71477">
        <ele>176</ele>
        <time>2018-08-08T10:26:47Z</time>
      </trkpt>
      <trkpt lat="45.95266" lon="4.71481">
        <ele>176</ele>
        <time>2018-08-08T10:26:48Z</time>
      </trkpt>
      <trkpt lat="45.95259" lon="4.7148">
        <ele>176</ele>
        <time>2018-08-08T10:26:49Z</time>
      </trkpt>
      <trkpt lat="45.95254" lon="4.71481">
        <ele>176</ele>
        <time>2018-08-08T10:26:50Z</time>
      </trkpt>
      <trkpt lat="45.95248" lon="4.7148">
        <ele>177</ele>
        <time>2018-08-08T10:26:51Z</time>
      </trkpt>
      <trkpt lat="45.95241" lon="4.71479">
        <ele>177</ele>
        <time>2018-08-08T10:26:52Z</time>
      </trkpt>
      <trkpt lat="45.95232" lon="4.71477">
        <ele>177</ele>
        <time>2018-08-08T10:26:53Z</time>
      </trkpt>
      <trkpt lat="45.95228" lon="4.71479">
        <ele>177</ele>
        <time>2018-08-08T10:26:54Z</time>
      </trkpt>
      <trkpt lat="45.95224" lon="4.71479">
        <ele>177</ele>
        <time>2018-08-08T10:26:55Z</time>
      </trkpt>
      <trkpt lat="45.95216" lon="4.71478">
        <ele>177</ele>
        <time>2018-08-08T10:26:56Z</time>
      </trkpt>
      <trkpt lat="45.9521" lon="4.71478">
        <ele>177</ele>
        <time>2018-08-08T10:26:57Z</time>
      </trkpt>
      <trkpt lat="45.95204" lon="4.71476">
        <ele>177</ele>
        <time>2018-08-08T10:26:58Z</time>
      </trkpt>
      <trkpt lat="45.95195" lon="4.71473">
        <ele>177</ele>
        <time>2018-08-08T10:26:59Z</time>
      </trkpt>
      <trkpt lat="45.95188" lon="4.71472">
        <ele>177</ele>
        <time>2018-08-08T10:27:00Z</time>
      </trkpt>
      <trkpt lat="45.95182" lon="4.71472">
        <ele>177</ele>
        <time>2018-08-08T10:27:01Z</time>
      </trkpt>
      <trkpt lat="45.95176" lon="4.71472">
        <ele>177</ele>
        <time>2018-08-08T10:27:02Z</time>
      </trkpt>
      <trkpt lat="45.95169" lon="4.71472">
        <ele>177</ele>
        <time>2018-08-08T10:27:03Z</time>
      </trkpt>
      <trkpt lat="45.95163" lon="4.7147">
        <ele>178</ele>
        <time>2018-08-08T10:27:04Z</time>
      </trkpt>
      <trkpt lat="45.95156" lon="4.71469">
        <ele>178</ele>
        <time>2018-08-08T10:27:05Z</time>
      </trkpt>
      <trkpt lat="45.9515" lon="4.71469">
        <ele>178</ele>
        <time>2018-08-08T10:27:06Z</time>
      </trkpt>
      <trkpt lat="45.95144" lon="4.71469">
        <ele>178</ele>
        <time>2018-08-08T10:27:07Z</time>
      </trkpt>
      <trkpt lat="45.95138" lon="4.71471">
        <ele>178</ele>
        <time>2018-08-08T10:27:08Z</time>
      </trkpt>
      <trkpt lat="45.95133" lon="4.7147">
        <ele>178</ele>
        <time>2018-08-08T10:27:09Z</time>
      </trkpt>
      <trkpt lat="45.95128" lon="4.71471">
        <ele>178</ele>
        <time>2018-08-08T10:27:10Z</time>
      </trkpt>
      <trkpt lat="45.95122" lon="4.7147">
        <ele>178</ele>
        <time>2018-08-08T10:27:11Z</time>
      </trkpt>
      <trkpt lat="45.95116" lon="4.71469">
        <ele>179</ele>
        <time>2018-08-08T10:27:12Z</time>
      </trkpt>
      <trkpt lat="45.95109" lon="4.71469">
        <ele>179</ele>
        <time>2018-08-08T10:27:13Z</time>
      </trkpt>
      <trkpt lat="45.95107" lon="4.71469">
        <ele>179</ele>
        <time>2018-08-08T10:27:14Z</time>
      </trkpt>
      <trkpt lat="45.95101" lon="4.71469">
        <ele>179</ele>
        <time>2018-08-08T10:27:15Z</time>
      </trkpt>
      <trkpt lat="45.95096" lon="4.71468">
        <ele>179</ele>
        <time>2018-08-08T10:27:16Z</time>
      </trkpt>
      <trkpt lat="45.9509" lon="4.71467">
        <ele>179</ele>
        <time>2018-08-08T10:27:17Z</time>
      </trkpt>
      <trkpt lat="45.95083" lon="4.71468">
        <ele>181</ele>
        <time>2018-08-08T10:27:18Z</time>
      </trkpt>
      <trkpt lat="45.95079" lon="4.71466">
        <ele>181</ele>
        <time>2018-08-08T10:27:19Z</time>
      </trkpt>
      <trkpt lat="45.95074" lon="4.71467">
        <ele>181</ele>
        <time>2018-08-08T10:27:20Z</time>
      </trkpt>
      <trkpt lat="45.95065" lon="4.71465">
        <ele>181</ele>
        <time>2018-08-08T10:27:22Z</time>
      </trkpt>
      <trkpt lat="45.95059" lon="4.71463">
        <ele>181</ele>
        <time>2018-08-08T10:27:23Z</time>
      </trkpt>
      <trkpt lat="45.95051" lon="4.71462">
        <ele>181</ele>
        <time>2018-08-08T10:27:26Z</time>
      </trkpt>
      <trkpt lat="45.95047" lon="4.7146">
        <ele>182</ele>
        <time>2018-08-08T10:27:27Z</time>
      </trkpt>
      <trkpt lat="45.95039" lon="4.71459">
        <ele>182</ele>
        <time>2018-08-08T10:27:30Z</time>
      </trkpt>
      <trkpt lat="45.95033" lon="4.71459">
        <ele>182</ele>
        <time>2018-08-08T10:27:31Z</time>
      </trkpt>
      <trkpt lat="45.95027" lon="4.71459">
        <ele>182</ele>
        <time>2018-08-08T10:27:33Z</time>
      </trkpt>
      <trkpt lat="45.95022" lon="4.71459">
        <ele>182</ele>
        <time>2018-08-08T10:27:34Z</time>
      </trkpt>
      <trkpt lat="45.95018" lon="4.71458">
        <ele>182</ele>
        <time>2018-08-08T10:27:35Z</time>
      </trkpt>
      <trkpt lat="45.95013" lon="4.71456">
        <ele>182</ele>
        <time>2018-08-08T10:27:36Z</time>
      </trkpt>
      <trkpt lat="45.95005" lon="4.71455">
        <ele>183</ele>
        <time>2018-08-08T10:27:38Z</time>
      </trkpt>
      <trkpt lat="45.95001" lon="4.71453">
        <ele>183</ele>
        <time>2018-08-08T10:27:39Z</time>
      </trkpt>
      <trkpt lat="45.94994" lon="4.71446">
        <ele>184</ele>
        <time>2018-08-08T10:27:41Z</time>
      </trkpt>
      <trkpt lat="45.94991" lon="4.71443">
        <ele>184</ele>
        <time>2018-08-08T10:27:42Z</time>
      </trkpt>
      <trkpt lat="45.94988" lon="4.71438">
        <ele>185</ele>
        <time>2018-08-08T10:27:43Z</time>
      </trkpt>
      <trkpt lat="45.94984" lon="4.71434">
        <ele>185</ele>
        <time>2018-08-08T10:27:44Z</time>
      </trkpt>
      <trkpt lat="45.9498" lon="4.71431">
        <ele>185</ele>
        <time>2018-08-08T10:27:45Z</time>
      </trkpt>
      <trkpt lat="45.94975" lon="4.7143">
        <ele>185</ele>
        <time>2018-08-08T10:27:46Z</time>
      </trkpt>
      <trkpt lat="45.9497" lon="4.71429">
        <ele>185</ele>
        <time>2018-08-08T10:27:47Z</time>
      </trkpt>
      <trkpt lat="45.94963" lon="4.7143">
        <ele>185</ele>
        <time>2018-08-08T10:27:48Z</time>
      </trkpt>
      <trkpt lat="45.9496" lon="4.71435">
        <ele>184</ele>
        <time>2018-08-08T10:27:49Z</time>
      </trkpt>
      <trkpt lat="45.94955" lon="4.7144">
        <ele>184</ele>
        <time>2018-08-08T10:27:50Z</time>
      </trkpt>
      <trkpt lat="45.94948" lon="4.71443">
        <ele>184</ele>
        <time>2018-08-08T10:27:51Z</time>
      </trkpt>
      <trkpt lat="45.94943" lon="4.71445">
        <ele>184</ele>
        <time>2018-08-08T10:27:52Z</time>
      </trkpt>
      <trkpt lat="45.94939" lon="4.71449">
        <ele>184</ele>
        <time>2018-08-08T10:27:53Z</time>
      </trkpt>
      <trkpt lat="45.94932" lon="4.7145">
        <ele>184</ele>
        <time>2018-08-08T10:27:54Z</time>
      </trkpt>
      <trkpt lat="45.94929" lon="4.71454">
        <ele>184</ele>
        <time>2018-08-08T10:27:55Z</time>
      </trkpt>
      <trkpt lat="45.94921" lon="4.71453">
        <ele>184</ele>
        <time>2018-08-08T10:27:56Z</time>
      </trkpt>
      <trkpt lat="45.94916" lon="4.71452">
        <ele>184</ele>
        <time>2018-08-08T10:27:57Z</time>
      </trkpt>
      <trkpt lat="45.9491" lon="4.71451">
        <ele>184</ele>
        <time>2018-08-08T10:27:58Z</time>
      </trkpt>
      <trkpt lat="45.94904" lon="4.7145">
        <ele>184</ele>
        <time>2018-08-08T10:27:59Z</time>
      </trkpt>
      <trkpt lat="45.94898" lon="4.7145">
        <ele>184</ele>
        <time>2018-08-08T10:28:00Z</time>
      </trkpt>
      <trkpt lat="45.9489" lon="4.71449">
        <ele>184</ele>
        <time>2018-08-08T10:28:01Z</time>
      </trkpt>
      <trkpt lat="45.94886" lon="4.7145">
        <ele>184</ele>
        <time>2018-08-08T10:28:02Z</time>
      </trkpt>
      <trkpt lat="45.94881" lon="4.71448">
        <ele>184</ele>
        <time>2018-08-08T10:28:03Z</time>
      </trkpt>
      <trkpt lat="45.94876" lon="4.71446">
        <ele>184</ele>
        <time>2018-08-08T10:28:04Z</time>
      </trkpt>
      <trkpt lat="45.9487" lon="4.71449">
        <ele>184</ele>
        <time>2018-08-08T10:28:06Z</time>
      </trkpt>
      <trkpt lat="45.94864" lon="4.71449">
        <ele>184</ele>
        <time>2018-08-08T10:28:07Z</time>
      </trkpt>
      <trkpt lat="45.94856" lon="4.71446">
        <ele>184</ele>
        <time>2018-08-08T10:28:09Z</time>
      </trkpt>
      <trkpt lat="45.94852" lon="4.71448">
        <ele>184</ele>
        <time>2018-08-08T10:28:10Z</time>
      </trkpt>
      <trkpt lat="45.94845" lon="4.71446">
        <ele>184</ele>
        <time>2018-08-08T10:28:11Z</time>
      </trkpt>
      <trkpt lat="45.94841" lon="4.71448">
        <ele>184</ele>
        <time>2018-08-08T10:28:12Z</time>
      </trkpt>
      <trkpt lat="45.94835" lon="4.71449">
        <ele>184</ele>
        <time>2018-08-08T10:28:13Z</time>
      </trkpt>
      <trkpt lat="45.9483" lon="4.71449">
        <ele>184</ele>
        <time>2018-08-08T10:28:14Z</time>
      </trkpt>
      <trkpt lat="45.94823" lon="4.71447">
        <ele>184</ele>
        <time>2018-08-08T10:28:15Z</time>
      </trkpt>
      <trkpt lat="45.94817" lon="4.71446">
        <ele>184</ele>
        <time>2018-08-08T10:28:16Z</time>
      </trkpt>
      <trkpt lat="45.94813" lon="4.7145">
        <ele>183</ele>
        <time>2018-08-08T10:28:17Z</time>
      </trkpt>
      <trkpt lat="45.94807" lon="4.71448">
        <ele>183</ele>
        <time>2018-08-08T10:28:18Z</time>
      </trkpt>
      <trkpt lat="45.94802" lon="4.7145">
        <ele>183</ele>
        <time>2018-08-08T10:28:19Z</time>
      </trkpt>
      <trkpt lat="45.94797" lon="4.71449">
        <ele>183</ele>
        <time>2018-08-08T10:28:20Z</time>
      </trkpt>
      <trkpt lat="45.94792" lon="4.71447">
        <ele>183</ele>
        <time>2018-08-08T10:28:21Z</time>
      </trkpt>
      <trkpt lat="45.94788" lon="4.71447">
        <ele>183</ele>
        <time>2018-08-08T10:28:22Z</time>
      </trkpt>
      <trkpt lat="45.94782" lon="4.71446">
        <ele>183</ele>
        <time>2018-08-08T10:28:23Z</time>
      </trkpt>
      <trkpt lat="45.94777" lon="4.71446">
        <ele>183</ele>
        <time>2018-08-08T10:28:24Z</time>
      </trkpt>
      <trkpt lat="45.9477" lon="4.71444">
        <ele>184</ele>
        <time>2018-08-08T10:28:25Z</time>
      </trkpt>
      <trkpt lat="45.94765" lon="4.71444">
        <ele>184</ele>
        <time>2018-08-08T10:28:26Z</time>
      </trkpt>
      <trkpt lat="45.9476" lon="4.71442">
        <ele>184</ele>
        <time>2018-08-08T10:28:27Z</time>
      </trkpt>
      <trkpt lat="45.94754" lon="4.71442">
        <ele>184</ele>
        <time>2018-08-08T10:28:28Z</time>
      </trkpt>
      <trkpt lat="45.94747" lon="4.71438">
        <ele>183</ele>
        <time>2018-08-08T10:28:29Z</time>
      </trkpt>
      <trkpt lat="45.94741" lon="4.71437">
        <ele>183</ele>
        <time>2018-08-08T10:28:30Z</time>
      </trkpt>
      <trkpt lat="45.94736" lon="4.71438">
        <ele>183</ele>
        <time>2018-08-08T10:28:31Z</time>
      </trkpt>
      <trkpt lat="45.94729" lon="4.71436">
        <ele>183</ele>
        <time>2018-08-08T10:28:32Z</time>
      </trkpt>
      <trkpt lat="45.94721" lon="4.71437">
        <ele>183</ele>
        <time>2018-08-08T10:28:34Z</time>
      </trkpt>
      <trkpt lat="45.94717" lon="4.71436">
        <ele>183</ele>
        <time>2018-08-08T10:28:35Z</time>
      </trkpt>
      <trkpt lat="45.94709" lon="4.71437">
        <ele>182</ele>
        <time>2018-08-08T10:28:37Z</time>
      </trkpt>
      <trkpt lat="45.94704" lon="4.71435">
        <ele>182</ele>
        <time>2018-08-08T10:28:38Z</time>
      </trkpt>
      <trkpt lat="45.94701" lon="4.71439">
        <ele>182</ele>
        <time>2018-08-08T10:28:39Z</time>
      </trkpt>
      <trkpt lat="45.94694" lon="4.71436">
        <ele>182</ele>
        <time>2018-08-08T10:28:40Z</time>
      </trkpt>
      <trkpt lat="45.94686" lon="4.71438">
        <ele>182</ele>
        <time>2018-08-08T10:28:42Z</time>
      </trkpt>
      <trkpt lat="45.9468" lon="4.71438">
        <ele>182</ele>
        <time>2018-08-08T10:28:43Z</time>
      </trkpt>
      <trkpt lat="45.94675" lon="4.71438">
        <ele>182</ele>
        <time>2018-08-08T10:28:44Z</time>
      </trkpt>
      <trkpt lat="45.94667" lon="4.71434">
        <ele>183</ele>
        <time>2018-08-08T10:28:45Z</time>
      </trkpt>
      <trkpt lat="45.94662" lon="4.71434">
        <ele>182</ele>
        <time>2018-08-08T10:28:46Z</time>
      </trkpt>
      <trkpt lat="45.94656" lon="4.71434">
        <ele>182</ele>
        <time>2018-08-08T10:28:47Z</time>
      </trkpt>
      <trkpt lat="45.94652" lon="4.71434">
        <ele>182</ele>
        <time>2018-08-08T10:28:48Z</time>
      </trkpt>
      <trkpt lat="45.94644" lon="4.71433">
        <ele>182</ele>
        <time>2018-08-08T10:28:49Z</time>
      </trkpt>
      <trkpt lat="45.9464" lon="4.71435">
        <ele>182</ele>
        <time>2018-08-08T10:28:50Z</time>
      </trkpt>
      <trkpt lat="45.94633" lon="4.71434">
        <ele>182</ele>
        <time>2018-08-08T10:28:51Z</time>
      </trkpt>
      <trkpt lat="45.94627" lon="4.71434">
        <ele>182</ele>
        <time>2018-08-08T10:28:52Z</time>
      </trkpt>
      <trkpt lat="45.94622" lon="4.71432">
        <ele>182</ele>
        <time>2018-08-08T10:28:53Z</time>
      </trkpt>
      <trkpt lat="45.94616" lon="4.71431">
        <ele>182</ele>
        <time>2018-08-08T10:28:54Z</time>
      </trkpt>
      <trkpt lat="45.94611" lon="4.71431">
        <ele>182</ele>
        <time>2018-08-08T10:28:55Z</time>
      </trkpt>
      <trkpt lat="45.94605" lon="4.7143">
        <ele>182</ele>
        <time>2018-08-08T10:28:56Z</time>
      </trkpt>
      <trkpt lat="45.94598" lon="4.71429">
        <ele>183</ele>
        <time>2018-08-08T10:28:57Z</time>
      </trkpt>
      <trkpt lat="45.94592" lon="4.71429">
        <ele>183</ele>
        <time>2018-08-08T10:28:58Z</time>
      </trkpt>
      <trkpt lat="45.94586" lon="4.71429">
        <ele>183</ele>
        <time>2018-08-08T10:28:59Z</time>
      </trkpt>
      <trkpt lat="45.94579" lon="4.71428">
        <ele>183</ele>
        <time>2018-08-08T10:29:00Z</time>
      </trkpt>
      <trkpt lat="45.94573" lon="4.71428">
        <ele>183</ele>
        <time>2018-08-08T10:29:01Z</time>
      </trkpt>
      <trkpt lat="45.94566" lon="4.71427">
        <ele>182</ele>
        <time>2018-08-08T10:29:02Z</time>
      </trkpt>
      <trkpt lat="45.94561" lon="4.71431">
        <ele>182</ele>
        <time>2018-08-08T10:29:03Z</time>
      </trkpt>
      <trkpt lat="45.94556" lon="4.71435">
        <ele>181</ele>
        <time>2018-08-08T10:29:04Z</time>
      </trkpt>
      <trkpt lat="45.9455" lon="4.71437">
        <ele>181</ele>
        <time>2018-08-08T10:29:05Z</time>
      </trkpt>
      <trkpt lat="45.94542" lon="4.71437">
        <ele>181</ele>
        <time>2018-08-08T10:29:06Z</time>
      </trkpt>
      <trkpt lat="45.94535" lon="4.71439">
        <ele>181</ele>
        <time>2018-08-08T10:29:07Z</time>
      </trkpt>
      <trkpt lat="45.94529" lon="4.71444">
        <ele>180</ele>
        <time>2018-08-08T10:29:08Z</time>
      </trkpt>
      <trkpt lat="45.94526" lon="4.71449">
        <ele>180</ele>
        <time>2018-08-08T10:29:09Z</time>
      </trkpt>
      <trkpt lat="45.94517" lon="4.71449">
        <ele>180</ele>
        <time>2018-08-08T10:29:10Z</time>
      </trkpt>
      <trkpt lat="45.94511" lon="4.71449">
        <ele>180</ele>
        <time>2018-08-08T10:29:11Z</time>
      </trkpt>
      <trkpt lat="45.94504" lon="4.71454">
        <ele>180</ele>
        <time>2018-08-08T10:29:12Z</time>
      </trkpt>
      <trkpt lat="45.94497" lon="4.71455">
        <ele>179</ele>
        <time>2018-08-08T10:29:13Z</time>
      </trkpt>
      <trkpt lat="45.94489" lon="4.71457">
        <ele>179</ele>
        <time>2018-08-08T10:29:14Z</time>
      </trkpt>
      <trkpt lat="45.94482" lon="4.7146">
        <ele>179</ele>
        <time>2018-08-08T10:29:15Z</time>
      </trkpt>
      <trkpt lat="45.94475" lon="4.71465">
        <ele>179</ele>
        <time>2018-08-08T10:29:16Z</time>
      </trkpt>
      <trkpt lat="45.94469" lon="4.71467">
        <ele>179</ele>
        <time>2018-08-08T10:29:17Z</time>
      </trkpt>
      <trkpt lat="45.94461" lon="4.71468">
        <ele>179</ele>
        <time>2018-08-08T10:29:18Z</time>
      </trkpt>
      <trkpt lat="45.94453" lon="4.7147">
        <ele>179</ele>
        <time>2018-08-08T10:29:19Z</time>
      </trkpt>
      <trkpt lat="45.94444" lon="4.7147">
        <ele>179</ele>
        <time>2018-08-08T10:29:20Z</time>
      </trkpt>
      <trkpt lat="45.94438" lon="4.71473">
        <ele>179</ele>
        <time>2018-08-08T10:29:21Z</time>
      </trkpt>
      <trkpt lat="45.94429" lon="4.71474">
        <ele>179</ele>
        <time>2018-08-08T10:29:22Z</time>
      </trkpt>
      <trkpt lat="45.94423" lon="4.71477">
        <ele>179</ele>
        <time>2018-08-08T10:29:23Z</time>
      </trkpt>
      <trkpt lat="45.94416" lon="4.7148">
        <ele>178</ele>
        <time>2018-08-08T10:29:24Z</time>
      </trkpt>
      <trkpt lat="45.94409" lon="4.71485">
        <ele>178</ele>
        <time>2018-08-08T10:29:25Z</time>
      </trkpt>
      <trkpt lat="45.94402" lon="4.71487">
        <ele>178</ele>
        <time>2018-08-08T10:29:26Z</time>
      </trkpt>
      <trkpt lat="45.94395" lon="4.71492">
        <ele>178</ele>
        <time>2018-08-08T10:29:27Z</time>
      </trkpt>
      <trkpt lat="45.9439" lon="4.71495">
        <ele>177</ele>
        <time>2018-08-08T10:29:28Z</time>
      </trkpt>
      <trkpt lat="45.94383" lon="4.71498">
        <ele>177</ele>
        <time>2018-08-08T10:29:29Z</time>
      </trkpt>
      <trkpt lat="45.94376" lon="4.71502">
        <ele>177</ele>
        <time>2018-08-08T10:29:30Z</time>
      </trkpt>
      <trkpt lat="45.94369" lon="4.71506">
        <ele>176</ele>
        <time>2018-08-08T10:29:31Z</time>
      </trkpt>
      <trkpt lat="45.9436" lon="4.7151">
        <ele>176</ele>
        <time>2018-08-08T10:29:32Z</time>
      </trkpt>
      <trkpt lat="45.94352" lon="4.71512">
        <ele>176</ele>
        <time>2018-08-08T10:29:33Z</time>
      </trkpt>
      <trkpt lat="45.94342" lon="4.71513">
        <ele>176</ele>
        <time>2018-08-08T10:29:34Z</time>
      </trkpt>
      <trkpt lat="45.94337" lon="4.71517">
        <ele>176</ele>
        <time>2018-08-08T10:29:35Z</time>
      </trkpt>
      <trkpt lat="45.94331" lon="4.7152">
        <ele>176</ele>
        <time>2018-08-08T10:29:36Z</time>
      </trkpt>
      <trkpt lat="45.94324" lon="4.71522">
        <ele>176</ele>
        <time>2018-08-08T10:29:37Z</time>
      </trkpt>
      <trkpt lat="45.94316" lon="4.71523">
        <ele>176</ele>
        <time>2018-08-08T10:29:38Z</time>
      </trkpt>
      <trkpt lat="45.94308" lon="4.71525">
        <ele>175</ele>
        <time>2018-08-08T10:29:39Z</time>
      </trkpt>
      <trkpt lat="45.94301" lon="4.71528">
        <ele>175</ele>
        <time>2018-08-08T10:29:40Z</time>
      </trkpt>
      <trkpt lat="45.94296" lon="4.71531">
        <ele>175</ele>
        <time>2018-08-08T10:29:41Z</time>
      </trkpt>
      <trkpt lat="45.94288" lon="4.71533">
        <ele>175</ele>
        <time>2018-08-08T10:29:42Z</time>
      </trkpt>
      <trkpt lat="45.94282" lon="4.71535">
        <ele>175</ele>
        <time>2018-08-08T10:29:43Z</time>
      </trkpt>
      <trkpt lat="45.94274" lon="4.71536">
        <ele>175</ele>
        <time>2018-08-08T10:29:44Z</time>
      </trkpt>
      <trkpt lat="45.94268" lon="4.7154">
        <ele>175</ele>
        <time>2018-08-08T10:29:45Z</time>
      </trkpt>
      <trkpt lat="45.94263" lon="4.71544">
        <ele>175</ele>
        <time>2018-08-08T10:29:46Z</time>
      </trkpt>
      <trkpt lat="45.94258" lon="4.71548">
        <ele>175</ele>
        <time>2018-08-08T10:29:47Z</time>
      </trkpt>
      <trkpt lat="45.94251" lon="4.7155">
        <ele>175</ele>
        <time>2018-08-08T10:29:48Z</time>
      </trkpt>
      <trkpt lat="45.94247" lon="4.71553">
        <ele>174</ele>
        <time>2018-08-08T10:29:49Z</time>
      </trkpt>
      <trkpt lat="45.94241" lon="4.71556">
        <ele>174</ele>
        <time>2018-08-08T10:29:50Z</time>
      </trkpt>
      <trkpt lat="45.94235" lon="4.71559">
        <ele>174</ele>
        <time>2018-08-08T10:29:51Z</time>
      </trkpt>
      <trkpt lat="45.94229" lon="4.7156">
        <ele>174</ele>
        <time>2018-08-08T10:29:52Z</time>
      </trkpt>
      <trkpt lat="45.94223" lon="4.71563">
        <ele>174</ele>
        <time>2018-08-08T10:29:53Z</time>
      </trkpt>
      <trkpt lat="45.94218" lon="4.71565">
        <ele>174</ele>
        <time>2018-08-08T10:29:54Z</time>
      </trkpt>
      <trkpt lat="45.94212" lon="4.71566">
        <ele>174</ele>
        <time>2018-08-08T10:29:55Z</time>
      </trkpt>
      <trkpt lat="45.94206" lon="4.7157">
        <ele>174</ele>
        <time>2018-08-08T10:29:56Z</time>
      </trkpt>
      <trkpt lat="45.94199" lon="4.7157">
        <ele>174</ele>
        <time>2018-08-08T10:29:57Z</time>
      </trkpt>
      <trkpt lat="45.94193" lon="4.71574">
        <ele>174</ele>
        <time>2018-08-08T10:29:58Z</time>
      </trkpt>
      <trkpt lat="45.94187" lon="4.71577">
        <ele>174</ele>
        <time>2018-08-08T10:29:59Z</time>
      </trkpt>
      <trkpt lat="45.94181" lon="4.71582">
        <ele>174</ele>
        <time>2018-08-08T10:30:00Z</time>
      </trkpt>
      <trkpt lat="45.94178" lon="4.71585">
        <ele>174</ele>
        <time>2018-08-08T10:30:01Z</time>
      </trkpt>
      <trkpt lat="45.94171" lon="4.71587">
        <ele>174</ele>
        <time>2018-08-08T10:30:02Z</time>
      </trkpt>
      <trkpt lat="45.94164" lon="4.71587">
        <ele>174</ele>
        <time>2018-08-08T10:30:03Z</time>
      </trkpt>
      <trkpt lat="45.94159" lon="4.71591">
        <ele>174</ele>
        <time>2018-08-08T10:30:04Z</time>
      </trkpt>
      <trkpt lat="45.94153" lon="4.71595">
        <ele>173</ele>
        <time>2018-08-08T10:30:05Z</time>
      </trkpt>
      <trkpt lat="45.94147" lon="4.71598">
        <ele>173</ele>
        <time>2018-08-08T10:30:06Z</time>
      </trkpt>
      <trkpt lat="45.94141" lon="4.716">
        <ele>173</ele>
        <time>2018-08-08T10:30:07Z</time>
      </trkpt>
      <trkpt lat="45.94135" lon="4.71603">
        <ele>173</ele>
        <time>2018-08-08T10:30:08Z</time>
      </trkpt>
      <trkpt lat="45.94129" lon="4.71606">
        <ele>173</ele>
        <time>2018-08-08T10:30:09Z</time>
      </trkpt>
      <trkpt lat="45.94122" lon="4.71607">
        <ele>173</ele>
        <time>2018-08-08T10:30:10Z</time>
      </trkpt>
      <trkpt lat="45.94116" lon="4.71609">
        <ele>173</ele>
        <time>2018-08-08T10:30:11Z</time>
      </trkpt>
      <trkpt lat="45.94109" lon="4.71612">
        <ele>173</ele>
        <time>2018-08-08T10:30:12Z</time>
      </trkpt>
      <trkpt lat="45.94103" lon="4.71614">
        <ele>173</ele>
        <time>2018-08-08T10:30:13Z</time>
      </trkpt>
      <trkpt lat="45.94098" lon="4.71618">
        <ele>173</ele>
        <time>2018-08-08T10:30:14Z</time>
      </trkpt>
      <trkpt lat="45.94091" lon="4.71618">
        <ele>173</ele>
        <time>2018-08-08T10:30:15Z</time>
      </trkpt>
      <trkpt lat="45.94085" lon="4.7162">
        <ele>173</ele>
        <time>2018-08-08T10:30:16Z</time>
      </trkpt>
      <trkpt lat="45.9408" lon="4.71623">
        <ele>174</ele>
        <time>2018-08-08T10:30:17Z</time>
      </trkpt>
      <trkpt lat="45.94073" lon="4.71624">
        <ele>174</ele>
        <time>2018-08-08T10:30:18Z</time>
      </trkpt>
      <trkpt lat="45.94067" lon="4.71626">
        <ele>174</ele>
        <time>2018-08-08T10:30:19Z</time>
      </trkpt>
      <trkpt lat="45.9406" lon="4.71627">
        <ele>174</ele>
        <time>2018-08-08T10:30:20Z</time>
      </trkpt>
      <trkpt lat="45.94054" lon="4.7163">
        <ele>174</ele>
        <time>2018-08-08T10:30:21Z</time>
      </trkpt>
      <trkpt lat="45.9405" lon="4.71632">
        <ele>175</ele>
        <time>2018-08-08T10:30:22Z</time>
      </trkpt>
      <trkpt lat="45.94042" lon="4.71632">
        <ele>175</ele>
        <time>2018-08-08T10:30:23Z</time>
      </trkpt>
      <trkpt lat="45.9404" lon="4.71635">
        <ele>175</ele>
        <time>2018-08-08T10:30:24Z</time>
      </trkpt>
      <trkpt lat="45.94033" lon="4.71637">
        <ele>175</ele>
        <time>2018-08-08T10:30:25Z</time>
      </trkpt>
      <trkpt lat="45.94029" lon="4.71641">
        <ele>175</ele>
        <time>2018-08-08T10:30:26Z</time>
      </trkpt>
      <trkpt lat="45.94024" lon="4.71644">
        <ele>175</ele>
        <time>2018-08-08T10:30:27Z</time>
      </trkpt>
      <trkpt lat="45.94017" lon="4.71647">
        <ele>176</ele>
        <time>2018-08-08T10:30:28Z</time>
      </trkpt>
      <trkpt lat="45.9401" lon="4.71649">
        <ele>176</ele>
        <time>2018-08-08T10:30:29Z</time>
      </trkpt>
      <trkpt lat="45.94004" lon="4.71652">
        <ele>176</ele>
        <time>2018-08-08T10:30:30Z</time>
      </trkpt>
      <trkpt lat="45.93998" lon="4.71655">
        <ele>177</ele>
        <time>2018-08-08T10:30:31Z</time>
      </trkpt>
      <trkpt lat="45.93993" lon="4.71657">
        <ele>177</ele>
        <time>2018-08-08T10:30:32Z</time>
      </trkpt>
      <trkpt lat="45.93987" lon="4.71657">
        <ele>177</ele>
        <time>2018-08-08T10:30:33Z</time>
      </trkpt>
      <trkpt lat="45.9398" lon="4.71657">
        <ele>177</ele>
        <time>2018-08-08T10:30:34Z</time>
      </trkpt>
      <trkpt lat="45.93975" lon="4.71661">
        <ele>177</ele>
        <time>2018-08-08T10:30:35Z</time>
      </trkpt>
      <trkpt lat="45.93967" lon="4.71661">
        <ele>177</ele>
        <time>2018-08-08T10:30:36Z</time>
      </trkpt>
      <trkpt lat="45.93964" lon="4.71664">
        <ele>177</ele>
        <time>2018-08-08T10:30:37Z</time>
      </trkpt>
      <trkpt lat="45.93958" lon="4.71667">
        <ele>176</ele>
        <time>2018-08-08T10:30:38Z</time>
      </trkpt>
      <trkpt lat="45.93952" lon="4.71669">
        <ele>175</ele>
        <time>2018-08-08T10:30:39Z</time>
      </trkpt>
      <trkpt lat="45.93948" lon="4.7167">
        <ele>175</ele>
        <time>2018-08-08T10:30:40Z</time>
      </trkpt>
      <trkpt lat="45.9394" lon="4.71672">
        <ele>175</ele>
        <time>2018-08-08T10:30:42Z</time>
      </trkpt>
      <trkpt lat="45.93935" lon="4.71674">
        <ele>175</ele>
        <time>2018-08-08T10:30:43Z</time>
      </trkpt>
      <trkpt lat="45.9393" lon="4.71677">
        <ele>175</ele>
        <time>2018-08-08T10:30:44Z</time>
      </trkpt>
      <trkpt lat="45.93923" lon="4.71678">
        <ele>175</ele>
        <time>2018-08-08T10:30:45Z</time>
      </trkpt>
      <trkpt lat="45.93919" lon="4.71682">
        <ele>175</ele>
        <time>2018-08-08T10:30:46Z</time>
      </trkpt>
      <trkpt lat="45.93913" lon="4.71684">
        <ele>175</ele>
        <time>2018-08-08T10:30:47Z</time>
      </trkpt>
      <trkpt lat="45.93907" lon="4.71686">
        <ele>174</ele>
        <time>2018-08-08T10:30:48Z</time>
      </trkpt>
      <trkpt lat="45.93902" lon="4.71688">
        <ele>174</ele>
        <time>2018-08-08T10:30:49Z</time>
      </trkpt>
      <trkpt lat="45.93895" lon="4.71689">
        <ele>174</ele>
        <time>2018-08-08T10:30:50Z</time>
      </trkpt>
      <trkpt lat="45.93888" lon="4.71691">
        <ele>174</ele>
        <time>2018-08-08T10:30:51Z</time>
      </trkpt>
      <trkpt lat="45.93881" lon="4.71694">
        <ele>174</ele>
        <time>2018-08-08T10:30:52Z</time>
      </trkpt>
      <trkpt lat="45.93876" lon="4.71696">
        <ele>174</ele>
        <time>2018-08-08T10:30:53Z</time>
      </trkpt>
      <trkpt lat="45.9387" lon="4.71699">
        <ele>174</ele>
        <time>2018-08-08T10:30:54Z</time>
      </trkpt>
      <trkpt lat="45.93864" lon="4.71702">
        <ele>174</ele>
        <time>2018-08-08T10:30:55Z</time>
      </trkpt>
      <trkpt lat="45.93859" lon="4.71704">
        <ele>174</ele>
        <time>2018-08-08T10:30:56Z</time>
      </trkpt>
      <trkpt lat="45.93853" lon="4.71707">
        <ele>174</ele>
        <time>2018-08-08T10:30:57Z</time>
      </trkpt>
      <trkpt lat="45.93848" lon="4.71708">
        <ele>174</ele>
        <time>2018-08-08T10:30:58Z</time>
      </trkpt>
      <trkpt lat="45.93842" lon="4.71709">
        <ele>175</ele>
        <time>2018-08-08T10:30:59Z</time>
      </trkpt>
      <trkpt lat="45.93838" lon="4.71711">
        <ele>175</ele>
        <time>2018-08-08T10:31:00Z</time>
      </trkpt>
      <trkpt lat="45.93833" lon="4.71715">
        <ele>175</ele>
        <time>2018-08-08T10:31:01Z</time>
      </trkpt>
      <trkpt lat="45.93824" lon="4.71715">
        <ele>175</ele>
        <time>2018-08-08T10:31:03Z</time>
      </trkpt>
      <trkpt lat="45.93821" lon="4.71717">
        <ele>175</ele>
        <time>2018-08-08T10:31:04Z</time>
      </trkpt>
      <trkpt lat="45.93814" lon="4.71718">
        <ele>175</ele>
        <time>2018-08-08T10:31:05Z</time>
      </trkpt>
      <trkpt lat="45.9381" lon="4.71723">
        <ele>175</ele>
        <time>2018-08-08T10:31:06Z</time>
      </trkpt>
      <trkpt lat="45.93804" lon="4.71724">
        <ele>175</ele>
        <time>2018-08-08T10:31:07Z</time>
      </trkpt>
      <trkpt lat="45.93798" lon="4.71727">
        <ele>175</ele>
        <time>2018-08-08T10:31:08Z</time>
      </trkpt>
      <trkpt lat="45.93793" lon="4.71727">
        <ele>175</ele>
        <time>2018-08-08T10:31:09Z</time>
      </trkpt>
      <trkpt lat="45.93787" lon="4.7173">
        <ele>175</ele>
        <time>2018-08-08T10:31:10Z</time>
      </trkpt>
      <trkpt lat="45.9378" lon="4.71732">
        <ele>175</ele>
        <time>2018-08-08T10:31:11Z</time>
      </trkpt>
      <trkpt lat="45.93775" lon="4.71733">
        <ele>175</ele>
        <time>2018-08-08T10:31:12Z</time>
      </trkpt>
      <trkpt lat="45.93769" lon="4.71735">
        <ele>175</ele>
        <time>2018-08-08T10:31:13Z</time>
      </trkpt>
      <trkpt lat="45.93764" lon="4.71737">
        <ele>175</ele>
        <time>2018-08-08T10:31:14Z</time>
      </trkpt>
      <trkpt lat="45.93758" lon="4.7174">
        <ele>175</ele>
        <time>2018-08-08T10:31:15Z</time>
      </trkpt>
      <trkpt lat="45.93754" lon="4.71742">
        <ele>175</ele>
        <time>2018-08-08T10:31:16Z</time>
      </trkpt>
      <trkpt lat="45.9375" lon="4.71744">
        <ele>175</ele>
        <time>2018-08-08T10:31:17Z</time>
      </trkpt>
      <trkpt lat="45.93744" lon="4.71747">
        <ele>175</ele>
        <time>2018-08-08T10:31:18Z</time>
      </trkpt>
      <trkpt lat="45.9374" lon="4.71749">
        <ele>176</ele>
        <time>2018-08-08T10:31:19Z</time>
      </trkpt>
      <trkpt lat="45.93735" lon="4.7175">
        <ele>176</ele>
        <time>2018-08-08T10:31:20Z</time>
      </trkpt>
      <trkpt lat="45.93732" lon="4.71757">
        <ele>176</ele>
        <time>2018-08-08T10:31:21Z</time>
      </trkpt>
      <trkpt lat="45.93727" lon="4.71762">
        <ele>176</ele>
        <time>2018-08-08T10:31:22Z</time>
      </trkpt>
      <trkpt lat="45.93721" lon="4.71765">
        <ele>176</ele>
        <time>2018-08-08T10:31:23Z</time>
      </trkpt>
      <trkpt lat="45.93715" lon="4.71766">
        <ele>176</ele>
        <time>2018-08-08T10:31:24Z</time>
      </trkpt>
      <trkpt lat="45.93712" lon="4.71775">
        <ele>176</ele>
        <time>2018-08-08T10:31:25Z</time>
      </trkpt>
      <trkpt lat="45.93709" lon="4.71781">
        <ele>176</ele>
        <time>2018-08-08T10:31:26Z</time>
      </trkpt>
      <trkpt lat="45.93706" lon="4.71785">
        <ele>176</ele>
        <time>2018-08-08T10:31:27Z</time>
      </trkpt>
      <trkpt lat="45.93703" lon="4.71791">
        <ele>176</ele>
        <time>2018-08-08T10:31:28Z</time>
      </trkpt>
      <trkpt lat="45.93704" lon="4.71799">
        <ele>176</ele>
        <time>2018-08-08T10:31:29Z</time>
      </trkpt>
      <trkpt lat="45.93703" lon="4.71806">
        <ele>176</ele>
        <time>2018-08-08T10:31:30Z</time>
      </trkpt>
      <trkpt lat="45.93699" lon="4.71813">
        <ele>176</ele>
        <time>2018-08-08T10:31:31Z</time>
      </trkpt>
      <trkpt lat="45.93697" lon="4.71819">
        <ele>176</ele>
        <time>2018-08-08T10:31:32Z</time>
      </trkpt>
      <trkpt lat="45.93694" lon="4.7183">
        <ele>176</ele>
        <time>2018-08-08T10:31:34Z</time>
      </trkpt>
      <trkpt lat="45.93692" lon="4.71837">
        <ele>175</ele>
        <time>2018-08-08T10:31:35Z</time>
      </trkpt>
      <trkpt lat="45.93691" lon="4.71848">
        <ele>175</ele>
        <time>2018-08-08T10:31:36Z</time>
      </trkpt>
      <trkpt lat="45.93687" lon="4.71852">
        <ele>175</ele>
        <time>2018-08-08T10:31:37Z</time>
      </trkpt>
      <trkpt lat="45.93684" lon="4.71859">
        <ele>175</ele>
        <time>2018-08-08T10:31:38Z</time>
      </trkpt>
      <trkpt lat="45.93682" lon="4.71869">
        <ele>175</ele>
        <time>2018-08-08T10:31:39Z</time>
      </trkpt>
      <trkpt lat="45.93679" lon="4.71877">
        <ele>175</ele>
        <time>2018-08-08T10:31:40Z</time>
      </trkpt>
      <trkpt lat="45.93675" lon="4.71885">
        <ele>175</ele>
        <time>2018-08-08T10:31:41Z</time>
      </trkpt>
      <trkpt lat="45.93671" lon="4.71893">
        <ele>175</ele>
        <time>2018-08-08T10:31:42Z</time>
      </trkpt>
      <trkpt lat="45.93667" lon="4.71906">
        <ele>175</ele>
        <time>2018-08-08T10:31:43Z</time>
      </trkpt>
      <trkpt lat="45.93665" lon="4.71919">
        <ele>175</ele>
        <time>2018-08-08T10:31:44Z</time>
      </trkpt>
      <trkpt lat="45.93663" lon="4.71928">
        <ele>175</ele>
        <time>2018-08-08T10:31:45Z</time>
      </trkpt>
      <trkpt lat="45.93658" lon="4.71935">
        <ele>175</ele>
        <time>2018-08-08T10:31:46Z</time>
      </trkpt>
      <trkpt lat="45.93654" lon="4.71941">
        <ele>175</ele>
        <time>2018-08-08T10:31:47Z</time>
      </trkpt>
      <trkpt lat="45.9365" lon="4.71948">
        <ele>175</ele>
        <time>2018-08-08T10:31:48Z</time>
      </trkpt>
      <trkpt lat="45.93646" lon="4.71956">
        <ele>175</ele>
        <time>2018-08-08T10:31:49Z</time>
      </trkpt>
      <trkpt lat="45.93644" lon="4.71964">
        <ele>175</ele>
        <time>2018-08-08T10:31:50Z</time>
      </trkpt>
      <trkpt lat="45.93643" lon="4.71975">
        <ele>175</ele>
        <time>2018-08-08T10:31:51Z</time>
      </trkpt>
      <trkpt lat="45.9364" lon="4.71984">
        <ele>175</ele>
        <time>2018-08-08T10:31:52Z</time>
      </trkpt>
      <trkpt lat="45.93635" lon="4.71989">
        <ele>175</ele>
        <time>2018-08-08T10:31:53Z</time>
      </trkpt>
      <trkpt lat="45.93632" lon="4.71998">
        <ele>175</ele>
        <time>2018-08-08T10:31:54Z</time>
      </trkpt>
      <trkpt lat="45.93626" lon="4.72004">
        <ele>175</ele>
        <time>2018-08-08T10:31:55Z</time>
      </trkpt>
      <trkpt lat="45.93627" lon="4.72017">
        <ele>175</ele>
        <time>2018-08-08T10:31:56Z</time>
      </trkpt>
      <trkpt lat="45.93626" lon="4.72023">
        <ele>175</ele>
        <time>2018-08-08T10:31:57Z</time>
      </trkpt>
      <trkpt lat="45.93623" lon="4.72031">
        <ele>175</ele>
        <time>2018-08-08T10:31:58Z</time>
      </trkpt>
      <trkpt lat="45.93621" lon="4.72037">
        <ele>175</ele>
        <time>2018-08-08T10:31:59Z</time>
      </trkpt>
      <trkpt lat="45.93618" lon="4.72046">
        <ele>175</ele>
        <time>2018-08-08T10:32:00Z</time>
      </trkpt>
      <trkpt lat="45.93614" lon="4.72051">
        <ele>175</ele>
        <time>2018-08-08T10:32:01Z</time>
      </trkpt>
      <trkpt lat="45.93607" lon="4.7205">
        <ele>175</ele>
        <time>2018-08-08T10:32:02Z</time>
      </trkpt>
      <trkpt lat="45.93605" lon="4.72057">
        <ele>175</ele>
        <time>2018-08-08T10:32:03Z</time>
      </trkpt>
      <trkpt lat="45.93603" lon="4.72064">
        <ele>175</ele>
        <time>2018-08-08T10:32:04Z</time>
      </trkpt>
      <trkpt lat="45.93603" lon="4.72071">
        <ele>175</ele>
        <time>2018-08-08T10:32:05Z</time>
      </trkpt>
      <trkpt lat="45.93601" lon="4.72077">
        <ele>175</ele>
        <time>2018-08-08T10:32:06Z</time>
      </trkpt>
      <trkpt lat="45.93595" lon="4.72086">
        <ele>175</ele>
        <time>2018-08-08T10:32:08Z</time>
      </trkpt>
      <trkpt lat="45.93595" lon="4.72089">
        <ele>175</ele>
        <time>2018-08-08T10:32:09Z</time>
      </trkpt>
      <trkpt lat="45.93594" lon="4.72095">
        <ele>175</ele>
        <time>2018-08-08T10:32:11Z</time>
      </trkpt>
      <trkpt lat="45.93591" lon="4.72107">
        <ele>174</ele>
        <time>2018-08-08T10:32:12Z</time>
      </trkpt>
      <trkpt lat="45.93588" lon="4.72117">
        <ele>174</ele>
        <time>2018-08-08T10:32:13Z</time>
      </trkpt>
      <trkpt lat="45.93585" lon="4.72117">
        <ele>174</ele>
        <time>2018-08-08T10:32:14Z</time>
      </trkpt>
      <trkpt lat="45.93579" lon="4.72125">
        <ele>175</ele>
        <time>2018-08-08T10:32:16Z</time>
      </trkpt>
      <trkpt lat="45.93577" lon="4.72134">
        <ele>174</ele>
        <time>2018-08-08T10:32:17Z</time>
      </trkpt>
      <trkpt lat="45.93573" lon="4.72142">
        <ele>174</ele>
        <time>2018-08-08T10:32:18Z</time>
      </trkpt>
      <trkpt lat="45.93572" lon="4.72149">
        <ele>174</ele>
        <time>2018-08-08T10:32:19Z</time>
      </trkpt>
      <trkpt lat="45.93569" lon="4.72156">
        <ele>174</ele>
        <time>2018-08-08T10:32:20Z</time>
      </trkpt>
      <trkpt lat="45.93567" lon="4.72165">
        <ele>174</ele>
        <time>2018-08-08T10:32:21Z</time>
      </trkpt>
      <trkpt lat="45.93563" lon="4.72172">
        <ele>173</ele>
        <time>2018-08-08T10:32:22Z</time>
      </trkpt>
      <trkpt lat="45.9356" lon="4.72181">
        <ele>173</ele>
        <time>2018-08-08T10:32:23Z</time>
      </trkpt>
      <trkpt lat="45.93558" lon="4.72188">
        <ele>173</ele>
        <time>2018-08-08T10:32:24Z</time>
      </trkpt>
      <trkpt lat="45.93556" lon="4.72196">
        <ele>173</ele>
        <time>2018-08-08T10:32:25Z</time>
      </trkpt>
      <trkpt lat="45.93554" lon="4.72204">
        <ele>173</ele>
        <time>2018-08-08T10:32:26Z</time>
      </trkpt>
      <trkpt lat="45.9355" lon="4.72211">
        <ele>173</ele>
        <time>2018-08-08T10:32:27Z</time>
      </trkpt>
      <trkpt lat="45.93548" lon="4.72218">
        <ele>172</ele>
        <time>2018-08-08T10:32:28Z</time>
      </trkpt>
      <trkpt lat="45.93545" lon="4.72223">
        <ele>172</ele>
        <time>2018-08-08T10:32:29Z</time>
      </trkpt>
      <trkpt lat="45.93543" lon="4.72229">
        <ele>172</ele>
        <time>2018-08-08T10:32:30Z</time>
      </trkpt>
      <trkpt lat="45.93541" lon="4.72238">
        <ele>172</ele>
        <time>2018-08-08T10:32:31Z</time>
      </trkpt>
      <trkpt lat="45.9354" lon="4.72245">
        <ele>172</ele>
        <time>2018-08-08T10:32:32Z</time>
      </trkpt>
      <trkpt lat="45.93536" lon="4.7225">
        <ele>172</ele>
        <time>2018-08-08T10:32:33Z</time>
      </trkpt>
      <trkpt lat="45.93532" lon="4.72256">
        <ele>172</ele>
        <time>2018-08-08T10:32:34Z</time>
      </trkpt>
      <trkpt lat="45.93531" lon="4.72265">
        <ele>172</ele>
        <time>2018-08-08T10:32:35Z</time>
      </trkpt>
      <trkpt lat="45.93527" lon="4.72271">
        <ele>172</ele>
        <time>2018-08-08T10:32:36Z</time>
      </trkpt>
      <trkpt lat="45.93523" lon="4.72279">
        <ele>172</ele>
        <time>2018-08-08T10:32:37Z</time>
      </trkpt>
      <trkpt lat="45.9352" lon="4.72286">
        <ele>172</ele>
        <time>2018-08-08T10:32:38Z</time>
      </trkpt>
      <trkpt lat="45.93517" lon="4.72293">
        <ele>172</ele>
        <time>2018-08-08T10:32:39Z</time>
      </trkpt>
      <trkpt lat="45.93514" lon="4.72302">
        <ele>172</ele>
        <time>2018-08-08T10:32:40Z</time>
      </trkpt>
      <trkpt lat="45.93509" lon="4.72305">
        <ele>173</ele>
        <time>2018-08-08T10:32:41Z</time>
      </trkpt>
      <trkpt lat="45.93502" lon="4.72308">
        <ele>173</ele>
        <time>2018-08-08T10:32:42Z</time>
      </trkpt>
      <trkpt lat="45.93496" lon="4.72316">
        <ele>173</ele>
        <time>2018-08-08T10:32:43Z</time>
      </trkpt>
      <trkpt lat="45.93492" lon="4.7232">
        <ele>173</ele>
        <time>2018-08-08T10:32:44Z</time>
      </trkpt>
      <trkpt lat="45.93488" lon="4.72326">
        <ele>173</ele>
        <time>2018-08-08T10:32:45Z</time>
      </trkpt>
      <trkpt lat="45.93482" lon="4.72334">
        <ele>173</ele>
        <time>2018-08-08T10:32:46Z</time>
      </trkpt>
      <trkpt lat="45.9348" lon="4.72341">
        <ele>173</ele>
        <time>2018-08-08T10:32:47Z</time>
      </trkpt>
      <trkpt lat="45.93474" lon="4.72345">
        <ele>173</ele>
        <time>2018-08-08T10:32:48Z</time>
      </trkpt>
      <trkpt lat="45.93471" lon="4.7235">
        <ele>173</ele>
        <time>2018-08-08T10:32:49Z</time>
      </trkpt>
      <trkpt lat="45.93467" lon="4.72354">
        <ele>173</ele>
        <time>2018-08-08T10:32:50Z</time>
      </trkpt>
      <trkpt lat="45.93463" lon="4.72359">
        <ele>173</ele>
        <time>2018-08-08T10:32:51Z</time>
      </trkpt>
      <trkpt lat="45.93458" lon="4.72362">
        <ele>173</ele>
        <time>2018-08-08T10:32:52Z</time>
      </trkpt>
      <trkpt lat="45.93456" lon="4.72369">
        <ele>173</ele>
        <time>2018-08-08T10:32:53Z</time>
      </trkpt>
      <trkpt lat="45.93451" lon="4.72375">
        <ele>173</ele>
        <time>2018-08-08T10:32:54Z</time>
      </trkpt>
      <trkpt lat="45.93448" lon="4.72378">
        <ele>173</ele>
        <time>2018-08-08T10:32:55Z</time>
      </trkpt>
      <trkpt lat="45.93443" lon="4.72382">
        <ele>173</ele>
        <time>2018-08-08T10:32:56Z</time>
      </trkpt>
      <trkpt lat="45.9344" lon="4.72386">
        <ele>173</ele>
        <time>2018-08-08T10:32:57Z</time>
      </trkpt>
      <trkpt lat="45.93438" lon="4.72392">
        <ele>173</ele>
        <time>2018-08-08T10:32:58Z</time>
      </trkpt>
      <trkpt lat="45.9343" lon="4.72392">
        <ele>173</ele>
        <time>2018-08-08T10:32:59Z</time>
      </trkpt>
      <trkpt lat="45.93425" lon="4.72394">
        <ele>174</ele>
        <time>2018-08-08T10:33:00Z</time>
      </trkpt>
      <trkpt lat="45.9342" lon="4.72395">
        <ele>174</ele>
        <time>2018-08-08T10:33:01Z</time>
      </trkpt>
      <trkpt lat="45.93414" lon="4.72397">
        <ele>174</ele>
        <time>2018-08-08T10:33:02Z</time>
      </trkpt>
      <trkpt lat="45.9341" lon="4.72397">
        <ele>174</ele>
        <time>2018-08-08T10:33:03Z</time>
      </trkpt>
      <trkpt lat="45.93404" lon="4.72394">
        <ele>174</ele>
        <time>2018-08-08T10:33:04Z</time>
      </trkpt>
      <trkpt lat="45.934" lon="4.72395">
        <ele>174</ele>
        <time>2018-08-08T10:33:05Z</time>
      </trkpt>
      <trkpt lat="45.93395" lon="4.72395">
        <ele>174</ele>
        <time>2018-08-08T10:33:06Z</time>
      </trkpt>
      <trkpt lat="45.93391" lon="4.72397">
        <ele>174</ele>
        <time>2018-08-08T10:33:07Z</time>
      </trkpt>
      <trkpt lat="45.93387" lon="4.72405">
        <ele>174</ele>
        <time>2018-08-08T10:33:08Z</time>
      </trkpt>
      <trkpt lat="45.93384" lon="4.72409">
        <ele>174</ele>
        <time>2018-08-08T10:33:09Z</time>
      </trkpt>
      <trkpt lat="45.93386" lon="4.7242">
        <ele>173</ele>
        <time>2018-08-08T10:33:10Z</time>
      </trkpt>
      <trkpt lat="45.9339" lon="4.72429">
        <ele>173</ele>
        <time>2018-08-08T10:33:11Z</time>
      </trkpt>
      <trkpt lat="45.93391" lon="4.72436">
        <ele>173</ele>
        <time>2018-08-08T10:33:12Z</time>
      </trkpt>
      <trkpt lat="45.93393" lon="4.72444">
        <ele>173</ele>
        <time>2018-08-08T10:33:13Z</time>
      </trkpt>
      <trkpt lat="45.93393" lon="4.72452">
        <ele>173</ele>
        <time>2018-08-08T10:33:14Z</time>
      </trkpt>
      <trkpt lat="45.93391" lon="4.72458">
        <ele>173</ele>
        <time>2018-08-08T10:33:15Z</time>
      </trkpt>
      <trkpt lat="45.93389" lon="4.72464">
        <ele>173</ele>
        <time>2018-08-08T10:33:16Z</time>
      </trkpt>
      <trkpt lat="45.93384" lon="4.72469">
        <ele>173</ele>
        <time>2018-08-08T10:33:17Z</time>
      </trkpt>
      <trkpt lat="45.9338" lon="4.72474">
        <ele>173</ele>
        <time>2018-08-08T10:33:18Z</time>
      </trkpt>
      <trkpt lat="45.93375" lon="4.72479">
        <ele>173</ele>
        <time>2018-08-08T10:33:19Z</time>
      </trkpt>
      <trkpt lat="45.93371" lon="4.72484">
        <ele>173</ele>
        <time>2018-08-08T10:33:20Z</time>
      </trkpt>
      <trkpt lat="45.93365" lon="4.72487">
        <ele>173</ele>
        <time>2018-08-08T10:33:21Z</time>
      </trkpt>
      <trkpt lat="45.93361" lon="4.72493">
        <ele>173</ele>
        <time>2018-08-08T10:33:22Z</time>
      </trkpt>
      <trkpt lat="45.93357" lon="4.72498">
        <ele>173</ele>
        <time>2018-08-08T10:33:23Z</time>
      </trkpt>
      <trkpt lat="45.93351" lon="4.72502">
        <ele>172</ele>
        <time>2018-08-08T10:33:24Z</time>
      </trkpt>
      <trkpt lat="45.93346" lon="4.72507">
        <ele>172</ele>
        <time>2018-08-08T10:33:25Z</time>
      </trkpt>
      <trkpt lat="45.93342" lon="4.72511">
        <ele>172</ele>
        <time>2018-08-08T10:33:26Z</time>
      </trkpt>
      <trkpt lat="45.93339" lon="4.72516">
        <ele>172</ele>
        <time>2018-08-08T10:33:27Z</time>
      </trkpt>
      <trkpt lat="45.93334" lon="4.72518">
        <ele>172</ele>
        <time>2018-08-08T10:33:28Z</time>
      </trkpt>
      <trkpt lat="45.93329" lon="4.72522">
        <ele>172</ele>
        <time>2018-08-08T10:33:29Z</time>
      </trkpt>
      <trkpt lat="45.93327" lon="4.72531">
        <ele>172</ele>
        <time>2018-08-08T10:33:31Z</time>
      </trkpt>
      <trkpt lat="45.93324" lon="4.72534">
        <ele>172</ele>
        <time>2018-08-08T10:33:32Z</time>
      </trkpt>
      <trkpt lat="45.9332" lon="4.72538">
        <ele>172</ele>
        <time>2018-08-08T10:33:33Z</time>
      </trkpt>
      <trkpt lat="45.93317" lon="4.72543">
        <ele>172</ele>
        <time>2018-08-08T10:33:34Z</time>
      </trkpt>
      <trkpt lat="45.93311" lon="4.72549">
        <ele>172</ele>
        <time>2018-08-08T10:33:36Z</time>
      </trkpt>
      <trkpt lat="45.93308" lon="4.72553">
        <ele>172</ele>
        <time>2018-08-08T10:33:37Z</time>
      </trkpt>
      <trkpt lat="45.93306" lon="4.72561">
        <ele>172</ele>
        <time>2018-08-08T10:33:38Z</time>
      </trkpt>
      <trkpt lat="45.93303" lon="4.72566">
        <ele>171</ele>
        <time>2018-08-08T10:33:39Z</time>
      </trkpt>
      <trkpt lat="45.93298" lon="4.7257">
        <ele>171</ele>
        <time>2018-08-08T10:33:40Z</time>
      </trkpt>
      <trkpt lat="45.93294" lon="4.72573">
        <ele>171</ele>
        <time>2018-08-08T10:33:41Z</time>
      </trkpt>
      <trkpt lat="45.93289" lon="4.72579">
        <ele>171</ele>
        <time>2018-08-08T10:33:42Z</time>
      </trkpt>
      <trkpt lat="45.93283" lon="4.72584">
        <ele>170</ele>
        <time>2018-08-08T10:33:43Z</time>
      </trkpt>
      <trkpt lat="45.93279" lon="4.72589">
        <ele>170</ele>
        <time>2018-08-08T10:33:44Z</time>
      </trkpt>
      <trkpt lat="45.93274" lon="4.72595">
        <ele>170</ele>
        <time>2018-08-08T10:33:45Z</time>
      </trkpt>
      <trkpt lat="45.93271" lon="4.72599">
        <ele>170</ele>
        <time>2018-08-08T10:33:46Z</time>
      </trkpt>
      <trkpt lat="45.93268" lon="4.72605">
        <ele>170</ele>
        <time>2018-08-08T10:33:47Z</time>
      </trkpt>
      <trkpt lat="45.93262" lon="4.72609">
        <ele>170</ele>
        <time>2018-08-08T10:33:48Z</time>
      </trkpt>
      <trkpt lat="45.93258" lon="4.72614">
        <ele>170</ele>
        <time>2018-08-08T10:33:49Z</time>
      </trkpt>
      <trkpt lat="45.93254" lon="4.72619">
        <ele>170</ele>
        <time>2018-08-08T10:33:50Z</time>
      </trkpt>
      <trkpt lat="45.93251" lon="4.72623">
        <ele>170</ele>
        <time>2018-08-08T10:33:51Z</time>
      </trkpt>
      <trkpt lat="45.93247" lon="4.72629">
        <ele>170</ele>
        <time>2018-08-08T10:33:52Z</time>
      </trkpt>
      <trkpt lat="45.93242" lon="4.72633">
        <ele>170</ele>
        <time>2018-08-08T10:33:53Z</time>
      </trkpt>
      <trkpt lat="45.93239" lon="4.7264">
        <ele>170</ele>
        <time>2018-08-08T10:33:54Z</time>
      </trkpt>
      <trkpt lat="45.93235" lon="4.72645">
        <ele>170</ele>
        <time>2018-08-08T10:33:55Z</time>
      </trkpt>
      <trkpt lat="45.9323" lon="4.72651">
        <ele>170</ele>
        <time>2018-08-08T10:33:56Z</time>
      </trkpt>
      <trkpt lat="45.93225" lon="4.72655">
        <ele>170</ele>
        <time>2018-08-08T10:33:57Z</time>
      </trkpt>
      <trkpt lat="45.93222" lon="4.72661">
        <ele>170</ele>
        <time>2018-08-08T10:33:58Z</time>
      </trkpt>
      <trkpt lat="45.93217" lon="4.72666">
        <ele>170</ele>
        <time>2018-08-08T10:33:59Z</time>
      </trkpt>
      <trkpt lat="45.9321" lon="4.72668">
        <ele>169</ele>
        <time>2018-08-08T10:34:00Z</time>
      </trkpt>
      <trkpt lat="45.93205" lon="4.72674">
        <ele>169</ele>
        <time>2018-08-08T10:34:01Z</time>
      </trkpt>
      <trkpt lat="45.93201" lon="4.72678">
        <ele>169</ele>
        <time>2018-08-08T10:34:02Z</time>
      </trkpt>
      <trkpt lat="45.93196" lon="4.72684">
        <ele>169</ele>
        <time>2018-08-08T10:34:03Z</time>
      </trkpt>
      <trkpt lat="45.93191" lon="4.72691">
        <ele>169</ele>
        <time>2018-08-08T10:34:04Z</time>
      </trkpt>
      <trkpt lat="45.93186" lon="4.72693">
        <ele>169</ele>
        <time>2018-08-08T10:34:05Z</time>
      </trkpt>
      <trkpt lat="45.9318" lon="4.72697">
        <ele>170</ele>
        <time>2018-08-08T10:34:06Z</time>
      </trkpt>
      <trkpt lat="45.93175" lon="4.72703">
        <ele>170</ele>
        <time>2018-08-08T10:34:07Z</time>
      </trkpt>
      <trkpt lat="45.9317" lon="4.72708">
        <ele>170</ele>
        <time>2018-08-08T10:34:08Z</time>
      </trkpt>
      <trkpt lat="45.93166" lon="4.72716">
        <ele>170</ele>
        <time>2018-08-08T10:34:09Z</time>
      </trkpt>
      <trkpt lat="45.93162" lon="4.72721">
        <ele>170</ele>
        <time>2018-08-08T10:34:10Z</time>
      </trkpt>
      <trkpt lat="45.93159" lon="4.72728">
        <ele>170</ele>
        <time>2018-08-08T10:34:11Z</time>
      </trkpt>
      <trkpt lat="45.93155" lon="4.72732">
        <ele>170</ele>
        <time>2018-08-08T10:34:12Z</time>
      </trkpt>
      <trkpt lat="45.93149" lon="4.72737">
        <ele>170</ele>
        <time>2018-08-08T10:34:13Z</time>
      </trkpt>
      <trkpt lat="45.93145" lon="4.72742">
        <ele>170</ele>
        <time>2018-08-08T10:34:14Z</time>
      </trkpt>
      <trkpt lat="45.9314" lon="4.72748">
        <ele>170</ele>
        <time>2018-08-08T10:34:15Z</time>
      </trkpt>
      <trkpt lat="45.93134" lon="4.72752">
        <ele>171</ele>
        <time>2018-08-08T10:34:16Z</time>
      </trkpt>
      <trkpt lat="45.93131" lon="4.72758">
        <ele>171</ele>
        <time>2018-08-08T10:34:17Z</time>
      </trkpt>
      <trkpt lat="45.93126" lon="4.72763">
        <ele>171</ele>
        <time>2018-08-08T10:34:18Z</time>
      </trkpt>
      <trkpt lat="45.9312" lon="4.7277">
        <ele>171</ele>
        <time>2018-08-08T10:34:19Z</time>
      </trkpt>
      <trkpt lat="45.93115" lon="4.72777">
        <ele>171</ele>
        <time>2018-08-08T10:34:20Z</time>
      </trkpt>
      <trkpt lat="45.9311" lon="4.72784">
        <ele>171</ele>
        <time>2018-08-08T10:34:21Z</time>
      </trkpt>
      <trkpt lat="45.93107" lon="4.72791">
        <ele>171</ele>
        <time>2018-08-08T10:34:22Z</time>
      </trkpt>
      <trkpt lat="45.93102" lon="4.72796">
        <ele>171</ele>
        <time>2018-08-08T10:34:23Z</time>
      </trkpt>
      <trkpt lat="45.93096" lon="4.72801">
        <ele>171</ele>
        <time>2018-08-08T10:34:24Z</time>
      </trkpt>
      <trkpt lat="45.93092" lon="4.72809">
        <ele>172</ele>
        <time>2018-08-08T10:34:25Z</time>
      </trkpt>
      <trkpt lat="45.93089" lon="4.72816">
        <ele>172</ele>
        <time>2018-08-08T10:34:26Z</time>
      </trkpt>
      <trkpt lat="45.93084" lon="4.72821">
        <ele>172</ele>
        <time>2018-08-08T10:34:27Z</time>
      </trkpt>
      <trkpt lat="45.9308" lon="4.72827">
        <ele>173</ele>
        <time>2018-08-08T10:34:28Z</time>
      </trkpt>
      <trkpt lat="45.93076" lon="4.72833">
        <ele>173</ele>
        <time>2018-08-08T10:34:29Z</time>
      </trkpt>
      <trkpt lat="45.93072" lon="4.72838">
        <ele>173</ele>
        <time>2018-08-08T10:34:30Z</time>
      </trkpt>
      <trkpt lat="45.93068" lon="4.72843">
        <ele>173</ele>
        <time>2018-08-08T10:34:31Z</time>
      </trkpt>
      <trkpt lat="45.93065" lon="4.72848">
        <ele>172</ele>
        <time>2018-08-08T10:34:32Z</time>
      </trkpt>
      <trkpt lat="45.93056" lon="4.72849">
        <ele>172</ele>
        <time>2018-08-08T10:34:33Z</time>
      </trkpt>
      <trkpt lat="45.93047" lon="4.72852">
        <ele>172</ele>
        <time>2018-08-08T10:34:34Z</time>
      </trkpt>
      <trkpt lat="45.93052" lon="4.7286">
        <ele>172</ele>
        <time>2018-08-08T10:34:35Z</time>
      </trkpt>
      <trkpt lat="45.9304" lon="4.72861">
        <ele>172</ele>
        <time>2018-08-08T10:34:36Z</time>
      </trkpt>
      <trkpt lat="45.93033" lon="4.72868">
        <ele>172</ele>
        <time>2018-08-08T10:34:37Z</time>
      </trkpt>
      <trkpt lat="45.93029" lon="4.72871">
        <ele>172</ele>
        <time>2018-08-08T10:34:38Z</time>
      </trkpt>
      <trkpt lat="45.93028" lon="4.72878">
        <ele>172</ele>
        <time>2018-08-08T10:34:39Z</time>
      </trkpt>
      <trkpt lat="45.93023" lon="4.72883">
        <ele>172</ele>
        <time>2018-08-08T10:34:40Z</time>
      </trkpt>
      <trkpt lat="45.93019" lon="4.72889">
        <ele>172</ele>
        <time>2018-08-08T10:34:41Z</time>
      </trkpt>
      <trkpt lat="45.93014" lon="4.72894">
        <ele>172</ele>
        <time>2018-08-08T10:34:42Z</time>
      </trkpt>
      <trkpt lat="45.93011" lon="4.729">
        <ele>172</ele>
        <time>2018-08-08T10:34:43Z</time>
      </trkpt>
      <trkpt lat="45.93008" lon="4.72904">
        <ele>171</ele>
        <time>2018-08-08T10:34:44Z</time>
      </trkpt>
      <trkpt lat="45.93005" lon="4.7291">
        <ele>171</ele>
        <time>2018-08-08T10:34:45Z</time>
      </trkpt>
      <trkpt lat="45.93" lon="4.72915">
        <ele>171</ele>
        <time>2018-08-08T10:34:46Z</time>
      </trkpt>
      <trkpt lat="45.92996" lon="4.7292">
        <ele>171</ele>
        <time>2018-08-08T10:34:47Z</time>
      </trkpt>
      <trkpt lat="45.92994" lon="4.72929">
        <ele>171</ele>
        <time>2018-08-08T10:34:48Z</time>
      </trkpt>
      <trkpt lat="45.92989" lon="4.72933">
        <ele>171</ele>
        <time>2018-08-08T10:34:49Z</time>
      </trkpt>
      <trkpt lat="45.92985" lon="4.72939">
        <ele>171</ele>
        <time>2018-08-08T10:34:50Z</time>
      </trkpt>
      <trkpt lat="45.9298" lon="4.72943">
        <ele>171</ele>
        <time>2018-08-08T10:34:51Z</time>
      </trkpt>
      <trkpt lat="45.92977" lon="4.7295">
        <ele>171</ele>
        <time>2018-08-08T10:34:52Z</time>
      </trkpt>
      <trkpt lat="45.92972" lon="4.72954">
        <ele>171</ele>
        <time>2018-08-08T10:34:53Z</time>
      </trkpt>
      <trkpt lat="45.92968" lon="4.72958">
        <ele>171</ele>
        <time>2018-08-08T10:34:54Z</time>
      </trkpt>
      <trkpt lat="45.92963" lon="4.72961">
        <ele>171</ele>
        <time>2018-08-08T10:34:55Z</time>
      </trkpt>
      <trkpt lat="45.92956" lon="4.72964">
        <ele>171</ele>
        <time>2018-08-08T10:34:56Z</time>
      </trkpt>
      <trkpt lat="45.92951" lon="4.72967">
        <ele>171</ele>
        <time>2018-08-08T10:34:57Z</time>
      </trkpt>
      <trkpt lat="45.92946" lon="4.7297">
        <ele>171</ele>
        <time>2018-08-08T10:34:58Z</time>
      </trkpt>
      <trkpt lat="45.92943" lon="4.72976">
        <ele>171</ele>
        <time>2018-08-08T10:34:59Z</time>
      </trkpt>
      <trkpt lat="45.92939" lon="4.7298">
        <ele>171</ele>
        <time>2018-08-08T10:35:00Z</time>
      </trkpt>
      <trkpt lat="45.92935" lon="4.72985">
        <ele>171</ele>
        <time>2018-08-08T10:35:01Z</time>
      </trkpt>
      <trkpt lat="45.92932" lon="4.72989">
        <ele>172</ele>
        <time>2018-08-08T10:35:02Z</time>
      </trkpt>
      <trkpt lat="45.92924" lon="4.72995">
        <ele>172</ele>
        <time>2018-08-08T10:35:04Z</time>
      </trkpt>
      <trkpt lat="45.9292" lon="4.73">
        <ele>172</ele>
        <time>2018-08-08T10:35:05Z</time>
      </trkpt>
      <trkpt lat="45.92916" lon="4.73004">
        <ele>172</ele>
        <time>2018-08-08T10:35:06Z</time>
      </trkpt>
      <trkpt lat="45.92913" lon="4.7301">
        <ele>172</ele>
        <time>2018-08-08T10:35:07Z</time>
      </trkpt>
      <trkpt lat="45.9291" lon="4.73015">
        <ele>172</ele>
        <time>2018-08-08T10:35:08Z</time>
      </trkpt>
      <trkpt lat="45.92905" lon="4.73018">
        <ele>172</ele>
        <time>2018-08-08T10:35:09Z</time>
      </trkpt>
      <trkpt lat="45.92901" lon="4.73023">
        <ele>172</ele>
        <time>2018-08-08T10:35:10Z</time>
      </trkpt>
      <trkpt lat="45.92898" lon="4.73031">
        <ele>172</ele>
        <time>2018-08-08T10:35:11Z</time>
      </trkpt>
      <trkpt lat="45.92895" lon="4.73038">
        <ele>172</ele>
        <time>2018-08-08T10:35:12Z</time>
      </trkpt>
      <trkpt lat="45.92892" lon="4.73045">
        <ele>172</ele>
        <time>2018-08-08T10:35:13Z</time>
      </trkpt>
      <trkpt lat="45.92888" lon="4.73049">
        <ele>172</ele>
        <time>2018-08-08T10:35:14Z</time>
      </trkpt>
      <trkpt lat="45.92884" lon="4.73055">
        <ele>172</ele>
        <time>2018-08-08T10:35:15Z</time>
      </trkpt>
      <trkpt lat="45.9288" lon="4.7306">
        <ele>172</ele>
        <time>2018-08-08T10:35:16Z</time>
      </trkpt>
      <trkpt lat="45.92876" lon="4.73063">
        <ele>172</ele>
        <time>2018-08-08T10:35:17Z</time>
      </trkpt>
      <trkpt lat="45.92872" lon="4.73068">
        <ele>172</ele>
        <time>2018-08-08T10:35:18Z</time>
      </trkpt>
      <trkpt lat="45.92868" lon="4.73071">
        <ele>172</ele>
        <time>2018-08-08T10:35:19Z</time>
      </trkpt>
      <trkpt lat="45.92867" lon="4.73078">
        <ele>172</ele>
        <time>2018-08-08T10:35:20Z</time>
      </trkpt>
      <trkpt lat="45.92865" lon="4.73085">
        <ele>172</ele>
        <time>2018-08-08T10:35:21Z</time>
      </trkpt>
      <trkpt lat="45.92861" lon="4.73096">
        <ele>171</ele>
        <time>2018-08-08T10:35:23Z</time>
      </trkpt>
      <trkpt lat="45.92857" lon="4.731">
        <ele>171</ele>
        <time>2018-08-08T10:35:24Z</time>
      </trkpt>
      <trkpt lat="45.9285" lon="4.73098">
        <ele>171</ele>
        <time>2018-08-08T10:35:26Z</time>
      </trkpt>
      <trkpt lat="45.92847" lon="4.73094">
        <ele>171</ele>
        <time>2018-08-08T10:35:27Z</time>
      </trkpt>
      <trkpt lat="45.92847" lon="4.73085">
        <ele>171</ele>
        <time>2018-08-08T10:35:29Z</time>
      </trkpt>
      <trkpt lat="45.92846" lon="4.73078">
        <ele>171</ele>
        <time>2018-08-08T10:35:30Z</time>
      </trkpt>
      <trkpt lat="45.92844" lon="4.73071">
        <ele>171</ele>
        <time>2018-08-08T10:35:31Z</time>
      </trkpt>
      <trkpt lat="45.92842" lon="4.73064">
        <ele>171</ele>
        <time>2018-08-08T10:35:32Z</time>
      </trkpt>
      <trkpt lat="45.9284" lon="4.73057">
        <ele>171</ele>
        <time>2018-08-08T10:35:33Z</time>
      </trkpt>
      <trkpt lat="45.9284" lon="4.7305">
        <ele>171</ele>
        <time>2018-08-08T10:35:34Z</time>
      </trkpt>
      <trkpt lat="45.92837" lon="4.73041">
        <ele>171</ele>
        <time>2018-08-08T10:35:35Z</time>
      </trkpt>
      <trkpt lat="45.92834" lon="4.73033">
        <ele>171</ele>
        <time>2018-08-08T10:35:36Z</time>
      </trkpt>
      <trkpt lat="45.92833" lon="4.73025">
        <ele>170</ele>
        <time>2018-08-08T10:35:37Z</time>
      </trkpt>
      <trkpt lat="45.92831" lon="4.73017">
        <ele>170</ele>
        <time>2018-08-08T10:35:38Z</time>
      </trkpt>
      <trkpt lat="45.9283" lon="4.73009">
        <ele>170</ele>
        <time>2018-08-08T10:35:39Z</time>
      </trkpt>
      <trkpt lat="45.92829" lon="4.73001">
        <ele>170</ele>
        <time>2018-08-08T10:35:40Z</time>
      </trkpt>
      <trkpt lat="45.92828" lon="4.72993">
        <ele>170</ele>
        <time>2018-08-08T10:35:41Z</time>
      </trkpt>
      <trkpt lat="45.92827" lon="4.72985">
        <ele>170</ele>
        <time>2018-08-08T10:35:42Z</time>
      </trkpt>
      <trkpt lat="45.92825" lon="4.72977">
        <ele>170</ele>
        <time>2018-08-08T10:35:43Z</time>
      </trkpt>
      <trkpt lat="45.92826" lon="4.72969">
        <ele>170</ele>
        <time>2018-08-08T10:35:44Z</time>
      </trkpt>
      <trkpt lat="45.92826" lon="4.72961">
        <ele>170</ele>
        <time>2018-08-08T10:35:45Z</time>
      </trkpt>
      <trkpt lat="45.92826" lon="4.72953">
        <ele>170</ele>
        <time>2018-08-08T10:35:46Z</time>
      </trkpt>
      <trkpt lat="45.92826" lon="4.72946">
        <ele>170</ele>
        <time>2018-08-08T10:35:47Z</time>
      </trkpt>
      <trkpt lat="45.92825" lon="4.72938">
        <ele>170</ele>
        <time>2018-08-08T10:35:48Z</time>
      </trkpt>
      <trkpt lat="45.92824" lon="4.72931">
        <ele>170</ele>
        <time>2018-08-08T10:35:49Z</time>
      </trkpt>
      <trkpt lat="45.92823" lon="4.72924">
        <ele>170</ele>
        <time>2018-08-08T10:35:50Z</time>
      </trkpt>
      <trkpt lat="45.92822" lon="4.72916">
        <ele>170</ele>
        <time>2018-08-08T10:35:51Z</time>
      </trkpt>
      <trkpt lat="45.92822" lon="4.72908">
        <ele>170</ele>
        <time>2018-08-08T10:35:52Z</time>
      </trkpt>
      <trkpt lat="45.92821" lon="4.729">
        <ele>170</ele>
        <time>2018-08-08T10:35:53Z</time>
      </trkpt>
      <trkpt lat="45.9282" lon="4.72892">
        <ele>170</ele>
        <time>2018-08-08T10:35:54Z</time>
      </trkpt>
      <trkpt lat="45.92819" lon="4.72884">
        <ele>170</ele>
        <time>2018-08-08T10:35:55Z</time>
      </trkpt>
      <trkpt lat="45.92817" lon="4.72877">
        <ele>170</ele>
        <time>2018-08-08T10:35:56Z</time>
      </trkpt>
      <trkpt lat="45.92815" lon="4.7287">
        <ele>170</ele>
        <time>2018-08-08T10:35:57Z</time>
      </trkpt>
      <trkpt lat="45.92814" lon="4.72864">
        <ele>170</ele>
        <time>2018-08-08T10:35:58Z</time>
      </trkpt>
      <trkpt lat="45.92813" lon="4.72858">
        <ele>170</ele>
        <time>2018-08-08T10:35:59Z</time>
      </trkpt>
      <trkpt lat="45.92813" lon="4.72851">
        <ele>170</ele>
        <time>2018-08-08T10:36:00Z</time>
      </trkpt>
      <trkpt lat="45.92812" lon="4.7284">
        <ele>170</ele>
        <time>2018-08-08T10:36:02Z</time>
      </trkpt>
      <trkpt lat="45.9281" lon="4.72833">
        <ele>171</ele>
        <time>2018-08-08T10:36:03Z</time>
      </trkpt>
      <trkpt lat="45.9281" lon="4.72827">
        <ele>171</ele>
        <time>2018-08-08T10:36:04Z</time>
      </trkpt>
      <trkpt lat="45.92808" lon="4.72819">
        <ele>171</ele>
        <time>2018-08-08T10:36:05Z</time>
      </trkpt>
      <trkpt lat="45.92807" lon="4.72813">
        <ele>171</ele>
        <time>2018-08-08T10:36:06Z</time>
      </trkpt>
      <trkpt lat="45.92805" lon="4.72807">
        <ele>171</ele>
        <time>2018-08-08T10:36:07Z</time>
      </trkpt>
      <trkpt lat="45.92804" lon="4.728">
        <ele>171</ele>
        <time>2018-08-08T10:36:08Z</time>
      </trkpt>
      <trkpt lat="45.92803" lon="4.72794">
        <ele>171</ele>
        <time>2018-08-08T10:36:09Z</time>
      </trkpt>
      <trkpt lat="45.92797" lon="4.72787">
        <ele>171</ele>
        <time>2018-08-08T10:36:11Z</time>
      </trkpt>
      <trkpt lat="45.92794" lon="4.72786">
        <ele>171</ele>
        <time>2018-08-08T10:36:12Z</time>
      </trkpt>
      <trkpt lat="45.92787" lon="4.72792">
        <ele>170</ele>
        <time>2018-08-08T10:36:14Z</time>
      </trkpt>
      <trkpt lat="45.92784" lon="4.72795">
        <ele>170</ele>
        <time>2018-08-08T10:36:15Z</time>
      </trkpt>
      <trkpt lat="45.92779" lon="4.72797">
        <ele>170</ele>
        <time>2018-08-08T10:36:16Z</time>
      </trkpt>
      <trkpt lat="45.92775" lon="4.72802">
        <ele>170</ele>
        <time>2018-08-08T10:36:17Z</time>
      </trkpt>
      <trkpt lat="45.92771" lon="4.72806">
        <ele>170</ele>
        <time>2018-08-08T10:36:18Z</time>
      </trkpt>
      <trkpt lat="45.92766" lon="4.72806">
        <ele>170</ele>
        <time>2018-08-08T10:36:19Z</time>
      </trkpt>
      <trkpt lat="45.92759" lon="4.72804">
        <ele>170</ele>
        <time>2018-08-08T10:36:20Z</time>
      </trkpt>
      <trkpt lat="45.92755" lon="4.7281">
        <ele>170</ele>
        <time>2018-08-08T10:36:21Z</time>
      </trkpt>
      <trkpt lat="45.9275" lon="4.72817">
        <ele>170</ele>
        <time>2018-08-08T10:36:22Z</time>
      </trkpt>
      <trkpt lat="45.92745" lon="4.7282">
        <ele>169</ele>
        <time>2018-08-08T10:36:23Z</time>
      </trkpt>
      <trkpt lat="45.9274" lon="4.72823">
        <ele>169</ele>
        <time>2018-08-08T10:36:24Z</time>
      </trkpt>
      <trkpt lat="45.92735" lon="4.72827">
        <ele>169</ele>
        <time>2018-08-08T10:36:25Z</time>
      </trkpt>
      <trkpt lat="45.9273" lon="4.7283">
        <ele>170</ele>
        <time>2018-08-08T10:36:26Z</time>
      </trkpt>
      <trkpt lat="45.92725" lon="4.72835">
        <ele>169</ele>
        <time>2018-08-08T10:36:27Z</time>
      </trkpt>
      <trkpt lat="45.9272" lon="4.72838">
        <ele>169</ele>
        <time>2018-08-08T10:36:28Z</time>
      </trkpt>
      <trkpt lat="45.92714" lon="4.72842">
        <ele>169</ele>
        <time>2018-08-08T10:36:29Z</time>
      </trkpt>
      <trkpt lat="45.92708" lon="4.72844">
        <ele>169</ele>
        <time>2018-08-08T10:36:30Z</time>
      </trkpt>
      <trkpt lat="45.92703" lon="4.72846">
        <ele>169</ele>
        <time>2018-08-08T10:36:31Z</time>
      </trkpt>
      <trkpt lat="45.92698" lon="4.7285">
        <ele>169</ele>
        <time>2018-08-08T10:36:32Z</time>
      </trkpt>
      <trkpt lat="45.92694" lon="4.72854">
        <ele>169</ele>
        <time>2018-08-08T10:36:33Z</time>
      </trkpt>
      <trkpt lat="45.92689" lon="4.72857">
        <ele>169</ele>
        <time>2018-08-08T10:36:34Z</time>
      </trkpt>
      <trkpt lat="45.92684" lon="4.72862">
        <ele>169</ele>
        <time>2018-08-08T10:36:35Z</time>
      </trkpt>
      <trkpt lat="45.92681" lon="4.72868">
        <ele>169</ele>
        <time>2018-08-08T10:36:36Z</time>
      </trkpt>
      <trkpt lat="45.92675" lon="4.72872">
        <ele>169</ele>
        <time>2018-08-08T10:36:37Z</time>
      </trkpt>
      <trkpt lat="45.92669" lon="4.72875">
        <ele>170</ele>
        <time>2018-08-08T10:36:38Z</time>
      </trkpt>
      <trkpt lat="45.92665" lon="4.72882">
        <ele>169</ele>
        <time>2018-08-08T10:36:39Z</time>
      </trkpt>
      <trkpt lat="45.9266" lon="4.72884">
        <ele>169</ele>
        <time>2018-08-08T10:36:40Z</time>
      </trkpt>
      <trkpt lat="45.92654" lon="4.72889">
        <ele>169</ele>
        <time>2018-08-08T10:36:41Z</time>
      </trkpt>
      <trkpt lat="45.92647" lon="4.72892">
        <ele>169</ele>
        <time>2018-08-08T10:36:42Z</time>
      </trkpt>
      <trkpt lat="45.92643" lon="4.72898">
        <ele>169</ele>
        <time>2018-08-08T10:36:43Z</time>
      </trkpt>
      <trkpt lat="45.92638" lon="4.72904">
        <ele>169</ele>
        <time>2018-08-08T10:36:44Z</time>
      </trkpt>
      <trkpt lat="45.92633" lon="4.72909">
        <ele>169</ele>
        <time>2018-08-08T10:36:45Z</time>
      </trkpt>
      <trkpt lat="45.92627" lon="4.72913">
        <ele>169</ele>
        <time>2018-08-08T10:36:46Z</time>
      </trkpt>
      <trkpt lat="45.92622" lon="4.72917">
        <ele>169</ele>
        <time>2018-08-08T10:36:47Z</time>
      </trkpt>
      <trkpt lat="45.92617" lon="4.72923">
        <ele>169</ele>
        <time>2018-08-08T10:36:48Z</time>
      </trkpt>
      <trkpt lat="45.92612" lon="4.72927">
        <ele>169</ele>
        <time>2018-08-08T10:36:49Z</time>
      </trkpt>
      <trkpt lat="45.92607" lon="4.72932">
        <ele>169</ele>
        <time>2018-08-08T10:36:50Z</time>
      </trkpt>
      <trkpt lat="45.92603" lon="4.72936">
        <ele>169</ele>
        <time>2018-08-08T10:36:51Z</time>
      </trkpt>
      <trkpt lat="45.92598" lon="4.7294">
        <ele>169</ele>
        <time>2018-08-08T10:36:52Z</time>
      </trkpt>
      <trkpt lat="45.92593" lon="4.72945">
        <ele>169</ele>
        <time>2018-08-08T10:36:53Z</time>
      </trkpt>
      <trkpt lat="45.92591" lon="4.72955">
        <ele>169</ele>
        <time>2018-08-08T10:36:54Z</time>
      </trkpt>
      <trkpt lat="45.92586" lon="4.72961">
        <ele>169</ele>
        <time>2018-08-08T10:36:55Z</time>
      </trkpt>
      <trkpt lat="45.9258" lon="4.72965">
        <ele>169</ele>
        <time>2018-08-08T10:36:56Z</time>
      </trkpt>
      <trkpt lat="45.92575" lon="4.72972">
        <ele>169</ele>
        <time>2018-08-08T10:36:57Z</time>
      </trkpt>
      <trkpt lat="45.92569" lon="4.72974">
        <ele>169</ele>
        <time>2018-08-08T10:36:58Z</time>
      </trkpt>
      <trkpt lat="45.92563" lon="4.72978">
        <ele>169</ele>
        <time>2018-08-08T10:36:59Z</time>
      </trkpt>
      <trkpt lat="45.92559" lon="4.72982">
        <ele>169</ele>
        <time>2018-08-08T10:37:00Z</time>
      </trkpt>
      <trkpt lat="45.92554" lon="4.72985">
        <ele>169</ele>
        <time>2018-08-08T10:37:01Z</time>
      </trkpt>
      <trkpt lat="45.9255" lon="4.72991">
        <ele>169</ele>
        <time>2018-08-08T10:37:02Z</time>
      </trkpt>
      <trkpt lat="45.92546" lon="4.72996">
        <ele>169</ele>
        <time>2018-08-08T10:37:03Z</time>
      </trkpt>
      <trkpt lat="45.9254" lon="4.73">
        <ele>169</ele>
        <time>2018-08-08T10:37:04Z</time>
      </trkpt>
      <trkpt lat="45.92535" lon="4.73004">
        <ele>169</ele>
        <time>2018-08-08T10:37:05Z</time>
      </trkpt>
      <trkpt lat="45.92532" lon="4.73009">
        <ele>169</ele>
        <time>2018-08-08T10:37:06Z</time>
      </trkpt>
      <trkpt lat="45.92527" lon="4.73015">
        <ele>169</ele>
        <time>2018-08-08T10:37:07Z</time>
      </trkpt>
      <trkpt lat="45.92524" lon="4.73021">
        <ele>169</ele>
        <time>2018-08-08T10:37:08Z</time>
      </trkpt>
      <trkpt lat="45.92518" lon="4.73024">
        <ele>169</ele>
        <time>2018-08-08T10:37:09Z</time>
      </trkpt>
      <trkpt lat="45.92514" lon="4.73032">
        <ele>169</ele>
        <time>2018-08-08T10:37:11Z</time>
      </trkpt>
      <trkpt lat="45.9251" lon="4.73037">
        <ele>169</ele>
        <time>2018-08-08T10:37:12Z</time>
      </trkpt>
      <trkpt lat="45.92505" lon="4.73041">
        <ele>169</ele>
        <time>2018-08-08T10:37:13Z</time>
      </trkpt>
      <trkpt lat="45.925" lon="4.73045">
        <ele>170</ele>
        <time>2018-08-08T10:37:14Z</time>
      </trkpt>
      <trkpt lat="45.92494" lon="4.73048">
        <ele>170</ele>
        <time>2018-08-08T10:37:15Z</time>
      </trkpt>
      <trkpt lat="45.9249" lon="4.73051">
        <ele>170</ele>
        <time>2018-08-08T10:37:16Z</time>
      </trkpt>
      <trkpt lat="45.92484" lon="4.73055">
        <ele>170</ele>
        <time>2018-08-08T10:37:17Z</time>
      </trkpt>
      <trkpt lat="45.92478" lon="4.73058">
        <ele>170</ele>
        <time>2018-08-08T10:37:18Z</time>
      </trkpt>
      <trkpt lat="45.92474" lon="4.73063">
        <ele>170</ele>
        <time>2018-08-08T10:37:19Z</time>
      </trkpt>
      <trkpt lat="45.9247" lon="4.73066">
        <ele>170</ele>
        <time>2018-08-08T10:37:20Z</time>
      </trkpt>
      <trkpt lat="45.92466" lon="4.73071">
        <ele>170</ele>
        <time>2018-08-08T10:37:21Z</time>
      </trkpt>
      <trkpt lat="45.9246" lon="4.73073">
        <ele>170</ele>
        <time>2018-08-08T10:37:22Z</time>
      </trkpt>
      <trkpt lat="45.92456" lon="4.73076">
        <ele>170</ele>
        <time>2018-08-08T10:37:23Z</time>
      </trkpt>
      <trkpt lat="45.92453" lon="4.73079">
        <ele>170</ele>
        <time>2018-08-08T10:37:24Z</time>
      </trkpt>
      <trkpt lat="45.92449" lon="4.73083">
        <ele>170</ele>
        <time>2018-08-08T10:37:25Z</time>
      </trkpt>
      <trkpt lat="45.92444" lon="4.73086">
        <ele>170</ele>
        <time>2018-08-08T10:37:26Z</time>
      </trkpt>
      <trkpt lat="45.92441" lon="4.73091">
        <ele>170</ele>
        <time>2018-08-08T10:37:27Z</time>
      </trkpt>
      <trkpt lat="45.92437" lon="4.73096">
        <ele>171</ele>
        <time>2018-08-08T10:37:28Z</time>
      </trkpt>
      <trkpt lat="45.92434" lon="4.731">
        <ele>171</ele>
        <time>2018-08-08T10:37:29Z</time>
      </trkpt>
      <trkpt lat="45.92428" lon="4.73102">
        <ele>171</ele>
        <time>2018-08-08T10:37:30Z</time>
      </trkpt>
      <trkpt lat="45.92423" lon="4.73103">
        <ele>171</ele>
        <time>2018-08-08T10:37:31Z</time>
      </trkpt>
      <trkpt lat="45.92419" lon="4.73106">
        <ele>171</ele>
        <time>2018-08-08T10:37:32Z</time>
      </trkpt>
      <trkpt lat="45.92414" lon="4.73107">
        <ele>171</ele>
        <time>2018-08-08T10:37:33Z</time>
      </trkpt>
      <trkpt lat="45.92409" lon="4.73111">
        <ele>171</ele>
        <time>2018-08-08T10:37:34Z</time>
      </trkpt>
      <trkpt lat="45.92405" lon="4.73115">
        <ele>171</ele>
        <time>2018-08-08T10:37:35Z</time>
      </trkpt>
      <trkpt lat="45.92405" lon="4.73123">
        <ele>171</ele>
        <time>2018-08-08T10:37:36Z</time>
      </trkpt>
      <trkpt lat="45.92404" lon="4.7313">
        <ele>171</ele>
        <time>2018-08-08T10:37:37Z</time>
      </trkpt>
      <trkpt lat="45.92403" lon="4.73137">
        <ele>171</ele>
        <time>2018-08-08T10:37:38Z</time>
      </trkpt>
      <trkpt lat="45.92403" lon="4.73145">
        <ele>171</ele>
        <time>2018-08-08T10:37:39Z</time>
      </trkpt>
      <trkpt lat="45.92402" lon="4.73152">
        <ele>171</ele>
        <time>2018-08-08T10:37:40Z</time>
      </trkpt>
      <trkpt lat="45.92402" lon="4.7316">
        <ele>171</ele>
        <time>2018-08-08T10:37:41Z</time>
      </trkpt>
      <trkpt lat="45.92405" lon="4.73171">
        <ele>171</ele>
        <time>2018-08-08T10:37:42Z</time>
      </trkpt>
      <trkpt lat="45.92405" lon="4.73179">
        <ele>171</ele>
        <time>2018-08-08T10:37:43Z</time>
      </trkpt>
      <trkpt lat="45.92405" lon="4.73188">
        <ele>171</ele>
        <time>2018-08-08T10:37:44Z</time>
      </trkpt>
      <trkpt lat="45.92406" lon="4.73195">
        <ele>171</ele>
        <time>2018-08-08T10:37:45Z</time>
      </trkpt>
      <trkpt lat="45.92406" lon="4.73203">
        <ele>171</ele>
        <time>2018-08-08T10:37:46Z</time>
      </trkpt>
      <trkpt lat="45.92406" lon="4.73211">
        <ele>171</ele>
        <time>2018-08-08T10:37:47Z</time>
      </trkpt>
      <trkpt lat="45.92406" lon="4.73218">
        <ele>171</ele>
        <time>2018-08-08T10:37:48Z</time>
      </trkpt>
      <trkpt lat="45.92405" lon="4.73229">
        <ele>171</ele>
        <time>2018-08-08T10:37:50Z</time>
      </trkpt>
      <trkpt lat="45.92404" lon="4.73235">
        <ele>171</ele>
        <time>2018-08-08T10:37:51Z</time>
      </trkpt>
      <trkpt lat="45.92406" lon="4.73243">
        <ele>171</ele>
        <time>2018-08-08T10:37:52Z</time>
      </trkpt>
      <trkpt lat="45.92406" lon="4.73251">
        <ele>171</ele>
        <time>2018-08-08T10:37:53Z</time>
      </trkpt>
      <trkpt lat="45.92407" lon="4.73258">
        <ele>171</ele>
        <time>2018-08-08T10:37:54Z</time>
      </trkpt>
      <trkpt lat="45.92408" lon="4.73267">
        <ele>171</ele>
        <time>2018-08-08T10:37:55Z</time>
      </trkpt>
      <trkpt lat="45.92409" lon="4.73275">
        <ele>171</ele>
        <time>2018-08-08T10:37:56Z</time>
      </trkpt>
      <trkpt lat="45.92409" lon="4.73282">
        <ele>171</ele>
        <time>2018-08-08T10:37:57Z</time>
      </trkpt>
      <trkpt lat="45.9241" lon="4.7329">
        <ele>171</ele>
        <time>2018-08-08T10:37:58Z</time>
      </trkpt>
      <trkpt lat="45.92412" lon="4.73299">
        <ele>171</ele>
        <time>2018-08-08T10:37:59Z</time>
      </trkpt>
      <trkpt lat="45.92412" lon="4.73307">
        <ele>171</ele>
        <time>2018-08-08T10:38:00Z</time>
      </trkpt>
      <trkpt lat="45.92413" lon="4.73315">
        <ele>171</ele>
        <time>2018-08-08T10:38:01Z</time>
      </trkpt>
      <trkpt lat="45.92413" lon="4.73322">
        <ele>171</ele>
        <time>2018-08-08T10:38:02Z</time>
      </trkpt>
      <trkpt lat="45.92414" lon="4.7333">
        <ele>171</ele>
        <time>2018-08-08T10:38:03Z</time>
      </trkpt>
      <trkpt lat="45.92414" lon="4.73337">
        <ele>171</ele>
        <time>2018-08-08T10:38:04Z</time>
      </trkpt>
      <trkpt lat="45.92415" lon="4.73344">
        <ele>171</ele>
        <time>2018-08-08T10:38:05Z</time>
      </trkpt>
      <trkpt lat="45.92416" lon="4.73351">
        <ele>171</ele>
        <time>2018-08-08T10:38:06Z</time>
      </trkpt>
      <trkpt lat="45.92417" lon="4.73358">
        <ele>171</ele>
        <time>2018-08-08T10:38:07Z</time>
      </trkpt>
      <trkpt lat="45.92419" lon="4.73365">
        <ele>172</ele>
        <time>2018-08-08T10:38:08Z</time>
      </trkpt>
      <trkpt lat="45.9242" lon="4.73372">
        <ele>172</ele>
        <time>2018-08-08T10:38:09Z</time>
      </trkpt>
      <trkpt lat="45.92421" lon="4.73378">
        <ele>172</ele>
        <time>2018-08-08T10:38:10Z</time>
      </trkpt>
      <trkpt lat="45.92423" lon="4.73385">
        <ele>172</ele>
        <time>2018-08-08T10:38:11Z</time>
      </trkpt>
      <trkpt lat="45.92425" lon="4.73392">
        <ele>172</ele>
        <time>2018-08-08T10:38:12Z</time>
      </trkpt>
      <trkpt lat="45.92427" lon="4.73398">
        <ele>172</ele>
        <time>2018-08-08T10:38:13Z</time>
      </trkpt>
      <trkpt lat="45.9243" lon="4.73402">
        <ele>172</ele>
        <time>2018-08-08T10:38:14Z</time>
      </trkpt>
      <trkpt lat="45.92434" lon="4.73407">
        <ele>172</ele>
        <time>2018-08-08T10:38:15Z</time>
      </trkpt>
      <trkpt lat="45.92439" lon="4.73411">
        <ele>172</ele>
        <time>2018-08-08T10:38:16Z</time>
      </trkpt>
      <trkpt lat="45.92443" lon="4.73415">
        <ele>172</ele>
        <time>2018-08-08T10:38:17Z</time>
      </trkpt>
      <trkpt lat="45.92451" lon="4.73421">
        <ele>173</ele>
        <time>2018-08-08T10:38:19Z</time>
      </trkpt>
      <trkpt lat="45.92455" lon="4.73425">
        <ele>173</ele>
        <time>2018-08-08T10:38:20Z</time>
      </trkpt>
      <trkpt lat="45.9246" lon="4.73434">
        <ele>173</ele>
        <time>2018-08-08T10:38:22Z</time>
      </trkpt>
      <trkpt lat="45.92463" lon="4.73439">
        <ele>173</ele>
        <time>2018-08-08T10:38:23Z</time>
      </trkpt>
      <trkpt lat="45.92466" lon="4.7345">
        <ele>173</ele>
        <time>2018-08-08T10:38:25Z</time>
      </trkpt>
      <trkpt lat="45.92467" lon="4.73457">
        <ele>173</ele>
        <time>2018-08-08T10:38:26Z</time>
      </trkpt>
      <trkpt lat="45.92468" lon="4.73465">
        <ele>173</ele>
        <time>2018-08-08T10:38:27Z</time>
      </trkpt>
      <trkpt lat="45.92468" lon="4.7347">
        <ele>173</ele>
        <time>2018-08-08T10:38:28Z</time>
      </trkpt>
      <trkpt lat="45.92468" lon="4.73476">
        <ele>173</ele>
        <time>2018-08-08T10:38:29Z</time>
      </trkpt>
      <trkpt lat="45.92469" lon="4.73484">
        <ele>173</ele>
        <time>2018-08-08T10:38:30Z</time>
      </trkpt>
      <trkpt lat="45.92468" lon="4.73492">
        <ele>173</ele>
        <time>2018-08-08T10:38:31Z</time>
      </trkpt>
      <trkpt lat="45.92468" lon="4.73499">
        <ele>173</ele>
        <time>2018-08-08T10:38:32Z</time>
      </trkpt>
      <trkpt lat="45.92468" lon="4.73506">
        <ele>174</ele>
        <time>2018-08-08T10:38:33Z</time>
      </trkpt>
      <trkpt lat="45.92468" lon="4.73513">
        <ele>174</ele>
        <time>2018-08-08T10:38:34Z</time>
      </trkpt>
      <trkpt lat="45.92468" lon="4.73524">
        <ele>174</ele>
        <time>2018-08-08T10:38:36Z</time>
      </trkpt>
      <trkpt lat="45.92467" lon="4.7353">
        <ele>174</ele>
        <time>2018-08-08T10:38:37Z</time>
      </trkpt>
      <trkpt lat="45.92466" lon="4.73536">
        <ele>174</ele>
        <time>2018-08-08T10:38:38Z</time>
      </trkpt>
      <trkpt lat="45.92466" lon="4.73543">
        <ele>173</ele>
        <time>2018-08-08T10:38:39Z</time>
      </trkpt>
      <trkpt lat="45.92465" lon="4.73549">
        <ele>173</ele>
        <time>2018-08-08T10:38:40Z</time>
      </trkpt>
      <trkpt lat="45.92465" lon="4.73556">
        <ele>173</ele>
        <time>2018-08-08T10:38:41Z</time>
      </trkpt>
      <trkpt lat="45.92465" lon="4.73564">
        <ele>173</ele>
        <time>2018-08-08T10:38:42Z</time>
      </trkpt>
      <trkpt lat="45.92464" lon="4.73571">
        <ele>173</ele>
        <time>2018-08-08T10:38:43Z</time>
      </trkpt>
      <trkpt lat="45.92466" lon="4.73579">
        <ele>173</ele>
        <time>2018-08-08T10:38:44Z</time>
      </trkpt>
      <trkpt lat="45.92465" lon="4.73587">
        <ele>174</ele>
        <time>2018-08-08T10:38:45Z</time>
      </trkpt>
      <trkpt lat="45.92466" lon="4.73595">
        <ele>174</ele>
        <time>2018-08-08T10:38:46Z</time>
      </trkpt>
      <trkpt lat="45.92467" lon="4.73605">
        <ele>174</ele>
        <time>2018-08-08T10:38:47Z</time>
      </trkpt>
      <trkpt lat="45.92467" lon="4.73613">
        <ele>174</ele>
        <time>2018-08-08T10:38:48Z</time>
      </trkpt>
      <trkpt lat="45.92467" lon="4.73621">
        <ele>174</ele>
        <time>2018-08-08T10:38:49Z</time>
      </trkpt>
      <trkpt lat="45.92467" lon="4.73628">
        <ele>174</ele>
        <time>2018-08-08T10:38:50Z</time>
      </trkpt>
      <trkpt lat="45.92467" lon="4.73636">
        <ele>174</ele>
        <time>2018-08-08T10:38:51Z</time>
      </trkpt>
      <trkpt lat="45.92465" lon="4.73647">
        <ele>174</ele>
        <time>2018-08-08T10:38:53Z</time>
      </trkpt>
      <trkpt lat="45.92465" lon="4.73653">
        <ele>174</ele>
        <time>2018-08-08T10:38:54Z</time>
      </trkpt>
      <trkpt lat="45.92464" lon="4.73666">
        <ele>174</ele>
        <time>2018-08-08T10:38:56Z</time>
      </trkpt>
      <trkpt lat="45.92463" lon="4.73671">
        <ele>174</ele>
        <time>2018-08-08T10:38:57Z</time>
      </trkpt>
      <trkpt lat="45.92462" lon="4.73684">
        <ele>174</ele>
        <time>2018-08-08T10:38:59Z</time>
      </trkpt>
      <trkpt lat="45.9246" lon="4.73685">
        <ele>174</ele>
        <time>2018-08-08T10:39:00Z</time>
      </trkpt>
      <trkpt lat="45.92458" lon="4.73696">
        <ele>174</ele>
        <time>2018-08-08T10:39:06Z</time>
      </trkpt>
      <trkpt lat="45.92458" lon="4.73697">
        <ele>174</ele>
        <time>2018-08-08T10:39:07Z</time>
      </trkpt>
      <trkpt lat="45.92459" lon="4.73698">
        <ele>174</ele>
        <time>2018-08-08T10:39:08Z</time>
      </trkpt>
      <trkpt lat="45.92457" lon="4.73707">
        <ele>174</ele>
        <time>2018-08-08T10:39:34.771Z</time>
      </trkpt>
    </trkseg>
  </trk>
</gpx>